<?xml version="1.0" encoding="UTF-8" standalone="no" ?>
<gpx xmlns="http://www.topografix.com/GPX/1/1" xmlns:xsi="http://www.w3.org/2001/XMLSchema-instance" xsi:schemaLocation="http://www.topografix.com/GPX/1/1 http://www.topografix.com/GPX/1/1/gpx.xsd" version="1.1" creator="VisuGPX - https://www.visugpx.com">
  <metadata>
    <name>Les Glières 01</name>
    <desc><![CDATA[projet 01]]></desc>
  </metadata>
  <trk>
    <name><![CDATA[Sortie Vélo Avec Pascal the Boss et Joffrey.]]></name>
    <extensions>
      <line xmlns="http://www.topografix.com/GPX/gpx_style/0/2">
        <color>0000FF</color>
        <width>4</width>
      </line>
    </extensions>
    <trkseg>
      <trkpt lat="46.19142" lon="6.25056">
        <ele>456.8</ele>
        <time>2021-03-27T11:32:23Z</time>
      </trkpt>
      <trkpt lat="46.19142" lon="6.25056">
        <ele>456.8</ele>
        <time>2021-03-27T11:32:23Z</time>
      </trkpt>
      <trkpt lat="46.19142" lon="6.25056">
        <ele>456.8</ele>
        <time>2021-03-27T11:32:24Z</time>
      </trkpt>
      <trkpt lat="46.19142" lon="6.25056">
        <ele>456.8</ele>
        <time>2021-03-27T11:32:25Z</time>
      </trkpt>
      <trkpt lat="46.19142" lon="6.25056">
        <ele>456.8</ele>
        <time>2021-03-27T11:32:26Z</time>
      </trkpt>
      <trkpt lat="46.19142" lon="6.25056">
        <ele>456.8</ele>
        <time>2021-03-27T11:32:27Z</time>
      </trkpt>
      <trkpt lat="46.19142" lon="6.25056">
        <ele>456.8</ele>
        <time>2021-03-27T11:32:29Z</time>
      </trkpt>
      <trkpt lat="46.19142" lon="6.25056">
        <ele>456.8</ele>
        <time>2021-03-27T11:32:30Z</time>
      </trkpt>
      <trkpt lat="46.19142" lon="6.25056">
        <ele>457</ele>
        <time>2021-03-27T11:32:31Z</time>
      </trkpt>
      <trkpt lat="46.19141" lon="6.25056">
        <ele>457</ele>
        <time>2021-03-27T11:32:33Z</time>
      </trkpt>
      <trkpt lat="46.19141" lon="6.25056">
        <ele>457.2</ele>
        <time>2021-03-27T11:32:34Z</time>
      </trkpt>
      <trkpt lat="46.19141" lon="6.25056">
        <ele>457.2</ele>
        <time>2021-03-27T11:32:35Z</time>
      </trkpt>
      <trkpt lat="46.19141" lon="6.25056">
        <ele>457.2</ele>
        <time>2021-03-27T11:32:36Z</time>
      </trkpt>
      <trkpt lat="46.19141" lon="6.25057">
        <ele>457.2</ele>
        <time>2021-03-27T11:32:37Z</time>
      </trkpt>
      <trkpt lat="46.19141" lon="6.25057">
        <ele>457.4</ele>
        <time>2021-03-27T11:32:38Z</time>
      </trkpt>
      <trkpt lat="46.19141" lon="6.25057">
        <ele>457.2</ele>
        <time>2021-03-27T11:32:39Z</time>
      </trkpt>
      <trkpt lat="46.19141" lon="6.25057">
        <ele>457.2</ele>
        <time>2021-03-27T11:32:40Z</time>
      </trkpt>
      <trkpt lat="46.19141" lon="6.25057">
        <ele>457.4</ele>
        <time>2021-03-27T11:32:41Z</time>
      </trkpt>
      <trkpt lat="46.19141" lon="6.25057">
        <ele>457.2</ele>
        <time>2021-03-27T11:32:42Z</time>
      </trkpt>
      <trkpt lat="46.19141" lon="6.25057">
        <ele>457.2</ele>
        <time>2021-03-27T11:32:43Z</time>
      </trkpt>
      <trkpt lat="46.19141" lon="6.25057">
        <ele>457.4</ele>
        <time>2021-03-27T11:32:44Z</time>
      </trkpt>
      <trkpt lat="46.19141" lon="6.25057">
        <ele>457.2</ele>
        <time>2021-03-27T11:32:45Z</time>
      </trkpt>
      <trkpt lat="46.19141" lon="6.25057">
        <ele>457.4</ele>
        <time>2021-03-27T11:32:46Z</time>
      </trkpt>
      <trkpt lat="46.19141" lon="6.25057">
        <ele>457.2</ele>
        <time>2021-03-27T11:32:47Z</time>
      </trkpt>
      <trkpt lat="46.19141" lon="6.25057">
        <ele>457.2</ele>
        <time>2021-03-27T11:32:48Z</time>
      </trkpt>
      <trkpt lat="46.19141" lon="6.25057">
        <ele>457.4</ele>
        <time>2021-03-27T11:32:49Z</time>
      </trkpt>
      <trkpt lat="46.19141" lon="6.25057">
        <ele>457.4</ele>
        <time>2021-03-27T11:32:50Z</time>
      </trkpt>
      <trkpt lat="46.19141" lon="6.25057">
        <ele>457.2</ele>
        <time>2021-03-27T11:32:51Z</time>
      </trkpt>
      <trkpt lat="46.19141" lon="6.25057">
        <ele>457.2</ele>
        <time>2021-03-27T11:32:52Z</time>
      </trkpt>
      <trkpt lat="46.19141" lon="6.25057">
        <ele>457.2</ele>
        <time>2021-03-27T11:32:53Z</time>
      </trkpt>
      <trkpt lat="46.19141" lon="6.25057">
        <ele>457.2</ele>
        <time>2021-03-27T11:32:54Z</time>
      </trkpt>
      <trkpt lat="46.19141" lon="6.25057">
        <ele>457.2</ele>
        <time>2021-03-27T11:32:55Z</time>
      </trkpt>
      <trkpt lat="46.19141" lon="6.25057">
        <ele>457.2</ele>
        <time>2021-03-27T11:32:56Z</time>
      </trkpt>
      <trkpt lat="46.19141" lon="6.25057">
        <ele>457</ele>
        <time>2021-03-27T11:32:57Z</time>
      </trkpt>
      <trkpt lat="46.19141" lon="6.25057">
        <ele>457</ele>
        <time>2021-03-27T11:32:58Z</time>
      </trkpt>
      <trkpt lat="46.19141" lon="6.25057">
        <ele>457.2</ele>
        <time>2021-03-27T11:32:59Z</time>
      </trkpt>
      <trkpt lat="46.19141" lon="6.25057">
        <ele>457.2</ele>
        <time>2021-03-27T11:33:00Z</time>
      </trkpt>
      <trkpt lat="46.19141" lon="6.25057">
        <ele>457</ele>
        <time>2021-03-27T11:33:01Z</time>
      </trkpt>
      <trkpt lat="46.19141" lon="6.25057">
        <ele>457.2</ele>
        <time>2021-03-27T11:33:02Z</time>
      </trkpt>
      <trkpt lat="46.1914" lon="6.25057">
        <ele>457</ele>
        <time>2021-03-27T11:33:03Z</time>
      </trkpt>
      <trkpt lat="46.1914" lon="6.25057">
        <ele>457</ele>
        <time>2021-03-27T11:33:04Z</time>
      </trkpt>
      <trkpt lat="46.1914" lon="6.25057">
        <ele>457</ele>
        <time>2021-03-27T11:33:05Z</time>
      </trkpt>
      <trkpt lat="46.1914" lon="6.25057">
        <ele>457.2</ele>
        <time>2021-03-27T11:33:06Z</time>
      </trkpt>
      <trkpt lat="46.1914" lon="6.25057">
        <ele>457</ele>
        <time>2021-03-27T11:33:07Z</time>
      </trkpt>
      <trkpt lat="46.1914" lon="6.25057">
        <ele>457</ele>
        <time>2021-03-27T11:33:08Z</time>
      </trkpt>
      <trkpt lat="46.1914" lon="6.25057">
        <ele>457</ele>
        <time>2021-03-27T11:33:09Z</time>
      </trkpt>
      <trkpt lat="46.1914" lon="6.25057">
        <ele>457</ele>
        <time>2021-03-27T11:33:10Z</time>
      </trkpt>
      <trkpt lat="46.1914" lon="6.25057">
        <ele>457</ele>
        <time>2021-03-27T11:33:11Z</time>
      </trkpt>
      <trkpt lat="46.1914" lon="6.25057">
        <ele>457.2</ele>
        <time>2021-03-27T11:33:12Z</time>
      </trkpt>
      <trkpt lat="46.1914" lon="6.25057">
        <ele>457.2</ele>
        <time>2021-03-27T11:33:13Z</time>
      </trkpt>
      <trkpt lat="46.1914" lon="6.25057">
        <ele>457.2</ele>
        <time>2021-03-27T11:33:14Z</time>
      </trkpt>
      <trkpt lat="46.1914" lon="6.25057">
        <ele>457.2</ele>
        <time>2021-03-27T11:33:15Z</time>
      </trkpt>
      <trkpt lat="46.1914" lon="6.25057">
        <ele>457.2</ele>
        <time>2021-03-27T11:33:16Z</time>
      </trkpt>
      <trkpt lat="46.1914" lon="6.25057">
        <ele>457.2</ele>
        <time>2021-03-27T11:33:17Z</time>
      </trkpt>
      <trkpt lat="46.1914" lon="6.25057">
        <ele>457.2</ele>
        <time>2021-03-27T11:33:18Z</time>
      </trkpt>
      <trkpt lat="46.1914" lon="6.25057">
        <ele>457.2</ele>
        <time>2021-03-27T11:33:19Z</time>
      </trkpt>
      <trkpt lat="46.1914" lon="6.25057">
        <ele>457.2</ele>
        <time>2021-03-27T11:33:20Z</time>
      </trkpt>
      <trkpt lat="46.1914" lon="6.25057">
        <ele>457.2</ele>
        <time>2021-03-27T11:33:21Z</time>
      </trkpt>
      <trkpt lat="46.1914" lon="6.25057">
        <ele>457.2</ele>
        <time>2021-03-27T11:33:22Z</time>
      </trkpt>
      <trkpt lat="46.1914" lon="6.25057">
        <ele>457.4</ele>
        <time>2021-03-27T11:33:23Z</time>
      </trkpt>
      <trkpt lat="46.1914" lon="6.25057">
        <ele>457.2</ele>
        <time>2021-03-27T11:33:24Z</time>
      </trkpt>
      <trkpt lat="46.1914" lon="6.25057">
        <ele>457.2</ele>
        <time>2021-03-27T11:33:25Z</time>
      </trkpt>
      <trkpt lat="46.1914" lon="6.25057">
        <ele>457.2</ele>
        <time>2021-03-27T11:33:26Z</time>
      </trkpt>
      <trkpt lat="46.1914" lon="6.25057">
        <ele>457.4</ele>
        <time>2021-03-27T11:33:27Z</time>
      </trkpt>
      <trkpt lat="46.1914" lon="6.25057">
        <ele>457.4</ele>
        <time>2021-03-27T11:33:28Z</time>
      </trkpt>
      <trkpt lat="46.1914" lon="6.25057">
        <ele>457.4</ele>
        <time>2021-03-27T11:33:29Z</time>
      </trkpt>
      <trkpt lat="46.1914" lon="6.25057">
        <ele>457.4</ele>
        <time>2021-03-27T11:33:30Z</time>
      </trkpt>
      <trkpt lat="46.1914" lon="6.25057">
        <ele>457.6</ele>
        <time>2021-03-27T11:33:31Z</time>
      </trkpt>
      <trkpt lat="46.1914" lon="6.25057">
        <ele>457.6</ele>
        <time>2021-03-27T11:33:32Z</time>
      </trkpt>
      <trkpt lat="46.19139" lon="6.25057">
        <ele>457.4</ele>
        <time>2021-03-27T11:33:33Z</time>
      </trkpt>
      <trkpt lat="46.19139" lon="6.25057">
        <ele>457.4</ele>
        <time>2021-03-27T11:33:34Z</time>
      </trkpt>
      <trkpt lat="46.19139" lon="6.25057">
        <ele>457.4</ele>
        <time>2021-03-27T11:33:35Z</time>
      </trkpt>
      <trkpt lat="46.19139" lon="6.25057">
        <ele>457.6</ele>
        <time>2021-03-27T11:33:36Z</time>
      </trkpt>
      <trkpt lat="46.19139" lon="6.25057">
        <ele>457.4</ele>
        <time>2021-03-27T11:33:37Z</time>
      </trkpt>
      <trkpt lat="46.19139" lon="6.25057">
        <ele>457.6</ele>
        <time>2021-03-27T11:33:38Z</time>
      </trkpt>
      <trkpt lat="46.19139" lon="6.25057">
        <ele>457.4</ele>
        <time>2021-03-27T11:33:39Z</time>
      </trkpt>
      <trkpt lat="46.19139" lon="6.25057">
        <ele>457.6</ele>
        <time>2021-03-27T11:33:40Z</time>
      </trkpt>
      <trkpt lat="46.19139" lon="6.25057">
        <ele>457.6</ele>
        <time>2021-03-27T11:33:41Z</time>
      </trkpt>
      <trkpt lat="46.19139" lon="6.25057">
        <ele>457.4</ele>
        <time>2021-03-27T11:33:42Z</time>
      </trkpt>
      <trkpt lat="46.19139" lon="6.25057">
        <ele>457.4</ele>
        <time>2021-03-27T11:33:43Z</time>
      </trkpt>
      <trkpt lat="46.19139" lon="6.25057">
        <ele>457.6</ele>
        <time>2021-03-27T11:33:44Z</time>
      </trkpt>
      <trkpt lat="46.19139" lon="6.25057">
        <ele>457.4</ele>
        <time>2021-03-27T11:33:45Z</time>
      </trkpt>
      <trkpt lat="46.19139" lon="6.25057">
        <ele>457.4</ele>
        <time>2021-03-27T11:33:46Z</time>
      </trkpt>
      <trkpt lat="46.19139" lon="6.25057">
        <ele>457.4</ele>
        <time>2021-03-27T11:33:47Z</time>
      </trkpt>
      <trkpt lat="46.19139" lon="6.25057">
        <ele>457.4</ele>
        <time>2021-03-27T11:33:48Z</time>
      </trkpt>
      <trkpt lat="46.19139" lon="6.25057">
        <ele>457.4</ele>
        <time>2021-03-27T11:33:49Z</time>
      </trkpt>
      <trkpt lat="46.19139" lon="6.25057">
        <ele>457.4</ele>
        <time>2021-03-27T11:33:50Z</time>
      </trkpt>
      <trkpt lat="46.19139" lon="6.25057">
        <ele>457.6</ele>
        <time>2021-03-27T11:33:51Z</time>
      </trkpt>
      <trkpt lat="46.19139" lon="6.25057">
        <ele>457.6</ele>
        <time>2021-03-27T11:33:52Z</time>
      </trkpt>
      <trkpt lat="46.19139" lon="6.25057">
        <ele>457.6</ele>
        <time>2021-03-27T11:33:53Z</time>
      </trkpt>
      <trkpt lat="46.19139" lon="6.25057">
        <ele>457.6</ele>
        <time>2021-03-27T11:33:54Z</time>
      </trkpt>
      <trkpt lat="46.19139" lon="6.25057">
        <ele>457.6</ele>
        <time>2021-03-27T11:33:55Z</time>
      </trkpt>
      <trkpt lat="46.19139" lon="6.25057">
        <ele>457.8</ele>
        <time>2021-03-27T11:33:56Z</time>
      </trkpt>
      <trkpt lat="46.19139" lon="6.25057">
        <ele>457.8</ele>
        <time>2021-03-27T11:33:57Z</time>
      </trkpt>
      <trkpt lat="46.19139" lon="6.25057">
        <ele>457.8</ele>
        <time>2021-03-27T11:33:58Z</time>
      </trkpt>
      <trkpt lat="46.19139" lon="6.25057">
        <ele>457.6</ele>
        <time>2021-03-27T11:33:59Z</time>
      </trkpt>
      <trkpt lat="46.19139" lon="6.25057">
        <ele>457.8</ele>
        <time>2021-03-27T11:34:00Z</time>
      </trkpt>
      <trkpt lat="46.19139" lon="6.25057">
        <ele>457.8</ele>
        <time>2021-03-27T11:34:01Z</time>
      </trkpt>
      <trkpt lat="46.19139" lon="6.25057">
        <ele>458</ele>
        <time>2021-03-27T11:34:02Z</time>
      </trkpt>
      <trkpt lat="46.19139" lon="6.25057">
        <ele>458</ele>
        <time>2021-03-27T11:34:03Z</time>
      </trkpt>
      <trkpt lat="46.19138" lon="6.25057">
        <ele>458</ele>
        <time>2021-03-27T11:34:04Z</time>
      </trkpt>
      <trkpt lat="46.19138" lon="6.25057">
        <ele>458.2</ele>
        <time>2021-03-27T11:34:05Z</time>
      </trkpt>
      <trkpt lat="46.19138" lon="6.25057">
        <ele>458.4</ele>
        <time>2021-03-27T11:34:06Z</time>
      </trkpt>
      <trkpt lat="46.19138" lon="6.25057">
        <ele>458.4</ele>
        <time>2021-03-27T11:34:07Z</time>
      </trkpt>
      <trkpt lat="46.19138" lon="6.25057">
        <ele>458.4</ele>
        <time>2021-03-27T11:34:08Z</time>
      </trkpt>
      <trkpt lat="46.19138" lon="6.25057">
        <ele>458.6</ele>
        <time>2021-03-27T11:34:09Z</time>
      </trkpt>
      <trkpt lat="46.19138" lon="6.25057">
        <ele>458.6</ele>
        <time>2021-03-27T11:34:10Z</time>
      </trkpt>
      <trkpt lat="46.19138" lon="6.25057">
        <ele>458.8</ele>
        <time>2021-03-27T11:34:11Z</time>
      </trkpt>
      <trkpt lat="46.19138" lon="6.25057">
        <ele>459</ele>
        <time>2021-03-27T11:34:12Z</time>
      </trkpt>
      <trkpt lat="46.19138" lon="6.25057">
        <ele>459</ele>
        <time>2021-03-27T11:34:13Z</time>
      </trkpt>
      <trkpt lat="46.19138" lon="6.25057">
        <ele>459</ele>
        <time>2021-03-27T11:34:14Z</time>
      </trkpt>
      <trkpt lat="46.19138" lon="6.25057">
        <ele>459.2</ele>
        <time>2021-03-27T11:34:15Z</time>
      </trkpt>
      <trkpt lat="46.19138" lon="6.25057">
        <ele>459.4</ele>
        <time>2021-03-27T11:34:16Z</time>
      </trkpt>
      <trkpt lat="46.19138" lon="6.25057">
        <ele>459.6</ele>
        <time>2021-03-27T11:34:17Z</time>
      </trkpt>
      <trkpt lat="46.19138" lon="6.25057">
        <ele>459.6</ele>
        <time>2021-03-27T11:34:18Z</time>
      </trkpt>
      <trkpt lat="46.19138" lon="6.25057">
        <ele>459.6</ele>
        <time>2021-03-27T11:34:19Z</time>
      </trkpt>
      <trkpt lat="46.19138" lon="6.25057">
        <ele>459.6</ele>
        <time>2021-03-27T11:34:20Z</time>
      </trkpt>
      <trkpt lat="46.19138" lon="6.25057">
        <ele>459.8</ele>
        <time>2021-03-27T11:34:21Z</time>
      </trkpt>
      <trkpt lat="46.19138" lon="6.25057">
        <ele>459.8</ele>
        <time>2021-03-27T11:34:22Z</time>
      </trkpt>
      <trkpt lat="46.19138" lon="6.25057">
        <ele>459.8</ele>
        <time>2021-03-27T11:34:23Z</time>
      </trkpt>
      <trkpt lat="46.19138" lon="6.25057">
        <ele>459.8</ele>
        <time>2021-03-27T11:34:24Z</time>
      </trkpt>
      <trkpt lat="46.19138" lon="6.25057">
        <ele>460</ele>
        <time>2021-03-27T11:34:25Z</time>
      </trkpt>
      <trkpt lat="46.19138" lon="6.25057">
        <ele>460</ele>
        <time>2021-03-27T11:34:26Z</time>
      </trkpt>
      <trkpt lat="46.19138" lon="6.25057">
        <ele>460</ele>
        <time>2021-03-27T11:34:27Z</time>
      </trkpt>
      <trkpt lat="46.19138" lon="6.25057">
        <ele>460</ele>
        <time>2021-03-27T11:34:28Z</time>
      </trkpt>
      <trkpt lat="46.19138" lon="6.25057">
        <ele>460</ele>
        <time>2021-03-27T11:34:29Z</time>
      </trkpt>
      <trkpt lat="46.19138" lon="6.25057">
        <ele>460</ele>
        <time>2021-03-27T11:34:30Z</time>
      </trkpt>
      <trkpt lat="46.19138" lon="6.25057">
        <ele>460</ele>
        <time>2021-03-27T11:34:31Z</time>
      </trkpt>
      <trkpt lat="46.19138" lon="6.25057">
        <ele>460</ele>
        <time>2021-03-27T11:34:32Z</time>
      </trkpt>
      <trkpt lat="46.19138" lon="6.25057">
        <ele>460.2</ele>
        <time>2021-03-27T11:34:33Z</time>
      </trkpt>
      <trkpt lat="46.19137" lon="6.25057">
        <ele>460</ele>
        <time>2021-03-27T11:34:34Z</time>
      </trkpt>
      <trkpt lat="46.19137" lon="6.25057">
        <ele>460</ele>
        <time>2021-03-27T11:34:35Z</time>
      </trkpt>
      <trkpt lat="46.19137" lon="6.25057">
        <ele>460</ele>
        <time>2021-03-27T11:34:36Z</time>
      </trkpt>
      <trkpt lat="46.19137" lon="6.25057">
        <ele>460</ele>
        <time>2021-03-27T11:34:37Z</time>
      </trkpt>
      <trkpt lat="46.19137" lon="6.25057">
        <ele>460</ele>
        <time>2021-03-27T11:34:38Z</time>
      </trkpt>
      <trkpt lat="46.19137" lon="6.25057">
        <ele>460</ele>
        <time>2021-03-27T11:34:39Z</time>
      </trkpt>
      <trkpt lat="46.19137" lon="6.25057">
        <ele>460</ele>
        <time>2021-03-27T11:34:40Z</time>
      </trkpt>
      <trkpt lat="46.19137" lon="6.25057">
        <ele>460</ele>
        <time>2021-03-27T11:34:41Z</time>
      </trkpt>
      <trkpt lat="46.19137" lon="6.25057">
        <ele>460</ele>
        <time>2021-03-27T11:34:42Z</time>
      </trkpt>
      <trkpt lat="46.19137" lon="6.25057">
        <ele>460</ele>
        <time>2021-03-27T11:34:43Z</time>
      </trkpt>
      <trkpt lat="46.19137" lon="6.25057">
        <ele>459.8</ele>
        <time>2021-03-27T11:34:44Z</time>
      </trkpt>
      <trkpt lat="46.19137" lon="6.25057">
        <ele>460</ele>
        <time>2021-03-27T11:34:45Z</time>
      </trkpt>
      <trkpt lat="46.19137" lon="6.25057">
        <ele>460</ele>
        <time>2021-03-27T11:34:46Z</time>
      </trkpt>
      <trkpt lat="46.19137" lon="6.25057">
        <ele>460</ele>
        <time>2021-03-27T11:34:47Z</time>
      </trkpt>
      <trkpt lat="46.19137" lon="6.25057">
        <ele>459.8</ele>
        <time>2021-03-27T11:34:48Z</time>
      </trkpt>
      <trkpt lat="46.19137" lon="6.25057">
        <ele>459.8</ele>
        <time>2021-03-27T11:34:49Z</time>
      </trkpt>
      <trkpt lat="46.19137" lon="6.25057">
        <ele>460</ele>
        <time>2021-03-27T11:34:50Z</time>
      </trkpt>
      <trkpt lat="46.19137" lon="6.25057">
        <ele>459.8</ele>
        <time>2021-03-27T11:34:51Z</time>
      </trkpt>
      <trkpt lat="46.19137" lon="6.25057">
        <ele>459.8</ele>
        <time>2021-03-27T11:34:52Z</time>
      </trkpt>
      <trkpt lat="46.19137" lon="6.25057">
        <ele>459.8</ele>
        <time>2021-03-27T11:34:53Z</time>
      </trkpt>
      <trkpt lat="46.19137" lon="6.25057">
        <ele>459.8</ele>
        <time>2021-03-27T11:34:54Z</time>
      </trkpt>
      <trkpt lat="46.19137" lon="6.25057">
        <ele>459.8</ele>
        <time>2021-03-27T11:34:55Z</time>
      </trkpt>
      <trkpt lat="46.19137" lon="6.25057">
        <ele>459.8</ele>
        <time>2021-03-27T11:34:56Z</time>
      </trkpt>
      <trkpt lat="46.19137" lon="6.25057">
        <ele>459.6</ele>
        <time>2021-03-27T11:34:57Z</time>
      </trkpt>
      <trkpt lat="46.19137" lon="6.25057">
        <ele>459.8</ele>
        <time>2021-03-27T11:34:58Z</time>
      </trkpt>
      <trkpt lat="46.19137" lon="6.25057">
        <ele>459.8</ele>
        <time>2021-03-27T11:34:59Z</time>
      </trkpt>
      <trkpt lat="46.19137" lon="6.25057">
        <ele>459.8</ele>
        <time>2021-03-27T11:35:00Z</time>
      </trkpt>
      <trkpt lat="46.19137" lon="6.25057">
        <ele>459.6</ele>
        <time>2021-03-27T11:35:01Z</time>
      </trkpt>
      <trkpt lat="46.19137" lon="6.25057">
        <ele>459.8</ele>
        <time>2021-03-27T11:35:02Z</time>
      </trkpt>
      <trkpt lat="46.19137" lon="6.25057">
        <ele>459.8</ele>
        <time>2021-03-27T11:35:03Z</time>
      </trkpt>
      <trkpt lat="46.19136" lon="6.25057">
        <ele>459.6</ele>
        <time>2021-03-27T11:35:04Z</time>
      </trkpt>
      <trkpt lat="46.19136" lon="6.25057">
        <ele>459.6</ele>
        <time>2021-03-27T11:35:05Z</time>
      </trkpt>
      <trkpt lat="46.19136" lon="6.25057">
        <ele>459.8</ele>
        <time>2021-03-27T11:35:06Z</time>
      </trkpt>
      <trkpt lat="46.19136" lon="6.25057">
        <ele>459.8</ele>
        <time>2021-03-27T11:35:07Z</time>
      </trkpt>
      <trkpt lat="46.19136" lon="6.25057">
        <ele>460</ele>
        <time>2021-03-27T11:35:08Z</time>
      </trkpt>
      <trkpt lat="46.19136" lon="6.25057">
        <ele>460</ele>
        <time>2021-03-27T11:35:09Z</time>
      </trkpt>
      <trkpt lat="46.19136" lon="6.25057">
        <ele>460</ele>
        <time>2021-03-27T11:35:10Z</time>
      </trkpt>
      <trkpt lat="46.19136" lon="6.25057">
        <ele>460.2</ele>
        <time>2021-03-27T11:35:11Z</time>
      </trkpt>
      <trkpt lat="46.19136" lon="6.25057">
        <ele>460.2</ele>
        <time>2021-03-27T11:35:12Z</time>
      </trkpt>
      <trkpt lat="46.19136" lon="6.25057">
        <ele>460.2</ele>
        <time>2021-03-27T11:35:13Z</time>
      </trkpt>
      <trkpt lat="46.19136" lon="6.25057">
        <ele>460.4</ele>
        <time>2021-03-27T11:35:14Z</time>
      </trkpt>
      <trkpt lat="46.19136" lon="6.25057">
        <ele>460.4</ele>
        <time>2021-03-27T11:35:15Z</time>
      </trkpt>
      <trkpt lat="46.19136" lon="6.25057">
        <ele>460.6</ele>
        <time>2021-03-27T11:35:16Z</time>
      </trkpt>
      <trkpt lat="46.19136" lon="6.25057">
        <ele>461</ele>
        <time>2021-03-27T11:35:17Z</time>
      </trkpt>
      <trkpt lat="46.19136" lon="6.25057">
        <ele>460.8</ele>
        <time>2021-03-27T11:35:18Z</time>
      </trkpt>
      <trkpt lat="46.19136" lon="6.25057">
        <ele>461</ele>
        <time>2021-03-27T11:35:19Z</time>
      </trkpt>
      <trkpt lat="46.19136" lon="6.25057">
        <ele>461.2</ele>
        <time>2021-03-27T11:35:20Z</time>
      </trkpt>
      <trkpt lat="46.19136" lon="6.25057">
        <ele>461.4</ele>
        <time>2021-03-27T11:35:21Z</time>
      </trkpt>
      <trkpt lat="46.19136" lon="6.25057">
        <ele>461.4</ele>
        <time>2021-03-27T11:35:22Z</time>
      </trkpt>
      <trkpt lat="46.19136" lon="6.25057">
        <ele>461.4</ele>
        <time>2021-03-27T11:35:23Z</time>
      </trkpt>
      <trkpt lat="46.19136" lon="6.25057">
        <ele>461.4</ele>
        <time>2021-03-27T11:35:24Z</time>
      </trkpt>
      <trkpt lat="46.19136" lon="6.25057">
        <ele>461.4</ele>
        <time>2021-03-27T11:35:25Z</time>
      </trkpt>
      <trkpt lat="46.19136" lon="6.25057">
        <ele>461.4</ele>
        <time>2021-03-27T11:35:26Z</time>
      </trkpt>
      <trkpt lat="46.19132" lon="6.25061">
        <ele>461.4</ele>
        <time>2021-03-27T11:35:27Z</time>
      </trkpt>
      <trkpt lat="46.19128" lon="6.25065">
        <ele>461.8</ele>
        <time>2021-03-27T11:35:28Z</time>
      </trkpt>
      <trkpt lat="46.1912" lon="6.25072">
        <ele>462</ele>
        <time>2021-03-27T11:35:29Z</time>
      </trkpt>
      <trkpt lat="46.19117" lon="6.2508">
        <ele>462.4</ele>
        <time>2021-03-27T11:35:30Z</time>
      </trkpt>
      <trkpt lat="46.19114" lon="6.25088">
        <ele>462.6</ele>
        <time>2021-03-27T11:35:31Z</time>
      </trkpt>
      <trkpt lat="46.19112" lon="6.25097">
        <ele>462.8</ele>
        <time>2021-03-27T11:35:32Z</time>
      </trkpt>
      <trkpt lat="46.19108" lon="6.25104">
        <ele>462.8</ele>
        <time>2021-03-27T11:35:33Z</time>
      </trkpt>
      <trkpt lat="46.19103" lon="6.2511">
        <ele>462.6</ele>
        <time>2021-03-27T11:35:34Z</time>
      </trkpt>
      <trkpt lat="46.19097" lon="6.25114">
        <ele>462</ele>
        <time>2021-03-27T11:35:35Z</time>
      </trkpt>
      <trkpt lat="46.19089" lon="6.25118">
        <ele>461.2</ele>
        <time>2021-03-27T11:35:36Z</time>
      </trkpt>
      <trkpt lat="46.1908" lon="6.2512">
        <ele>460</ele>
        <time>2021-03-27T11:35:37Z</time>
      </trkpt>
      <trkpt lat="46.19071" lon="6.2512">
        <ele>459</ele>
        <time>2021-03-27T11:35:38Z</time>
      </trkpt>
      <trkpt lat="46.19063" lon="6.25118">
        <ele>458.2</ele>
        <time>2021-03-27T11:35:39Z</time>
      </trkpt>
      <trkpt lat="46.19055" lon="6.25115">
        <ele>457.8</ele>
        <time>2021-03-27T11:35:40Z</time>
      </trkpt>
      <trkpt lat="46.19048" lon="6.25111">
        <ele>457.2</ele>
        <time>2021-03-27T11:35:41Z</time>
      </trkpt>
      <trkpt lat="46.19042" lon="6.25106">
        <ele>457.2</ele>
        <time>2021-03-27T11:35:42Z</time>
      </trkpt>
      <trkpt lat="46.19036" lon="6.25101">
        <ele>457.8</ele>
        <time>2021-03-27T11:35:43Z</time>
      </trkpt>
      <trkpt lat="46.19032" lon="6.25094">
        <ele>458</ele>
        <time>2021-03-27T11:35:44Z</time>
      </trkpt>
      <trkpt lat="46.19027" lon="6.2509">
        <ele>459.2</ele>
        <time>2021-03-27T11:35:45Z</time>
      </trkpt>
      <trkpt lat="46.19022" lon="6.25087">
        <ele>459.4</ele>
        <time>2021-03-27T11:35:46Z</time>
      </trkpt>
      <trkpt lat="46.19016" lon="6.25085">
        <ele>459.6</ele>
        <time>2021-03-27T11:35:47Z</time>
      </trkpt>
      <trkpt lat="46.1901" lon="6.25083">
        <ele>459.4</ele>
        <time>2021-03-27T11:35:48Z</time>
      </trkpt>
      <trkpt lat="46.19005" lon="6.2508">
        <ele>459.4</ele>
        <time>2021-03-27T11:35:49Z</time>
      </trkpt>
      <trkpt lat="46.18999" lon="6.25078">
        <ele>459.6</ele>
        <time>2021-03-27T11:35:50Z</time>
      </trkpt>
      <trkpt lat="46.18994" lon="6.25076">
        <ele>459.6</ele>
        <time>2021-03-27T11:35:51Z</time>
      </trkpt>
      <trkpt lat="46.18989" lon="6.25073">
        <ele>459.8</ele>
        <time>2021-03-27T11:35:52Z</time>
      </trkpt>
      <trkpt lat="46.18984" lon="6.25072">
        <ele>459.8</ele>
        <time>2021-03-27T11:35:53Z</time>
      </trkpt>
      <trkpt lat="46.18979" lon="6.25071">
        <ele>459.6</ele>
        <time>2021-03-27T11:35:54Z</time>
      </trkpt>
      <trkpt lat="46.18974" lon="6.2507">
        <ele>459.6</ele>
        <time>2021-03-27T11:35:55Z</time>
      </trkpt>
      <trkpt lat="46.18969" lon="6.25069">
        <ele>459.6</ele>
        <time>2021-03-27T11:35:56Z</time>
      </trkpt>
      <trkpt lat="46.18964" lon="6.25068">
        <ele>460.2</ele>
        <time>2021-03-27T11:35:57Z</time>
      </trkpt>
      <trkpt lat="46.18959" lon="6.25068">
        <ele>460.4</ele>
        <time>2021-03-27T11:35:58Z</time>
      </trkpt>
      <trkpt lat="46.18953" lon="6.25067">
        <ele>460.8</ele>
        <time>2021-03-27T11:35:59Z</time>
      </trkpt>
      <trkpt lat="46.18948" lon="6.25067">
        <ele>461.2</ele>
        <time>2021-03-27T11:36:00Z</time>
      </trkpt>
      <trkpt lat="46.18943" lon="6.25068">
        <ele>461.8</ele>
        <time>2021-03-27T11:36:01Z</time>
      </trkpt>
      <trkpt lat="46.18938" lon="6.25069">
        <ele>462.4</ele>
        <time>2021-03-27T11:36:02Z</time>
      </trkpt>
      <trkpt lat="46.18933" lon="6.2507">
        <ele>463</ele>
        <time>2021-03-27T11:36:03Z</time>
      </trkpt>
      <trkpt lat="46.18927" lon="6.2507">
        <ele>463.2</ele>
        <time>2021-03-27T11:36:04Z</time>
      </trkpt>
      <trkpt lat="46.18922" lon="6.25072">
        <ele>463.4</ele>
        <time>2021-03-27T11:36:05Z</time>
      </trkpt>
      <trkpt lat="46.18917" lon="6.25072">
        <ele>463.6</ele>
        <time>2021-03-27T11:36:06Z</time>
      </trkpt>
      <trkpt lat="46.18911" lon="6.25073">
        <ele>463.6</ele>
        <time>2021-03-27T11:36:07Z</time>
      </trkpt>
      <trkpt lat="46.18906" lon="6.25074">
        <ele>464</ele>
        <time>2021-03-27T11:36:08Z</time>
      </trkpt>
      <trkpt lat="46.18901" lon="6.25075">
        <ele>464.4</ele>
        <time>2021-03-27T11:36:09Z</time>
      </trkpt>
      <trkpt lat="46.18895" lon="6.25076">
        <ele>464.4</ele>
        <time>2021-03-27T11:36:10Z</time>
      </trkpt>
      <trkpt lat="46.1889" lon="6.25076">
        <ele>464.6</ele>
        <time>2021-03-27T11:36:11Z</time>
      </trkpt>
      <trkpt lat="46.18885" lon="6.25077">
        <ele>464.8</ele>
        <time>2021-03-27T11:36:12Z</time>
      </trkpt>
      <trkpt lat="46.18879" lon="6.25078">
        <ele>464.8</ele>
        <time>2021-03-27T11:36:13Z</time>
      </trkpt>
      <trkpt lat="46.18874" lon="6.25078">
        <ele>464.8</ele>
        <time>2021-03-27T11:36:14Z</time>
      </trkpt>
      <trkpt lat="46.18869" lon="6.25078">
        <ele>465</ele>
        <time>2021-03-27T11:36:15Z</time>
      </trkpt>
      <trkpt lat="46.18863" lon="6.25078">
        <ele>465</ele>
        <time>2021-03-27T11:36:16Z</time>
      </trkpt>
      <trkpt lat="46.18858" lon="6.25077">
        <ele>465.2</ele>
        <time>2021-03-27T11:36:17Z</time>
      </trkpt>
      <trkpt lat="46.18853" lon="6.25077">
        <ele>465.2</ele>
        <time>2021-03-27T11:36:18Z</time>
      </trkpt>
      <trkpt lat="46.18847" lon="6.25077">
        <ele>465.2</ele>
        <time>2021-03-27T11:36:19Z</time>
      </trkpt>
      <trkpt lat="46.18842" lon="6.25077">
        <ele>465.4</ele>
        <time>2021-03-27T11:36:20Z</time>
      </trkpt>
      <trkpt lat="46.18836" lon="6.25077">
        <ele>465.4</ele>
        <time>2021-03-27T11:36:21Z</time>
      </trkpt>
      <trkpt lat="46.18831" lon="6.25077">
        <ele>465.4</ele>
        <time>2021-03-27T11:36:22Z</time>
      </trkpt>
      <trkpt lat="46.18826" lon="6.25077">
        <ele>465.2</ele>
        <time>2021-03-27T11:36:23Z</time>
      </trkpt>
      <trkpt lat="46.1882" lon="6.25078">
        <ele>465.4</ele>
        <time>2021-03-27T11:36:24Z</time>
      </trkpt>
      <trkpt lat="46.18815" lon="6.25078">
        <ele>465.6</ele>
        <time>2021-03-27T11:36:25Z</time>
      </trkpt>
      <trkpt lat="46.1881" lon="6.25079">
        <ele>465.6</ele>
        <time>2021-03-27T11:36:26Z</time>
      </trkpt>
      <trkpt lat="46.18805" lon="6.25079">
        <ele>465.4</ele>
        <time>2021-03-27T11:36:27Z</time>
      </trkpt>
      <trkpt lat="46.18799" lon="6.25079">
        <ele>465.6</ele>
        <time>2021-03-27T11:36:28Z</time>
      </trkpt>
      <trkpt lat="46.18794" lon="6.2508">
        <ele>465.6</ele>
        <time>2021-03-27T11:36:29Z</time>
      </trkpt>
      <trkpt lat="46.18789" lon="6.2508">
        <ele>465.8</ele>
        <time>2021-03-27T11:36:30Z</time>
      </trkpt>
      <trkpt lat="46.18783" lon="6.25081">
        <ele>465.8</ele>
        <time>2021-03-27T11:36:31Z</time>
      </trkpt>
      <trkpt lat="46.18778" lon="6.25082">
        <ele>466</ele>
        <time>2021-03-27T11:36:32Z</time>
      </trkpt>
      <trkpt lat="46.18772" lon="6.25083">
        <ele>466</ele>
        <time>2021-03-27T11:36:33Z</time>
      </trkpt>
      <trkpt lat="46.18767" lon="6.25084">
        <ele>466</ele>
        <time>2021-03-27T11:36:34Z</time>
      </trkpt>
      <trkpt lat="46.18762" lon="6.25086">
        <ele>466.6</ele>
        <time>2021-03-27T11:36:35Z</time>
      </trkpt>
      <trkpt lat="46.18756" lon="6.25088">
        <ele>466.8</ele>
        <time>2021-03-27T11:36:36Z</time>
      </trkpt>
      <trkpt lat="46.18751" lon="6.25089">
        <ele>467.2</ele>
        <time>2021-03-27T11:36:37Z</time>
      </trkpt>
      <trkpt lat="46.18745" lon="6.25091">
        <ele>467</ele>
        <time>2021-03-27T11:36:38Z</time>
      </trkpt>
      <trkpt lat="46.1874" lon="6.25093">
        <ele>467.2</ele>
        <time>2021-03-27T11:36:39Z</time>
      </trkpt>
      <trkpt lat="46.18734" lon="6.25095">
        <ele>467.4</ele>
        <time>2021-03-27T11:36:40Z</time>
      </trkpt>
      <trkpt lat="46.18729" lon="6.25097">
        <ele>467.6</ele>
        <time>2021-03-27T11:36:41Z</time>
      </trkpt>
      <trkpt lat="46.18724" lon="6.25099">
        <ele>467.6</ele>
        <time>2021-03-27T11:36:42Z</time>
      </trkpt>
      <trkpt lat="46.18719" lon="6.25101">
        <ele>467.6</ele>
        <time>2021-03-27T11:36:43Z</time>
      </trkpt>
      <trkpt lat="46.18715" lon="6.25103">
        <ele>467.8</ele>
        <time>2021-03-27T11:36:44Z</time>
      </trkpt>
      <trkpt lat="46.1871" lon="6.25105">
        <ele>467.8</ele>
        <time>2021-03-27T11:36:45Z</time>
      </trkpt>
      <trkpt lat="46.18705" lon="6.25107">
        <ele>468</ele>
        <time>2021-03-27T11:36:46Z</time>
      </trkpt>
      <trkpt lat="46.187" lon="6.25109">
        <ele>468</ele>
        <time>2021-03-27T11:36:47Z</time>
      </trkpt>
      <trkpt lat="46.18695" lon="6.25111">
        <ele>468.2</ele>
        <time>2021-03-27T11:36:48Z</time>
      </trkpt>
      <trkpt lat="46.18691" lon="6.25113">
        <ele>468</ele>
        <time>2021-03-27T11:36:49Z</time>
      </trkpt>
      <trkpt lat="46.18687" lon="6.25115">
        <ele>468.2</ele>
        <time>2021-03-27T11:36:50Z</time>
      </trkpt>
      <trkpt lat="46.18682" lon="6.25116">
        <ele>468.4</ele>
        <time>2021-03-27T11:36:51Z</time>
      </trkpt>
      <trkpt lat="46.18677" lon="6.25118">
        <ele>468.6</ele>
        <time>2021-03-27T11:36:52Z</time>
      </trkpt>
      <trkpt lat="46.18673" lon="6.2512">
        <ele>468.6</ele>
        <time>2021-03-27T11:36:53Z</time>
      </trkpt>
      <trkpt lat="46.18668" lon="6.25122">
        <ele>468.8</ele>
        <time>2021-03-27T11:36:54Z</time>
      </trkpt>
      <trkpt lat="46.18663" lon="6.25124">
        <ele>469</ele>
        <time>2021-03-27T11:36:55Z</time>
      </trkpt>
      <trkpt lat="46.18658" lon="6.25126">
        <ele>469.2</ele>
        <time>2021-03-27T11:36:56Z</time>
      </trkpt>
      <trkpt lat="46.18654" lon="6.25128">
        <ele>469.4</ele>
        <time>2021-03-27T11:36:57Z</time>
      </trkpt>
      <trkpt lat="46.18649" lon="6.2513">
        <ele>469.4</ele>
        <time>2021-03-27T11:36:58Z</time>
      </trkpt>
      <trkpt lat="46.18643" lon="6.25132">
        <ele>469.2</ele>
        <time>2021-03-27T11:36:59Z</time>
      </trkpt>
      <trkpt lat="46.18638" lon="6.25134">
        <ele>469.4</ele>
        <time>2021-03-27T11:37:00Z</time>
      </trkpt>
      <trkpt lat="46.18632" lon="6.25136">
        <ele>469.8</ele>
        <time>2021-03-27T11:37:01Z</time>
      </trkpt>
      <trkpt lat="46.18627" lon="6.25138">
        <ele>470</ele>
        <time>2021-03-27T11:37:02Z</time>
      </trkpt>
      <trkpt lat="46.18621" lon="6.2514">
        <ele>470.2</ele>
        <time>2021-03-27T11:37:03Z</time>
      </trkpt>
      <trkpt lat="46.18615" lon="6.25142">
        <ele>470.4</ele>
        <time>2021-03-27T11:37:04Z</time>
      </trkpt>
      <trkpt lat="46.1861" lon="6.25143">
        <ele>470.2</ele>
        <time>2021-03-27T11:37:05Z</time>
      </trkpt>
      <trkpt lat="46.18604" lon="6.25144">
        <ele>470.4</ele>
        <time>2021-03-27T11:37:06Z</time>
      </trkpt>
      <trkpt lat="46.18598" lon="6.25146">
        <ele>470.4</ele>
        <time>2021-03-27T11:37:07Z</time>
      </trkpt>
      <trkpt lat="46.18593" lon="6.25148">
        <ele>470.6</ele>
        <time>2021-03-27T11:37:08Z</time>
      </trkpt>
      <trkpt lat="46.18587" lon="6.25148">
        <ele>470.6</ele>
        <time>2021-03-27T11:37:09Z</time>
      </trkpt>
      <trkpt lat="46.18583" lon="6.25149">
        <ele>471</ele>
        <time>2021-03-27T11:37:10Z</time>
      </trkpt>
      <trkpt lat="46.1858" lon="6.25148">
        <ele>471.2</ele>
        <time>2021-03-27T11:37:11Z</time>
      </trkpt>
      <trkpt lat="46.18579" lon="6.25148">
        <ele>471.4</ele>
        <time>2021-03-27T11:37:12Z</time>
      </trkpt>
      <trkpt lat="46.18577" lon="6.25148">
        <ele>471.4</ele>
        <time>2021-03-27T11:37:13Z</time>
      </trkpt>
      <trkpt lat="46.18574" lon="6.25148">
        <ele>471.6</ele>
        <time>2021-03-27T11:37:14Z</time>
      </trkpt>
      <trkpt lat="46.18571" lon="6.2515">
        <ele>471.6</ele>
        <time>2021-03-27T11:37:15Z</time>
      </trkpt>
      <trkpt lat="46.18568" lon="6.25152">
        <ele>472</ele>
        <time>2021-03-27T11:37:16Z</time>
      </trkpt>
      <trkpt lat="46.18564" lon="6.25154">
        <ele>472.2</ele>
        <time>2021-03-27T11:37:17Z</time>
      </trkpt>
      <trkpt lat="46.18559" lon="6.25156">
        <ele>472.4</ele>
        <time>2021-03-27T11:37:18Z</time>
      </trkpt>
      <trkpt lat="46.18554" lon="6.25158">
        <ele>472.8</ele>
        <time>2021-03-27T11:37:19Z</time>
      </trkpt>
      <trkpt lat="46.18549" lon="6.2516">
        <ele>473</ele>
        <time>2021-03-27T11:37:20Z</time>
      </trkpt>
      <trkpt lat="46.18544" lon="6.25161">
        <ele>473</ele>
        <time>2021-03-27T11:37:21Z</time>
      </trkpt>
      <trkpt lat="46.18539" lon="6.25162">
        <ele>473.2</ele>
        <time>2021-03-27T11:37:22Z</time>
      </trkpt>
      <trkpt lat="46.18534" lon="6.25164">
        <ele>473.2</ele>
        <time>2021-03-27T11:37:23Z</time>
      </trkpt>
      <trkpt lat="46.18528" lon="6.25165">
        <ele>473.4</ele>
        <time>2021-03-27T11:37:24Z</time>
      </trkpt>
      <trkpt lat="46.18523" lon="6.25166">
        <ele>473.4</ele>
        <time>2021-03-27T11:37:25Z</time>
      </trkpt>
      <trkpt lat="46.18518" lon="6.25168">
        <ele>473.4</ele>
        <time>2021-03-27T11:37:26Z</time>
      </trkpt>
      <trkpt lat="46.18513" lon="6.25169">
        <ele>473.4</ele>
        <time>2021-03-27T11:37:27Z</time>
      </trkpt>
      <trkpt lat="46.18507" lon="6.2517">
        <ele>473.4</ele>
        <time>2021-03-27T11:37:28Z</time>
      </trkpt>
      <trkpt lat="46.18502" lon="6.25172">
        <ele>473.6</ele>
        <time>2021-03-27T11:37:29Z</time>
      </trkpt>
      <trkpt lat="46.18497" lon="6.25173">
        <ele>473.4</ele>
        <time>2021-03-27T11:37:30Z</time>
      </trkpt>
      <trkpt lat="46.18492" lon="6.25174">
        <ele>473.6</ele>
        <time>2021-03-27T11:37:31Z</time>
      </trkpt>
      <trkpt lat="46.18487" lon="6.25176">
        <ele>473.6</ele>
        <time>2021-03-27T11:37:32Z</time>
      </trkpt>
      <trkpt lat="46.18482" lon="6.25177">
        <ele>473.8</ele>
        <time>2021-03-27T11:37:33Z</time>
      </trkpt>
      <trkpt lat="46.18477" lon="6.25178">
        <ele>473.8</ele>
        <time>2021-03-27T11:37:34Z</time>
      </trkpt>
      <trkpt lat="46.18472" lon="6.25179">
        <ele>473.8</ele>
        <time>2021-03-27T11:37:35Z</time>
      </trkpt>
      <trkpt lat="46.18467" lon="6.25181">
        <ele>473.8</ele>
        <time>2021-03-27T11:37:36Z</time>
      </trkpt>
      <trkpt lat="46.18462" lon="6.25182">
        <ele>473.8</ele>
        <time>2021-03-27T11:37:37Z</time>
      </trkpt>
      <trkpt lat="46.18457" lon="6.25184">
        <ele>473.8</ele>
        <time>2021-03-27T11:37:38Z</time>
      </trkpt>
      <trkpt lat="46.18452" lon="6.25186">
        <ele>473.8</ele>
        <time>2021-03-27T11:37:39Z</time>
      </trkpt>
      <trkpt lat="46.18447" lon="6.25188">
        <ele>474</ele>
        <time>2021-03-27T11:37:40Z</time>
      </trkpt>
      <trkpt lat="46.18442" lon="6.2519">
        <ele>474.4</ele>
        <time>2021-03-27T11:37:41Z</time>
      </trkpt>
      <trkpt lat="46.18437" lon="6.25192">
        <ele>474.6</ele>
        <time>2021-03-27T11:37:42Z</time>
      </trkpt>
      <trkpt lat="46.18431" lon="6.25194">
        <ele>474.8</ele>
        <time>2021-03-27T11:37:43Z</time>
      </trkpt>
      <trkpt lat="46.18426" lon="6.25196">
        <ele>475</ele>
        <time>2021-03-27T11:37:44Z</time>
      </trkpt>
      <trkpt lat="46.18421" lon="6.25198">
        <ele>475</ele>
        <time>2021-03-27T11:37:45Z</time>
      </trkpt>
      <trkpt lat="46.18415" lon="6.252">
        <ele>475</ele>
        <time>2021-03-27T11:37:46Z</time>
      </trkpt>
      <trkpt lat="46.1841" lon="6.25203">
        <ele>475.2</ele>
        <time>2021-03-27T11:37:47Z</time>
      </trkpt>
      <trkpt lat="46.18405" lon="6.25206">
        <ele>475.6</ele>
        <time>2021-03-27T11:37:48Z</time>
      </trkpt>
      <trkpt lat="46.184" lon="6.25209">
        <ele>475.4</ele>
        <time>2021-03-27T11:37:49Z</time>
      </trkpt>
      <trkpt lat="46.18395" lon="6.25212">
        <ele>475.6</ele>
        <time>2021-03-27T11:37:50Z</time>
      </trkpt>
      <trkpt lat="46.18389" lon="6.25216">
        <ele>475.8</ele>
        <time>2021-03-27T11:37:51Z</time>
      </trkpt>
      <trkpt lat="46.18384" lon="6.25219">
        <ele>476</ele>
        <time>2021-03-27T11:37:52Z</time>
      </trkpt>
      <trkpt lat="46.1838" lon="6.25222">
        <ele>476</ele>
        <time>2021-03-27T11:37:53Z</time>
      </trkpt>
      <trkpt lat="46.18375" lon="6.25225">
        <ele>476.2</ele>
        <time>2021-03-27T11:37:54Z</time>
      </trkpt>
      <trkpt lat="46.1837" lon="6.25229">
        <ele>476.2</ele>
        <time>2021-03-27T11:37:55Z</time>
      </trkpt>
      <trkpt lat="46.18365" lon="6.25233">
        <ele>476.4</ele>
        <time>2021-03-27T11:37:56Z</time>
      </trkpt>
      <trkpt lat="46.18361" lon="6.25236">
        <ele>476.4</ele>
        <time>2021-03-27T11:37:57Z</time>
      </trkpt>
      <trkpt lat="46.18357" lon="6.25239">
        <ele>476.8</ele>
        <time>2021-03-27T11:37:58Z</time>
      </trkpt>
      <trkpt lat="46.18352" lon="6.25242">
        <ele>476.8</ele>
        <time>2021-03-27T11:37:59Z</time>
      </trkpt>
      <trkpt lat="46.18348" lon="6.25245">
        <ele>477</ele>
        <time>2021-03-27T11:38:00Z</time>
      </trkpt>
      <trkpt lat="46.18344" lon="6.25248">
        <ele>477.4</ele>
        <time>2021-03-27T11:38:01Z</time>
      </trkpt>
      <trkpt lat="46.18339" lon="6.25251">
        <ele>477.6</ele>
        <time>2021-03-27T11:38:02Z</time>
      </trkpt>
      <trkpt lat="46.18335" lon="6.25254">
        <ele>477.8</ele>
        <time>2021-03-27T11:38:03Z</time>
      </trkpt>
      <trkpt lat="46.18331" lon="6.25257">
        <ele>478</ele>
        <time>2021-03-27T11:38:04Z</time>
      </trkpt>
      <trkpt lat="46.18327" lon="6.25259">
        <ele>478.4</ele>
        <time>2021-03-27T11:38:05Z</time>
      </trkpt>
      <trkpt lat="46.18323" lon="6.25262">
        <ele>478.6</ele>
        <time>2021-03-27T11:38:06Z</time>
      </trkpt>
      <trkpt lat="46.18319" lon="6.25265">
        <ele>479</ele>
        <time>2021-03-27T11:38:07Z</time>
      </trkpt>
      <trkpt lat="46.18316" lon="6.25267">
        <ele>479</ele>
        <time>2021-03-27T11:38:08Z</time>
      </trkpt>
      <trkpt lat="46.18312" lon="6.2527">
        <ele>479.2</ele>
        <time>2021-03-27T11:38:09Z</time>
      </trkpt>
      <trkpt lat="46.18308" lon="6.25273">
        <ele>479.2</ele>
        <time>2021-03-27T11:38:10Z</time>
      </trkpt>
      <trkpt lat="46.18303" lon="6.25275">
        <ele>479.6</ele>
        <time>2021-03-27T11:38:11Z</time>
      </trkpt>
      <trkpt lat="46.18299" lon="6.25278">
        <ele>479.8</ele>
        <time>2021-03-27T11:38:12Z</time>
      </trkpt>
      <trkpt lat="46.18294" lon="6.25281">
        <ele>480</ele>
        <time>2021-03-27T11:38:13Z</time>
      </trkpt>
      <trkpt lat="46.1829" lon="6.25284">
        <ele>480</ele>
        <time>2021-03-27T11:38:14Z</time>
      </trkpt>
      <trkpt lat="46.18285" lon="6.25287">
        <ele>480</ele>
        <time>2021-03-27T11:38:15Z</time>
      </trkpt>
      <trkpt lat="46.18281" lon="6.2529">
        <ele>480.6</ele>
        <time>2021-03-27T11:38:16Z</time>
      </trkpt>
      <trkpt lat="46.18277" lon="6.25292">
        <ele>481</ele>
        <time>2021-03-27T11:38:17Z</time>
      </trkpt>
      <trkpt lat="46.18273" lon="6.25295">
        <ele>481.2</ele>
        <time>2021-03-27T11:38:18Z</time>
      </trkpt>
      <trkpt lat="46.18268" lon="6.25298">
        <ele>481.4</ele>
        <time>2021-03-27T11:38:19Z</time>
      </trkpt>
      <trkpt lat="46.18265" lon="6.25301">
        <ele>481.6</ele>
        <time>2021-03-27T11:38:20Z</time>
      </trkpt>
      <trkpt lat="46.18261" lon="6.25305">
        <ele>481.8</ele>
        <time>2021-03-27T11:38:21Z</time>
      </trkpt>
      <trkpt lat="46.18256" lon="6.25308">
        <ele>482</ele>
        <time>2021-03-27T11:38:22Z</time>
      </trkpt>
      <trkpt lat="46.18252" lon="6.25311">
        <ele>482.4</ele>
        <time>2021-03-27T11:38:23Z</time>
      </trkpt>
      <trkpt lat="46.18248" lon="6.25314">
        <ele>482.6</ele>
        <time>2021-03-27T11:38:24Z</time>
      </trkpt>
      <trkpt lat="46.18243" lon="6.25316">
        <ele>483</ele>
        <time>2021-03-27T11:38:25Z</time>
      </trkpt>
      <trkpt lat="46.18238" lon="6.25319">
        <ele>483</ele>
        <time>2021-03-27T11:38:26Z</time>
      </trkpt>
      <trkpt lat="46.18233" lon="6.25322">
        <ele>483.4</ele>
        <time>2021-03-27T11:38:27Z</time>
      </trkpt>
      <trkpt lat="46.18228" lon="6.25324">
        <ele>483.6</ele>
        <time>2021-03-27T11:38:28Z</time>
      </trkpt>
      <trkpt lat="46.18223" lon="6.25327">
        <ele>483.6</ele>
        <time>2021-03-27T11:38:29Z</time>
      </trkpt>
      <trkpt lat="46.18218" lon="6.2533">
        <ele>483.6</ele>
        <time>2021-03-27T11:38:30Z</time>
      </trkpt>
      <trkpt lat="46.18213" lon="6.25334">
        <ele>483.8</ele>
        <time>2021-03-27T11:38:31Z</time>
      </trkpt>
      <trkpt lat="46.18209" lon="6.25337">
        <ele>483.8</ele>
        <time>2021-03-27T11:38:32Z</time>
      </trkpt>
      <trkpt lat="46.18204" lon="6.2534">
        <ele>484</ele>
        <time>2021-03-27T11:38:33Z</time>
      </trkpt>
      <trkpt lat="46.18199" lon="6.25343">
        <ele>484</ele>
        <time>2021-03-27T11:38:34Z</time>
      </trkpt>
      <trkpt lat="46.18194" lon="6.25346">
        <ele>484.2</ele>
        <time>2021-03-27T11:38:35Z</time>
      </trkpt>
      <trkpt lat="46.18189" lon="6.25349">
        <ele>484.2</ele>
        <time>2021-03-27T11:38:36Z</time>
      </trkpt>
      <trkpt lat="46.18184" lon="6.25352">
        <ele>484.2</ele>
        <time>2021-03-27T11:38:37Z</time>
      </trkpt>
      <trkpt lat="46.1818" lon="6.25355">
        <ele>484.4</ele>
        <time>2021-03-27T11:38:38Z</time>
      </trkpt>
      <trkpt lat="46.18175" lon="6.25358">
        <ele>484.2</ele>
        <time>2021-03-27T11:38:39Z</time>
      </trkpt>
      <trkpt lat="46.1817" lon="6.25361">
        <ele>484.4</ele>
        <time>2021-03-27T11:38:40Z</time>
      </trkpt>
      <trkpt lat="46.18165" lon="6.25364">
        <ele>484.6</ele>
        <time>2021-03-27T11:38:41Z</time>
      </trkpt>
      <trkpt lat="46.1816" lon="6.25367">
        <ele>484.4</ele>
        <time>2021-03-27T11:38:42Z</time>
      </trkpt>
      <trkpt lat="46.18155" lon="6.2537">
        <ele>484.6</ele>
        <time>2021-03-27T11:38:43Z</time>
      </trkpt>
      <trkpt lat="46.1815" lon="6.25373">
        <ele>484.6</ele>
        <time>2021-03-27T11:38:44Z</time>
      </trkpt>
      <trkpt lat="46.18145" lon="6.25376">
        <ele>485</ele>
        <time>2021-03-27T11:38:45Z</time>
      </trkpt>
      <trkpt lat="46.1814" lon="6.25379">
        <ele>485</ele>
        <time>2021-03-27T11:38:46Z</time>
      </trkpt>
      <trkpt lat="46.18135" lon="6.25381">
        <ele>485.2</ele>
        <time>2021-03-27T11:38:47Z</time>
      </trkpt>
      <trkpt lat="46.1813" lon="6.25384">
        <ele>485.2</ele>
        <time>2021-03-27T11:38:48Z</time>
      </trkpt>
      <trkpt lat="46.18125" lon="6.25387">
        <ele>485.2</ele>
        <time>2021-03-27T11:38:49Z</time>
      </trkpt>
      <trkpt lat="46.1812" lon="6.25391">
        <ele>485.4</ele>
        <time>2021-03-27T11:38:50Z</time>
      </trkpt>
      <trkpt lat="46.18114" lon="6.25394">
        <ele>485.6</ele>
        <time>2021-03-27T11:38:51Z</time>
      </trkpt>
      <trkpt lat="46.18109" lon="6.25397">
        <ele>485.6</ele>
        <time>2021-03-27T11:38:52Z</time>
      </trkpt>
      <trkpt lat="46.18104" lon="6.25401">
        <ele>485.8</ele>
        <time>2021-03-27T11:38:53Z</time>
      </trkpt>
      <trkpt lat="46.18099" lon="6.25405">
        <ele>486</ele>
        <time>2021-03-27T11:38:54Z</time>
      </trkpt>
      <trkpt lat="46.18094" lon="6.25409">
        <ele>485.8</ele>
        <time>2021-03-27T11:38:55Z</time>
      </trkpt>
      <trkpt lat="46.1809" lon="6.25413">
        <ele>486</ele>
        <time>2021-03-27T11:38:56Z</time>
      </trkpt>
      <trkpt lat="46.18085" lon="6.25417">
        <ele>486.2</ele>
        <time>2021-03-27T11:38:57Z</time>
      </trkpt>
      <trkpt lat="46.1808" lon="6.25421">
        <ele>486.4</ele>
        <time>2021-03-27T11:38:58Z</time>
      </trkpt>
      <trkpt lat="46.18076" lon="6.25426">
        <ele>486.6</ele>
        <time>2021-03-27T11:38:59Z</time>
      </trkpt>
      <trkpt lat="46.18072" lon="6.2543">
        <ele>487</ele>
        <time>2021-03-27T11:39:00Z</time>
      </trkpt>
      <trkpt lat="46.18068" lon="6.25435">
        <ele>487</ele>
        <time>2021-03-27T11:39:01Z</time>
      </trkpt>
      <trkpt lat="46.18064" lon="6.2544">
        <ele>487.2</ele>
        <time>2021-03-27T11:39:02Z</time>
      </trkpt>
      <trkpt lat="46.18061" lon="6.25444">
        <ele>487.2</ele>
        <time>2021-03-27T11:39:03Z</time>
      </trkpt>
      <trkpt lat="46.18058" lon="6.25449">
        <ele>487.4</ele>
        <time>2021-03-27T11:39:04Z</time>
      </trkpt>
      <trkpt lat="46.18055" lon="6.25454">
        <ele>487.4</ele>
        <time>2021-03-27T11:39:05Z</time>
      </trkpt>
      <trkpt lat="46.18051" lon="6.25459">
        <ele>487.4</ele>
        <time>2021-03-27T11:39:06Z</time>
      </trkpt>
      <trkpt lat="46.18047" lon="6.25464">
        <ele>488</ele>
        <time>2021-03-27T11:39:07Z</time>
      </trkpt>
      <trkpt lat="46.18044" lon="6.25469">
        <ele>488.4</ele>
        <time>2021-03-27T11:39:08Z</time>
      </trkpt>
      <trkpt lat="46.18041" lon="6.25474">
        <ele>488.8</ele>
        <time>2021-03-27T11:39:09Z</time>
      </trkpt>
      <trkpt lat="46.18038" lon="6.25479">
        <ele>489.2</ele>
        <time>2021-03-27T11:39:10Z</time>
      </trkpt>
      <trkpt lat="46.18034" lon="6.25484">
        <ele>489.6</ele>
        <time>2021-03-27T11:39:11Z</time>
      </trkpt>
      <trkpt lat="46.18031" lon="6.25488">
        <ele>490</ele>
        <time>2021-03-27T11:39:12Z</time>
      </trkpt>
      <trkpt lat="46.18027" lon="6.25492">
        <ele>490.4</ele>
        <time>2021-03-27T11:39:13Z</time>
      </trkpt>
      <trkpt lat="46.18024" lon="6.25497">
        <ele>490.8</ele>
        <time>2021-03-27T11:39:14Z</time>
      </trkpt>
      <trkpt lat="46.1802" lon="6.25501">
        <ele>491.2</ele>
        <time>2021-03-27T11:39:15Z</time>
      </trkpt>
      <trkpt lat="46.18016" lon="6.25505">
        <ele>491.4</ele>
        <time>2021-03-27T11:39:16Z</time>
      </trkpt>
      <trkpt lat="46.18012" lon="6.25509">
        <ele>491.8</ele>
        <time>2021-03-27T11:39:17Z</time>
      </trkpt>
      <trkpt lat="46.18008" lon="6.25513">
        <ele>491.8</ele>
        <time>2021-03-27T11:39:18Z</time>
      </trkpt>
      <trkpt lat="46.18004" lon="6.25516">
        <ele>492</ele>
        <time>2021-03-27T11:39:19Z</time>
      </trkpt>
      <trkpt lat="46.17999" lon="6.2552">
        <ele>492.2</ele>
        <time>2021-03-27T11:39:20Z</time>
      </trkpt>
      <trkpt lat="46.17994" lon="6.25523">
        <ele>492.4</ele>
        <time>2021-03-27T11:39:21Z</time>
      </trkpt>
      <trkpt lat="46.17989" lon="6.25526">
        <ele>492.6</ele>
        <time>2021-03-27T11:39:22Z</time>
      </trkpt>
      <trkpt lat="46.17983" lon="6.25529">
        <ele>492.8</ele>
        <time>2021-03-27T11:39:23Z</time>
      </trkpt>
      <trkpt lat="46.17978" lon="6.25532">
        <ele>492.8</ele>
        <time>2021-03-27T11:39:24Z</time>
      </trkpt>
      <trkpt lat="46.17972" lon="6.25535">
        <ele>493.2</ele>
        <time>2021-03-27T11:39:25Z</time>
      </trkpt>
      <trkpt lat="46.17966" lon="6.25537">
        <ele>493.4</ele>
        <time>2021-03-27T11:39:26Z</time>
      </trkpt>
      <trkpt lat="46.1796" lon="6.2554">
        <ele>493.6</ele>
        <time>2021-03-27T11:39:27Z</time>
      </trkpt>
      <trkpt lat="46.17953" lon="6.25542">
        <ele>493.8</ele>
        <time>2021-03-27T11:39:28Z</time>
      </trkpt>
      <trkpt lat="46.17946" lon="6.25544">
        <ele>494</ele>
        <time>2021-03-27T11:39:29Z</time>
      </trkpt>
      <trkpt lat="46.17939" lon="6.25546">
        <ele>494</ele>
        <time>2021-03-27T11:39:30Z</time>
      </trkpt>
      <trkpt lat="46.17933" lon="6.25548">
        <ele>494.2</ele>
        <time>2021-03-27T11:39:31Z</time>
      </trkpt>
      <trkpt lat="46.17925" lon="6.25549">
        <ele>494.2</ele>
        <time>2021-03-27T11:39:32Z</time>
      </trkpt>
      <trkpt lat="46.17917" lon="6.25551">
        <ele>494.2</ele>
        <time>2021-03-27T11:39:33Z</time>
      </trkpt>
      <trkpt lat="46.17909" lon="6.25553">
        <ele>494.2</ele>
        <time>2021-03-27T11:39:34Z</time>
      </trkpt>
      <trkpt lat="46.17901" lon="6.25554">
        <ele>494.2</ele>
        <time>2021-03-27T11:39:35Z</time>
      </trkpt>
      <trkpt lat="46.17892" lon="6.25555">
        <ele>494</ele>
        <time>2021-03-27T11:39:36Z</time>
      </trkpt>
      <trkpt lat="46.17884" lon="6.25555">
        <ele>494.2</ele>
        <time>2021-03-27T11:39:37Z</time>
      </trkpt>
      <trkpt lat="46.17875" lon="6.25555">
        <ele>494.2</ele>
        <time>2021-03-27T11:39:38Z</time>
      </trkpt>
      <trkpt lat="46.17865" lon="6.25554">
        <ele>494</ele>
        <time>2021-03-27T11:39:39Z</time>
      </trkpt>
      <trkpt lat="46.17856" lon="6.25553">
        <ele>493.8</ele>
        <time>2021-03-27T11:39:40Z</time>
      </trkpt>
      <trkpt lat="46.17847" lon="6.25551">
        <ele>493</ele>
        <time>2021-03-27T11:39:41Z</time>
      </trkpt>
      <trkpt lat="46.17837" lon="6.25549">
        <ele>492.6</ele>
        <time>2021-03-27T11:39:42Z</time>
      </trkpt>
      <trkpt lat="46.17827" lon="6.25548">
        <ele>491.6</ele>
        <time>2021-03-27T11:39:43Z</time>
      </trkpt>
      <trkpt lat="46.17818" lon="6.25548">
        <ele>491.2</ele>
        <time>2021-03-27T11:39:44Z</time>
      </trkpt>
      <trkpt lat="46.17809" lon="6.25548">
        <ele>490.8</ele>
        <time>2021-03-27T11:39:45Z</time>
      </trkpt>
      <trkpt lat="46.178" lon="6.25549">
        <ele>490.4</ele>
        <time>2021-03-27T11:39:46Z</time>
      </trkpt>
      <trkpt lat="46.1779" lon="6.2555">
        <ele>489.4</ele>
        <time>2021-03-27T11:39:47Z</time>
      </trkpt>
      <trkpt lat="46.17781" lon="6.25551">
        <ele>489.2</ele>
        <time>2021-03-27T11:39:48Z</time>
      </trkpt>
      <trkpt lat="46.17771" lon="6.25552">
        <ele>488.6</ele>
        <time>2021-03-27T11:39:49Z</time>
      </trkpt>
      <trkpt lat="46.17762" lon="6.25554">
        <ele>488.6</ele>
        <time>2021-03-27T11:39:50Z</time>
      </trkpt>
      <trkpt lat="46.17754" lon="6.25557">
        <ele>488.4</ele>
        <time>2021-03-27T11:39:51Z</time>
      </trkpt>
      <trkpt lat="46.17745" lon="6.2556">
        <ele>488.4</ele>
        <time>2021-03-27T11:39:52Z</time>
      </trkpt>
      <trkpt lat="46.17738" lon="6.25563">
        <ele>488.2</ele>
        <time>2021-03-27T11:39:53Z</time>
      </trkpt>
      <trkpt lat="46.1773" lon="6.25567">
        <ele>488.2</ele>
        <time>2021-03-27T11:39:54Z</time>
      </trkpt>
      <trkpt lat="46.17722" lon="6.25571">
        <ele>488</ele>
        <time>2021-03-27T11:39:55Z</time>
      </trkpt>
      <trkpt lat="46.17715" lon="6.25575">
        <ele>488</ele>
        <time>2021-03-27T11:39:56Z</time>
      </trkpt>
      <trkpt lat="46.17708" lon="6.25578">
        <ele>488</ele>
        <time>2021-03-27T11:39:57Z</time>
      </trkpt>
      <trkpt lat="46.17701" lon="6.25582">
        <ele>488</ele>
        <time>2021-03-27T11:39:58Z</time>
      </trkpt>
      <trkpt lat="46.17694" lon="6.25586">
        <ele>488</ele>
        <time>2021-03-27T11:39:59Z</time>
      </trkpt>
      <trkpt lat="46.17688" lon="6.25589">
        <ele>488</ele>
        <time>2021-03-27T11:40:00Z</time>
      </trkpt>
      <trkpt lat="46.17682" lon="6.25593">
        <ele>487.8</ele>
        <time>2021-03-27T11:40:01Z</time>
      </trkpt>
      <trkpt lat="46.17676" lon="6.25596">
        <ele>487.8</ele>
        <time>2021-03-27T11:40:02Z</time>
      </trkpt>
      <trkpt lat="46.1767" lon="6.256">
        <ele>488</ele>
        <time>2021-03-27T11:40:03Z</time>
      </trkpt>
      <trkpt lat="46.17664" lon="6.25603">
        <ele>488</ele>
        <time>2021-03-27T11:40:04Z</time>
      </trkpt>
      <trkpt lat="46.17658" lon="6.25606">
        <ele>488</ele>
        <time>2021-03-27T11:40:05Z</time>
      </trkpt>
      <trkpt lat="46.17652" lon="6.25609">
        <ele>488</ele>
        <time>2021-03-27T11:40:06Z</time>
      </trkpt>
      <trkpt lat="46.17646" lon="6.25612">
        <ele>488</ele>
        <time>2021-03-27T11:40:07Z</time>
      </trkpt>
      <trkpt lat="46.17641" lon="6.25615">
        <ele>488</ele>
        <time>2021-03-27T11:40:08Z</time>
      </trkpt>
      <trkpt lat="46.17635" lon="6.25618">
        <ele>488</ele>
        <time>2021-03-27T11:40:09Z</time>
      </trkpt>
      <trkpt lat="46.17629" lon="6.25622">
        <ele>488.2</ele>
        <time>2021-03-27T11:40:10Z</time>
      </trkpt>
      <trkpt lat="46.17624" lon="6.25625">
        <ele>488.2</ele>
        <time>2021-03-27T11:40:11Z</time>
      </trkpt>
      <trkpt lat="46.17618" lon="6.25628">
        <ele>488.6</ele>
        <time>2021-03-27T11:40:12Z</time>
      </trkpt>
      <trkpt lat="46.17613" lon="6.25631">
        <ele>488.6</ele>
        <time>2021-03-27T11:40:13Z</time>
      </trkpt>
      <trkpt lat="46.17608" lon="6.25634">
        <ele>488.8</ele>
        <time>2021-03-27T11:40:14Z</time>
      </trkpt>
      <trkpt lat="46.17602" lon="6.25637">
        <ele>488.8</ele>
        <time>2021-03-27T11:40:15Z</time>
      </trkpt>
      <trkpt lat="46.17597" lon="6.25639">
        <ele>489</ele>
        <time>2021-03-27T11:40:16Z</time>
      </trkpt>
      <trkpt lat="46.17592" lon="6.25642">
        <ele>489.4</ele>
        <time>2021-03-27T11:40:17Z</time>
      </trkpt>
      <trkpt lat="46.17587" lon="6.25645">
        <ele>489.4</ele>
        <time>2021-03-27T11:40:18Z</time>
      </trkpt>
      <trkpt lat="46.17581" lon="6.25648">
        <ele>489.4</ele>
        <time>2021-03-27T11:40:19Z</time>
      </trkpt>
      <trkpt lat="46.17576" lon="6.25651">
        <ele>489.8</ele>
        <time>2021-03-27T11:40:20Z</time>
      </trkpt>
      <trkpt lat="46.17571" lon="6.25654">
        <ele>490</ele>
        <time>2021-03-27T11:40:21Z</time>
      </trkpt>
      <trkpt lat="46.17566" lon="6.25657">
        <ele>490</ele>
        <time>2021-03-27T11:40:22Z</time>
      </trkpt>
      <trkpt lat="46.17561" lon="6.25659">
        <ele>490.2</ele>
        <time>2021-03-27T11:40:23Z</time>
      </trkpt>
      <trkpt lat="46.17556" lon="6.25662">
        <ele>490.2</ele>
        <time>2021-03-27T11:40:24Z</time>
      </trkpt>
      <trkpt lat="46.17552" lon="6.25666">
        <ele>490.4</ele>
        <time>2021-03-27T11:40:25Z</time>
      </trkpt>
      <trkpt lat="46.17547" lon="6.25669">
        <ele>490.6</ele>
        <time>2021-03-27T11:40:26Z</time>
      </trkpt>
      <trkpt lat="46.17543" lon="6.25673">
        <ele>490.8</ele>
        <time>2021-03-27T11:40:27Z</time>
      </trkpt>
      <trkpt lat="46.17539" lon="6.25677">
        <ele>491</ele>
        <time>2021-03-27T11:40:28Z</time>
      </trkpt>
      <trkpt lat="46.17534" lon="6.25681">
        <ele>491</ele>
        <time>2021-03-27T11:40:29Z</time>
      </trkpt>
      <trkpt lat="46.1753" lon="6.25684">
        <ele>491.2</ele>
        <time>2021-03-27T11:40:30Z</time>
      </trkpt>
      <trkpt lat="46.17526" lon="6.25688">
        <ele>491.2</ele>
        <time>2021-03-27T11:40:31Z</time>
      </trkpt>
      <trkpt lat="46.17522" lon="6.25691">
        <ele>491.4</ele>
        <time>2021-03-27T11:40:32Z</time>
      </trkpt>
      <trkpt lat="46.17519" lon="6.25694">
        <ele>491.6</ele>
        <time>2021-03-27T11:40:33Z</time>
      </trkpt>
      <trkpt lat="46.17515" lon="6.25697">
        <ele>491.8</ele>
        <time>2021-03-27T11:40:34Z</time>
      </trkpt>
      <trkpt lat="46.17512" lon="6.257">
        <ele>491.8</ele>
        <time>2021-03-27T11:40:35Z</time>
      </trkpt>
      <trkpt lat="46.17508" lon="6.25703">
        <ele>492.2</ele>
        <time>2021-03-27T11:40:36Z</time>
      </trkpt>
      <trkpt lat="46.17505" lon="6.25707">
        <ele>492.6</ele>
        <time>2021-03-27T11:40:37Z</time>
      </trkpt>
      <trkpt lat="46.17502" lon="6.2571">
        <ele>492.8</ele>
        <time>2021-03-27T11:40:38Z</time>
      </trkpt>
      <trkpt lat="46.17498" lon="6.25713">
        <ele>493.4</ele>
        <time>2021-03-27T11:40:39Z</time>
      </trkpt>
      <trkpt lat="46.17495" lon="6.25716">
        <ele>493.4</ele>
        <time>2021-03-27T11:40:40Z</time>
      </trkpt>
      <trkpt lat="46.17492" lon="6.25719">
        <ele>493.6</ele>
        <time>2021-03-27T11:40:41Z</time>
      </trkpt>
      <trkpt lat="46.17489" lon="6.25722">
        <ele>494</ele>
        <time>2021-03-27T11:40:42Z</time>
      </trkpt>
      <trkpt lat="46.17485" lon="6.25725">
        <ele>494.4</ele>
        <time>2021-03-27T11:40:43Z</time>
      </trkpt>
      <trkpt lat="46.17482" lon="6.25727">
        <ele>494.8</ele>
        <time>2021-03-27T11:40:44Z</time>
      </trkpt>
      <trkpt lat="46.17479" lon="6.2573">
        <ele>495</ele>
        <time>2021-03-27T11:40:45Z</time>
      </trkpt>
      <trkpt lat="46.17476" lon="6.25733">
        <ele>495.4</ele>
        <time>2021-03-27T11:40:46Z</time>
      </trkpt>
      <trkpt lat="46.17472" lon="6.25736">
        <ele>495.8</ele>
        <time>2021-03-27T11:40:47Z</time>
      </trkpt>
      <trkpt lat="46.17469" lon="6.25738">
        <ele>496.2</ele>
        <time>2021-03-27T11:40:48Z</time>
      </trkpt>
      <trkpt lat="46.17465" lon="6.25741">
        <ele>496.6</ele>
        <time>2021-03-27T11:40:49Z</time>
      </trkpt>
      <trkpt lat="46.17462" lon="6.25744">
        <ele>497</ele>
        <time>2021-03-27T11:40:50Z</time>
      </trkpt>
      <trkpt lat="46.17459" lon="6.25747">
        <ele>497.4</ele>
        <time>2021-03-27T11:40:51Z</time>
      </trkpt>
      <trkpt lat="46.17455" lon="6.2575">
        <ele>497.6</ele>
        <time>2021-03-27T11:40:52Z</time>
      </trkpt>
      <trkpt lat="46.17452" lon="6.25752">
        <ele>498</ele>
        <time>2021-03-27T11:40:53Z</time>
      </trkpt>
      <trkpt lat="46.17448" lon="6.25755">
        <ele>498.2</ele>
        <time>2021-03-27T11:40:54Z</time>
      </trkpt>
      <trkpt lat="46.17445" lon="6.25758">
        <ele>498.4</ele>
        <time>2021-03-27T11:40:55Z</time>
      </trkpt>
      <trkpt lat="46.17442" lon="6.25761">
        <ele>498.8</ele>
        <time>2021-03-27T11:40:56Z</time>
      </trkpt>
      <trkpt lat="46.17439" lon="6.25765">
        <ele>498.8</ele>
        <time>2021-03-27T11:40:57Z</time>
      </trkpt>
      <trkpt lat="46.17436" lon="6.25769">
        <ele>499</ele>
        <time>2021-03-27T11:40:58Z</time>
      </trkpt>
      <trkpt lat="46.17434" lon="6.25773">
        <ele>499.2</ele>
        <time>2021-03-27T11:40:59Z</time>
      </trkpt>
      <trkpt lat="46.17431" lon="6.25777">
        <ele>499.4</ele>
        <time>2021-03-27T11:41:00Z</time>
      </trkpt>
      <trkpt lat="46.17429" lon="6.2578">
        <ele>499.6</ele>
        <time>2021-03-27T11:41:01Z</time>
      </trkpt>
      <trkpt lat="46.17426" lon="6.25783">
        <ele>500</ele>
        <time>2021-03-27T11:41:02Z</time>
      </trkpt>
      <trkpt lat="46.17423" lon="6.25784">
        <ele>500.2</ele>
        <time>2021-03-27T11:41:03Z</time>
      </trkpt>
      <trkpt lat="46.17421" lon="6.25784">
        <ele>500.4</ele>
        <time>2021-03-27T11:41:04Z</time>
      </trkpt>
      <trkpt lat="46.17418" lon="6.25783">
        <ele>500.6</ele>
        <time>2021-03-27T11:41:05Z</time>
      </trkpt>
      <trkpt lat="46.17415" lon="6.25779">
        <ele>500.8</ele>
        <time>2021-03-27T11:41:06Z</time>
      </trkpt>
      <trkpt lat="46.17414" lon="6.25775">
        <ele>500.8</ele>
        <time>2021-03-27T11:41:07Z</time>
      </trkpt>
      <trkpt lat="46.17412" lon="6.25771">
        <ele>501</ele>
        <time>2021-03-27T11:41:08Z</time>
      </trkpt>
      <trkpt lat="46.17411" lon="6.25767">
        <ele>500.8</ele>
        <time>2021-03-27T11:41:09Z</time>
      </trkpt>
      <trkpt lat="46.1741" lon="6.25764">
        <ele>500.8</ele>
        <time>2021-03-27T11:41:10Z</time>
      </trkpt>
      <trkpt lat="46.17408" lon="6.25761">
        <ele>501</ele>
        <time>2021-03-27T11:41:11Z</time>
      </trkpt>
      <trkpt lat="46.17406" lon="6.2576">
        <ele>501</ele>
        <time>2021-03-27T11:41:12Z</time>
      </trkpt>
      <trkpt lat="46.17403" lon="6.25762">
        <ele>500.8</ele>
        <time>2021-03-27T11:41:13Z</time>
      </trkpt>
      <trkpt lat="46.17401" lon="6.25765">
        <ele>500.8</ele>
        <time>2021-03-27T11:41:14Z</time>
      </trkpt>
      <trkpt lat="46.174" lon="6.25769">
        <ele>501</ele>
        <time>2021-03-27T11:41:15Z</time>
      </trkpt>
      <trkpt lat="46.174" lon="6.25773">
        <ele>500.8</ele>
        <time>2021-03-27T11:41:16Z</time>
      </trkpt>
      <trkpt lat="46.17399" lon="6.25778">
        <ele>500.6</ele>
        <time>2021-03-27T11:41:17Z</time>
      </trkpt>
      <trkpt lat="46.17399" lon="6.25782">
        <ele>500.6</ele>
        <time>2021-03-27T11:41:18Z</time>
      </trkpt>
      <trkpt lat="46.17398" lon="6.25786">
        <ele>500.6</ele>
        <time>2021-03-27T11:41:19Z</time>
      </trkpt>
      <trkpt lat="46.17398" lon="6.25791">
        <ele>500.6</ele>
        <time>2021-03-27T11:41:20Z</time>
      </trkpt>
      <trkpt lat="46.17398" lon="6.25795">
        <ele>500.6</ele>
        <time>2021-03-27T11:41:21Z</time>
      </trkpt>
      <trkpt lat="46.17397" lon="6.25799">
        <ele>500.6</ele>
        <time>2021-03-27T11:41:22Z</time>
      </trkpt>
      <trkpt lat="46.17397" lon="6.25803">
        <ele>500.6</ele>
        <time>2021-03-27T11:41:23Z</time>
      </trkpt>
      <trkpt lat="46.17397" lon="6.25806">
        <ele>500.4</ele>
        <time>2021-03-27T11:41:24Z</time>
      </trkpt>
      <trkpt lat="46.17398" lon="6.25808">
        <ele>500.4</ele>
        <time>2021-03-27T11:41:25Z</time>
      </trkpt>
      <trkpt lat="46.174" lon="6.25808">
        <ele>500.6</ele>
        <time>2021-03-27T11:41:26Z</time>
      </trkpt>
      <trkpt lat="46.17402" lon="6.25808">
        <ele>500.4</ele>
        <time>2021-03-27T11:41:27Z</time>
      </trkpt>
      <trkpt lat="46.17405" lon="6.25807">
        <ele>500.6</ele>
        <time>2021-03-27T11:41:28Z</time>
      </trkpt>
      <trkpt lat="46.17407" lon="6.25806">
        <ele>500.4</ele>
        <time>2021-03-27T11:41:29Z</time>
      </trkpt>
      <trkpt lat="46.17409" lon="6.25808">
        <ele>500.6</ele>
        <time>2021-03-27T11:41:30Z</time>
      </trkpt>
      <trkpt lat="46.17411" lon="6.2581">
        <ele>500.6</ele>
        <time>2021-03-27T11:41:31Z</time>
      </trkpt>
      <trkpt lat="46.17412" lon="6.25814">
        <ele>500.6</ele>
        <time>2021-03-27T11:41:32Z</time>
      </trkpt>
      <trkpt lat="46.17412" lon="6.25819">
        <ele>500.6</ele>
        <time>2021-03-27T11:41:33Z</time>
      </trkpt>
      <trkpt lat="46.17412" lon="6.25824">
        <ele>500.6</ele>
        <time>2021-03-27T11:41:34Z</time>
      </trkpt>
      <trkpt lat="46.17411" lon="6.2583">
        <ele>500.8</ele>
        <time>2021-03-27T11:41:35Z</time>
      </trkpt>
      <trkpt lat="46.1741" lon="6.25835">
        <ele>500.8</ele>
        <time>2021-03-27T11:41:36Z</time>
      </trkpt>
      <trkpt lat="46.17411" lon="6.25841">
        <ele>500.8</ele>
        <time>2021-03-27T11:41:37Z</time>
      </trkpt>
      <trkpt lat="46.17413" lon="6.25847">
        <ele>500.8</ele>
        <time>2021-03-27T11:41:38Z</time>
      </trkpt>
      <trkpt lat="46.17416" lon="6.25851">
        <ele>500.8</ele>
        <time>2021-03-27T11:41:39Z</time>
      </trkpt>
      <trkpt lat="46.1742" lon="6.25854">
        <ele>501</ele>
        <time>2021-03-27T11:41:40Z</time>
      </trkpt>
      <trkpt lat="46.17423" lon="6.25857">
        <ele>501.2</ele>
        <time>2021-03-27T11:41:41Z</time>
      </trkpt>
      <trkpt lat="46.17427" lon="6.25859">
        <ele>501.2</ele>
        <time>2021-03-27T11:41:42Z</time>
      </trkpt>
      <trkpt lat="46.1743" lon="6.2586">
        <ele>501.2</ele>
        <time>2021-03-27T11:41:43Z</time>
      </trkpt>
      <trkpt lat="46.17433" lon="6.25859">
        <ele>501.4</ele>
        <time>2021-03-27T11:41:44Z</time>
      </trkpt>
      <trkpt lat="46.17435" lon="6.25858">
        <ele>501.4</ele>
        <time>2021-03-27T11:41:45Z</time>
      </trkpt>
      <trkpt lat="46.17437" lon="6.25856">
        <ele>501.4</ele>
        <time>2021-03-27T11:41:46Z</time>
      </trkpt>
      <trkpt lat="46.17437" lon="6.25853">
        <ele>501.4</ele>
        <time>2021-03-27T11:41:47Z</time>
      </trkpt>
      <trkpt lat="46.17436" lon="6.2585">
        <ele>501.6</ele>
        <time>2021-03-27T11:41:48Z</time>
      </trkpt>
      <trkpt lat="46.17436" lon="6.25847">
        <ele>501.6</ele>
        <time>2021-03-27T11:41:49Z</time>
      </trkpt>
      <trkpt lat="46.17435" lon="6.25843">
        <ele>501.8</ele>
        <time>2021-03-27T11:41:50Z</time>
      </trkpt>
      <trkpt lat="46.17434" lon="6.25839">
        <ele>502</ele>
        <time>2021-03-27T11:41:51Z</time>
      </trkpt>
      <trkpt lat="46.17433" lon="6.25835">
        <ele>502.2</ele>
        <time>2021-03-27T11:41:52Z</time>
      </trkpt>
      <trkpt lat="46.17434" lon="6.25833">
        <ele>502.4</ele>
        <time>2021-03-27T11:41:53Z</time>
      </trkpt>
      <trkpt lat="46.17434" lon="6.25832">
        <ele>502.4</ele>
        <time>2021-03-27T11:41:54Z</time>
      </trkpt>
      <trkpt lat="46.17434" lon="6.25832">
        <ele>502.4</ele>
        <time>2021-03-27T11:41:55Z</time>
      </trkpt>
      <trkpt lat="46.17434" lon="6.25832">
        <ele>502.6</ele>
        <time>2021-03-27T11:41:56Z</time>
      </trkpt>
      <trkpt lat="46.17434" lon="6.25832">
        <ele>502.6</ele>
        <time>2021-03-27T11:41:57Z</time>
      </trkpt>
      <trkpt lat="46.17435" lon="6.25831">
        <ele>502.8</ele>
        <time>2021-03-27T11:41:58Z</time>
      </trkpt>
      <trkpt lat="46.17435" lon="6.25831">
        <ele>502.8</ele>
        <time>2021-03-27T11:41:59Z</time>
      </trkpt>
      <trkpt lat="46.17435" lon="6.25832">
        <ele>502.8</ele>
        <time>2021-03-27T11:42:00Z</time>
      </trkpt>
      <trkpt lat="46.17435" lon="6.25832">
        <ele>502.8</ele>
        <time>2021-03-27T11:42:01Z</time>
      </trkpt>
      <trkpt lat="46.17435" lon="6.25832">
        <ele>502.8</ele>
        <time>2021-03-27T11:42:02Z</time>
      </trkpt>
      <trkpt lat="46.17435" lon="6.25832">
        <ele>503</ele>
        <time>2021-03-27T11:42:03Z</time>
      </trkpt>
      <trkpt lat="46.17435" lon="6.25832">
        <ele>503.2</ele>
        <time>2021-03-27T11:42:04Z</time>
      </trkpt>
      <trkpt lat="46.17435" lon="6.25832">
        <ele>503</ele>
        <time>2021-03-27T11:42:05Z</time>
      </trkpt>
      <trkpt lat="46.17435" lon="6.25832">
        <ele>503</ele>
        <time>2021-03-27T11:42:06Z</time>
      </trkpt>
      <trkpt lat="46.17435" lon="6.25832">
        <ele>503</ele>
        <time>2021-03-27T11:42:07Z</time>
      </trkpt>
      <trkpt lat="46.17435" lon="6.25832">
        <ele>503.2</ele>
        <time>2021-03-27T11:42:08Z</time>
      </trkpt>
      <trkpt lat="46.17435" lon="6.25832">
        <ele>503</ele>
        <time>2021-03-27T11:42:09Z</time>
      </trkpt>
      <trkpt lat="46.17435" lon="6.25832">
        <ele>503.2</ele>
        <time>2021-03-27T11:42:10Z</time>
      </trkpt>
      <trkpt lat="46.17435" lon="6.25832">
        <ele>503.2</ele>
        <time>2021-03-27T11:42:11Z</time>
      </trkpt>
      <trkpt lat="46.17435" lon="6.25832">
        <ele>503.4</ele>
        <time>2021-03-27T11:42:12Z</time>
      </trkpt>
      <trkpt lat="46.17435" lon="6.25832">
        <ele>503.4</ele>
        <time>2021-03-27T11:42:13Z</time>
      </trkpt>
      <trkpt lat="46.17435" lon="6.25832">
        <ele>503.4</ele>
        <time>2021-03-27T11:42:14Z</time>
      </trkpt>
      <trkpt lat="46.17435" lon="6.25832">
        <ele>503.4</ele>
        <time>2021-03-27T11:42:15Z</time>
      </trkpt>
      <trkpt lat="46.17435" lon="6.25832">
        <ele>503.4</ele>
        <time>2021-03-27T11:42:16Z</time>
      </trkpt>
      <trkpt lat="46.17435" lon="6.25832">
        <ele>503.4</ele>
        <time>2021-03-27T11:42:17Z</time>
      </trkpt>
      <trkpt lat="46.17435" lon="6.25832">
        <ele>503.4</ele>
        <time>2021-03-27T11:42:18Z</time>
      </trkpt>
      <trkpt lat="46.17435" lon="6.25832">
        <ele>503.4</ele>
        <time>2021-03-27T11:42:19Z</time>
      </trkpt>
      <trkpt lat="46.17435" lon="6.25832">
        <ele>503.4</ele>
        <time>2021-03-27T11:42:20Z</time>
      </trkpt>
      <trkpt lat="46.17435" lon="6.25832">
        <ele>503.2</ele>
        <time>2021-03-27T11:42:21Z</time>
      </trkpt>
      <trkpt lat="46.17435" lon="6.25832">
        <ele>503.4</ele>
        <time>2021-03-27T11:42:22Z</time>
      </trkpt>
      <trkpt lat="46.17435" lon="6.25832">
        <ele>503.4</ele>
        <time>2021-03-27T11:42:23Z</time>
      </trkpt>
      <trkpt lat="46.17435" lon="6.25832">
        <ele>503.4</ele>
        <time>2021-03-27T11:42:24Z</time>
      </trkpt>
      <trkpt lat="46.17435" lon="6.25832">
        <ele>503.4</ele>
        <time>2021-03-27T11:42:25Z</time>
      </trkpt>
      <trkpt lat="46.17435" lon="6.25832">
        <ele>503.2</ele>
        <time>2021-03-27T11:42:26Z</time>
      </trkpt>
      <trkpt lat="46.17435" lon="6.25832">
        <ele>503.2</ele>
        <time>2021-03-27T11:42:27Z</time>
      </trkpt>
      <trkpt lat="46.17435" lon="6.25832">
        <ele>503.4</ele>
        <time>2021-03-27T11:42:28Z</time>
      </trkpt>
      <trkpt lat="46.17435" lon="6.25832">
        <ele>503.4</ele>
        <time>2021-03-27T11:42:29Z</time>
      </trkpt>
      <trkpt lat="46.17435" lon="6.25832">
        <ele>503.4</ele>
        <time>2021-03-27T11:42:30Z</time>
      </trkpt>
      <trkpt lat="46.17435" lon="6.25832">
        <ele>503.4</ele>
        <time>2021-03-27T11:42:31Z</time>
      </trkpt>
      <trkpt lat="46.17435" lon="6.25832">
        <ele>503.2</ele>
        <time>2021-03-27T11:42:32Z</time>
      </trkpt>
      <trkpt lat="46.17435" lon="6.25832">
        <ele>503.2</ele>
        <time>2021-03-27T11:42:33Z</time>
      </trkpt>
      <trkpt lat="46.17435" lon="6.25832">
        <ele>503.4</ele>
        <time>2021-03-27T11:42:34Z</time>
      </trkpt>
      <trkpt lat="46.17435" lon="6.25832">
        <ele>503.2</ele>
        <time>2021-03-27T11:42:35Z</time>
      </trkpt>
      <trkpt lat="46.17435" lon="6.25832">
        <ele>503.2</ele>
        <time>2021-03-27T11:42:36Z</time>
      </trkpt>
      <trkpt lat="46.17435" lon="6.25832">
        <ele>503.2</ele>
        <time>2021-03-27T11:42:37Z</time>
      </trkpt>
      <trkpt lat="46.17435" lon="6.25832">
        <ele>503.2</ele>
        <time>2021-03-27T11:42:38Z</time>
      </trkpt>
      <trkpt lat="46.17435" lon="6.25832">
        <ele>503.2</ele>
        <time>2021-03-27T11:42:39Z</time>
      </trkpt>
      <trkpt lat="46.17435" lon="6.25832">
        <ele>503.2</ele>
        <time>2021-03-27T11:42:40Z</time>
      </trkpt>
      <trkpt lat="46.17435" lon="6.25832">
        <ele>503.2</ele>
        <time>2021-03-27T11:42:41Z</time>
      </trkpt>
      <trkpt lat="46.17435" lon="6.25832">
        <ele>503.2</ele>
        <time>2021-03-27T11:42:42Z</time>
      </trkpt>
      <trkpt lat="46.17435" lon="6.25832">
        <ele>503.2</ele>
        <time>2021-03-27T11:42:43Z</time>
      </trkpt>
      <trkpt lat="46.17435" lon="6.25832">
        <ele>503.2</ele>
        <time>2021-03-27T11:42:44Z</time>
      </trkpt>
      <trkpt lat="46.17435" lon="6.25832">
        <ele>503.2</ele>
        <time>2021-03-27T11:42:45Z</time>
      </trkpt>
      <trkpt lat="46.17435" lon="6.25832">
        <ele>503.2</ele>
        <time>2021-03-27T11:42:46Z</time>
      </trkpt>
      <trkpt lat="46.17435" lon="6.25832">
        <ele>503.2</ele>
        <time>2021-03-27T11:42:47Z</time>
      </trkpt>
      <trkpt lat="46.17435" lon="6.25832">
        <ele>503.4</ele>
        <time>2021-03-27T11:42:48Z</time>
      </trkpt>
      <trkpt lat="46.17435" lon="6.25832">
        <ele>503.2</ele>
        <time>2021-03-27T11:42:49Z</time>
      </trkpt>
      <trkpt lat="46.17435" lon="6.25832">
        <ele>503</ele>
        <time>2021-03-27T11:42:50Z</time>
      </trkpt>
      <trkpt lat="46.17435" lon="6.25832">
        <ele>503.2</ele>
        <time>2021-03-27T11:42:51Z</time>
      </trkpt>
      <trkpt lat="46.17435" lon="6.25832">
        <ele>503</ele>
        <time>2021-03-27T11:42:52Z</time>
      </trkpt>
      <trkpt lat="46.17435" lon="6.25832">
        <ele>503.2</ele>
        <time>2021-03-27T11:42:53Z</time>
      </trkpt>
      <trkpt lat="46.17435" lon="6.25832">
        <ele>503.2</ele>
        <time>2021-03-27T11:42:54Z</time>
      </trkpt>
      <trkpt lat="46.17435" lon="6.25832">
        <ele>503.2</ele>
        <time>2021-03-27T11:42:55Z</time>
      </trkpt>
      <trkpt lat="46.17435" lon="6.25832">
        <ele>503.2</ele>
        <time>2021-03-27T11:42:56Z</time>
      </trkpt>
      <trkpt lat="46.17435" lon="6.25832">
        <ele>503</ele>
        <time>2021-03-27T11:42:57Z</time>
      </trkpt>
      <trkpt lat="46.17435" lon="6.25832">
        <ele>503</ele>
        <time>2021-03-27T11:42:58Z</time>
      </trkpt>
      <trkpt lat="46.17435" lon="6.25832">
        <ele>503.2</ele>
        <time>2021-03-27T11:42:59Z</time>
      </trkpt>
      <trkpt lat="46.17435" lon="6.25832">
        <ele>503.2</ele>
        <time>2021-03-27T11:43:00Z</time>
      </trkpt>
      <trkpt lat="46.17435" lon="6.25832">
        <ele>503.2</ele>
        <time>2021-03-27T11:43:01Z</time>
      </trkpt>
      <trkpt lat="46.17435" lon="6.25832">
        <ele>503.2</ele>
        <time>2021-03-27T11:43:02Z</time>
      </trkpt>
      <trkpt lat="46.17435" lon="6.25832">
        <ele>503.2</ele>
        <time>2021-03-27T11:43:03Z</time>
      </trkpt>
      <trkpt lat="46.17435" lon="6.25832">
        <ele>503.2</ele>
        <time>2021-03-27T11:43:04Z</time>
      </trkpt>
      <trkpt lat="46.17435" lon="6.25832">
        <ele>503</ele>
        <time>2021-03-27T11:43:05Z</time>
      </trkpt>
      <trkpt lat="46.17435" lon="6.25832">
        <ele>503</ele>
        <time>2021-03-27T11:43:06Z</time>
      </trkpt>
      <trkpt lat="46.17435" lon="6.25832">
        <ele>503</ele>
        <time>2021-03-27T11:43:07Z</time>
      </trkpt>
      <trkpt lat="46.17435" lon="6.25832">
        <ele>503.2</ele>
        <time>2021-03-27T11:43:08Z</time>
      </trkpt>
      <trkpt lat="46.17435" lon="6.25832">
        <ele>503</ele>
        <time>2021-03-27T11:43:09Z</time>
      </trkpt>
      <trkpt lat="46.17435" lon="6.25832">
        <ele>503</ele>
        <time>2021-03-27T11:43:10Z</time>
      </trkpt>
      <trkpt lat="46.17435" lon="6.25832">
        <ele>503</ele>
        <time>2021-03-27T11:43:11Z</time>
      </trkpt>
      <trkpt lat="46.17435" lon="6.25832">
        <ele>503.2</ele>
        <time>2021-03-27T11:43:12Z</time>
      </trkpt>
      <trkpt lat="46.17435" lon="6.25832">
        <ele>503.2</ele>
        <time>2021-03-27T11:43:13Z</time>
      </trkpt>
      <trkpt lat="46.17435" lon="6.25832">
        <ele>503.2</ele>
        <time>2021-03-27T11:43:14Z</time>
      </trkpt>
      <trkpt lat="46.17435" lon="6.25832">
        <ele>503.4</ele>
        <time>2021-03-27T11:43:15Z</time>
      </trkpt>
      <trkpt lat="46.17435" lon="6.25832">
        <ele>503.2</ele>
        <time>2021-03-27T11:43:16Z</time>
      </trkpt>
      <trkpt lat="46.17435" lon="6.25832">
        <ele>503.4</ele>
        <time>2021-03-27T11:43:17Z</time>
      </trkpt>
      <trkpt lat="46.17435" lon="6.25832">
        <ele>503.4</ele>
        <time>2021-03-27T11:43:18Z</time>
      </trkpt>
      <trkpt lat="46.17435" lon="6.25832">
        <ele>503.4</ele>
        <time>2021-03-27T11:43:19Z</time>
      </trkpt>
      <trkpt lat="46.17435" lon="6.25832">
        <ele>503.4</ele>
        <time>2021-03-27T11:43:20Z</time>
      </trkpt>
      <trkpt lat="46.17435" lon="6.25832">
        <ele>503.4</ele>
        <time>2021-03-27T11:43:21Z</time>
      </trkpt>
      <trkpt lat="46.17435" lon="6.25832">
        <ele>503.6</ele>
        <time>2021-03-27T11:43:22Z</time>
      </trkpt>
      <trkpt lat="46.17435" lon="6.25832">
        <ele>503.6</ele>
        <time>2021-03-27T11:43:23Z</time>
      </trkpt>
      <trkpt lat="46.17435" lon="6.25832">
        <ele>503.4</ele>
        <time>2021-03-27T11:43:24Z</time>
      </trkpt>
      <trkpt lat="46.17435" lon="6.25832">
        <ele>503.6</ele>
        <time>2021-03-27T11:43:25Z</time>
      </trkpt>
      <trkpt lat="46.17435" lon="6.25832">
        <ele>503.4</ele>
        <time>2021-03-27T11:43:26Z</time>
      </trkpt>
      <trkpt lat="46.17435" lon="6.25832">
        <ele>503.4</ele>
        <time>2021-03-27T11:43:27Z</time>
      </trkpt>
      <trkpt lat="46.17435" lon="6.25832">
        <ele>503.4</ele>
        <time>2021-03-27T11:43:28Z</time>
      </trkpt>
      <trkpt lat="46.17435" lon="6.25832">
        <ele>503.6</ele>
        <time>2021-03-27T11:43:29Z</time>
      </trkpt>
      <trkpt lat="46.17435" lon="6.25832">
        <ele>503.6</ele>
        <time>2021-03-27T11:43:30Z</time>
      </trkpt>
      <trkpt lat="46.17435" lon="6.25832">
        <ele>503.4</ele>
        <time>2021-03-27T11:43:31Z</time>
      </trkpt>
      <trkpt lat="46.17435" lon="6.25832">
        <ele>503.6</ele>
        <time>2021-03-27T11:43:32Z</time>
      </trkpt>
      <trkpt lat="46.17435" lon="6.25832">
        <ele>503.6</ele>
        <time>2021-03-27T11:43:33Z</time>
      </trkpt>
      <trkpt lat="46.17435" lon="6.25832">
        <ele>503.4</ele>
        <time>2021-03-27T11:43:34Z</time>
      </trkpt>
      <trkpt lat="46.17435" lon="6.25832">
        <ele>503.4</ele>
        <time>2021-03-27T11:43:35Z</time>
      </trkpt>
      <trkpt lat="46.17435" lon="6.25832">
        <ele>503.2</ele>
        <time>2021-03-27T11:43:36Z</time>
      </trkpt>
      <trkpt lat="46.17435" lon="6.25832">
        <ele>503.2</ele>
        <time>2021-03-27T11:43:37Z</time>
      </trkpt>
      <trkpt lat="46.17435" lon="6.25832">
        <ele>503.2</ele>
        <time>2021-03-27T11:43:38Z</time>
      </trkpt>
      <trkpt lat="46.17435" lon="6.25832">
        <ele>502.8</ele>
        <time>2021-03-27T11:43:39Z</time>
      </trkpt>
      <trkpt lat="46.17435" lon="6.25832">
        <ele>502.8</ele>
        <time>2021-03-27T11:43:40Z</time>
      </trkpt>
      <trkpt lat="46.17435" lon="6.25831">
        <ele>502.8</ele>
        <time>2021-03-27T11:43:41Z</time>
      </trkpt>
      <trkpt lat="46.17435" lon="6.25831">
        <ele>502.6</ele>
        <time>2021-03-27T11:43:42Z</time>
      </trkpt>
      <trkpt lat="46.17435" lon="6.25831">
        <ele>502.6</ele>
        <time>2021-03-27T11:43:43Z</time>
      </trkpt>
      <trkpt lat="46.17435" lon="6.25831">
        <ele>502.6</ele>
        <time>2021-03-27T11:43:44Z</time>
      </trkpt>
      <trkpt lat="46.17435" lon="6.25831">
        <ele>502.6</ele>
        <time>2021-03-27T11:43:45Z</time>
      </trkpt>
      <trkpt lat="46.17435" lon="6.25832">
        <ele>502.6</ele>
        <time>2021-03-27T11:43:46Z</time>
      </trkpt>
      <trkpt lat="46.17435" lon="6.25832">
        <ele>502.6</ele>
        <time>2021-03-27T11:43:47Z</time>
      </trkpt>
      <trkpt lat="46.17435" lon="6.25832">
        <ele>502.6</ele>
        <time>2021-03-27T11:43:48Z</time>
      </trkpt>
      <trkpt lat="46.17435" lon="6.25831">
        <ele>502.6</ele>
        <time>2021-03-27T11:43:49Z</time>
      </trkpt>
      <trkpt lat="46.17435" lon="6.25832">
        <ele>502.6</ele>
        <time>2021-03-27T11:43:51Z</time>
      </trkpt>
      <trkpt lat="46.17435" lon="6.25832">
        <ele>502.4</ele>
        <time>2021-03-27T11:43:52Z</time>
      </trkpt>
      <trkpt lat="46.17435" lon="6.25832">
        <ele>502.4</ele>
        <time>2021-03-27T11:43:53Z</time>
      </trkpt>
      <trkpt lat="46.17435" lon="6.25831">
        <ele>502.4</ele>
        <time>2021-03-27T11:43:55Z</time>
      </trkpt>
      <trkpt lat="46.17435" lon="6.25831">
        <ele>502.4</ele>
        <time>2021-03-27T11:43:56Z</time>
      </trkpt>
      <trkpt lat="46.17435" lon="6.25831">
        <ele>502.4</ele>
        <time>2021-03-27T11:43:57Z</time>
      </trkpt>
      <trkpt lat="46.17435" lon="6.25831">
        <ele>502.6</ele>
        <time>2021-03-27T11:43:58Z</time>
      </trkpt>
      <trkpt lat="46.17435" lon="6.25832">
        <ele>502.6</ele>
        <time>2021-03-27T11:43:59Z</time>
      </trkpt>
      <trkpt lat="46.17435" lon="6.25832">
        <ele>502.4</ele>
        <time>2021-03-27T11:44:00Z</time>
      </trkpt>
      <trkpt lat="46.17435" lon="6.25832">
        <ele>502.6</ele>
        <time>2021-03-27T11:44:01Z</time>
      </trkpt>
      <trkpt lat="46.17435" lon="6.25832">
        <ele>502.4</ele>
        <time>2021-03-27T11:44:02Z</time>
      </trkpt>
      <trkpt lat="46.17435" lon="6.25832">
        <ele>502.6</ele>
        <time>2021-03-27T11:44:03Z</time>
      </trkpt>
      <trkpt lat="46.17435" lon="6.25832">
        <ele>502.6</ele>
        <time>2021-03-27T11:44:04Z</time>
      </trkpt>
      <trkpt lat="46.17435" lon="6.25832">
        <ele>502.4</ele>
        <time>2021-03-27T11:44:05Z</time>
      </trkpt>
      <trkpt lat="46.17435" lon="6.25832">
        <ele>502.4</ele>
        <time>2021-03-27T11:44:06Z</time>
      </trkpt>
      <trkpt lat="46.17435" lon="6.25832">
        <ele>502.4</ele>
        <time>2021-03-27T11:44:07Z</time>
      </trkpt>
      <trkpt lat="46.17435" lon="6.25832">
        <ele>502.2</ele>
        <time>2021-03-27T11:44:08Z</time>
      </trkpt>
      <trkpt lat="46.17435" lon="6.25832">
        <ele>502.2</ele>
        <time>2021-03-27T11:44:09Z</time>
      </trkpt>
      <trkpt lat="46.17435" lon="6.25832">
        <ele>502.4</ele>
        <time>2021-03-27T11:44:10Z</time>
      </trkpt>
      <trkpt lat="46.17435" lon="6.25832">
        <ele>502.4</ele>
        <time>2021-03-27T11:44:11Z</time>
      </trkpt>
      <trkpt lat="46.17435" lon="6.25832">
        <ele>502.4</ele>
        <time>2021-03-27T11:44:12Z</time>
      </trkpt>
      <trkpt lat="46.17435" lon="6.25832">
        <ele>502.4</ele>
        <time>2021-03-27T11:44:13Z</time>
      </trkpt>
      <trkpt lat="46.17435" lon="6.25832">
        <ele>502.2</ele>
        <time>2021-03-27T11:44:14Z</time>
      </trkpt>
      <trkpt lat="46.17435" lon="6.25832">
        <ele>502.2</ele>
        <time>2021-03-27T11:44:15Z</time>
      </trkpt>
      <trkpt lat="46.17435" lon="6.25832">
        <ele>502.4</ele>
        <time>2021-03-27T11:44:16Z</time>
      </trkpt>
      <trkpt lat="46.17435" lon="6.25832">
        <ele>502.4</ele>
        <time>2021-03-27T11:44:17Z</time>
      </trkpt>
      <trkpt lat="46.17435" lon="6.25831">
        <ele>502.4</ele>
        <time>2021-03-27T11:44:18Z</time>
      </trkpt>
      <trkpt lat="46.17435" lon="6.25831">
        <ele>502.2</ele>
        <time>2021-03-27T11:44:19Z</time>
      </trkpt>
      <trkpt lat="46.17435" lon="6.25831">
        <ele>502.4</ele>
        <time>2021-03-27T11:44:20Z</time>
      </trkpt>
      <trkpt lat="46.17435" lon="6.25831">
        <ele>502.4</ele>
        <time>2021-03-27T11:44:21Z</time>
      </trkpt>
      <trkpt lat="46.17435" lon="6.25831">
        <ele>502.4</ele>
        <time>2021-03-27T11:44:22Z</time>
      </trkpt>
      <trkpt lat="46.17435" lon="6.25831">
        <ele>502.4</ele>
        <time>2021-03-27T11:44:23Z</time>
      </trkpt>
      <trkpt lat="46.17435" lon="6.25831">
        <ele>502.4</ele>
        <time>2021-03-27T11:44:24Z</time>
      </trkpt>
      <trkpt lat="46.17435" lon="6.25831">
        <ele>502.6</ele>
        <time>2021-03-27T11:44:26Z</time>
      </trkpt>
      <trkpt lat="46.17435" lon="6.25831">
        <ele>502.6</ele>
        <time>2021-03-27T11:44:28Z</time>
      </trkpt>
      <trkpt lat="46.17435" lon="6.25831">
        <ele>502.6</ele>
        <time>2021-03-27T11:44:29Z</time>
      </trkpt>
      <trkpt lat="46.17435" lon="6.25831">
        <ele>502.6</ele>
        <time>2021-03-27T11:44:30Z</time>
      </trkpt>
      <trkpt lat="46.17435" lon="6.25831">
        <ele>502.6</ele>
        <time>2021-03-27T11:44:31Z</time>
      </trkpt>
      <trkpt lat="46.17435" lon="6.25831">
        <ele>502.6</ele>
        <time>2021-03-27T11:44:32Z</time>
      </trkpt>
      <trkpt lat="46.17435" lon="6.25831">
        <ele>502.8</ele>
        <time>2021-03-27T11:44:33Z</time>
      </trkpt>
      <trkpt lat="46.17435" lon="6.25831">
        <ele>502.8</ele>
        <time>2021-03-27T11:44:34Z</time>
      </trkpt>
      <trkpt lat="46.17435" lon="6.25831">
        <ele>502.6</ele>
        <time>2021-03-27T11:44:35Z</time>
      </trkpt>
      <trkpt lat="46.17436" lon="6.25831">
        <ele>502.6</ele>
        <time>2021-03-27T11:44:36Z</time>
      </trkpt>
      <trkpt lat="46.17436" lon="6.25832">
        <ele>502.6</ele>
        <time>2021-03-27T11:44:37Z</time>
      </trkpt>
      <trkpt lat="46.17436" lon="6.25832">
        <ele>502.4</ele>
        <time>2021-03-27T11:44:38Z</time>
      </trkpt>
      <trkpt lat="46.17436" lon="6.25831">
        <ele>502.4</ele>
        <time>2021-03-27T11:44:39Z</time>
      </trkpt>
      <trkpt lat="46.17436" lon="6.25831">
        <ele>502.4</ele>
        <time>2021-03-27T11:44:40Z</time>
      </trkpt>
      <trkpt lat="46.17436" lon="6.25831">
        <ele>502.4</ele>
        <time>2021-03-27T11:44:41Z</time>
      </trkpt>
      <trkpt lat="46.17436" lon="6.25831">
        <ele>502.4</ele>
        <time>2021-03-27T11:44:42Z</time>
      </trkpt>
      <trkpt lat="46.17436" lon="6.25831">
        <ele>502.2</ele>
        <time>2021-03-27T11:44:43Z</time>
      </trkpt>
      <trkpt lat="46.17435" lon="6.25831">
        <ele>502.2</ele>
        <time>2021-03-27T11:44:44Z</time>
      </trkpt>
      <trkpt lat="46.17435" lon="6.25831">
        <ele>502.2</ele>
        <time>2021-03-27T11:44:45Z</time>
      </trkpt>
      <trkpt lat="46.17435" lon="6.25831">
        <ele>502.4</ele>
        <time>2021-03-27T11:44:46Z</time>
      </trkpt>
      <trkpt lat="46.17435" lon="6.25831">
        <ele>502.2</ele>
        <time>2021-03-27T11:44:47Z</time>
      </trkpt>
      <trkpt lat="46.17435" lon="6.25831">
        <ele>502.2</ele>
        <time>2021-03-27T11:44:48Z</time>
      </trkpt>
      <trkpt lat="46.17435" lon="6.25831">
        <ele>502.2</ele>
        <time>2021-03-27T11:44:49Z</time>
      </trkpt>
      <trkpt lat="46.17435" lon="6.25831">
        <ele>502.2</ele>
        <time>2021-03-27T11:44:50Z</time>
      </trkpt>
      <trkpt lat="46.17435" lon="6.25831">
        <ele>502.2</ele>
        <time>2021-03-27T11:44:51Z</time>
      </trkpt>
      <trkpt lat="46.17435" lon="6.25831">
        <ele>502.2</ele>
        <time>2021-03-27T11:44:52Z</time>
      </trkpt>
      <trkpt lat="46.17435" lon="6.25831">
        <ele>502.2</ele>
        <time>2021-03-27T11:44:53Z</time>
      </trkpt>
      <trkpt lat="46.17435" lon="6.25831">
        <ele>502.4</ele>
        <time>2021-03-27T11:44:54Z</time>
      </trkpt>
      <trkpt lat="46.17435" lon="6.25831">
        <ele>502.6</ele>
        <time>2021-03-27T11:44:55Z</time>
      </trkpt>
      <trkpt lat="46.17435" lon="6.25831">
        <ele>502.6</ele>
        <time>2021-03-27T11:44:56Z</time>
      </trkpt>
      <trkpt lat="46.17435" lon="6.25831">
        <ele>502.8</ele>
        <time>2021-03-27T11:44:57Z</time>
      </trkpt>
      <trkpt lat="46.17435" lon="6.25831">
        <ele>502.6</ele>
        <time>2021-03-27T11:44:58Z</time>
      </trkpt>
      <trkpt lat="46.17435" lon="6.25831">
        <ele>502.8</ele>
        <time>2021-03-27T11:44:59Z</time>
      </trkpt>
      <trkpt lat="46.17435" lon="6.25831">
        <ele>502.6</ele>
        <time>2021-03-27T11:45:00Z</time>
      </trkpt>
      <trkpt lat="46.17435" lon="6.25831">
        <ele>502.8</ele>
        <time>2021-03-27T11:45:01Z</time>
      </trkpt>
      <trkpt lat="46.17435" lon="6.25831">
        <ele>502.6</ele>
        <time>2021-03-27T11:45:02Z</time>
      </trkpt>
      <trkpt lat="46.17435" lon="6.25831">
        <ele>502.6</ele>
        <time>2021-03-27T11:45:03Z</time>
      </trkpt>
      <trkpt lat="46.17435" lon="6.25831">
        <ele>502.6</ele>
        <time>2021-03-27T11:45:04Z</time>
      </trkpt>
      <trkpt lat="46.17435" lon="6.25831">
        <ele>502.8</ele>
        <time>2021-03-27T11:45:05Z</time>
      </trkpt>
      <trkpt lat="46.17435" lon="6.25831">
        <ele>502.6</ele>
        <time>2021-03-27T11:45:06Z</time>
      </trkpt>
      <trkpt lat="46.17436" lon="6.25831">
        <ele>502.6</ele>
        <time>2021-03-27T11:45:07Z</time>
      </trkpt>
      <trkpt lat="46.17436" lon="6.25831">
        <ele>502.6</ele>
        <time>2021-03-27T11:45:08Z</time>
      </trkpt>
      <trkpt lat="46.17436" lon="6.25831">
        <ele>502.6</ele>
        <time>2021-03-27T11:45:09Z</time>
      </trkpt>
      <trkpt lat="46.17436" lon="6.25831">
        <ele>502.6</ele>
        <time>2021-03-27T11:45:10Z</time>
      </trkpt>
      <trkpt lat="46.17435" lon="6.25831">
        <ele>502.6</ele>
        <time>2021-03-27T11:45:11Z</time>
      </trkpt>
      <trkpt lat="46.17435" lon="6.25831">
        <ele>502.4</ele>
        <time>2021-03-27T11:45:12Z</time>
      </trkpt>
      <trkpt lat="46.17435" lon="6.25831">
        <ele>502.4</ele>
        <time>2021-03-27T11:45:13Z</time>
      </trkpt>
      <trkpt lat="46.17435" lon="6.25831">
        <ele>502.4</ele>
        <time>2021-03-27T11:45:14Z</time>
      </trkpt>
      <trkpt lat="46.17435" lon="6.25831">
        <ele>502.4</ele>
        <time>2021-03-27T11:45:15Z</time>
      </trkpt>
      <trkpt lat="46.17436" lon="6.25831">
        <ele>502.4</ele>
        <time>2021-03-27T11:45:16Z</time>
      </trkpt>
      <trkpt lat="46.17435" lon="6.25831">
        <ele>502.2</ele>
        <time>2021-03-27T11:45:17Z</time>
      </trkpt>
      <trkpt lat="46.17435" lon="6.25831">
        <ele>502.2</ele>
        <time>2021-03-27T11:45:18Z</time>
      </trkpt>
      <trkpt lat="46.17435" lon="6.25831">
        <ele>502.4</ele>
        <time>2021-03-27T11:45:19Z</time>
      </trkpt>
      <trkpt lat="46.17435" lon="6.25831">
        <ele>502.2</ele>
        <time>2021-03-27T11:45:20Z</time>
      </trkpt>
      <trkpt lat="46.17435" lon="6.25831">
        <ele>502.2</ele>
        <time>2021-03-27T11:45:21Z</time>
      </trkpt>
      <trkpt lat="46.17435" lon="6.25831">
        <ele>502.2</ele>
        <time>2021-03-27T11:45:22Z</time>
      </trkpt>
      <trkpt lat="46.17435" lon="6.25831">
        <ele>502.2</ele>
        <time>2021-03-27T11:45:23Z</time>
      </trkpt>
      <trkpt lat="46.17435" lon="6.25831">
        <ele>502.2</ele>
        <time>2021-03-27T11:45:24Z</time>
      </trkpt>
      <trkpt lat="46.17435" lon="6.25831">
        <ele>502.2</ele>
        <time>2021-03-27T11:45:25Z</time>
      </trkpt>
      <trkpt lat="46.17435" lon="6.25831">
        <ele>502.2</ele>
        <time>2021-03-27T11:45:26Z</time>
      </trkpt>
      <trkpt lat="46.17435" lon="6.25831">
        <ele>502.2</ele>
        <time>2021-03-27T11:45:27Z</time>
      </trkpt>
      <trkpt lat="46.17435" lon="6.25831">
        <ele>502.2</ele>
        <time>2021-03-27T11:45:28Z</time>
      </trkpt>
      <trkpt lat="46.17435" lon="6.25831">
        <ele>502.2</ele>
        <time>2021-03-27T11:45:29Z</time>
      </trkpt>
      <trkpt lat="46.17435" lon="6.25831">
        <ele>502.2</ele>
        <time>2021-03-27T11:45:30Z</time>
      </trkpt>
      <trkpt lat="46.17436" lon="6.25831">
        <ele>502.2</ele>
        <time>2021-03-27T11:45:31Z</time>
      </trkpt>
      <trkpt lat="46.17436" lon="6.25832">
        <ele>502.2</ele>
        <time>2021-03-27T11:45:32Z</time>
      </trkpt>
      <trkpt lat="46.17436" lon="6.25832">
        <ele>502.2</ele>
        <time>2021-03-27T11:45:33Z</time>
      </trkpt>
      <trkpt lat="46.17436" lon="6.25831">
        <ele>502.2</ele>
        <time>2021-03-27T11:45:34Z</time>
      </trkpt>
      <trkpt lat="46.17436" lon="6.25831">
        <ele>502.2</ele>
        <time>2021-03-27T11:45:35Z</time>
      </trkpt>
      <trkpt lat="46.17436" lon="6.25831">
        <ele>502.2</ele>
        <time>2021-03-27T11:45:36Z</time>
      </trkpt>
      <trkpt lat="46.17436" lon="6.25831">
        <ele>502.2</ele>
        <time>2021-03-27T11:45:37Z</time>
      </trkpt>
      <trkpt lat="46.17436" lon="6.25831">
        <ele>502.4</ele>
        <time>2021-03-27T11:45:38Z</time>
      </trkpt>
      <trkpt lat="46.17436" lon="6.25831">
        <ele>502.2</ele>
        <time>2021-03-27T11:45:39Z</time>
      </trkpt>
      <trkpt lat="46.17436" lon="6.25831">
        <ele>502.4</ele>
        <time>2021-03-27T11:45:40Z</time>
      </trkpt>
      <trkpt lat="46.17436" lon="6.25832">
        <ele>502.2</ele>
        <time>2021-03-27T11:45:41Z</time>
      </trkpt>
      <trkpt lat="46.17436" lon="6.25832">
        <ele>502.4</ele>
        <time>2021-03-27T11:45:42Z</time>
      </trkpt>
      <trkpt lat="46.17436" lon="6.25832">
        <ele>502.4</ele>
        <time>2021-03-27T11:45:43Z</time>
      </trkpt>
      <trkpt lat="46.17436" lon="6.25832">
        <ele>502.2</ele>
        <time>2021-03-27T11:45:44Z</time>
      </trkpt>
      <trkpt lat="46.17436" lon="6.25832">
        <ele>502.2</ele>
        <time>2021-03-27T11:45:45Z</time>
      </trkpt>
      <trkpt lat="46.17436" lon="6.25832">
        <ele>502.4</ele>
        <time>2021-03-27T11:45:46Z</time>
      </trkpt>
      <trkpt lat="46.17436" lon="6.25833">
        <ele>502.2</ele>
        <time>2021-03-27T11:45:47Z</time>
      </trkpt>
      <trkpt lat="46.17435" lon="6.25833">
        <ele>502.4</ele>
        <time>2021-03-27T11:45:48Z</time>
      </trkpt>
      <trkpt lat="46.17435" lon="6.25833">
        <ele>502.2</ele>
        <time>2021-03-27T11:45:49Z</time>
      </trkpt>
      <trkpt lat="46.17435" lon="6.25833">
        <ele>502.2</ele>
        <time>2021-03-27T11:45:50Z</time>
      </trkpt>
      <trkpt lat="46.17435" lon="6.25833">
        <ele>502.2</ele>
        <time>2021-03-27T11:45:51Z</time>
      </trkpt>
      <trkpt lat="46.17435" lon="6.25833">
        <ele>502.4</ele>
        <time>2021-03-27T11:45:52Z</time>
      </trkpt>
      <trkpt lat="46.17435" lon="6.25834">
        <ele>502.2</ele>
        <time>2021-03-27T11:45:53Z</time>
      </trkpt>
      <trkpt lat="46.17435" lon="6.25834">
        <ele>502.2</ele>
        <time>2021-03-27T11:45:54Z</time>
      </trkpt>
      <trkpt lat="46.17435" lon="6.25834">
        <ele>502.2</ele>
        <time>2021-03-27T11:45:55Z</time>
      </trkpt>
      <trkpt lat="46.17435" lon="6.25834">
        <ele>502.2</ele>
        <time>2021-03-27T11:45:56Z</time>
      </trkpt>
      <trkpt lat="46.17435" lon="6.25834">
        <ele>502.2</ele>
        <time>2021-03-27T11:45:57Z</time>
      </trkpt>
      <trkpt lat="46.17435" lon="6.25834">
        <ele>502.4</ele>
        <time>2021-03-27T11:45:58Z</time>
      </trkpt>
      <trkpt lat="46.17435" lon="6.25834">
        <ele>502.4</ele>
        <time>2021-03-27T11:45:59Z</time>
      </trkpt>
      <trkpt lat="46.17434" lon="6.25835">
        <ele>502.2</ele>
        <time>2021-03-27T11:46:00Z</time>
      </trkpt>
      <trkpt lat="46.17434" lon="6.25835">
        <ele>502.4</ele>
        <time>2021-03-27T11:46:01Z</time>
      </trkpt>
      <trkpt lat="46.17434" lon="6.25835">
        <ele>502.4</ele>
        <time>2021-03-27T11:46:02Z</time>
      </trkpt>
      <trkpt lat="46.17433" lon="6.25835">
        <ele>502.4</ele>
        <time>2021-03-27T11:46:03Z</time>
      </trkpt>
      <trkpt lat="46.17433" lon="6.25835">
        <ele>502.2</ele>
        <time>2021-03-27T11:46:04Z</time>
      </trkpt>
      <trkpt lat="46.17433" lon="6.25835">
        <ele>502.4</ele>
        <time>2021-03-27T11:46:05Z</time>
      </trkpt>
      <trkpt lat="46.17433" lon="6.25835">
        <ele>502.4</ele>
        <time>2021-03-27T11:46:06Z</time>
      </trkpt>
      <trkpt lat="46.17433" lon="6.25835">
        <ele>502.2</ele>
        <time>2021-03-27T11:46:07Z</time>
      </trkpt>
      <trkpt lat="46.17433" lon="6.25835">
        <ele>502.2</ele>
        <time>2021-03-27T11:46:08Z</time>
      </trkpt>
      <trkpt lat="46.17433" lon="6.25835">
        <ele>502.2</ele>
        <time>2021-03-27T11:46:09Z</time>
      </trkpt>
      <trkpt lat="46.17433" lon="6.25835">
        <ele>502.2</ele>
        <time>2021-03-27T11:46:10Z</time>
      </trkpt>
      <trkpt lat="46.17433" lon="6.25835">
        <ele>502.2</ele>
        <time>2021-03-27T11:46:11Z</time>
      </trkpt>
      <trkpt lat="46.17433" lon="6.25835">
        <ele>502.2</ele>
        <time>2021-03-27T11:46:12Z</time>
      </trkpt>
      <trkpt lat="46.17433" lon="6.25835">
        <ele>502.2</ele>
        <time>2021-03-27T11:46:13Z</time>
      </trkpt>
      <trkpt lat="46.17433" lon="6.25835">
        <ele>502.2</ele>
        <time>2021-03-27T11:46:14Z</time>
      </trkpt>
      <trkpt lat="46.17433" lon="6.25835">
        <ele>502.2</ele>
        <time>2021-03-27T11:46:15Z</time>
      </trkpt>
      <trkpt lat="46.17433" lon="6.25835">
        <ele>502.2</ele>
        <time>2021-03-27T11:46:16Z</time>
      </trkpt>
      <trkpt lat="46.17433" lon="6.25835">
        <ele>502.2</ele>
        <time>2021-03-27T11:46:17Z</time>
      </trkpt>
      <trkpt lat="46.17433" lon="6.25835">
        <ele>502.2</ele>
        <time>2021-03-27T11:46:18Z</time>
      </trkpt>
      <trkpt lat="46.17433" lon="6.25835">
        <ele>502.2</ele>
        <time>2021-03-27T11:46:19Z</time>
      </trkpt>
      <trkpt lat="46.17433" lon="6.25835">
        <ele>502.2</ele>
        <time>2021-03-27T11:46:20Z</time>
      </trkpt>
      <trkpt lat="46.17433" lon="6.25835">
        <ele>502.2</ele>
        <time>2021-03-27T11:46:21Z</time>
      </trkpt>
      <trkpt lat="46.17433" lon="6.25835">
        <ele>502.2</ele>
        <time>2021-03-27T11:46:22Z</time>
      </trkpt>
      <trkpt lat="46.17433" lon="6.25835">
        <ele>502.4</ele>
        <time>2021-03-27T11:46:23Z</time>
      </trkpt>
      <trkpt lat="46.17433" lon="6.25835">
        <ele>502.4</ele>
        <time>2021-03-27T11:46:24Z</time>
      </trkpt>
      <trkpt lat="46.17433" lon="6.25835">
        <ele>502.4</ele>
        <time>2021-03-27T11:46:25Z</time>
      </trkpt>
      <trkpt lat="46.17433" lon="6.25835">
        <ele>502.4</ele>
        <time>2021-03-27T11:46:26Z</time>
      </trkpt>
      <trkpt lat="46.17433" lon="6.25835">
        <ele>502.4</ele>
        <time>2021-03-27T11:46:27Z</time>
      </trkpt>
      <trkpt lat="46.17433" lon="6.25835">
        <ele>502.6</ele>
        <time>2021-03-27T11:46:28Z</time>
      </trkpt>
      <trkpt lat="46.17433" lon="6.25835">
        <ele>502.4</ele>
        <time>2021-03-27T11:46:29Z</time>
      </trkpt>
      <trkpt lat="46.17433" lon="6.25835">
        <ele>502.6</ele>
        <time>2021-03-27T11:46:30Z</time>
      </trkpt>
      <trkpt lat="46.17433" lon="6.25835">
        <ele>502.4</ele>
        <time>2021-03-27T11:46:31Z</time>
      </trkpt>
      <trkpt lat="46.17433" lon="6.25835">
        <ele>502.6</ele>
        <time>2021-03-27T11:46:32Z</time>
      </trkpt>
      <trkpt lat="46.17433" lon="6.25835">
        <ele>502.6</ele>
        <time>2021-03-27T11:46:33Z</time>
      </trkpt>
      <trkpt lat="46.17433" lon="6.25835">
        <ele>502.6</ele>
        <time>2021-03-27T11:46:34Z</time>
      </trkpt>
      <trkpt lat="46.17433" lon="6.25835">
        <ele>502.8</ele>
        <time>2021-03-27T11:46:35Z</time>
      </trkpt>
      <trkpt lat="46.17433" lon="6.25835">
        <ele>502.8</ele>
        <time>2021-03-27T11:46:36Z</time>
      </trkpt>
      <trkpt lat="46.17433" lon="6.25835">
        <ele>502.8</ele>
        <time>2021-03-27T11:46:37Z</time>
      </trkpt>
      <trkpt lat="46.17433" lon="6.25835">
        <ele>502.6</ele>
        <time>2021-03-27T11:46:38Z</time>
      </trkpt>
      <trkpt lat="46.17433" lon="6.25835">
        <ele>502.8</ele>
        <time>2021-03-27T11:46:39Z</time>
      </trkpt>
      <trkpt lat="46.17433" lon="6.25835">
        <ele>502.6</ele>
        <time>2021-03-27T11:46:40Z</time>
      </trkpt>
      <trkpt lat="46.17433" lon="6.25835">
        <ele>502.6</ele>
        <time>2021-03-27T11:46:41Z</time>
      </trkpt>
      <trkpt lat="46.17433" lon="6.25835">
        <ele>502.6</ele>
        <time>2021-03-27T11:46:42Z</time>
      </trkpt>
      <trkpt lat="46.17433" lon="6.25835">
        <ele>502.6</ele>
        <time>2021-03-27T11:46:43Z</time>
      </trkpt>
      <trkpt lat="46.17433" lon="6.25835">
        <ele>502.4</ele>
        <time>2021-03-27T11:46:44Z</time>
      </trkpt>
      <trkpt lat="46.17433" lon="6.25835">
        <ele>502.4</ele>
        <time>2021-03-27T11:46:45Z</time>
      </trkpt>
      <trkpt lat="46.17433" lon="6.25835">
        <ele>502.4</ele>
        <time>2021-03-27T11:46:46Z</time>
      </trkpt>
      <trkpt lat="46.17433" lon="6.25835">
        <ele>502.4</ele>
        <time>2021-03-27T11:46:47Z</time>
      </trkpt>
      <trkpt lat="46.17433" lon="6.25835">
        <ele>502.4</ele>
        <time>2021-03-27T11:46:48Z</time>
      </trkpt>
      <trkpt lat="46.17433" lon="6.25835">
        <ele>502.4</ele>
        <time>2021-03-27T11:46:49Z</time>
      </trkpt>
      <trkpt lat="46.17433" lon="6.25835">
        <ele>502.2</ele>
        <time>2021-03-27T11:46:50Z</time>
      </trkpt>
      <trkpt lat="46.17433" lon="6.25835">
        <ele>502.4</ele>
        <time>2021-03-27T11:46:51Z</time>
      </trkpt>
      <trkpt lat="46.17433" lon="6.25836">
        <ele>502.4</ele>
        <time>2021-03-27T11:46:52Z</time>
      </trkpt>
      <trkpt lat="46.17433" lon="6.25836">
        <ele>502.4</ele>
        <time>2021-03-27T11:46:53Z</time>
      </trkpt>
      <trkpt lat="46.17433" lon="6.25836">
        <ele>502.4</ele>
        <time>2021-03-27T11:46:54Z</time>
      </trkpt>
      <trkpt lat="46.17433" lon="6.25836">
        <ele>502.4</ele>
        <time>2021-03-27T11:46:55Z</time>
      </trkpt>
      <trkpt lat="46.17433" lon="6.25836">
        <ele>502.6</ele>
        <time>2021-03-27T11:46:56Z</time>
      </trkpt>
      <trkpt lat="46.17433" lon="6.25836">
        <ele>502.4</ele>
        <time>2021-03-27T11:46:57Z</time>
      </trkpt>
      <trkpt lat="46.17433" lon="6.25836">
        <ele>502.4</ele>
        <time>2021-03-27T11:46:58Z</time>
      </trkpt>
      <trkpt lat="46.17433" lon="6.25836">
        <ele>502.4</ele>
        <time>2021-03-27T11:46:59Z</time>
      </trkpt>
      <trkpt lat="46.17433" lon="6.25836">
        <ele>502.6</ele>
        <time>2021-03-27T11:47:00Z</time>
      </trkpt>
      <trkpt lat="46.17433" lon="6.25836">
        <ele>502.4</ele>
        <time>2021-03-27T11:47:01Z</time>
      </trkpt>
      <trkpt lat="46.17433" lon="6.25836">
        <ele>502.6</ele>
        <time>2021-03-27T11:47:02Z</time>
      </trkpt>
      <trkpt lat="46.17433" lon="6.25836">
        <ele>502.4</ele>
        <time>2021-03-27T11:47:03Z</time>
      </trkpt>
      <trkpt lat="46.17433" lon="6.25836">
        <ele>502.6</ele>
        <time>2021-03-27T11:47:04Z</time>
      </trkpt>
      <trkpt lat="46.17433" lon="6.25836">
        <ele>502.6</ele>
        <time>2021-03-27T11:47:05Z</time>
      </trkpt>
      <trkpt lat="46.17433" lon="6.25836">
        <ele>502.6</ele>
        <time>2021-03-27T11:47:06Z</time>
      </trkpt>
      <trkpt lat="46.17433" lon="6.25836">
        <ele>502.4</ele>
        <time>2021-03-27T11:47:07Z</time>
      </trkpt>
      <trkpt lat="46.17433" lon="6.25836">
        <ele>502.4</ele>
        <time>2021-03-27T11:47:08Z</time>
      </trkpt>
      <trkpt lat="46.17433" lon="6.25835">
        <ele>502.4</ele>
        <time>2021-03-27T11:47:09Z</time>
      </trkpt>
      <trkpt lat="46.17433" lon="6.25835">
        <ele>502.4</ele>
        <time>2021-03-27T11:47:10Z</time>
      </trkpt>
      <trkpt lat="46.17433" lon="6.25835">
        <ele>502.4</ele>
        <time>2021-03-27T11:47:11Z</time>
      </trkpt>
      <trkpt lat="46.17433" lon="6.25835">
        <ele>502.4</ele>
        <time>2021-03-27T11:47:12Z</time>
      </trkpt>
      <trkpt lat="46.17433" lon="6.25835">
        <ele>502.4</ele>
        <time>2021-03-27T11:47:13Z</time>
      </trkpt>
      <trkpt lat="46.17433" lon="6.25835">
        <ele>502.2</ele>
        <time>2021-03-27T11:47:14Z</time>
      </trkpt>
      <trkpt lat="46.17433" lon="6.25835">
        <ele>502.2</ele>
        <time>2021-03-27T11:47:15Z</time>
      </trkpt>
      <trkpt lat="46.17433" lon="6.25835">
        <ele>502.2</ele>
        <time>2021-03-27T11:47:16Z</time>
      </trkpt>
      <trkpt lat="46.17433" lon="6.25835">
        <ele>502.4</ele>
        <time>2021-03-27T11:47:17Z</time>
      </trkpt>
      <trkpt lat="46.17433" lon="6.25835">
        <ele>502.4</ele>
        <time>2021-03-27T11:47:18Z</time>
      </trkpt>
      <trkpt lat="46.17433" lon="6.25835">
        <ele>502.2</ele>
        <time>2021-03-27T11:47:19Z</time>
      </trkpt>
      <trkpt lat="46.17433" lon="6.25835">
        <ele>502.2</ele>
        <time>2021-03-27T11:47:20Z</time>
      </trkpt>
      <trkpt lat="46.17433" lon="6.25835">
        <ele>502.2</ele>
        <time>2021-03-27T11:47:21Z</time>
      </trkpt>
      <trkpt lat="46.17433" lon="6.25835">
        <ele>502.4</ele>
        <time>2021-03-27T11:47:22Z</time>
      </trkpt>
      <trkpt lat="46.17433" lon="6.25835">
        <ele>502.2</ele>
        <time>2021-03-27T11:47:23Z</time>
      </trkpt>
      <trkpt lat="46.17433" lon="6.25835">
        <ele>502.4</ele>
        <time>2021-03-27T11:47:24Z</time>
      </trkpt>
      <trkpt lat="46.17433" lon="6.25835">
        <ele>502.2</ele>
        <time>2021-03-27T11:47:25Z</time>
      </trkpt>
      <trkpt lat="46.17433" lon="6.25835">
        <ele>502.4</ele>
        <time>2021-03-27T11:47:26Z</time>
      </trkpt>
      <trkpt lat="46.17433" lon="6.25835">
        <ele>502.4</ele>
        <time>2021-03-27T11:47:27Z</time>
      </trkpt>
      <trkpt lat="46.17433" lon="6.25835">
        <ele>502.4</ele>
        <time>2021-03-27T11:47:28Z</time>
      </trkpt>
      <trkpt lat="46.17433" lon="6.25835">
        <ele>502.2</ele>
        <time>2021-03-27T11:47:29Z</time>
      </trkpt>
      <trkpt lat="46.17433" lon="6.25835">
        <ele>502.2</ele>
        <time>2021-03-27T11:47:30Z</time>
      </trkpt>
      <trkpt lat="46.17433" lon="6.25835">
        <ele>502.4</ele>
        <time>2021-03-27T11:47:31Z</time>
      </trkpt>
      <trkpt lat="46.17433" lon="6.25835">
        <ele>502.4</ele>
        <time>2021-03-27T11:47:32Z</time>
      </trkpt>
      <trkpt lat="46.17433" lon="6.25835">
        <ele>502.4</ele>
        <time>2021-03-27T11:47:33Z</time>
      </trkpt>
      <trkpt lat="46.17433" lon="6.25835">
        <ele>502.4</ele>
        <time>2021-03-27T11:47:34Z</time>
      </trkpt>
      <trkpt lat="46.17433" lon="6.25835">
        <ele>502.6</ele>
        <time>2021-03-27T11:47:35Z</time>
      </trkpt>
      <trkpt lat="46.17433" lon="6.25835">
        <ele>502.6</ele>
        <time>2021-03-27T11:47:36Z</time>
      </trkpt>
      <trkpt lat="46.17433" lon="6.25835">
        <ele>502.6</ele>
        <time>2021-03-27T11:47:37Z</time>
      </trkpt>
      <trkpt lat="46.17433" lon="6.25835">
        <ele>502.6</ele>
        <time>2021-03-27T11:47:38Z</time>
      </trkpt>
      <trkpt lat="46.17433" lon="6.25835">
        <ele>502.6</ele>
        <time>2021-03-27T11:47:39Z</time>
      </trkpt>
      <trkpt lat="46.17433" lon="6.25835">
        <ele>502.6</ele>
        <time>2021-03-27T11:47:40Z</time>
      </trkpt>
      <trkpt lat="46.17433" lon="6.25835">
        <ele>502.6</ele>
        <time>2021-03-27T11:47:41Z</time>
      </trkpt>
      <trkpt lat="46.17433" lon="6.25836">
        <ele>502.4</ele>
        <time>2021-03-27T11:47:42Z</time>
      </trkpt>
      <trkpt lat="46.17433" lon="6.25836">
        <ele>502.6</ele>
        <time>2021-03-27T11:47:43Z</time>
      </trkpt>
      <trkpt lat="46.17433" lon="6.25836">
        <ele>502.6</ele>
        <time>2021-03-27T11:47:44Z</time>
      </trkpt>
      <trkpt lat="46.17433" lon="6.25836">
        <ele>502.4</ele>
        <time>2021-03-27T11:47:45Z</time>
      </trkpt>
      <trkpt lat="46.17433" lon="6.25836">
        <ele>502.6</ele>
        <time>2021-03-27T11:47:46Z</time>
      </trkpt>
      <trkpt lat="46.17433" lon="6.25836">
        <ele>502.4</ele>
        <time>2021-03-27T11:47:47Z</time>
      </trkpt>
      <trkpt lat="46.17433" lon="6.25836">
        <ele>502.6</ele>
        <time>2021-03-27T11:47:48Z</time>
      </trkpt>
      <trkpt lat="46.17433" lon="6.25836">
        <ele>502.6</ele>
        <time>2021-03-27T11:47:49Z</time>
      </trkpt>
      <trkpt lat="46.17433" lon="6.25836">
        <ele>502.6</ele>
        <time>2021-03-27T11:47:50Z</time>
      </trkpt>
      <trkpt lat="46.17433" lon="6.25836">
        <ele>502.6</ele>
        <time>2021-03-27T11:47:51Z</time>
      </trkpt>
      <trkpt lat="46.17433" lon="6.25836">
        <ele>502.4</ele>
        <time>2021-03-27T11:47:52Z</time>
      </trkpt>
      <trkpt lat="46.17433" lon="6.25836">
        <ele>502.6</ele>
        <time>2021-03-27T11:47:53Z</time>
      </trkpt>
      <trkpt lat="46.17433" lon="6.25836">
        <ele>502.4</ele>
        <time>2021-03-27T11:47:54Z</time>
      </trkpt>
      <trkpt lat="46.17433" lon="6.25836">
        <ele>502.4</ele>
        <time>2021-03-27T11:47:55Z</time>
      </trkpt>
      <trkpt lat="46.17433" lon="6.25836">
        <ele>502.4</ele>
        <time>2021-03-27T11:47:56Z</time>
      </trkpt>
      <trkpt lat="46.17433" lon="6.25836">
        <ele>502.4</ele>
        <time>2021-03-27T11:47:57Z</time>
      </trkpt>
      <trkpt lat="46.17433" lon="6.25836">
        <ele>502.4</ele>
        <time>2021-03-27T11:47:58Z</time>
      </trkpt>
      <trkpt lat="46.17433" lon="6.25836">
        <ele>502.4</ele>
        <time>2021-03-27T11:47:59Z</time>
      </trkpt>
      <trkpt lat="46.17433" lon="6.25836">
        <ele>502.6</ele>
        <time>2021-03-27T11:48:00Z</time>
      </trkpt>
      <trkpt lat="46.17433" lon="6.25836">
        <ele>502.6</ele>
        <time>2021-03-27T11:48:01Z</time>
      </trkpt>
      <trkpt lat="46.17433" lon="6.25836">
        <ele>502.6</ele>
        <time>2021-03-27T11:48:02Z</time>
      </trkpt>
      <trkpt lat="46.17433" lon="6.25836">
        <ele>502.6</ele>
        <time>2021-03-27T11:48:03Z</time>
      </trkpt>
      <trkpt lat="46.17433" lon="6.25836">
        <ele>502.4</ele>
        <time>2021-03-27T11:48:04Z</time>
      </trkpt>
      <trkpt lat="46.17433" lon="6.25836">
        <ele>502.6</ele>
        <time>2021-03-27T11:48:05Z</time>
      </trkpt>
      <trkpt lat="46.17433" lon="6.25836">
        <ele>502.4</ele>
        <time>2021-03-27T11:48:06Z</time>
      </trkpt>
      <trkpt lat="46.17433" lon="6.25836">
        <ele>502.4</ele>
        <time>2021-03-27T11:48:07Z</time>
      </trkpt>
      <trkpt lat="46.17433" lon="6.25836">
        <ele>502.4</ele>
        <time>2021-03-27T11:48:08Z</time>
      </trkpt>
      <trkpt lat="46.17433" lon="6.25836">
        <ele>502.4</ele>
        <time>2021-03-27T11:48:09Z</time>
      </trkpt>
      <trkpt lat="46.17433" lon="6.25836">
        <ele>502.6</ele>
        <time>2021-03-27T11:48:10Z</time>
      </trkpt>
      <trkpt lat="46.17433" lon="6.25836">
        <ele>502.4</ele>
        <time>2021-03-27T11:48:11Z</time>
      </trkpt>
      <trkpt lat="46.17433" lon="6.25836">
        <ele>502.6</ele>
        <time>2021-03-27T11:48:12Z</time>
      </trkpt>
      <trkpt lat="46.17433" lon="6.25836">
        <ele>502.6</ele>
        <time>2021-03-27T11:48:13Z</time>
      </trkpt>
      <trkpt lat="46.17433" lon="6.25836">
        <ele>502.4</ele>
        <time>2021-03-27T11:48:14Z</time>
      </trkpt>
      <trkpt lat="46.17433" lon="6.25836">
        <ele>502.6</ele>
        <time>2021-03-27T11:48:15Z</time>
      </trkpt>
      <trkpt lat="46.17433" lon="6.25836">
        <ele>502.4</ele>
        <time>2021-03-27T11:48:16Z</time>
      </trkpt>
      <trkpt lat="46.17433" lon="6.25836">
        <ele>502.4</ele>
        <time>2021-03-27T11:48:17Z</time>
      </trkpt>
      <trkpt lat="46.17433" lon="6.25836">
        <ele>502.6</ele>
        <time>2021-03-27T11:48:18Z</time>
      </trkpt>
      <trkpt lat="46.17433" lon="6.25836">
        <ele>502.4</ele>
        <time>2021-03-27T11:48:19Z</time>
      </trkpt>
      <trkpt lat="46.17433" lon="6.25836">
        <ele>502.4</ele>
        <time>2021-03-27T11:48:20Z</time>
      </trkpt>
      <trkpt lat="46.17433" lon="6.25836">
        <ele>502.4</ele>
        <time>2021-03-27T11:48:21Z</time>
      </trkpt>
      <trkpt lat="46.17433" lon="6.25836">
        <ele>502.4</ele>
        <time>2021-03-27T11:48:22Z</time>
      </trkpt>
      <trkpt lat="46.17433" lon="6.25835">
        <ele>502.4</ele>
        <time>2021-03-27T11:48:23Z</time>
      </trkpt>
      <trkpt lat="46.17433" lon="6.25835">
        <ele>502.4</ele>
        <time>2021-03-27T11:48:24Z</time>
      </trkpt>
      <trkpt lat="46.17433" lon="6.25835">
        <ele>502.2</ele>
        <time>2021-03-27T11:48:25Z</time>
      </trkpt>
      <trkpt lat="46.17433" lon="6.25835">
        <ele>502.4</ele>
        <time>2021-03-27T11:48:26Z</time>
      </trkpt>
      <trkpt lat="46.17433" lon="6.25835">
        <ele>502.4</ele>
        <time>2021-03-27T11:48:27Z</time>
      </trkpt>
      <trkpt lat="46.17433" lon="6.25835">
        <ele>502.4</ele>
        <time>2021-03-27T11:48:28Z</time>
      </trkpt>
      <trkpt lat="46.17433" lon="6.25835">
        <ele>502.4</ele>
        <time>2021-03-27T11:48:29Z</time>
      </trkpt>
      <trkpt lat="46.17433" lon="6.25835">
        <ele>502.2</ele>
        <time>2021-03-27T11:48:30Z</time>
      </trkpt>
      <trkpt lat="46.17433" lon="6.25835">
        <ele>502.2</ele>
        <time>2021-03-27T11:48:31Z</time>
      </trkpt>
      <trkpt lat="46.17433" lon="6.25835">
        <ele>502.2</ele>
        <time>2021-03-27T11:48:32Z</time>
      </trkpt>
      <trkpt lat="46.17433" lon="6.25835">
        <ele>502.4</ele>
        <time>2021-03-27T11:48:33Z</time>
      </trkpt>
      <trkpt lat="46.17433" lon="6.25835">
        <ele>502.4</ele>
        <time>2021-03-27T11:48:34Z</time>
      </trkpt>
      <trkpt lat="46.17433" lon="6.25835">
        <ele>502.4</ele>
        <time>2021-03-27T11:48:35Z</time>
      </trkpt>
      <trkpt lat="46.17433" lon="6.25835">
        <ele>502.4</ele>
        <time>2021-03-27T11:48:36Z</time>
      </trkpt>
      <trkpt lat="46.17433" lon="6.25835">
        <ele>502.4</ele>
        <time>2021-03-27T11:48:37Z</time>
      </trkpt>
      <trkpt lat="46.17433" lon="6.25835">
        <ele>502.2</ele>
        <time>2021-03-27T11:48:38Z</time>
      </trkpt>
      <trkpt lat="46.17433" lon="6.25835">
        <ele>502.4</ele>
        <time>2021-03-27T11:48:39Z</time>
      </trkpt>
      <trkpt lat="46.17433" lon="6.25835">
        <ele>502.4</ele>
        <time>2021-03-27T11:48:40Z</time>
      </trkpt>
      <trkpt lat="46.17433" lon="6.25835">
        <ele>502.4</ele>
        <time>2021-03-27T11:48:41Z</time>
      </trkpt>
      <trkpt lat="46.17433" lon="6.25835">
        <ele>502.4</ele>
        <time>2021-03-27T11:48:42Z</time>
      </trkpt>
      <trkpt lat="46.17433" lon="6.25835">
        <ele>502.4</ele>
        <time>2021-03-27T11:48:43Z</time>
      </trkpt>
      <trkpt lat="46.17433" lon="6.25835">
        <ele>502.2</ele>
        <time>2021-03-27T11:48:44Z</time>
      </trkpt>
      <trkpt lat="46.17433" lon="6.25835">
        <ele>502.2</ele>
        <time>2021-03-27T11:48:45Z</time>
      </trkpt>
      <trkpt lat="46.17433" lon="6.25835">
        <ele>502.2</ele>
        <time>2021-03-27T11:48:46Z</time>
      </trkpt>
      <trkpt lat="46.17433" lon="6.25835">
        <ele>502.4</ele>
        <time>2021-03-27T11:48:47Z</time>
      </trkpt>
      <trkpt lat="46.17433" lon="6.25835">
        <ele>502.4</ele>
        <time>2021-03-27T11:48:48Z</time>
      </trkpt>
      <trkpt lat="46.17433" lon="6.25835">
        <ele>502.2</ele>
        <time>2021-03-27T11:48:49Z</time>
      </trkpt>
      <trkpt lat="46.17433" lon="6.25835">
        <ele>502.2</ele>
        <time>2021-03-27T11:48:50Z</time>
      </trkpt>
      <trkpt lat="46.17433" lon="6.25835">
        <ele>502.2</ele>
        <time>2021-03-27T11:48:51Z</time>
      </trkpt>
      <trkpt lat="46.17433" lon="6.25835">
        <ele>502.2</ele>
        <time>2021-03-27T11:48:52Z</time>
      </trkpt>
      <trkpt lat="46.17433" lon="6.25835">
        <ele>502.2</ele>
        <time>2021-03-27T11:48:53Z</time>
      </trkpt>
      <trkpt lat="46.17433" lon="6.25835">
        <ele>502.2</ele>
        <time>2021-03-27T11:48:54Z</time>
      </trkpt>
      <trkpt lat="46.17433" lon="6.25835">
        <ele>502.2</ele>
        <time>2021-03-27T11:48:55Z</time>
      </trkpt>
      <trkpt lat="46.17433" lon="6.25835">
        <ele>502.2</ele>
        <time>2021-03-27T11:48:56Z</time>
      </trkpt>
      <trkpt lat="46.17433" lon="6.25835">
        <ele>502.2</ele>
        <time>2021-03-27T11:48:57Z</time>
      </trkpt>
      <trkpt lat="46.17433" lon="6.25835">
        <ele>502.2</ele>
        <time>2021-03-27T11:48:58Z</time>
      </trkpt>
      <trkpt lat="46.17433" lon="6.25835">
        <ele>502.2</ele>
        <time>2021-03-27T11:48:59Z</time>
      </trkpt>
      <trkpt lat="46.17433" lon="6.25835">
        <ele>502</ele>
        <time>2021-03-27T11:49:00Z</time>
      </trkpt>
      <trkpt lat="46.17433" lon="6.25835">
        <ele>502</ele>
        <time>2021-03-27T11:49:01Z</time>
      </trkpt>
      <trkpt lat="46.17433" lon="6.25835">
        <ele>502</ele>
        <time>2021-03-27T11:49:02Z</time>
      </trkpt>
      <trkpt lat="46.17433" lon="6.25835">
        <ele>502.2</ele>
        <time>2021-03-27T11:49:03Z</time>
      </trkpt>
      <trkpt lat="46.17433" lon="6.25835">
        <ele>502</ele>
        <time>2021-03-27T11:49:04Z</time>
      </trkpt>
      <trkpt lat="46.17433" lon="6.25835">
        <ele>502.2</ele>
        <time>2021-03-27T11:49:05Z</time>
      </trkpt>
      <trkpt lat="46.17433" lon="6.25835">
        <ele>502</ele>
        <time>2021-03-27T11:49:06Z</time>
      </trkpt>
      <trkpt lat="46.17433" lon="6.25835">
        <ele>502.2</ele>
        <time>2021-03-27T11:49:07Z</time>
      </trkpt>
      <trkpt lat="46.17433" lon="6.25835">
        <ele>502</ele>
        <time>2021-03-27T11:49:08Z</time>
      </trkpt>
      <trkpt lat="46.17433" lon="6.25835">
        <ele>502.2</ele>
        <time>2021-03-27T11:49:09Z</time>
      </trkpt>
      <trkpt lat="46.17433" lon="6.25835">
        <ele>502</ele>
        <time>2021-03-27T11:49:10Z</time>
      </trkpt>
      <trkpt lat="46.17433" lon="6.25835">
        <ele>502</ele>
        <time>2021-03-27T11:49:11Z</time>
      </trkpt>
      <trkpt lat="46.17433" lon="6.25835">
        <ele>502</ele>
        <time>2021-03-27T11:49:12Z</time>
      </trkpt>
      <trkpt lat="46.17433" lon="6.25835">
        <ele>502.2</ele>
        <time>2021-03-27T11:49:13Z</time>
      </trkpt>
      <trkpt lat="46.17433" lon="6.25835">
        <ele>502</ele>
        <time>2021-03-27T11:49:14Z</time>
      </trkpt>
      <trkpt lat="46.17433" lon="6.25835">
        <ele>502.2</ele>
        <time>2021-03-27T11:49:15Z</time>
      </trkpt>
      <trkpt lat="46.17433" lon="6.25835">
        <ele>502.2</ele>
        <time>2021-03-27T11:49:16Z</time>
      </trkpt>
      <trkpt lat="46.17433" lon="6.25835">
        <ele>502</ele>
        <time>2021-03-27T11:49:17Z</time>
      </trkpt>
      <trkpt lat="46.17433" lon="6.25835">
        <ele>502</ele>
        <time>2021-03-27T11:49:18Z</time>
      </trkpt>
      <trkpt lat="46.17433" lon="6.25835">
        <ele>502.2</ele>
        <time>2021-03-27T11:49:19Z</time>
      </trkpt>
      <trkpt lat="46.17433" lon="6.25835">
        <ele>502.2</ele>
        <time>2021-03-27T11:49:20Z</time>
      </trkpt>
      <trkpt lat="46.17433" lon="6.25835">
        <ele>502</ele>
        <time>2021-03-27T11:49:21Z</time>
      </trkpt>
      <trkpt lat="46.17433" lon="6.25835">
        <ele>502.2</ele>
        <time>2021-03-27T11:49:22Z</time>
      </trkpt>
      <trkpt lat="46.17433" lon="6.25835">
        <ele>502.2</ele>
        <time>2021-03-27T11:49:23Z</time>
      </trkpt>
      <trkpt lat="46.17433" lon="6.25835">
        <ele>502.2</ele>
        <time>2021-03-27T11:49:24Z</time>
      </trkpt>
      <trkpt lat="46.17433" lon="6.25835">
        <ele>502.2</ele>
        <time>2021-03-27T11:49:25Z</time>
      </trkpt>
      <trkpt lat="46.17433" lon="6.25835">
        <ele>502.2</ele>
        <time>2021-03-27T11:49:26Z</time>
      </trkpt>
      <trkpt lat="46.17433" lon="6.25835">
        <ele>502.2</ele>
        <time>2021-03-27T11:49:27Z</time>
      </trkpt>
      <trkpt lat="46.17433" lon="6.25835">
        <ele>502.2</ele>
        <time>2021-03-27T11:49:28Z</time>
      </trkpt>
      <trkpt lat="46.17433" lon="6.25835">
        <ele>502.2</ele>
        <time>2021-03-27T11:49:29Z</time>
      </trkpt>
      <trkpt lat="46.17433" lon="6.25835">
        <ele>502.2</ele>
        <time>2021-03-27T11:49:30Z</time>
      </trkpt>
      <trkpt lat="46.17433" lon="6.25835">
        <ele>502.2</ele>
        <time>2021-03-27T11:49:31Z</time>
      </trkpt>
      <trkpt lat="46.17433" lon="6.25835">
        <ele>502.2</ele>
        <time>2021-03-27T11:49:32Z</time>
      </trkpt>
      <trkpt lat="46.17433" lon="6.25835">
        <ele>502.2</ele>
        <time>2021-03-27T11:49:33Z</time>
      </trkpt>
      <trkpt lat="46.17433" lon="6.25835">
        <ele>502.2</ele>
        <time>2021-03-27T11:49:34Z</time>
      </trkpt>
      <trkpt lat="46.17433" lon="6.25835">
        <ele>502.2</ele>
        <time>2021-03-27T11:49:35Z</time>
      </trkpt>
      <trkpt lat="46.17433" lon="6.25835">
        <ele>502.2</ele>
        <time>2021-03-27T11:49:36Z</time>
      </trkpt>
      <trkpt lat="46.17433" lon="6.25835">
        <ele>502.2</ele>
        <time>2021-03-27T11:49:37Z</time>
      </trkpt>
      <trkpt lat="46.17433" lon="6.25835">
        <ele>502.2</ele>
        <time>2021-03-27T11:49:38Z</time>
      </trkpt>
      <trkpt lat="46.17433" lon="6.25835">
        <ele>502.2</ele>
        <time>2021-03-27T11:49:39Z</time>
      </trkpt>
      <trkpt lat="46.17433" lon="6.25835">
        <ele>502.2</ele>
        <time>2021-03-27T11:49:40Z</time>
      </trkpt>
      <trkpt lat="46.17433" lon="6.25835">
        <ele>502.2</ele>
        <time>2021-03-27T11:49:41Z</time>
      </trkpt>
      <trkpt lat="46.17433" lon="6.25835">
        <ele>502.2</ele>
        <time>2021-03-27T11:49:42Z</time>
      </trkpt>
      <trkpt lat="46.17433" lon="6.25835">
        <ele>502.2</ele>
        <time>2021-03-27T11:49:43Z</time>
      </trkpt>
      <trkpt lat="46.17433" lon="6.25835">
        <ele>502.4</ele>
        <time>2021-03-27T11:49:44Z</time>
      </trkpt>
      <trkpt lat="46.17433" lon="6.25835">
        <ele>502.4</ele>
        <time>2021-03-27T11:49:45Z</time>
      </trkpt>
      <trkpt lat="46.17433" lon="6.25835">
        <ele>502.2</ele>
        <time>2021-03-27T11:49:46Z</time>
      </trkpt>
      <trkpt lat="46.17433" lon="6.25835">
        <ele>502.2</ele>
        <time>2021-03-27T11:49:47Z</time>
      </trkpt>
      <trkpt lat="46.17433" lon="6.25835">
        <ele>502.2</ele>
        <time>2021-03-27T11:49:48Z</time>
      </trkpt>
      <trkpt lat="46.17433" lon="6.25835">
        <ele>502.2</ele>
        <time>2021-03-27T11:49:49Z</time>
      </trkpt>
      <trkpt lat="46.17433" lon="6.25835">
        <ele>502.2</ele>
        <time>2021-03-27T11:49:50Z</time>
      </trkpt>
      <trkpt lat="46.17433" lon="6.25835">
        <ele>502.4</ele>
        <time>2021-03-27T11:49:51Z</time>
      </trkpt>
      <trkpt lat="46.17433" lon="6.25835">
        <ele>502.4</ele>
        <time>2021-03-27T11:49:52Z</time>
      </trkpt>
      <trkpt lat="46.17433" lon="6.25835">
        <ele>502.4</ele>
        <time>2021-03-27T11:49:53Z</time>
      </trkpt>
      <trkpt lat="46.17433" lon="6.25835">
        <ele>502.4</ele>
        <time>2021-03-27T11:49:54Z</time>
      </trkpt>
      <trkpt lat="46.17433" lon="6.25835">
        <ele>502.4</ele>
        <time>2021-03-27T11:49:55Z</time>
      </trkpt>
      <trkpt lat="46.17433" lon="6.25835">
        <ele>502.4</ele>
        <time>2021-03-27T11:49:56Z</time>
      </trkpt>
      <trkpt lat="46.17433" lon="6.25835">
        <ele>502.4</ele>
        <time>2021-03-27T11:49:57Z</time>
      </trkpt>
      <trkpt lat="46.17433" lon="6.25835">
        <ele>502.2</ele>
        <time>2021-03-27T11:49:58Z</time>
      </trkpt>
      <trkpt lat="46.17433" lon="6.25835">
        <ele>502.2</ele>
        <time>2021-03-27T11:49:59Z</time>
      </trkpt>
      <trkpt lat="46.17433" lon="6.25835">
        <ele>502.2</ele>
        <time>2021-03-27T11:50:00Z</time>
      </trkpt>
      <trkpt lat="46.17433" lon="6.25835">
        <ele>502.2</ele>
        <time>2021-03-27T11:50:01Z</time>
      </trkpt>
      <trkpt lat="46.17433" lon="6.25835">
        <ele>502.2</ele>
        <time>2021-03-27T11:50:02Z</time>
      </trkpt>
      <trkpt lat="46.17433" lon="6.25835">
        <ele>502.2</ele>
        <time>2021-03-27T11:50:03Z</time>
      </trkpt>
      <trkpt lat="46.17433" lon="6.25835">
        <ele>502.2</ele>
        <time>2021-03-27T11:50:04Z</time>
      </trkpt>
      <trkpt lat="46.17433" lon="6.25835">
        <ele>502.2</ele>
        <time>2021-03-27T11:50:05Z</time>
      </trkpt>
      <trkpt lat="46.17433" lon="6.25835">
        <ele>502.2</ele>
        <time>2021-03-27T11:50:06Z</time>
      </trkpt>
      <trkpt lat="46.17433" lon="6.25835">
        <ele>502.4</ele>
        <time>2021-03-27T11:50:07Z</time>
      </trkpt>
      <trkpt lat="46.17433" lon="6.25835">
        <ele>502.4</ele>
        <time>2021-03-27T11:50:08Z</time>
      </trkpt>
      <trkpt lat="46.17433" lon="6.25835">
        <ele>502.4</ele>
        <time>2021-03-27T11:50:09Z</time>
      </trkpt>
      <trkpt lat="46.17433" lon="6.25835">
        <ele>502.2</ele>
        <time>2021-03-27T11:50:10Z</time>
      </trkpt>
      <trkpt lat="46.17433" lon="6.25835">
        <ele>502.2</ele>
        <time>2021-03-27T11:50:11Z</time>
      </trkpt>
      <trkpt lat="46.17433" lon="6.25835">
        <ele>502.2</ele>
        <time>2021-03-27T11:50:12Z</time>
      </trkpt>
      <trkpt lat="46.17433" lon="6.25835">
        <ele>502.4</ele>
        <time>2021-03-27T11:50:13Z</time>
      </trkpt>
      <trkpt lat="46.17433" lon="6.25835">
        <ele>502.2</ele>
        <time>2021-03-27T11:50:14Z</time>
      </trkpt>
      <trkpt lat="46.17433" lon="6.25835">
        <ele>502.2</ele>
        <time>2021-03-27T11:50:15Z</time>
      </trkpt>
      <trkpt lat="46.17433" lon="6.25835">
        <ele>502.4</ele>
        <time>2021-03-27T11:50:16Z</time>
      </trkpt>
      <trkpt lat="46.17433" lon="6.25835">
        <ele>502.2</ele>
        <time>2021-03-27T11:50:17Z</time>
      </trkpt>
      <trkpt lat="46.17433" lon="6.25835">
        <ele>502.4</ele>
        <time>2021-03-27T11:50:18Z</time>
      </trkpt>
      <trkpt lat="46.17433" lon="6.25835">
        <ele>502.2</ele>
        <time>2021-03-27T11:50:19Z</time>
      </trkpt>
      <trkpt lat="46.17433" lon="6.25834">
        <ele>502.2</ele>
        <time>2021-03-27T11:50:20Z</time>
      </trkpt>
      <trkpt lat="46.17433" lon="6.25834">
        <ele>502.2</ele>
        <time>2021-03-27T11:50:21Z</time>
      </trkpt>
      <trkpt lat="46.17433" lon="6.25834">
        <ele>502.2</ele>
        <time>2021-03-27T11:50:22Z</time>
      </trkpt>
      <trkpt lat="46.17433" lon="6.25834">
        <ele>502.2</ele>
        <time>2021-03-27T11:50:23Z</time>
      </trkpt>
      <trkpt lat="46.17434" lon="6.25834">
        <ele>502</ele>
        <time>2021-03-27T11:50:24Z</time>
      </trkpt>
      <trkpt lat="46.17434" lon="6.25834">
        <ele>502.2</ele>
        <time>2021-03-27T11:50:25Z</time>
      </trkpt>
      <trkpt lat="46.17434" lon="6.25834">
        <ele>502.2</ele>
        <time>2021-03-27T11:50:26Z</time>
      </trkpt>
      <trkpt lat="46.17434" lon="6.25834">
        <ele>502.2</ele>
        <time>2021-03-27T11:50:27Z</time>
      </trkpt>
      <trkpt lat="46.17434" lon="6.25834">
        <ele>502</ele>
        <time>2021-03-27T11:50:28Z</time>
      </trkpt>
      <trkpt lat="46.17434" lon="6.25834">
        <ele>502.2</ele>
        <time>2021-03-27T11:50:29Z</time>
      </trkpt>
      <trkpt lat="46.17434" lon="6.25834">
        <ele>502.2</ele>
        <time>2021-03-27T11:50:30Z</time>
      </trkpt>
      <trkpt lat="46.17434" lon="6.25833">
        <ele>502.2</ele>
        <time>2021-03-27T11:50:31Z</time>
      </trkpt>
      <trkpt lat="46.17434" lon="6.25833">
        <ele>502.2</ele>
        <time>2021-03-27T11:50:32Z</time>
      </trkpt>
      <trkpt lat="46.17433" lon="6.25833">
        <ele>502.2</ele>
        <time>2021-03-27T11:50:33Z</time>
      </trkpt>
      <trkpt lat="46.17433" lon="6.25833">
        <ele>502.2</ele>
        <time>2021-03-27T11:50:34Z</time>
      </trkpt>
      <trkpt lat="46.17433" lon="6.25832">
        <ele>502.2</ele>
        <time>2021-03-27T11:50:35Z</time>
      </trkpt>
      <trkpt lat="46.17433" lon="6.25832">
        <ele>502.2</ele>
        <time>2021-03-27T11:50:36Z</time>
      </trkpt>
      <trkpt lat="46.17433" lon="6.25831">
        <ele>502.2</ele>
        <time>2021-03-27T11:50:37Z</time>
      </trkpt>
      <trkpt lat="46.17433" lon="6.25831">
        <ele>502.2</ele>
        <time>2021-03-27T11:50:38Z</time>
      </trkpt>
      <trkpt lat="46.17433" lon="6.25831">
        <ele>502.2</ele>
        <time>2021-03-27T11:50:39Z</time>
      </trkpt>
      <trkpt lat="46.17433" lon="6.25831">
        <ele>502.2</ele>
        <time>2021-03-27T11:50:41Z</time>
      </trkpt>
      <trkpt lat="46.17433" lon="6.25831">
        <ele>502.2</ele>
        <time>2021-03-27T11:50:42Z</time>
      </trkpt>
      <trkpt lat="46.17433" lon="6.2583">
        <ele>502.2</ele>
        <time>2021-03-27T11:50:43Z</time>
      </trkpt>
      <trkpt lat="46.17434" lon="6.25831">
        <ele>502.2</ele>
        <time>2021-03-27T11:50:44Z</time>
      </trkpt>
      <trkpt lat="46.17434" lon="6.25831">
        <ele>502.2</ele>
        <time>2021-03-27T11:50:45Z</time>
      </trkpt>
      <trkpt lat="46.17434" lon="6.25832">
        <ele>502.2</ele>
        <time>2021-03-27T11:50:46Z</time>
      </trkpt>
      <trkpt lat="46.17434" lon="6.25833">
        <ele>502.2</ele>
        <time>2021-03-27T11:50:47Z</time>
      </trkpt>
      <trkpt lat="46.17435" lon="6.25833">
        <ele>502.2</ele>
        <time>2021-03-27T11:50:48Z</time>
      </trkpt>
      <trkpt lat="46.17435" lon="6.25834">
        <ele>502.2</ele>
        <time>2021-03-27T11:50:49Z</time>
      </trkpt>
      <trkpt lat="46.17435" lon="6.25834">
        <ele>502.4</ele>
        <time>2021-03-27T11:50:50Z</time>
      </trkpt>
      <trkpt lat="46.17435" lon="6.25834">
        <ele>502.4</ele>
        <time>2021-03-27T11:50:51Z</time>
      </trkpt>
      <trkpt lat="46.17435" lon="6.25834">
        <ele>502.4</ele>
        <time>2021-03-27T11:50:52Z</time>
      </trkpt>
      <trkpt lat="46.17435" lon="6.25834">
        <ele>502.2</ele>
        <time>2021-03-27T11:50:53Z</time>
      </trkpt>
      <trkpt lat="46.17435" lon="6.25834">
        <ele>502.4</ele>
        <time>2021-03-27T11:50:54Z</time>
      </trkpt>
      <trkpt lat="46.17435" lon="6.25834">
        <ele>502.4</ele>
        <time>2021-03-27T11:50:55Z</time>
      </trkpt>
      <trkpt lat="46.17435" lon="6.25834">
        <ele>502.4</ele>
        <time>2021-03-27T11:50:56Z</time>
      </trkpt>
      <trkpt lat="46.17435" lon="6.25834">
        <ele>502.4</ele>
        <time>2021-03-27T11:50:57Z</time>
      </trkpt>
      <trkpt lat="46.17435" lon="6.25834">
        <ele>502.4</ele>
        <time>2021-03-27T11:50:58Z</time>
      </trkpt>
      <trkpt lat="46.17435" lon="6.25834">
        <ele>502.4</ele>
        <time>2021-03-27T11:50:59Z</time>
      </trkpt>
      <trkpt lat="46.17435" lon="6.25834">
        <ele>502.6</ele>
        <time>2021-03-27T11:51:00Z</time>
      </trkpt>
      <trkpt lat="46.17435" lon="6.25834">
        <ele>502.4</ele>
        <time>2021-03-27T11:51:01Z</time>
      </trkpt>
      <trkpt lat="46.17435" lon="6.25834">
        <ele>502.4</ele>
        <time>2021-03-27T11:51:02Z</time>
      </trkpt>
      <trkpt lat="46.17435" lon="6.25834">
        <ele>502.4</ele>
        <time>2021-03-27T11:51:03Z</time>
      </trkpt>
      <trkpt lat="46.17435" lon="6.25834">
        <ele>502.6</ele>
        <time>2021-03-27T11:51:04Z</time>
      </trkpt>
      <trkpt lat="46.17435" lon="6.25835">
        <ele>502.4</ele>
        <time>2021-03-27T11:51:05Z</time>
      </trkpt>
      <trkpt lat="46.17435" lon="6.25835">
        <ele>502.4</ele>
        <time>2021-03-27T11:51:06Z</time>
      </trkpt>
      <trkpt lat="46.17435" lon="6.25835">
        <ele>502.4</ele>
        <time>2021-03-27T11:51:07Z</time>
      </trkpt>
      <trkpt lat="46.17435" lon="6.25835">
        <ele>502.4</ele>
        <time>2021-03-27T11:51:08Z</time>
      </trkpt>
      <trkpt lat="46.17435" lon="6.25835">
        <ele>502.4</ele>
        <time>2021-03-27T11:51:09Z</time>
      </trkpt>
      <trkpt lat="46.17435" lon="6.25834">
        <ele>502.4</ele>
        <time>2021-03-27T11:51:10Z</time>
      </trkpt>
      <trkpt lat="46.17434" lon="6.25834">
        <ele>502.4</ele>
        <time>2021-03-27T11:51:11Z</time>
      </trkpt>
      <trkpt lat="46.17434" lon="6.25834">
        <ele>502.6</ele>
        <time>2021-03-27T11:51:12Z</time>
      </trkpt>
      <trkpt lat="46.17434" lon="6.25834">
        <ele>502.4</ele>
        <time>2021-03-27T11:51:13Z</time>
      </trkpt>
      <trkpt lat="46.17434" lon="6.25834">
        <ele>502.4</ele>
        <time>2021-03-27T11:51:14Z</time>
      </trkpt>
      <trkpt lat="46.17434" lon="6.25834">
        <ele>502.4</ele>
        <time>2021-03-27T11:51:15Z</time>
      </trkpt>
      <trkpt lat="46.17434" lon="6.25834">
        <ele>502.2</ele>
        <time>2021-03-27T11:51:16Z</time>
      </trkpt>
      <trkpt lat="46.17434" lon="6.25834">
        <ele>502.4</ele>
        <time>2021-03-27T11:51:17Z</time>
      </trkpt>
      <trkpt lat="46.17434" lon="6.25834">
        <ele>502.4</ele>
        <time>2021-03-27T11:51:18Z</time>
      </trkpt>
      <trkpt lat="46.17434" lon="6.25834">
        <ele>502.6</ele>
        <time>2021-03-27T11:51:19Z</time>
      </trkpt>
      <trkpt lat="46.17434" lon="6.25834">
        <ele>502.4</ele>
        <time>2021-03-27T11:51:20Z</time>
      </trkpt>
      <trkpt lat="46.17434" lon="6.25834">
        <ele>502.4</ele>
        <time>2021-03-27T11:51:21Z</time>
      </trkpt>
      <trkpt lat="46.17434" lon="6.25834">
        <ele>502.6</ele>
        <time>2021-03-27T11:51:22Z</time>
      </trkpt>
      <trkpt lat="46.17434" lon="6.25834">
        <ele>502.6</ele>
        <time>2021-03-27T11:51:23Z</time>
      </trkpt>
      <trkpt lat="46.17434" lon="6.25834">
        <ele>502.6</ele>
        <time>2021-03-27T11:51:24Z</time>
      </trkpt>
      <trkpt lat="46.17434" lon="6.25834">
        <ele>502.6</ele>
        <time>2021-03-27T11:51:25Z</time>
      </trkpt>
      <trkpt lat="46.17434" lon="6.25834">
        <ele>502.6</ele>
        <time>2021-03-27T11:51:26Z</time>
      </trkpt>
      <trkpt lat="46.17434" lon="6.25834">
        <ele>502.6</ele>
        <time>2021-03-27T11:51:27Z</time>
      </trkpt>
      <trkpt lat="46.17434" lon="6.25834">
        <ele>502.6</ele>
        <time>2021-03-27T11:51:28Z</time>
      </trkpt>
      <trkpt lat="46.17434" lon="6.25834">
        <ele>502.6</ele>
        <time>2021-03-27T11:51:29Z</time>
      </trkpt>
      <trkpt lat="46.17434" lon="6.25834">
        <ele>502.8</ele>
        <time>2021-03-27T11:51:30Z</time>
      </trkpt>
      <trkpt lat="46.17434" lon="6.25834">
        <ele>502.6</ele>
        <time>2021-03-27T11:51:31Z</time>
      </trkpt>
      <trkpt lat="46.17434" lon="6.25834">
        <ele>502.6</ele>
        <time>2021-03-27T11:51:32Z</time>
      </trkpt>
      <trkpt lat="46.17434" lon="6.25834">
        <ele>502.8</ele>
        <time>2021-03-27T11:51:33Z</time>
      </trkpt>
      <trkpt lat="46.17434" lon="6.25833">
        <ele>502.6</ele>
        <time>2021-03-27T11:51:34Z</time>
      </trkpt>
      <trkpt lat="46.17434" lon="6.25833">
        <ele>502.8</ele>
        <time>2021-03-27T11:51:35Z</time>
      </trkpt>
      <trkpt lat="46.17433" lon="6.25833">
        <ele>502.6</ele>
        <time>2021-03-27T11:51:36Z</time>
      </trkpt>
      <trkpt lat="46.17433" lon="6.25831">
        <ele>502.6</ele>
        <time>2021-03-27T11:51:37Z</time>
      </trkpt>
      <trkpt lat="46.17433" lon="6.2583">
        <ele>502.6</ele>
        <time>2021-03-27T11:51:38Z</time>
      </trkpt>
      <trkpt lat="46.17433" lon="6.25829">
        <ele>502.8</ele>
        <time>2021-03-27T11:51:39Z</time>
      </trkpt>
      <trkpt lat="46.17433" lon="6.25827">
        <ele>502.6</ele>
        <time>2021-03-27T11:51:40Z</time>
      </trkpt>
      <trkpt lat="46.17433" lon="6.25825">
        <ele>502.8</ele>
        <time>2021-03-27T11:51:41Z</time>
      </trkpt>
      <trkpt lat="46.17432" lon="6.25824">
        <ele>502.8</ele>
        <time>2021-03-27T11:51:42Z</time>
      </trkpt>
      <trkpt lat="46.17432" lon="6.25822">
        <ele>502.6</ele>
        <time>2021-03-27T11:51:43Z</time>
      </trkpt>
      <trkpt lat="46.17432" lon="6.25821">
        <ele>502.6</ele>
        <time>2021-03-27T11:51:44Z</time>
      </trkpt>
      <trkpt lat="46.17431" lon="6.2582">
        <ele>502.8</ele>
        <time>2021-03-27T11:51:45Z</time>
      </trkpt>
      <trkpt lat="46.17431" lon="6.25818">
        <ele>502.6</ele>
        <time>2021-03-27T11:51:46Z</time>
      </trkpt>
      <trkpt lat="46.17431" lon="6.25817">
        <ele>502.6</ele>
        <time>2021-03-27T11:51:47Z</time>
      </trkpt>
      <trkpt lat="46.1743" lon="6.25816">
        <ele>502.8</ele>
        <time>2021-03-27T11:51:48Z</time>
      </trkpt>
      <trkpt lat="46.1743" lon="6.25815">
        <ele>502.8</ele>
        <time>2021-03-27T11:51:49Z</time>
      </trkpt>
      <trkpt lat="46.1743" lon="6.25813">
        <ele>502.6</ele>
        <time>2021-03-27T11:51:50Z</time>
      </trkpt>
      <trkpt lat="46.1743" lon="6.25812">
        <ele>502.6</ele>
        <time>2021-03-27T11:51:51Z</time>
      </trkpt>
      <trkpt lat="46.1743" lon="6.25811">
        <ele>502.6</ele>
        <time>2021-03-27T11:51:52Z</time>
      </trkpt>
      <trkpt lat="46.17429" lon="6.2581">
        <ele>502.6</ele>
        <time>2021-03-27T11:51:53Z</time>
      </trkpt>
      <trkpt lat="46.17429" lon="6.2581">
        <ele>502.8</ele>
        <time>2021-03-27T11:51:54Z</time>
      </trkpt>
      <trkpt lat="46.17429" lon="6.2581">
        <ele>502.8</ele>
        <time>2021-03-27T11:51:55Z</time>
      </trkpt>
      <trkpt lat="46.17429" lon="6.2581">
        <ele>502.8</ele>
        <time>2021-03-27T11:51:56Z</time>
      </trkpt>
      <trkpt lat="46.17429" lon="6.2581">
        <ele>502.6</ele>
        <time>2021-03-27T11:51:57Z</time>
      </trkpt>
      <trkpt lat="46.17429" lon="6.2581">
        <ele>502.6</ele>
        <time>2021-03-27T11:51:58Z</time>
      </trkpt>
      <trkpt lat="46.17429" lon="6.2581">
        <ele>502.6</ele>
        <time>2021-03-27T11:51:59Z</time>
      </trkpt>
      <trkpt lat="46.17429" lon="6.2581">
        <ele>502.8</ele>
        <time>2021-03-27T11:52:00Z</time>
      </trkpt>
      <trkpt lat="46.17429" lon="6.2581">
        <ele>502.8</ele>
        <time>2021-03-27T11:52:01Z</time>
      </trkpt>
      <trkpt lat="46.17428" lon="6.2581">
        <ele>502.8</ele>
        <time>2021-03-27T11:52:02Z</time>
      </trkpt>
      <trkpt lat="46.17428" lon="6.2581">
        <ele>502.6</ele>
        <time>2021-03-27T11:52:03Z</time>
      </trkpt>
      <trkpt lat="46.17429" lon="6.25809">
        <ele>502.6</ele>
        <time>2021-03-27T11:52:04Z</time>
      </trkpt>
      <trkpt lat="46.17428" lon="6.25809">
        <ele>502.6</ele>
        <time>2021-03-27T11:52:05Z</time>
      </trkpt>
      <trkpt lat="46.17428" lon="6.25809">
        <ele>502.6</ele>
        <time>2021-03-27T11:52:06Z</time>
      </trkpt>
      <trkpt lat="46.17427" lon="6.25809">
        <ele>502.6</ele>
        <time>2021-03-27T11:52:07Z</time>
      </trkpt>
      <trkpt lat="46.17427" lon="6.25809">
        <ele>502.6</ele>
        <time>2021-03-27T11:52:08Z</time>
      </trkpt>
      <trkpt lat="46.17427" lon="6.25808">
        <ele>502.4</ele>
        <time>2021-03-27T11:52:09Z</time>
      </trkpt>
      <trkpt lat="46.17427" lon="6.25808">
        <ele>502.4</ele>
        <time>2021-03-27T11:52:10Z</time>
      </trkpt>
      <trkpt lat="46.17427" lon="6.25808">
        <ele>502.4</ele>
        <time>2021-03-27T11:52:11Z</time>
      </trkpt>
      <trkpt lat="46.17426" lon="6.25809">
        <ele>502.4</ele>
        <time>2021-03-27T11:52:12Z</time>
      </trkpt>
      <trkpt lat="46.17426" lon="6.25809">
        <ele>502.2</ele>
        <time>2021-03-27T11:52:13Z</time>
      </trkpt>
      <trkpt lat="46.17426" lon="6.25809">
        <ele>502</ele>
        <time>2021-03-27T11:52:14Z</time>
      </trkpt>
      <trkpt lat="46.17426" lon="6.25809">
        <ele>501.8</ele>
        <time>2021-03-27T11:52:15Z</time>
      </trkpt>
      <trkpt lat="46.17425" lon="6.25809">
        <ele>501.8</ele>
        <time>2021-03-27T11:52:16Z</time>
      </trkpt>
      <trkpt lat="46.17425" lon="6.25808">
        <ele>501.6</ele>
        <time>2021-03-27T11:52:17Z</time>
      </trkpt>
      <trkpt lat="46.17424" lon="6.25808">
        <ele>501.6</ele>
        <time>2021-03-27T11:52:18Z</time>
      </trkpt>
      <trkpt lat="46.17423" lon="6.25808">
        <ele>501.6</ele>
        <time>2021-03-27T11:52:19Z</time>
      </trkpt>
      <trkpt lat="46.17423" lon="6.25808">
        <ele>501.6</ele>
        <time>2021-03-27T11:52:20Z</time>
      </trkpt>
      <trkpt lat="46.17423" lon="6.25809">
        <ele>501.6</ele>
        <time>2021-03-27T11:52:21Z</time>
      </trkpt>
      <trkpt lat="46.17422" lon="6.25809">
        <ele>501.4</ele>
        <time>2021-03-27T11:52:22Z</time>
      </trkpt>
      <trkpt lat="46.17422" lon="6.25809">
        <ele>501.6</ele>
        <time>2021-03-27T11:52:23Z</time>
      </trkpt>
      <trkpt lat="46.17422" lon="6.25808">
        <ele>501.4</ele>
        <time>2021-03-27T11:52:24Z</time>
      </trkpt>
      <trkpt lat="46.17422" lon="6.25808">
        <ele>501.2</ele>
        <time>2021-03-27T11:52:25Z</time>
      </trkpt>
      <trkpt lat="46.17422" lon="6.25808">
        <ele>501.4</ele>
        <time>2021-03-27T11:52:26Z</time>
      </trkpt>
      <trkpt lat="46.17422" lon="6.25808">
        <ele>501.2</ele>
        <time>2021-03-27T11:52:27Z</time>
      </trkpt>
      <trkpt lat="46.17422" lon="6.25808">
        <ele>501.4</ele>
        <time>2021-03-27T11:52:28Z</time>
      </trkpt>
      <trkpt lat="46.17422" lon="6.25808">
        <ele>501.4</ele>
        <time>2021-03-27T11:52:29Z</time>
      </trkpt>
      <trkpt lat="46.17423" lon="6.25808">
        <ele>501.4</ele>
        <time>2021-03-27T11:52:30Z</time>
      </trkpt>
      <trkpt lat="46.17423" lon="6.25808">
        <ele>501.4</ele>
        <time>2021-03-27T11:52:31Z</time>
      </trkpt>
      <trkpt lat="46.17423" lon="6.25808">
        <ele>501.4</ele>
        <time>2021-03-27T11:52:32Z</time>
      </trkpt>
      <trkpt lat="46.17423" lon="6.25808">
        <ele>501.4</ele>
        <time>2021-03-27T11:52:33Z</time>
      </trkpt>
      <trkpt lat="46.17423" lon="6.25808">
        <ele>501.4</ele>
        <time>2021-03-27T11:52:34Z</time>
      </trkpt>
      <trkpt lat="46.17423" lon="6.25808">
        <ele>501.2</ele>
        <time>2021-03-27T11:52:35Z</time>
      </trkpt>
      <trkpt lat="46.17423" lon="6.25808">
        <ele>501.2</ele>
        <time>2021-03-27T11:52:36Z</time>
      </trkpt>
      <trkpt lat="46.17422" lon="6.25808">
        <ele>501.2</ele>
        <time>2021-03-27T11:52:37Z</time>
      </trkpt>
      <trkpt lat="46.17422" lon="6.25808">
        <ele>501.2</ele>
        <time>2021-03-27T11:52:38Z</time>
      </trkpt>
      <trkpt lat="46.17422" lon="6.25808">
        <ele>501.4</ele>
        <time>2021-03-27T11:52:39Z</time>
      </trkpt>
      <trkpt lat="46.17422" lon="6.25808">
        <ele>501.2</ele>
        <time>2021-03-27T11:52:40Z</time>
      </trkpt>
      <trkpt lat="46.17422" lon="6.25808">
        <ele>501.4</ele>
        <time>2021-03-27T11:52:41Z</time>
      </trkpt>
      <trkpt lat="46.17422" lon="6.25808">
        <ele>501.2</ele>
        <time>2021-03-27T11:52:42Z</time>
      </trkpt>
      <trkpt lat="46.17422" lon="6.25808">
        <ele>501.2</ele>
        <time>2021-03-27T11:52:43Z</time>
      </trkpt>
      <trkpt lat="46.17422" lon="6.25808">
        <ele>501.2</ele>
        <time>2021-03-27T11:52:44Z</time>
      </trkpt>
      <trkpt lat="46.17422" lon="6.25808">
        <ele>501.2</ele>
        <time>2021-03-27T11:52:45Z</time>
      </trkpt>
      <trkpt lat="46.17422" lon="6.25808">
        <ele>501.2</ele>
        <time>2021-03-27T11:52:46Z</time>
      </trkpt>
      <trkpt lat="46.17422" lon="6.25808">
        <ele>501.2</ele>
        <time>2021-03-27T11:52:47Z</time>
      </trkpt>
      <trkpt lat="46.17422" lon="6.25808">
        <ele>501.2</ele>
        <time>2021-03-27T11:52:48Z</time>
      </trkpt>
      <trkpt lat="46.17422" lon="6.25808">
        <ele>501</ele>
        <time>2021-03-27T11:52:49Z</time>
      </trkpt>
      <trkpt lat="46.17422" lon="6.25808">
        <ele>501.2</ele>
        <time>2021-03-27T11:52:50Z</time>
      </trkpt>
      <trkpt lat="46.17422" lon="6.25808">
        <ele>501.2</ele>
        <time>2021-03-27T11:52:51Z</time>
      </trkpt>
      <trkpt lat="46.17423" lon="6.25808">
        <ele>501</ele>
        <time>2021-03-27T11:52:52Z</time>
      </trkpt>
      <trkpt lat="46.17423" lon="6.25808">
        <ele>501</ele>
        <time>2021-03-27T11:52:53Z</time>
      </trkpt>
      <trkpt lat="46.17423" lon="6.25808">
        <ele>501</ele>
        <time>2021-03-27T11:52:54Z</time>
      </trkpt>
      <trkpt lat="46.17422" lon="6.25808">
        <ele>501</ele>
        <time>2021-03-27T11:52:55Z</time>
      </trkpt>
      <trkpt lat="46.17422" lon="6.25808">
        <ele>501</ele>
        <time>2021-03-27T11:52:56Z</time>
      </trkpt>
      <trkpt lat="46.17421" lon="6.25808">
        <ele>501</ele>
        <time>2021-03-27T11:52:57Z</time>
      </trkpt>
      <trkpt lat="46.1742" lon="6.25808">
        <ele>501</ele>
        <time>2021-03-27T11:52:58Z</time>
      </trkpt>
      <trkpt lat="46.17419" lon="6.25808">
        <ele>501</ele>
        <time>2021-03-27T11:52:59Z</time>
      </trkpt>
      <trkpt lat="46.17418" lon="6.25807">
        <ele>501</ele>
        <time>2021-03-27T11:53:00Z</time>
      </trkpt>
      <trkpt lat="46.17416" lon="6.25807">
        <ele>501</ele>
        <time>2021-03-27T11:53:01Z</time>
      </trkpt>
      <trkpt lat="46.17415" lon="6.25807">
        <ele>501</ele>
        <time>2021-03-27T11:53:02Z</time>
      </trkpt>
      <trkpt lat="46.17414" lon="6.25806">
        <ele>501</ele>
        <time>2021-03-27T11:53:03Z</time>
      </trkpt>
      <trkpt lat="46.17412" lon="6.25806">
        <ele>501</ele>
        <time>2021-03-27T11:53:04Z</time>
      </trkpt>
      <trkpt lat="46.17411" lon="6.25806">
        <ele>501</ele>
        <time>2021-03-27T11:53:05Z</time>
      </trkpt>
      <trkpt lat="46.1741" lon="6.25805">
        <ele>501</ele>
        <time>2021-03-27T11:53:06Z</time>
      </trkpt>
      <trkpt lat="46.17408" lon="6.25805">
        <ele>501</ele>
        <time>2021-03-27T11:53:07Z</time>
      </trkpt>
      <trkpt lat="46.17407" lon="6.25804">
        <ele>501</ele>
        <time>2021-03-27T11:53:08Z</time>
      </trkpt>
      <trkpt lat="46.17406" lon="6.25804">
        <ele>501</ele>
        <time>2021-03-27T11:53:09Z</time>
      </trkpt>
      <trkpt lat="46.17405" lon="6.25804">
        <ele>501</ele>
        <time>2021-03-27T11:53:10Z</time>
      </trkpt>
      <trkpt lat="46.17404" lon="6.25804">
        <ele>500.8</ele>
        <time>2021-03-27T11:53:11Z</time>
      </trkpt>
      <trkpt lat="46.17403" lon="6.25803">
        <ele>501</ele>
        <time>2021-03-27T11:53:12Z</time>
      </trkpt>
      <trkpt lat="46.17403" lon="6.25802">
        <ele>500.8</ele>
        <time>2021-03-27T11:53:13Z</time>
      </trkpt>
      <trkpt lat="46.17402" lon="6.25801">
        <ele>500.8</ele>
        <time>2021-03-27T11:53:14Z</time>
      </trkpt>
      <trkpt lat="46.17402" lon="6.25801">
        <ele>500.8</ele>
        <time>2021-03-27T11:53:15Z</time>
      </trkpt>
      <trkpt lat="46.17402" lon="6.25799">
        <ele>500.8</ele>
        <time>2021-03-27T11:53:16Z</time>
      </trkpt>
      <trkpt lat="46.17401" lon="6.25798">
        <ele>500.6</ele>
        <time>2021-03-27T11:53:17Z</time>
      </trkpt>
      <trkpt lat="46.17401" lon="6.25797">
        <ele>500.6</ele>
        <time>2021-03-27T11:53:18Z</time>
      </trkpt>
      <trkpt lat="46.17402" lon="6.25795">
        <ele>500.6</ele>
        <time>2021-03-27T11:53:19Z</time>
      </trkpt>
      <trkpt lat="46.17402" lon="6.25794">
        <ele>500.6</ele>
        <time>2021-03-27T11:53:20Z</time>
      </trkpt>
      <trkpt lat="46.17402" lon="6.25793">
        <ele>500.6</ele>
        <time>2021-03-27T11:53:21Z</time>
      </trkpt>
      <trkpt lat="46.17402" lon="6.25792">
        <ele>500.4</ele>
        <time>2021-03-27T11:53:22Z</time>
      </trkpt>
      <trkpt lat="46.17402" lon="6.25791">
        <ele>500.4</ele>
        <time>2021-03-27T11:53:23Z</time>
      </trkpt>
      <trkpt lat="46.17403" lon="6.25789">
        <ele>500.6</ele>
        <time>2021-03-27T11:53:24Z</time>
      </trkpt>
      <trkpt lat="46.17403" lon="6.25788">
        <ele>500.4</ele>
        <time>2021-03-27T11:53:25Z</time>
      </trkpt>
      <trkpt lat="46.17403" lon="6.25788">
        <ele>500.2</ele>
        <time>2021-03-27T11:53:26Z</time>
      </trkpt>
      <trkpt lat="46.17403" lon="6.25787">
        <ele>500.2</ele>
        <time>2021-03-27T11:53:27Z</time>
      </trkpt>
      <trkpt lat="46.17403" lon="6.25786">
        <ele>500.2</ele>
        <time>2021-03-27T11:53:28Z</time>
      </trkpt>
      <trkpt lat="46.17403" lon="6.25786">
        <ele>500.2</ele>
        <time>2021-03-27T11:53:29Z</time>
      </trkpt>
      <trkpt lat="46.17403" lon="6.25785">
        <ele>500</ele>
        <time>2021-03-27T11:53:30Z</time>
      </trkpt>
      <trkpt lat="46.17403" lon="6.25786">
        <ele>500</ele>
        <time>2021-03-27T11:53:31Z</time>
      </trkpt>
      <trkpt lat="46.17403" lon="6.25786">
        <ele>500</ele>
        <time>2021-03-27T11:53:32Z</time>
      </trkpt>
      <trkpt lat="46.17403" lon="6.25785">
        <ele>500</ele>
        <time>2021-03-27T11:53:33Z</time>
      </trkpt>
      <trkpt lat="46.17403" lon="6.25785">
        <ele>500</ele>
        <time>2021-03-27T11:53:34Z</time>
      </trkpt>
      <trkpt lat="46.17403" lon="6.25785">
        <ele>499.8</ele>
        <time>2021-03-27T11:53:35Z</time>
      </trkpt>
      <trkpt lat="46.17403" lon="6.25785">
        <ele>499.8</ele>
        <time>2021-03-27T11:53:36Z</time>
      </trkpt>
      <trkpt lat="46.17403" lon="6.25785">
        <ele>500</ele>
        <time>2021-03-27T11:53:37Z</time>
      </trkpt>
      <trkpt lat="46.17403" lon="6.25785">
        <ele>499.8</ele>
        <time>2021-03-27T11:53:38Z</time>
      </trkpt>
      <trkpt lat="46.17403" lon="6.25785">
        <ele>499.8</ele>
        <time>2021-03-27T11:53:39Z</time>
      </trkpt>
      <trkpt lat="46.17403" lon="6.25785">
        <ele>500</ele>
        <time>2021-03-27T11:53:40Z</time>
      </trkpt>
      <trkpt lat="46.17403" lon="6.25785">
        <ele>499.8</ele>
        <time>2021-03-27T11:53:41Z</time>
      </trkpt>
      <trkpt lat="46.17403" lon="6.25785">
        <ele>499.8</ele>
        <time>2021-03-27T11:53:42Z</time>
      </trkpt>
      <trkpt lat="46.17403" lon="6.25785">
        <ele>499.8</ele>
        <time>2021-03-27T11:53:43Z</time>
      </trkpt>
      <trkpt lat="46.17403" lon="6.25785">
        <ele>499.8</ele>
        <time>2021-03-27T11:53:44Z</time>
      </trkpt>
      <trkpt lat="46.17403" lon="6.25785">
        <ele>499.8</ele>
        <time>2021-03-27T11:53:45Z</time>
      </trkpt>
      <trkpt lat="46.17403" lon="6.25785">
        <ele>499.8</ele>
        <time>2021-03-27T11:53:46Z</time>
      </trkpt>
      <trkpt lat="46.17403" lon="6.25785">
        <ele>499.8</ele>
        <time>2021-03-27T11:53:47Z</time>
      </trkpt>
      <trkpt lat="46.17403" lon="6.25785">
        <ele>499.8</ele>
        <time>2021-03-27T11:53:48Z</time>
      </trkpt>
      <trkpt lat="46.17403" lon="6.25785">
        <ele>499.8</ele>
        <time>2021-03-27T11:53:49Z</time>
      </trkpt>
      <trkpt lat="46.17403" lon="6.25785">
        <ele>499.8</ele>
        <time>2021-03-27T11:53:50Z</time>
      </trkpt>
      <trkpt lat="46.17403" lon="6.25785">
        <ele>499.8</ele>
        <time>2021-03-27T11:53:51Z</time>
      </trkpt>
      <trkpt lat="46.17403" lon="6.25785">
        <ele>499.8</ele>
        <time>2021-03-27T11:53:52Z</time>
      </trkpt>
      <trkpt lat="46.17403" lon="6.25785">
        <ele>499.8</ele>
        <time>2021-03-27T11:53:53Z</time>
      </trkpt>
      <trkpt lat="46.17403" lon="6.25785">
        <ele>499.8</ele>
        <time>2021-03-27T11:53:54Z</time>
      </trkpt>
      <trkpt lat="46.17403" lon="6.25785">
        <ele>499.8</ele>
        <time>2021-03-27T11:53:55Z</time>
      </trkpt>
      <trkpt lat="46.17403" lon="6.25785">
        <ele>499.8</ele>
        <time>2021-03-27T11:53:56Z</time>
      </trkpt>
      <trkpt lat="46.17403" lon="6.25785">
        <ele>500</ele>
        <time>2021-03-27T11:53:57Z</time>
      </trkpt>
      <trkpt lat="46.17403" lon="6.25785">
        <ele>500</ele>
        <time>2021-03-27T11:53:58Z</time>
      </trkpt>
      <trkpt lat="46.17403" lon="6.25785">
        <ele>499.8</ele>
        <time>2021-03-27T11:53:59Z</time>
      </trkpt>
      <trkpt lat="46.17403" lon="6.25785">
        <ele>499.8</ele>
        <time>2021-03-27T11:54:00Z</time>
      </trkpt>
      <trkpt lat="46.17403" lon="6.25785">
        <ele>499.8</ele>
        <time>2021-03-27T11:54:01Z</time>
      </trkpt>
      <trkpt lat="46.17403" lon="6.25785">
        <ele>500</ele>
        <time>2021-03-27T11:54:02Z</time>
      </trkpt>
      <trkpt lat="46.17403" lon="6.25785">
        <ele>499.8</ele>
        <time>2021-03-27T11:54:03Z</time>
      </trkpt>
      <trkpt lat="46.17403" lon="6.25785">
        <ele>499.8</ele>
        <time>2021-03-27T11:54:04Z</time>
      </trkpt>
      <trkpt lat="46.17403" lon="6.25785">
        <ele>500</ele>
        <time>2021-03-27T11:54:05Z</time>
      </trkpt>
      <trkpt lat="46.17403" lon="6.25785">
        <ele>500</ele>
        <time>2021-03-27T11:54:06Z</time>
      </trkpt>
      <trkpt lat="46.17403" lon="6.25785">
        <ele>500</ele>
        <time>2021-03-27T11:54:07Z</time>
      </trkpt>
      <trkpt lat="46.17403" lon="6.25785">
        <ele>500</ele>
        <time>2021-03-27T11:54:08Z</time>
      </trkpt>
      <trkpt lat="46.17403" lon="6.25785">
        <ele>500</ele>
        <time>2021-03-27T11:54:09Z</time>
      </trkpt>
      <trkpt lat="46.17403" lon="6.25785">
        <ele>500</ele>
        <time>2021-03-27T11:54:10Z</time>
      </trkpt>
      <trkpt lat="46.17403" lon="6.25785">
        <ele>499.8</ele>
        <time>2021-03-27T11:54:11Z</time>
      </trkpt>
      <trkpt lat="46.17403" lon="6.25785">
        <ele>499.8</ele>
        <time>2021-03-27T11:54:12Z</time>
      </trkpt>
      <trkpt lat="46.17403" lon="6.25785">
        <ele>500</ele>
        <time>2021-03-27T11:54:13Z</time>
      </trkpt>
      <trkpt lat="46.17403" lon="6.25785">
        <ele>499.8</ele>
        <time>2021-03-27T11:54:14Z</time>
      </trkpt>
      <trkpt lat="46.17403" lon="6.25785">
        <ele>499.6</ele>
        <time>2021-03-27T11:54:15Z</time>
      </trkpt>
      <trkpt lat="46.17403" lon="6.25785">
        <ele>499.8</ele>
        <time>2021-03-27T11:54:16Z</time>
      </trkpt>
      <trkpt lat="46.17403" lon="6.25785">
        <ele>499.8</ele>
        <time>2021-03-27T11:54:17Z</time>
      </trkpt>
      <trkpt lat="46.17403" lon="6.25785">
        <ele>499.6</ele>
        <time>2021-03-27T11:54:18Z</time>
      </trkpt>
      <trkpt lat="46.17403" lon="6.25785">
        <ele>499.6</ele>
        <time>2021-03-27T11:54:19Z</time>
      </trkpt>
      <trkpt lat="46.17403" lon="6.25785">
        <ele>499.6</ele>
        <time>2021-03-27T11:54:20Z</time>
      </trkpt>
      <trkpt lat="46.17403" lon="6.25785">
        <ele>499.6</ele>
        <time>2021-03-27T11:54:21Z</time>
      </trkpt>
      <trkpt lat="46.17403" lon="6.25785">
        <ele>499.6</ele>
        <time>2021-03-27T11:54:22Z</time>
      </trkpt>
      <trkpt lat="46.17403" lon="6.25785">
        <ele>499.6</ele>
        <time>2021-03-27T11:54:23Z</time>
      </trkpt>
      <trkpt lat="46.17403" lon="6.25785">
        <ele>499.6</ele>
        <time>2021-03-27T11:54:24Z</time>
      </trkpt>
      <trkpt lat="46.17403" lon="6.25785">
        <ele>499.4</ele>
        <time>2021-03-27T11:54:25Z</time>
      </trkpt>
      <trkpt lat="46.17403" lon="6.25785">
        <ele>499.6</ele>
        <time>2021-03-27T11:54:26Z</time>
      </trkpt>
      <trkpt lat="46.17403" lon="6.25785">
        <ele>499.6</ele>
        <time>2021-03-27T11:54:27Z</time>
      </trkpt>
      <trkpt lat="46.17403" lon="6.25785">
        <ele>499.6</ele>
        <time>2021-03-27T11:54:28Z</time>
      </trkpt>
      <trkpt lat="46.17403" lon="6.25785">
        <ele>499.4</ele>
        <time>2021-03-27T11:54:29Z</time>
      </trkpt>
      <trkpt lat="46.17403" lon="6.25785">
        <ele>499.4</ele>
        <time>2021-03-27T11:54:30Z</time>
      </trkpt>
      <trkpt lat="46.17403" lon="6.25785">
        <ele>499.6</ele>
        <time>2021-03-27T11:54:31Z</time>
      </trkpt>
      <trkpt lat="46.17403" lon="6.25785">
        <ele>499.4</ele>
        <time>2021-03-27T11:54:32Z</time>
      </trkpt>
      <trkpt lat="46.17403" lon="6.25785">
        <ele>499.4</ele>
        <time>2021-03-27T11:54:33Z</time>
      </trkpt>
      <trkpt lat="46.17403" lon="6.25785">
        <ele>499.4</ele>
        <time>2021-03-27T11:54:34Z</time>
      </trkpt>
      <trkpt lat="46.17403" lon="6.25785">
        <ele>499.4</ele>
        <time>2021-03-27T11:54:35Z</time>
      </trkpt>
      <trkpt lat="46.17403" lon="6.25785">
        <ele>499.4</ele>
        <time>2021-03-27T11:54:36Z</time>
      </trkpt>
      <trkpt lat="46.17403" lon="6.25785">
        <ele>499.4</ele>
        <time>2021-03-27T11:54:37Z</time>
      </trkpt>
      <trkpt lat="46.17403" lon="6.25785">
        <ele>499.4</ele>
        <time>2021-03-27T11:54:38Z</time>
      </trkpt>
      <trkpt lat="46.17403" lon="6.25785">
        <ele>499.6</ele>
        <time>2021-03-27T11:54:39Z</time>
      </trkpt>
      <trkpt lat="46.17403" lon="6.25785">
        <ele>499.4</ele>
        <time>2021-03-27T11:54:40Z</time>
      </trkpt>
      <trkpt lat="46.17403" lon="6.25785">
        <ele>499.4</ele>
        <time>2021-03-27T11:54:41Z</time>
      </trkpt>
      <trkpt lat="46.17403" lon="6.25785">
        <ele>499.4</ele>
        <time>2021-03-27T11:54:42Z</time>
      </trkpt>
      <trkpt lat="46.17403" lon="6.25785">
        <ele>499.6</ele>
        <time>2021-03-27T11:54:43Z</time>
      </trkpt>
      <trkpt lat="46.17403" lon="6.25785">
        <ele>499.4</ele>
        <time>2021-03-27T11:54:44Z</time>
      </trkpt>
      <trkpt lat="46.17403" lon="6.25785">
        <ele>499.6</ele>
        <time>2021-03-27T11:54:45Z</time>
      </trkpt>
      <trkpt lat="46.17403" lon="6.25785">
        <ele>499.4</ele>
        <time>2021-03-27T11:54:46Z</time>
      </trkpt>
      <trkpt lat="46.17403" lon="6.25785">
        <ele>499.6</ele>
        <time>2021-03-27T11:54:47Z</time>
      </trkpt>
      <trkpt lat="46.17403" lon="6.25785">
        <ele>499.6</ele>
        <time>2021-03-27T11:54:48Z</time>
      </trkpt>
      <trkpt lat="46.17403" lon="6.25785">
        <ele>499.4</ele>
        <time>2021-03-27T11:54:49Z</time>
      </trkpt>
      <trkpt lat="46.17403" lon="6.25785">
        <ele>499.6</ele>
        <time>2021-03-27T11:54:50Z</time>
      </trkpt>
      <trkpt lat="46.17403" lon="6.25785">
        <ele>499.6</ele>
        <time>2021-03-27T11:54:51Z</time>
      </trkpt>
      <trkpt lat="46.17403" lon="6.25785">
        <ele>499.4</ele>
        <time>2021-03-27T11:54:52Z</time>
      </trkpt>
      <trkpt lat="46.17403" lon="6.25785">
        <ele>499.6</ele>
        <time>2021-03-27T11:54:53Z</time>
      </trkpt>
      <trkpt lat="46.17403" lon="6.25785">
        <ele>499.6</ele>
        <time>2021-03-27T11:54:54Z</time>
      </trkpt>
      <trkpt lat="46.17403" lon="6.25785">
        <ele>499.6</ele>
        <time>2021-03-27T11:54:55Z</time>
      </trkpt>
      <trkpt lat="46.17403" lon="6.25785">
        <ele>499.6</ele>
        <time>2021-03-27T11:54:56Z</time>
      </trkpt>
      <trkpt lat="46.17403" lon="6.25785">
        <ele>499.6</ele>
        <time>2021-03-27T11:54:57Z</time>
      </trkpt>
      <trkpt lat="46.17403" lon="6.25785">
        <ele>499.4</ele>
        <time>2021-03-27T11:54:58Z</time>
      </trkpt>
      <trkpt lat="46.17403" lon="6.25785">
        <ele>499.6</ele>
        <time>2021-03-27T11:54:59Z</time>
      </trkpt>
      <trkpt lat="46.17403" lon="6.25785">
        <ele>499.6</ele>
        <time>2021-03-27T11:55:00Z</time>
      </trkpt>
      <trkpt lat="46.17403" lon="6.25785">
        <ele>499.4</ele>
        <time>2021-03-27T11:55:01Z</time>
      </trkpt>
      <trkpt lat="46.17403" lon="6.25785">
        <ele>499.6</ele>
        <time>2021-03-27T11:55:02Z</time>
      </trkpt>
      <trkpt lat="46.17403" lon="6.25785">
        <ele>499.4</ele>
        <time>2021-03-27T11:55:03Z</time>
      </trkpt>
      <trkpt lat="46.17403" lon="6.25785">
        <ele>499.6</ele>
        <time>2021-03-27T11:55:04Z</time>
      </trkpt>
      <trkpt lat="46.17403" lon="6.25785">
        <ele>499.6</ele>
        <time>2021-03-27T11:55:06Z</time>
      </trkpt>
      <trkpt lat="46.17403" lon="6.25785">
        <ele>499.6</ele>
        <time>2021-03-27T11:55:07Z</time>
      </trkpt>
      <trkpt lat="46.17403" lon="6.25785">
        <ele>499.4</ele>
        <time>2021-03-27T11:55:08Z</time>
      </trkpt>
      <trkpt lat="46.17403" lon="6.25785">
        <ele>499.6</ele>
        <time>2021-03-27T11:55:09Z</time>
      </trkpt>
      <trkpt lat="46.17403" lon="6.25785">
        <ele>499.6</ele>
        <time>2021-03-27T11:55:10Z</time>
      </trkpt>
      <trkpt lat="46.17403" lon="6.25785">
        <ele>499.4</ele>
        <time>2021-03-27T11:55:11Z</time>
      </trkpt>
      <trkpt lat="46.17403" lon="6.25785">
        <ele>499.6</ele>
        <time>2021-03-27T11:55:12Z</time>
      </trkpt>
      <trkpt lat="46.17403" lon="6.25785">
        <ele>499.4</ele>
        <time>2021-03-27T11:55:13Z</time>
      </trkpt>
      <trkpt lat="46.17403" lon="6.25785">
        <ele>499.6</ele>
        <time>2021-03-27T11:55:14Z</time>
      </trkpt>
      <trkpt lat="46.17403" lon="6.25785">
        <ele>499.4</ele>
        <time>2021-03-27T11:55:15Z</time>
      </trkpt>
      <trkpt lat="46.17403" lon="6.25785">
        <ele>499.6</ele>
        <time>2021-03-27T11:55:16Z</time>
      </trkpt>
      <trkpt lat="46.17403" lon="6.25785">
        <ele>499.6</ele>
        <time>2021-03-27T11:55:17Z</time>
      </trkpt>
      <trkpt lat="46.17403" lon="6.25785">
        <ele>499.4</ele>
        <time>2021-03-27T11:55:18Z</time>
      </trkpt>
      <trkpt lat="46.17403" lon="6.25785">
        <ele>499.6</ele>
        <time>2021-03-27T11:55:19Z</time>
      </trkpt>
      <trkpt lat="46.17403" lon="6.25785">
        <ele>499.4</ele>
        <time>2021-03-27T11:55:20Z</time>
      </trkpt>
      <trkpt lat="46.17403" lon="6.25785">
        <ele>499.6</ele>
        <time>2021-03-27T11:55:21Z</time>
      </trkpt>
      <trkpt lat="46.17403" lon="6.25785">
        <ele>499.6</ele>
        <time>2021-03-27T11:55:22Z</time>
      </trkpt>
      <trkpt lat="46.17403" lon="6.25785">
        <ele>499.4</ele>
        <time>2021-03-27T11:55:23Z</time>
      </trkpt>
      <trkpt lat="46.17403" lon="6.25785">
        <ele>499.4</ele>
        <time>2021-03-27T11:55:24Z</time>
      </trkpt>
      <trkpt lat="46.17403" lon="6.25785">
        <ele>499.4</ele>
        <time>2021-03-27T11:55:25Z</time>
      </trkpt>
      <trkpt lat="46.17403" lon="6.25785">
        <ele>499.4</ele>
        <time>2021-03-27T11:55:26Z</time>
      </trkpt>
      <trkpt lat="46.17403" lon="6.25785">
        <ele>499.4</ele>
        <time>2021-03-27T11:55:27Z</time>
      </trkpt>
      <trkpt lat="46.17403" lon="6.25785">
        <ele>499.4</ele>
        <time>2021-03-27T11:55:28Z</time>
      </trkpt>
      <trkpt lat="46.17403" lon="6.25785">
        <ele>499.2</ele>
        <time>2021-03-27T11:55:29Z</time>
      </trkpt>
      <trkpt lat="46.17403" lon="6.25785">
        <ele>499.2</ele>
        <time>2021-03-27T11:55:30Z</time>
      </trkpt>
      <trkpt lat="46.17403" lon="6.25785">
        <ele>499.4</ele>
        <time>2021-03-27T11:55:31Z</time>
      </trkpt>
      <trkpt lat="46.17403" lon="6.25785">
        <ele>499.4</ele>
        <time>2021-03-27T11:55:32Z</time>
      </trkpt>
      <trkpt lat="46.17403" lon="6.25785">
        <ele>499.4</ele>
        <time>2021-03-27T11:55:33Z</time>
      </trkpt>
      <trkpt lat="46.17403" lon="6.25785">
        <ele>499.4</ele>
        <time>2021-03-27T11:55:34Z</time>
      </trkpt>
      <trkpt lat="46.17403" lon="6.25785">
        <ele>499.4</ele>
        <time>2021-03-27T11:55:35Z</time>
      </trkpt>
      <trkpt lat="46.17403" lon="6.25785">
        <ele>499.4</ele>
        <time>2021-03-27T11:55:36Z</time>
      </trkpt>
      <trkpt lat="46.17403" lon="6.25785">
        <ele>499.2</ele>
        <time>2021-03-27T11:55:37Z</time>
      </trkpt>
      <trkpt lat="46.17403" lon="6.25785">
        <ele>499.4</ele>
        <time>2021-03-27T11:55:38Z</time>
      </trkpt>
      <trkpt lat="46.17403" lon="6.25785">
        <ele>499.2</ele>
        <time>2021-03-27T11:55:39Z</time>
      </trkpt>
      <trkpt lat="46.17403" lon="6.25785">
        <ele>499.4</ele>
        <time>2021-03-27T11:55:40Z</time>
      </trkpt>
      <trkpt lat="46.17403" lon="6.25785">
        <ele>499.4</ele>
        <time>2021-03-27T11:55:41Z</time>
      </trkpt>
      <trkpt lat="46.17403" lon="6.25785">
        <ele>499.4</ele>
        <time>2021-03-27T11:55:42Z</time>
      </trkpt>
      <trkpt lat="46.17403" lon="6.25785">
        <ele>499.2</ele>
        <time>2021-03-27T11:55:43Z</time>
      </trkpt>
      <trkpt lat="46.17403" lon="6.25785">
        <ele>499.4</ele>
        <time>2021-03-27T11:55:44Z</time>
      </trkpt>
      <trkpt lat="46.17403" lon="6.25785">
        <ele>499.4</ele>
        <time>2021-03-27T11:55:45Z</time>
      </trkpt>
      <trkpt lat="46.17403" lon="6.25785">
        <ele>499.2</ele>
        <time>2021-03-27T11:55:46Z</time>
      </trkpt>
      <trkpt lat="46.17403" lon="6.25785">
        <ele>499.4</ele>
        <time>2021-03-27T11:55:47Z</time>
      </trkpt>
      <trkpt lat="46.17403" lon="6.25785">
        <ele>499.4</ele>
        <time>2021-03-27T11:55:48Z</time>
      </trkpt>
      <trkpt lat="46.17403" lon="6.25785">
        <ele>499.4</ele>
        <time>2021-03-27T11:55:49Z</time>
      </trkpt>
      <trkpt lat="46.17403" lon="6.25785">
        <ele>499.4</ele>
        <time>2021-03-27T11:55:50Z</time>
      </trkpt>
      <trkpt lat="46.17403" lon="6.25785">
        <ele>499.6</ele>
        <time>2021-03-27T11:55:51Z</time>
      </trkpt>
      <trkpt lat="46.17403" lon="6.25785">
        <ele>499.4</ele>
        <time>2021-03-27T11:55:52Z</time>
      </trkpt>
      <trkpt lat="46.17403" lon="6.25785">
        <ele>499.6</ele>
        <time>2021-03-27T11:55:53Z</time>
      </trkpt>
      <trkpt lat="46.17403" lon="6.25785">
        <ele>499.6</ele>
        <time>2021-03-27T11:55:54Z</time>
      </trkpt>
      <trkpt lat="46.17403" lon="6.25785">
        <ele>499.6</ele>
        <time>2021-03-27T11:55:55Z</time>
      </trkpt>
      <trkpt lat="46.17403" lon="6.25785">
        <ele>499.4</ele>
        <time>2021-03-27T11:55:56Z</time>
      </trkpt>
      <trkpt lat="46.17403" lon="6.25785">
        <ele>499.6</ele>
        <time>2021-03-27T11:55:57Z</time>
      </trkpt>
      <trkpt lat="46.17403" lon="6.25785">
        <ele>499.6</ele>
        <time>2021-03-27T11:55:58Z</time>
      </trkpt>
      <trkpt lat="46.17403" lon="6.25785">
        <ele>499.6</ele>
        <time>2021-03-27T11:55:59Z</time>
      </trkpt>
      <trkpt lat="46.17403" lon="6.25785">
        <ele>499.6</ele>
        <time>2021-03-27T11:56:00Z</time>
      </trkpt>
      <trkpt lat="46.17403" lon="6.25785">
        <ele>499.6</ele>
        <time>2021-03-27T11:56:01Z</time>
      </trkpt>
      <trkpt lat="46.17403" lon="6.25785">
        <ele>499.6</ele>
        <time>2021-03-27T11:56:02Z</time>
      </trkpt>
      <trkpt lat="46.17403" lon="6.25785">
        <ele>499.6</ele>
        <time>2021-03-27T11:56:03Z</time>
      </trkpt>
      <trkpt lat="46.17403" lon="6.25785">
        <ele>499.6</ele>
        <time>2021-03-27T11:56:04Z</time>
      </trkpt>
      <trkpt lat="46.17403" lon="6.25785">
        <ele>499.6</ele>
        <time>2021-03-27T11:56:05Z</time>
      </trkpt>
      <trkpt lat="46.17403" lon="6.25785">
        <ele>499.6</ele>
        <time>2021-03-27T11:56:06Z</time>
      </trkpt>
      <trkpt lat="46.17403" lon="6.25785">
        <ele>499.6</ele>
        <time>2021-03-27T11:56:07Z</time>
      </trkpt>
      <trkpt lat="46.17403" lon="6.25785">
        <ele>499.6</ele>
        <time>2021-03-27T11:56:08Z</time>
      </trkpt>
      <trkpt lat="46.17403" lon="6.25785">
        <ele>499.6</ele>
        <time>2021-03-27T11:56:09Z</time>
      </trkpt>
      <trkpt lat="46.17403" lon="6.25785">
        <ele>499.4</ele>
        <time>2021-03-27T11:56:10Z</time>
      </trkpt>
      <trkpt lat="46.17403" lon="6.25785">
        <ele>499.4</ele>
        <time>2021-03-27T11:56:11Z</time>
      </trkpt>
      <trkpt lat="46.17403" lon="6.25785">
        <ele>499.4</ele>
        <time>2021-03-27T11:56:12Z</time>
      </trkpt>
      <trkpt lat="46.17403" lon="6.25785">
        <ele>499.4</ele>
        <time>2021-03-27T11:56:13Z</time>
      </trkpt>
      <trkpt lat="46.17403" lon="6.25785">
        <ele>499.4</ele>
        <time>2021-03-27T11:56:14Z</time>
      </trkpt>
      <trkpt lat="46.17403" lon="6.25785">
        <ele>499.4</ele>
        <time>2021-03-27T11:56:15Z</time>
      </trkpt>
      <trkpt lat="46.17403" lon="6.25785">
        <ele>499.4</ele>
        <time>2021-03-27T11:56:16Z</time>
      </trkpt>
      <trkpt lat="46.17403" lon="6.25785">
        <ele>499.4</ele>
        <time>2021-03-27T11:56:17Z</time>
      </trkpt>
      <trkpt lat="46.17403" lon="6.25785">
        <ele>499.4</ele>
        <time>2021-03-27T11:56:18Z</time>
      </trkpt>
      <trkpt lat="46.17403" lon="6.25785">
        <ele>499.4</ele>
        <time>2021-03-27T11:56:19Z</time>
      </trkpt>
      <trkpt lat="46.17403" lon="6.25785">
        <ele>499.4</ele>
        <time>2021-03-27T11:56:20Z</time>
      </trkpt>
      <trkpt lat="46.17403" lon="6.25785">
        <ele>499.4</ele>
        <time>2021-03-27T11:56:21Z</time>
      </trkpt>
      <trkpt lat="46.17403" lon="6.25785">
        <ele>499.4</ele>
        <time>2021-03-27T11:56:22Z</time>
      </trkpt>
      <trkpt lat="46.17403" lon="6.25785">
        <ele>499.4</ele>
        <time>2021-03-27T11:56:23Z</time>
      </trkpt>
      <trkpt lat="46.17403" lon="6.25785">
        <ele>499.4</ele>
        <time>2021-03-27T11:56:24Z</time>
      </trkpt>
      <trkpt lat="46.17403" lon="6.25785">
        <ele>499.4</ele>
        <time>2021-03-27T11:56:25Z</time>
      </trkpt>
      <trkpt lat="46.17403" lon="6.25785">
        <ele>499.2</ele>
        <time>2021-03-27T11:56:26Z</time>
      </trkpt>
      <trkpt lat="46.17403" lon="6.25785">
        <ele>499.2</ele>
        <time>2021-03-27T11:56:27Z</time>
      </trkpt>
      <trkpt lat="46.17403" lon="6.25785">
        <ele>499.2</ele>
        <time>2021-03-27T11:56:28Z</time>
      </trkpt>
      <trkpt lat="46.17403" lon="6.25785">
        <ele>499.2</ele>
        <time>2021-03-27T11:56:29Z</time>
      </trkpt>
      <trkpt lat="46.17403" lon="6.25785">
        <ele>499.2</ele>
        <time>2021-03-27T11:56:30Z</time>
      </trkpt>
      <trkpt lat="46.17403" lon="6.25785">
        <ele>499.2</ele>
        <time>2021-03-27T11:56:31Z</time>
      </trkpt>
      <trkpt lat="46.17403" lon="6.25785">
        <ele>499.2</ele>
        <time>2021-03-27T11:56:32Z</time>
      </trkpt>
      <trkpt lat="46.17403" lon="6.25785">
        <ele>499.2</ele>
        <time>2021-03-27T11:56:33Z</time>
      </trkpt>
      <trkpt lat="46.17403" lon="6.25785">
        <ele>499.4</ele>
        <time>2021-03-27T11:56:34Z</time>
      </trkpt>
      <trkpt lat="46.17403" lon="6.25785">
        <ele>499.2</ele>
        <time>2021-03-27T11:56:35Z</time>
      </trkpt>
      <trkpt lat="46.17403" lon="6.25785">
        <ele>499.4</ele>
        <time>2021-03-27T11:56:36Z</time>
      </trkpt>
      <trkpt lat="46.17403" lon="6.25785">
        <ele>499.2</ele>
        <time>2021-03-27T11:56:37Z</time>
      </trkpt>
      <trkpt lat="46.17403" lon="6.25785">
        <ele>499.2</ele>
        <time>2021-03-27T11:56:38Z</time>
      </trkpt>
      <trkpt lat="46.17403" lon="6.25785">
        <ele>499.4</ele>
        <time>2021-03-27T11:56:39Z</time>
      </trkpt>
      <trkpt lat="46.17403" lon="6.25785">
        <ele>499.2</ele>
        <time>2021-03-27T11:56:40Z</time>
      </trkpt>
      <trkpt lat="46.17403" lon="6.25785">
        <ele>499.2</ele>
        <time>2021-03-27T11:56:41Z</time>
      </trkpt>
      <trkpt lat="46.17403" lon="6.25785">
        <ele>499.4</ele>
        <time>2021-03-27T11:56:42Z</time>
      </trkpt>
      <trkpt lat="46.17403" lon="6.25785">
        <ele>499.4</ele>
        <time>2021-03-27T11:56:43Z</time>
      </trkpt>
      <trkpt lat="46.17403" lon="6.25785">
        <ele>499.4</ele>
        <time>2021-03-27T11:56:44Z</time>
      </trkpt>
      <trkpt lat="46.17403" lon="6.25785">
        <ele>499.4</ele>
        <time>2021-03-27T11:56:45Z</time>
      </trkpt>
      <trkpt lat="46.17404" lon="6.25786">
        <ele>499.4</ele>
        <time>2021-03-27T11:56:46Z</time>
      </trkpt>
      <trkpt lat="46.17404" lon="6.25786">
        <ele>499.4</ele>
        <time>2021-03-27T11:56:47Z</time>
      </trkpt>
      <trkpt lat="46.17405" lon="6.25786">
        <ele>499.4</ele>
        <time>2021-03-27T11:56:48Z</time>
      </trkpt>
      <trkpt lat="46.17405" lon="6.25786">
        <ele>499.4</ele>
        <time>2021-03-27T11:56:49Z</time>
      </trkpt>
      <trkpt lat="46.17405" lon="6.25786">
        <ele>499.4</ele>
        <time>2021-03-27T11:56:50Z</time>
      </trkpt>
      <trkpt lat="46.17405" lon="6.25786">
        <ele>499.4</ele>
        <time>2021-03-27T11:56:51Z</time>
      </trkpt>
      <trkpt lat="46.17405" lon="6.25786">
        <ele>499.4</ele>
        <time>2021-03-27T11:56:52Z</time>
      </trkpt>
      <trkpt lat="46.17405" lon="6.25786">
        <ele>499.4</ele>
        <time>2021-03-27T11:56:53Z</time>
      </trkpt>
      <trkpt lat="46.17405" lon="6.25785">
        <ele>499.4</ele>
        <time>2021-03-27T11:56:54Z</time>
      </trkpt>
      <trkpt lat="46.17405" lon="6.25785">
        <ele>499.4</ele>
        <time>2021-03-27T11:56:55Z</time>
      </trkpt>
      <trkpt lat="46.17405" lon="6.25785">
        <ele>499.4</ele>
        <time>2021-03-27T11:56:56Z</time>
      </trkpt>
      <trkpt lat="46.17405" lon="6.25785">
        <ele>499.2</ele>
        <time>2021-03-27T11:56:57Z</time>
      </trkpt>
      <trkpt lat="46.17405" lon="6.25785">
        <ele>499.2</ele>
        <time>2021-03-27T11:56:58Z</time>
      </trkpt>
      <trkpt lat="46.17405" lon="6.25785">
        <ele>499.4</ele>
        <time>2021-03-27T11:56:59Z</time>
      </trkpt>
      <trkpt lat="46.17405" lon="6.25785">
        <ele>499.4</ele>
        <time>2021-03-27T11:57:00Z</time>
      </trkpt>
      <trkpt lat="46.17405" lon="6.25785">
        <ele>499.4</ele>
        <time>2021-03-27T11:57:01Z</time>
      </trkpt>
      <trkpt lat="46.17405" lon="6.25784">
        <ele>499.4</ele>
        <time>2021-03-27T11:57:02Z</time>
      </trkpt>
      <trkpt lat="46.17405" lon="6.25784">
        <ele>499.4</ele>
        <time>2021-03-27T11:57:03Z</time>
      </trkpt>
      <trkpt lat="46.17405" lon="6.25784">
        <ele>499.4</ele>
        <time>2021-03-27T11:57:04Z</time>
      </trkpt>
      <trkpt lat="46.17405" lon="6.25784">
        <ele>499.4</ele>
        <time>2021-03-27T11:57:05Z</time>
      </trkpt>
      <trkpt lat="46.17405" lon="6.25784">
        <ele>499.4</ele>
        <time>2021-03-27T11:57:06Z</time>
      </trkpt>
      <trkpt lat="46.17405" lon="6.25784">
        <ele>499.4</ele>
        <time>2021-03-27T11:57:07Z</time>
      </trkpt>
      <trkpt lat="46.17405" lon="6.25784">
        <ele>499.4</ele>
        <time>2021-03-27T11:57:08Z</time>
      </trkpt>
      <trkpt lat="46.17405" lon="6.25783">
        <ele>499.4</ele>
        <time>2021-03-27T11:57:09Z</time>
      </trkpt>
      <trkpt lat="46.17405" lon="6.25783">
        <ele>499.4</ele>
        <time>2021-03-27T11:57:10Z</time>
      </trkpt>
      <trkpt lat="46.17404" lon="6.25783">
        <ele>499.4</ele>
        <time>2021-03-27T11:57:11Z</time>
      </trkpt>
      <trkpt lat="46.17404" lon="6.25783">
        <ele>499.4</ele>
        <time>2021-03-27T11:57:12Z</time>
      </trkpt>
      <trkpt lat="46.17404" lon="6.25783">
        <ele>499.4</ele>
        <time>2021-03-27T11:57:13Z</time>
      </trkpt>
      <trkpt lat="46.17404" lon="6.25782">
        <ele>499.4</ele>
        <time>2021-03-27T11:57:14Z</time>
      </trkpt>
      <trkpt lat="46.17404" lon="6.25782">
        <ele>499.4</ele>
        <time>2021-03-27T11:57:15Z</time>
      </trkpt>
      <trkpt lat="46.17404" lon="6.25782">
        <ele>499.4</ele>
        <time>2021-03-27T11:57:16Z</time>
      </trkpt>
      <trkpt lat="46.17404" lon="6.25782">
        <ele>499.4</ele>
        <time>2021-03-27T11:57:17Z</time>
      </trkpt>
      <trkpt lat="46.17404" lon="6.25782">
        <ele>499.4</ele>
        <time>2021-03-27T11:57:18Z</time>
      </trkpt>
      <trkpt lat="46.17404" lon="6.25782">
        <ele>499.4</ele>
        <time>2021-03-27T11:57:19Z</time>
      </trkpt>
      <trkpt lat="46.17404" lon="6.25782">
        <ele>499.4</ele>
        <time>2021-03-27T11:57:20Z</time>
      </trkpt>
      <trkpt lat="46.17404" lon="6.25782">
        <ele>499.4</ele>
        <time>2021-03-27T11:57:21Z</time>
      </trkpt>
      <trkpt lat="46.17404" lon="6.25782">
        <ele>499.4</ele>
        <time>2021-03-27T11:57:22Z</time>
      </trkpt>
      <trkpt lat="46.17404" lon="6.25782">
        <ele>499.4</ele>
        <time>2021-03-27T11:57:23Z</time>
      </trkpt>
      <trkpt lat="46.17404" lon="6.25782">
        <ele>499.4</ele>
        <time>2021-03-27T11:57:24Z</time>
      </trkpt>
      <trkpt lat="46.17404" lon="6.25782">
        <ele>499.4</ele>
        <time>2021-03-27T11:57:25Z</time>
      </trkpt>
      <trkpt lat="46.17404" lon="6.25781">
        <ele>499.4</ele>
        <time>2021-03-27T11:57:26Z</time>
      </trkpt>
      <trkpt lat="46.17404" lon="6.25781">
        <ele>499.4</ele>
        <time>2021-03-27T11:57:27Z</time>
      </trkpt>
      <trkpt lat="46.17404" lon="6.25781">
        <ele>499.4</ele>
        <time>2021-03-27T11:57:28Z</time>
      </trkpt>
      <trkpt lat="46.17404" lon="6.25781">
        <ele>499.6</ele>
        <time>2021-03-27T11:57:29Z</time>
      </trkpt>
      <trkpt lat="46.17404" lon="6.25781">
        <ele>499.6</ele>
        <time>2021-03-27T11:57:30Z</time>
      </trkpt>
      <trkpt lat="46.17404" lon="6.25781">
        <ele>499.6</ele>
        <time>2021-03-27T11:57:31Z</time>
      </trkpt>
      <trkpt lat="46.17404" lon="6.25781">
        <ele>499.6</ele>
        <time>2021-03-27T11:57:32Z</time>
      </trkpt>
      <trkpt lat="46.17404" lon="6.25781">
        <ele>499.6</ele>
        <time>2021-03-27T11:57:33Z</time>
      </trkpt>
      <trkpt lat="46.17404" lon="6.25781">
        <ele>499.6</ele>
        <time>2021-03-27T11:57:35Z</time>
      </trkpt>
      <trkpt lat="46.17404" lon="6.25781">
        <ele>499.8</ele>
        <time>2021-03-27T11:57:36Z</time>
      </trkpt>
      <trkpt lat="46.17404" lon="6.25781">
        <ele>499.8</ele>
        <time>2021-03-27T11:57:38Z</time>
      </trkpt>
      <trkpt lat="46.17404" lon="6.2578">
        <ele>499.6</ele>
        <time>2021-03-27T11:57:39Z</time>
      </trkpt>
      <trkpt lat="46.17404" lon="6.2578">
        <ele>499.6</ele>
        <time>2021-03-27T11:57:40Z</time>
      </trkpt>
      <trkpt lat="46.17405" lon="6.2578">
        <ele>499.8</ele>
        <time>2021-03-27T11:57:42Z</time>
      </trkpt>
      <trkpt lat="46.17404" lon="6.2578">
        <ele>499.6</ele>
        <time>2021-03-27T11:57:43Z</time>
      </trkpt>
      <trkpt lat="46.17405" lon="6.2578">
        <ele>499.8</ele>
        <time>2021-03-27T11:57:44Z</time>
      </trkpt>
      <trkpt lat="46.17405" lon="6.2578">
        <ele>499.6</ele>
        <time>2021-03-27T11:57:45Z</time>
      </trkpt>
      <trkpt lat="46.17405" lon="6.2578">
        <ele>499.6</ele>
        <time>2021-03-27T11:57:46Z</time>
      </trkpt>
      <trkpt lat="46.17405" lon="6.2578">
        <ele>499.8</ele>
        <time>2021-03-27T11:57:47Z</time>
      </trkpt>
      <trkpt lat="46.17405" lon="6.2578">
        <ele>499.8</ele>
        <time>2021-03-27T11:57:48Z</time>
      </trkpt>
      <trkpt lat="46.17405" lon="6.2578">
        <ele>499.8</ele>
        <time>2021-03-27T11:57:49Z</time>
      </trkpt>
      <trkpt lat="46.17405" lon="6.25781">
        <ele>499.8</ele>
        <time>2021-03-27T11:57:51Z</time>
      </trkpt>
      <trkpt lat="46.17405" lon="6.25781">
        <ele>499.6</ele>
        <time>2021-03-27T11:57:52Z</time>
      </trkpt>
      <trkpt lat="46.17405" lon="6.25781">
        <ele>499.6</ele>
        <time>2021-03-27T11:57:53Z</time>
      </trkpt>
      <trkpt lat="46.17405" lon="6.25781">
        <ele>499.6</ele>
        <time>2021-03-27T11:57:55Z</time>
      </trkpt>
      <trkpt lat="46.17405" lon="6.2578">
        <ele>499.6</ele>
        <time>2021-03-27T11:57:56Z</time>
      </trkpt>
      <trkpt lat="46.17405" lon="6.2578">
        <ele>499.8</ele>
        <time>2021-03-27T11:57:57Z</time>
      </trkpt>
      <trkpt lat="46.17405" lon="6.25779">
        <ele>499.6</ele>
        <time>2021-03-27T11:57:58Z</time>
      </trkpt>
      <trkpt lat="46.17405" lon="6.25777">
        <ele>499.6</ele>
        <time>2021-03-27T11:57:59Z</time>
      </trkpt>
      <trkpt lat="46.17405" lon="6.25775">
        <ele>499.6</ele>
        <time>2021-03-27T11:58:00Z</time>
      </trkpt>
      <trkpt lat="46.17405" lon="6.25772">
        <ele>499.6</ele>
        <time>2021-03-27T11:58:01Z</time>
      </trkpt>
      <trkpt lat="46.17407" lon="6.25768">
        <ele>499.6</ele>
        <time>2021-03-27T11:58:02Z</time>
      </trkpt>
      <trkpt lat="46.17409" lon="6.25765">
        <ele>499.6</ele>
        <time>2021-03-27T11:58:03Z</time>
      </trkpt>
      <trkpt lat="46.17412" lon="6.25766">
        <ele>499.8</ele>
        <time>2021-03-27T11:58:04Z</time>
      </trkpt>
      <trkpt lat="46.17414" lon="6.25768">
        <ele>499.6</ele>
        <time>2021-03-27T11:58:05Z</time>
      </trkpt>
      <trkpt lat="46.17415" lon="6.25772">
        <ele>499.6</ele>
        <time>2021-03-27T11:58:06Z</time>
      </trkpt>
      <trkpt lat="46.17416" lon="6.25776">
        <ele>499.6</ele>
        <time>2021-03-27T11:58:07Z</time>
      </trkpt>
      <trkpt lat="46.17418" lon="6.2578">
        <ele>499.6</ele>
        <time>2021-03-27T11:58:08Z</time>
      </trkpt>
      <trkpt lat="46.17419" lon="6.2579">
        <ele>499.6</ele>
        <time>2021-03-27T11:58:10Z</time>
      </trkpt>
      <trkpt lat="46.17419" lon="6.25796">
        <ele>499.6</ele>
        <time>2021-03-27T11:58:11Z</time>
      </trkpt>
      <trkpt lat="46.17419" lon="6.25802">
        <ele>499.6</ele>
        <time>2021-03-27T11:58:12Z</time>
      </trkpt>
      <trkpt lat="46.17418" lon="6.25808">
        <ele>499.6</ele>
        <time>2021-03-27T11:58:13Z</time>
      </trkpt>
      <trkpt lat="46.17417" lon="6.25814">
        <ele>499.6</ele>
        <time>2021-03-27T11:58:14Z</time>
      </trkpt>
      <trkpt lat="46.17416" lon="6.2582">
        <ele>499.6</ele>
        <time>2021-03-27T11:58:15Z</time>
      </trkpt>
      <trkpt lat="46.17414" lon="6.25826">
        <ele>499.4</ele>
        <time>2021-03-27T11:58:16Z</time>
      </trkpt>
      <trkpt lat="46.17411" lon="6.25832">
        <ele>499.6</ele>
        <time>2021-03-27T11:58:17Z</time>
      </trkpt>
      <trkpt lat="46.17403" lon="6.25843">
        <ele>499.6</ele>
        <time>2021-03-27T11:58:19Z</time>
      </trkpt>
      <trkpt lat="46.17399" lon="6.25848">
        <ele>499.6</ele>
        <time>2021-03-27T11:58:20Z</time>
      </trkpt>
      <trkpt lat="46.17394" lon="6.25853">
        <ele>499.6</ele>
        <time>2021-03-27T11:58:21Z</time>
      </trkpt>
      <trkpt lat="46.17383" lon="6.25866">
        <ele>499.6</ele>
        <time>2021-03-27T11:58:23Z</time>
      </trkpt>
      <trkpt lat="46.17378" lon="6.25873">
        <ele>499.6</ele>
        <time>2021-03-27T11:58:24Z</time>
      </trkpt>
      <trkpt lat="46.17372" lon="6.2588">
        <ele>499.6</ele>
        <time>2021-03-27T11:58:25Z</time>
      </trkpt>
      <trkpt lat="46.17367" lon="6.25889">
        <ele>499.6</ele>
        <time>2021-03-27T11:58:26Z</time>
      </trkpt>
      <trkpt lat="46.17362" lon="6.25898">
        <ele>499.6</ele>
        <time>2021-03-27T11:58:27Z</time>
      </trkpt>
      <trkpt lat="46.17357" lon="6.25909">
        <ele>499.4</ele>
        <time>2021-03-27T11:58:28Z</time>
      </trkpt>
      <trkpt lat="46.17353" lon="6.25919">
        <ele>499.2</ele>
        <time>2021-03-27T11:58:29Z</time>
      </trkpt>
      <trkpt lat="46.17348" lon="6.2593">
        <ele>499</ele>
        <time>2021-03-27T11:58:30Z</time>
      </trkpt>
      <trkpt lat="46.17344" lon="6.25941">
        <ele>498.8</ele>
        <time>2021-03-27T11:58:31Z</time>
      </trkpt>
      <trkpt lat="46.17336" lon="6.25962">
        <ele>497.8</ele>
        <time>2021-03-27T11:58:33Z</time>
      </trkpt>
      <trkpt lat="46.17331" lon="6.25972">
        <ele>497.8</ele>
        <time>2021-03-27T11:58:34Z</time>
      </trkpt>
      <trkpt lat="46.17326" lon="6.25982">
        <ele>497.4</ele>
        <time>2021-03-27T11:58:35Z</time>
      </trkpt>
      <trkpt lat="46.17322" lon="6.25991">
        <ele>496.8</ele>
        <time>2021-03-27T11:58:36Z</time>
      </trkpt>
      <trkpt lat="46.17317" lon="6.26001">
        <ele>496.2</ele>
        <time>2021-03-27T11:58:37Z</time>
      </trkpt>
      <trkpt lat="46.17313" lon="6.2601">
        <ele>496</ele>
        <time>2021-03-27T11:58:38Z</time>
      </trkpt>
      <trkpt lat="46.17309" lon="6.26019">
        <ele>495.6</ele>
        <time>2021-03-27T11:58:39Z</time>
      </trkpt>
      <trkpt lat="46.17305" lon="6.26028">
        <ele>495.4</ele>
        <time>2021-03-27T11:58:40Z</time>
      </trkpt>
      <trkpt lat="46.17301" lon="6.26037">
        <ele>495.2</ele>
        <time>2021-03-27T11:58:41Z</time>
      </trkpt>
      <trkpt lat="46.17297" lon="6.26046">
        <ele>495</ele>
        <time>2021-03-27T11:58:42Z</time>
      </trkpt>
      <trkpt lat="46.17293" lon="6.26054">
        <ele>495</ele>
        <time>2021-03-27T11:58:43Z</time>
      </trkpt>
      <trkpt lat="46.17288" lon="6.26061">
        <ele>495</ele>
        <time>2021-03-27T11:58:44Z</time>
      </trkpt>
      <trkpt lat="46.17283" lon="6.26068">
        <ele>495</ele>
        <time>2021-03-27T11:58:45Z</time>
      </trkpt>
      <trkpt lat="46.1728" lon="6.26074">
        <ele>495</ele>
        <time>2021-03-27T11:58:46Z</time>
      </trkpt>
      <trkpt lat="46.17277" lon="6.26081">
        <ele>495</ele>
        <time>2021-03-27T11:58:47Z</time>
      </trkpt>
      <trkpt lat="46.17274" lon="6.26088">
        <ele>495.2</ele>
        <time>2021-03-27T11:58:48Z</time>
      </trkpt>
      <trkpt lat="46.1727" lon="6.26093">
        <ele>495</ele>
        <time>2021-03-27T11:58:49Z</time>
      </trkpt>
      <trkpt lat="46.17266" lon="6.26098">
        <ele>495.2</ele>
        <time>2021-03-27T11:58:50Z</time>
      </trkpt>
      <trkpt lat="46.17263" lon="6.26103">
        <ele>495.2</ele>
        <time>2021-03-27T11:58:51Z</time>
      </trkpt>
      <trkpt lat="46.17261" lon="6.26108">
        <ele>495.2</ele>
        <time>2021-03-27T11:58:52Z</time>
      </trkpt>
      <trkpt lat="46.17259" lon="6.26114">
        <ele>495.6</ele>
        <time>2021-03-27T11:58:53Z</time>
      </trkpt>
      <trkpt lat="46.17256" lon="6.26119">
        <ele>496</ele>
        <time>2021-03-27T11:58:54Z</time>
      </trkpt>
      <trkpt lat="46.17254" lon="6.26125">
        <ele>496.2</ele>
        <time>2021-03-27T11:58:55Z</time>
      </trkpt>
      <trkpt lat="46.17252" lon="6.2613">
        <ele>496.8</ele>
        <time>2021-03-27T11:58:56Z</time>
      </trkpt>
      <trkpt lat="46.17249" lon="6.26135">
        <ele>497.2</ele>
        <time>2021-03-27T11:58:57Z</time>
      </trkpt>
      <trkpt lat="46.17246" lon="6.2614">
        <ele>497.8</ele>
        <time>2021-03-27T11:58:58Z</time>
      </trkpt>
      <trkpt lat="46.17243" lon="6.26146">
        <ele>498.4</ele>
        <time>2021-03-27T11:58:59Z</time>
      </trkpt>
      <trkpt lat="46.1724" lon="6.26151">
        <ele>499</ele>
        <time>2021-03-27T11:59:00Z</time>
      </trkpt>
      <trkpt lat="46.17237" lon="6.26157">
        <ele>499.2</ele>
        <time>2021-03-27T11:59:01Z</time>
      </trkpt>
      <trkpt lat="46.17234" lon="6.26162">
        <ele>499.4</ele>
        <time>2021-03-27T11:59:02Z</time>
      </trkpt>
      <trkpt lat="46.1723" lon="6.26168">
        <ele>500</ele>
        <time>2021-03-27T11:59:03Z</time>
      </trkpt>
      <trkpt lat="46.17227" lon="6.26175">
        <ele>500.6</ele>
        <time>2021-03-27T11:59:04Z</time>
      </trkpt>
      <trkpt lat="46.17223" lon="6.26181">
        <ele>500.8</ele>
        <time>2021-03-27T11:59:05Z</time>
      </trkpt>
      <trkpt lat="46.1722" lon="6.26187">
        <ele>501.2</ele>
        <time>2021-03-27T11:59:06Z</time>
      </trkpt>
      <trkpt lat="46.17216" lon="6.26194">
        <ele>501.6</ele>
        <time>2021-03-27T11:59:07Z</time>
      </trkpt>
      <trkpt lat="46.17213" lon="6.262">
        <ele>501.8</ele>
        <time>2021-03-27T11:59:08Z</time>
      </trkpt>
      <trkpt lat="46.17209" lon="6.26206">
        <ele>502</ele>
        <time>2021-03-27T11:59:09Z</time>
      </trkpt>
      <trkpt lat="46.17205" lon="6.26212">
        <ele>502</ele>
        <time>2021-03-27T11:59:10Z</time>
      </trkpt>
      <trkpt lat="46.17201" lon="6.26218">
        <ele>502.2</ele>
        <time>2021-03-27T11:59:11Z</time>
      </trkpt>
      <trkpt lat="46.17198" lon="6.26224">
        <ele>502.2</ele>
        <time>2021-03-27T11:59:12Z</time>
      </trkpt>
      <trkpt lat="46.17194" lon="6.26231">
        <ele>502.4</ele>
        <time>2021-03-27T11:59:13Z</time>
      </trkpt>
      <trkpt lat="46.17189" lon="6.26237">
        <ele>502.6</ele>
        <time>2021-03-27T11:59:14Z</time>
      </trkpt>
      <trkpt lat="46.17185" lon="6.26244">
        <ele>502.4</ele>
        <time>2021-03-27T11:59:15Z</time>
      </trkpt>
      <trkpt lat="46.17181" lon="6.2625">
        <ele>502.4</ele>
        <time>2021-03-27T11:59:16Z</time>
      </trkpt>
      <trkpt lat="46.17177" lon="6.26256">
        <ele>502.4</ele>
        <time>2021-03-27T11:59:17Z</time>
      </trkpt>
      <trkpt lat="46.17173" lon="6.26263">
        <ele>502.4</ele>
        <time>2021-03-27T11:59:18Z</time>
      </trkpt>
      <trkpt lat="46.17168" lon="6.2627">
        <ele>502.4</ele>
        <time>2021-03-27T11:59:19Z</time>
      </trkpt>
      <trkpt lat="46.17163" lon="6.26277">
        <ele>502.2</ele>
        <time>2021-03-27T11:59:20Z</time>
      </trkpt>
      <trkpt lat="46.17159" lon="6.26284">
        <ele>502.2</ele>
        <time>2021-03-27T11:59:21Z</time>
      </trkpt>
      <trkpt lat="46.17154" lon="6.26292">
        <ele>502.2</ele>
        <time>2021-03-27T11:59:22Z</time>
      </trkpt>
      <trkpt lat="46.17149" lon="6.26299">
        <ele>502</ele>
        <time>2021-03-27T11:59:23Z</time>
      </trkpt>
      <trkpt lat="46.17145" lon="6.26306">
        <ele>502</ele>
        <time>2021-03-27T11:59:24Z</time>
      </trkpt>
      <trkpt lat="46.1714" lon="6.26314">
        <ele>501.6</ele>
        <time>2021-03-27T11:59:25Z</time>
      </trkpt>
      <trkpt lat="46.17136" lon="6.26322">
        <ele>501.4</ele>
        <time>2021-03-27T11:59:26Z</time>
      </trkpt>
      <trkpt lat="46.17131" lon="6.2633">
        <ele>501.4</ele>
        <time>2021-03-27T11:59:27Z</time>
      </trkpt>
      <trkpt lat="46.17126" lon="6.26338">
        <ele>501.4</ele>
        <time>2021-03-27T11:59:28Z</time>
      </trkpt>
      <trkpt lat="46.17121" lon="6.26346">
        <ele>501.2</ele>
        <time>2021-03-27T11:59:29Z</time>
      </trkpt>
      <trkpt lat="46.17116" lon="6.26354">
        <ele>501.4</ele>
        <time>2021-03-27T11:59:30Z</time>
      </trkpt>
      <trkpt lat="46.17111" lon="6.26362">
        <ele>501.2</ele>
        <time>2021-03-27T11:59:31Z</time>
      </trkpt>
      <trkpt lat="46.17106" lon="6.2637">
        <ele>501.2</ele>
        <time>2021-03-27T11:59:32Z</time>
      </trkpt>
      <trkpt lat="46.17101" lon="6.26378">
        <ele>501</ele>
        <time>2021-03-27T11:59:33Z</time>
      </trkpt>
      <trkpt lat="46.17096" lon="6.26385">
        <ele>501</ele>
        <time>2021-03-27T11:59:34Z</time>
      </trkpt>
      <trkpt lat="46.17093" lon="6.26391">
        <ele>501</ele>
        <time>2021-03-27T11:59:35Z</time>
      </trkpt>
      <trkpt lat="46.1709" lon="6.26397">
        <ele>500.8</ele>
        <time>2021-03-27T11:59:36Z</time>
      </trkpt>
      <trkpt lat="46.17087" lon="6.26401">
        <ele>501</ele>
        <time>2021-03-27T11:59:37Z</time>
      </trkpt>
      <trkpt lat="46.17084" lon="6.26405">
        <ele>500.8</ele>
        <time>2021-03-27T11:59:38Z</time>
      </trkpt>
      <trkpt lat="46.17082" lon="6.26408">
        <ele>500.8</ele>
        <time>2021-03-27T11:59:39Z</time>
      </trkpt>
      <trkpt lat="46.1708" lon="6.26412">
        <ele>500.8</ele>
        <time>2021-03-27T11:59:40Z</time>
      </trkpt>
      <trkpt lat="46.17078" lon="6.26417">
        <ele>500.8</ele>
        <time>2021-03-27T11:59:41Z</time>
      </trkpt>
      <trkpt lat="46.17074" lon="6.26423">
        <ele>500.8</ele>
        <time>2021-03-27T11:59:42Z</time>
      </trkpt>
      <trkpt lat="46.17071" lon="6.2643">
        <ele>500.8</ele>
        <time>2021-03-27T11:59:43Z</time>
      </trkpt>
      <trkpt lat="46.17066" lon="6.26436">
        <ele>500.6</ele>
        <time>2021-03-27T11:59:44Z</time>
      </trkpt>
      <trkpt lat="46.17062" lon="6.26443">
        <ele>500.6</ele>
        <time>2021-03-27T11:59:45Z</time>
      </trkpt>
      <trkpt lat="46.17057" lon="6.2645">
        <ele>500.6</ele>
        <time>2021-03-27T11:59:46Z</time>
      </trkpt>
      <trkpt lat="46.17052" lon="6.26458">
        <ele>500.6</ele>
        <time>2021-03-27T11:59:47Z</time>
      </trkpt>
      <trkpt lat="46.17047" lon="6.26467">
        <ele>500.6</ele>
        <time>2021-03-27T11:59:48Z</time>
      </trkpt>
      <trkpt lat="46.17042" lon="6.26476">
        <ele>500.6</ele>
        <time>2021-03-27T11:59:49Z</time>
      </trkpt>
      <trkpt lat="46.17036" lon="6.26486">
        <ele>500.4</ele>
        <time>2021-03-27T11:59:50Z</time>
      </trkpt>
      <trkpt lat="46.1703" lon="6.26496">
        <ele>500</ele>
        <time>2021-03-27T11:59:51Z</time>
      </trkpt>
      <trkpt lat="46.17024" lon="6.26506">
        <ele>499.6</ele>
        <time>2021-03-27T11:59:52Z</time>
      </trkpt>
      <trkpt lat="46.17017" lon="6.26517">
        <ele>499.6</ele>
        <time>2021-03-27T11:59:53Z</time>
      </trkpt>
      <trkpt lat="46.17011" lon="6.26528">
        <ele>498.8</ele>
        <time>2021-03-27T11:59:54Z</time>
      </trkpt>
      <trkpt lat="46.17004" lon="6.2654">
        <ele>498.8</ele>
        <time>2021-03-27T11:59:55Z</time>
      </trkpt>
      <trkpt lat="46.16997" lon="6.26551">
        <ele>498.6</ele>
        <time>2021-03-27T11:59:56Z</time>
      </trkpt>
      <trkpt lat="46.1699" lon="6.26563">
        <ele>498</ele>
        <time>2021-03-27T11:59:57Z</time>
      </trkpt>
      <trkpt lat="46.16982" lon="6.26575">
        <ele>497.2</ele>
        <time>2021-03-27T11:59:58Z</time>
      </trkpt>
      <trkpt lat="46.16975" lon="6.26586">
        <ele>496.6</ele>
        <time>2021-03-27T11:59:59Z</time>
      </trkpt>
      <trkpt lat="46.16968" lon="6.26598">
        <ele>495.6</ele>
        <time>2021-03-27T12:00:00Z</time>
      </trkpt>
      <trkpt lat="46.16962" lon="6.26609">
        <ele>494.8</ele>
        <time>2021-03-27T12:00:01Z</time>
      </trkpt>
      <trkpt lat="46.16956" lon="6.26619">
        <ele>493.6</ele>
        <time>2021-03-27T12:00:02Z</time>
      </trkpt>
      <trkpt lat="46.16949" lon="6.2663">
        <ele>492.6</ele>
        <time>2021-03-27T12:00:03Z</time>
      </trkpt>
      <trkpt lat="46.16944" lon="6.2664">
        <ele>491</ele>
        <time>2021-03-27T12:00:04Z</time>
      </trkpt>
      <trkpt lat="46.16938" lon="6.2665">
        <ele>489.8</ele>
        <time>2021-03-27T12:00:05Z</time>
      </trkpt>
      <trkpt lat="46.16932" lon="6.26659">
        <ele>488.8</ele>
        <time>2021-03-27T12:00:06Z</time>
      </trkpt>
      <trkpt lat="46.16926" lon="6.26669">
        <ele>488.4</ele>
        <time>2021-03-27T12:00:07Z</time>
      </trkpt>
      <trkpt lat="46.16921" lon="6.26678">
        <ele>488</ele>
        <time>2021-03-27T12:00:08Z</time>
      </trkpt>
      <trkpt lat="46.16916" lon="6.26688">
        <ele>487.8</ele>
        <time>2021-03-27T12:00:09Z</time>
      </trkpt>
      <trkpt lat="46.16911" lon="6.26698">
        <ele>488</ele>
        <time>2021-03-27T12:00:10Z</time>
      </trkpt>
      <trkpt lat="46.16908" lon="6.26709">
        <ele>487.8</ele>
        <time>2021-03-27T12:00:11Z</time>
      </trkpt>
      <trkpt lat="46.16905" lon="6.26721">
        <ele>487.8</ele>
        <time>2021-03-27T12:00:12Z</time>
      </trkpt>
      <trkpt lat="46.16903" lon="6.26733">
        <ele>487.8</ele>
        <time>2021-03-27T12:00:13Z</time>
      </trkpt>
      <trkpt lat="46.16902" lon="6.26745">
        <ele>487.8</ele>
        <time>2021-03-27T12:00:14Z</time>
      </trkpt>
      <trkpt lat="46.16901" lon="6.26757">
        <ele>487.8</ele>
        <time>2021-03-27T12:00:15Z</time>
      </trkpt>
      <trkpt lat="46.16901" lon="6.26769">
        <ele>487.8</ele>
        <time>2021-03-27T12:00:16Z</time>
      </trkpt>
      <trkpt lat="46.16901" lon="6.2678">
        <ele>487.6</ele>
        <time>2021-03-27T12:00:17Z</time>
      </trkpt>
      <trkpt lat="46.16899" lon="6.26792">
        <ele>487.6</ele>
        <time>2021-03-27T12:00:18Z</time>
      </trkpt>
      <trkpt lat="46.16897" lon="6.26803">
        <ele>487.6</ele>
        <time>2021-03-27T12:00:19Z</time>
      </trkpt>
      <trkpt lat="46.16894" lon="6.26814">
        <ele>487.6</ele>
        <time>2021-03-27T12:00:20Z</time>
      </trkpt>
      <trkpt lat="46.16891" lon="6.26825">
        <ele>487.4</ele>
        <time>2021-03-27T12:00:21Z</time>
      </trkpt>
      <trkpt lat="46.16887" lon="6.26835">
        <ele>487.4</ele>
        <time>2021-03-27T12:00:22Z</time>
      </trkpt>
      <trkpt lat="46.16882" lon="6.26845">
        <ele>487</ele>
        <time>2021-03-27T12:00:23Z</time>
      </trkpt>
      <trkpt lat="46.16877" lon="6.26855">
        <ele>487.2</ele>
        <time>2021-03-27T12:00:24Z</time>
      </trkpt>
      <trkpt lat="46.16871" lon="6.26864">
        <ele>487</ele>
        <time>2021-03-27T12:00:25Z</time>
      </trkpt>
      <trkpt lat="46.16865" lon="6.26874">
        <ele>486.6</ele>
        <time>2021-03-27T12:00:26Z</time>
      </trkpt>
      <trkpt lat="46.16858" lon="6.26882">
        <ele>486.2</ele>
        <time>2021-03-27T12:00:27Z</time>
      </trkpt>
      <trkpt lat="46.1685" lon="6.2689">
        <ele>486</ele>
        <time>2021-03-27T12:00:28Z</time>
      </trkpt>
      <trkpt lat="46.16841" lon="6.26897">
        <ele>485.6</ele>
        <time>2021-03-27T12:00:29Z</time>
      </trkpt>
      <trkpt lat="46.16832" lon="6.26904">
        <ele>485.2</ele>
        <time>2021-03-27T12:00:30Z</time>
      </trkpt>
      <trkpt lat="46.16822" lon="6.2691">
        <ele>485.2</ele>
        <time>2021-03-27T12:00:31Z</time>
      </trkpt>
      <trkpt lat="46.16813" lon="6.26915">
        <ele>485.2</ele>
        <time>2021-03-27T12:00:32Z</time>
      </trkpt>
      <trkpt lat="46.16803" lon="6.26921">
        <ele>485</ele>
        <time>2021-03-27T12:00:33Z</time>
      </trkpt>
      <trkpt lat="46.16794" lon="6.26927">
        <ele>484.4</ele>
        <time>2021-03-27T12:00:34Z</time>
      </trkpt>
      <trkpt lat="46.16784" lon="6.26934">
        <ele>484</ele>
        <time>2021-03-27T12:00:35Z</time>
      </trkpt>
      <trkpt lat="46.16774" lon="6.26942">
        <ele>483.6</ele>
        <time>2021-03-27T12:00:36Z</time>
      </trkpt>
      <trkpt lat="46.16765" lon="6.2695">
        <ele>483.2</ele>
        <time>2021-03-27T12:00:37Z</time>
      </trkpt>
      <trkpt lat="46.16756" lon="6.2696">
        <ele>482.2</ele>
        <time>2021-03-27T12:00:38Z</time>
      </trkpt>
      <trkpt lat="46.16748" lon="6.26969">
        <ele>481.4</ele>
        <time>2021-03-27T12:00:39Z</time>
      </trkpt>
      <trkpt lat="46.1674" lon="6.2698">
        <ele>480.2</ele>
        <time>2021-03-27T12:00:40Z</time>
      </trkpt>
      <trkpt lat="46.16732" lon="6.26991">
        <ele>479.2</ele>
        <time>2021-03-27T12:00:41Z</time>
      </trkpt>
      <trkpt lat="46.16726" lon="6.27004">
        <ele>478.6</ele>
        <time>2021-03-27T12:00:42Z</time>
      </trkpt>
      <trkpt lat="46.16722" lon="6.27018">
        <ele>477.8</ele>
        <time>2021-03-27T12:00:43Z</time>
      </trkpt>
      <trkpt lat="46.1672" lon="6.27034">
        <ele>476.8</ele>
        <time>2021-03-27T12:00:44Z</time>
      </trkpt>
      <trkpt lat="46.16723" lon="6.2705">
        <ele>475.4</ele>
        <time>2021-03-27T12:00:45Z</time>
      </trkpt>
      <trkpt lat="46.16725" lon="6.27065">
        <ele>474.4</ele>
        <time>2021-03-27T12:00:46Z</time>
      </trkpt>
      <trkpt lat="46.16731" lon="6.27078">
        <ele>473.4</ele>
        <time>2021-03-27T12:00:47Z</time>
      </trkpt>
      <trkpt lat="46.16739" lon="6.27091">
        <ele>473</ele>
        <time>2021-03-27T12:00:48Z</time>
      </trkpt>
      <trkpt lat="46.16747" lon="6.27103">
        <ele>472.4</ele>
        <time>2021-03-27T12:00:49Z</time>
      </trkpt>
      <trkpt lat="46.16757" lon="6.27115">
        <ele>471.8</ele>
        <time>2021-03-27T12:00:50Z</time>
      </trkpt>
      <trkpt lat="46.16766" lon="6.27125">
        <ele>471.6</ele>
        <time>2021-03-27T12:00:51Z</time>
      </trkpt>
      <trkpt lat="46.16777" lon="6.27132">
        <ele>470.8</ele>
        <time>2021-03-27T12:00:52Z</time>
      </trkpt>
      <trkpt lat="46.16788" lon="6.27135">
        <ele>469.8</ele>
        <time>2021-03-27T12:00:53Z</time>
      </trkpt>
      <trkpt lat="46.16797" lon="6.27137">
        <ele>468.8</ele>
        <time>2021-03-27T12:00:54Z</time>
      </trkpt>
      <trkpt lat="46.16803" lon="6.27139">
        <ele>467.6</ele>
        <time>2021-03-27T12:00:55Z</time>
      </trkpt>
      <trkpt lat="46.16809" lon="6.2714">
        <ele>466.2</ele>
        <time>2021-03-27T12:00:56Z</time>
      </trkpt>
      <trkpt lat="46.16811" lon="6.27141">
        <ele>464.8</ele>
        <time>2021-03-27T12:00:57Z</time>
      </trkpt>
      <trkpt lat="46.16813" lon="6.2714">
        <ele>463.6</ele>
        <time>2021-03-27T12:00:58Z</time>
      </trkpt>
      <trkpt lat="46.16814" lon="6.27139">
        <ele>462.8</ele>
        <time>2021-03-27T12:00:59Z</time>
      </trkpt>
      <trkpt lat="46.16814" lon="6.27139">
        <ele>462.4</ele>
        <time>2021-03-27T12:01:00Z</time>
      </trkpt>
      <trkpt lat="46.16815" lon="6.27141">
        <ele>462.4</ele>
        <time>2021-03-27T12:01:01Z</time>
      </trkpt>
      <trkpt lat="46.16816" lon="6.27143">
        <ele>462.2</ele>
        <time>2021-03-27T12:01:02Z</time>
      </trkpt>
      <trkpt lat="46.16817" lon="6.27145">
        <ele>462.2</ele>
        <time>2021-03-27T12:01:03Z</time>
      </trkpt>
      <trkpt lat="46.16819" lon="6.27147">
        <ele>462.2</ele>
        <time>2021-03-27T12:01:04Z</time>
      </trkpt>
      <trkpt lat="46.16822" lon="6.27148">
        <ele>462.2</ele>
        <time>2021-03-27T12:01:05Z</time>
      </trkpt>
      <trkpt lat="46.16827" lon="6.27149">
        <ele>462</ele>
        <time>2021-03-27T12:01:06Z</time>
      </trkpt>
      <trkpt lat="46.16831" lon="6.2715">
        <ele>462.2</ele>
        <time>2021-03-27T12:01:07Z</time>
      </trkpt>
      <trkpt lat="46.16836" lon="6.27152">
        <ele>462</ele>
        <time>2021-03-27T12:01:08Z</time>
      </trkpt>
      <trkpt lat="46.16841" lon="6.27155">
        <ele>462</ele>
        <time>2021-03-27T12:01:09Z</time>
      </trkpt>
      <trkpt lat="46.16846" lon="6.2716">
        <ele>462</ele>
        <time>2021-03-27T12:01:10Z</time>
      </trkpt>
      <trkpt lat="46.1685" lon="6.27166">
        <ele>462.2</ele>
        <time>2021-03-27T12:01:11Z</time>
      </trkpt>
      <trkpt lat="46.16852" lon="6.27173">
        <ele>462</ele>
        <time>2021-03-27T12:01:12Z</time>
      </trkpt>
      <trkpt lat="46.16853" lon="6.27182">
        <ele>462.2</ele>
        <time>2021-03-27T12:01:13Z</time>
      </trkpt>
      <trkpt lat="46.16853" lon="6.27191">
        <ele>462</ele>
        <time>2021-03-27T12:01:14Z</time>
      </trkpt>
      <trkpt lat="46.16852" lon="6.272">
        <ele>462</ele>
        <time>2021-03-27T12:01:15Z</time>
      </trkpt>
      <trkpt lat="46.16851" lon="6.2721">
        <ele>462</ele>
        <time>2021-03-27T12:01:16Z</time>
      </trkpt>
      <trkpt lat="46.16849" lon="6.2722">
        <ele>462</ele>
        <time>2021-03-27T12:01:17Z</time>
      </trkpt>
      <trkpt lat="46.16848" lon="6.2723">
        <ele>462</ele>
        <time>2021-03-27T12:01:18Z</time>
      </trkpt>
      <trkpt lat="46.16846" lon="6.2724">
        <ele>462</ele>
        <time>2021-03-27T12:01:19Z</time>
      </trkpt>
      <trkpt lat="46.16845" lon="6.2725">
        <ele>462</ele>
        <time>2021-03-27T12:01:20Z</time>
      </trkpt>
      <trkpt lat="46.16844" lon="6.27261">
        <ele>462</ele>
        <time>2021-03-27T12:01:21Z</time>
      </trkpt>
      <trkpt lat="46.16842" lon="6.27271">
        <ele>462</ele>
        <time>2021-03-27T12:01:22Z</time>
      </trkpt>
      <trkpt lat="46.16841" lon="6.27282">
        <ele>461.8</ele>
        <time>2021-03-27T12:01:23Z</time>
      </trkpt>
      <trkpt lat="46.1684" lon="6.27292">
        <ele>462</ele>
        <time>2021-03-27T12:01:24Z</time>
      </trkpt>
      <trkpt lat="46.16838" lon="6.27302">
        <ele>461.8</ele>
        <time>2021-03-27T12:01:25Z</time>
      </trkpt>
      <trkpt lat="46.16836" lon="6.27312">
        <ele>461.8</ele>
        <time>2021-03-27T12:01:26Z</time>
      </trkpt>
      <trkpt lat="46.16833" lon="6.27323">
        <ele>461.8</ele>
        <time>2021-03-27T12:01:27Z</time>
      </trkpt>
      <trkpt lat="46.1683" lon="6.27332">
        <ele>461.6</ele>
        <time>2021-03-27T12:01:28Z</time>
      </trkpt>
      <trkpt lat="46.16826" lon="6.27341">
        <ele>461.6</ele>
        <time>2021-03-27T12:01:29Z</time>
      </trkpt>
      <trkpt lat="46.16822" lon="6.27348">
        <ele>461.6</ele>
        <time>2021-03-27T12:01:30Z</time>
      </trkpt>
      <trkpt lat="46.16817" lon="6.27354">
        <ele>461.6</ele>
        <time>2021-03-27T12:01:31Z</time>
      </trkpt>
      <trkpt lat="46.16812" lon="6.2736">
        <ele>461.6</ele>
        <time>2021-03-27T12:01:32Z</time>
      </trkpt>
      <trkpt lat="46.16807" lon="6.27364">
        <ele>461.6</ele>
        <time>2021-03-27T12:01:33Z</time>
      </trkpt>
      <trkpt lat="46.16801" lon="6.27368">
        <ele>461.6</ele>
        <time>2021-03-27T12:01:34Z</time>
      </trkpt>
      <trkpt lat="46.16795" lon="6.2737">
        <ele>461.8</ele>
        <time>2021-03-27T12:01:35Z</time>
      </trkpt>
      <trkpt lat="46.16789" lon="6.27372">
        <ele>461.8</ele>
        <time>2021-03-27T12:01:36Z</time>
      </trkpt>
      <trkpt lat="46.16784" lon="6.27373">
        <ele>461.8</ele>
        <time>2021-03-27T12:01:37Z</time>
      </trkpt>
      <trkpt lat="46.16778" lon="6.27373">
        <ele>462</ele>
        <time>2021-03-27T12:01:38Z</time>
      </trkpt>
      <trkpt lat="46.16772" lon="6.27373">
        <ele>462</ele>
        <time>2021-03-27T12:01:39Z</time>
      </trkpt>
      <trkpt lat="46.16766" lon="6.27372">
        <ele>462.4</ele>
        <time>2021-03-27T12:01:40Z</time>
      </trkpt>
      <trkpt lat="46.1676" lon="6.27371">
        <ele>462.6</ele>
        <time>2021-03-27T12:01:41Z</time>
      </trkpt>
      <trkpt lat="46.16754" lon="6.27369">
        <ele>463.4</ele>
        <time>2021-03-27T12:01:42Z</time>
      </trkpt>
      <trkpt lat="46.16748" lon="6.27368">
        <ele>463.8</ele>
        <time>2021-03-27T12:01:43Z</time>
      </trkpt>
      <trkpt lat="46.16743" lon="6.27367">
        <ele>464</ele>
        <time>2021-03-27T12:01:44Z</time>
      </trkpt>
      <trkpt lat="46.16737" lon="6.27366">
        <ele>464.6</ele>
        <time>2021-03-27T12:01:45Z</time>
      </trkpt>
      <trkpt lat="46.16731" lon="6.27364">
        <ele>464.8</ele>
        <time>2021-03-27T12:01:46Z</time>
      </trkpt>
      <trkpt lat="46.16726" lon="6.27363">
        <ele>465.2</ele>
        <time>2021-03-27T12:01:47Z</time>
      </trkpt>
      <trkpt lat="46.1672" lon="6.27362">
        <ele>465.4</ele>
        <time>2021-03-27T12:01:48Z</time>
      </trkpt>
      <trkpt lat="46.16714" lon="6.27361">
        <ele>465.8</ele>
        <time>2021-03-27T12:01:49Z</time>
      </trkpt>
      <trkpt lat="46.16709" lon="6.27359">
        <ele>466</ele>
        <time>2021-03-27T12:01:50Z</time>
      </trkpt>
      <trkpt lat="46.16704" lon="6.27358">
        <ele>466.2</ele>
        <time>2021-03-27T12:01:51Z</time>
      </trkpt>
      <trkpt lat="46.16698" lon="6.27357">
        <ele>466.2</ele>
        <time>2021-03-27T12:01:52Z</time>
      </trkpt>
      <trkpt lat="46.16693" lon="6.27356">
        <ele>466.4</ele>
        <time>2021-03-27T12:01:53Z</time>
      </trkpt>
      <trkpt lat="46.16687" lon="6.27354">
        <ele>466.4</ele>
        <time>2021-03-27T12:01:54Z</time>
      </trkpt>
      <trkpt lat="46.16682" lon="6.27353">
        <ele>466.6</ele>
        <time>2021-03-27T12:01:55Z</time>
      </trkpt>
      <trkpt lat="46.16676" lon="6.27352">
        <ele>467</ele>
        <time>2021-03-27T12:01:56Z</time>
      </trkpt>
      <trkpt lat="46.16671" lon="6.2735">
        <ele>467.6</ele>
        <time>2021-03-27T12:01:57Z</time>
      </trkpt>
      <trkpt lat="46.16666" lon="6.27349">
        <ele>468</ele>
        <time>2021-03-27T12:01:58Z</time>
      </trkpt>
      <trkpt lat="46.16661" lon="6.27348">
        <ele>468.6</ele>
        <time>2021-03-27T12:01:59Z</time>
      </trkpt>
      <trkpt lat="46.16656" lon="6.27346">
        <ele>469</ele>
        <time>2021-03-27T12:02:00Z</time>
      </trkpt>
      <trkpt lat="46.16651" lon="6.27344">
        <ele>469.2</ele>
        <time>2021-03-27T12:02:01Z</time>
      </trkpt>
      <trkpt lat="46.16646" lon="6.27343">
        <ele>469.2</ele>
        <time>2021-03-27T12:02:02Z</time>
      </trkpt>
      <trkpt lat="46.16642" lon="6.27341">
        <ele>469.6</ele>
        <time>2021-03-27T12:02:03Z</time>
      </trkpt>
      <trkpt lat="46.16637" lon="6.27338">
        <ele>469.6</ele>
        <time>2021-03-27T12:02:04Z</time>
      </trkpt>
      <trkpt lat="46.16633" lon="6.27335">
        <ele>469.8</ele>
        <time>2021-03-27T12:02:05Z</time>
      </trkpt>
      <trkpt lat="46.16628" lon="6.27332">
        <ele>470</ele>
        <time>2021-03-27T12:02:06Z</time>
      </trkpt>
      <trkpt lat="46.16623" lon="6.27329">
        <ele>470.4</ele>
        <time>2021-03-27T12:02:07Z</time>
      </trkpt>
      <trkpt lat="46.16619" lon="6.27325">
        <ele>470.4</ele>
        <time>2021-03-27T12:02:08Z</time>
      </trkpt>
      <trkpt lat="46.16615" lon="6.27322">
        <ele>470.4</ele>
        <time>2021-03-27T12:02:09Z</time>
      </trkpt>
      <trkpt lat="46.16611" lon="6.27318">
        <ele>471</ele>
        <time>2021-03-27T12:02:10Z</time>
      </trkpt>
      <trkpt lat="46.16607" lon="6.27314">
        <ele>471.2</ele>
        <time>2021-03-27T12:02:11Z</time>
      </trkpt>
      <trkpt lat="46.16603" lon="6.2731">
        <ele>471.4</ele>
        <time>2021-03-27T12:02:12Z</time>
      </trkpt>
      <trkpt lat="46.16599" lon="6.27305">
        <ele>471.8</ele>
        <time>2021-03-27T12:02:13Z</time>
      </trkpt>
      <trkpt lat="46.16596" lon="6.273">
        <ele>471.8</ele>
        <time>2021-03-27T12:02:14Z</time>
      </trkpt>
      <trkpt lat="46.16591" lon="6.27295">
        <ele>472.4</ele>
        <time>2021-03-27T12:02:15Z</time>
      </trkpt>
      <trkpt lat="46.16587" lon="6.2729">
        <ele>472.4</ele>
        <time>2021-03-27T12:02:16Z</time>
      </trkpt>
      <trkpt lat="46.16582" lon="6.27286">
        <ele>472.4</ele>
        <time>2021-03-27T12:02:17Z</time>
      </trkpt>
      <trkpt lat="46.16577" lon="6.27282">
        <ele>472.8</ele>
        <time>2021-03-27T12:02:18Z</time>
      </trkpt>
      <trkpt lat="46.16572" lon="6.27279">
        <ele>473</ele>
        <time>2021-03-27T12:02:19Z</time>
      </trkpt>
      <trkpt lat="46.16567" lon="6.27275">
        <ele>473.4</ele>
        <time>2021-03-27T12:02:20Z</time>
      </trkpt>
      <trkpt lat="46.16562" lon="6.27272">
        <ele>473.6</ele>
        <time>2021-03-27T12:02:21Z</time>
      </trkpt>
      <trkpt lat="46.16556" lon="6.2727">
        <ele>473.8</ele>
        <time>2021-03-27T12:02:22Z</time>
      </trkpt>
      <trkpt lat="46.16551" lon="6.27268">
        <ele>474.2</ele>
        <time>2021-03-27T12:02:23Z</time>
      </trkpt>
      <trkpt lat="46.16546" lon="6.27266">
        <ele>474</ele>
        <time>2021-03-27T12:02:24Z</time>
      </trkpt>
      <trkpt lat="46.16541" lon="6.27264">
        <ele>474.6</ele>
        <time>2021-03-27T12:02:25Z</time>
      </trkpt>
      <trkpt lat="46.16536" lon="6.27262">
        <ele>474.8</ele>
        <time>2021-03-27T12:02:26Z</time>
      </trkpt>
      <trkpt lat="46.16531" lon="6.2726">
        <ele>475</ele>
        <time>2021-03-27T12:02:27Z</time>
      </trkpt>
      <trkpt lat="46.16526" lon="6.27258">
        <ele>475.4</ele>
        <time>2021-03-27T12:02:28Z</time>
      </trkpt>
      <trkpt lat="46.16521" lon="6.27256">
        <ele>476</ele>
        <time>2021-03-27T12:02:29Z</time>
      </trkpt>
      <trkpt lat="46.16515" lon="6.27254">
        <ele>476.2</ele>
        <time>2021-03-27T12:02:30Z</time>
      </trkpt>
      <trkpt lat="46.1651" lon="6.27252">
        <ele>476.6</ele>
        <time>2021-03-27T12:02:31Z</time>
      </trkpt>
      <trkpt lat="46.16504" lon="6.2725">
        <ele>476.8</ele>
        <time>2021-03-27T12:02:32Z</time>
      </trkpt>
      <trkpt lat="46.16499" lon="6.27248">
        <ele>477</ele>
        <time>2021-03-27T12:02:33Z</time>
      </trkpt>
      <trkpt lat="46.16494" lon="6.27246">
        <ele>477</ele>
        <time>2021-03-27T12:02:34Z</time>
      </trkpt>
      <trkpt lat="46.16488" lon="6.27244">
        <ele>477.2</ele>
        <time>2021-03-27T12:02:35Z</time>
      </trkpt>
      <trkpt lat="46.16483" lon="6.27242">
        <ele>477.4</ele>
        <time>2021-03-27T12:02:36Z</time>
      </trkpt>
      <trkpt lat="46.16478" lon="6.2724">
        <ele>477.4</ele>
        <time>2021-03-27T12:02:37Z</time>
      </trkpt>
      <trkpt lat="46.16473" lon="6.27239">
        <ele>477.8</ele>
        <time>2021-03-27T12:02:38Z</time>
      </trkpt>
      <trkpt lat="46.16468" lon="6.27237">
        <ele>478</ele>
        <time>2021-03-27T12:02:39Z</time>
      </trkpt>
      <trkpt lat="46.16463" lon="6.27235">
        <ele>478.2</ele>
        <time>2021-03-27T12:02:40Z</time>
      </trkpt>
      <trkpt lat="46.16458" lon="6.27233">
        <ele>478.2</ele>
        <time>2021-03-27T12:02:41Z</time>
      </trkpt>
      <trkpt lat="46.16453" lon="6.27232">
        <ele>478.4</ele>
        <time>2021-03-27T12:02:42Z</time>
      </trkpt>
      <trkpt lat="46.16449" lon="6.2723">
        <ele>478.4</ele>
        <time>2021-03-27T12:02:43Z</time>
      </trkpt>
      <trkpt lat="46.16444" lon="6.27228">
        <ele>478.8</ele>
        <time>2021-03-27T12:02:44Z</time>
      </trkpt>
      <trkpt lat="46.1644" lon="6.27227">
        <ele>479.2</ele>
        <time>2021-03-27T12:02:45Z</time>
      </trkpt>
      <trkpt lat="46.16435" lon="6.27226">
        <ele>479.2</ele>
        <time>2021-03-27T12:02:46Z</time>
      </trkpt>
      <trkpt lat="46.1643" lon="6.27225">
        <ele>479.4</ele>
        <time>2021-03-27T12:02:47Z</time>
      </trkpt>
      <trkpt lat="46.16425" lon="6.27224">
        <ele>479.6</ele>
        <time>2021-03-27T12:02:48Z</time>
      </trkpt>
      <trkpt lat="46.1642" lon="6.27224">
        <ele>480</ele>
        <time>2021-03-27T12:02:49Z</time>
      </trkpt>
      <trkpt lat="46.16415" lon="6.27224">
        <ele>480.6</ele>
        <time>2021-03-27T12:02:50Z</time>
      </trkpt>
      <trkpt lat="46.1641" lon="6.27225">
        <ele>480.8</ele>
        <time>2021-03-27T12:02:51Z</time>
      </trkpt>
      <trkpt lat="46.16405" lon="6.27226">
        <ele>481</ele>
        <time>2021-03-27T12:02:52Z</time>
      </trkpt>
      <trkpt lat="46.164" lon="6.27227">
        <ele>481</ele>
        <time>2021-03-27T12:02:53Z</time>
      </trkpt>
      <trkpt lat="46.16396" lon="6.27229">
        <ele>481.2</ele>
        <time>2021-03-27T12:02:54Z</time>
      </trkpt>
      <trkpt lat="46.16391" lon="6.27232">
        <ele>481.2</ele>
        <time>2021-03-27T12:02:55Z</time>
      </trkpt>
      <trkpt lat="46.16387" lon="6.27234">
        <ele>481.4</ele>
        <time>2021-03-27T12:02:56Z</time>
      </trkpt>
      <trkpt lat="46.16382" lon="6.27237">
        <ele>481.4</ele>
        <time>2021-03-27T12:02:57Z</time>
      </trkpt>
      <trkpt lat="46.16378" lon="6.27241">
        <ele>481.6</ele>
        <time>2021-03-27T12:02:58Z</time>
      </trkpt>
      <trkpt lat="46.16374" lon="6.27244">
        <ele>481.6</ele>
        <time>2021-03-27T12:02:59Z</time>
      </trkpt>
      <trkpt lat="46.1637" lon="6.27247">
        <ele>481.8</ele>
        <time>2021-03-27T12:03:00Z</time>
      </trkpt>
      <trkpt lat="46.16366" lon="6.27251">
        <ele>482</ele>
        <time>2021-03-27T12:03:01Z</time>
      </trkpt>
      <trkpt lat="46.16362" lon="6.27256">
        <ele>482.2</ele>
        <time>2021-03-27T12:03:02Z</time>
      </trkpt>
      <trkpt lat="46.16359" lon="6.27261">
        <ele>482.2</ele>
        <time>2021-03-27T12:03:03Z</time>
      </trkpt>
      <trkpt lat="46.16355" lon="6.27266">
        <ele>482.6</ele>
        <time>2021-03-27T12:03:04Z</time>
      </trkpt>
      <trkpt lat="46.16352" lon="6.27271">
        <ele>483</ele>
        <time>2021-03-27T12:03:05Z</time>
      </trkpt>
      <trkpt lat="46.16349" lon="6.27277">
        <ele>483.4</ele>
        <time>2021-03-27T12:03:06Z</time>
      </trkpt>
      <trkpt lat="46.16346" lon="6.27283">
        <ele>483.4</ele>
        <time>2021-03-27T12:03:07Z</time>
      </trkpt>
      <trkpt lat="46.16343" lon="6.2729">
        <ele>483.6</ele>
        <time>2021-03-27T12:03:08Z</time>
      </trkpt>
      <trkpt lat="46.1634" lon="6.27296">
        <ele>483.8</ele>
        <time>2021-03-27T12:03:09Z</time>
      </trkpt>
      <trkpt lat="46.16338" lon="6.27303">
        <ele>483.8</ele>
        <time>2021-03-27T12:03:10Z</time>
      </trkpt>
      <trkpt lat="46.16335" lon="6.2731">
        <ele>483.8</ele>
        <time>2021-03-27T12:03:11Z</time>
      </trkpt>
      <trkpt lat="46.16332" lon="6.27317">
        <ele>484</ele>
        <time>2021-03-27T12:03:12Z</time>
      </trkpt>
      <trkpt lat="46.1633" lon="6.27325">
        <ele>484.2</ele>
        <time>2021-03-27T12:03:13Z</time>
      </trkpt>
      <trkpt lat="46.16328" lon="6.27332">
        <ele>484.6</ele>
        <time>2021-03-27T12:03:14Z</time>
      </trkpt>
      <trkpt lat="46.16326" lon="6.27339">
        <ele>484.6</ele>
        <time>2021-03-27T12:03:15Z</time>
      </trkpt>
      <trkpt lat="46.16323" lon="6.27346">
        <ele>485</ele>
        <time>2021-03-27T12:03:16Z</time>
      </trkpt>
      <trkpt lat="46.1632" lon="6.27354">
        <ele>484.8</ele>
        <time>2021-03-27T12:03:17Z</time>
      </trkpt>
      <trkpt lat="46.16317" lon="6.27361">
        <ele>484.8</ele>
        <time>2021-03-27T12:03:18Z</time>
      </trkpt>
      <trkpt lat="46.16314" lon="6.27369">
        <ele>485</ele>
        <time>2021-03-27T12:03:19Z</time>
      </trkpt>
      <trkpt lat="46.16311" lon="6.27377">
        <ele>485</ele>
        <time>2021-03-27T12:03:20Z</time>
      </trkpt>
      <trkpt lat="46.16308" lon="6.27386">
        <ele>485.2</ele>
        <time>2021-03-27T12:03:21Z</time>
      </trkpt>
      <trkpt lat="46.16305" lon="6.27394">
        <ele>485.2</ele>
        <time>2021-03-27T12:03:22Z</time>
      </trkpt>
      <trkpt lat="46.16302" lon="6.27402">
        <ele>485.2</ele>
        <time>2021-03-27T12:03:23Z</time>
      </trkpt>
      <trkpt lat="46.16299" lon="6.2741">
        <ele>485.2</ele>
        <time>2021-03-27T12:03:24Z</time>
      </trkpt>
      <trkpt lat="46.16296" lon="6.27418">
        <ele>485.2</ele>
        <time>2021-03-27T12:03:25Z</time>
      </trkpt>
      <trkpt lat="46.16292" lon="6.27426">
        <ele>485.2</ele>
        <time>2021-03-27T12:03:26Z</time>
      </trkpt>
      <trkpt lat="46.16289" lon="6.27434">
        <ele>485.2</ele>
        <time>2021-03-27T12:03:27Z</time>
      </trkpt>
      <trkpt lat="46.16286" lon="6.27443">
        <ele>485</ele>
        <time>2021-03-27T12:03:28Z</time>
      </trkpt>
      <trkpt lat="46.16283" lon="6.27451">
        <ele>485</ele>
        <time>2021-03-27T12:03:29Z</time>
      </trkpt>
      <trkpt lat="46.1628" lon="6.27459">
        <ele>485</ele>
        <time>2021-03-27T12:03:30Z</time>
      </trkpt>
      <trkpt lat="46.16277" lon="6.27467">
        <ele>485</ele>
        <time>2021-03-27T12:03:31Z</time>
      </trkpt>
      <trkpt lat="46.16274" lon="6.27475">
        <ele>485</ele>
        <time>2021-03-27T12:03:32Z</time>
      </trkpt>
      <trkpt lat="46.1627" lon="6.27483">
        <ele>485</ele>
        <time>2021-03-27T12:03:33Z</time>
      </trkpt>
      <trkpt lat="46.16267" lon="6.27491">
        <ele>485</ele>
        <time>2021-03-27T12:03:34Z</time>
      </trkpt>
      <trkpt lat="46.16264" lon="6.27499">
        <ele>484.8</ele>
        <time>2021-03-27T12:03:35Z</time>
      </trkpt>
      <trkpt lat="46.16261" lon="6.27508">
        <ele>484.8</ele>
        <time>2021-03-27T12:03:36Z</time>
      </trkpt>
      <trkpt lat="46.16258" lon="6.27516">
        <ele>484.8</ele>
        <time>2021-03-27T12:03:37Z</time>
      </trkpt>
      <trkpt lat="46.16255" lon="6.27524">
        <ele>484.8</ele>
        <time>2021-03-27T12:03:38Z</time>
      </trkpt>
      <trkpt lat="46.16251" lon="6.27533">
        <ele>484.8</ele>
        <time>2021-03-27T12:03:39Z</time>
      </trkpt>
      <trkpt lat="46.16248" lon="6.27541">
        <ele>484.8</ele>
        <time>2021-03-27T12:03:40Z</time>
      </trkpt>
      <trkpt lat="46.16245" lon="6.2755">
        <ele>484.8</ele>
        <time>2021-03-27T12:03:41Z</time>
      </trkpt>
      <trkpt lat="46.16242" lon="6.27558">
        <ele>484.8</ele>
        <time>2021-03-27T12:03:42Z</time>
      </trkpt>
      <trkpt lat="46.16239" lon="6.27566">
        <ele>484.8</ele>
        <time>2021-03-27T12:03:43Z</time>
      </trkpt>
      <trkpt lat="46.16235" lon="6.27574">
        <ele>485</ele>
        <time>2021-03-27T12:03:44Z</time>
      </trkpt>
      <trkpt lat="46.16231" lon="6.27582">
        <ele>484.8</ele>
        <time>2021-03-27T12:03:45Z</time>
      </trkpt>
      <trkpt lat="46.16227" lon="6.27588">
        <ele>485</ele>
        <time>2021-03-27T12:03:46Z</time>
      </trkpt>
      <trkpt lat="46.16223" lon="6.27593">
        <ele>484.8</ele>
        <time>2021-03-27T12:03:47Z</time>
      </trkpt>
      <trkpt lat="46.16218" lon="6.27597">
        <ele>484.8</ele>
        <time>2021-03-27T12:03:48Z</time>
      </trkpt>
      <trkpt lat="46.16214" lon="6.27602">
        <ele>484.8</ele>
        <time>2021-03-27T12:03:49Z</time>
      </trkpt>
      <trkpt lat="46.1621" lon="6.27607">
        <ele>484.6</ele>
        <time>2021-03-27T12:03:50Z</time>
      </trkpt>
      <trkpt lat="46.16206" lon="6.27614">
        <ele>484.8</ele>
        <time>2021-03-27T12:03:51Z</time>
      </trkpt>
      <trkpt lat="46.16205" lon="6.27622">
        <ele>484.6</ele>
        <time>2021-03-27T12:03:52Z</time>
      </trkpt>
      <trkpt lat="46.16204" lon="6.27631">
        <ele>484.8</ele>
        <time>2021-03-27T12:03:53Z</time>
      </trkpt>
      <trkpt lat="46.16204" lon="6.27639">
        <ele>484.6</ele>
        <time>2021-03-27T12:03:54Z</time>
      </trkpt>
      <trkpt lat="46.16203" lon="6.27648">
        <ele>484.4</ele>
        <time>2021-03-27T12:03:55Z</time>
      </trkpt>
      <trkpt lat="46.16201" lon="6.27657">
        <ele>484</ele>
        <time>2021-03-27T12:03:56Z</time>
      </trkpt>
      <trkpt lat="46.16198" lon="6.27666">
        <ele>483.8</ele>
        <time>2021-03-27T12:03:57Z</time>
      </trkpt>
      <trkpt lat="46.16196" lon="6.27674">
        <ele>483.6</ele>
        <time>2021-03-27T12:03:58Z</time>
      </trkpt>
      <trkpt lat="46.16193" lon="6.27683">
        <ele>483.4</ele>
        <time>2021-03-27T12:03:59Z</time>
      </trkpt>
      <trkpt lat="46.1619" lon="6.27692">
        <ele>483.4</ele>
        <time>2021-03-27T12:04:00Z</time>
      </trkpt>
      <trkpt lat="46.16186" lon="6.27701">
        <ele>483.2</ele>
        <time>2021-03-27T12:04:01Z</time>
      </trkpt>
      <trkpt lat="46.16183" lon="6.2771">
        <ele>483.2</ele>
        <time>2021-03-27T12:04:02Z</time>
      </trkpt>
      <trkpt lat="46.1618" lon="6.27719">
        <ele>482.8</ele>
        <time>2021-03-27T12:04:03Z</time>
      </trkpt>
      <trkpt lat="46.16177" lon="6.27728">
        <ele>482.8</ele>
        <time>2021-03-27T12:04:04Z</time>
      </trkpt>
      <trkpt lat="46.16173" lon="6.27737">
        <ele>482.6</ele>
        <time>2021-03-27T12:04:05Z</time>
      </trkpt>
      <trkpt lat="46.1617" lon="6.27745">
        <ele>482.8</ele>
        <time>2021-03-27T12:04:06Z</time>
      </trkpt>
      <trkpt lat="46.16166" lon="6.27754">
        <ele>482.6</ele>
        <time>2021-03-27T12:04:07Z</time>
      </trkpt>
      <trkpt lat="46.16163" lon="6.27763">
        <ele>482.4</ele>
        <time>2021-03-27T12:04:08Z</time>
      </trkpt>
      <trkpt lat="46.1616" lon="6.27772">
        <ele>482.6</ele>
        <time>2021-03-27T12:04:09Z</time>
      </trkpt>
      <trkpt lat="46.16156" lon="6.27781">
        <ele>482.4</ele>
        <time>2021-03-27T12:04:10Z</time>
      </trkpt>
      <trkpt lat="46.16153" lon="6.2779">
        <ele>482.2</ele>
        <time>2021-03-27T12:04:11Z</time>
      </trkpt>
      <trkpt lat="46.1615" lon="6.27799">
        <ele>482.2</ele>
        <time>2021-03-27T12:04:12Z</time>
      </trkpt>
      <trkpt lat="46.16146" lon="6.27808">
        <ele>482.2</ele>
        <time>2021-03-27T12:04:13Z</time>
      </trkpt>
      <trkpt lat="46.16143" lon="6.27817">
        <ele>482</ele>
        <time>2021-03-27T12:04:14Z</time>
      </trkpt>
      <trkpt lat="46.1614" lon="6.27827">
        <ele>482</ele>
        <time>2021-03-27T12:04:15Z</time>
      </trkpt>
      <trkpt lat="46.16136" lon="6.27836">
        <ele>482</ele>
        <time>2021-03-27T12:04:16Z</time>
      </trkpt>
      <trkpt lat="46.16133" lon="6.27845">
        <ele>481.8</ele>
        <time>2021-03-27T12:04:17Z</time>
      </trkpt>
      <trkpt lat="46.1613" lon="6.27854">
        <ele>481.8</ele>
        <time>2021-03-27T12:04:18Z</time>
      </trkpt>
      <trkpt lat="46.16126" lon="6.27864">
        <ele>481.6</ele>
        <time>2021-03-27T12:04:19Z</time>
      </trkpt>
      <trkpt lat="46.16123" lon="6.27873">
        <ele>481.6</ele>
        <time>2021-03-27T12:04:20Z</time>
      </trkpt>
      <trkpt lat="46.16119" lon="6.27882">
        <ele>481.4</ele>
        <time>2021-03-27T12:04:21Z</time>
      </trkpt>
      <trkpt lat="46.16116" lon="6.27891">
        <ele>481.2</ele>
        <time>2021-03-27T12:04:22Z</time>
      </trkpt>
      <trkpt lat="46.16112" lon="6.279">
        <ele>481.2</ele>
        <time>2021-03-27T12:04:23Z</time>
      </trkpt>
      <trkpt lat="46.16109" lon="6.2791">
        <ele>481.2</ele>
        <time>2021-03-27T12:04:24Z</time>
      </trkpt>
      <trkpt lat="46.16105" lon="6.27919">
        <ele>481</ele>
        <time>2021-03-27T12:04:25Z</time>
      </trkpt>
      <trkpt lat="46.16102" lon="6.27928">
        <ele>481</ele>
        <time>2021-03-27T12:04:26Z</time>
      </trkpt>
      <trkpt lat="46.16098" lon="6.27937">
        <ele>480.6</ele>
        <time>2021-03-27T12:04:27Z</time>
      </trkpt>
      <trkpt lat="46.16095" lon="6.27947">
        <ele>480.6</ele>
        <time>2021-03-27T12:04:28Z</time>
      </trkpt>
      <trkpt lat="46.16091" lon="6.27956">
        <ele>480.6</ele>
        <time>2021-03-27T12:04:29Z</time>
      </trkpt>
      <trkpt lat="46.16088" lon="6.27965">
        <ele>480.6</ele>
        <time>2021-03-27T12:04:30Z</time>
      </trkpt>
      <trkpt lat="46.16084" lon="6.27975">
        <ele>480.4</ele>
        <time>2021-03-27T12:04:31Z</time>
      </trkpt>
      <trkpt lat="46.16081" lon="6.27984">
        <ele>480.2</ele>
        <time>2021-03-27T12:04:32Z</time>
      </trkpt>
      <trkpt lat="46.16077" lon="6.27993">
        <ele>480.2</ele>
        <time>2021-03-27T12:04:33Z</time>
      </trkpt>
      <trkpt lat="46.16074" lon="6.28002">
        <ele>480.2</ele>
        <time>2021-03-27T12:04:34Z</time>
      </trkpt>
      <trkpt lat="46.1607" lon="6.28011">
        <ele>480.2</ele>
        <time>2021-03-27T12:04:35Z</time>
      </trkpt>
      <trkpt lat="46.16066" lon="6.2802">
        <ele>480.2</ele>
        <time>2021-03-27T12:04:36Z</time>
      </trkpt>
      <trkpt lat="46.16063" lon="6.28029">
        <ele>480</ele>
        <time>2021-03-27T12:04:37Z</time>
      </trkpt>
      <trkpt lat="46.16059" lon="6.28038">
        <ele>480.2</ele>
        <time>2021-03-27T12:04:38Z</time>
      </trkpt>
      <trkpt lat="46.16056" lon="6.28047">
        <ele>480.2</ele>
        <time>2021-03-27T12:04:39Z</time>
      </trkpt>
      <trkpt lat="46.16052" lon="6.28057">
        <ele>480.2</ele>
        <time>2021-03-27T12:04:40Z</time>
      </trkpt>
      <trkpt lat="46.16048" lon="6.28066">
        <ele>480.2</ele>
        <time>2021-03-27T12:04:41Z</time>
      </trkpt>
      <trkpt lat="46.16045" lon="6.28075">
        <ele>480.2</ele>
        <time>2021-03-27T12:04:42Z</time>
      </trkpt>
      <trkpt lat="46.16041" lon="6.28085">
        <ele>480.4</ele>
        <time>2021-03-27T12:04:43Z</time>
      </trkpt>
      <trkpt lat="46.16038" lon="6.28094">
        <ele>480.2</ele>
        <time>2021-03-27T12:04:44Z</time>
      </trkpt>
      <trkpt lat="46.16034" lon="6.28103">
        <ele>480.4</ele>
        <time>2021-03-27T12:04:45Z</time>
      </trkpt>
      <trkpt lat="46.16031" lon="6.28112">
        <ele>480.2</ele>
        <time>2021-03-27T12:04:46Z</time>
      </trkpt>
      <trkpt lat="46.16027" lon="6.28122">
        <ele>480.4</ele>
        <time>2021-03-27T12:04:47Z</time>
      </trkpt>
      <trkpt lat="46.16024" lon="6.28131">
        <ele>480.4</ele>
        <time>2021-03-27T12:04:48Z</time>
      </trkpt>
      <trkpt lat="46.1602" lon="6.28141">
        <ele>480.4</ele>
        <time>2021-03-27T12:04:49Z</time>
      </trkpt>
      <trkpt lat="46.16016" lon="6.2815">
        <ele>480.4</ele>
        <time>2021-03-27T12:04:50Z</time>
      </trkpt>
      <trkpt lat="46.16013" lon="6.2816">
        <ele>480.6</ele>
        <time>2021-03-27T12:04:51Z</time>
      </trkpt>
      <trkpt lat="46.16009" lon="6.2817">
        <ele>480.6</ele>
        <time>2021-03-27T12:04:52Z</time>
      </trkpt>
      <trkpt lat="46.16006" lon="6.28179">
        <ele>480.8</ele>
        <time>2021-03-27T12:04:53Z</time>
      </trkpt>
      <trkpt lat="46.16002" lon="6.28189">
        <ele>480.8</ele>
        <time>2021-03-27T12:04:54Z</time>
      </trkpt>
      <trkpt lat="46.15998" lon="6.28199">
        <ele>481</ele>
        <time>2021-03-27T12:04:55Z</time>
      </trkpt>
      <trkpt lat="46.15993" lon="6.28208">
        <ele>481</ele>
        <time>2021-03-27T12:04:56Z</time>
      </trkpt>
      <trkpt lat="46.15989" lon="6.28218">
        <ele>481</ele>
        <time>2021-03-27T12:04:57Z</time>
      </trkpt>
      <trkpt lat="46.15985" lon="6.28228">
        <ele>481</ele>
        <time>2021-03-27T12:04:58Z</time>
      </trkpt>
      <trkpt lat="46.1598" lon="6.28237">
        <ele>481.2</ele>
        <time>2021-03-27T12:04:59Z</time>
      </trkpt>
      <trkpt lat="46.15975" lon="6.28247">
        <ele>481</ele>
        <time>2021-03-27T12:05:00Z</time>
      </trkpt>
      <trkpt lat="46.15969" lon="6.28256">
        <ele>481.2</ele>
        <time>2021-03-27T12:05:01Z</time>
      </trkpt>
      <trkpt lat="46.15964" lon="6.28265">
        <ele>481.2</ele>
        <time>2021-03-27T12:05:02Z</time>
      </trkpt>
      <trkpt lat="46.15959" lon="6.28273">
        <ele>481.4</ele>
        <time>2021-03-27T12:05:03Z</time>
      </trkpt>
      <trkpt lat="46.15955" lon="6.28282">
        <ele>481.2</ele>
        <time>2021-03-27T12:05:04Z</time>
      </trkpt>
      <trkpt lat="46.1595" lon="6.28291">
        <ele>481.2</ele>
        <time>2021-03-27T12:05:05Z</time>
      </trkpt>
      <trkpt lat="46.15946" lon="6.283">
        <ele>481.2</ele>
        <time>2021-03-27T12:05:06Z</time>
      </trkpt>
      <trkpt lat="46.15941" lon="6.28309">
        <ele>481.4</ele>
        <time>2021-03-27T12:05:07Z</time>
      </trkpt>
      <trkpt lat="46.15936" lon="6.28317">
        <ele>481.2</ele>
        <time>2021-03-27T12:05:08Z</time>
      </trkpt>
      <trkpt lat="46.15931" lon="6.28327">
        <ele>481.2</ele>
        <time>2021-03-27T12:05:09Z</time>
      </trkpt>
      <trkpt lat="46.15926" lon="6.28336">
        <ele>481.2</ele>
        <time>2021-03-27T12:05:10Z</time>
      </trkpt>
      <trkpt lat="46.15921" lon="6.28345">
        <ele>481</ele>
        <time>2021-03-27T12:05:11Z</time>
      </trkpt>
      <trkpt lat="46.15916" lon="6.28354">
        <ele>480.8</ele>
        <time>2021-03-27T12:05:12Z</time>
      </trkpt>
      <trkpt lat="46.15911" lon="6.28363">
        <ele>480.8</ele>
        <time>2021-03-27T12:05:13Z</time>
      </trkpt>
      <trkpt lat="46.15907" lon="6.28372">
        <ele>480.6</ele>
        <time>2021-03-27T12:05:14Z</time>
      </trkpt>
      <trkpt lat="46.15902" lon="6.28381">
        <ele>480.4</ele>
        <time>2021-03-27T12:05:15Z</time>
      </trkpt>
      <trkpt lat="46.15898" lon="6.2839">
        <ele>480.2</ele>
        <time>2021-03-27T12:05:16Z</time>
      </trkpt>
      <trkpt lat="46.15893" lon="6.28399">
        <ele>480</ele>
        <time>2021-03-27T12:05:17Z</time>
      </trkpt>
      <trkpt lat="46.15889" lon="6.28409">
        <ele>479.8</ele>
        <time>2021-03-27T12:05:18Z</time>
      </trkpt>
      <trkpt lat="46.15885" lon="6.28419">
        <ele>479.6</ele>
        <time>2021-03-27T12:05:19Z</time>
      </trkpt>
      <trkpt lat="46.15882" lon="6.2843">
        <ele>479.6</ele>
        <time>2021-03-27T12:05:20Z</time>
      </trkpt>
      <trkpt lat="46.15878" lon="6.28441">
        <ele>479.4</ele>
        <time>2021-03-27T12:05:21Z</time>
      </trkpt>
      <trkpt lat="46.15875" lon="6.28452">
        <ele>479.2</ele>
        <time>2021-03-27T12:05:22Z</time>
      </trkpt>
      <trkpt lat="46.15872" lon="6.28464">
        <ele>479</ele>
        <time>2021-03-27T12:05:23Z</time>
      </trkpt>
      <trkpt lat="46.15869" lon="6.28476">
        <ele>478.6</ele>
        <time>2021-03-27T12:05:24Z</time>
      </trkpt>
      <trkpt lat="46.15866" lon="6.28488">
        <ele>478.6</ele>
        <time>2021-03-27T12:05:25Z</time>
      </trkpt>
      <trkpt lat="46.15863" lon="6.285">
        <ele>478.2</ele>
        <time>2021-03-27T12:05:26Z</time>
      </trkpt>
      <trkpt lat="46.15861" lon="6.28512">
        <ele>478</ele>
        <time>2021-03-27T12:05:27Z</time>
      </trkpt>
      <trkpt lat="46.15858" lon="6.28524">
        <ele>477.8</ele>
        <time>2021-03-27T12:05:28Z</time>
      </trkpt>
      <trkpt lat="46.15856" lon="6.28537">
        <ele>478</ele>
        <time>2021-03-27T12:05:29Z</time>
      </trkpt>
      <trkpt lat="46.15853" lon="6.28549">
        <ele>477.8</ele>
        <time>2021-03-27T12:05:30Z</time>
      </trkpt>
      <trkpt lat="46.1585" lon="6.28562">
        <ele>477.8</ele>
        <time>2021-03-27T12:05:31Z</time>
      </trkpt>
      <trkpt lat="46.15848" lon="6.28574">
        <ele>477.8</ele>
        <time>2021-03-27T12:05:32Z</time>
      </trkpt>
      <trkpt lat="46.15845" lon="6.28587">
        <ele>477.6</ele>
        <time>2021-03-27T12:05:33Z</time>
      </trkpt>
      <trkpt lat="46.15843" lon="6.286">
        <ele>477.6</ele>
        <time>2021-03-27T12:05:34Z</time>
      </trkpt>
      <trkpt lat="46.1584" lon="6.28612">
        <ele>477.4</ele>
        <time>2021-03-27T12:05:35Z</time>
      </trkpt>
      <trkpt lat="46.15837" lon="6.28626">
        <ele>477.4</ele>
        <time>2021-03-27T12:05:36Z</time>
      </trkpt>
      <trkpt lat="46.15834" lon="6.28639">
        <ele>477.4</ele>
        <time>2021-03-27T12:05:37Z</time>
      </trkpt>
      <trkpt lat="46.15831" lon="6.28652">
        <ele>477</ele>
        <time>2021-03-27T12:05:38Z</time>
      </trkpt>
      <trkpt lat="46.15828" lon="6.28665">
        <ele>476.2</ele>
        <time>2021-03-27T12:05:39Z</time>
      </trkpt>
      <trkpt lat="46.15825" lon="6.28679">
        <ele>475.6</ele>
        <time>2021-03-27T12:05:40Z</time>
      </trkpt>
      <trkpt lat="46.15822" lon="6.28692">
        <ele>475.4</ele>
        <time>2021-03-27T12:05:41Z</time>
      </trkpt>
      <trkpt lat="46.15819" lon="6.28705">
        <ele>475.2</ele>
        <time>2021-03-27T12:05:42Z</time>
      </trkpt>
      <trkpt lat="46.15816" lon="6.28718">
        <ele>475</ele>
        <time>2021-03-27T12:05:43Z</time>
      </trkpt>
      <trkpt lat="46.15813" lon="6.28731">
        <ele>474.8</ele>
        <time>2021-03-27T12:05:44Z</time>
      </trkpt>
      <trkpt lat="46.1581" lon="6.28743">
        <ele>474.4</ele>
        <time>2021-03-27T12:05:45Z</time>
      </trkpt>
      <trkpt lat="46.15808" lon="6.28755">
        <ele>474.2</ele>
        <time>2021-03-27T12:05:46Z</time>
      </trkpt>
      <trkpt lat="46.15805" lon="6.28767">
        <ele>474</ele>
        <time>2021-03-27T12:05:47Z</time>
      </trkpt>
      <trkpt lat="46.15802" lon="6.28779">
        <ele>473.6</ele>
        <time>2021-03-27T12:05:48Z</time>
      </trkpt>
      <trkpt lat="46.15799" lon="6.28791">
        <ele>473.4</ele>
        <time>2021-03-27T12:05:49Z</time>
      </trkpt>
      <trkpt lat="46.15796" lon="6.28803">
        <ele>473.2</ele>
        <time>2021-03-27T12:05:50Z</time>
      </trkpt>
      <trkpt lat="46.15793" lon="6.28815">
        <ele>473</ele>
        <time>2021-03-27T12:05:51Z</time>
      </trkpt>
      <trkpt lat="46.15791" lon="6.28826">
        <ele>472.6</ele>
        <time>2021-03-27T12:05:52Z</time>
      </trkpt>
      <trkpt lat="46.15788" lon="6.28837">
        <ele>472.6</ele>
        <time>2021-03-27T12:05:53Z</time>
      </trkpt>
      <trkpt lat="46.15786" lon="6.28848">
        <ele>472.6</ele>
        <time>2021-03-27T12:05:54Z</time>
      </trkpt>
      <trkpt lat="46.15783" lon="6.28858">
        <ele>472.4</ele>
        <time>2021-03-27T12:05:55Z</time>
      </trkpt>
      <trkpt lat="46.1578" lon="6.28868">
        <ele>472.4</ele>
        <time>2021-03-27T12:05:56Z</time>
      </trkpt>
      <trkpt lat="46.15778" lon="6.28878">
        <ele>472.4</ele>
        <time>2021-03-27T12:05:57Z</time>
      </trkpt>
      <trkpt lat="46.15777" lon="6.28888">
        <ele>472.2</ele>
        <time>2021-03-27T12:05:58Z</time>
      </trkpt>
      <trkpt lat="46.15775" lon="6.28897">
        <ele>472.6</ele>
        <time>2021-03-27T12:05:59Z</time>
      </trkpt>
      <trkpt lat="46.15773" lon="6.28906">
        <ele>472.6</ele>
        <time>2021-03-27T12:06:00Z</time>
      </trkpt>
      <trkpt lat="46.15772" lon="6.28914">
        <ele>472.4</ele>
        <time>2021-03-27T12:06:01Z</time>
      </trkpt>
      <trkpt lat="46.1577" lon="6.28922">
        <ele>472.6</ele>
        <time>2021-03-27T12:06:02Z</time>
      </trkpt>
      <trkpt lat="46.15768" lon="6.28931">
        <ele>472.6</ele>
        <time>2021-03-27T12:06:03Z</time>
      </trkpt>
      <trkpt lat="46.15766" lon="6.2894">
        <ele>473.4</ele>
        <time>2021-03-27T12:06:04Z</time>
      </trkpt>
      <trkpt lat="46.15764" lon="6.28949">
        <ele>473.8</ele>
        <time>2021-03-27T12:06:05Z</time>
      </trkpt>
      <trkpt lat="46.15762" lon="6.28959">
        <ele>474.2</ele>
        <time>2021-03-27T12:06:06Z</time>
      </trkpt>
      <trkpt lat="46.1576" lon="6.28968">
        <ele>474.2</ele>
        <time>2021-03-27T12:06:07Z</time>
      </trkpt>
      <trkpt lat="46.15757" lon="6.28978">
        <ele>474.4</ele>
        <time>2021-03-27T12:06:08Z</time>
      </trkpt>
      <trkpt lat="46.15755" lon="6.28987">
        <ele>474.6</ele>
        <time>2021-03-27T12:06:09Z</time>
      </trkpt>
      <trkpt lat="46.15753" lon="6.28996">
        <ele>474.4</ele>
        <time>2021-03-27T12:06:10Z</time>
      </trkpt>
      <trkpt lat="46.15751" lon="6.29006">
        <ele>474.6</ele>
        <time>2021-03-27T12:06:11Z</time>
      </trkpt>
      <trkpt lat="46.15748" lon="6.29016">
        <ele>474.8</ele>
        <time>2021-03-27T12:06:12Z</time>
      </trkpt>
      <trkpt lat="46.15746" lon="6.29025">
        <ele>474.8</ele>
        <time>2021-03-27T12:06:13Z</time>
      </trkpt>
      <trkpt lat="46.15744" lon="6.29036">
        <ele>474.8</ele>
        <time>2021-03-27T12:06:14Z</time>
      </trkpt>
      <trkpt lat="46.15741" lon="6.29046">
        <ele>474.8</ele>
        <time>2021-03-27T12:06:15Z</time>
      </trkpt>
      <trkpt lat="46.15739" lon="6.29056">
        <ele>474.8</ele>
        <time>2021-03-27T12:06:16Z</time>
      </trkpt>
      <trkpt lat="46.15737" lon="6.29066">
        <ele>474.6</ele>
        <time>2021-03-27T12:06:17Z</time>
      </trkpt>
      <trkpt lat="46.15735" lon="6.29076">
        <ele>474.6</ele>
        <time>2021-03-27T12:06:18Z</time>
      </trkpt>
      <trkpt lat="46.15732" lon="6.29087">
        <ele>474.6</ele>
        <time>2021-03-27T12:06:19Z</time>
      </trkpt>
      <trkpt lat="46.1573" lon="6.29098">
        <ele>474.8</ele>
        <time>2021-03-27T12:06:20Z</time>
      </trkpt>
      <trkpt lat="46.15728" lon="6.29109">
        <ele>474.8</ele>
        <time>2021-03-27T12:06:21Z</time>
      </trkpt>
      <trkpt lat="46.15726" lon="6.29119">
        <ele>474.8</ele>
        <time>2021-03-27T12:06:22Z</time>
      </trkpt>
      <trkpt lat="46.15724" lon="6.2913">
        <ele>475</ele>
        <time>2021-03-27T12:06:23Z</time>
      </trkpt>
      <trkpt lat="46.15721" lon="6.29141">
        <ele>475</ele>
        <time>2021-03-27T12:06:24Z</time>
      </trkpt>
      <trkpt lat="46.15719" lon="6.29152">
        <ele>475.2</ele>
        <time>2021-03-27T12:06:25Z</time>
      </trkpt>
      <trkpt lat="46.15717" lon="6.29163">
        <ele>475</ele>
        <time>2021-03-27T12:06:26Z</time>
      </trkpt>
      <trkpt lat="46.15714" lon="6.29174">
        <ele>475.2</ele>
        <time>2021-03-27T12:06:27Z</time>
      </trkpt>
      <trkpt lat="46.15712" lon="6.29185">
        <ele>475</ele>
        <time>2021-03-27T12:06:28Z</time>
      </trkpt>
      <trkpt lat="46.1571" lon="6.29195">
        <ele>475.2</ele>
        <time>2021-03-27T12:06:29Z</time>
      </trkpt>
      <trkpt lat="46.15708" lon="6.29206">
        <ele>475.2</ele>
        <time>2021-03-27T12:06:30Z</time>
      </trkpt>
      <trkpt lat="46.15706" lon="6.29217">
        <ele>475</ele>
        <time>2021-03-27T12:06:31Z</time>
      </trkpt>
      <trkpt lat="46.15703" lon="6.29228">
        <ele>475</ele>
        <time>2021-03-27T12:06:32Z</time>
      </trkpt>
      <trkpt lat="46.15701" lon="6.29239">
        <ele>475.2</ele>
        <time>2021-03-27T12:06:33Z</time>
      </trkpt>
      <trkpt lat="46.15699" lon="6.2925">
        <ele>475</ele>
        <time>2021-03-27T12:06:34Z</time>
      </trkpt>
      <trkpt lat="46.15696" lon="6.29261">
        <ele>475.2</ele>
        <time>2021-03-27T12:06:35Z</time>
      </trkpt>
      <trkpt lat="46.15694" lon="6.29271">
        <ele>475.4</ele>
        <time>2021-03-27T12:06:36Z</time>
      </trkpt>
      <trkpt lat="46.15692" lon="6.29282">
        <ele>475.6</ele>
        <time>2021-03-27T12:06:37Z</time>
      </trkpt>
      <trkpt lat="46.1569" lon="6.29293">
        <ele>475.6</ele>
        <time>2021-03-27T12:06:38Z</time>
      </trkpt>
      <trkpt lat="46.15688" lon="6.29304">
        <ele>475.4</ele>
        <time>2021-03-27T12:06:39Z</time>
      </trkpt>
      <trkpt lat="46.15685" lon="6.29314">
        <ele>475.6</ele>
        <time>2021-03-27T12:06:40Z</time>
      </trkpt>
      <trkpt lat="46.15683" lon="6.29324">
        <ele>475.6</ele>
        <time>2021-03-27T12:06:41Z</time>
      </trkpt>
      <trkpt lat="46.1568" lon="6.29334">
        <ele>475.8</ele>
        <time>2021-03-27T12:06:42Z</time>
      </trkpt>
      <trkpt lat="46.15678" lon="6.29345">
        <ele>475.8</ele>
        <time>2021-03-27T12:06:43Z</time>
      </trkpt>
      <trkpt lat="46.15676" lon="6.29356">
        <ele>475.8</ele>
        <time>2021-03-27T12:06:44Z</time>
      </trkpt>
      <trkpt lat="46.15673" lon="6.29366">
        <ele>476.2</ele>
        <time>2021-03-27T12:06:45Z</time>
      </trkpt>
      <trkpt lat="46.15671" lon="6.29377">
        <ele>476.2</ele>
        <time>2021-03-27T12:06:46Z</time>
      </trkpt>
      <trkpt lat="46.15669" lon="6.29388">
        <ele>476.6</ele>
        <time>2021-03-27T12:06:47Z</time>
      </trkpt>
      <trkpt lat="46.15666" lon="6.29399">
        <ele>476.6</ele>
        <time>2021-03-27T12:06:48Z</time>
      </trkpt>
      <trkpt lat="46.15664" lon="6.2941">
        <ele>476.8</ele>
        <time>2021-03-27T12:06:49Z</time>
      </trkpt>
      <trkpt lat="46.15661" lon="6.29421">
        <ele>476.8</ele>
        <time>2021-03-27T12:06:50Z</time>
      </trkpt>
      <trkpt lat="46.15659" lon="6.29432">
        <ele>477</ele>
        <time>2021-03-27T12:06:51Z</time>
      </trkpt>
      <trkpt lat="46.15656" lon="6.29443">
        <ele>477.2</ele>
        <time>2021-03-27T12:06:52Z</time>
      </trkpt>
      <trkpt lat="46.15654" lon="6.29454">
        <ele>477.2</ele>
        <time>2021-03-27T12:06:53Z</time>
      </trkpt>
      <trkpt lat="46.15652" lon="6.29466">
        <ele>477.2</ele>
        <time>2021-03-27T12:06:54Z</time>
      </trkpt>
      <trkpt lat="46.1565" lon="6.29477">
        <ele>477.2</ele>
        <time>2021-03-27T12:06:55Z</time>
      </trkpt>
      <trkpt lat="46.15648" lon="6.29488">
        <ele>477.2</ele>
        <time>2021-03-27T12:06:56Z</time>
      </trkpt>
      <trkpt lat="46.15645" lon="6.295">
        <ele>477.2</ele>
        <time>2021-03-27T12:06:57Z</time>
      </trkpt>
      <trkpt lat="46.15643" lon="6.29511">
        <ele>477.4</ele>
        <time>2021-03-27T12:06:58Z</time>
      </trkpt>
      <trkpt lat="46.1564" lon="6.29522">
        <ele>477.2</ele>
        <time>2021-03-27T12:06:59Z</time>
      </trkpt>
      <trkpt lat="46.15638" lon="6.29534">
        <ele>477.4</ele>
        <time>2021-03-27T12:07:00Z</time>
      </trkpt>
      <trkpt lat="46.15635" lon="6.29545">
        <ele>477.4</ele>
        <time>2021-03-27T12:07:01Z</time>
      </trkpt>
      <trkpt lat="46.15633" lon="6.29557">
        <ele>477.2</ele>
        <time>2021-03-27T12:07:02Z</time>
      </trkpt>
      <trkpt lat="46.1563" lon="6.29569">
        <ele>477.4</ele>
        <time>2021-03-27T12:07:03Z</time>
      </trkpt>
      <trkpt lat="46.15628" lon="6.2958">
        <ele>477.4</ele>
        <time>2021-03-27T12:07:04Z</time>
      </trkpt>
      <trkpt lat="46.15625" lon="6.29592">
        <ele>477.4</ele>
        <time>2021-03-27T12:07:05Z</time>
      </trkpt>
      <trkpt lat="46.15623" lon="6.29603">
        <ele>477.2</ele>
        <time>2021-03-27T12:07:06Z</time>
      </trkpt>
      <trkpt lat="46.15621" lon="6.29614">
        <ele>477.2</ele>
        <time>2021-03-27T12:07:07Z</time>
      </trkpt>
      <trkpt lat="46.15618" lon="6.29625">
        <ele>477</ele>
        <time>2021-03-27T12:07:08Z</time>
      </trkpt>
      <trkpt lat="46.15616" lon="6.29637">
        <ele>477.2</ele>
        <time>2021-03-27T12:07:09Z</time>
      </trkpt>
      <trkpt lat="46.15613" lon="6.29648">
        <ele>477</ele>
        <time>2021-03-27T12:07:10Z</time>
      </trkpt>
      <trkpt lat="46.15611" lon="6.29659">
        <ele>477</ele>
        <time>2021-03-27T12:07:11Z</time>
      </trkpt>
      <trkpt lat="46.15609" lon="6.29671">
        <ele>477</ele>
        <time>2021-03-27T12:07:12Z</time>
      </trkpt>
      <trkpt lat="46.15606" lon="6.29682">
        <ele>476.8</ele>
        <time>2021-03-27T12:07:13Z</time>
      </trkpt>
      <trkpt lat="46.15604" lon="6.29693">
        <ele>476.6</ele>
        <time>2021-03-27T12:07:14Z</time>
      </trkpt>
      <trkpt lat="46.15601" lon="6.29704">
        <ele>476.6</ele>
        <time>2021-03-27T12:07:15Z</time>
      </trkpt>
      <trkpt lat="46.15599" lon="6.29715">
        <ele>476.4</ele>
        <time>2021-03-27T12:07:16Z</time>
      </trkpt>
      <trkpt lat="46.15597" lon="6.29726">
        <ele>476.2</ele>
        <time>2021-03-27T12:07:17Z</time>
      </trkpt>
      <trkpt lat="46.15594" lon="6.29737">
        <ele>476.2</ele>
        <time>2021-03-27T12:07:18Z</time>
      </trkpt>
      <trkpt lat="46.15592" lon="6.29748">
        <ele>475.8</ele>
        <time>2021-03-27T12:07:19Z</time>
      </trkpt>
      <trkpt lat="46.1559" lon="6.29759">
        <ele>475.8</ele>
        <time>2021-03-27T12:07:20Z</time>
      </trkpt>
      <trkpt lat="46.15587" lon="6.29769">
        <ele>475.8</ele>
        <time>2021-03-27T12:07:21Z</time>
      </trkpt>
      <trkpt lat="46.15585" lon="6.2978">
        <ele>475.8</ele>
        <time>2021-03-27T12:07:22Z</time>
      </trkpt>
      <trkpt lat="46.15583" lon="6.29791">
        <ele>475.8</ele>
        <time>2021-03-27T12:07:23Z</time>
      </trkpt>
      <trkpt lat="46.1558" lon="6.29802">
        <ele>475.6</ele>
        <time>2021-03-27T12:07:24Z</time>
      </trkpt>
      <trkpt lat="46.15577" lon="6.29813">
        <ele>475.6</ele>
        <time>2021-03-27T12:07:25Z</time>
      </trkpt>
      <trkpt lat="46.15574" lon="6.29824">
        <ele>475.8</ele>
        <time>2021-03-27T12:07:26Z</time>
      </trkpt>
      <trkpt lat="46.15571" lon="6.29835">
        <ele>475.6</ele>
        <time>2021-03-27T12:07:27Z</time>
      </trkpt>
      <trkpt lat="46.15569" lon="6.29847">
        <ele>475.6</ele>
        <time>2021-03-27T12:07:28Z</time>
      </trkpt>
      <trkpt lat="46.15567" lon="6.29859">
        <ele>475.6</ele>
        <time>2021-03-27T12:07:29Z</time>
      </trkpt>
      <trkpt lat="46.15565" lon="6.29871">
        <ele>475.6</ele>
        <time>2021-03-27T12:07:30Z</time>
      </trkpt>
      <trkpt lat="46.15563" lon="6.29883">
        <ele>475.8</ele>
        <time>2021-03-27T12:07:31Z</time>
      </trkpt>
      <trkpt lat="46.15561" lon="6.29895">
        <ele>475.6</ele>
        <time>2021-03-27T12:07:32Z</time>
      </trkpt>
      <trkpt lat="46.15558" lon="6.29907">
        <ele>475.8</ele>
        <time>2021-03-27T12:07:33Z</time>
      </trkpt>
      <trkpt lat="46.15555" lon="6.29919">
        <ele>475.6</ele>
        <time>2021-03-27T12:07:34Z</time>
      </trkpt>
      <trkpt lat="46.15553" lon="6.29931">
        <ele>475.6</ele>
        <time>2021-03-27T12:07:35Z</time>
      </trkpt>
      <trkpt lat="46.1555" lon="6.29943">
        <ele>475.4</ele>
        <time>2021-03-27T12:07:36Z</time>
      </trkpt>
      <trkpt lat="46.15547" lon="6.29955">
        <ele>475.6</ele>
        <time>2021-03-27T12:07:37Z</time>
      </trkpt>
      <trkpt lat="46.15544" lon="6.29967">
        <ele>475.6</ele>
        <time>2021-03-27T12:07:38Z</time>
      </trkpt>
      <trkpt lat="46.15542" lon="6.29978">
        <ele>475.4</ele>
        <time>2021-03-27T12:07:39Z</time>
      </trkpt>
      <trkpt lat="46.1554" lon="6.2999">
        <ele>475.4</ele>
        <time>2021-03-27T12:07:40Z</time>
      </trkpt>
      <trkpt lat="46.15537" lon="6.30001">
        <ele>475.2</ele>
        <time>2021-03-27T12:07:41Z</time>
      </trkpt>
      <trkpt lat="46.15535" lon="6.30012">
        <ele>475.4</ele>
        <time>2021-03-27T12:07:42Z</time>
      </trkpt>
      <trkpt lat="46.15533" lon="6.30024">
        <ele>475.4</ele>
        <time>2021-03-27T12:07:43Z</time>
      </trkpt>
      <trkpt lat="46.1553" lon="6.30035">
        <ele>475.4</ele>
        <time>2021-03-27T12:07:44Z</time>
      </trkpt>
      <trkpt lat="46.15528" lon="6.30046">
        <ele>475.4</ele>
        <time>2021-03-27T12:07:45Z</time>
      </trkpt>
      <trkpt lat="46.15525" lon="6.30057">
        <ele>475.4</ele>
        <time>2021-03-27T12:07:46Z</time>
      </trkpt>
      <trkpt lat="46.15523" lon="6.30067">
        <ele>475.4</ele>
        <time>2021-03-27T12:07:47Z</time>
      </trkpt>
      <trkpt lat="46.15521" lon="6.30078">
        <ele>475.4</ele>
        <time>2021-03-27T12:07:48Z</time>
      </trkpt>
      <trkpt lat="46.15518" lon="6.30089">
        <ele>475.6</ele>
        <time>2021-03-27T12:07:49Z</time>
      </trkpt>
      <trkpt lat="46.15516" lon="6.301">
        <ele>475.6</ele>
        <time>2021-03-27T12:07:50Z</time>
      </trkpt>
      <trkpt lat="46.15514" lon="6.3011">
        <ele>475.6</ele>
        <time>2021-03-27T12:07:51Z</time>
      </trkpt>
      <trkpt lat="46.15511" lon="6.30121">
        <ele>475.6</ele>
        <time>2021-03-27T12:07:52Z</time>
      </trkpt>
      <trkpt lat="46.15509" lon="6.30131">
        <ele>475.8</ele>
        <time>2021-03-27T12:07:53Z</time>
      </trkpt>
      <trkpt lat="46.15506" lon="6.30141">
        <ele>476</ele>
        <time>2021-03-27T12:07:54Z</time>
      </trkpt>
      <trkpt lat="46.15504" lon="6.30152">
        <ele>476</ele>
        <time>2021-03-27T12:07:55Z</time>
      </trkpt>
      <trkpt lat="46.15502" lon="6.30163">
        <ele>476</ele>
        <time>2021-03-27T12:07:56Z</time>
      </trkpt>
      <trkpt lat="46.155" lon="6.30173">
        <ele>476</ele>
        <time>2021-03-27T12:07:57Z</time>
      </trkpt>
      <trkpt lat="46.15498" lon="6.30183">
        <ele>476.2</ele>
        <time>2021-03-27T12:07:58Z</time>
      </trkpt>
      <trkpt lat="46.15496" lon="6.30194">
        <ele>476.2</ele>
        <time>2021-03-27T12:07:59Z</time>
      </trkpt>
      <trkpt lat="46.15494" lon="6.30205">
        <ele>476.2</ele>
        <time>2021-03-27T12:08:00Z</time>
      </trkpt>
      <trkpt lat="46.15491" lon="6.30215">
        <ele>476.4</ele>
        <time>2021-03-27T12:08:01Z</time>
      </trkpt>
      <trkpt lat="46.15489" lon="6.30226">
        <ele>476.4</ele>
        <time>2021-03-27T12:08:02Z</time>
      </trkpt>
      <trkpt lat="46.15486" lon="6.30237">
        <ele>476.6</ele>
        <time>2021-03-27T12:08:03Z</time>
      </trkpt>
      <trkpt lat="46.15484" lon="6.30248">
        <ele>476.4</ele>
        <time>2021-03-27T12:08:04Z</time>
      </trkpt>
      <trkpt lat="46.15482" lon="6.30259">
        <ele>476.6</ele>
        <time>2021-03-27T12:08:05Z</time>
      </trkpt>
      <trkpt lat="46.15479" lon="6.3027">
        <ele>476.6</ele>
        <time>2021-03-27T12:08:06Z</time>
      </trkpt>
      <trkpt lat="46.15477" lon="6.30282">
        <ele>476.6</ele>
        <time>2021-03-27T12:08:07Z</time>
      </trkpt>
      <trkpt lat="46.15475" lon="6.30294">
        <ele>476.8</ele>
        <time>2021-03-27T12:08:08Z</time>
      </trkpt>
      <trkpt lat="46.15472" lon="6.30306">
        <ele>476.6</ele>
        <time>2021-03-27T12:08:09Z</time>
      </trkpt>
      <trkpt lat="46.15469" lon="6.30318">
        <ele>476.8</ele>
        <time>2021-03-27T12:08:10Z</time>
      </trkpt>
      <trkpt lat="46.15466" lon="6.3033">
        <ele>476.8</ele>
        <time>2021-03-27T12:08:11Z</time>
      </trkpt>
      <trkpt lat="46.15463" lon="6.30342">
        <ele>477</ele>
        <time>2021-03-27T12:08:12Z</time>
      </trkpt>
      <trkpt lat="46.15459" lon="6.30354">
        <ele>477</ele>
        <time>2021-03-27T12:08:13Z</time>
      </trkpt>
      <trkpt lat="46.15457" lon="6.30366">
        <ele>477</ele>
        <time>2021-03-27T12:08:14Z</time>
      </trkpt>
      <trkpt lat="46.15454" lon="6.30377">
        <ele>477</ele>
        <time>2021-03-27T12:08:15Z</time>
      </trkpt>
      <trkpt lat="46.1545" lon="6.30388">
        <ele>477</ele>
        <time>2021-03-27T12:08:16Z</time>
      </trkpt>
      <trkpt lat="46.15448" lon="6.304">
        <ele>477</ele>
        <time>2021-03-27T12:08:17Z</time>
      </trkpt>
      <trkpt lat="46.15445" lon="6.30411">
        <ele>477</ele>
        <time>2021-03-27T12:08:18Z</time>
      </trkpt>
      <trkpt lat="46.15442" lon="6.30422">
        <ele>477.2</ele>
        <time>2021-03-27T12:08:19Z</time>
      </trkpt>
      <trkpt lat="46.15439" lon="6.30433">
        <ele>477</ele>
        <time>2021-03-27T12:08:20Z</time>
      </trkpt>
      <trkpt lat="46.15436" lon="6.30444">
        <ele>477.2</ele>
        <time>2021-03-27T12:08:21Z</time>
      </trkpt>
      <trkpt lat="46.15434" lon="6.30456">
        <ele>477.2</ele>
        <time>2021-03-27T12:08:22Z</time>
      </trkpt>
      <trkpt lat="46.15432" lon="6.30467">
        <ele>477.2</ele>
        <time>2021-03-27T12:08:23Z</time>
      </trkpt>
      <trkpt lat="46.1543" lon="6.30479">
        <ele>477.2</ele>
        <time>2021-03-27T12:08:24Z</time>
      </trkpt>
      <trkpt lat="46.15429" lon="6.30491">
        <ele>477</ele>
        <time>2021-03-27T12:08:25Z</time>
      </trkpt>
      <trkpt lat="46.15428" lon="6.30503">
        <ele>477</ele>
        <time>2021-03-27T12:08:26Z</time>
      </trkpt>
      <trkpt lat="46.15427" lon="6.30514">
        <ele>477.2</ele>
        <time>2021-03-27T12:08:27Z</time>
      </trkpt>
      <trkpt lat="46.15426" lon="6.30525">
        <ele>477.4</ele>
        <time>2021-03-27T12:08:28Z</time>
      </trkpt>
      <trkpt lat="46.15424" lon="6.30536">
        <ele>477.6</ele>
        <time>2021-03-27T12:08:29Z</time>
      </trkpt>
      <trkpt lat="46.15421" lon="6.30547">
        <ele>477.6</ele>
        <time>2021-03-27T12:08:30Z</time>
      </trkpt>
      <trkpt lat="46.15419" lon="6.30558">
        <ele>477.6</ele>
        <time>2021-03-27T12:08:31Z</time>
      </trkpt>
      <trkpt lat="46.15416" lon="6.30568">
        <ele>477.8</ele>
        <time>2021-03-27T12:08:32Z</time>
      </trkpt>
      <trkpt lat="46.15413" lon="6.30578">
        <ele>477.8</ele>
        <time>2021-03-27T12:08:33Z</time>
      </trkpt>
      <trkpt lat="46.1541" lon="6.30589">
        <ele>478</ele>
        <time>2021-03-27T12:08:34Z</time>
      </trkpt>
      <trkpt lat="46.15407" lon="6.30599">
        <ele>478</ele>
        <time>2021-03-27T12:08:35Z</time>
      </trkpt>
      <trkpt lat="46.15405" lon="6.3061">
        <ele>478</ele>
        <time>2021-03-27T12:08:36Z</time>
      </trkpt>
      <trkpt lat="46.15402" lon="6.3062">
        <ele>478.2</ele>
        <time>2021-03-27T12:08:37Z</time>
      </trkpt>
      <trkpt lat="46.154" lon="6.3063">
        <ele>478.2</ele>
        <time>2021-03-27T12:08:38Z</time>
      </trkpt>
      <trkpt lat="46.15397" lon="6.30641">
        <ele>478.4</ele>
        <time>2021-03-27T12:08:39Z</time>
      </trkpt>
      <trkpt lat="46.15394" lon="6.30651">
        <ele>478.4</ele>
        <time>2021-03-27T12:08:40Z</time>
      </trkpt>
      <trkpt lat="46.1539" lon="6.3066">
        <ele>478.6</ele>
        <time>2021-03-27T12:08:41Z</time>
      </trkpt>
      <trkpt lat="46.15386" lon="6.30669">
        <ele>478.6</ele>
        <time>2021-03-27T12:08:42Z</time>
      </trkpt>
      <trkpt lat="46.15381" lon="6.30678">
        <ele>478.6</ele>
        <time>2021-03-27T12:08:43Z</time>
      </trkpt>
      <trkpt lat="46.15376" lon="6.30686">
        <ele>478.6</ele>
        <time>2021-03-27T12:08:44Z</time>
      </trkpt>
      <trkpt lat="46.1537" lon="6.30693">
        <ele>478.6</ele>
        <time>2021-03-27T12:08:45Z</time>
      </trkpt>
      <trkpt lat="46.15364" lon="6.30701">
        <ele>478.6</ele>
        <time>2021-03-27T12:08:46Z</time>
      </trkpt>
      <trkpt lat="46.15358" lon="6.30708">
        <ele>478.6</ele>
        <time>2021-03-27T12:08:47Z</time>
      </trkpt>
      <trkpt lat="46.15352" lon="6.30714">
        <ele>478.4</ele>
        <time>2021-03-27T12:08:48Z</time>
      </trkpt>
      <trkpt lat="46.15347" lon="6.30718">
        <ele>478.6</ele>
        <time>2021-03-27T12:08:49Z</time>
      </trkpt>
      <trkpt lat="46.1534" lon="6.30719">
        <ele>478.4</ele>
        <time>2021-03-27T12:08:50Z</time>
      </trkpt>
      <trkpt lat="46.15333" lon="6.30718">
        <ele>478.4</ele>
        <time>2021-03-27T12:08:51Z</time>
      </trkpt>
      <trkpt lat="46.15326" lon="6.30715">
        <ele>478.2</ele>
        <time>2021-03-27T12:08:52Z</time>
      </trkpt>
      <trkpt lat="46.15318" lon="6.30712">
        <ele>478.2</ele>
        <time>2021-03-27T12:08:53Z</time>
      </trkpt>
      <trkpt lat="46.15311" lon="6.3071">
        <ele>477.6</ele>
        <time>2021-03-27T12:08:54Z</time>
      </trkpt>
      <trkpt lat="46.15303" lon="6.30709">
        <ele>477.4</ele>
        <time>2021-03-27T12:08:55Z</time>
      </trkpt>
      <trkpt lat="46.15296" lon="6.3071">
        <ele>477</ele>
        <time>2021-03-27T12:08:56Z</time>
      </trkpt>
      <trkpt lat="46.15288" lon="6.30712">
        <ele>476.8</ele>
        <time>2021-03-27T12:08:57Z</time>
      </trkpt>
      <trkpt lat="46.15281" lon="6.30715">
        <ele>476.4</ele>
        <time>2021-03-27T12:08:58Z</time>
      </trkpt>
      <trkpt lat="46.15273" lon="6.30717">
        <ele>476.4</ele>
        <time>2021-03-27T12:08:59Z</time>
      </trkpt>
      <trkpt lat="46.15266" lon="6.30719">
        <ele>476.2</ele>
        <time>2021-03-27T12:09:00Z</time>
      </trkpt>
      <trkpt lat="46.15258" lon="6.30722">
        <ele>476</ele>
        <time>2021-03-27T12:09:01Z</time>
      </trkpt>
      <trkpt lat="46.1525" lon="6.30724">
        <ele>475.8</ele>
        <time>2021-03-27T12:09:02Z</time>
      </trkpt>
      <trkpt lat="46.15242" lon="6.30727">
        <ele>475.2</ele>
        <time>2021-03-27T12:09:03Z</time>
      </trkpt>
      <trkpt lat="46.15234" lon="6.30729">
        <ele>474.8</ele>
        <time>2021-03-27T12:09:04Z</time>
      </trkpt>
      <trkpt lat="46.15226" lon="6.30731">
        <ele>474.4</ele>
        <time>2021-03-27T12:09:05Z</time>
      </trkpt>
      <trkpt lat="46.15218" lon="6.30734">
        <ele>474</ele>
        <time>2021-03-27T12:09:06Z</time>
      </trkpt>
      <trkpt lat="46.1521" lon="6.30736">
        <ele>474</ele>
        <time>2021-03-27T12:09:07Z</time>
      </trkpt>
      <trkpt lat="46.15201" lon="6.30737">
        <ele>473.8</ele>
        <time>2021-03-27T12:09:08Z</time>
      </trkpt>
      <trkpt lat="46.15193" lon="6.30736">
        <ele>473.8</ele>
        <time>2021-03-27T12:09:09Z</time>
      </trkpt>
      <trkpt lat="46.15185" lon="6.30732">
        <ele>473.6</ele>
        <time>2021-03-27T12:09:10Z</time>
      </trkpt>
      <trkpt lat="46.15177" lon="6.30727">
        <ele>473.4</ele>
        <time>2021-03-27T12:09:11Z</time>
      </trkpt>
      <trkpt lat="46.1517" lon="6.3072">
        <ele>473</ele>
        <time>2021-03-27T12:09:12Z</time>
      </trkpt>
      <trkpt lat="46.15163" lon="6.30712">
        <ele>472.4</ele>
        <time>2021-03-27T12:09:13Z</time>
      </trkpt>
      <trkpt lat="46.15156" lon="6.30704">
        <ele>471.8</ele>
        <time>2021-03-27T12:09:14Z</time>
      </trkpt>
      <trkpt lat="46.15149" lon="6.30696">
        <ele>471.6</ele>
        <time>2021-03-27T12:09:15Z</time>
      </trkpt>
      <trkpt lat="46.15141" lon="6.30688">
        <ele>471.2</ele>
        <time>2021-03-27T12:09:16Z</time>
      </trkpt>
      <trkpt lat="46.15133" lon="6.30682">
        <ele>471.2</ele>
        <time>2021-03-27T12:09:17Z</time>
      </trkpt>
      <trkpt lat="46.15124" lon="6.30678">
        <ele>470.6</ele>
        <time>2021-03-27T12:09:18Z</time>
      </trkpt>
      <trkpt lat="46.15114" lon="6.30676">
        <ele>470.4</ele>
        <time>2021-03-27T12:09:19Z</time>
      </trkpt>
      <trkpt lat="46.15104" lon="6.30676">
        <ele>470.2</ele>
        <time>2021-03-27T12:09:20Z</time>
      </trkpt>
      <trkpt lat="46.15095" lon="6.30679">
        <ele>470.2</ele>
        <time>2021-03-27T12:09:21Z</time>
      </trkpt>
      <trkpt lat="46.15085" lon="6.30682">
        <ele>470</ele>
        <time>2021-03-27T12:09:22Z</time>
      </trkpt>
      <trkpt lat="46.15075" lon="6.30686">
        <ele>469.6</ele>
        <time>2021-03-27T12:09:23Z</time>
      </trkpt>
      <trkpt lat="46.15066" lon="6.30689">
        <ele>468.8</ele>
        <time>2021-03-27T12:09:24Z</time>
      </trkpt>
      <trkpt lat="46.15057" lon="6.30693">
        <ele>468</ele>
        <time>2021-03-27T12:09:25Z</time>
      </trkpt>
      <trkpt lat="46.15048" lon="6.30696">
        <ele>466.8</ele>
        <time>2021-03-27T12:09:26Z</time>
      </trkpt>
      <trkpt lat="46.15039" lon="6.30698">
        <ele>465.2</ele>
        <time>2021-03-27T12:09:27Z</time>
      </trkpt>
      <trkpt lat="46.1503" lon="6.307">
        <ele>464</ele>
        <time>2021-03-27T12:09:28Z</time>
      </trkpt>
      <trkpt lat="46.15021" lon="6.307">
        <ele>463.4</ele>
        <time>2021-03-27T12:09:29Z</time>
      </trkpt>
      <trkpt lat="46.15012" lon="6.30699">
        <ele>463.4</ele>
        <time>2021-03-27T12:09:30Z</time>
      </trkpt>
      <trkpt lat="46.15003" lon="6.30696">
        <ele>462.6</ele>
        <time>2021-03-27T12:09:31Z</time>
      </trkpt>
      <trkpt lat="46.14994" lon="6.30693">
        <ele>462.2</ele>
        <time>2021-03-27T12:09:32Z</time>
      </trkpt>
      <trkpt lat="46.14986" lon="6.30688">
        <ele>462</ele>
        <time>2021-03-27T12:09:33Z</time>
      </trkpt>
      <trkpt lat="46.14978" lon="6.30682">
        <ele>461.2</ele>
        <time>2021-03-27T12:09:34Z</time>
      </trkpt>
      <trkpt lat="46.1497" lon="6.30677">
        <ele>460.6</ele>
        <time>2021-03-27T12:09:35Z</time>
      </trkpt>
      <trkpt lat="46.14963" lon="6.30671">
        <ele>459.8</ele>
        <time>2021-03-27T12:09:36Z</time>
      </trkpt>
      <trkpt lat="46.14956" lon="6.30665">
        <ele>459.2</ele>
        <time>2021-03-27T12:09:37Z</time>
      </trkpt>
      <trkpt lat="46.14949" lon="6.30661">
        <ele>458.6</ele>
        <time>2021-03-27T12:09:38Z</time>
      </trkpt>
      <trkpt lat="46.1494" lon="6.30656">
        <ele>458.4</ele>
        <time>2021-03-27T12:09:39Z</time>
      </trkpt>
      <trkpt lat="46.14934" lon="6.30649">
        <ele>458.2</ele>
        <time>2021-03-27T12:09:40Z</time>
      </trkpt>
      <trkpt lat="46.14927" lon="6.30642">
        <ele>457.8</ele>
        <time>2021-03-27T12:09:41Z</time>
      </trkpt>
      <trkpt lat="46.1492" lon="6.30636">
        <ele>457.8</ele>
        <time>2021-03-27T12:09:42Z</time>
      </trkpt>
      <trkpt lat="46.14914" lon="6.3063">
        <ele>457.6</ele>
        <time>2021-03-27T12:09:43Z</time>
      </trkpt>
      <trkpt lat="46.14908" lon="6.30624">
        <ele>457.6</ele>
        <time>2021-03-27T12:09:44Z</time>
      </trkpt>
      <trkpt lat="46.14902" lon="6.30618">
        <ele>457.6</ele>
        <time>2021-03-27T12:09:45Z</time>
      </trkpt>
      <trkpt lat="46.14896" lon="6.30613">
        <ele>457.6</ele>
        <time>2021-03-27T12:09:46Z</time>
      </trkpt>
      <trkpt lat="46.14889" lon="6.30608">
        <ele>457.4</ele>
        <time>2021-03-27T12:09:47Z</time>
      </trkpt>
      <trkpt lat="46.14883" lon="6.30604">
        <ele>457.6</ele>
        <time>2021-03-27T12:09:48Z</time>
      </trkpt>
      <trkpt lat="46.14876" lon="6.30599">
        <ele>457.6</ele>
        <time>2021-03-27T12:09:49Z</time>
      </trkpt>
      <trkpt lat="46.14869" lon="6.30595">
        <ele>457.4</ele>
        <time>2021-03-27T12:09:50Z</time>
      </trkpt>
      <trkpt lat="46.14863" lon="6.3059">
        <ele>457.4</ele>
        <time>2021-03-27T12:09:51Z</time>
      </trkpt>
      <trkpt lat="46.14856" lon="6.30586">
        <ele>457.4</ele>
        <time>2021-03-27T12:09:52Z</time>
      </trkpt>
      <trkpt lat="46.14849" lon="6.30583">
        <ele>457.4</ele>
        <time>2021-03-27T12:09:53Z</time>
      </trkpt>
      <trkpt lat="46.14842" lon="6.30579">
        <ele>457.4</ele>
        <time>2021-03-27T12:09:54Z</time>
      </trkpt>
      <trkpt lat="46.14835" lon="6.30575">
        <ele>457.4</ele>
        <time>2021-03-27T12:09:55Z</time>
      </trkpt>
      <trkpt lat="46.14828" lon="6.30572">
        <ele>457.4</ele>
        <time>2021-03-27T12:09:56Z</time>
      </trkpt>
      <trkpt lat="46.14821" lon="6.30568">
        <ele>457.6</ele>
        <time>2021-03-27T12:09:57Z</time>
      </trkpt>
      <trkpt lat="46.14815" lon="6.30564">
        <ele>457.6</ele>
        <time>2021-03-27T12:09:58Z</time>
      </trkpt>
      <trkpt lat="46.14808" lon="6.30561">
        <ele>457.8</ele>
        <time>2021-03-27T12:09:59Z</time>
      </trkpt>
      <trkpt lat="46.14801" lon="6.30557">
        <ele>457.8</ele>
        <time>2021-03-27T12:10:00Z</time>
      </trkpt>
      <trkpt lat="46.14795" lon="6.30554">
        <ele>458</ele>
        <time>2021-03-27T12:10:01Z</time>
      </trkpt>
      <trkpt lat="46.14789" lon="6.30551">
        <ele>458.2</ele>
        <time>2021-03-27T12:10:02Z</time>
      </trkpt>
      <trkpt lat="46.14782" lon="6.30548">
        <ele>458.2</ele>
        <time>2021-03-27T12:10:03Z</time>
      </trkpt>
      <trkpt lat="46.14775" lon="6.30546">
        <ele>458.2</ele>
        <time>2021-03-27T12:10:04Z</time>
      </trkpt>
      <trkpt lat="46.14768" lon="6.30544">
        <ele>458.4</ele>
        <time>2021-03-27T12:10:05Z</time>
      </trkpt>
      <trkpt lat="46.14762" lon="6.30542">
        <ele>458.6</ele>
        <time>2021-03-27T12:10:06Z</time>
      </trkpt>
      <trkpt lat="46.14754" lon="6.3054">
        <ele>458.8</ele>
        <time>2021-03-27T12:10:07Z</time>
      </trkpt>
      <trkpt lat="46.14747" lon="6.30538">
        <ele>458.6</ele>
        <time>2021-03-27T12:10:08Z</time>
      </trkpt>
      <trkpt lat="46.1474" lon="6.30536">
        <ele>458.8</ele>
        <time>2021-03-27T12:10:09Z</time>
      </trkpt>
      <trkpt lat="46.14732" lon="6.30534">
        <ele>459</ele>
        <time>2021-03-27T12:10:10Z</time>
      </trkpt>
      <trkpt lat="46.14724" lon="6.30532">
        <ele>459</ele>
        <time>2021-03-27T12:10:11Z</time>
      </trkpt>
      <trkpt lat="46.14716" lon="6.3053">
        <ele>459</ele>
        <time>2021-03-27T12:10:12Z</time>
      </trkpt>
      <trkpt lat="46.14708" lon="6.30527">
        <ele>459</ele>
        <time>2021-03-27T12:10:13Z</time>
      </trkpt>
      <trkpt lat="46.147" lon="6.30525">
        <ele>459.2</ele>
        <time>2021-03-27T12:10:14Z</time>
      </trkpt>
      <trkpt lat="46.14691" lon="6.30522">
        <ele>459.2</ele>
        <time>2021-03-27T12:10:15Z</time>
      </trkpt>
      <trkpt lat="46.14682" lon="6.30519">
        <ele>459.2</ele>
        <time>2021-03-27T12:10:16Z</time>
      </trkpt>
      <trkpt lat="46.14673" lon="6.30516">
        <ele>459</ele>
        <time>2021-03-27T12:10:17Z</time>
      </trkpt>
      <trkpt lat="46.14664" lon="6.30513">
        <ele>459</ele>
        <time>2021-03-27T12:10:18Z</time>
      </trkpt>
      <trkpt lat="46.14655" lon="6.3051">
        <ele>459.2</ele>
        <time>2021-03-27T12:10:19Z</time>
      </trkpt>
      <trkpt lat="46.14646" lon="6.30507">
        <ele>458.6</ele>
        <time>2021-03-27T12:10:20Z</time>
      </trkpt>
      <trkpt lat="46.14636" lon="6.30504">
        <ele>458.2</ele>
        <time>2021-03-27T12:10:21Z</time>
      </trkpt>
      <trkpt lat="46.14627" lon="6.30501">
        <ele>458.2</ele>
        <time>2021-03-27T12:10:22Z</time>
      </trkpt>
      <trkpt lat="46.14618" lon="6.30499">
        <ele>458</ele>
        <time>2021-03-27T12:10:23Z</time>
      </trkpt>
      <trkpt lat="46.14608" lon="6.305">
        <ele>457.4</ele>
        <time>2021-03-27T12:10:24Z</time>
      </trkpt>
      <trkpt lat="46.14599" lon="6.30504">
        <ele>457.2</ele>
        <time>2021-03-27T12:10:25Z</time>
      </trkpt>
      <trkpt lat="46.14591" lon="6.30511">
        <ele>456.8</ele>
        <time>2021-03-27T12:10:26Z</time>
      </trkpt>
      <trkpt lat="46.14583" lon="6.30521">
        <ele>455.8</ele>
        <time>2021-03-27T12:10:27Z</time>
      </trkpt>
      <trkpt lat="46.14576" lon="6.30531">
        <ele>454.8</ele>
        <time>2021-03-27T12:10:28Z</time>
      </trkpt>
      <trkpt lat="46.14569" lon="6.30542">
        <ele>454.2</ele>
        <time>2021-03-27T12:10:29Z</time>
      </trkpt>
      <trkpt lat="46.14562" lon="6.30553">
        <ele>453.8</ele>
        <time>2021-03-27T12:10:30Z</time>
      </trkpt>
      <trkpt lat="46.14555" lon="6.30563">
        <ele>453.4</ele>
        <time>2021-03-27T12:10:31Z</time>
      </trkpt>
      <trkpt lat="46.14547" lon="6.30572">
        <ele>452.6</ele>
        <time>2021-03-27T12:10:32Z</time>
      </trkpt>
      <trkpt lat="46.14539" lon="6.30581">
        <ele>451.8</ele>
        <time>2021-03-27T12:10:33Z</time>
      </trkpt>
      <trkpt lat="46.1453" lon="6.30589">
        <ele>451</ele>
        <time>2021-03-27T12:10:34Z</time>
      </trkpt>
      <trkpt lat="46.14522" lon="6.30595">
        <ele>450.4</ele>
        <time>2021-03-27T12:10:35Z</time>
      </trkpt>
      <trkpt lat="46.14512" lon="6.30599">
        <ele>450</ele>
        <time>2021-03-27T12:10:36Z</time>
      </trkpt>
      <trkpt lat="46.14503" lon="6.30601">
        <ele>450</ele>
        <time>2021-03-27T12:10:37Z</time>
      </trkpt>
      <trkpt lat="46.14494" lon="6.306">
        <ele>449.6</ele>
        <time>2021-03-27T12:10:38Z</time>
      </trkpt>
      <trkpt lat="46.14486" lon="6.30597">
        <ele>449.6</ele>
        <time>2021-03-27T12:10:39Z</time>
      </trkpt>
      <trkpt lat="46.14478" lon="6.30592">
        <ele>449.6</ele>
        <time>2021-03-27T12:10:40Z</time>
      </trkpt>
      <trkpt lat="46.14471" lon="6.30587">
        <ele>449.6</ele>
        <time>2021-03-27T12:10:41Z</time>
      </trkpt>
      <trkpt lat="46.14465" lon="6.30581">
        <ele>449.6</ele>
        <time>2021-03-27T12:10:42Z</time>
      </trkpt>
      <trkpt lat="46.1446" lon="6.30575">
        <ele>449.6</ele>
        <time>2021-03-27T12:10:43Z</time>
      </trkpt>
      <trkpt lat="46.14455" lon="6.3057">
        <ele>449.6</ele>
        <time>2021-03-27T12:10:44Z</time>
      </trkpt>
      <trkpt lat="46.1445" lon="6.30566">
        <ele>449.4</ele>
        <time>2021-03-27T12:10:45Z</time>
      </trkpt>
      <trkpt lat="46.14446" lon="6.30561">
        <ele>449.6</ele>
        <time>2021-03-27T12:10:46Z</time>
      </trkpt>
      <trkpt lat="46.14442" lon="6.30557">
        <ele>449.6</ele>
        <time>2021-03-27T12:10:47Z</time>
      </trkpt>
      <trkpt lat="46.14438" lon="6.30553">
        <ele>450</ele>
        <time>2021-03-27T12:10:48Z</time>
      </trkpt>
      <trkpt lat="46.14433" lon="6.30549">
        <ele>450.2</ele>
        <time>2021-03-27T12:10:49Z</time>
      </trkpt>
      <trkpt lat="46.14429" lon="6.30546">
        <ele>450.8</ele>
        <time>2021-03-27T12:10:50Z</time>
      </trkpt>
      <trkpt lat="46.14425" lon="6.30543">
        <ele>451.6</ele>
        <time>2021-03-27T12:10:51Z</time>
      </trkpt>
      <trkpt lat="46.1442" lon="6.3054">
        <ele>452.4</ele>
        <time>2021-03-27T12:10:52Z</time>
      </trkpt>
      <trkpt lat="46.14416" lon="6.30537">
        <ele>453.4</ele>
        <time>2021-03-27T12:10:53Z</time>
      </trkpt>
      <trkpt lat="46.14411" lon="6.30536">
        <ele>453.8</ele>
        <time>2021-03-27T12:10:54Z</time>
      </trkpt>
      <trkpt lat="46.14406" lon="6.30535">
        <ele>454</ele>
        <time>2021-03-27T12:10:55Z</time>
      </trkpt>
      <trkpt lat="46.14402" lon="6.30535">
        <ele>454.6</ele>
        <time>2021-03-27T12:10:56Z</time>
      </trkpt>
      <trkpt lat="46.14397" lon="6.30536">
        <ele>454.8</ele>
        <time>2021-03-27T12:10:57Z</time>
      </trkpt>
      <trkpt lat="46.14393" lon="6.30539">
        <ele>455.2</ele>
        <time>2021-03-27T12:10:58Z</time>
      </trkpt>
      <trkpt lat="46.14388" lon="6.30542">
        <ele>455.6</ele>
        <time>2021-03-27T12:10:59Z</time>
      </trkpt>
      <trkpt lat="46.14383" lon="6.30546">
        <ele>456</ele>
        <time>2021-03-27T12:11:00Z</time>
      </trkpt>
      <trkpt lat="46.14379" lon="6.3055">
        <ele>456</ele>
        <time>2021-03-27T12:11:01Z</time>
      </trkpt>
      <trkpt lat="46.14374" lon="6.30555">
        <ele>456.2</ele>
        <time>2021-03-27T12:11:02Z</time>
      </trkpt>
      <trkpt lat="46.14369" lon="6.3056">
        <ele>456.4</ele>
        <time>2021-03-27T12:11:03Z</time>
      </trkpt>
      <trkpt lat="46.14364" lon="6.30564">
        <ele>456.8</ele>
        <time>2021-03-27T12:11:04Z</time>
      </trkpt>
      <trkpt lat="46.14359" lon="6.30568">
        <ele>456.8</ele>
        <time>2021-03-27T12:11:05Z</time>
      </trkpt>
      <trkpt lat="46.14354" lon="6.30573">
        <ele>457.4</ele>
        <time>2021-03-27T12:11:06Z</time>
      </trkpt>
      <trkpt lat="46.14349" lon="6.30577">
        <ele>457.6</ele>
        <time>2021-03-27T12:11:07Z</time>
      </trkpt>
      <trkpt lat="46.14344" lon="6.30582">
        <ele>458</ele>
        <time>2021-03-27T12:11:08Z</time>
      </trkpt>
      <trkpt lat="46.14339" lon="6.30586">
        <ele>458</ele>
        <time>2021-03-27T12:11:09Z</time>
      </trkpt>
      <trkpt lat="46.14334" lon="6.3059">
        <ele>458.2</ele>
        <time>2021-03-27T12:11:10Z</time>
      </trkpt>
      <trkpt lat="46.14328" lon="6.30594">
        <ele>458.2</ele>
        <time>2021-03-27T12:11:11Z</time>
      </trkpt>
      <trkpt lat="46.14323" lon="6.30598">
        <ele>458.4</ele>
        <time>2021-03-27T12:11:12Z</time>
      </trkpt>
      <trkpt lat="46.14319" lon="6.30603">
        <ele>458.6</ele>
        <time>2021-03-27T12:11:13Z</time>
      </trkpt>
      <trkpt lat="46.14314" lon="6.30607">
        <ele>458.6</ele>
        <time>2021-03-27T12:11:14Z</time>
      </trkpt>
      <trkpt lat="46.1431" lon="6.30612">
        <ele>458.6</ele>
        <time>2021-03-27T12:11:15Z</time>
      </trkpt>
      <trkpt lat="46.14305" lon="6.30617">
        <ele>458.6</ele>
        <time>2021-03-27T12:11:16Z</time>
      </trkpt>
      <trkpt lat="46.14301" lon="6.30622">
        <ele>458.8</ele>
        <time>2021-03-27T12:11:17Z</time>
      </trkpt>
      <trkpt lat="46.14297" lon="6.30626">
        <ele>458.8</ele>
        <time>2021-03-27T12:11:18Z</time>
      </trkpt>
      <trkpt lat="46.14292" lon="6.30631">
        <ele>459</ele>
        <time>2021-03-27T12:11:19Z</time>
      </trkpt>
      <trkpt lat="46.14288" lon="6.30636">
        <ele>458.8</ele>
        <time>2021-03-27T12:11:20Z</time>
      </trkpt>
      <trkpt lat="46.14284" lon="6.30642">
        <ele>459</ele>
        <time>2021-03-27T12:11:21Z</time>
      </trkpt>
      <trkpt lat="46.1428" lon="6.30647">
        <ele>459</ele>
        <time>2021-03-27T12:11:22Z</time>
      </trkpt>
      <trkpt lat="46.14276" lon="6.30652">
        <ele>459</ele>
        <time>2021-03-27T12:11:23Z</time>
      </trkpt>
      <trkpt lat="46.14272" lon="6.30657">
        <ele>459</ele>
        <time>2021-03-27T12:11:24Z</time>
      </trkpt>
      <trkpt lat="46.14268" lon="6.30662">
        <ele>459</ele>
        <time>2021-03-27T12:11:25Z</time>
      </trkpt>
      <trkpt lat="46.14264" lon="6.30667">
        <ele>459.2</ele>
        <time>2021-03-27T12:11:26Z</time>
      </trkpt>
      <trkpt lat="46.1426" lon="6.30672">
        <ele>459.2</ele>
        <time>2021-03-27T12:11:27Z</time>
      </trkpt>
      <trkpt lat="46.14256" lon="6.30676">
        <ele>459.6</ele>
        <time>2021-03-27T12:11:28Z</time>
      </trkpt>
      <trkpt lat="46.14252" lon="6.30681">
        <ele>459.8</ele>
        <time>2021-03-27T12:11:29Z</time>
      </trkpt>
      <trkpt lat="46.14247" lon="6.30686">
        <ele>459.8</ele>
        <time>2021-03-27T12:11:30Z</time>
      </trkpt>
      <trkpt lat="46.14243" lon="6.30691">
        <ele>459.8</ele>
        <time>2021-03-27T12:11:31Z</time>
      </trkpt>
      <trkpt lat="46.14238" lon="6.30695">
        <ele>460</ele>
        <time>2021-03-27T12:11:32Z</time>
      </trkpt>
      <trkpt lat="46.14233" lon="6.307">
        <ele>460</ele>
        <time>2021-03-27T12:11:33Z</time>
      </trkpt>
      <trkpt lat="46.14229" lon="6.30703">
        <ele>460.4</ele>
        <time>2021-03-27T12:11:34Z</time>
      </trkpt>
      <trkpt lat="46.14223" lon="6.30707">
        <ele>460.6</ele>
        <time>2021-03-27T12:11:35Z</time>
      </trkpt>
      <trkpt lat="46.14218" lon="6.30709">
        <ele>460.8</ele>
        <time>2021-03-27T12:11:36Z</time>
      </trkpt>
      <trkpt lat="46.14213" lon="6.30712">
        <ele>461</ele>
        <time>2021-03-27T12:11:37Z</time>
      </trkpt>
      <trkpt lat="46.14208" lon="6.30715">
        <ele>461</ele>
        <time>2021-03-27T12:11:38Z</time>
      </trkpt>
      <trkpt lat="46.14202" lon="6.30717">
        <ele>461.2</ele>
        <time>2021-03-27T12:11:39Z</time>
      </trkpt>
      <trkpt lat="46.14197" lon="6.30719">
        <ele>461.4</ele>
        <time>2021-03-27T12:11:40Z</time>
      </trkpt>
      <trkpt lat="46.14192" lon="6.30721">
        <ele>461.4</ele>
        <time>2021-03-27T12:11:41Z</time>
      </trkpt>
      <trkpt lat="46.14187" lon="6.30723">
        <ele>461.4</ele>
        <time>2021-03-27T12:11:42Z</time>
      </trkpt>
      <trkpt lat="46.14182" lon="6.30725">
        <ele>461.6</ele>
        <time>2021-03-27T12:11:43Z</time>
      </trkpt>
      <trkpt lat="46.14177" lon="6.30727">
        <ele>461.8</ele>
        <time>2021-03-27T12:11:44Z</time>
      </trkpt>
      <trkpt lat="46.14172" lon="6.30729">
        <ele>461.8</ele>
        <time>2021-03-27T12:11:45Z</time>
      </trkpt>
      <trkpt lat="46.14167" lon="6.30731">
        <ele>462.4</ele>
        <time>2021-03-27T12:11:46Z</time>
      </trkpt>
      <trkpt lat="46.14162" lon="6.30732">
        <ele>462.8</ele>
        <time>2021-03-27T12:11:47Z</time>
      </trkpt>
      <trkpt lat="46.14157" lon="6.30734">
        <ele>463.2</ele>
        <time>2021-03-27T12:11:48Z</time>
      </trkpt>
      <trkpt lat="46.14152" lon="6.30736">
        <ele>463.6</ele>
        <time>2021-03-27T12:11:49Z</time>
      </trkpt>
      <trkpt lat="46.14147" lon="6.30739">
        <ele>464.2</ele>
        <time>2021-03-27T12:11:50Z</time>
      </trkpt>
      <trkpt lat="46.14142" lon="6.30743">
        <ele>464.2</ele>
        <time>2021-03-27T12:11:51Z</time>
      </trkpt>
      <trkpt lat="46.14138" lon="6.30746">
        <ele>464.8</ele>
        <time>2021-03-27T12:11:52Z</time>
      </trkpt>
      <trkpt lat="46.14132" lon="6.30751">
        <ele>465</ele>
        <time>2021-03-27T12:11:53Z</time>
      </trkpt>
      <trkpt lat="46.14127" lon="6.30755">
        <ele>465.2</ele>
        <time>2021-03-27T12:11:54Z</time>
      </trkpt>
      <trkpt lat="46.14122" lon="6.30761">
        <ele>465.2</ele>
        <time>2021-03-27T12:11:55Z</time>
      </trkpt>
      <trkpt lat="46.14118" lon="6.30766">
        <ele>465.4</ele>
        <time>2021-03-27T12:11:56Z</time>
      </trkpt>
      <trkpt lat="46.14114" lon="6.30771">
        <ele>465.4</ele>
        <time>2021-03-27T12:11:57Z</time>
      </trkpt>
      <trkpt lat="46.1411" lon="6.30777">
        <ele>465.6</ele>
        <time>2021-03-27T12:11:58Z</time>
      </trkpt>
      <trkpt lat="46.14106" lon="6.30784">
        <ele>465.6</ele>
        <time>2021-03-27T12:11:59Z</time>
      </trkpt>
      <trkpt lat="46.14103" lon="6.3079">
        <ele>465.8</ele>
        <time>2021-03-27T12:12:00Z</time>
      </trkpt>
      <trkpt lat="46.141" lon="6.30797">
        <ele>466</ele>
        <time>2021-03-27T12:12:01Z</time>
      </trkpt>
      <trkpt lat="46.14098" lon="6.30804">
        <ele>466.2</ele>
        <time>2021-03-27T12:12:02Z</time>
      </trkpt>
      <trkpt lat="46.14095" lon="6.30811">
        <ele>466.2</ele>
        <time>2021-03-27T12:12:03Z</time>
      </trkpt>
      <trkpt lat="46.14092" lon="6.30817">
        <ele>466</ele>
        <time>2021-03-27T12:12:04Z</time>
      </trkpt>
      <trkpt lat="46.14087" lon="6.30819">
        <ele>466.2</ele>
        <time>2021-03-27T12:12:05Z</time>
      </trkpt>
      <trkpt lat="46.14081" lon="6.30819">
        <ele>466</ele>
        <time>2021-03-27T12:12:06Z</time>
      </trkpt>
      <trkpt lat="46.14076" lon="6.30817">
        <ele>466.2</ele>
        <time>2021-03-27T12:12:07Z</time>
      </trkpt>
      <trkpt lat="46.14069" lon="6.30815">
        <ele>466.2</ele>
        <time>2021-03-27T12:12:08Z</time>
      </trkpt>
      <trkpt lat="46.14063" lon="6.30813">
        <ele>466.2</ele>
        <time>2021-03-27T12:12:09Z</time>
      </trkpt>
      <trkpt lat="46.14058" lon="6.3081">
        <ele>466.2</ele>
        <time>2021-03-27T12:12:10Z</time>
      </trkpt>
      <trkpt lat="46.14053" lon="6.30806">
        <ele>466.2</ele>
        <time>2021-03-27T12:12:11Z</time>
      </trkpt>
      <trkpt lat="46.14047" lon="6.30802">
        <ele>466.2</ele>
        <time>2021-03-27T12:12:12Z</time>
      </trkpt>
      <trkpt lat="46.14042" lon="6.30798">
        <ele>466.2</ele>
        <time>2021-03-27T12:12:13Z</time>
      </trkpt>
      <trkpt lat="46.14037" lon="6.30793">
        <ele>466.2</ele>
        <time>2021-03-27T12:12:14Z</time>
      </trkpt>
      <trkpt lat="46.14032" lon="6.30788">
        <ele>466</ele>
        <time>2021-03-27T12:12:15Z</time>
      </trkpt>
      <trkpt lat="46.14027" lon="6.30784">
        <ele>466.2</ele>
        <time>2021-03-27T12:12:16Z</time>
      </trkpt>
      <trkpt lat="46.14022" lon="6.30779">
        <ele>466.2</ele>
        <time>2021-03-27T12:12:17Z</time>
      </trkpt>
      <trkpt lat="46.14017" lon="6.30778">
        <ele>466.2</ele>
        <time>2021-03-27T12:12:18Z</time>
      </trkpt>
      <trkpt lat="46.14012" lon="6.3078">
        <ele>466.4</ele>
        <time>2021-03-27T12:12:19Z</time>
      </trkpt>
      <trkpt lat="46.14008" lon="6.30785">
        <ele>466.2</ele>
        <time>2021-03-27T12:12:20Z</time>
      </trkpt>
      <trkpt lat="46.14004" lon="6.30793">
        <ele>466.4</ele>
        <time>2021-03-27T12:12:21Z</time>
      </trkpt>
      <trkpt lat="46.14001" lon="6.30801">
        <ele>466.6</ele>
        <time>2021-03-27T12:12:22Z</time>
      </trkpt>
      <trkpt lat="46.13998" lon="6.30809">
        <ele>466.6</ele>
        <time>2021-03-27T12:12:23Z</time>
      </trkpt>
      <trkpt lat="46.13995" lon="6.30818">
        <ele>466.6</ele>
        <time>2021-03-27T12:12:24Z</time>
      </trkpt>
      <trkpt lat="46.13991" lon="6.30826">
        <ele>466.6</ele>
        <time>2021-03-27T12:12:25Z</time>
      </trkpt>
      <trkpt lat="46.13987" lon="6.30835">
        <ele>466.8</ele>
        <time>2021-03-27T12:12:26Z</time>
      </trkpt>
      <trkpt lat="46.13983" lon="6.30843">
        <ele>466.6</ele>
        <time>2021-03-27T12:12:27Z</time>
      </trkpt>
      <trkpt lat="46.13979" lon="6.30849">
        <ele>466.6</ele>
        <time>2021-03-27T12:12:28Z</time>
      </trkpt>
      <trkpt lat="46.13974" lon="6.30854">
        <ele>466.6</ele>
        <time>2021-03-27T12:12:29Z</time>
      </trkpt>
      <trkpt lat="46.13968" lon="6.30857">
        <ele>466.8</ele>
        <time>2021-03-27T12:12:30Z</time>
      </trkpt>
      <trkpt lat="46.13962" lon="6.3086">
        <ele>466.8</ele>
        <time>2021-03-27T12:12:31Z</time>
      </trkpt>
      <trkpt lat="46.13956" lon="6.30861">
        <ele>466.8</ele>
        <time>2021-03-27T12:12:32Z</time>
      </trkpt>
      <trkpt lat="46.1395" lon="6.30864">
        <ele>466.8</ele>
        <time>2021-03-27T12:12:33Z</time>
      </trkpt>
      <trkpt lat="46.13944" lon="6.30867">
        <ele>466.8</ele>
        <time>2021-03-27T12:12:34Z</time>
      </trkpt>
      <trkpt lat="46.13939" lon="6.30872">
        <ele>466.8</ele>
        <time>2021-03-27T12:12:35Z</time>
      </trkpt>
      <trkpt lat="46.13933" lon="6.30877">
        <ele>467</ele>
        <time>2021-03-27T12:12:36Z</time>
      </trkpt>
      <trkpt lat="46.13928" lon="6.30884">
        <ele>467</ele>
        <time>2021-03-27T12:12:37Z</time>
      </trkpt>
      <trkpt lat="46.13924" lon="6.30891">
        <ele>467</ele>
        <time>2021-03-27T12:12:38Z</time>
      </trkpt>
      <trkpt lat="46.13919" lon="6.30898">
        <ele>466.8</ele>
        <time>2021-03-27T12:12:39Z</time>
      </trkpt>
      <trkpt lat="46.13915" lon="6.30906">
        <ele>467</ele>
        <time>2021-03-27T12:12:40Z</time>
      </trkpt>
      <trkpt lat="46.1391" lon="6.30913">
        <ele>467.2</ele>
        <time>2021-03-27T12:12:41Z</time>
      </trkpt>
      <trkpt lat="46.13905" lon="6.30921">
        <ele>467.4</ele>
        <time>2021-03-27T12:12:42Z</time>
      </trkpt>
      <trkpt lat="46.13901" lon="6.30928">
        <ele>467.4</ele>
        <time>2021-03-27T12:12:43Z</time>
      </trkpt>
      <trkpt lat="46.13896" lon="6.30935">
        <ele>467.4</ele>
        <time>2021-03-27T12:12:44Z</time>
      </trkpt>
      <trkpt lat="46.13891" lon="6.30942">
        <ele>467.6</ele>
        <time>2021-03-27T12:12:45Z</time>
      </trkpt>
      <trkpt lat="46.13886" lon="6.30949">
        <ele>467.6</ele>
        <time>2021-03-27T12:12:46Z</time>
      </trkpt>
      <trkpt lat="46.13881" lon="6.30956">
        <ele>467.6</ele>
        <time>2021-03-27T12:12:47Z</time>
      </trkpt>
      <trkpt lat="46.13876" lon="6.30963">
        <ele>467.6</ele>
        <time>2021-03-27T12:12:48Z</time>
      </trkpt>
      <trkpt lat="46.13871" lon="6.30969">
        <ele>467.6</ele>
        <time>2021-03-27T12:12:49Z</time>
      </trkpt>
      <trkpt lat="46.13866" lon="6.30976">
        <ele>467.6</ele>
        <time>2021-03-27T12:12:50Z</time>
      </trkpt>
      <trkpt lat="46.13861" lon="6.30982">
        <ele>467.6</ele>
        <time>2021-03-27T12:12:51Z</time>
      </trkpt>
      <trkpt lat="46.13856" lon="6.30989">
        <ele>467.6</ele>
        <time>2021-03-27T12:12:52Z</time>
      </trkpt>
      <trkpt lat="46.13851" lon="6.30995">
        <ele>467.6</ele>
        <time>2021-03-27T12:12:53Z</time>
      </trkpt>
      <trkpt lat="46.13846" lon="6.31002">
        <ele>467.4</ele>
        <time>2021-03-27T12:12:54Z</time>
      </trkpt>
      <trkpt lat="46.13841" lon="6.31009">
        <ele>467.4</ele>
        <time>2021-03-27T12:12:55Z</time>
      </trkpt>
      <trkpt lat="46.13837" lon="6.31015">
        <ele>467.4</ele>
        <time>2021-03-27T12:12:56Z</time>
      </trkpt>
      <trkpt lat="46.13832" lon="6.31022">
        <ele>467.4</ele>
        <time>2021-03-27T12:12:57Z</time>
      </trkpt>
      <trkpt lat="46.13828" lon="6.31031">
        <ele>467.6</ele>
        <time>2021-03-27T12:12:58Z</time>
      </trkpt>
      <trkpt lat="46.13824" lon="6.3104">
        <ele>467.6</ele>
        <time>2021-03-27T12:12:59Z</time>
      </trkpt>
      <trkpt lat="46.1382" lon="6.31049">
        <ele>467.4</ele>
        <time>2021-03-27T12:13:00Z</time>
      </trkpt>
      <trkpt lat="46.13816" lon="6.31059">
        <ele>467.4</ele>
        <time>2021-03-27T12:13:01Z</time>
      </trkpt>
      <trkpt lat="46.13812" lon="6.31069">
        <ele>467.4</ele>
        <time>2021-03-27T12:13:02Z</time>
      </trkpt>
      <trkpt lat="46.13808" lon="6.31079">
        <ele>467.4</ele>
        <time>2021-03-27T12:13:03Z</time>
      </trkpt>
      <trkpt lat="46.13804" lon="6.31091">
        <ele>467.2</ele>
        <time>2021-03-27T12:13:04Z</time>
      </trkpt>
      <trkpt lat="46.138" lon="6.31103">
        <ele>467.2</ele>
        <time>2021-03-27T12:13:05Z</time>
      </trkpt>
      <trkpt lat="46.13796" lon="6.31115">
        <ele>466.8</ele>
        <time>2021-03-27T12:13:06Z</time>
      </trkpt>
      <trkpt lat="46.13792" lon="6.31128">
        <ele>466.6</ele>
        <time>2021-03-27T12:13:07Z</time>
      </trkpt>
      <trkpt lat="46.13788" lon="6.3114">
        <ele>466.2</ele>
        <time>2021-03-27T12:13:08Z</time>
      </trkpt>
      <trkpt lat="46.13784" lon="6.31152">
        <ele>466</ele>
        <time>2021-03-27T12:13:09Z</time>
      </trkpt>
      <trkpt lat="46.13779" lon="6.31164">
        <ele>464.8</ele>
        <time>2021-03-27T12:13:10Z</time>
      </trkpt>
      <trkpt lat="46.13775" lon="6.31175">
        <ele>464.4</ele>
        <time>2021-03-27T12:13:11Z</time>
      </trkpt>
      <trkpt lat="46.1377" lon="6.31187">
        <ele>463.4</ele>
        <time>2021-03-27T12:13:12Z</time>
      </trkpt>
      <trkpt lat="46.13765" lon="6.31198">
        <ele>462.8</ele>
        <time>2021-03-27T12:13:13Z</time>
      </trkpt>
      <trkpt lat="46.13759" lon="6.3121">
        <ele>462</ele>
        <time>2021-03-27T12:13:14Z</time>
      </trkpt>
      <trkpt lat="46.13753" lon="6.31223">
        <ele>461.4</ele>
        <time>2021-03-27T12:13:15Z</time>
      </trkpt>
      <trkpt lat="46.13746" lon="6.31236">
        <ele>460.2</ele>
        <time>2021-03-27T12:13:16Z</time>
      </trkpt>
      <trkpt lat="46.13738" lon="6.31249">
        <ele>459.6</ele>
        <time>2021-03-27T12:13:17Z</time>
      </trkpt>
      <trkpt lat="46.1373" lon="6.31261">
        <ele>459.2</ele>
        <time>2021-03-27T12:13:18Z</time>
      </trkpt>
      <trkpt lat="46.13722" lon="6.31273">
        <ele>458.8</ele>
        <time>2021-03-27T12:13:19Z</time>
      </trkpt>
      <trkpt lat="46.13715" lon="6.31284">
        <ele>458.6</ele>
        <time>2021-03-27T12:13:20Z</time>
      </trkpt>
      <trkpt lat="46.13708" lon="6.31294">
        <ele>457.4</ele>
        <time>2021-03-27T12:13:21Z</time>
      </trkpt>
      <trkpt lat="46.13702" lon="6.31303">
        <ele>455.6</ele>
        <time>2021-03-27T12:13:22Z</time>
      </trkpt>
      <trkpt lat="46.13696" lon="6.31312">
        <ele>453.4</ele>
        <time>2021-03-27T12:13:23Z</time>
      </trkpt>
      <trkpt lat="46.1369" lon="6.3132">
        <ele>451.6</ele>
        <time>2021-03-27T12:13:24Z</time>
      </trkpt>
      <trkpt lat="46.13685" lon="6.31326">
        <ele>450</ele>
        <time>2021-03-27T12:13:25Z</time>
      </trkpt>
      <trkpt lat="46.1368" lon="6.3133">
        <ele>449</ele>
        <time>2021-03-27T12:13:26Z</time>
      </trkpt>
      <trkpt lat="46.13675" lon="6.3133">
        <ele>448.6</ele>
        <time>2021-03-27T12:13:27Z</time>
      </trkpt>
      <trkpt lat="46.1367" lon="6.31327">
        <ele>448.2</ele>
        <time>2021-03-27T12:13:28Z</time>
      </trkpt>
      <trkpt lat="46.13665" lon="6.31321">
        <ele>448</ele>
        <time>2021-03-27T12:13:29Z</time>
      </trkpt>
      <trkpt lat="46.1366" lon="6.31314">
        <ele>447.6</ele>
        <time>2021-03-27T12:13:30Z</time>
      </trkpt>
      <trkpt lat="46.13654" lon="6.31307">
        <ele>447.4</ele>
        <time>2021-03-27T12:13:31Z</time>
      </trkpt>
      <trkpt lat="46.13648" lon="6.31299">
        <ele>447.2</ele>
        <time>2021-03-27T12:13:32Z</time>
      </trkpt>
      <trkpt lat="46.13642" lon="6.31292">
        <ele>447</ele>
        <time>2021-03-27T12:13:33Z</time>
      </trkpt>
      <trkpt lat="46.13636" lon="6.31284">
        <ele>447</ele>
        <time>2021-03-27T12:13:34Z</time>
      </trkpt>
      <trkpt lat="46.1363" lon="6.31276">
        <ele>446.8</ele>
        <time>2021-03-27T12:13:35Z</time>
      </trkpt>
      <trkpt lat="46.13623" lon="6.31268">
        <ele>447</ele>
        <time>2021-03-27T12:13:36Z</time>
      </trkpt>
      <trkpt lat="46.13617" lon="6.31261">
        <ele>446.8</ele>
        <time>2021-03-27T12:13:37Z</time>
      </trkpt>
      <trkpt lat="46.1361" lon="6.31253">
        <ele>446.6</ele>
        <time>2021-03-27T12:13:38Z</time>
      </trkpt>
      <trkpt lat="46.13604" lon="6.31245">
        <ele>446.6</ele>
        <time>2021-03-27T12:13:39Z</time>
      </trkpt>
      <trkpt lat="46.13597" lon="6.31237">
        <ele>446.4</ele>
        <time>2021-03-27T12:13:40Z</time>
      </trkpt>
      <trkpt lat="46.1359" lon="6.31229">
        <ele>446</ele>
        <time>2021-03-27T12:13:41Z</time>
      </trkpt>
      <trkpt lat="46.13583" lon="6.31221">
        <ele>445.4</ele>
        <time>2021-03-27T12:13:42Z</time>
      </trkpt>
      <trkpt lat="46.13576" lon="6.31214">
        <ele>445</ele>
        <time>2021-03-27T12:13:43Z</time>
      </trkpt>
      <trkpt lat="46.13569" lon="6.31206">
        <ele>444.8</ele>
        <time>2021-03-27T12:13:44Z</time>
      </trkpt>
      <trkpt lat="46.13562" lon="6.312">
        <ele>444.6</ele>
        <time>2021-03-27T12:13:45Z</time>
      </trkpt>
      <trkpt lat="46.13554" lon="6.31194">
        <ele>444.4</ele>
        <time>2021-03-27T12:13:46Z</time>
      </trkpt>
      <trkpt lat="46.13545" lon="6.3119">
        <ele>443.8</ele>
        <time>2021-03-27T12:13:47Z</time>
      </trkpt>
      <trkpt lat="46.13536" lon="6.31187">
        <ele>443.6</ele>
        <time>2021-03-27T12:13:48Z</time>
      </trkpt>
      <trkpt lat="46.13526" lon="6.31186">
        <ele>443.4</ele>
        <time>2021-03-27T12:13:49Z</time>
      </trkpt>
      <trkpt lat="46.13517" lon="6.31187">
        <ele>443.2</ele>
        <time>2021-03-27T12:13:50Z</time>
      </trkpt>
      <trkpt lat="46.13507" lon="6.31189">
        <ele>442.8</ele>
        <time>2021-03-27T12:13:51Z</time>
      </trkpt>
      <trkpt lat="46.13498" lon="6.31193">
        <ele>441.8</ele>
        <time>2021-03-27T12:13:52Z</time>
      </trkpt>
      <trkpt lat="46.13489" lon="6.31197">
        <ele>441.6</ele>
        <time>2021-03-27T12:13:53Z</time>
      </trkpt>
      <trkpt lat="46.13479" lon="6.31201">
        <ele>441.2</ele>
        <time>2021-03-27T12:13:54Z</time>
      </trkpt>
      <trkpt lat="46.13469" lon="6.31206">
        <ele>441</ele>
        <time>2021-03-27T12:13:55Z</time>
      </trkpt>
      <trkpt lat="46.1346" lon="6.3121">
        <ele>441</ele>
        <time>2021-03-27T12:13:56Z</time>
      </trkpt>
      <trkpt lat="46.1345" lon="6.31215">
        <ele>440.6</ele>
        <time>2021-03-27T12:13:57Z</time>
      </trkpt>
      <trkpt lat="46.1344" lon="6.3122">
        <ele>439.8</ele>
        <time>2021-03-27T12:13:58Z</time>
      </trkpt>
      <trkpt lat="46.1343" lon="6.31224">
        <ele>439.4</ele>
        <time>2021-03-27T12:13:59Z</time>
      </trkpt>
      <trkpt lat="46.13421" lon="6.31229">
        <ele>439</ele>
        <time>2021-03-27T12:14:00Z</time>
      </trkpt>
      <trkpt lat="46.13411" lon="6.31233">
        <ele>438.6</ele>
        <time>2021-03-27T12:14:01Z</time>
      </trkpt>
      <trkpt lat="46.13402" lon="6.31237">
        <ele>438.4</ele>
        <time>2021-03-27T12:14:02Z</time>
      </trkpt>
      <trkpt lat="46.13394" lon="6.31241">
        <ele>438.2</ele>
        <time>2021-03-27T12:14:03Z</time>
      </trkpt>
      <trkpt lat="46.13386" lon="6.31244">
        <ele>438</ele>
        <time>2021-03-27T12:14:04Z</time>
      </trkpt>
      <trkpt lat="46.13372" lon="6.31251">
        <ele>437.8</ele>
        <time>2021-03-27T12:14:06Z</time>
      </trkpt>
      <trkpt lat="46.13366" lon="6.31254">
        <ele>438</ele>
        <time>2021-03-27T12:14:07Z</time>
      </trkpt>
      <trkpt lat="46.13359" lon="6.31256">
        <ele>438</ele>
        <time>2021-03-27T12:14:08Z</time>
      </trkpt>
      <trkpt lat="46.13353" lon="6.31259">
        <ele>437.8</ele>
        <time>2021-03-27T12:14:09Z</time>
      </trkpt>
      <trkpt lat="46.13347" lon="6.3126">
        <ele>437.8</ele>
        <time>2021-03-27T12:14:10Z</time>
      </trkpt>
      <trkpt lat="46.13341" lon="6.31261">
        <ele>438</ele>
        <time>2021-03-27T12:14:11Z</time>
      </trkpt>
      <trkpt lat="46.13336" lon="6.3126">
        <ele>438</ele>
        <time>2021-03-27T12:14:12Z</time>
      </trkpt>
      <trkpt lat="46.13331" lon="6.31258">
        <ele>437.8</ele>
        <time>2021-03-27T12:14:13Z</time>
      </trkpt>
      <trkpt lat="46.13328" lon="6.31255">
        <ele>438</ele>
        <time>2021-03-27T12:14:14Z</time>
      </trkpt>
      <trkpt lat="46.13325" lon="6.31251">
        <ele>438</ele>
        <time>2021-03-27T12:14:15Z</time>
      </trkpt>
      <trkpt lat="46.1332" lon="6.31242">
        <ele>438.6</ele>
        <time>2021-03-27T12:14:17Z</time>
      </trkpt>
      <trkpt lat="46.13318" lon="6.31239">
        <ele>439.2</ele>
        <time>2021-03-27T12:14:18Z</time>
      </trkpt>
      <trkpt lat="46.13316" lon="6.3124">
        <ele>439.4</ele>
        <time>2021-03-27T12:14:19Z</time>
      </trkpt>
      <trkpt lat="46.13316" lon="6.31242">
        <ele>439.6</ele>
        <time>2021-03-27T12:14:20Z</time>
      </trkpt>
      <trkpt lat="46.13317" lon="6.31245">
        <ele>439.8</ele>
        <time>2021-03-27T12:14:21Z</time>
      </trkpt>
      <trkpt lat="46.1332" lon="6.31248">
        <ele>439.8</ele>
        <time>2021-03-27T12:14:22Z</time>
      </trkpt>
      <trkpt lat="46.13322" lon="6.31252">
        <ele>440</ele>
        <time>2021-03-27T12:14:23Z</time>
      </trkpt>
      <trkpt lat="46.13324" lon="6.31255">
        <ele>440</ele>
        <time>2021-03-27T12:14:24Z</time>
      </trkpt>
      <trkpt lat="46.13325" lon="6.31259">
        <ele>440.2</ele>
        <time>2021-03-27T12:14:25Z</time>
      </trkpt>
      <trkpt lat="46.13325" lon="6.31263">
        <ele>440.2</ele>
        <time>2021-03-27T12:14:26Z</time>
      </trkpt>
      <trkpt lat="46.13325" lon="6.31266">
        <ele>440.4</ele>
        <time>2021-03-27T12:14:27Z</time>
      </trkpt>
      <trkpt lat="46.13322" lon="6.31269">
        <ele>440.4</ele>
        <time>2021-03-27T12:14:28Z</time>
      </trkpt>
      <trkpt lat="46.13319" lon="6.31271">
        <ele>440.4</ele>
        <time>2021-03-27T12:14:29Z</time>
      </trkpt>
      <trkpt lat="46.13315" lon="6.31272">
        <ele>440.6</ele>
        <time>2021-03-27T12:14:30Z</time>
      </trkpt>
      <trkpt lat="46.13311" lon="6.31273">
        <ele>440.6</ele>
        <time>2021-03-27T12:14:31Z</time>
      </trkpt>
      <trkpt lat="46.13306" lon="6.31273">
        <ele>440.6</ele>
        <time>2021-03-27T12:14:32Z</time>
      </trkpt>
      <trkpt lat="46.13302" lon="6.31273">
        <ele>440.8</ele>
        <time>2021-03-27T12:14:33Z</time>
      </trkpt>
      <trkpt lat="46.13298" lon="6.31273">
        <ele>440.8</ele>
        <time>2021-03-27T12:14:34Z</time>
      </trkpt>
      <trkpt lat="46.13294" lon="6.31272">
        <ele>441</ele>
        <time>2021-03-27T12:14:35Z</time>
      </trkpt>
      <trkpt lat="46.1329" lon="6.31271">
        <ele>441.2</ele>
        <time>2021-03-27T12:14:36Z</time>
      </trkpt>
      <trkpt lat="46.13286" lon="6.3127">
        <ele>441.6</ele>
        <time>2021-03-27T12:14:37Z</time>
      </trkpt>
      <trkpt lat="46.13282" lon="6.31269">
        <ele>441.8</ele>
        <time>2021-03-27T12:14:38Z</time>
      </trkpt>
      <trkpt lat="46.13278" lon="6.31268">
        <ele>442</ele>
        <time>2021-03-27T12:14:39Z</time>
      </trkpt>
      <trkpt lat="46.13274" lon="6.31267">
        <ele>442</ele>
        <time>2021-03-27T12:14:40Z</time>
      </trkpt>
      <trkpt lat="46.13269" lon="6.31265">
        <ele>442.4</ele>
        <time>2021-03-27T12:14:41Z</time>
      </trkpt>
      <trkpt lat="46.13265" lon="6.31264">
        <ele>442.6</ele>
        <time>2021-03-27T12:14:42Z</time>
      </trkpt>
      <trkpt lat="46.13261" lon="6.31263">
        <ele>442.8</ele>
        <time>2021-03-27T12:14:43Z</time>
      </trkpt>
      <trkpt lat="46.13257" lon="6.31262">
        <ele>443.4</ele>
        <time>2021-03-27T12:14:44Z</time>
      </trkpt>
      <trkpt lat="46.13253" lon="6.3126">
        <ele>443.6</ele>
        <time>2021-03-27T12:14:45Z</time>
      </trkpt>
      <trkpt lat="46.13249" lon="6.3126">
        <ele>444</ele>
        <time>2021-03-27T12:14:46Z</time>
      </trkpt>
      <trkpt lat="46.13245" lon="6.31259">
        <ele>444.2</ele>
        <time>2021-03-27T12:14:47Z</time>
      </trkpt>
      <trkpt lat="46.1324" lon="6.31258">
        <ele>444.4</ele>
        <time>2021-03-27T12:14:48Z</time>
      </trkpt>
      <trkpt lat="46.13236" lon="6.31258">
        <ele>444.4</ele>
        <time>2021-03-27T12:14:49Z</time>
      </trkpt>
      <trkpt lat="46.13231" lon="6.31258">
        <ele>444.6</ele>
        <time>2021-03-27T12:14:50Z</time>
      </trkpt>
      <trkpt lat="46.13227" lon="6.31258">
        <ele>444.8</ele>
        <time>2021-03-27T12:14:51Z</time>
      </trkpt>
      <trkpt lat="46.13222" lon="6.31258">
        <ele>444.8</ele>
        <time>2021-03-27T12:14:52Z</time>
      </trkpt>
      <trkpt lat="46.13217" lon="6.31258">
        <ele>445</ele>
        <time>2021-03-27T12:14:53Z</time>
      </trkpt>
      <trkpt lat="46.13212" lon="6.31259">
        <ele>445.4</ele>
        <time>2021-03-27T12:14:54Z</time>
      </trkpt>
      <trkpt lat="46.13207" lon="6.3126">
        <ele>445.4</ele>
        <time>2021-03-27T12:14:55Z</time>
      </trkpt>
      <trkpt lat="46.13201" lon="6.3126">
        <ele>445.6</ele>
        <time>2021-03-27T12:14:56Z</time>
      </trkpt>
      <trkpt lat="46.13196" lon="6.31261">
        <ele>446</ele>
        <time>2021-03-27T12:14:57Z</time>
      </trkpt>
      <trkpt lat="46.1319" lon="6.31262">
        <ele>446.2</ele>
        <time>2021-03-27T12:14:58Z</time>
      </trkpt>
      <trkpt lat="46.13184" lon="6.31263">
        <ele>446.6</ele>
        <time>2021-03-27T12:14:59Z</time>
      </trkpt>
      <trkpt lat="46.13179" lon="6.31264">
        <ele>447</ele>
        <time>2021-03-27T12:15:00Z</time>
      </trkpt>
      <trkpt lat="46.13173" lon="6.31265">
        <ele>447.4</ele>
        <time>2021-03-27T12:15:01Z</time>
      </trkpt>
      <trkpt lat="46.13167" lon="6.31266">
        <ele>447.2</ele>
        <time>2021-03-27T12:15:02Z</time>
      </trkpt>
      <trkpt lat="46.13161" lon="6.31267">
        <ele>447.6</ele>
        <time>2021-03-27T12:15:03Z</time>
      </trkpt>
      <trkpt lat="46.13155" lon="6.31267">
        <ele>447.6</ele>
        <time>2021-03-27T12:15:04Z</time>
      </trkpt>
      <trkpt lat="46.13149" lon="6.31268">
        <ele>447.6</ele>
        <time>2021-03-27T12:15:05Z</time>
      </trkpt>
      <trkpt lat="46.13142" lon="6.31269">
        <ele>447.6</ele>
        <time>2021-03-27T12:15:06Z</time>
      </trkpt>
      <trkpt lat="46.13136" lon="6.3127">
        <ele>447.4</ele>
        <time>2021-03-27T12:15:07Z</time>
      </trkpt>
      <trkpt lat="46.1313" lon="6.31271">
        <ele>447.6</ele>
        <time>2021-03-27T12:15:08Z</time>
      </trkpt>
      <trkpt lat="46.13124" lon="6.31272">
        <ele>447.6</ele>
        <time>2021-03-27T12:15:09Z</time>
      </trkpt>
      <trkpt lat="46.13118" lon="6.31273">
        <ele>447.4</ele>
        <time>2021-03-27T12:15:10Z</time>
      </trkpt>
      <trkpt lat="46.13112" lon="6.31274">
        <ele>447.4</ele>
        <time>2021-03-27T12:15:11Z</time>
      </trkpt>
      <trkpt lat="46.13106" lon="6.31275">
        <ele>447.6</ele>
        <time>2021-03-27T12:15:12Z</time>
      </trkpt>
      <trkpt lat="46.131" lon="6.31276">
        <ele>447.2</ele>
        <time>2021-03-27T12:15:13Z</time>
      </trkpt>
      <trkpt lat="46.13094" lon="6.31277">
        <ele>447.2</ele>
        <time>2021-03-27T12:15:14Z</time>
      </trkpt>
      <trkpt lat="46.13088" lon="6.31278">
        <ele>447.2</ele>
        <time>2021-03-27T12:15:15Z</time>
      </trkpt>
      <trkpt lat="46.13081" lon="6.31279">
        <ele>447.2</ele>
        <time>2021-03-27T12:15:16Z</time>
      </trkpt>
      <trkpt lat="46.13075" lon="6.3128">
        <ele>447</ele>
        <time>2021-03-27T12:15:17Z</time>
      </trkpt>
      <trkpt lat="46.13069" lon="6.31281">
        <ele>447</ele>
        <time>2021-03-27T12:15:18Z</time>
      </trkpt>
      <trkpt lat="46.13062" lon="6.31282">
        <ele>447</ele>
        <time>2021-03-27T12:15:19Z</time>
      </trkpt>
      <trkpt lat="46.13056" lon="6.31283">
        <ele>447</ele>
        <time>2021-03-27T12:15:20Z</time>
      </trkpt>
      <trkpt lat="46.1305" lon="6.31284">
        <ele>447</ele>
        <time>2021-03-27T12:15:21Z</time>
      </trkpt>
      <trkpt lat="46.13043" lon="6.31285">
        <ele>447</ele>
        <time>2021-03-27T12:15:22Z</time>
      </trkpt>
      <trkpt lat="46.13036" lon="6.31286">
        <ele>447</ele>
        <time>2021-03-27T12:15:23Z</time>
      </trkpt>
      <trkpt lat="46.1303" lon="6.31287">
        <ele>447</ele>
        <time>2021-03-27T12:15:24Z</time>
      </trkpt>
      <trkpt lat="46.13023" lon="6.31288">
        <ele>447</ele>
        <time>2021-03-27T12:15:25Z</time>
      </trkpt>
      <trkpt lat="46.13016" lon="6.31289">
        <ele>447</ele>
        <time>2021-03-27T12:15:26Z</time>
      </trkpt>
      <trkpt lat="46.13009" lon="6.3129">
        <ele>447</ele>
        <time>2021-03-27T12:15:27Z</time>
      </trkpt>
      <trkpt lat="46.13003" lon="6.31291">
        <ele>447</ele>
        <time>2021-03-27T12:15:28Z</time>
      </trkpt>
      <trkpt lat="46.12996" lon="6.31292">
        <ele>447</ele>
        <time>2021-03-27T12:15:29Z</time>
      </trkpt>
      <trkpt lat="46.12989" lon="6.31293">
        <ele>447.2</ele>
        <time>2021-03-27T12:15:30Z</time>
      </trkpt>
      <trkpt lat="46.12982" lon="6.31294">
        <ele>447</ele>
        <time>2021-03-27T12:15:31Z</time>
      </trkpt>
      <trkpt lat="46.12976" lon="6.31296">
        <ele>447.2</ele>
        <time>2021-03-27T12:15:32Z</time>
      </trkpt>
      <trkpt lat="46.12969" lon="6.31297">
        <ele>447</ele>
        <time>2021-03-27T12:15:33Z</time>
      </trkpt>
      <trkpt lat="46.12963" lon="6.31298">
        <ele>447.2</ele>
        <time>2021-03-27T12:15:34Z</time>
      </trkpt>
      <trkpt lat="46.12956" lon="6.31299">
        <ele>447.2</ele>
        <time>2021-03-27T12:15:35Z</time>
      </trkpt>
      <trkpt lat="46.1295" lon="6.313">
        <ele>447.2</ele>
        <time>2021-03-27T12:15:36Z</time>
      </trkpt>
      <trkpt lat="46.12944" lon="6.31301">
        <ele>447.4</ele>
        <time>2021-03-27T12:15:37Z</time>
      </trkpt>
      <trkpt lat="46.12937" lon="6.31302">
        <ele>447.4</ele>
        <time>2021-03-27T12:15:38Z</time>
      </trkpt>
      <trkpt lat="46.12931" lon="6.31303">
        <ele>447.4</ele>
        <time>2021-03-27T12:15:39Z</time>
      </trkpt>
      <trkpt lat="46.12924" lon="6.31304">
        <ele>447.4</ele>
        <time>2021-03-27T12:15:40Z</time>
      </trkpt>
      <trkpt lat="46.12918" lon="6.31305">
        <ele>447.6</ele>
        <time>2021-03-27T12:15:41Z</time>
      </trkpt>
      <trkpt lat="46.12912" lon="6.31305">
        <ele>447.6</ele>
        <time>2021-03-27T12:15:42Z</time>
      </trkpt>
      <trkpt lat="46.12905" lon="6.31306">
        <ele>447.4</ele>
        <time>2021-03-27T12:15:43Z</time>
      </trkpt>
      <trkpt lat="46.12899" lon="6.31308">
        <ele>447.6</ele>
        <time>2021-03-27T12:15:44Z</time>
      </trkpt>
      <trkpt lat="46.12892" lon="6.31309">
        <ele>447.6</ele>
        <time>2021-03-27T12:15:45Z</time>
      </trkpt>
      <trkpt lat="46.12885" lon="6.3131">
        <ele>447.6</ele>
        <time>2021-03-27T12:15:46Z</time>
      </trkpt>
      <trkpt lat="46.12879" lon="6.31311">
        <ele>447.6</ele>
        <time>2021-03-27T12:15:47Z</time>
      </trkpt>
      <trkpt lat="46.12872" lon="6.31312">
        <ele>447.8</ele>
        <time>2021-03-27T12:15:48Z</time>
      </trkpt>
      <trkpt lat="46.12866" lon="6.31313">
        <ele>447.8</ele>
        <time>2021-03-27T12:15:49Z</time>
      </trkpt>
      <trkpt lat="46.12859" lon="6.31314">
        <ele>448</ele>
        <time>2021-03-27T12:15:50Z</time>
      </trkpt>
      <trkpt lat="46.12853" lon="6.31315">
        <ele>448</ele>
        <time>2021-03-27T12:15:51Z</time>
      </trkpt>
      <trkpt lat="46.12839" lon="6.31317">
        <ele>448.2</ele>
        <time>2021-03-27T12:15:53Z</time>
      </trkpt>
      <trkpt lat="46.12833" lon="6.31318">
        <ele>448.2</ele>
        <time>2021-03-27T12:15:54Z</time>
      </trkpt>
      <trkpt lat="46.12826" lon="6.31319">
        <ele>448.2</ele>
        <time>2021-03-27T12:15:55Z</time>
      </trkpt>
      <trkpt lat="46.1282" lon="6.3132">
        <ele>448.2</ele>
        <time>2021-03-27T12:15:56Z</time>
      </trkpt>
      <trkpt lat="46.12813" lon="6.31321">
        <ele>448.4</ele>
        <time>2021-03-27T12:15:57Z</time>
      </trkpt>
      <trkpt lat="46.12806" lon="6.31322">
        <ele>448.4</ele>
        <time>2021-03-27T12:15:58Z</time>
      </trkpt>
      <trkpt lat="46.128" lon="6.31323">
        <ele>448.4</ele>
        <time>2021-03-27T12:15:59Z</time>
      </trkpt>
      <trkpt lat="46.12793" lon="6.31324">
        <ele>448.4</ele>
        <time>2021-03-27T12:16:00Z</time>
      </trkpt>
      <trkpt lat="46.12786" lon="6.31325">
        <ele>448.4</ele>
        <time>2021-03-27T12:16:01Z</time>
      </trkpt>
      <trkpt lat="46.12779" lon="6.31326">
        <ele>448.6</ele>
        <time>2021-03-27T12:16:02Z</time>
      </trkpt>
      <trkpt lat="46.12773" lon="6.31327">
        <ele>448.6</ele>
        <time>2021-03-27T12:16:03Z</time>
      </trkpt>
      <trkpt lat="46.12766" lon="6.31328">
        <ele>448.6</ele>
        <time>2021-03-27T12:16:04Z</time>
      </trkpt>
      <trkpt lat="46.1276" lon="6.31329">
        <ele>448.6</ele>
        <time>2021-03-27T12:16:05Z</time>
      </trkpt>
      <trkpt lat="46.12753" lon="6.3133">
        <ele>448.8</ele>
        <time>2021-03-27T12:16:06Z</time>
      </trkpt>
      <trkpt lat="46.12747" lon="6.31331">
        <ele>448.8</ele>
        <time>2021-03-27T12:16:07Z</time>
      </trkpt>
      <trkpt lat="46.12741" lon="6.31332">
        <ele>448.8</ele>
        <time>2021-03-27T12:16:08Z</time>
      </trkpt>
      <trkpt lat="46.12735" lon="6.31333">
        <ele>449</ele>
        <time>2021-03-27T12:16:09Z</time>
      </trkpt>
      <trkpt lat="46.12729" lon="6.31334">
        <ele>449</ele>
        <time>2021-03-27T12:16:10Z</time>
      </trkpt>
      <trkpt lat="46.12723" lon="6.31335">
        <ele>449</ele>
        <time>2021-03-27T12:16:11Z</time>
      </trkpt>
      <trkpt lat="46.12716" lon="6.31336">
        <ele>449</ele>
        <time>2021-03-27T12:16:12Z</time>
      </trkpt>
      <trkpt lat="46.1271" lon="6.31336">
        <ele>449.2</ele>
        <time>2021-03-27T12:16:13Z</time>
      </trkpt>
      <trkpt lat="46.12704" lon="6.31337">
        <ele>449.2</ele>
        <time>2021-03-27T12:16:14Z</time>
      </trkpt>
      <trkpt lat="46.12698" lon="6.31338">
        <ele>449.4</ele>
        <time>2021-03-27T12:16:15Z</time>
      </trkpt>
      <trkpt lat="46.12692" lon="6.31339">
        <ele>449.4</ele>
        <time>2021-03-27T12:16:16Z</time>
      </trkpt>
      <trkpt lat="46.12686" lon="6.3134">
        <ele>449.4</ele>
        <time>2021-03-27T12:16:17Z</time>
      </trkpt>
      <trkpt lat="46.1268" lon="6.31341">
        <ele>449.6</ele>
        <time>2021-03-27T12:16:18Z</time>
      </trkpt>
      <trkpt lat="46.12675" lon="6.31342">
        <ele>449.8</ele>
        <time>2021-03-27T12:16:19Z</time>
      </trkpt>
      <trkpt lat="46.12669" lon="6.31343">
        <ele>450</ele>
        <time>2021-03-27T12:16:20Z</time>
      </trkpt>
      <trkpt lat="46.12663" lon="6.31344">
        <ele>450</ele>
        <time>2021-03-27T12:16:21Z</time>
      </trkpt>
      <trkpt lat="46.12658" lon="6.31345">
        <ele>450.2</ele>
        <time>2021-03-27T12:16:22Z</time>
      </trkpt>
      <trkpt lat="46.12652" lon="6.31346">
        <ele>450.2</ele>
        <time>2021-03-27T12:16:23Z</time>
      </trkpt>
      <trkpt lat="46.12647" lon="6.31347">
        <ele>450.2</ele>
        <time>2021-03-27T12:16:24Z</time>
      </trkpt>
      <trkpt lat="46.12641" lon="6.31348">
        <ele>450.4</ele>
        <time>2021-03-27T12:16:25Z</time>
      </trkpt>
      <trkpt lat="46.12636" lon="6.31349">
        <ele>450.4</ele>
        <time>2021-03-27T12:16:26Z</time>
      </trkpt>
      <trkpt lat="46.1263" lon="6.31349">
        <ele>451</ele>
        <time>2021-03-27T12:16:27Z</time>
      </trkpt>
      <trkpt lat="46.12625" lon="6.3135">
        <ele>451.4</ele>
        <time>2021-03-27T12:16:28Z</time>
      </trkpt>
      <trkpt lat="46.12619" lon="6.31351">
        <ele>451.6</ele>
        <time>2021-03-27T12:16:29Z</time>
      </trkpt>
      <trkpt lat="46.12614" lon="6.31352">
        <ele>451.8</ele>
        <time>2021-03-27T12:16:30Z</time>
      </trkpt>
      <trkpt lat="46.12608" lon="6.31353">
        <ele>452.2</ele>
        <time>2021-03-27T12:16:31Z</time>
      </trkpt>
      <trkpt lat="46.12603" lon="6.31354">
        <ele>452.4</ele>
        <time>2021-03-27T12:16:32Z</time>
      </trkpt>
      <trkpt lat="46.12597" lon="6.31354">
        <ele>452.8</ele>
        <time>2021-03-27T12:16:33Z</time>
      </trkpt>
      <trkpt lat="46.12592" lon="6.31355">
        <ele>453.2</ele>
        <time>2021-03-27T12:16:34Z</time>
      </trkpt>
      <trkpt lat="46.12587" lon="6.31356">
        <ele>453.4</ele>
        <time>2021-03-27T12:16:35Z</time>
      </trkpt>
      <trkpt lat="46.12581" lon="6.31357">
        <ele>453.6</ele>
        <time>2021-03-27T12:16:36Z</time>
      </trkpt>
      <trkpt lat="46.12576" lon="6.31358">
        <ele>453.8</ele>
        <time>2021-03-27T12:16:37Z</time>
      </trkpt>
      <trkpt lat="46.12571" lon="6.31359">
        <ele>454</ele>
        <time>2021-03-27T12:16:38Z</time>
      </trkpt>
      <trkpt lat="46.12565" lon="6.3136">
        <ele>454.2</ele>
        <time>2021-03-27T12:16:39Z</time>
      </trkpt>
      <trkpt lat="46.1256" lon="6.31361">
        <ele>454.2</ele>
        <time>2021-03-27T12:16:40Z</time>
      </trkpt>
      <trkpt lat="46.12555" lon="6.31361">
        <ele>454.6</ele>
        <time>2021-03-27T12:16:41Z</time>
      </trkpt>
      <trkpt lat="46.1255" lon="6.31362">
        <ele>455</ele>
        <time>2021-03-27T12:16:42Z</time>
      </trkpt>
      <trkpt lat="46.12544" lon="6.31363">
        <ele>455.4</ele>
        <time>2021-03-27T12:16:43Z</time>
      </trkpt>
      <trkpt lat="46.12539" lon="6.31364">
        <ele>455.6</ele>
        <time>2021-03-27T12:16:44Z</time>
      </trkpt>
      <trkpt lat="46.12534" lon="6.31365">
        <ele>456</ele>
        <time>2021-03-27T12:16:45Z</time>
      </trkpt>
      <trkpt lat="46.12528" lon="6.31366">
        <ele>456.2</ele>
        <time>2021-03-27T12:16:46Z</time>
      </trkpt>
      <trkpt lat="46.12523" lon="6.31366">
        <ele>456.4</ele>
        <time>2021-03-27T12:16:47Z</time>
      </trkpt>
      <trkpt lat="46.12518" lon="6.31367">
        <ele>456.6</ele>
        <time>2021-03-27T12:16:48Z</time>
      </trkpt>
      <trkpt lat="46.12513" lon="6.31368">
        <ele>456.8</ele>
        <time>2021-03-27T12:16:49Z</time>
      </trkpt>
      <trkpt lat="46.12508" lon="6.31369">
        <ele>457</ele>
        <time>2021-03-27T12:16:50Z</time>
      </trkpt>
      <trkpt lat="46.12503" lon="6.31369">
        <ele>457.2</ele>
        <time>2021-03-27T12:16:51Z</time>
      </trkpt>
      <trkpt lat="46.12497" lon="6.3137">
        <ele>457.4</ele>
        <time>2021-03-27T12:16:52Z</time>
      </trkpt>
      <trkpt lat="46.12492" lon="6.31371">
        <ele>457.4</ele>
        <time>2021-03-27T12:16:53Z</time>
      </trkpt>
      <trkpt lat="46.12486" lon="6.31371">
        <ele>457.8</ele>
        <time>2021-03-27T12:16:54Z</time>
      </trkpt>
      <trkpt lat="46.12481" lon="6.31372">
        <ele>457.8</ele>
        <time>2021-03-27T12:16:55Z</time>
      </trkpt>
      <trkpt lat="46.12475" lon="6.31372">
        <ele>458.2</ele>
        <time>2021-03-27T12:16:56Z</time>
      </trkpt>
      <trkpt lat="46.1247" lon="6.31372">
        <ele>458.4</ele>
        <time>2021-03-27T12:16:57Z</time>
      </trkpt>
      <trkpt lat="46.12464" lon="6.31373">
        <ele>458.4</ele>
        <time>2021-03-27T12:16:58Z</time>
      </trkpt>
      <trkpt lat="46.12459" lon="6.31373">
        <ele>458.6</ele>
        <time>2021-03-27T12:16:59Z</time>
      </trkpt>
      <trkpt lat="46.12453" lon="6.31373">
        <ele>458.8</ele>
        <time>2021-03-27T12:17:00Z</time>
      </trkpt>
      <trkpt lat="46.12448" lon="6.31373">
        <ele>459</ele>
        <time>2021-03-27T12:17:01Z</time>
      </trkpt>
      <trkpt lat="46.12442" lon="6.31373">
        <ele>459.2</ele>
        <time>2021-03-27T12:17:02Z</time>
      </trkpt>
      <trkpt lat="46.12437" lon="6.31373">
        <ele>459.2</ele>
        <time>2021-03-27T12:17:03Z</time>
      </trkpt>
      <trkpt lat="46.12431" lon="6.31373">
        <ele>459.4</ele>
        <time>2021-03-27T12:17:04Z</time>
      </trkpt>
      <trkpt lat="46.12426" lon="6.31373">
        <ele>459.4</ele>
        <time>2021-03-27T12:17:05Z</time>
      </trkpt>
      <trkpt lat="46.1242" lon="6.31373">
        <ele>459.8</ele>
        <time>2021-03-27T12:17:06Z</time>
      </trkpt>
      <trkpt lat="46.12415" lon="6.31373">
        <ele>459.8</ele>
        <time>2021-03-27T12:17:07Z</time>
      </trkpt>
      <trkpt lat="46.12409" lon="6.31373">
        <ele>459.8</ele>
        <time>2021-03-27T12:17:08Z</time>
      </trkpt>
      <trkpt lat="46.12403" lon="6.31373">
        <ele>460</ele>
        <time>2021-03-27T12:17:09Z</time>
      </trkpt>
      <trkpt lat="46.12398" lon="6.31373">
        <ele>460.4</ele>
        <time>2021-03-27T12:17:10Z</time>
      </trkpt>
      <trkpt lat="46.12392" lon="6.31373">
        <ele>460.6</ele>
        <time>2021-03-27T12:17:11Z</time>
      </trkpt>
      <trkpt lat="46.12386" lon="6.31373">
        <ele>460.8</ele>
        <time>2021-03-27T12:17:12Z</time>
      </trkpt>
      <trkpt lat="46.1238" lon="6.31373">
        <ele>461</ele>
        <time>2021-03-27T12:17:13Z</time>
      </trkpt>
      <trkpt lat="46.12374" lon="6.31372">
        <ele>461.2</ele>
        <time>2021-03-27T12:17:14Z</time>
      </trkpt>
      <trkpt lat="46.12369" lon="6.31372">
        <ele>461.4</ele>
        <time>2021-03-27T12:17:15Z</time>
      </trkpt>
      <trkpt lat="46.12363" lon="6.31372">
        <ele>461.8</ele>
        <time>2021-03-27T12:17:16Z</time>
      </trkpt>
      <trkpt lat="46.12357" lon="6.31372">
        <ele>461.8</ele>
        <time>2021-03-27T12:17:17Z</time>
      </trkpt>
      <trkpt lat="46.12351" lon="6.31372">
        <ele>461.8</ele>
        <time>2021-03-27T12:17:18Z</time>
      </trkpt>
      <trkpt lat="46.12345" lon="6.31372">
        <ele>461.8</ele>
        <time>2021-03-27T12:17:19Z</time>
      </trkpt>
      <trkpt lat="46.12339" lon="6.31372">
        <ele>462</ele>
        <time>2021-03-27T12:17:20Z</time>
      </trkpt>
      <trkpt lat="46.12327" lon="6.31372">
        <ele>462</ele>
        <time>2021-03-27T12:17:22Z</time>
      </trkpt>
      <trkpt lat="46.12316" lon="6.31372">
        <ele>462</ele>
        <time>2021-03-27T12:17:24Z</time>
      </trkpt>
      <trkpt lat="46.1231" lon="6.31372">
        <ele>462</ele>
        <time>2021-03-27T12:17:25Z</time>
      </trkpt>
      <trkpt lat="46.12304" lon="6.31371">
        <ele>462.2</ele>
        <time>2021-03-27T12:17:26Z</time>
      </trkpt>
      <trkpt lat="46.12298" lon="6.31371">
        <ele>462.2</ele>
        <time>2021-03-27T12:17:27Z</time>
      </trkpt>
      <trkpt lat="46.12292" lon="6.31371">
        <ele>462.2</ele>
        <time>2021-03-27T12:17:28Z</time>
      </trkpt>
      <trkpt lat="46.12286" lon="6.31371">
        <ele>462.4</ele>
        <time>2021-03-27T12:17:29Z</time>
      </trkpt>
      <trkpt lat="46.1228" lon="6.31371">
        <ele>462.6</ele>
        <time>2021-03-27T12:17:30Z</time>
      </trkpt>
      <trkpt lat="46.12274" lon="6.31371">
        <ele>462.6</ele>
        <time>2021-03-27T12:17:31Z</time>
      </trkpt>
      <trkpt lat="46.12263" lon="6.31371">
        <ele>462.6</ele>
        <time>2021-03-27T12:17:33Z</time>
      </trkpt>
      <trkpt lat="46.12257" lon="6.31371">
        <ele>462.8</ele>
        <time>2021-03-27T12:17:34Z</time>
      </trkpt>
      <trkpt lat="46.12251" lon="6.31371">
        <ele>463</ele>
        <time>2021-03-27T12:17:35Z</time>
      </trkpt>
      <trkpt lat="46.12239" lon="6.3137">
        <ele>463</ele>
        <time>2021-03-27T12:17:37Z</time>
      </trkpt>
      <trkpt lat="46.12232" lon="6.3137">
        <ele>463</ele>
        <time>2021-03-27T12:17:38Z</time>
      </trkpt>
      <trkpt lat="46.12226" lon="6.3137">
        <ele>463</ele>
        <time>2021-03-27T12:17:39Z</time>
      </trkpt>
      <trkpt lat="46.1222" lon="6.3137">
        <ele>463.2</ele>
        <time>2021-03-27T12:17:40Z</time>
      </trkpt>
      <trkpt lat="46.12214" lon="6.3137">
        <ele>463.2</ele>
        <time>2021-03-27T12:17:41Z</time>
      </trkpt>
      <trkpt lat="46.12207" lon="6.31371">
        <ele>463.2</ele>
        <time>2021-03-27T12:17:42Z</time>
      </trkpt>
      <trkpt lat="46.12201" lon="6.31371">
        <ele>463.2</ele>
        <time>2021-03-27T12:17:43Z</time>
      </trkpt>
      <trkpt lat="46.12195" lon="6.31372">
        <ele>463.2</ele>
        <time>2021-03-27T12:17:44Z</time>
      </trkpt>
      <trkpt lat="46.12182" lon="6.31372">
        <ele>463.2</ele>
        <time>2021-03-27T12:17:46Z</time>
      </trkpt>
      <trkpt lat="46.12176" lon="6.31371">
        <ele>463.2</ele>
        <time>2021-03-27T12:17:47Z</time>
      </trkpt>
      <trkpt lat="46.12169" lon="6.3137">
        <ele>463.2</ele>
        <time>2021-03-27T12:17:48Z</time>
      </trkpt>
      <trkpt lat="46.12163" lon="6.31368">
        <ele>463.4</ele>
        <time>2021-03-27T12:17:49Z</time>
      </trkpt>
      <trkpt lat="46.12157" lon="6.31365">
        <ele>463.4</ele>
        <time>2021-03-27T12:17:50Z</time>
      </trkpt>
      <trkpt lat="46.12152" lon="6.31361">
        <ele>463.4</ele>
        <time>2021-03-27T12:17:51Z</time>
      </trkpt>
      <trkpt lat="46.12146" lon="6.3136">
        <ele>463.2</ele>
        <time>2021-03-27T12:17:52Z</time>
      </trkpt>
      <trkpt lat="46.1214" lon="6.31361">
        <ele>463.4</ele>
        <time>2021-03-27T12:17:53Z</time>
      </trkpt>
      <trkpt lat="46.12136" lon="6.31367">
        <ele>463.2</ele>
        <time>2021-03-27T12:17:54Z</time>
      </trkpt>
      <trkpt lat="46.12134" lon="6.31374">
        <ele>463.4</ele>
        <time>2021-03-27T12:17:55Z</time>
      </trkpt>
      <trkpt lat="46.12133" lon="6.31383">
        <ele>463.4</ele>
        <time>2021-03-27T12:17:56Z</time>
      </trkpt>
      <trkpt lat="46.12133" lon="6.31392">
        <ele>463.2</ele>
        <time>2021-03-27T12:17:57Z</time>
      </trkpt>
      <trkpt lat="46.12133" lon="6.31402">
        <ele>463.2</ele>
        <time>2021-03-27T12:17:58Z</time>
      </trkpt>
      <trkpt lat="46.1213" lon="6.3141">
        <ele>463.4</ele>
        <time>2021-03-27T12:17:59Z</time>
      </trkpt>
      <trkpt lat="46.12126" lon="6.31416">
        <ele>463.6</ele>
        <time>2021-03-27T12:18:00Z</time>
      </trkpt>
      <trkpt lat="46.1212" lon="6.3142">
        <ele>463.6</ele>
        <time>2021-03-27T12:18:01Z</time>
      </trkpt>
      <trkpt lat="46.12114" lon="6.31422">
        <ele>463.8</ele>
        <time>2021-03-27T12:18:02Z</time>
      </trkpt>
      <trkpt lat="46.12108" lon="6.31424">
        <ele>463.8</ele>
        <time>2021-03-27T12:18:03Z</time>
      </trkpt>
      <trkpt lat="46.12101" lon="6.31427">
        <ele>463.8</ele>
        <time>2021-03-27T12:18:04Z</time>
      </trkpt>
      <trkpt lat="46.12095" lon="6.31429">
        <ele>463.8</ele>
        <time>2021-03-27T12:18:05Z</time>
      </trkpt>
      <trkpt lat="46.12088" lon="6.31431">
        <ele>463.8</ele>
        <time>2021-03-27T12:18:06Z</time>
      </trkpt>
      <trkpt lat="46.12082" lon="6.31434">
        <ele>463.8</ele>
        <time>2021-03-27T12:18:07Z</time>
      </trkpt>
      <trkpt lat="46.12076" lon="6.31437">
        <ele>463.8</ele>
        <time>2021-03-27T12:18:08Z</time>
      </trkpt>
      <trkpt lat="46.12071" lon="6.3144">
        <ele>463.8</ele>
        <time>2021-03-27T12:18:09Z</time>
      </trkpt>
      <trkpt lat="46.12065" lon="6.31444">
        <ele>463.8</ele>
        <time>2021-03-27T12:18:10Z</time>
      </trkpt>
      <trkpt lat="46.12061" lon="6.31447">
        <ele>463.8</ele>
        <time>2021-03-27T12:18:11Z</time>
      </trkpt>
      <trkpt lat="46.12056" lon="6.31451">
        <ele>463.6</ele>
        <time>2021-03-27T12:18:12Z</time>
      </trkpt>
      <trkpt lat="46.12052" lon="6.31456">
        <ele>463.6</ele>
        <time>2021-03-27T12:18:13Z</time>
      </trkpt>
      <trkpt lat="46.12048" lon="6.31461">
        <ele>463.4</ele>
        <time>2021-03-27T12:18:14Z</time>
      </trkpt>
      <trkpt lat="46.12043" lon="6.31467">
        <ele>463.4</ele>
        <time>2021-03-27T12:18:15Z</time>
      </trkpt>
      <trkpt lat="46.12038" lon="6.31473">
        <ele>463.4</ele>
        <time>2021-03-27T12:18:16Z</time>
      </trkpt>
      <trkpt lat="46.12033" lon="6.31479">
        <ele>463.4</ele>
        <time>2021-03-27T12:18:17Z</time>
      </trkpt>
      <trkpt lat="46.12028" lon="6.31485">
        <ele>463.4</ele>
        <time>2021-03-27T12:18:18Z</time>
      </trkpt>
      <trkpt lat="46.12022" lon="6.31491">
        <ele>463.4</ele>
        <time>2021-03-27T12:18:19Z</time>
      </trkpt>
      <trkpt lat="46.12017" lon="6.31498">
        <ele>463.4</ele>
        <time>2021-03-27T12:18:20Z</time>
      </trkpt>
      <trkpt lat="46.12011" lon="6.31504">
        <ele>463.2</ele>
        <time>2021-03-27T12:18:21Z</time>
      </trkpt>
      <trkpt lat="46.12005" lon="6.3151">
        <ele>463.2</ele>
        <time>2021-03-27T12:18:22Z</time>
      </trkpt>
      <trkpt lat="46.11999" lon="6.31517">
        <ele>463.2</ele>
        <time>2021-03-27T12:18:23Z</time>
      </trkpt>
      <trkpt lat="46.11993" lon="6.31524">
        <ele>463</ele>
        <time>2021-03-27T12:18:24Z</time>
      </trkpt>
      <trkpt lat="46.11988" lon="6.31531">
        <ele>463</ele>
        <time>2021-03-27T12:18:25Z</time>
      </trkpt>
      <trkpt lat="46.11982" lon="6.31537">
        <ele>463</ele>
        <time>2021-03-27T12:18:26Z</time>
      </trkpt>
      <trkpt lat="46.11976" lon="6.31544">
        <ele>462.8</ele>
        <time>2021-03-27T12:18:27Z</time>
      </trkpt>
      <trkpt lat="46.1197" lon="6.3155">
        <ele>462.8</ele>
        <time>2021-03-27T12:18:28Z</time>
      </trkpt>
      <trkpt lat="46.11964" lon="6.31557">
        <ele>462.8</ele>
        <time>2021-03-27T12:18:29Z</time>
      </trkpt>
      <trkpt lat="46.11959" lon="6.31564">
        <ele>462.4</ele>
        <time>2021-03-27T12:18:30Z</time>
      </trkpt>
      <trkpt lat="46.11953" lon="6.3157">
        <ele>462</ele>
        <time>2021-03-27T12:18:31Z</time>
      </trkpt>
      <trkpt lat="46.11947" lon="6.31577">
        <ele>462</ele>
        <time>2021-03-27T12:18:32Z</time>
      </trkpt>
      <trkpt lat="46.11941" lon="6.31584">
        <ele>461.8</ele>
        <time>2021-03-27T12:18:33Z</time>
      </trkpt>
      <trkpt lat="46.11936" lon="6.31591">
        <ele>461.8</ele>
        <time>2021-03-27T12:18:34Z</time>
      </trkpt>
      <trkpt lat="46.1193" lon="6.31598">
        <ele>461.6</ele>
        <time>2021-03-27T12:18:35Z</time>
      </trkpt>
      <trkpt lat="46.11924" lon="6.31605">
        <ele>461.8</ele>
        <time>2021-03-27T12:18:36Z</time>
      </trkpt>
      <trkpt lat="46.11917" lon="6.31612">
        <ele>461.8</ele>
        <time>2021-03-27T12:18:37Z</time>
      </trkpt>
      <trkpt lat="46.11911" lon="6.31619">
        <ele>461.6</ele>
        <time>2021-03-27T12:18:38Z</time>
      </trkpt>
      <trkpt lat="46.11905" lon="6.31626">
        <ele>461.4</ele>
        <time>2021-03-27T12:18:39Z</time>
      </trkpt>
      <trkpt lat="46.11899" lon="6.31633">
        <ele>461.4</ele>
        <time>2021-03-27T12:18:40Z</time>
      </trkpt>
      <trkpt lat="46.11892" lon="6.3164">
        <ele>461.2</ele>
        <time>2021-03-27T12:18:41Z</time>
      </trkpt>
      <trkpt lat="46.11886" lon="6.31647">
        <ele>461.2</ele>
        <time>2021-03-27T12:18:42Z</time>
      </trkpt>
      <trkpt lat="46.11879" lon="6.31654">
        <ele>461</ele>
        <time>2021-03-27T12:18:43Z</time>
      </trkpt>
      <trkpt lat="46.11872" lon="6.31661">
        <ele>461</ele>
        <time>2021-03-27T12:18:44Z</time>
      </trkpt>
      <trkpt lat="46.11865" lon="6.31668">
        <ele>461</ele>
        <time>2021-03-27T12:18:45Z</time>
      </trkpt>
      <trkpt lat="46.11857" lon="6.31675">
        <ele>460.6</ele>
        <time>2021-03-27T12:18:46Z</time>
      </trkpt>
      <trkpt lat="46.1185" lon="6.31682">
        <ele>460.4</ele>
        <time>2021-03-27T12:18:47Z</time>
      </trkpt>
      <trkpt lat="46.11834" lon="6.31696">
        <ele>460.2</ele>
        <time>2021-03-27T12:18:49Z</time>
      </trkpt>
      <trkpt lat="46.11827" lon="6.31703">
        <ele>459.8</ele>
        <time>2021-03-27T12:18:50Z</time>
      </trkpt>
      <trkpt lat="46.11819" lon="6.3171">
        <ele>459.4</ele>
        <time>2021-03-27T12:18:51Z</time>
      </trkpt>
      <trkpt lat="46.11811" lon="6.31717">
        <ele>458.8</ele>
        <time>2021-03-27T12:18:52Z</time>
      </trkpt>
      <trkpt lat="46.11804" lon="6.31724">
        <ele>457.8</ele>
        <time>2021-03-27T12:18:53Z</time>
      </trkpt>
      <trkpt lat="46.11796" lon="6.31732">
        <ele>457</ele>
        <time>2021-03-27T12:18:54Z</time>
      </trkpt>
      <trkpt lat="46.11788" lon="6.31739">
        <ele>456.8</ele>
        <time>2021-03-27T12:18:55Z</time>
      </trkpt>
      <trkpt lat="46.1178" lon="6.31746">
        <ele>456</ele>
        <time>2021-03-27T12:18:56Z</time>
      </trkpt>
      <trkpt lat="46.11771" lon="6.31754">
        <ele>455.4</ele>
        <time>2021-03-27T12:18:57Z</time>
      </trkpt>
      <trkpt lat="46.11763" lon="6.31761">
        <ele>454.8</ele>
        <time>2021-03-27T12:18:58Z</time>
      </trkpt>
      <trkpt lat="46.11755" lon="6.31768">
        <ele>454.2</ele>
        <time>2021-03-27T12:18:59Z</time>
      </trkpt>
      <trkpt lat="46.11746" lon="6.31774">
        <ele>454.2</ele>
        <time>2021-03-27T12:19:00Z</time>
      </trkpt>
      <trkpt lat="46.11737" lon="6.31781">
        <ele>454</ele>
        <time>2021-03-27T12:19:01Z</time>
      </trkpt>
      <trkpt lat="46.11729" lon="6.31788">
        <ele>453.6</ele>
        <time>2021-03-27T12:19:02Z</time>
      </trkpt>
      <trkpt lat="46.1172" lon="6.31794">
        <ele>453.6</ele>
        <time>2021-03-27T12:19:03Z</time>
      </trkpt>
      <trkpt lat="46.11711" lon="6.31801">
        <ele>453.4</ele>
        <time>2021-03-27T12:19:04Z</time>
      </trkpt>
      <trkpt lat="46.11702" lon="6.31807">
        <ele>453.4</ele>
        <time>2021-03-27T12:19:05Z</time>
      </trkpt>
      <trkpt lat="46.11694" lon="6.31813">
        <ele>453.2</ele>
        <time>2021-03-27T12:19:06Z</time>
      </trkpt>
      <trkpt lat="46.11686" lon="6.31819">
        <ele>453</ele>
        <time>2021-03-27T12:19:07Z</time>
      </trkpt>
      <trkpt lat="46.11678" lon="6.31825">
        <ele>452.6</ele>
        <time>2021-03-27T12:19:08Z</time>
      </trkpt>
      <trkpt lat="46.1167" lon="6.31831">
        <ele>452.6</ele>
        <time>2021-03-27T12:19:09Z</time>
      </trkpt>
      <trkpt lat="46.11663" lon="6.31837">
        <ele>452.4</ele>
        <time>2021-03-27T12:19:10Z</time>
      </trkpt>
      <trkpt lat="46.11656" lon="6.31843">
        <ele>452.4</ele>
        <time>2021-03-27T12:19:11Z</time>
      </trkpt>
      <trkpt lat="46.11648" lon="6.31849">
        <ele>452.2</ele>
        <time>2021-03-27T12:19:12Z</time>
      </trkpt>
      <trkpt lat="46.11642" lon="6.31855">
        <ele>452.2</ele>
        <time>2021-03-27T12:19:13Z</time>
      </trkpt>
      <trkpt lat="46.11635" lon="6.31861">
        <ele>452.2</ele>
        <time>2021-03-27T12:19:14Z</time>
      </trkpt>
      <trkpt lat="46.11628" lon="6.31868">
        <ele>452</ele>
        <time>2021-03-27T12:19:15Z</time>
      </trkpt>
      <trkpt lat="46.11622" lon="6.31874">
        <ele>451.8</ele>
        <time>2021-03-27T12:19:16Z</time>
      </trkpt>
      <trkpt lat="46.11616" lon="6.31881">
        <ele>452</ele>
        <time>2021-03-27T12:19:17Z</time>
      </trkpt>
      <trkpt lat="46.1161" lon="6.31887">
        <ele>451.8</ele>
        <time>2021-03-27T12:19:18Z</time>
      </trkpt>
      <trkpt lat="46.11604" lon="6.31894">
        <ele>452</ele>
        <time>2021-03-27T12:19:19Z</time>
      </trkpt>
      <trkpt lat="46.11598" lon="6.319">
        <ele>451.8</ele>
        <time>2021-03-27T12:19:20Z</time>
      </trkpt>
      <trkpt lat="46.11592" lon="6.31907">
        <ele>451.8</ele>
        <time>2021-03-27T12:19:21Z</time>
      </trkpt>
      <trkpt lat="46.11587" lon="6.31914">
        <ele>452</ele>
        <time>2021-03-27T12:19:22Z</time>
      </trkpt>
      <trkpt lat="46.11581" lon="6.3192">
        <ele>452</ele>
        <time>2021-03-27T12:19:23Z</time>
      </trkpt>
      <trkpt lat="46.11576" lon="6.31928">
        <ele>452</ele>
        <time>2021-03-27T12:19:24Z</time>
      </trkpt>
      <trkpt lat="46.11571" lon="6.31935">
        <ele>452</ele>
        <time>2021-03-27T12:19:25Z</time>
      </trkpt>
      <trkpt lat="46.11565" lon="6.31942">
        <ele>452.2</ele>
        <time>2021-03-27T12:19:26Z</time>
      </trkpt>
      <trkpt lat="46.1156" lon="6.3195">
        <ele>452</ele>
        <time>2021-03-27T12:19:27Z</time>
      </trkpt>
      <trkpt lat="46.11555" lon="6.31958">
        <ele>452.2</ele>
        <time>2021-03-27T12:19:28Z</time>
      </trkpt>
      <trkpt lat="46.11549" lon="6.31966">
        <ele>452</ele>
        <time>2021-03-27T12:19:29Z</time>
      </trkpt>
      <trkpt lat="46.11543" lon="6.31974">
        <ele>452.2</ele>
        <time>2021-03-27T12:19:30Z</time>
      </trkpt>
      <trkpt lat="46.11537" lon="6.31982">
        <ele>452.4</ele>
        <time>2021-03-27T12:19:31Z</time>
      </trkpt>
      <trkpt lat="46.11531" lon="6.31991">
        <ele>452.6</ele>
        <time>2021-03-27T12:19:32Z</time>
      </trkpt>
      <trkpt lat="46.11525" lon="6.32">
        <ele>452.8</ele>
        <time>2021-03-27T12:19:33Z</time>
      </trkpt>
      <trkpt lat="46.11519" lon="6.32009">
        <ele>452.8</ele>
        <time>2021-03-27T12:19:34Z</time>
      </trkpt>
      <trkpt lat="46.11512" lon="6.32018">
        <ele>452.8</ele>
        <time>2021-03-27T12:19:35Z</time>
      </trkpt>
      <trkpt lat="46.11506" lon="6.32028">
        <ele>452.8</ele>
        <time>2021-03-27T12:19:36Z</time>
      </trkpt>
      <trkpt lat="46.11499" lon="6.32037">
        <ele>452.8</ele>
        <time>2021-03-27T12:19:37Z</time>
      </trkpt>
      <trkpt lat="46.11492" lon="6.32047">
        <ele>453</ele>
        <time>2021-03-27T12:19:38Z</time>
      </trkpt>
      <trkpt lat="46.11485" lon="6.32057">
        <ele>453</ele>
        <time>2021-03-27T12:19:39Z</time>
      </trkpt>
      <trkpt lat="46.11479" lon="6.32066">
        <ele>452.8</ele>
        <time>2021-03-27T12:19:40Z</time>
      </trkpt>
      <trkpt lat="46.11472" lon="6.32076">
        <ele>452.8</ele>
        <time>2021-03-27T12:19:41Z</time>
      </trkpt>
      <trkpt lat="46.11466" lon="6.32084">
        <ele>452.8</ele>
        <time>2021-03-27T12:19:42Z</time>
      </trkpt>
      <trkpt lat="46.1146" lon="6.32093">
        <ele>452.8</ele>
        <time>2021-03-27T12:19:43Z</time>
      </trkpt>
      <trkpt lat="46.11454" lon="6.32102">
        <ele>452.6</ele>
        <time>2021-03-27T12:19:44Z</time>
      </trkpt>
      <trkpt lat="46.11448" lon="6.32111">
        <ele>452.4</ele>
        <time>2021-03-27T12:19:45Z</time>
      </trkpt>
      <trkpt lat="46.11442" lon="6.32119">
        <ele>452.2</ele>
        <time>2021-03-27T12:19:46Z</time>
      </trkpt>
      <trkpt lat="46.11436" lon="6.32127">
        <ele>452.2</ele>
        <time>2021-03-27T12:19:47Z</time>
      </trkpt>
      <trkpt lat="46.1143" lon="6.32135">
        <ele>451.8</ele>
        <time>2021-03-27T12:19:48Z</time>
      </trkpt>
      <trkpt lat="46.11424" lon="6.32143">
        <ele>451.8</ele>
        <time>2021-03-27T12:19:49Z</time>
      </trkpt>
      <trkpt lat="46.11419" lon="6.3215">
        <ele>451.8</ele>
        <time>2021-03-27T12:19:50Z</time>
      </trkpt>
      <trkpt lat="46.11414" lon="6.32158">
        <ele>451.8</ele>
        <time>2021-03-27T12:19:51Z</time>
      </trkpt>
      <trkpt lat="46.11409" lon="6.32165">
        <ele>451.6</ele>
        <time>2021-03-27T12:19:52Z</time>
      </trkpt>
      <trkpt lat="46.11403" lon="6.32172">
        <ele>451.6</ele>
        <time>2021-03-27T12:19:53Z</time>
      </trkpt>
      <trkpt lat="46.11398" lon="6.32179">
        <ele>451.6</ele>
        <time>2021-03-27T12:19:54Z</time>
      </trkpt>
      <trkpt lat="46.11392" lon="6.32186">
        <ele>451.8</ele>
        <time>2021-03-27T12:19:55Z</time>
      </trkpt>
      <trkpt lat="46.11387" lon="6.32194">
        <ele>451.6</ele>
        <time>2021-03-27T12:19:56Z</time>
      </trkpt>
      <trkpt lat="46.11381" lon="6.32201">
        <ele>451.8</ele>
        <time>2021-03-27T12:19:57Z</time>
      </trkpt>
      <trkpt lat="46.11375" lon="6.32209">
        <ele>451.6</ele>
        <time>2021-03-27T12:19:58Z</time>
      </trkpt>
      <trkpt lat="46.11369" lon="6.32217">
        <ele>451.8</ele>
        <time>2021-03-27T12:19:59Z</time>
      </trkpt>
      <trkpt lat="46.11363" lon="6.32225">
        <ele>451.4</ele>
        <time>2021-03-27T12:20:00Z</time>
      </trkpt>
      <trkpt lat="46.11356" lon="6.32233">
        <ele>451.4</ele>
        <time>2021-03-27T12:20:01Z</time>
      </trkpt>
      <trkpt lat="46.1135" lon="6.32241">
        <ele>451.4</ele>
        <time>2021-03-27T12:20:02Z</time>
      </trkpt>
      <trkpt lat="46.11343" lon="6.3225">
        <ele>451.4</ele>
        <time>2021-03-27T12:20:03Z</time>
      </trkpt>
      <trkpt lat="46.11337" lon="6.32258">
        <ele>451</ele>
        <time>2021-03-27T12:20:04Z</time>
      </trkpt>
      <trkpt lat="46.1133" lon="6.32267">
        <ele>451</ele>
        <time>2021-03-27T12:20:05Z</time>
      </trkpt>
      <trkpt lat="46.11323" lon="6.32276">
        <ele>451</ele>
        <time>2021-03-27T12:20:06Z</time>
      </trkpt>
      <trkpt lat="46.11316" lon="6.32286">
        <ele>450.8</ele>
        <time>2021-03-27T12:20:07Z</time>
      </trkpt>
      <trkpt lat="46.11308" lon="6.32295">
        <ele>450.8</ele>
        <time>2021-03-27T12:20:08Z</time>
      </trkpt>
      <trkpt lat="46.11301" lon="6.32305">
        <ele>450.8</ele>
        <time>2021-03-27T12:20:09Z</time>
      </trkpt>
      <trkpt lat="46.11293" lon="6.32314">
        <ele>450.6</ele>
        <time>2021-03-27T12:20:10Z</time>
      </trkpt>
      <trkpt lat="46.11286" lon="6.32324">
        <ele>450.2</ele>
        <time>2021-03-27T12:20:11Z</time>
      </trkpt>
      <trkpt lat="46.11278" lon="6.32334">
        <ele>450</ele>
        <time>2021-03-27T12:20:12Z</time>
      </trkpt>
      <trkpt lat="46.1127" lon="6.32344">
        <ele>449.8</ele>
        <time>2021-03-27T12:20:13Z</time>
      </trkpt>
      <trkpt lat="46.11263" lon="6.32354">
        <ele>449.6</ele>
        <time>2021-03-27T12:20:14Z</time>
      </trkpt>
      <trkpt lat="46.11255" lon="6.32364">
        <ele>448.8</ele>
        <time>2021-03-27T12:20:15Z</time>
      </trkpt>
      <trkpt lat="46.11248" lon="6.32373">
        <ele>448.2</ele>
        <time>2021-03-27T12:20:16Z</time>
      </trkpt>
      <trkpt lat="46.1124" lon="6.32383">
        <ele>447.2</ele>
        <time>2021-03-27T12:20:17Z</time>
      </trkpt>
      <trkpt lat="46.11233" lon="6.32393">
        <ele>446.2</ele>
        <time>2021-03-27T12:20:18Z</time>
      </trkpt>
      <trkpt lat="46.11225" lon="6.32402">
        <ele>445.4</ele>
        <time>2021-03-27T12:20:19Z</time>
      </trkpt>
      <trkpt lat="46.11218" lon="6.32411">
        <ele>445.2</ele>
        <time>2021-03-27T12:20:20Z</time>
      </trkpt>
      <trkpt lat="46.11211" lon="6.32421">
        <ele>445</ele>
        <time>2021-03-27T12:20:21Z</time>
      </trkpt>
      <trkpt lat="46.11204" lon="6.3243">
        <ele>444.6</ele>
        <time>2021-03-27T12:20:22Z</time>
      </trkpt>
      <trkpt lat="46.11197" lon="6.32439">
        <ele>444.8</ele>
        <time>2021-03-27T12:20:23Z</time>
      </trkpt>
      <trkpt lat="46.1119" lon="6.32448">
        <ele>444.6</ele>
        <time>2021-03-27T12:20:24Z</time>
      </trkpt>
      <trkpt lat="46.11183" lon="6.32457">
        <ele>444.4</ele>
        <time>2021-03-27T12:20:25Z</time>
      </trkpt>
      <trkpt lat="46.11176" lon="6.32466">
        <ele>444.2</ele>
        <time>2021-03-27T12:20:26Z</time>
      </trkpt>
      <trkpt lat="46.11169" lon="6.32475">
        <ele>444.2</ele>
        <time>2021-03-27T12:20:27Z</time>
      </trkpt>
      <trkpt lat="46.11162" lon="6.32484">
        <ele>444.2</ele>
        <time>2021-03-27T12:20:28Z</time>
      </trkpt>
      <trkpt lat="46.11155" lon="6.32493">
        <ele>444.2</ele>
        <time>2021-03-27T12:20:29Z</time>
      </trkpt>
      <trkpt lat="46.11148" lon="6.32503">
        <ele>444</ele>
        <time>2021-03-27T12:20:30Z</time>
      </trkpt>
      <trkpt lat="46.11141" lon="6.32512">
        <ele>443.8</ele>
        <time>2021-03-27T12:20:31Z</time>
      </trkpt>
      <trkpt lat="46.11134" lon="6.32521">
        <ele>443.8</ele>
        <time>2021-03-27T12:20:32Z</time>
      </trkpt>
      <trkpt lat="46.11127" lon="6.3253">
        <ele>443.6</ele>
        <time>2021-03-27T12:20:33Z</time>
      </trkpt>
      <trkpt lat="46.1112" lon="6.32539">
        <ele>443.4</ele>
        <time>2021-03-27T12:20:34Z</time>
      </trkpt>
      <trkpt lat="46.11112" lon="6.32548">
        <ele>443.2</ele>
        <time>2021-03-27T12:20:35Z</time>
      </trkpt>
      <trkpt lat="46.11105" lon="6.32557">
        <ele>443.2</ele>
        <time>2021-03-27T12:20:36Z</time>
      </trkpt>
      <trkpt lat="46.11098" lon="6.32566">
        <ele>443.4</ele>
        <time>2021-03-27T12:20:37Z</time>
      </trkpt>
      <trkpt lat="46.1109" lon="6.32576">
        <ele>443.4</ele>
        <time>2021-03-27T12:20:38Z</time>
      </trkpt>
      <trkpt lat="46.11083" lon="6.32585">
        <ele>443.4</ele>
        <time>2021-03-27T12:20:39Z</time>
      </trkpt>
      <trkpt lat="46.11076" lon="6.32595">
        <ele>443.4</ele>
        <time>2021-03-27T12:20:40Z</time>
      </trkpt>
      <trkpt lat="46.11069" lon="6.32605">
        <ele>443.4</ele>
        <time>2021-03-27T12:20:41Z</time>
      </trkpt>
      <trkpt lat="46.11062" lon="6.32614">
        <ele>443.4</ele>
        <time>2021-03-27T12:20:42Z</time>
      </trkpt>
      <trkpt lat="46.11055" lon="6.32624">
        <ele>443.4</ele>
        <time>2021-03-27T12:20:43Z</time>
      </trkpt>
      <trkpt lat="46.11048" lon="6.32634">
        <ele>443.4</ele>
        <time>2021-03-27T12:20:44Z</time>
      </trkpt>
      <trkpt lat="46.11041" lon="6.32643">
        <ele>443.2</ele>
        <time>2021-03-27T12:20:45Z</time>
      </trkpt>
      <trkpt lat="46.11034" lon="6.32653">
        <ele>443</ele>
        <time>2021-03-27T12:20:46Z</time>
      </trkpt>
      <trkpt lat="46.11027" lon="6.32662">
        <ele>443.2</ele>
        <time>2021-03-27T12:20:47Z</time>
      </trkpt>
      <trkpt lat="46.11021" lon="6.32672">
        <ele>443.2</ele>
        <time>2021-03-27T12:20:48Z</time>
      </trkpt>
      <trkpt lat="46.11015" lon="6.32681">
        <ele>443.2</ele>
        <time>2021-03-27T12:20:49Z</time>
      </trkpt>
      <trkpt lat="46.11009" lon="6.32691">
        <ele>443</ele>
        <time>2021-03-27T12:20:50Z</time>
      </trkpt>
      <trkpt lat="46.11003" lon="6.327">
        <ele>443</ele>
        <time>2021-03-27T12:20:51Z</time>
      </trkpt>
      <trkpt lat="46.10997" lon="6.3271">
        <ele>442.6</ele>
        <time>2021-03-27T12:20:52Z</time>
      </trkpt>
      <trkpt lat="46.10992" lon="6.32719">
        <ele>442.4</ele>
        <time>2021-03-27T12:20:53Z</time>
      </trkpt>
      <trkpt lat="46.10985" lon="6.32727">
        <ele>442.4</ele>
        <time>2021-03-27T12:20:54Z</time>
      </trkpt>
      <trkpt lat="46.10979" lon="6.32735">
        <ele>442.4</ele>
        <time>2021-03-27T12:20:55Z</time>
      </trkpt>
      <trkpt lat="46.10973" lon="6.32743">
        <ele>442.4</ele>
        <time>2021-03-27T12:20:56Z</time>
      </trkpt>
      <trkpt lat="46.10967" lon="6.32751">
        <ele>442.2</ele>
        <time>2021-03-27T12:20:57Z</time>
      </trkpt>
      <trkpt lat="46.10961" lon="6.32758">
        <ele>442.4</ele>
        <time>2021-03-27T12:20:58Z</time>
      </trkpt>
      <trkpt lat="46.10955" lon="6.32766">
        <ele>442.2</ele>
        <time>2021-03-27T12:20:59Z</time>
      </trkpt>
      <trkpt lat="46.10949" lon="6.32773">
        <ele>442.4</ele>
        <time>2021-03-27T12:21:00Z</time>
      </trkpt>
      <trkpt lat="46.10943" lon="6.3278">
        <ele>442.4</ele>
        <time>2021-03-27T12:21:01Z</time>
      </trkpt>
      <trkpt lat="46.10937" lon="6.32787">
        <ele>442.2</ele>
        <time>2021-03-27T12:21:02Z</time>
      </trkpt>
      <trkpt lat="46.10931" lon="6.32794">
        <ele>442.4</ele>
        <time>2021-03-27T12:21:03Z</time>
      </trkpt>
      <trkpt lat="46.10925" lon="6.328">
        <ele>442.6</ele>
        <time>2021-03-27T12:21:04Z</time>
      </trkpt>
      <trkpt lat="46.10919" lon="6.32807">
        <ele>442.8</ele>
        <time>2021-03-27T12:21:05Z</time>
      </trkpt>
      <trkpt lat="46.10913" lon="6.32814">
        <ele>443</ele>
        <time>2021-03-27T12:21:06Z</time>
      </trkpt>
      <trkpt lat="46.10907" lon="6.32821">
        <ele>443.2</ele>
        <time>2021-03-27T12:21:07Z</time>
      </trkpt>
      <trkpt lat="46.10901" lon="6.32828">
        <ele>443.4</ele>
        <time>2021-03-27T12:21:08Z</time>
      </trkpt>
      <trkpt lat="46.10895" lon="6.32835">
        <ele>443.4</ele>
        <time>2021-03-27T12:21:09Z</time>
      </trkpt>
      <trkpt lat="46.10889" lon="6.32841">
        <ele>443.8</ele>
        <time>2021-03-27T12:21:10Z</time>
      </trkpt>
      <trkpt lat="46.10883" lon="6.32848">
        <ele>443.8</ele>
        <time>2021-03-27T12:21:11Z</time>
      </trkpt>
      <trkpt lat="46.10877" lon="6.32855">
        <ele>444</ele>
        <time>2021-03-27T12:21:12Z</time>
      </trkpt>
      <trkpt lat="46.10871" lon="6.32862">
        <ele>444</ele>
        <time>2021-03-27T12:21:13Z</time>
      </trkpt>
      <trkpt lat="46.10865" lon="6.32868">
        <ele>444.4</ele>
        <time>2021-03-27T12:21:14Z</time>
      </trkpt>
      <trkpt lat="46.10859" lon="6.32875">
        <ele>444.2</ele>
        <time>2021-03-27T12:21:15Z</time>
      </trkpt>
      <trkpt lat="46.10853" lon="6.32882">
        <ele>444.4</ele>
        <time>2021-03-27T12:21:16Z</time>
      </trkpt>
      <trkpt lat="46.10847" lon="6.32889">
        <ele>444.6</ele>
        <time>2021-03-27T12:21:17Z</time>
      </trkpt>
      <trkpt lat="46.10841" lon="6.32896">
        <ele>444.6</ele>
        <time>2021-03-27T12:21:18Z</time>
      </trkpt>
      <trkpt lat="46.10835" lon="6.32903">
        <ele>444.8</ele>
        <time>2021-03-27T12:21:19Z</time>
      </trkpt>
      <trkpt lat="46.10829" lon="6.3291">
        <ele>444.8</ele>
        <time>2021-03-27T12:21:20Z</time>
      </trkpt>
      <trkpt lat="46.10823" lon="6.32917">
        <ele>444.8</ele>
        <time>2021-03-27T12:21:21Z</time>
      </trkpt>
      <trkpt lat="46.10817" lon="6.32924">
        <ele>444.8</ele>
        <time>2021-03-27T12:21:22Z</time>
      </trkpt>
      <trkpt lat="46.10811" lon="6.32931">
        <ele>444.8</ele>
        <time>2021-03-27T12:21:23Z</time>
      </trkpt>
      <trkpt lat="46.10805" lon="6.32938">
        <ele>444.8</ele>
        <time>2021-03-27T12:21:24Z</time>
      </trkpt>
      <trkpt lat="46.10798" lon="6.32945">
        <ele>444.8</ele>
        <time>2021-03-27T12:21:25Z</time>
      </trkpt>
      <trkpt lat="46.10792" lon="6.32952">
        <ele>445</ele>
        <time>2021-03-27T12:21:26Z</time>
      </trkpt>
      <trkpt lat="46.10786" lon="6.3296">
        <ele>445</ele>
        <time>2021-03-27T12:21:27Z</time>
      </trkpt>
      <trkpt lat="46.10779" lon="6.32967">
        <ele>444.8</ele>
        <time>2021-03-27T12:21:28Z</time>
      </trkpt>
      <trkpt lat="46.10773" lon="6.32975">
        <ele>445</ele>
        <time>2021-03-27T12:21:29Z</time>
      </trkpt>
      <trkpt lat="46.10766" lon="6.32982">
        <ele>445</ele>
        <time>2021-03-27T12:21:30Z</time>
      </trkpt>
      <trkpt lat="46.1076" lon="6.32989">
        <ele>445</ele>
        <time>2021-03-27T12:21:31Z</time>
      </trkpt>
      <trkpt lat="46.10753" lon="6.32997">
        <ele>444.8</ele>
        <time>2021-03-27T12:21:32Z</time>
      </trkpt>
      <trkpt lat="46.10747" lon="6.33005">
        <ele>445</ele>
        <time>2021-03-27T12:21:33Z</time>
      </trkpt>
      <trkpt lat="46.10741" lon="6.33013">
        <ele>444.8</ele>
        <time>2021-03-27T12:21:34Z</time>
      </trkpt>
      <trkpt lat="46.10735" lon="6.33021">
        <ele>444.8</ele>
        <time>2021-03-27T12:21:35Z</time>
      </trkpt>
      <trkpt lat="46.10729" lon="6.3303">
        <ele>444.6</ele>
        <time>2021-03-27T12:21:36Z</time>
      </trkpt>
      <trkpt lat="46.10724" lon="6.33039">
        <ele>444.6</ele>
        <time>2021-03-27T12:21:37Z</time>
      </trkpt>
      <trkpt lat="46.10719" lon="6.33048">
        <ele>444.6</ele>
        <time>2021-03-27T12:21:38Z</time>
      </trkpt>
      <trkpt lat="46.10714" lon="6.33058">
        <ele>444.4</ele>
        <time>2021-03-27T12:21:39Z</time>
      </trkpt>
      <trkpt lat="46.10709" lon="6.33068">
        <ele>444.4</ele>
        <time>2021-03-27T12:21:40Z</time>
      </trkpt>
      <trkpt lat="46.10704" lon="6.33078">
        <ele>444.2</ele>
        <time>2021-03-27T12:21:41Z</time>
      </trkpt>
      <trkpt lat="46.107" lon="6.33088">
        <ele>444.2</ele>
        <time>2021-03-27T12:21:42Z</time>
      </trkpt>
      <trkpt lat="46.10695" lon="6.33098">
        <ele>444.2</ele>
        <time>2021-03-27T12:21:43Z</time>
      </trkpt>
      <trkpt lat="46.10691" lon="6.33108">
        <ele>444</ele>
        <time>2021-03-27T12:21:44Z</time>
      </trkpt>
      <trkpt lat="46.10687" lon="6.33118">
        <ele>444</ele>
        <time>2021-03-27T12:21:45Z</time>
      </trkpt>
      <trkpt lat="46.10682" lon="6.33129">
        <ele>444</ele>
        <time>2021-03-27T12:21:46Z</time>
      </trkpt>
      <trkpt lat="46.10679" lon="6.33139">
        <ele>444</ele>
        <time>2021-03-27T12:21:47Z</time>
      </trkpt>
      <trkpt lat="46.10675" lon="6.33149">
        <ele>443.8</ele>
        <time>2021-03-27T12:21:48Z</time>
      </trkpt>
      <trkpt lat="46.10672" lon="6.3316">
        <ele>443.8</ele>
        <time>2021-03-27T12:21:49Z</time>
      </trkpt>
      <trkpt lat="46.10668" lon="6.3317">
        <ele>443.8</ele>
        <time>2021-03-27T12:21:50Z</time>
      </trkpt>
      <trkpt lat="46.10665" lon="6.3318">
        <ele>443.8</ele>
        <time>2021-03-27T12:21:51Z</time>
      </trkpt>
      <trkpt lat="46.10662" lon="6.3319">
        <ele>443.8</ele>
        <time>2021-03-27T12:21:52Z</time>
      </trkpt>
      <trkpt lat="46.10658" lon="6.332">
        <ele>443.6</ele>
        <time>2021-03-27T12:21:53Z</time>
      </trkpt>
      <trkpt lat="46.10655" lon="6.3321">
        <ele>443.8</ele>
        <time>2021-03-27T12:21:54Z</time>
      </trkpt>
      <trkpt lat="46.10651" lon="6.33219">
        <ele>443.8</ele>
        <time>2021-03-27T12:21:55Z</time>
      </trkpt>
      <trkpt lat="46.10646" lon="6.33228">
        <ele>443.8</ele>
        <time>2021-03-27T12:21:56Z</time>
      </trkpt>
      <trkpt lat="46.10642" lon="6.33237">
        <ele>443.8</ele>
        <time>2021-03-27T12:21:57Z</time>
      </trkpt>
      <trkpt lat="46.10638" lon="6.33247">
        <ele>443.8</ele>
        <time>2021-03-27T12:21:58Z</time>
      </trkpt>
      <trkpt lat="46.10633" lon="6.33256">
        <ele>443.6</ele>
        <time>2021-03-27T12:21:59Z</time>
      </trkpt>
      <trkpt lat="46.10629" lon="6.33265">
        <ele>443.8</ele>
        <time>2021-03-27T12:22:00Z</time>
      </trkpt>
      <trkpt lat="46.10624" lon="6.33273">
        <ele>444.2</ele>
        <time>2021-03-27T12:22:01Z</time>
      </trkpt>
      <trkpt lat="46.10619" lon="6.33282">
        <ele>444.2</ele>
        <time>2021-03-27T12:22:02Z</time>
      </trkpt>
      <trkpt lat="46.10613" lon="6.3329">
        <ele>444.4</ele>
        <time>2021-03-27T12:22:03Z</time>
      </trkpt>
      <trkpt lat="46.10608" lon="6.33298">
        <ele>444.6</ele>
        <time>2021-03-27T12:22:04Z</time>
      </trkpt>
      <trkpt lat="46.10602" lon="6.33307">
        <ele>444.8</ele>
        <time>2021-03-27T12:22:05Z</time>
      </trkpt>
      <trkpt lat="46.10596" lon="6.33316">
        <ele>445.2</ele>
        <time>2021-03-27T12:22:06Z</time>
      </trkpt>
      <trkpt lat="46.1059" lon="6.33325">
        <ele>445.2</ele>
        <time>2021-03-27T12:22:07Z</time>
      </trkpt>
      <trkpt lat="46.10584" lon="6.33335">
        <ele>445.6</ele>
        <time>2021-03-27T12:22:08Z</time>
      </trkpt>
      <trkpt lat="46.10577" lon="6.33344">
        <ele>445.6</ele>
        <time>2021-03-27T12:22:09Z</time>
      </trkpt>
      <trkpt lat="46.10571" lon="6.33353">
        <ele>445.6</ele>
        <time>2021-03-27T12:22:10Z</time>
      </trkpt>
      <trkpt lat="46.10564" lon="6.33361">
        <ele>445.6</ele>
        <time>2021-03-27T12:22:11Z</time>
      </trkpt>
      <trkpt lat="46.10558" lon="6.3337">
        <ele>445.4</ele>
        <time>2021-03-27T12:22:12Z</time>
      </trkpt>
      <trkpt lat="46.10551" lon="6.33378">
        <ele>445.6</ele>
        <time>2021-03-27T12:22:13Z</time>
      </trkpt>
      <trkpt lat="46.10544" lon="6.33387">
        <ele>445.6</ele>
        <time>2021-03-27T12:22:14Z</time>
      </trkpt>
      <trkpt lat="46.10537" lon="6.33395">
        <ele>445.4</ele>
        <time>2021-03-27T12:22:15Z</time>
      </trkpt>
      <trkpt lat="46.1053" lon="6.33402">
        <ele>445.6</ele>
        <time>2021-03-27T12:22:16Z</time>
      </trkpt>
      <trkpt lat="46.10522" lon="6.33409">
        <ele>445.4</ele>
        <time>2021-03-27T12:22:17Z</time>
      </trkpt>
      <trkpt lat="46.10514" lon="6.33415">
        <ele>445</ele>
        <time>2021-03-27T12:22:18Z</time>
      </trkpt>
      <trkpt lat="46.10507" lon="6.33422">
        <ele>444.2</ele>
        <time>2021-03-27T12:22:19Z</time>
      </trkpt>
      <trkpt lat="46.105" lon="6.3343">
        <ele>443.8</ele>
        <time>2021-03-27T12:22:20Z</time>
      </trkpt>
      <trkpt lat="46.10493" lon="6.33439">
        <ele>443.6</ele>
        <time>2021-03-27T12:22:21Z</time>
      </trkpt>
      <trkpt lat="46.10487" lon="6.33448">
        <ele>443.4</ele>
        <time>2021-03-27T12:22:22Z</time>
      </trkpt>
      <trkpt lat="46.10481" lon="6.33457">
        <ele>443.4</ele>
        <time>2021-03-27T12:22:23Z</time>
      </trkpt>
      <trkpt lat="46.10475" lon="6.33465">
        <ele>443</ele>
        <time>2021-03-27T12:22:24Z</time>
      </trkpt>
      <trkpt lat="46.10468" lon="6.33474">
        <ele>442.6</ele>
        <time>2021-03-27T12:22:25Z</time>
      </trkpt>
      <trkpt lat="46.10462" lon="6.33482">
        <ele>442.6</ele>
        <time>2021-03-27T12:22:26Z</time>
      </trkpt>
      <trkpt lat="46.10455" lon="6.3349">
        <ele>442.4</ele>
        <time>2021-03-27T12:22:27Z</time>
      </trkpt>
      <trkpt lat="46.10449" lon="6.33498">
        <ele>442.4</ele>
        <time>2021-03-27T12:22:28Z</time>
      </trkpt>
      <trkpt lat="46.10442" lon="6.33506">
        <ele>442.4</ele>
        <time>2021-03-27T12:22:29Z</time>
      </trkpt>
      <trkpt lat="46.10436" lon="6.33514">
        <ele>442.2</ele>
        <time>2021-03-27T12:22:30Z</time>
      </trkpt>
      <trkpt lat="46.10429" lon="6.33522">
        <ele>442</ele>
        <time>2021-03-27T12:22:31Z</time>
      </trkpt>
      <trkpt lat="46.10423" lon="6.3353">
        <ele>441.8</ele>
        <time>2021-03-27T12:22:32Z</time>
      </trkpt>
      <trkpt lat="46.10416" lon="6.33539">
        <ele>441.8</ele>
        <time>2021-03-27T12:22:33Z</time>
      </trkpt>
      <trkpt lat="46.1041" lon="6.33548">
        <ele>441.8</ele>
        <time>2021-03-27T12:22:34Z</time>
      </trkpt>
      <trkpt lat="46.10404" lon="6.33556">
        <ele>441.8</ele>
        <time>2021-03-27T12:22:35Z</time>
      </trkpt>
      <trkpt lat="46.10398" lon="6.33565">
        <ele>441.8</ele>
        <time>2021-03-27T12:22:36Z</time>
      </trkpt>
      <trkpt lat="46.10392" lon="6.33574">
        <ele>441.8</ele>
        <time>2021-03-27T12:22:37Z</time>
      </trkpt>
      <trkpt lat="46.10386" lon="6.33582">
        <ele>441.6</ele>
        <time>2021-03-27T12:22:38Z</time>
      </trkpt>
      <trkpt lat="46.1038" lon="6.3359">
        <ele>441.6</ele>
        <time>2021-03-27T12:22:39Z</time>
      </trkpt>
      <trkpt lat="46.10374" lon="6.33597">
        <ele>441.4</ele>
        <time>2021-03-27T12:22:40Z</time>
      </trkpt>
      <trkpt lat="46.10368" lon="6.33605">
        <ele>441.4</ele>
        <time>2021-03-27T12:22:41Z</time>
      </trkpt>
      <trkpt lat="46.10362" lon="6.33613">
        <ele>441.4</ele>
        <time>2021-03-27T12:22:42Z</time>
      </trkpt>
      <trkpt lat="46.10355" lon="6.3362">
        <ele>441.4</ele>
        <time>2021-03-27T12:22:43Z</time>
      </trkpt>
      <trkpt lat="46.10349" lon="6.33628">
        <ele>441.4</ele>
        <time>2021-03-27T12:22:44Z</time>
      </trkpt>
      <trkpt lat="46.10343" lon="6.33636">
        <ele>441.2</ele>
        <time>2021-03-27T12:22:45Z</time>
      </trkpt>
      <trkpt lat="46.10336" lon="6.33644">
        <ele>441.4</ele>
        <time>2021-03-27T12:22:46Z</time>
      </trkpt>
      <trkpt lat="46.1033" lon="6.33652">
        <ele>441.2</ele>
        <time>2021-03-27T12:22:47Z</time>
      </trkpt>
      <trkpt lat="46.10324" lon="6.3366">
        <ele>441.4</ele>
        <time>2021-03-27T12:22:48Z</time>
      </trkpt>
      <trkpt lat="46.10317" lon="6.33668">
        <ele>441.2</ele>
        <time>2021-03-27T12:22:49Z</time>
      </trkpt>
      <trkpt lat="46.10311" lon="6.33676">
        <ele>441.4</ele>
        <time>2021-03-27T12:22:50Z</time>
      </trkpt>
      <trkpt lat="46.10304" lon="6.33683">
        <ele>441.4</ele>
        <time>2021-03-27T12:22:51Z</time>
      </trkpt>
      <trkpt lat="46.10296" lon="6.33691">
        <ele>441.4</ele>
        <time>2021-03-27T12:22:52Z</time>
      </trkpt>
      <trkpt lat="46.10289" lon="6.33698">
        <ele>441.4</ele>
        <time>2021-03-27T12:22:53Z</time>
      </trkpt>
      <trkpt lat="46.10281" lon="6.33704">
        <ele>441.2</ele>
        <time>2021-03-27T12:22:54Z</time>
      </trkpt>
      <trkpt lat="46.10273" lon="6.3371">
        <ele>441.4</ele>
        <time>2021-03-27T12:22:55Z</time>
      </trkpt>
      <trkpt lat="46.10266" lon="6.33716">
        <ele>441.2</ele>
        <time>2021-03-27T12:22:56Z</time>
      </trkpt>
      <trkpt lat="46.10258" lon="6.33722">
        <ele>441.2</ele>
        <time>2021-03-27T12:22:57Z</time>
      </trkpt>
      <trkpt lat="46.1025" lon="6.33727">
        <ele>441.4</ele>
        <time>2021-03-27T12:22:58Z</time>
      </trkpt>
      <trkpt lat="46.10241" lon="6.33732">
        <ele>441.4</ele>
        <time>2021-03-27T12:22:59Z</time>
      </trkpt>
      <trkpt lat="46.10233" lon="6.33737">
        <ele>441.2</ele>
        <time>2021-03-27T12:23:00Z</time>
      </trkpt>
      <trkpt lat="46.10225" lon="6.33741">
        <ele>441.2</ele>
        <time>2021-03-27T12:23:01Z</time>
      </trkpt>
      <trkpt lat="46.10218" lon="6.33746">
        <ele>441</ele>
        <time>2021-03-27T12:23:02Z</time>
      </trkpt>
      <trkpt lat="46.1021" lon="6.3375">
        <ele>440.6</ele>
        <time>2021-03-27T12:23:03Z</time>
      </trkpt>
      <trkpt lat="46.10202" lon="6.33754">
        <ele>440.4</ele>
        <time>2021-03-27T12:23:04Z</time>
      </trkpt>
      <trkpt lat="46.10195" lon="6.33759">
        <ele>440.2</ele>
        <time>2021-03-27T12:23:05Z</time>
      </trkpt>
      <trkpt lat="46.10187" lon="6.33763">
        <ele>440.2</ele>
        <time>2021-03-27T12:23:06Z</time>
      </trkpt>
      <trkpt lat="46.1018" lon="6.33767">
        <ele>440.2</ele>
        <time>2021-03-27T12:23:07Z</time>
      </trkpt>
      <trkpt lat="46.10172" lon="6.33771">
        <ele>440.2</ele>
        <time>2021-03-27T12:23:08Z</time>
      </trkpt>
      <trkpt lat="46.10165" lon="6.33775">
        <ele>440</ele>
        <time>2021-03-27T12:23:09Z</time>
      </trkpt>
      <trkpt lat="46.10158" lon="6.33779">
        <ele>440.2</ele>
        <time>2021-03-27T12:23:10Z</time>
      </trkpt>
      <trkpt lat="46.10151" lon="6.33783">
        <ele>440.2</ele>
        <time>2021-03-27T12:23:11Z</time>
      </trkpt>
      <trkpt lat="46.10144" lon="6.33787">
        <ele>440.2</ele>
        <time>2021-03-27T12:23:12Z</time>
      </trkpt>
      <trkpt lat="46.10136" lon="6.33791">
        <ele>440</ele>
        <time>2021-03-27T12:23:13Z</time>
      </trkpt>
      <trkpt lat="46.10129" lon="6.33795">
        <ele>440</ele>
        <time>2021-03-27T12:23:14Z</time>
      </trkpt>
      <trkpt lat="46.10122" lon="6.338">
        <ele>440.2</ele>
        <time>2021-03-27T12:23:15Z</time>
      </trkpt>
      <trkpt lat="46.10114" lon="6.33804">
        <ele>440.2</ele>
        <time>2021-03-27T12:23:16Z</time>
      </trkpt>
      <trkpt lat="46.10107" lon="6.33808">
        <ele>440.2</ele>
        <time>2021-03-27T12:23:17Z</time>
      </trkpt>
      <trkpt lat="46.101" lon="6.33812">
        <ele>440.2</ele>
        <time>2021-03-27T12:23:18Z</time>
      </trkpt>
      <trkpt lat="46.10092" lon="6.33816">
        <ele>440.2</ele>
        <time>2021-03-27T12:23:19Z</time>
      </trkpt>
      <trkpt lat="46.10085" lon="6.3382">
        <ele>440.4</ele>
        <time>2021-03-27T12:23:20Z</time>
      </trkpt>
      <trkpt lat="46.10078" lon="6.33824">
        <ele>440.4</ele>
        <time>2021-03-27T12:23:21Z</time>
      </trkpt>
      <trkpt lat="46.10071" lon="6.33829">
        <ele>440.8</ele>
        <time>2021-03-27T12:23:22Z</time>
      </trkpt>
      <trkpt lat="46.10064" lon="6.33833">
        <ele>441</ele>
        <time>2021-03-27T12:23:23Z</time>
      </trkpt>
      <trkpt lat="46.10057" lon="6.33837">
        <ele>441.2</ele>
        <time>2021-03-27T12:23:24Z</time>
      </trkpt>
      <trkpt lat="46.1005" lon="6.33841">
        <ele>441.2</ele>
        <time>2021-03-27T12:23:25Z</time>
      </trkpt>
      <trkpt lat="46.10043" lon="6.33846">
        <ele>441.4</ele>
        <time>2021-03-27T12:23:26Z</time>
      </trkpt>
      <trkpt lat="46.10036" lon="6.3385">
        <ele>441.4</ele>
        <time>2021-03-27T12:23:27Z</time>
      </trkpt>
      <trkpt lat="46.10029" lon="6.33855">
        <ele>441.4</ele>
        <time>2021-03-27T12:23:28Z</time>
      </trkpt>
      <trkpt lat="46.10023" lon="6.33859">
        <ele>441.4</ele>
        <time>2021-03-27T12:23:29Z</time>
      </trkpt>
      <trkpt lat="46.10016" lon="6.33864">
        <ele>441.6</ele>
        <time>2021-03-27T12:23:30Z</time>
      </trkpt>
      <trkpt lat="46.1001" lon="6.33869">
        <ele>441.4</ele>
        <time>2021-03-27T12:23:31Z</time>
      </trkpt>
      <trkpt lat="46.10003" lon="6.33873">
        <ele>441.4</ele>
        <time>2021-03-27T12:23:32Z</time>
      </trkpt>
      <trkpt lat="46.09997" lon="6.33878">
        <ele>441.2</ele>
        <time>2021-03-27T12:23:33Z</time>
      </trkpt>
      <trkpt lat="46.0999" lon="6.33883">
        <ele>441.4</ele>
        <time>2021-03-27T12:23:34Z</time>
      </trkpt>
      <trkpt lat="46.09983" lon="6.33888">
        <ele>441.4</ele>
        <time>2021-03-27T12:23:35Z</time>
      </trkpt>
      <trkpt lat="46.09977" lon="6.33893">
        <ele>441.2</ele>
        <time>2021-03-27T12:23:36Z</time>
      </trkpt>
      <trkpt lat="46.0997" lon="6.33898">
        <ele>441.2</ele>
        <time>2021-03-27T12:23:37Z</time>
      </trkpt>
      <trkpt lat="46.09963" lon="6.33903">
        <ele>441.2</ele>
        <time>2021-03-27T12:23:38Z</time>
      </trkpt>
      <trkpt lat="46.09956" lon="6.33908">
        <ele>441.2</ele>
        <time>2021-03-27T12:23:39Z</time>
      </trkpt>
      <trkpt lat="46.0995" lon="6.33913">
        <ele>441</ele>
        <time>2021-03-27T12:23:40Z</time>
      </trkpt>
      <trkpt lat="46.09943" lon="6.33918">
        <ele>441.2</ele>
        <time>2021-03-27T12:23:41Z</time>
      </trkpt>
      <trkpt lat="46.09936" lon="6.33924">
        <ele>441</ele>
        <time>2021-03-27T12:23:42Z</time>
      </trkpt>
      <trkpt lat="46.09929" lon="6.33929">
        <ele>441.2</ele>
        <time>2021-03-27T12:23:43Z</time>
      </trkpt>
      <trkpt lat="46.09922" lon="6.33934">
        <ele>441</ele>
        <time>2021-03-27T12:23:44Z</time>
      </trkpt>
      <trkpt lat="46.09915" lon="6.33939">
        <ele>441.2</ele>
        <time>2021-03-27T12:23:45Z</time>
      </trkpt>
      <trkpt lat="46.09908" lon="6.33944">
        <ele>441</ele>
        <time>2021-03-27T12:23:46Z</time>
      </trkpt>
      <trkpt lat="46.09901" lon="6.3395">
        <ele>441.2</ele>
        <time>2021-03-27T12:23:47Z</time>
      </trkpt>
      <trkpt lat="46.09894" lon="6.33955">
        <ele>441.2</ele>
        <time>2021-03-27T12:23:48Z</time>
      </trkpt>
      <trkpt lat="46.09887" lon="6.33961">
        <ele>441.2</ele>
        <time>2021-03-27T12:23:49Z</time>
      </trkpt>
      <trkpt lat="46.0988" lon="6.33966">
        <ele>441</ele>
        <time>2021-03-27T12:23:50Z</time>
      </trkpt>
      <trkpt lat="46.09873" lon="6.33971">
        <ele>441</ele>
        <time>2021-03-27T12:23:51Z</time>
      </trkpt>
      <trkpt lat="46.09866" lon="6.33977">
        <ele>441</ele>
        <time>2021-03-27T12:23:52Z</time>
      </trkpt>
      <trkpt lat="46.09859" lon="6.33982">
        <ele>440.8</ele>
        <time>2021-03-27T12:23:53Z</time>
      </trkpt>
      <trkpt lat="46.09852" lon="6.33988">
        <ele>440.8</ele>
        <time>2021-03-27T12:23:54Z</time>
      </trkpt>
      <trkpt lat="46.09845" lon="6.33993">
        <ele>440.4</ele>
        <time>2021-03-27T12:23:55Z</time>
      </trkpt>
      <trkpt lat="46.09837" lon="6.33998">
        <ele>440.2</ele>
        <time>2021-03-27T12:23:56Z</time>
      </trkpt>
      <trkpt lat="46.0983" lon="6.34003">
        <ele>440</ele>
        <time>2021-03-27T12:23:57Z</time>
      </trkpt>
      <trkpt lat="46.09823" lon="6.34009">
        <ele>440</ele>
        <time>2021-03-27T12:23:58Z</time>
      </trkpt>
      <trkpt lat="46.09816" lon="6.34014">
        <ele>439.8</ele>
        <time>2021-03-27T12:23:59Z</time>
      </trkpt>
      <trkpt lat="46.09809" lon="6.34019">
        <ele>439.8</ele>
        <time>2021-03-27T12:24:00Z</time>
      </trkpt>
      <trkpt lat="46.09802" lon="6.34024">
        <ele>439.6</ele>
        <time>2021-03-27T12:24:01Z</time>
      </trkpt>
      <trkpt lat="46.09796" lon="6.34029">
        <ele>439.4</ele>
        <time>2021-03-27T12:24:02Z</time>
      </trkpt>
      <trkpt lat="46.09789" lon="6.34035">
        <ele>439.4</ele>
        <time>2021-03-27T12:24:03Z</time>
      </trkpt>
      <trkpt lat="46.09782" lon="6.3404">
        <ele>439.4</ele>
        <time>2021-03-27T12:24:04Z</time>
      </trkpt>
      <trkpt lat="46.09775" lon="6.34045">
        <ele>439.4</ele>
        <time>2021-03-27T12:24:05Z</time>
      </trkpt>
      <trkpt lat="46.09769" lon="6.3405">
        <ele>439.4</ele>
        <time>2021-03-27T12:24:06Z</time>
      </trkpt>
      <trkpt lat="46.09762" lon="6.34055">
        <ele>439.4</ele>
        <time>2021-03-27T12:24:07Z</time>
      </trkpt>
      <trkpt lat="46.09755" lon="6.3406">
        <ele>439.6</ele>
        <time>2021-03-27T12:24:08Z</time>
      </trkpt>
      <trkpt lat="46.09749" lon="6.34065">
        <ele>439.4</ele>
        <time>2021-03-27T12:24:09Z</time>
      </trkpt>
      <trkpt lat="46.09742" lon="6.3407">
        <ele>439.6</ele>
        <time>2021-03-27T12:24:10Z</time>
      </trkpt>
      <trkpt lat="46.09735" lon="6.34075">
        <ele>439.6</ele>
        <time>2021-03-27T12:24:11Z</time>
      </trkpt>
      <trkpt lat="46.09728" lon="6.3408">
        <ele>439.6</ele>
        <time>2021-03-27T12:24:12Z</time>
      </trkpt>
      <trkpt lat="46.09721" lon="6.34085">
        <ele>439.8</ele>
        <time>2021-03-27T12:24:13Z</time>
      </trkpt>
      <trkpt lat="46.09714" lon="6.3409">
        <ele>439.8</ele>
        <time>2021-03-27T12:24:14Z</time>
      </trkpt>
      <trkpt lat="46.09707" lon="6.34096">
        <ele>440</ele>
        <time>2021-03-27T12:24:15Z</time>
      </trkpt>
      <trkpt lat="46.097" lon="6.34101">
        <ele>440</ele>
        <time>2021-03-27T12:24:16Z</time>
      </trkpt>
      <trkpt lat="46.09693" lon="6.34106">
        <ele>440</ele>
        <time>2021-03-27T12:24:17Z</time>
      </trkpt>
      <trkpt lat="46.09686" lon="6.34111">
        <ele>440.2</ele>
        <time>2021-03-27T12:24:18Z</time>
      </trkpt>
      <trkpt lat="46.09679" lon="6.34116">
        <ele>440.4</ele>
        <time>2021-03-27T12:24:19Z</time>
      </trkpt>
      <trkpt lat="46.09672" lon="6.34122">
        <ele>440.2</ele>
        <time>2021-03-27T12:24:20Z</time>
      </trkpt>
      <trkpt lat="46.09665" lon="6.34127">
        <ele>440.2</ele>
        <time>2021-03-27T12:24:21Z</time>
      </trkpt>
      <trkpt lat="46.09658" lon="6.34133">
        <ele>440.2</ele>
        <time>2021-03-27T12:24:22Z</time>
      </trkpt>
      <trkpt lat="46.09651" lon="6.34139">
        <ele>440.2</ele>
        <time>2021-03-27T12:24:23Z</time>
      </trkpt>
      <trkpt lat="46.09644" lon="6.34144">
        <ele>440.4</ele>
        <time>2021-03-27T12:24:24Z</time>
      </trkpt>
      <trkpt lat="46.09637" lon="6.34149">
        <ele>440.2</ele>
        <time>2021-03-27T12:24:25Z</time>
      </trkpt>
      <trkpt lat="46.0963" lon="6.34155">
        <ele>440.2</ele>
        <time>2021-03-27T12:24:26Z</time>
      </trkpt>
      <trkpt lat="46.09623" lon="6.3416">
        <ele>440.2</ele>
        <time>2021-03-27T12:24:27Z</time>
      </trkpt>
      <trkpt lat="46.09616" lon="6.34166">
        <ele>440.2</ele>
        <time>2021-03-27T12:24:28Z</time>
      </trkpt>
      <trkpt lat="46.09609" lon="6.34171">
        <ele>440.2</ele>
        <time>2021-03-27T12:24:29Z</time>
      </trkpt>
      <trkpt lat="46.09602" lon="6.34177">
        <ele>440</ele>
        <time>2021-03-27T12:24:30Z</time>
      </trkpt>
      <trkpt lat="46.09595" lon="6.34182">
        <ele>440</ele>
        <time>2021-03-27T12:24:31Z</time>
      </trkpt>
      <trkpt lat="46.09588" lon="6.34188">
        <ele>440</ele>
        <time>2021-03-27T12:24:32Z</time>
      </trkpt>
      <trkpt lat="46.09582" lon="6.34193">
        <ele>440</ele>
        <time>2021-03-27T12:24:33Z</time>
      </trkpt>
      <trkpt lat="46.09575" lon="6.34199">
        <ele>439.8</ele>
        <time>2021-03-27T12:24:34Z</time>
      </trkpt>
      <trkpt lat="46.09569" lon="6.34205">
        <ele>440</ele>
        <time>2021-03-27T12:24:35Z</time>
      </trkpt>
      <trkpt lat="46.09562" lon="6.34211">
        <ele>440</ele>
        <time>2021-03-27T12:24:36Z</time>
      </trkpt>
      <trkpt lat="46.09556" lon="6.34217">
        <ele>440</ele>
        <time>2021-03-27T12:24:37Z</time>
      </trkpt>
      <trkpt lat="46.0955" lon="6.34223">
        <ele>440</ele>
        <time>2021-03-27T12:24:38Z</time>
      </trkpt>
      <trkpt lat="46.09544" lon="6.34229">
        <ele>440</ele>
        <time>2021-03-27T12:24:39Z</time>
      </trkpt>
      <trkpt lat="46.09538" lon="6.34236">
        <ele>440</ele>
        <time>2021-03-27T12:24:40Z</time>
      </trkpt>
      <trkpt lat="46.09532" lon="6.34242">
        <ele>440.2</ele>
        <time>2021-03-27T12:24:41Z</time>
      </trkpt>
      <trkpt lat="46.09526" lon="6.34249">
        <ele>440.4</ele>
        <time>2021-03-27T12:24:42Z</time>
      </trkpt>
      <trkpt lat="46.09521" lon="6.34256">
        <ele>440.6</ele>
        <time>2021-03-27T12:24:43Z</time>
      </trkpt>
      <trkpt lat="46.09515" lon="6.34262">
        <ele>440.4</ele>
        <time>2021-03-27T12:24:44Z</time>
      </trkpt>
      <trkpt lat="46.09509" lon="6.34269">
        <ele>440.6</ele>
        <time>2021-03-27T12:24:45Z</time>
      </trkpt>
      <trkpt lat="46.09504" lon="6.34276">
        <ele>440.8</ele>
        <time>2021-03-27T12:24:46Z</time>
      </trkpt>
      <trkpt lat="46.09498" lon="6.34283">
        <ele>441</ele>
        <time>2021-03-27T12:24:47Z</time>
      </trkpt>
      <trkpt lat="46.09493" lon="6.3429">
        <ele>440.8</ele>
        <time>2021-03-27T12:24:48Z</time>
      </trkpt>
      <trkpt lat="46.09488" lon="6.34298">
        <ele>441.2</ele>
        <time>2021-03-27T12:24:49Z</time>
      </trkpt>
      <trkpt lat="46.09483" lon="6.34305">
        <ele>441.2</ele>
        <time>2021-03-27T12:24:50Z</time>
      </trkpt>
      <trkpt lat="46.09478" lon="6.34313">
        <ele>441.4</ele>
        <time>2021-03-27T12:24:51Z</time>
      </trkpt>
      <trkpt lat="46.09472" lon="6.34321">
        <ele>441.2</ele>
        <time>2021-03-27T12:24:52Z</time>
      </trkpt>
      <trkpt lat="46.09467" lon="6.34329">
        <ele>441.4</ele>
        <time>2021-03-27T12:24:53Z</time>
      </trkpt>
      <trkpt lat="46.09462" lon="6.34337">
        <ele>441.6</ele>
        <time>2021-03-27T12:24:54Z</time>
      </trkpt>
      <trkpt lat="46.09457" lon="6.34345">
        <ele>441.8</ele>
        <time>2021-03-27T12:24:55Z</time>
      </trkpt>
      <trkpt lat="46.09453" lon="6.34353">
        <ele>441.8</ele>
        <time>2021-03-27T12:24:56Z</time>
      </trkpt>
      <trkpt lat="46.09448" lon="6.34361">
        <ele>442</ele>
        <time>2021-03-27T12:24:57Z</time>
      </trkpt>
      <trkpt lat="46.09443" lon="6.3437">
        <ele>442</ele>
        <time>2021-03-27T12:24:58Z</time>
      </trkpt>
      <trkpt lat="46.09438" lon="6.34378">
        <ele>442</ele>
        <time>2021-03-27T12:24:59Z</time>
      </trkpt>
      <trkpt lat="46.09433" lon="6.34387">
        <ele>442</ele>
        <time>2021-03-27T12:25:00Z</time>
      </trkpt>
      <trkpt lat="46.09428" lon="6.34395">
        <ele>442.2</ele>
        <time>2021-03-27T12:25:01Z</time>
      </trkpt>
      <trkpt lat="46.09423" lon="6.34404">
        <ele>442.4</ele>
        <time>2021-03-27T12:25:02Z</time>
      </trkpt>
      <trkpt lat="46.09418" lon="6.34412">
        <ele>442.4</ele>
        <time>2021-03-27T12:25:03Z</time>
      </trkpt>
      <trkpt lat="46.09413" lon="6.34421">
        <ele>442.4</ele>
        <time>2021-03-27T12:25:04Z</time>
      </trkpt>
      <trkpt lat="46.09408" lon="6.34429">
        <ele>442.4</ele>
        <time>2021-03-27T12:25:05Z</time>
      </trkpt>
      <trkpt lat="46.09402" lon="6.34438">
        <ele>442.4</ele>
        <time>2021-03-27T12:25:06Z</time>
      </trkpt>
      <trkpt lat="46.09397" lon="6.34447">
        <ele>442.6</ele>
        <time>2021-03-27T12:25:07Z</time>
      </trkpt>
      <trkpt lat="46.09392" lon="6.34455">
        <ele>442.6</ele>
        <time>2021-03-27T12:25:08Z</time>
      </trkpt>
      <trkpt lat="46.09387" lon="6.34464">
        <ele>442.6</ele>
        <time>2021-03-27T12:25:09Z</time>
      </trkpt>
      <trkpt lat="46.09381" lon="6.34473">
        <ele>442.8</ele>
        <time>2021-03-27T12:25:10Z</time>
      </trkpt>
      <trkpt lat="46.09376" lon="6.34481">
        <ele>442.8</ele>
        <time>2021-03-27T12:25:11Z</time>
      </trkpt>
      <trkpt lat="46.09371" lon="6.3449">
        <ele>443</ele>
        <time>2021-03-27T12:25:12Z</time>
      </trkpt>
      <trkpt lat="46.09366" lon="6.34498">
        <ele>443</ele>
        <time>2021-03-27T12:25:13Z</time>
      </trkpt>
      <trkpt lat="46.09361" lon="6.34507">
        <ele>442.8</ele>
        <time>2021-03-27T12:25:14Z</time>
      </trkpt>
      <trkpt lat="46.09356" lon="6.34515">
        <ele>443</ele>
        <time>2021-03-27T12:25:15Z</time>
      </trkpt>
      <trkpt lat="46.0935" lon="6.34524">
        <ele>443</ele>
        <time>2021-03-27T12:25:16Z</time>
      </trkpt>
      <trkpt lat="46.09345" lon="6.34533">
        <ele>442.8</ele>
        <time>2021-03-27T12:25:17Z</time>
      </trkpt>
      <trkpt lat="46.0934" lon="6.34541">
        <ele>443</ele>
        <time>2021-03-27T12:25:18Z</time>
      </trkpt>
      <trkpt lat="46.09335" lon="6.3455">
        <ele>443</ele>
        <time>2021-03-27T12:25:19Z</time>
      </trkpt>
      <trkpt lat="46.0933" lon="6.34559">
        <ele>443</ele>
        <time>2021-03-27T12:25:20Z</time>
      </trkpt>
      <trkpt lat="46.09324" lon="6.34567">
        <ele>443.2</ele>
        <time>2021-03-27T12:25:21Z</time>
      </trkpt>
      <trkpt lat="46.09319" lon="6.34576">
        <ele>443</ele>
        <time>2021-03-27T12:25:22Z</time>
      </trkpt>
      <trkpt lat="46.09314" lon="6.34584">
        <ele>443</ele>
        <time>2021-03-27T12:25:23Z</time>
      </trkpt>
      <trkpt lat="46.09309" lon="6.34593">
        <ele>443</ele>
        <time>2021-03-27T12:25:24Z</time>
      </trkpt>
      <trkpt lat="46.09304" lon="6.34602">
        <ele>443</ele>
        <time>2021-03-27T12:25:25Z</time>
      </trkpt>
      <trkpt lat="46.09299" lon="6.3461">
        <ele>443</ele>
        <time>2021-03-27T12:25:26Z</time>
      </trkpt>
      <trkpt lat="46.09294" lon="6.34618">
        <ele>443</ele>
        <time>2021-03-27T12:25:27Z</time>
      </trkpt>
      <trkpt lat="46.09289" lon="6.34627">
        <ele>443</ele>
        <time>2021-03-27T12:25:28Z</time>
      </trkpt>
      <trkpt lat="46.09283" lon="6.34635">
        <ele>443</ele>
        <time>2021-03-27T12:25:29Z</time>
      </trkpt>
      <trkpt lat="46.09278" lon="6.34644">
        <ele>442.8</ele>
        <time>2021-03-27T12:25:30Z</time>
      </trkpt>
      <trkpt lat="46.09273" lon="6.34652">
        <ele>442.8</ele>
        <time>2021-03-27T12:25:31Z</time>
      </trkpt>
      <trkpt lat="46.09268" lon="6.34661">
        <ele>443</ele>
        <time>2021-03-27T12:25:32Z</time>
      </trkpt>
      <trkpt lat="46.09263" lon="6.34669">
        <ele>442.8</ele>
        <time>2021-03-27T12:25:33Z</time>
      </trkpt>
      <trkpt lat="46.09258" lon="6.34678">
        <ele>443</ele>
        <time>2021-03-27T12:25:34Z</time>
      </trkpt>
      <trkpt lat="46.09253" lon="6.34686">
        <ele>442.8</ele>
        <time>2021-03-27T12:25:35Z</time>
      </trkpt>
      <trkpt lat="46.09248" lon="6.34695">
        <ele>443</ele>
        <time>2021-03-27T12:25:36Z</time>
      </trkpt>
      <trkpt lat="46.09243" lon="6.34703">
        <ele>443</ele>
        <time>2021-03-27T12:25:37Z</time>
      </trkpt>
      <trkpt lat="46.09237" lon="6.34712">
        <ele>443</ele>
        <time>2021-03-27T12:25:38Z</time>
      </trkpt>
      <trkpt lat="46.09232" lon="6.3472">
        <ele>443</ele>
        <time>2021-03-27T12:25:39Z</time>
      </trkpt>
      <trkpt lat="46.09227" lon="6.34729">
        <ele>443</ele>
        <time>2021-03-27T12:25:40Z</time>
      </trkpt>
      <trkpt lat="46.09222" lon="6.34737">
        <ele>443</ele>
        <time>2021-03-27T12:25:41Z</time>
      </trkpt>
      <trkpt lat="46.09217" lon="6.34746">
        <ele>443</ele>
        <time>2021-03-27T12:25:42Z</time>
      </trkpt>
      <trkpt lat="46.09212" lon="6.34755">
        <ele>443.2</ele>
        <time>2021-03-27T12:25:43Z</time>
      </trkpt>
      <trkpt lat="46.09206" lon="6.34763">
        <ele>443</ele>
        <time>2021-03-27T12:25:44Z</time>
      </trkpt>
      <trkpt lat="46.09201" lon="6.34772">
        <ele>443</ele>
        <time>2021-03-27T12:25:45Z</time>
      </trkpt>
      <trkpt lat="46.09196" lon="6.34781">
        <ele>443.2</ele>
        <time>2021-03-27T12:25:46Z</time>
      </trkpt>
      <trkpt lat="46.09191" lon="6.34789">
        <ele>443.2</ele>
        <time>2021-03-27T12:25:47Z</time>
      </trkpt>
      <trkpt lat="46.09186" lon="6.34798">
        <ele>443.2</ele>
        <time>2021-03-27T12:25:48Z</time>
      </trkpt>
      <trkpt lat="46.0918" lon="6.34807">
        <ele>443.2</ele>
        <time>2021-03-27T12:25:49Z</time>
      </trkpt>
      <trkpt lat="46.09175" lon="6.34815">
        <ele>443.2</ele>
        <time>2021-03-27T12:25:50Z</time>
      </trkpt>
      <trkpt lat="46.0917" lon="6.34824">
        <ele>443.2</ele>
        <time>2021-03-27T12:25:51Z</time>
      </trkpt>
      <trkpt lat="46.09165" lon="6.34833">
        <ele>443.4</ele>
        <time>2021-03-27T12:25:52Z</time>
      </trkpt>
      <trkpt lat="46.09159" lon="6.34842">
        <ele>443.4</ele>
        <time>2021-03-27T12:25:53Z</time>
      </trkpt>
      <trkpt lat="46.09154" lon="6.3485">
        <ele>443.4</ele>
        <time>2021-03-27T12:25:54Z</time>
      </trkpt>
      <trkpt lat="46.09149" lon="6.34859">
        <ele>443.2</ele>
        <time>2021-03-27T12:25:55Z</time>
      </trkpt>
      <trkpt lat="46.09144" lon="6.34867">
        <ele>443.4</ele>
        <time>2021-03-27T12:25:56Z</time>
      </trkpt>
      <trkpt lat="46.09139" lon="6.34876">
        <ele>443.4</ele>
        <time>2021-03-27T12:25:57Z</time>
      </trkpt>
      <trkpt lat="46.09133" lon="6.34885">
        <ele>443.2</ele>
        <time>2021-03-27T12:25:58Z</time>
      </trkpt>
      <trkpt lat="46.09128" lon="6.34893">
        <ele>443.4</ele>
        <time>2021-03-27T12:25:59Z</time>
      </trkpt>
      <trkpt lat="46.09123" lon="6.34902">
        <ele>443.2</ele>
        <time>2021-03-27T12:26:00Z</time>
      </trkpt>
      <trkpt lat="46.09118" lon="6.34911">
        <ele>443.4</ele>
        <time>2021-03-27T12:26:01Z</time>
      </trkpt>
      <trkpt lat="46.09113" lon="6.34919">
        <ele>443.4</ele>
        <time>2021-03-27T12:26:02Z</time>
      </trkpt>
      <trkpt lat="46.09108" lon="6.34928">
        <ele>443.2</ele>
        <time>2021-03-27T12:26:03Z</time>
      </trkpt>
      <trkpt lat="46.09102" lon="6.34937">
        <ele>443.2</ele>
        <time>2021-03-27T12:26:04Z</time>
      </trkpt>
      <trkpt lat="46.09097" lon="6.34945">
        <ele>443.2</ele>
        <time>2021-03-27T12:26:05Z</time>
      </trkpt>
      <trkpt lat="46.09092" lon="6.34953">
        <ele>443.2</ele>
        <time>2021-03-27T12:26:06Z</time>
      </trkpt>
      <trkpt lat="46.09087" lon="6.34962">
        <ele>443.2</ele>
        <time>2021-03-27T12:26:07Z</time>
      </trkpt>
      <trkpt lat="46.09082" lon="6.3497">
        <ele>443.2</ele>
        <time>2021-03-27T12:26:08Z</time>
      </trkpt>
      <trkpt lat="46.09077" lon="6.34979">
        <ele>443.2</ele>
        <time>2021-03-27T12:26:09Z</time>
      </trkpt>
      <trkpt lat="46.09072" lon="6.34987">
        <ele>443.2</ele>
        <time>2021-03-27T12:26:10Z</time>
      </trkpt>
      <trkpt lat="46.09067" lon="6.34996">
        <ele>443.2</ele>
        <time>2021-03-27T12:26:11Z</time>
      </trkpt>
      <trkpt lat="46.09062" lon="6.35004">
        <ele>443.2</ele>
        <time>2021-03-27T12:26:12Z</time>
      </trkpt>
      <trkpt lat="46.09057" lon="6.35013">
        <ele>443.2</ele>
        <time>2021-03-27T12:26:13Z</time>
      </trkpt>
      <trkpt lat="46.09052" lon="6.35021">
        <ele>443.4</ele>
        <time>2021-03-27T12:26:14Z</time>
      </trkpt>
      <trkpt lat="46.09046" lon="6.35029">
        <ele>443.2</ele>
        <time>2021-03-27T12:26:15Z</time>
      </trkpt>
      <trkpt lat="46.09041" lon="6.35038">
        <ele>443.6</ele>
        <time>2021-03-27T12:26:16Z</time>
      </trkpt>
      <trkpt lat="46.09036" lon="6.35047">
        <ele>443.6</ele>
        <time>2021-03-27T12:26:17Z</time>
      </trkpt>
      <trkpt lat="46.09031" lon="6.35055">
        <ele>443.8</ele>
        <time>2021-03-27T12:26:18Z</time>
      </trkpt>
      <trkpt lat="46.09026" lon="6.35064">
        <ele>443.6</ele>
        <time>2021-03-27T12:26:19Z</time>
      </trkpt>
      <trkpt lat="46.09021" lon="6.35073">
        <ele>443.8</ele>
        <time>2021-03-27T12:26:20Z</time>
      </trkpt>
      <trkpt lat="46.09016" lon="6.35082">
        <ele>443.8</ele>
        <time>2021-03-27T12:26:21Z</time>
      </trkpt>
      <trkpt lat="46.0901" lon="6.35091">
        <ele>444</ele>
        <time>2021-03-27T12:26:22Z</time>
      </trkpt>
      <trkpt lat="46.09005" lon="6.35099">
        <ele>444.2</ele>
        <time>2021-03-27T12:26:23Z</time>
      </trkpt>
      <trkpt lat="46.09" lon="6.35108">
        <ele>444.4</ele>
        <time>2021-03-27T12:26:24Z</time>
      </trkpt>
      <trkpt lat="46.08994" lon="6.35117">
        <ele>444.4</ele>
        <time>2021-03-27T12:26:25Z</time>
      </trkpt>
      <trkpt lat="46.08989" lon="6.35126">
        <ele>444.4</ele>
        <time>2021-03-27T12:26:26Z</time>
      </trkpt>
      <trkpt lat="46.08984" lon="6.35134">
        <ele>444.6</ele>
        <time>2021-03-27T12:26:27Z</time>
      </trkpt>
      <trkpt lat="46.08979" lon="6.35143">
        <ele>444.6</ele>
        <time>2021-03-27T12:26:28Z</time>
      </trkpt>
      <trkpt lat="46.08973" lon="6.35151">
        <ele>444.6</ele>
        <time>2021-03-27T12:26:29Z</time>
      </trkpt>
      <trkpt lat="46.08968" lon="6.35159">
        <ele>444.6</ele>
        <time>2021-03-27T12:26:30Z</time>
      </trkpt>
      <trkpt lat="46.08963" lon="6.35168">
        <ele>444.6</ele>
        <time>2021-03-27T12:26:31Z</time>
      </trkpt>
      <trkpt lat="46.08958" lon="6.35176">
        <ele>444.8</ele>
        <time>2021-03-27T12:26:32Z</time>
      </trkpt>
      <trkpt lat="46.08953" lon="6.35185">
        <ele>444.8</ele>
        <time>2021-03-27T12:26:33Z</time>
      </trkpt>
      <trkpt lat="46.08948" lon="6.35193">
        <ele>444.8</ele>
        <time>2021-03-27T12:26:34Z</time>
      </trkpt>
      <trkpt lat="46.08942" lon="6.35202">
        <ele>444.8</ele>
        <time>2021-03-27T12:26:35Z</time>
      </trkpt>
      <trkpt lat="46.08937" lon="6.3521">
        <ele>444.8</ele>
        <time>2021-03-27T12:26:36Z</time>
      </trkpt>
      <trkpt lat="46.08932" lon="6.35219">
        <ele>445</ele>
        <time>2021-03-27T12:26:37Z</time>
      </trkpt>
      <trkpt lat="46.08927" lon="6.35228">
        <ele>445</ele>
        <time>2021-03-27T12:26:38Z</time>
      </trkpt>
      <trkpt lat="46.08921" lon="6.35237">
        <ele>445</ele>
        <time>2021-03-27T12:26:39Z</time>
      </trkpt>
      <trkpt lat="46.08916" lon="6.35246">
        <ele>444.8</ele>
        <time>2021-03-27T12:26:40Z</time>
      </trkpt>
      <trkpt lat="46.08911" lon="6.35255">
        <ele>444.8</ele>
        <time>2021-03-27T12:26:41Z</time>
      </trkpt>
      <trkpt lat="46.08905" lon="6.35264">
        <ele>445</ele>
        <time>2021-03-27T12:26:42Z</time>
      </trkpt>
      <trkpt lat="46.089" lon="6.35273">
        <ele>445</ele>
        <time>2021-03-27T12:26:43Z</time>
      </trkpt>
      <trkpt lat="46.08895" lon="6.35282">
        <ele>444.8</ele>
        <time>2021-03-27T12:26:44Z</time>
      </trkpt>
      <trkpt lat="46.08889" lon="6.35291">
        <ele>445.2</ele>
        <time>2021-03-27T12:26:45Z</time>
      </trkpt>
      <trkpt lat="46.08884" lon="6.353">
        <ele>445.2</ele>
        <time>2021-03-27T12:26:46Z</time>
      </trkpt>
      <trkpt lat="46.08879" lon="6.35309">
        <ele>445</ele>
        <time>2021-03-27T12:26:47Z</time>
      </trkpt>
      <trkpt lat="46.08873" lon="6.35318">
        <ele>444.8</ele>
        <time>2021-03-27T12:26:48Z</time>
      </trkpt>
      <trkpt lat="46.08868" lon="6.35327">
        <ele>445</ele>
        <time>2021-03-27T12:26:49Z</time>
      </trkpt>
      <trkpt lat="46.08862" lon="6.35336">
        <ele>445</ele>
        <time>2021-03-27T12:26:50Z</time>
      </trkpt>
      <trkpt lat="46.08857" lon="6.35345">
        <ele>445</ele>
        <time>2021-03-27T12:26:51Z</time>
      </trkpt>
      <trkpt lat="46.08851" lon="6.35355">
        <ele>444.8</ele>
        <time>2021-03-27T12:26:52Z</time>
      </trkpt>
      <trkpt lat="46.08845" lon="6.35364">
        <ele>445</ele>
        <time>2021-03-27T12:26:53Z</time>
      </trkpt>
      <trkpt lat="46.0884" lon="6.35373">
        <ele>444.8</ele>
        <time>2021-03-27T12:26:54Z</time>
      </trkpt>
      <trkpt lat="46.08834" lon="6.35382">
        <ele>445</ele>
        <time>2021-03-27T12:26:55Z</time>
      </trkpt>
      <trkpt lat="46.08829" lon="6.35392">
        <ele>444.8</ele>
        <time>2021-03-27T12:26:56Z</time>
      </trkpt>
      <trkpt lat="46.08823" lon="6.35401">
        <ele>444.8</ele>
        <time>2021-03-27T12:26:57Z</time>
      </trkpt>
      <trkpt lat="46.08817" lon="6.3541">
        <ele>445</ele>
        <time>2021-03-27T12:26:58Z</time>
      </trkpt>
      <trkpt lat="46.08812" lon="6.3542">
        <ele>445</ele>
        <time>2021-03-27T12:26:59Z</time>
      </trkpt>
      <trkpt lat="46.08807" lon="6.3543">
        <ele>444.8</ele>
        <time>2021-03-27T12:27:00Z</time>
      </trkpt>
      <trkpt lat="46.08801" lon="6.35439">
        <ele>445</ele>
        <time>2021-03-27T12:27:01Z</time>
      </trkpt>
      <trkpt lat="46.08795" lon="6.35448">
        <ele>445</ele>
        <time>2021-03-27T12:27:02Z</time>
      </trkpt>
      <trkpt lat="46.08789" lon="6.35457">
        <ele>445</ele>
        <time>2021-03-27T12:27:03Z</time>
      </trkpt>
      <trkpt lat="46.08784" lon="6.35466">
        <ele>445</ele>
        <time>2021-03-27T12:27:04Z</time>
      </trkpt>
      <trkpt lat="46.0878" lon="6.35477">
        <ele>445</ele>
        <time>2021-03-27T12:27:05Z</time>
      </trkpt>
      <trkpt lat="46.08777" lon="6.35489">
        <ele>444.8</ele>
        <time>2021-03-27T12:27:06Z</time>
      </trkpt>
      <trkpt lat="46.08773" lon="6.355">
        <ele>445</ele>
        <time>2021-03-27T12:27:07Z</time>
      </trkpt>
      <trkpt lat="46.08769" lon="6.35512">
        <ele>445.2</ele>
        <time>2021-03-27T12:27:08Z</time>
      </trkpt>
      <trkpt lat="46.08765" lon="6.35524">
        <ele>445</ele>
        <time>2021-03-27T12:27:09Z</time>
      </trkpt>
      <trkpt lat="46.08761" lon="6.35535">
        <ele>445.2</ele>
        <time>2021-03-27T12:27:10Z</time>
      </trkpt>
      <trkpt lat="46.08757" lon="6.35546">
        <ele>445.2</ele>
        <time>2021-03-27T12:27:11Z</time>
      </trkpt>
      <trkpt lat="46.08753" lon="6.35557">
        <ele>445.2</ele>
        <time>2021-03-27T12:27:12Z</time>
      </trkpt>
      <trkpt lat="46.08749" lon="6.35568">
        <ele>445.2</ele>
        <time>2021-03-27T12:27:13Z</time>
      </trkpt>
      <trkpt lat="46.08746" lon="6.3558">
        <ele>445.2</ele>
        <time>2021-03-27T12:27:14Z</time>
      </trkpt>
      <trkpt lat="46.08742" lon="6.35591">
        <ele>445.4</ele>
        <time>2021-03-27T12:27:15Z</time>
      </trkpt>
      <trkpt lat="46.08738" lon="6.35602">
        <ele>445.4</ele>
        <time>2021-03-27T12:27:16Z</time>
      </trkpt>
      <trkpt lat="46.08735" lon="6.35613">
        <ele>445.4</ele>
        <time>2021-03-27T12:27:17Z</time>
      </trkpt>
      <trkpt lat="46.08731" lon="6.35624">
        <ele>445.4</ele>
        <time>2021-03-27T12:27:18Z</time>
      </trkpt>
      <trkpt lat="46.08727" lon="6.35635">
        <ele>445.6</ele>
        <time>2021-03-27T12:27:19Z</time>
      </trkpt>
      <trkpt lat="46.08723" lon="6.35646">
        <ele>445.6</ele>
        <time>2021-03-27T12:27:20Z</time>
      </trkpt>
      <trkpt lat="46.08718" lon="6.35657">
        <ele>445.4</ele>
        <time>2021-03-27T12:27:21Z</time>
      </trkpt>
      <trkpt lat="46.08713" lon="6.35667">
        <ele>445.6</ele>
        <time>2021-03-27T12:27:22Z</time>
      </trkpt>
      <trkpt lat="46.08709" lon="6.35678">
        <ele>445.4</ele>
        <time>2021-03-27T12:27:23Z</time>
      </trkpt>
      <trkpt lat="46.08704" lon="6.35689">
        <ele>445.4</ele>
        <time>2021-03-27T12:27:24Z</time>
      </trkpt>
      <trkpt lat="46.08699" lon="6.35699">
        <ele>445.4</ele>
        <time>2021-03-27T12:27:25Z</time>
      </trkpt>
      <trkpt lat="46.08695" lon="6.3571">
        <ele>445.4</ele>
        <time>2021-03-27T12:27:26Z</time>
      </trkpt>
      <trkpt lat="46.0869" lon="6.35721">
        <ele>445.2</ele>
        <time>2021-03-27T12:27:27Z</time>
      </trkpt>
      <trkpt lat="46.08685" lon="6.35732">
        <ele>445.2</ele>
        <time>2021-03-27T12:27:28Z</time>
      </trkpt>
      <trkpt lat="46.08681" lon="6.35742">
        <ele>445</ele>
        <time>2021-03-27T12:27:29Z</time>
      </trkpt>
      <trkpt lat="46.08676" lon="6.35753">
        <ele>444.8</ele>
        <time>2021-03-27T12:27:30Z</time>
      </trkpt>
      <trkpt lat="46.08671" lon="6.35764">
        <ele>444.8</ele>
        <time>2021-03-27T12:27:31Z</time>
      </trkpt>
      <trkpt lat="46.08667" lon="6.35774">
        <ele>444.8</ele>
        <time>2021-03-27T12:27:32Z</time>
      </trkpt>
      <trkpt lat="46.08663" lon="6.35784">
        <ele>444.8</ele>
        <time>2021-03-27T12:27:33Z</time>
      </trkpt>
      <trkpt lat="46.08658" lon="6.35794">
        <ele>444.6</ele>
        <time>2021-03-27T12:27:34Z</time>
      </trkpt>
      <trkpt lat="46.08654" lon="6.35805">
        <ele>444.4</ele>
        <time>2021-03-27T12:27:35Z</time>
      </trkpt>
      <trkpt lat="46.08649" lon="6.35815">
        <ele>444.4</ele>
        <time>2021-03-27T12:27:36Z</time>
      </trkpt>
      <trkpt lat="46.08645" lon="6.35825">
        <ele>444.2</ele>
        <time>2021-03-27T12:27:37Z</time>
      </trkpt>
      <trkpt lat="46.0864" lon="6.35835">
        <ele>444.2</ele>
        <time>2021-03-27T12:27:38Z</time>
      </trkpt>
      <trkpt lat="46.08636" lon="6.35845">
        <ele>444.2</ele>
        <time>2021-03-27T12:27:39Z</time>
      </trkpt>
      <trkpt lat="46.08631" lon="6.35855">
        <ele>444.2</ele>
        <time>2021-03-27T12:27:40Z</time>
      </trkpt>
      <trkpt lat="46.08626" lon="6.35865">
        <ele>444.4</ele>
        <time>2021-03-27T12:27:41Z</time>
      </trkpt>
      <trkpt lat="46.08622" lon="6.35874">
        <ele>444.2</ele>
        <time>2021-03-27T12:27:42Z</time>
      </trkpt>
      <trkpt lat="46.08617" lon="6.35884">
        <ele>444.2</ele>
        <time>2021-03-27T12:27:43Z</time>
      </trkpt>
      <trkpt lat="46.08612" lon="6.35894">
        <ele>444.2</ele>
        <time>2021-03-27T12:27:44Z</time>
      </trkpt>
      <trkpt lat="46.08607" lon="6.35904">
        <ele>444.2</ele>
        <time>2021-03-27T12:27:45Z</time>
      </trkpt>
      <trkpt lat="46.08602" lon="6.35914">
        <ele>444.2</ele>
        <time>2021-03-27T12:27:46Z</time>
      </trkpt>
      <trkpt lat="46.08597" lon="6.35924">
        <ele>444.4</ele>
        <time>2021-03-27T12:27:47Z</time>
      </trkpt>
      <trkpt lat="46.08593" lon="6.35933">
        <ele>444.4</ele>
        <time>2021-03-27T12:27:48Z</time>
      </trkpt>
      <trkpt lat="46.08588" lon="6.35943">
        <ele>444.4</ele>
        <time>2021-03-27T12:27:49Z</time>
      </trkpt>
      <trkpt lat="46.08583" lon="6.35953">
        <ele>444.4</ele>
        <time>2021-03-27T12:27:50Z</time>
      </trkpt>
      <trkpt lat="46.08578" lon="6.35962">
        <ele>444.6</ele>
        <time>2021-03-27T12:27:51Z</time>
      </trkpt>
      <trkpt lat="46.08573" lon="6.35972">
        <ele>444.6</ele>
        <time>2021-03-27T12:27:52Z</time>
      </trkpt>
      <trkpt lat="46.08568" lon="6.35982">
        <ele>444.6</ele>
        <time>2021-03-27T12:27:53Z</time>
      </trkpt>
      <trkpt lat="46.08563" lon="6.35992">
        <ele>444.6</ele>
        <time>2021-03-27T12:27:54Z</time>
      </trkpt>
      <trkpt lat="46.08559" lon="6.36002">
        <ele>444.4</ele>
        <time>2021-03-27T12:27:55Z</time>
      </trkpt>
      <trkpt lat="46.08554" lon="6.36011">
        <ele>444.4</ele>
        <time>2021-03-27T12:27:56Z</time>
      </trkpt>
      <trkpt lat="46.08549" lon="6.36021">
        <ele>444.6</ele>
        <time>2021-03-27T12:27:57Z</time>
      </trkpt>
      <trkpt lat="46.08544" lon="6.36031">
        <ele>444.4</ele>
        <time>2021-03-27T12:27:58Z</time>
      </trkpt>
      <trkpt lat="46.08539" lon="6.36041">
        <ele>444.6</ele>
        <time>2021-03-27T12:27:59Z</time>
      </trkpt>
      <trkpt lat="46.08534" lon="6.36051">
        <ele>444.6</ele>
        <time>2021-03-27T12:28:00Z</time>
      </trkpt>
      <trkpt lat="46.08529" lon="6.36061">
        <ele>444.6</ele>
        <time>2021-03-27T12:28:01Z</time>
      </trkpt>
      <trkpt lat="46.08524" lon="6.36071">
        <ele>444.6</ele>
        <time>2021-03-27T12:28:02Z</time>
      </trkpt>
      <trkpt lat="46.0852" lon="6.3608">
        <ele>444.4</ele>
        <time>2021-03-27T12:28:03Z</time>
      </trkpt>
      <trkpt lat="46.08515" lon="6.3609">
        <ele>444.6</ele>
        <time>2021-03-27T12:28:04Z</time>
      </trkpt>
      <trkpt lat="46.0851" lon="6.361">
        <ele>444.4</ele>
        <time>2021-03-27T12:28:05Z</time>
      </trkpt>
      <trkpt lat="46.08505" lon="6.3611">
        <ele>444.6</ele>
        <time>2021-03-27T12:28:06Z</time>
      </trkpt>
      <trkpt lat="46.085" lon="6.3612">
        <ele>444.4</ele>
        <time>2021-03-27T12:28:07Z</time>
      </trkpt>
      <trkpt lat="46.08495" lon="6.3613">
        <ele>444.2</ele>
        <time>2021-03-27T12:28:08Z</time>
      </trkpt>
      <trkpt lat="46.0849" lon="6.3614">
        <ele>444.4</ele>
        <time>2021-03-27T12:28:09Z</time>
      </trkpt>
      <trkpt lat="46.08485" lon="6.3615">
        <ele>444.2</ele>
        <time>2021-03-27T12:28:10Z</time>
      </trkpt>
      <trkpt lat="46.0848" lon="6.3616">
        <ele>444.2</ele>
        <time>2021-03-27T12:28:11Z</time>
      </trkpt>
      <trkpt lat="46.08476" lon="6.3617">
        <ele>444.2</ele>
        <time>2021-03-27T12:28:12Z</time>
      </trkpt>
      <trkpt lat="46.08471" lon="6.36179">
        <ele>444</ele>
        <time>2021-03-27T12:28:13Z</time>
      </trkpt>
      <trkpt lat="46.08466" lon="6.36189">
        <ele>444</ele>
        <time>2021-03-27T12:28:14Z</time>
      </trkpt>
      <trkpt lat="46.08461" lon="6.36199">
        <ele>443.8</ele>
        <time>2021-03-27T12:28:15Z</time>
      </trkpt>
      <trkpt lat="46.08457" lon="6.36208">
        <ele>444</ele>
        <time>2021-03-27T12:28:16Z</time>
      </trkpt>
      <trkpt lat="46.08452" lon="6.36218">
        <ele>444</ele>
        <time>2021-03-27T12:28:17Z</time>
      </trkpt>
      <trkpt lat="46.08447" lon="6.36228">
        <ele>444</ele>
        <time>2021-03-27T12:28:18Z</time>
      </trkpt>
      <trkpt lat="46.08442" lon="6.36238">
        <ele>444</ele>
        <time>2021-03-27T12:28:19Z</time>
      </trkpt>
      <trkpt lat="46.08438" lon="6.36248">
        <ele>444</ele>
        <time>2021-03-27T12:28:20Z</time>
      </trkpt>
      <trkpt lat="46.08433" lon="6.36257">
        <ele>444</ele>
        <time>2021-03-27T12:28:21Z</time>
      </trkpt>
      <trkpt lat="46.08428" lon="6.36267">
        <ele>444</ele>
        <time>2021-03-27T12:28:22Z</time>
      </trkpt>
      <trkpt lat="46.08423" lon="6.36277">
        <ele>444</ele>
        <time>2021-03-27T12:28:23Z</time>
      </trkpt>
      <trkpt lat="46.08418" lon="6.36287">
        <ele>444.2</ele>
        <time>2021-03-27T12:28:24Z</time>
      </trkpt>
      <trkpt lat="46.08414" lon="6.36297">
        <ele>444.2</ele>
        <time>2021-03-27T12:28:25Z</time>
      </trkpt>
      <trkpt lat="46.08409" lon="6.36306">
        <ele>444.2</ele>
        <time>2021-03-27T12:28:26Z</time>
      </trkpt>
      <trkpt lat="46.08405" lon="6.36315">
        <ele>444</ele>
        <time>2021-03-27T12:28:27Z</time>
      </trkpt>
      <trkpt lat="46.084" lon="6.36324">
        <ele>444.2</ele>
        <time>2021-03-27T12:28:28Z</time>
      </trkpt>
      <trkpt lat="46.08396" lon="6.36333">
        <ele>444.2</ele>
        <time>2021-03-27T12:28:29Z</time>
      </trkpt>
      <trkpt lat="46.08391" lon="6.36343">
        <ele>444.2</ele>
        <time>2021-03-27T12:28:30Z</time>
      </trkpt>
      <trkpt lat="46.08386" lon="6.36352">
        <ele>444.4</ele>
        <time>2021-03-27T12:28:31Z</time>
      </trkpt>
      <trkpt lat="46.08381" lon="6.36362">
        <ele>444.4</ele>
        <time>2021-03-27T12:28:32Z</time>
      </trkpt>
      <trkpt lat="46.08377" lon="6.36372">
        <ele>444.4</ele>
        <time>2021-03-27T12:28:33Z</time>
      </trkpt>
      <trkpt lat="46.08372" lon="6.36382">
        <ele>444.6</ele>
        <time>2021-03-27T12:28:34Z</time>
      </trkpt>
      <trkpt lat="46.08367" lon="6.36392">
        <ele>444.4</ele>
        <time>2021-03-27T12:28:35Z</time>
      </trkpt>
      <trkpt lat="46.08363" lon="6.36401">
        <ele>444.4</ele>
        <time>2021-03-27T12:28:36Z</time>
      </trkpt>
      <trkpt lat="46.08358" lon="6.36411">
        <ele>444.4</ele>
        <time>2021-03-27T12:28:37Z</time>
      </trkpt>
      <trkpt lat="46.08353" lon="6.36421">
        <ele>444.4</ele>
        <time>2021-03-27T12:28:38Z</time>
      </trkpt>
      <trkpt lat="46.08349" lon="6.3643">
        <ele>444.4</ele>
        <time>2021-03-27T12:28:39Z</time>
      </trkpt>
      <trkpt lat="46.08344" lon="6.36439">
        <ele>444.4</ele>
        <time>2021-03-27T12:28:40Z</time>
      </trkpt>
      <trkpt lat="46.0834" lon="6.36448">
        <ele>444.4</ele>
        <time>2021-03-27T12:28:41Z</time>
      </trkpt>
      <trkpt lat="46.08336" lon="6.36456">
        <ele>444.4</ele>
        <time>2021-03-27T12:28:42Z</time>
      </trkpt>
      <trkpt lat="46.08332" lon="6.36464">
        <ele>444.6</ele>
        <time>2021-03-27T12:28:43Z</time>
      </trkpt>
      <trkpt lat="46.08328" lon="6.36472">
        <ele>444.6</ele>
        <time>2021-03-27T12:28:44Z</time>
      </trkpt>
      <trkpt lat="46.08324" lon="6.3648">
        <ele>444.6</ele>
        <time>2021-03-27T12:28:45Z</time>
      </trkpt>
      <trkpt lat="46.0832" lon="6.36485">
        <ele>444.6</ele>
        <time>2021-03-27T12:28:46Z</time>
      </trkpt>
      <trkpt lat="46.08316" lon="6.36489">
        <ele>444.8</ele>
        <time>2021-03-27T12:28:47Z</time>
      </trkpt>
      <trkpt lat="46.08313" lon="6.36492">
        <ele>444.8</ele>
        <time>2021-03-27T12:28:48Z</time>
      </trkpt>
      <trkpt lat="46.08311" lon="6.36496">
        <ele>445</ele>
        <time>2021-03-27T12:28:49Z</time>
      </trkpt>
      <trkpt lat="46.0831" lon="6.365">
        <ele>445</ele>
        <time>2021-03-27T12:28:50Z</time>
      </trkpt>
      <trkpt lat="46.08309" lon="6.36503">
        <ele>445</ele>
        <time>2021-03-27T12:28:51Z</time>
      </trkpt>
      <trkpt lat="46.08309" lon="6.36504">
        <ele>445</ele>
        <time>2021-03-27T12:28:52Z</time>
      </trkpt>
      <trkpt lat="46.0831" lon="6.36504">
        <ele>445</ele>
        <time>2021-03-27T12:28:53Z</time>
      </trkpt>
      <trkpt lat="46.0831" lon="6.36504">
        <ele>445.4</ele>
        <time>2021-03-27T12:28:54Z</time>
      </trkpt>
      <trkpt lat="46.0831" lon="6.36504">
        <ele>445.4</ele>
        <time>2021-03-27T12:28:55Z</time>
      </trkpt>
      <trkpt lat="46.0831" lon="6.36504">
        <ele>445.8</ele>
        <time>2021-03-27T12:28:56Z</time>
      </trkpt>
      <trkpt lat="46.0831" lon="6.36504">
        <ele>446</ele>
        <time>2021-03-27T12:28:57Z</time>
      </trkpt>
      <trkpt lat="46.0831" lon="6.36503">
        <ele>446</ele>
        <time>2021-03-27T12:28:58Z</time>
      </trkpt>
      <trkpt lat="46.0831" lon="6.36503">
        <ele>446.2</ele>
        <time>2021-03-27T12:28:59Z</time>
      </trkpt>
      <trkpt lat="46.0831" lon="6.36503">
        <ele>446.2</ele>
        <time>2021-03-27T12:29:00Z</time>
      </trkpt>
      <trkpt lat="46.0831" lon="6.36503">
        <ele>446.2</ele>
        <time>2021-03-27T12:29:01Z</time>
      </trkpt>
      <trkpt lat="46.0831" lon="6.36503">
        <ele>446.2</ele>
        <time>2021-03-27T12:29:02Z</time>
      </trkpt>
      <trkpt lat="46.0831" lon="6.36503">
        <ele>446.4</ele>
        <time>2021-03-27T12:29:03Z</time>
      </trkpt>
      <trkpt lat="46.0831" lon="6.36503">
        <ele>446.2</ele>
        <time>2021-03-27T12:29:04Z</time>
      </trkpt>
      <trkpt lat="46.0831" lon="6.36503">
        <ele>446.2</ele>
        <time>2021-03-27T12:29:05Z</time>
      </trkpt>
      <trkpt lat="46.0831" lon="6.36503">
        <ele>446.2</ele>
        <time>2021-03-27T12:29:06Z</time>
      </trkpt>
      <trkpt lat="46.0831" lon="6.36503">
        <ele>446.2</ele>
        <time>2021-03-27T12:29:07Z</time>
      </trkpt>
      <trkpt lat="46.0831" lon="6.36503">
        <ele>446.2</ele>
        <time>2021-03-27T12:29:08Z</time>
      </trkpt>
      <trkpt lat="46.0831" lon="6.36503">
        <ele>446.2</ele>
        <time>2021-03-27T12:29:09Z</time>
      </trkpt>
      <trkpt lat="46.0831" lon="6.36502">
        <ele>446.2</ele>
        <time>2021-03-27T12:29:10Z</time>
      </trkpt>
      <trkpt lat="46.0831" lon="6.36502">
        <ele>446.4</ele>
        <time>2021-03-27T12:29:11Z</time>
      </trkpt>
      <trkpt lat="46.0831" lon="6.36502">
        <ele>446.2</ele>
        <time>2021-03-27T12:29:12Z</time>
      </trkpt>
      <trkpt lat="46.0831" lon="6.36502">
        <ele>446.4</ele>
        <time>2021-03-27T12:29:13Z</time>
      </trkpt>
      <trkpt lat="46.08311" lon="6.36502">
        <ele>446.4</ele>
        <time>2021-03-27T12:29:14Z</time>
      </trkpt>
      <trkpt lat="46.08311" lon="6.36502">
        <ele>446.4</ele>
        <time>2021-03-27T12:29:15Z</time>
      </trkpt>
      <trkpt lat="46.08311" lon="6.36502">
        <ele>446.4</ele>
        <time>2021-03-27T12:29:16Z</time>
      </trkpt>
      <trkpt lat="46.08311" lon="6.36502">
        <ele>446.4</ele>
        <time>2021-03-27T12:29:17Z</time>
      </trkpt>
      <trkpt lat="46.08311" lon="6.36502">
        <ele>446.4</ele>
        <time>2021-03-27T12:29:18Z</time>
      </trkpt>
      <trkpt lat="46.08311" lon="6.36502">
        <ele>446.4</ele>
        <time>2021-03-27T12:29:19Z</time>
      </trkpt>
      <trkpt lat="46.08311" lon="6.36501">
        <ele>446.4</ele>
        <time>2021-03-27T12:29:20Z</time>
      </trkpt>
      <trkpt lat="46.08311" lon="6.36501">
        <ele>446.4</ele>
        <time>2021-03-27T12:29:21Z</time>
      </trkpt>
      <trkpt lat="46.08311" lon="6.36501">
        <ele>446.4</ele>
        <time>2021-03-27T12:29:22Z</time>
      </trkpt>
      <trkpt lat="46.08311" lon="6.36501">
        <ele>446.6</ele>
        <time>2021-03-27T12:29:23Z</time>
      </trkpt>
      <trkpt lat="46.08311" lon="6.36501">
        <ele>446.4</ele>
        <time>2021-03-27T12:29:24Z</time>
      </trkpt>
      <trkpt lat="46.08311" lon="6.36501">
        <ele>446.4</ele>
        <time>2021-03-27T12:29:25Z</time>
      </trkpt>
      <trkpt lat="46.08311" lon="6.36501">
        <ele>446.4</ele>
        <time>2021-03-27T12:29:26Z</time>
      </trkpt>
      <trkpt lat="46.08311" lon="6.36501">
        <ele>446.4</ele>
        <time>2021-03-27T12:29:27Z</time>
      </trkpt>
      <trkpt lat="46.08311" lon="6.36501">
        <ele>446.6</ele>
        <time>2021-03-27T12:29:28Z</time>
      </trkpt>
      <trkpt lat="46.08311" lon="6.36501">
        <ele>446.6</ele>
        <time>2021-03-27T12:29:29Z</time>
      </trkpt>
      <trkpt lat="46.08311" lon="6.36501">
        <ele>446.4</ele>
        <time>2021-03-27T12:29:30Z</time>
      </trkpt>
      <trkpt lat="46.08311" lon="6.36502">
        <ele>446.4</ele>
        <time>2021-03-27T12:29:31Z</time>
      </trkpt>
      <trkpt lat="46.08313" lon="6.36502">
        <ele>446.4</ele>
        <time>2021-03-27T12:29:32Z</time>
      </trkpt>
      <trkpt lat="46.08314" lon="6.36502">
        <ele>446.4</ele>
        <time>2021-03-27T12:29:33Z</time>
      </trkpt>
      <trkpt lat="46.08316" lon="6.36498">
        <ele>446.4</ele>
        <time>2021-03-27T12:29:34Z</time>
      </trkpt>
      <trkpt lat="46.08317" lon="6.36494">
        <ele>446.4</ele>
        <time>2021-03-27T12:29:35Z</time>
      </trkpt>
      <trkpt lat="46.08317" lon="6.3649">
        <ele>446.4</ele>
        <time>2021-03-27T12:29:36Z</time>
      </trkpt>
      <trkpt lat="46.08315" lon="6.36486">
        <ele>446.2</ele>
        <time>2021-03-27T12:29:37Z</time>
      </trkpt>
      <trkpt lat="46.08313" lon="6.36482">
        <ele>446.4</ele>
        <time>2021-03-27T12:29:38Z</time>
      </trkpt>
      <trkpt lat="46.0831" lon="6.36479">
        <ele>446.2</ele>
        <time>2021-03-27T12:29:39Z</time>
      </trkpt>
      <trkpt lat="46.08306" lon="6.36475">
        <ele>446.2</ele>
        <time>2021-03-27T12:29:40Z</time>
      </trkpt>
      <trkpt lat="46.08302" lon="6.36471">
        <ele>446.2</ele>
        <time>2021-03-27T12:29:41Z</time>
      </trkpt>
      <trkpt lat="46.08298" lon="6.36468">
        <ele>446</ele>
        <time>2021-03-27T12:29:42Z</time>
      </trkpt>
      <trkpt lat="46.08294" lon="6.36463">
        <ele>445.8</ele>
        <time>2021-03-27T12:29:43Z</time>
      </trkpt>
      <trkpt lat="46.08289" lon="6.36459">
        <ele>445.8</ele>
        <time>2021-03-27T12:29:44Z</time>
      </trkpt>
      <trkpt lat="46.08284" lon="6.36455">
        <ele>445.6</ele>
        <time>2021-03-27T12:29:45Z</time>
      </trkpt>
      <trkpt lat="46.08279" lon="6.3645">
        <ele>445.4</ele>
        <time>2021-03-27T12:29:46Z</time>
      </trkpt>
      <trkpt lat="46.08274" lon="6.36445">
        <ele>445.4</ele>
        <time>2021-03-27T12:29:47Z</time>
      </trkpt>
      <trkpt lat="46.08269" lon="6.3644">
        <ele>445.4</ele>
        <time>2021-03-27T12:29:48Z</time>
      </trkpt>
      <trkpt lat="46.08264" lon="6.36435">
        <ele>445.4</ele>
        <time>2021-03-27T12:29:49Z</time>
      </trkpt>
      <trkpt lat="46.08258" lon="6.3643">
        <ele>445.2</ele>
        <time>2021-03-27T12:29:50Z</time>
      </trkpt>
      <trkpt lat="46.08253" lon="6.36425">
        <ele>445.4</ele>
        <time>2021-03-27T12:29:51Z</time>
      </trkpt>
      <trkpt lat="46.08247" lon="6.36419">
        <ele>445.2</ele>
        <time>2021-03-27T12:29:52Z</time>
      </trkpt>
      <trkpt lat="46.08242" lon="6.36414">
        <ele>445.2</ele>
        <time>2021-03-27T12:29:53Z</time>
      </trkpt>
      <trkpt lat="46.08236" lon="6.36409">
        <ele>445.4</ele>
        <time>2021-03-27T12:29:54Z</time>
      </trkpt>
      <trkpt lat="46.0823" lon="6.36404">
        <ele>445.4</ele>
        <time>2021-03-27T12:29:55Z</time>
      </trkpt>
      <trkpt lat="46.08225" lon="6.36399">
        <ele>445.4</ele>
        <time>2021-03-27T12:29:56Z</time>
      </trkpt>
      <trkpt lat="46.08219" lon="6.36394">
        <ele>445.4</ele>
        <time>2021-03-27T12:29:57Z</time>
      </trkpt>
      <trkpt lat="46.08213" lon="6.3639">
        <ele>445.4</ele>
        <time>2021-03-27T12:29:58Z</time>
      </trkpt>
      <trkpt lat="46.08206" lon="6.36387">
        <ele>445.4</ele>
        <time>2021-03-27T12:29:59Z</time>
      </trkpt>
      <trkpt lat="46.082" lon="6.36386">
        <ele>445.4</ele>
        <time>2021-03-27T12:30:00Z</time>
      </trkpt>
      <trkpt lat="46.08193" lon="6.36385">
        <ele>445.4</ele>
        <time>2021-03-27T12:30:01Z</time>
      </trkpt>
      <trkpt lat="46.08186" lon="6.36384">
        <ele>445.4</ele>
        <time>2021-03-27T12:30:02Z</time>
      </trkpt>
      <trkpt lat="46.08179" lon="6.36384">
        <ele>445.4</ele>
        <time>2021-03-27T12:30:03Z</time>
      </trkpt>
      <trkpt lat="46.08172" lon="6.36385">
        <ele>445.6</ele>
        <time>2021-03-27T12:30:04Z</time>
      </trkpt>
      <trkpt lat="46.08165" lon="6.36386">
        <ele>445.6</ele>
        <time>2021-03-27T12:30:05Z</time>
      </trkpt>
      <trkpt lat="46.08158" lon="6.36386">
        <ele>445.6</ele>
        <time>2021-03-27T12:30:06Z</time>
      </trkpt>
      <trkpt lat="46.0815" lon="6.36386">
        <ele>445.6</ele>
        <time>2021-03-27T12:30:07Z</time>
      </trkpt>
      <trkpt lat="46.08142" lon="6.36386">
        <ele>445.8</ele>
        <time>2021-03-27T12:30:08Z</time>
      </trkpt>
      <trkpt lat="46.08135" lon="6.36386">
        <ele>446</ele>
        <time>2021-03-27T12:30:09Z</time>
      </trkpt>
      <trkpt lat="46.08127" lon="6.36387">
        <ele>446.2</ele>
        <time>2021-03-27T12:30:10Z</time>
      </trkpt>
      <trkpt lat="46.0812" lon="6.36387">
        <ele>446.2</ele>
        <time>2021-03-27T12:30:11Z</time>
      </trkpt>
      <trkpt lat="46.08112" lon="6.36388">
        <ele>446.2</ele>
        <time>2021-03-27T12:30:12Z</time>
      </trkpt>
      <trkpt lat="46.08105" lon="6.36388">
        <ele>446.2</ele>
        <time>2021-03-27T12:30:13Z</time>
      </trkpt>
      <trkpt lat="46.08097" lon="6.36387">
        <ele>446</ele>
        <time>2021-03-27T12:30:14Z</time>
      </trkpt>
      <trkpt lat="46.0809" lon="6.36386">
        <ele>446</ele>
        <time>2021-03-27T12:30:15Z</time>
      </trkpt>
      <trkpt lat="46.08082" lon="6.36382">
        <ele>446.2</ele>
        <time>2021-03-27T12:30:16Z</time>
      </trkpt>
      <trkpt lat="46.08076" lon="6.36378">
        <ele>446.2</ele>
        <time>2021-03-27T12:30:17Z</time>
      </trkpt>
      <trkpt lat="46.08069" lon="6.36373">
        <ele>446</ele>
        <time>2021-03-27T12:30:18Z</time>
      </trkpt>
      <trkpt lat="46.08063" lon="6.36367">
        <ele>446</ele>
        <time>2021-03-27T12:30:19Z</time>
      </trkpt>
      <trkpt lat="46.08057" lon="6.3636">
        <ele>446</ele>
        <time>2021-03-27T12:30:20Z</time>
      </trkpt>
      <trkpt lat="46.08052" lon="6.36352">
        <ele>446</ele>
        <time>2021-03-27T12:30:21Z</time>
      </trkpt>
      <trkpt lat="46.08047" lon="6.36345">
        <ele>446.2</ele>
        <time>2021-03-27T12:30:22Z</time>
      </trkpt>
      <trkpt lat="46.08042" lon="6.36337">
        <ele>446</ele>
        <time>2021-03-27T12:30:23Z</time>
      </trkpt>
      <trkpt lat="46.08038" lon="6.36329">
        <ele>446</ele>
        <time>2021-03-27T12:30:24Z</time>
      </trkpt>
      <trkpt lat="46.08034" lon="6.3632">
        <ele>445.8</ele>
        <time>2021-03-27T12:30:25Z</time>
      </trkpt>
      <trkpt lat="46.08029" lon="6.36312">
        <ele>445.6</ele>
        <time>2021-03-27T12:30:26Z</time>
      </trkpt>
      <trkpt lat="46.08025" lon="6.36304">
        <ele>445.6</ele>
        <time>2021-03-27T12:30:27Z</time>
      </trkpt>
      <trkpt lat="46.08021" lon="6.36296">
        <ele>445.6</ele>
        <time>2021-03-27T12:30:28Z</time>
      </trkpt>
      <trkpt lat="46.08017" lon="6.36288">
        <ele>445.6</ele>
        <time>2021-03-27T12:30:29Z</time>
      </trkpt>
      <trkpt lat="46.08013" lon="6.3628">
        <ele>445.6</ele>
        <time>2021-03-27T12:30:30Z</time>
      </trkpt>
      <trkpt lat="46.08009" lon="6.36272">
        <ele>445.6</ele>
        <time>2021-03-27T12:30:31Z</time>
      </trkpt>
      <trkpt lat="46.08005" lon="6.36264">
        <ele>445.8</ele>
        <time>2021-03-27T12:30:32Z</time>
      </trkpt>
      <trkpt lat="46.08001" lon="6.36256">
        <ele>445.8</ele>
        <time>2021-03-27T12:30:33Z</time>
      </trkpt>
      <trkpt lat="46.07996" lon="6.36248">
        <ele>445.8</ele>
        <time>2021-03-27T12:30:34Z</time>
      </trkpt>
      <trkpt lat="46.07992" lon="6.36241">
        <ele>446</ele>
        <time>2021-03-27T12:30:35Z</time>
      </trkpt>
      <trkpt lat="46.07987" lon="6.36234">
        <ele>446.2</ele>
        <time>2021-03-27T12:30:36Z</time>
      </trkpt>
      <trkpt lat="46.07983" lon="6.36228">
        <ele>446.2</ele>
        <time>2021-03-27T12:30:37Z</time>
      </trkpt>
      <trkpt lat="46.07978" lon="6.36222">
        <ele>446.6</ele>
        <time>2021-03-27T12:30:38Z</time>
      </trkpt>
      <trkpt lat="46.07973" lon="6.36216">
        <ele>446.4</ele>
        <time>2021-03-27T12:30:39Z</time>
      </trkpt>
      <trkpt lat="46.07969" lon="6.3621">
        <ele>446.6</ele>
        <time>2021-03-27T12:30:40Z</time>
      </trkpt>
      <trkpt lat="46.07965" lon="6.36205">
        <ele>446.6</ele>
        <time>2021-03-27T12:30:41Z</time>
      </trkpt>
      <trkpt lat="46.0796" lon="6.362">
        <ele>446.6</ele>
        <time>2021-03-27T12:30:42Z</time>
      </trkpt>
      <trkpt lat="46.07955" lon="6.36196">
        <ele>446.8</ele>
        <time>2021-03-27T12:30:43Z</time>
      </trkpt>
      <trkpt lat="46.07951" lon="6.36192">
        <ele>446.6</ele>
        <time>2021-03-27T12:30:44Z</time>
      </trkpt>
      <trkpt lat="46.07947" lon="6.36188">
        <ele>447</ele>
        <time>2021-03-27T12:30:45Z</time>
      </trkpt>
      <trkpt lat="46.07942" lon="6.36185">
        <ele>447.2</ele>
        <time>2021-03-27T12:30:46Z</time>
      </trkpt>
      <trkpt lat="46.07938" lon="6.36181">
        <ele>447.4</ele>
        <time>2021-03-27T12:30:47Z</time>
      </trkpt>
      <trkpt lat="46.07934" lon="6.36178">
        <ele>447.6</ele>
        <time>2021-03-27T12:30:48Z</time>
      </trkpt>
      <trkpt lat="46.0793" lon="6.36175">
        <ele>448</ele>
        <time>2021-03-27T12:30:49Z</time>
      </trkpt>
      <trkpt lat="46.07926" lon="6.36172">
        <ele>448.6</ele>
        <time>2021-03-27T12:30:50Z</time>
      </trkpt>
      <trkpt lat="46.07922" lon="6.36169">
        <ele>449.2</ele>
        <time>2021-03-27T12:30:51Z</time>
      </trkpt>
      <trkpt lat="46.07917" lon="6.36166">
        <ele>449.6</ele>
        <time>2021-03-27T12:30:52Z</time>
      </trkpt>
      <trkpt lat="46.07913" lon="6.36163">
        <ele>450</ele>
        <time>2021-03-27T12:30:53Z</time>
      </trkpt>
      <trkpt lat="46.07909" lon="6.3616">
        <ele>450.6</ele>
        <time>2021-03-27T12:30:54Z</time>
      </trkpt>
      <trkpt lat="46.07905" lon="6.36157">
        <ele>450.8</ele>
        <time>2021-03-27T12:30:55Z</time>
      </trkpt>
      <trkpt lat="46.07901" lon="6.36154">
        <ele>451.2</ele>
        <time>2021-03-27T12:30:56Z</time>
      </trkpt>
      <trkpt lat="46.07897" lon="6.36151">
        <ele>451.6</ele>
        <time>2021-03-27T12:30:57Z</time>
      </trkpt>
      <trkpt lat="46.07893" lon="6.36147">
        <ele>451.8</ele>
        <time>2021-03-27T12:30:58Z</time>
      </trkpt>
      <trkpt lat="46.07888" lon="6.36144">
        <ele>451.8</ele>
        <time>2021-03-27T12:30:59Z</time>
      </trkpt>
      <trkpt lat="46.07884" lon="6.36141">
        <ele>452</ele>
        <time>2021-03-27T12:31:00Z</time>
      </trkpt>
      <trkpt lat="46.0788" lon="6.36137">
        <ele>452.2</ele>
        <time>2021-03-27T12:31:01Z</time>
      </trkpt>
      <trkpt lat="46.07875" lon="6.36134">
        <ele>452.6</ele>
        <time>2021-03-27T12:31:02Z</time>
      </trkpt>
      <trkpt lat="46.07871" lon="6.36131">
        <ele>453</ele>
        <time>2021-03-27T12:31:03Z</time>
      </trkpt>
      <trkpt lat="46.07866" lon="6.36128">
        <ele>453.6</ele>
        <time>2021-03-27T12:31:04Z</time>
      </trkpt>
      <trkpt lat="46.07861" lon="6.36125">
        <ele>453.8</ele>
        <time>2021-03-27T12:31:05Z</time>
      </trkpt>
      <trkpt lat="46.07856" lon="6.36122">
        <ele>453.8</ele>
        <time>2021-03-27T12:31:06Z</time>
      </trkpt>
      <trkpt lat="46.07851" lon="6.3612">
        <ele>454</ele>
        <time>2021-03-27T12:31:07Z</time>
      </trkpt>
      <trkpt lat="46.07846" lon="6.36117">
        <ele>454.2</ele>
        <time>2021-03-27T12:31:08Z</time>
      </trkpt>
      <trkpt lat="46.07841" lon="6.36115">
        <ele>454.4</ele>
        <time>2021-03-27T12:31:09Z</time>
      </trkpt>
      <trkpt lat="46.07836" lon="6.36113">
        <ele>454.4</ele>
        <time>2021-03-27T12:31:10Z</time>
      </trkpt>
      <trkpt lat="46.0783" lon="6.36111">
        <ele>454.4</ele>
        <time>2021-03-27T12:31:11Z</time>
      </trkpt>
      <trkpt lat="46.07825" lon="6.36109">
        <ele>454.4</ele>
        <time>2021-03-27T12:31:12Z</time>
      </trkpt>
      <trkpt lat="46.07819" lon="6.36107">
        <ele>454.6</ele>
        <time>2021-03-27T12:31:13Z</time>
      </trkpt>
      <trkpt lat="46.07814" lon="6.36106">
        <ele>454.8</ele>
        <time>2021-03-27T12:31:14Z</time>
      </trkpt>
      <trkpt lat="46.07808" lon="6.36104">
        <ele>454.8</ele>
        <time>2021-03-27T12:31:15Z</time>
      </trkpt>
      <trkpt lat="46.07803" lon="6.36101">
        <ele>454.8</ele>
        <time>2021-03-27T12:31:16Z</time>
      </trkpt>
      <trkpt lat="46.07798" lon="6.36099">
        <ele>454.8</ele>
        <time>2021-03-27T12:31:17Z</time>
      </trkpt>
      <trkpt lat="46.07792" lon="6.36096">
        <ele>454.8</ele>
        <time>2021-03-27T12:31:18Z</time>
      </trkpt>
      <trkpt lat="46.07787" lon="6.36094">
        <ele>454.8</ele>
        <time>2021-03-27T12:31:19Z</time>
      </trkpt>
      <trkpt lat="46.07781" lon="6.36092">
        <ele>455</ele>
        <time>2021-03-27T12:31:20Z</time>
      </trkpt>
      <trkpt lat="46.07775" lon="6.3609">
        <ele>455.2</ele>
        <time>2021-03-27T12:31:21Z</time>
      </trkpt>
      <trkpt lat="46.0777" lon="6.36088">
        <ele>455</ele>
        <time>2021-03-27T12:31:22Z</time>
      </trkpt>
      <trkpt lat="46.07764" lon="6.36086">
        <ele>455.2</ele>
        <time>2021-03-27T12:31:23Z</time>
      </trkpt>
      <trkpt lat="46.07758" lon="6.36083">
        <ele>455.2</ele>
        <time>2021-03-27T12:31:24Z</time>
      </trkpt>
      <trkpt lat="46.07753" lon="6.36081">
        <ele>455.2</ele>
        <time>2021-03-27T12:31:25Z</time>
      </trkpt>
      <trkpt lat="46.07747" lon="6.36079">
        <ele>455.2</ele>
        <time>2021-03-27T12:31:26Z</time>
      </trkpt>
      <trkpt lat="46.07741" lon="6.36077">
        <ele>455.6</ele>
        <time>2021-03-27T12:31:27Z</time>
      </trkpt>
      <trkpt lat="46.07735" lon="6.36075">
        <ele>455.6</ele>
        <time>2021-03-27T12:31:28Z</time>
      </trkpt>
      <trkpt lat="46.07729" lon="6.36072">
        <ele>455.8</ele>
        <time>2021-03-27T12:31:29Z</time>
      </trkpt>
      <trkpt lat="46.07723" lon="6.3607">
        <ele>456</ele>
        <time>2021-03-27T12:31:30Z</time>
      </trkpt>
      <trkpt lat="46.07717" lon="6.36068">
        <ele>456</ele>
        <time>2021-03-27T12:31:31Z</time>
      </trkpt>
      <trkpt lat="46.07711" lon="6.36066">
        <ele>456.2</ele>
        <time>2021-03-27T12:31:32Z</time>
      </trkpt>
      <trkpt lat="46.07706" lon="6.36064">
        <ele>456</ele>
        <time>2021-03-27T12:31:33Z</time>
      </trkpt>
      <trkpt lat="46.077" lon="6.36062">
        <ele>456.2</ele>
        <time>2021-03-27T12:31:34Z</time>
      </trkpt>
      <trkpt lat="46.07695" lon="6.36059">
        <ele>456.2</ele>
        <time>2021-03-27T12:31:35Z</time>
      </trkpt>
      <trkpt lat="46.0769" lon="6.36057">
        <ele>456.4</ele>
        <time>2021-03-27T12:31:36Z</time>
      </trkpt>
      <trkpt lat="46.07685" lon="6.36056">
        <ele>456.2</ele>
        <time>2021-03-27T12:31:37Z</time>
      </trkpt>
      <trkpt lat="46.07681" lon="6.36058">
        <ele>456.2</ele>
        <time>2021-03-27T12:31:38Z</time>
      </trkpt>
      <trkpt lat="46.07677" lon="6.36062">
        <ele>456.4</ele>
        <time>2021-03-27T12:31:39Z</time>
      </trkpt>
      <trkpt lat="46.07674" lon="6.36068">
        <ele>456.4</ele>
        <time>2021-03-27T12:31:40Z</time>
      </trkpt>
      <trkpt lat="46.07671" lon="6.36076">
        <ele>456.4</ele>
        <time>2021-03-27T12:31:41Z</time>
      </trkpt>
      <trkpt lat="46.07665" lon="6.36092">
        <ele>456.8</ele>
        <time>2021-03-27T12:31:43Z</time>
      </trkpt>
      <trkpt lat="46.07663" lon="6.361">
        <ele>456.8</ele>
        <time>2021-03-27T12:31:44Z</time>
      </trkpt>
      <trkpt lat="46.0766" lon="6.36109">
        <ele>457</ele>
        <time>2021-03-27T12:31:45Z</time>
      </trkpt>
      <trkpt lat="46.07659" lon="6.36117">
        <ele>457.2</ele>
        <time>2021-03-27T12:31:46Z</time>
      </trkpt>
      <trkpt lat="46.07657" lon="6.36126">
        <ele>457.4</ele>
        <time>2021-03-27T12:31:47Z</time>
      </trkpt>
      <trkpt lat="46.07655" lon="6.36135">
        <ele>457.6</ele>
        <time>2021-03-27T12:31:48Z</time>
      </trkpt>
      <trkpt lat="46.07653" lon="6.36144">
        <ele>457.6</ele>
        <time>2021-03-27T12:31:49Z</time>
      </trkpt>
      <trkpt lat="46.07651" lon="6.36154">
        <ele>458</ele>
        <time>2021-03-27T12:31:50Z</time>
      </trkpt>
      <trkpt lat="46.0765" lon="6.36163">
        <ele>457.8</ele>
        <time>2021-03-27T12:31:51Z</time>
      </trkpt>
      <trkpt lat="46.07648" lon="6.36173">
        <ele>458</ele>
        <time>2021-03-27T12:31:52Z</time>
      </trkpt>
      <trkpt lat="46.07647" lon="6.36182">
        <ele>458</ele>
        <time>2021-03-27T12:31:53Z</time>
      </trkpt>
      <trkpt lat="46.07645" lon="6.36192">
        <ele>458</ele>
        <time>2021-03-27T12:31:54Z</time>
      </trkpt>
      <trkpt lat="46.07644" lon="6.36202">
        <ele>458.2</ele>
        <time>2021-03-27T12:31:55Z</time>
      </trkpt>
      <trkpt lat="46.07642" lon="6.36212">
        <ele>458.2</ele>
        <time>2021-03-27T12:31:56Z</time>
      </trkpt>
      <trkpt lat="46.07641" lon="6.36222">
        <ele>458.2</ele>
        <time>2021-03-27T12:31:57Z</time>
      </trkpt>
      <trkpt lat="46.0764" lon="6.36232">
        <ele>458.4</ele>
        <time>2021-03-27T12:31:58Z</time>
      </trkpt>
      <trkpt lat="46.07639" lon="6.36241">
        <ele>458.4</ele>
        <time>2021-03-27T12:31:59Z</time>
      </trkpt>
      <trkpt lat="46.07637" lon="6.36251">
        <ele>458.4</ele>
        <time>2021-03-27T12:32:00Z</time>
      </trkpt>
      <trkpt lat="46.07635" lon="6.36261">
        <ele>458.4</ele>
        <time>2021-03-27T12:32:01Z</time>
      </trkpt>
      <trkpt lat="46.07634" lon="6.36271">
        <ele>458.6</ele>
        <time>2021-03-27T12:32:02Z</time>
      </trkpt>
      <trkpt lat="46.07633" lon="6.36281">
        <ele>458.6</ele>
        <time>2021-03-27T12:32:03Z</time>
      </trkpt>
      <trkpt lat="46.07632" lon="6.36291">
        <ele>458.8</ele>
        <time>2021-03-27T12:32:04Z</time>
      </trkpt>
      <trkpt lat="46.07631" lon="6.36301">
        <ele>458.8</ele>
        <time>2021-03-27T12:32:05Z</time>
      </trkpt>
      <trkpt lat="46.07631" lon="6.36311">
        <ele>458.8</ele>
        <time>2021-03-27T12:32:06Z</time>
      </trkpt>
      <trkpt lat="46.07631" lon="6.36321">
        <ele>458.8</ele>
        <time>2021-03-27T12:32:07Z</time>
      </trkpt>
      <trkpt lat="46.07631" lon="6.36331">
        <ele>458.8</ele>
        <time>2021-03-27T12:32:08Z</time>
      </trkpt>
      <trkpt lat="46.07631" lon="6.36341">
        <ele>459</ele>
        <time>2021-03-27T12:32:09Z</time>
      </trkpt>
      <trkpt lat="46.07632" lon="6.36351">
        <ele>458.8</ele>
        <time>2021-03-27T12:32:10Z</time>
      </trkpt>
      <trkpt lat="46.07632" lon="6.36362">
        <ele>459</ele>
        <time>2021-03-27T12:32:11Z</time>
      </trkpt>
      <trkpt lat="46.07633" lon="6.36372">
        <ele>459</ele>
        <time>2021-03-27T12:32:12Z</time>
      </trkpt>
      <trkpt lat="46.07635" lon="6.36382">
        <ele>459.2</ele>
        <time>2021-03-27T12:32:13Z</time>
      </trkpt>
      <trkpt lat="46.07637" lon="6.36392">
        <ele>459.2</ele>
        <time>2021-03-27T12:32:14Z</time>
      </trkpt>
      <trkpt lat="46.0764" lon="6.36402">
        <ele>459.2</ele>
        <time>2021-03-27T12:32:15Z</time>
      </trkpt>
      <trkpt lat="46.07643" lon="6.36412">
        <ele>459.4</ele>
        <time>2021-03-27T12:32:16Z</time>
      </trkpt>
      <trkpt lat="46.07646" lon="6.36422">
        <ele>459.4</ele>
        <time>2021-03-27T12:32:17Z</time>
      </trkpt>
      <trkpt lat="46.07649" lon="6.36432">
        <ele>459.4</ele>
        <time>2021-03-27T12:32:18Z</time>
      </trkpt>
      <trkpt lat="46.07651" lon="6.36443">
        <ele>459.6</ele>
        <time>2021-03-27T12:32:19Z</time>
      </trkpt>
      <trkpt lat="46.07653" lon="6.36454">
        <ele>459.6</ele>
        <time>2021-03-27T12:32:20Z</time>
      </trkpt>
      <trkpt lat="46.07654" lon="6.36465">
        <ele>459.4</ele>
        <time>2021-03-27T12:32:21Z</time>
      </trkpt>
      <trkpt lat="46.07655" lon="6.36476">
        <ele>459.6</ele>
        <time>2021-03-27T12:32:22Z</time>
      </trkpt>
      <trkpt lat="46.07655" lon="6.36488">
        <ele>459.4</ele>
        <time>2021-03-27T12:32:23Z</time>
      </trkpt>
      <trkpt lat="46.07655" lon="6.36499">
        <ele>459.4</ele>
        <time>2021-03-27T12:32:24Z</time>
      </trkpt>
      <trkpt lat="46.07654" lon="6.36511">
        <ele>459.4</ele>
        <time>2021-03-27T12:32:25Z</time>
      </trkpt>
      <trkpt lat="46.07654" lon="6.36522">
        <ele>459.4</ele>
        <time>2021-03-27T12:32:26Z</time>
      </trkpt>
      <trkpt lat="46.07652" lon="6.36534">
        <ele>459.6</ele>
        <time>2021-03-27T12:32:27Z</time>
      </trkpt>
      <trkpt lat="46.0765" lon="6.36545">
        <ele>459.4</ele>
        <time>2021-03-27T12:32:28Z</time>
      </trkpt>
      <trkpt lat="46.07647" lon="6.36555">
        <ele>459.6</ele>
        <time>2021-03-27T12:32:29Z</time>
      </trkpt>
      <trkpt lat="46.07643" lon="6.36566">
        <ele>459.4</ele>
        <time>2021-03-27T12:32:30Z</time>
      </trkpt>
      <trkpt lat="46.07639" lon="6.36576">
        <ele>459.4</ele>
        <time>2021-03-27T12:32:31Z</time>
      </trkpt>
      <trkpt lat="46.07636" lon="6.36587">
        <ele>459.4</ele>
        <time>2021-03-27T12:32:32Z</time>
      </trkpt>
      <trkpt lat="46.07632" lon="6.36598">
        <ele>459.4</ele>
        <time>2021-03-27T12:32:33Z</time>
      </trkpt>
      <trkpt lat="46.07628" lon="6.36608">
        <ele>459.2</ele>
        <time>2021-03-27T12:32:34Z</time>
      </trkpt>
      <trkpt lat="46.07624" lon="6.36618">
        <ele>459.2</ele>
        <time>2021-03-27T12:32:35Z</time>
      </trkpt>
      <trkpt lat="46.07618" lon="6.36625">
        <ele>459</ele>
        <time>2021-03-27T12:32:36Z</time>
      </trkpt>
      <trkpt lat="46.07612" lon="6.36629">
        <ele>459</ele>
        <time>2021-03-27T12:32:37Z</time>
      </trkpt>
      <trkpt lat="46.07605" lon="6.3663">
        <ele>458.8</ele>
        <time>2021-03-27T12:32:38Z</time>
      </trkpt>
      <trkpt lat="46.07598" lon="6.36628">
        <ele>458.6</ele>
        <time>2021-03-27T12:32:39Z</time>
      </trkpt>
      <trkpt lat="46.07592" lon="6.36625">
        <ele>458.4</ele>
        <time>2021-03-27T12:32:40Z</time>
      </trkpt>
      <trkpt lat="46.07585" lon="6.36622">
        <ele>458</ele>
        <time>2021-03-27T12:32:41Z</time>
      </trkpt>
      <trkpt lat="46.07578" lon="6.3662">
        <ele>457.8</ele>
        <time>2021-03-27T12:32:42Z</time>
      </trkpt>
      <trkpt lat="46.07571" lon="6.36618">
        <ele>457.6</ele>
        <time>2021-03-27T12:32:43Z</time>
      </trkpt>
      <trkpt lat="46.07564" lon="6.36616">
        <ele>457.6</ele>
        <time>2021-03-27T12:32:44Z</time>
      </trkpt>
      <trkpt lat="46.07558" lon="6.36614">
        <ele>457.6</ele>
        <time>2021-03-27T12:32:45Z</time>
      </trkpt>
      <trkpt lat="46.07551" lon="6.36612">
        <ele>457.4</ele>
        <time>2021-03-27T12:32:46Z</time>
      </trkpt>
      <trkpt lat="46.07544" lon="6.3661">
        <ele>457.4</ele>
        <time>2021-03-27T12:32:47Z</time>
      </trkpt>
      <trkpt lat="46.07537" lon="6.36609">
        <ele>457.4</ele>
        <time>2021-03-27T12:32:48Z</time>
      </trkpt>
      <trkpt lat="46.07531" lon="6.36607">
        <ele>457.4</ele>
        <time>2021-03-27T12:32:49Z</time>
      </trkpt>
      <trkpt lat="46.07524" lon="6.36605">
        <ele>457.4</ele>
        <time>2021-03-27T12:32:50Z</time>
      </trkpt>
      <trkpt lat="46.07517" lon="6.36604">
        <ele>457.4</ele>
        <time>2021-03-27T12:32:51Z</time>
      </trkpt>
      <trkpt lat="46.07511" lon="6.36602">
        <ele>457.4</ele>
        <time>2021-03-27T12:32:52Z</time>
      </trkpt>
      <trkpt lat="46.07505" lon="6.366">
        <ele>457.4</ele>
        <time>2021-03-27T12:32:53Z</time>
      </trkpt>
      <trkpt lat="46.07499" lon="6.36598">
        <ele>457.4</ele>
        <time>2021-03-27T12:32:54Z</time>
      </trkpt>
      <trkpt lat="46.07493" lon="6.36596">
        <ele>457.4</ele>
        <time>2021-03-27T12:32:55Z</time>
      </trkpt>
      <trkpt lat="46.07487" lon="6.36595">
        <ele>457.6</ele>
        <time>2021-03-27T12:32:56Z</time>
      </trkpt>
      <trkpt lat="46.0748" lon="6.36593">
        <ele>457.8</ele>
        <time>2021-03-27T12:32:57Z</time>
      </trkpt>
      <trkpt lat="46.07474" lon="6.36591">
        <ele>458</ele>
        <time>2021-03-27T12:32:58Z</time>
      </trkpt>
      <trkpt lat="46.07467" lon="6.36589">
        <ele>458</ele>
        <time>2021-03-27T12:32:59Z</time>
      </trkpt>
      <trkpt lat="46.0746" lon="6.36587">
        <ele>458.4</ele>
        <time>2021-03-27T12:33:00Z</time>
      </trkpt>
      <trkpt lat="46.07454" lon="6.36585">
        <ele>458.4</ele>
        <time>2021-03-27T12:33:01Z</time>
      </trkpt>
      <trkpt lat="46.07447" lon="6.36583">
        <ele>458.4</ele>
        <time>2021-03-27T12:33:02Z</time>
      </trkpt>
      <trkpt lat="46.0744" lon="6.36581">
        <ele>458.4</ele>
        <time>2021-03-27T12:33:03Z</time>
      </trkpt>
      <trkpt lat="46.07434" lon="6.36579">
        <ele>458.6</ele>
        <time>2021-03-27T12:33:04Z</time>
      </trkpt>
      <trkpt lat="46.07427" lon="6.36577">
        <ele>458.8</ele>
        <time>2021-03-27T12:33:05Z</time>
      </trkpt>
      <trkpt lat="46.0742" lon="6.36575">
        <ele>458.6</ele>
        <time>2021-03-27T12:33:06Z</time>
      </trkpt>
      <trkpt lat="46.07413" lon="6.36573">
        <ele>458.8</ele>
        <time>2021-03-27T12:33:07Z</time>
      </trkpt>
      <trkpt lat="46.07407" lon="6.36571">
        <ele>459</ele>
        <time>2021-03-27T12:33:08Z</time>
      </trkpt>
      <trkpt lat="46.074" lon="6.36569">
        <ele>459.2</ele>
        <time>2021-03-27T12:33:09Z</time>
      </trkpt>
      <trkpt lat="46.07394" lon="6.36567">
        <ele>459.2</ele>
        <time>2021-03-27T12:33:10Z</time>
      </trkpt>
      <trkpt lat="46.07387" lon="6.36565">
        <ele>459.2</ele>
        <time>2021-03-27T12:33:11Z</time>
      </trkpt>
      <trkpt lat="46.0738" lon="6.36563">
        <ele>459.2</ele>
        <time>2021-03-27T12:33:12Z</time>
      </trkpt>
      <trkpt lat="46.07374" lon="6.36561">
        <ele>459.4</ele>
        <time>2021-03-27T12:33:13Z</time>
      </trkpt>
      <trkpt lat="46.07367" lon="6.36559">
        <ele>459.6</ele>
        <time>2021-03-27T12:33:14Z</time>
      </trkpt>
      <trkpt lat="46.0736" lon="6.36558">
        <ele>459.8</ele>
        <time>2021-03-27T12:33:15Z</time>
      </trkpt>
      <trkpt lat="46.07354" lon="6.36556">
        <ele>459.8</ele>
        <time>2021-03-27T12:33:16Z</time>
      </trkpt>
      <trkpt lat="46.07347" lon="6.36555">
        <ele>459.6</ele>
        <time>2021-03-27T12:33:17Z</time>
      </trkpt>
      <trkpt lat="46.07341" lon="6.36553">
        <ele>459.8</ele>
        <time>2021-03-27T12:33:18Z</time>
      </trkpt>
      <trkpt lat="46.07334" lon="6.36552">
        <ele>460</ele>
        <time>2021-03-27T12:33:19Z</time>
      </trkpt>
      <trkpt lat="46.07328" lon="6.3655">
        <ele>460</ele>
        <time>2021-03-27T12:33:20Z</time>
      </trkpt>
      <trkpt lat="46.07321" lon="6.36549">
        <ele>460</ele>
        <time>2021-03-27T12:33:21Z</time>
      </trkpt>
      <trkpt lat="46.07315" lon="6.36548">
        <ele>460</ele>
        <time>2021-03-27T12:33:22Z</time>
      </trkpt>
      <trkpt lat="46.07309" lon="6.36547">
        <ele>460</ele>
        <time>2021-03-27T12:33:23Z</time>
      </trkpt>
      <trkpt lat="46.07302" lon="6.36546">
        <ele>460</ele>
        <time>2021-03-27T12:33:24Z</time>
      </trkpt>
      <trkpt lat="46.07296" lon="6.36545">
        <ele>460.2</ele>
        <time>2021-03-27T12:33:25Z</time>
      </trkpt>
      <trkpt lat="46.0729" lon="6.36544">
        <ele>460.2</ele>
        <time>2021-03-27T12:33:26Z</time>
      </trkpt>
      <trkpt lat="46.07284" lon="6.36543">
        <ele>460.4</ele>
        <time>2021-03-27T12:33:27Z</time>
      </trkpt>
      <trkpt lat="46.07277" lon="6.36542">
        <ele>460.4</ele>
        <time>2021-03-27T12:33:28Z</time>
      </trkpt>
      <trkpt lat="46.07271" lon="6.36541">
        <ele>460.6</ele>
        <time>2021-03-27T12:33:29Z</time>
      </trkpt>
      <trkpt lat="46.07265" lon="6.3654">
        <ele>460.8</ele>
        <time>2021-03-27T12:33:30Z</time>
      </trkpt>
      <trkpt lat="46.07259" lon="6.36538">
        <ele>461</ele>
        <time>2021-03-27T12:33:31Z</time>
      </trkpt>
      <trkpt lat="46.07253" lon="6.36537">
        <ele>461</ele>
        <time>2021-03-27T12:33:32Z</time>
      </trkpt>
      <trkpt lat="46.07247" lon="6.36536">
        <ele>461.2</ele>
        <time>2021-03-27T12:33:33Z</time>
      </trkpt>
      <trkpt lat="46.07241" lon="6.36535">
        <ele>461.2</ele>
        <time>2021-03-27T12:33:34Z</time>
      </trkpt>
      <trkpt lat="46.07235" lon="6.36534">
        <ele>461.2</ele>
        <time>2021-03-27T12:33:35Z</time>
      </trkpt>
      <trkpt lat="46.07229" lon="6.36533">
        <ele>461.4</ele>
        <time>2021-03-27T12:33:36Z</time>
      </trkpt>
      <trkpt lat="46.07223" lon="6.36532">
        <ele>461.6</ele>
        <time>2021-03-27T12:33:37Z</time>
      </trkpt>
      <trkpt lat="46.07217" lon="6.3653">
        <ele>462</ele>
        <time>2021-03-27T12:33:38Z</time>
      </trkpt>
      <trkpt lat="46.07211" lon="6.36529">
        <ele>462.2</ele>
        <time>2021-03-27T12:33:39Z</time>
      </trkpt>
      <trkpt lat="46.07205" lon="6.36528">
        <ele>462.2</ele>
        <time>2021-03-27T12:33:40Z</time>
      </trkpt>
      <trkpt lat="46.07199" lon="6.36527">
        <ele>462.8</ele>
        <time>2021-03-27T12:33:41Z</time>
      </trkpt>
      <trkpt lat="46.07194" lon="6.36526">
        <ele>462.8</ele>
        <time>2021-03-27T12:33:42Z</time>
      </trkpt>
      <trkpt lat="46.07188" lon="6.36525">
        <ele>463</ele>
        <time>2021-03-27T12:33:43Z</time>
      </trkpt>
      <trkpt lat="46.07182" lon="6.36524">
        <ele>463</ele>
        <time>2021-03-27T12:33:44Z</time>
      </trkpt>
      <trkpt lat="46.07176" lon="6.36523">
        <ele>463.2</ele>
        <time>2021-03-27T12:33:45Z</time>
      </trkpt>
      <trkpt lat="46.0717" lon="6.36522">
        <ele>463.2</ele>
        <time>2021-03-27T12:33:46Z</time>
      </trkpt>
      <trkpt lat="46.07164" lon="6.3652">
        <ele>463.2</ele>
        <time>2021-03-27T12:33:47Z</time>
      </trkpt>
      <trkpt lat="46.07159" lon="6.36518">
        <ele>463.2</ele>
        <time>2021-03-27T12:33:48Z</time>
      </trkpt>
      <trkpt lat="46.07154" lon="6.36515">
        <ele>463.4</ele>
        <time>2021-03-27T12:33:49Z</time>
      </trkpt>
      <trkpt lat="46.07149" lon="6.3651">
        <ele>463.8</ele>
        <time>2021-03-27T12:33:50Z</time>
      </trkpt>
      <trkpt lat="46.07145" lon="6.36505">
        <ele>463.8</ele>
        <time>2021-03-27T12:33:51Z</time>
      </trkpt>
      <trkpt lat="46.07141" lon="6.36499">
        <ele>464.2</ele>
        <time>2021-03-27T12:33:52Z</time>
      </trkpt>
      <trkpt lat="46.07136" lon="6.36495">
        <ele>464.2</ele>
        <time>2021-03-27T12:33:53Z</time>
      </trkpt>
      <trkpt lat="46.07131" lon="6.36492">
        <ele>464.8</ele>
        <time>2021-03-27T12:33:54Z</time>
      </trkpt>
      <trkpt lat="46.07126" lon="6.36491">
        <ele>465</ele>
        <time>2021-03-27T12:33:55Z</time>
      </trkpt>
      <trkpt lat="46.0712" lon="6.36493">
        <ele>465.2</ele>
        <time>2021-03-27T12:33:56Z</time>
      </trkpt>
      <trkpt lat="46.07115" lon="6.36496">
        <ele>465.2</ele>
        <time>2021-03-27T12:33:57Z</time>
      </trkpt>
      <trkpt lat="46.0711" lon="6.36499">
        <ele>465.4</ele>
        <time>2021-03-27T12:33:58Z</time>
      </trkpt>
      <trkpt lat="46.07104" lon="6.365">
        <ele>465.4</ele>
        <time>2021-03-27T12:33:59Z</time>
      </trkpt>
      <trkpt lat="46.07098" lon="6.365">
        <ele>465.6</ele>
        <time>2021-03-27T12:34:00Z</time>
      </trkpt>
      <trkpt lat="46.07091" lon="6.365">
        <ele>465.6</ele>
        <time>2021-03-27T12:34:01Z</time>
      </trkpt>
      <trkpt lat="46.07084" lon="6.36499">
        <ele>465.8</ele>
        <time>2021-03-27T12:34:02Z</time>
      </trkpt>
      <trkpt lat="46.07078" lon="6.36499">
        <ele>465.8</ele>
        <time>2021-03-27T12:34:03Z</time>
      </trkpt>
      <trkpt lat="46.07072" lon="6.36498">
        <ele>465.8</ele>
        <time>2021-03-27T12:34:04Z</time>
      </trkpt>
      <trkpt lat="46.07066" lon="6.36496">
        <ele>465.8</ele>
        <time>2021-03-27T12:34:05Z</time>
      </trkpt>
      <trkpt lat="46.07061" lon="6.36495">
        <ele>465.8</ele>
        <time>2021-03-27T12:34:06Z</time>
      </trkpt>
      <trkpt lat="46.07057" lon="6.36494">
        <ele>466</ele>
        <time>2021-03-27T12:34:07Z</time>
      </trkpt>
      <trkpt lat="46.07055" lon="6.36493">
        <ele>466.2</ele>
        <time>2021-03-27T12:34:08Z</time>
      </trkpt>
      <trkpt lat="46.07055" lon="6.36493">
        <ele>466.4</ele>
        <time>2021-03-27T12:34:09Z</time>
      </trkpt>
      <trkpt lat="46.07055" lon="6.36493">
        <ele>466.4</ele>
        <time>2021-03-27T12:34:10Z</time>
      </trkpt>
      <trkpt lat="46.07055" lon="6.36493">
        <ele>466.6</ele>
        <time>2021-03-27T12:34:11Z</time>
      </trkpt>
      <trkpt lat="46.07055" lon="6.36493">
        <ele>466.8</ele>
        <time>2021-03-27T12:34:12Z</time>
      </trkpt>
      <trkpt lat="46.07055" lon="6.36493">
        <ele>467</ele>
        <time>2021-03-27T12:34:13Z</time>
      </trkpt>
      <trkpt lat="46.07055" lon="6.36493">
        <ele>467</ele>
        <time>2021-03-27T12:34:14Z</time>
      </trkpt>
      <trkpt lat="46.07055" lon="6.36492">
        <ele>467.2</ele>
        <time>2021-03-27T12:34:15Z</time>
      </trkpt>
      <trkpt lat="46.07055" lon="6.36492">
        <ele>467</ele>
        <time>2021-03-27T12:34:16Z</time>
      </trkpt>
      <trkpt lat="46.07055" lon="6.36493">
        <ele>467.4</ele>
        <time>2021-03-27T12:34:17Z</time>
      </trkpt>
      <trkpt lat="46.07055" lon="6.36493">
        <ele>467.6</ele>
        <time>2021-03-27T12:34:18Z</time>
      </trkpt>
      <trkpt lat="46.07055" lon="6.36493">
        <ele>467.8</ele>
        <time>2021-03-27T12:34:19Z</time>
      </trkpt>
      <trkpt lat="46.07055" lon="6.36493">
        <ele>467.8</ele>
        <time>2021-03-27T12:34:20Z</time>
      </trkpt>
      <trkpt lat="46.07055" lon="6.36493">
        <ele>468</ele>
        <time>2021-03-27T12:34:21Z</time>
      </trkpt>
      <trkpt lat="46.07055" lon="6.36493">
        <ele>468</ele>
        <time>2021-03-27T12:34:22Z</time>
      </trkpt>
      <trkpt lat="46.07055" lon="6.36493">
        <ele>468.2</ele>
        <time>2021-03-27T12:34:23Z</time>
      </trkpt>
      <trkpt lat="46.07055" lon="6.36493">
        <ele>468</ele>
        <time>2021-03-27T12:34:24Z</time>
      </trkpt>
      <trkpt lat="46.07056" lon="6.36493">
        <ele>468</ele>
        <time>2021-03-27T12:34:25Z</time>
      </trkpt>
      <trkpt lat="46.07056" lon="6.36493">
        <ele>468.2</ele>
        <time>2021-03-27T12:34:26Z</time>
      </trkpt>
      <trkpt lat="46.07056" lon="6.36493">
        <ele>468</ele>
        <time>2021-03-27T12:34:27Z</time>
      </trkpt>
      <trkpt lat="46.07056" lon="6.36493">
        <ele>468.2</ele>
        <time>2021-03-27T12:34:28Z</time>
      </trkpt>
      <trkpt lat="46.07056" lon="6.36493">
        <ele>468</ele>
        <time>2021-03-27T12:34:29Z</time>
      </trkpt>
      <trkpt lat="46.07056" lon="6.36493">
        <ele>468.2</ele>
        <time>2021-03-27T12:34:30Z</time>
      </trkpt>
      <trkpt lat="46.07056" lon="6.36493">
        <ele>468.2</ele>
        <time>2021-03-27T12:34:31Z</time>
      </trkpt>
      <trkpt lat="46.07056" lon="6.36493">
        <ele>468.2</ele>
        <time>2021-03-27T12:34:32Z</time>
      </trkpt>
      <trkpt lat="46.07056" lon="6.36493">
        <ele>468.2</ele>
        <time>2021-03-27T12:34:33Z</time>
      </trkpt>
      <trkpt lat="46.07056" lon="6.36493">
        <ele>468</ele>
        <time>2021-03-27T12:34:34Z</time>
      </trkpt>
      <trkpt lat="46.07056" lon="6.36493">
        <ele>468.2</ele>
        <time>2021-03-27T12:34:35Z</time>
      </trkpt>
      <trkpt lat="46.07056" lon="6.36493">
        <ele>468.2</ele>
        <time>2021-03-27T12:34:36Z</time>
      </trkpt>
      <trkpt lat="46.07056" lon="6.36493">
        <ele>468.2</ele>
        <time>2021-03-27T12:34:37Z</time>
      </trkpt>
      <trkpt lat="46.07056" lon="6.36493">
        <ele>468</ele>
        <time>2021-03-27T12:34:38Z</time>
      </trkpt>
      <trkpt lat="46.07056" lon="6.36493">
        <ele>468</ele>
        <time>2021-03-27T12:34:39Z</time>
      </trkpt>
      <trkpt lat="46.07056" lon="6.36493">
        <ele>468</ele>
        <time>2021-03-27T12:34:40Z</time>
      </trkpt>
      <trkpt lat="46.07056" lon="6.36493">
        <ele>468</ele>
        <time>2021-03-27T12:34:41Z</time>
      </trkpt>
      <trkpt lat="46.07056" lon="6.36493">
        <ele>468</ele>
        <time>2021-03-27T12:34:42Z</time>
      </trkpt>
      <trkpt lat="46.07056" lon="6.36493">
        <ele>468</ele>
        <time>2021-03-27T12:34:43Z</time>
      </trkpt>
      <trkpt lat="46.07056" lon="6.36493">
        <ele>467.8</ele>
        <time>2021-03-27T12:34:44Z</time>
      </trkpt>
      <trkpt lat="46.07056" lon="6.36493">
        <ele>468</ele>
        <time>2021-03-27T12:34:45Z</time>
      </trkpt>
      <trkpt lat="46.07056" lon="6.36493">
        <ele>468</ele>
        <time>2021-03-27T12:34:46Z</time>
      </trkpt>
      <trkpt lat="46.07056" lon="6.36493">
        <ele>468</ele>
        <time>2021-03-27T12:34:47Z</time>
      </trkpt>
      <trkpt lat="46.07056" lon="6.36493">
        <ele>467.8</ele>
        <time>2021-03-27T12:34:48Z</time>
      </trkpt>
      <trkpt lat="46.07056" lon="6.36493">
        <ele>467.8</ele>
        <time>2021-03-27T12:34:49Z</time>
      </trkpt>
      <trkpt lat="46.07056" lon="6.36493">
        <ele>467.6</ele>
        <time>2021-03-27T12:34:50Z</time>
      </trkpt>
      <trkpt lat="46.07056" lon="6.36493">
        <ele>467.8</ele>
        <time>2021-03-27T12:34:51Z</time>
      </trkpt>
      <trkpt lat="46.07056" lon="6.36493">
        <ele>467.8</ele>
        <time>2021-03-27T12:34:52Z</time>
      </trkpt>
      <trkpt lat="46.07056" lon="6.36493">
        <ele>467.6</ele>
        <time>2021-03-27T12:34:53Z</time>
      </trkpt>
      <trkpt lat="46.07056" lon="6.36493">
        <ele>467.8</ele>
        <time>2021-03-27T12:34:54Z</time>
      </trkpt>
      <trkpt lat="46.07056" lon="6.36493">
        <ele>467.8</ele>
        <time>2021-03-27T12:34:55Z</time>
      </trkpt>
      <trkpt lat="46.07056" lon="6.36493">
        <ele>467.6</ele>
        <time>2021-03-27T12:34:56Z</time>
      </trkpt>
      <trkpt lat="46.07056" lon="6.36493">
        <ele>467.6</ele>
        <time>2021-03-27T12:34:57Z</time>
      </trkpt>
      <trkpt lat="46.07056" lon="6.36493">
        <ele>467.8</ele>
        <time>2021-03-27T12:34:58Z</time>
      </trkpt>
      <trkpt lat="46.07056" lon="6.36493">
        <ele>467.8</ele>
        <time>2021-03-27T12:34:59Z</time>
      </trkpt>
      <trkpt lat="46.07056" lon="6.36493">
        <ele>467.8</ele>
        <time>2021-03-27T12:35:00Z</time>
      </trkpt>
      <trkpt lat="46.07056" lon="6.36493">
        <ele>467.6</ele>
        <time>2021-03-27T12:35:01Z</time>
      </trkpt>
      <trkpt lat="46.07056" lon="6.36493">
        <ele>467.8</ele>
        <time>2021-03-27T12:35:02Z</time>
      </trkpt>
      <trkpt lat="46.07056" lon="6.36493">
        <ele>467.6</ele>
        <time>2021-03-27T12:35:03Z</time>
      </trkpt>
      <trkpt lat="46.07056" lon="6.36493">
        <ele>467.8</ele>
        <time>2021-03-27T12:35:04Z</time>
      </trkpt>
      <trkpt lat="46.07056" lon="6.36493">
        <ele>467.6</ele>
        <time>2021-03-27T12:35:05Z</time>
      </trkpt>
      <trkpt lat="46.07056" lon="6.36493">
        <ele>467.6</ele>
        <time>2021-03-27T12:35:06Z</time>
      </trkpt>
      <trkpt lat="46.07056" lon="6.36493">
        <ele>467.6</ele>
        <time>2021-03-27T12:35:07Z</time>
      </trkpt>
      <trkpt lat="46.07056" lon="6.36493">
        <ele>467.8</ele>
        <time>2021-03-27T12:35:08Z</time>
      </trkpt>
      <trkpt lat="46.07056" lon="6.36493">
        <ele>467.8</ele>
        <time>2021-03-27T12:35:09Z</time>
      </trkpt>
      <trkpt lat="46.07056" lon="6.36493">
        <ele>467.8</ele>
        <time>2021-03-27T12:35:10Z</time>
      </trkpt>
      <trkpt lat="46.07056" lon="6.36493">
        <ele>467.6</ele>
        <time>2021-03-27T12:35:11Z</time>
      </trkpt>
      <trkpt lat="46.07056" lon="6.36493">
        <ele>467.8</ele>
        <time>2021-03-27T12:35:12Z</time>
      </trkpt>
      <trkpt lat="46.07056" lon="6.36493">
        <ele>467.8</ele>
        <time>2021-03-27T12:35:13Z</time>
      </trkpt>
      <trkpt lat="46.07056" lon="6.36493">
        <ele>467.8</ele>
        <time>2021-03-27T12:35:14Z</time>
      </trkpt>
      <trkpt lat="46.07056" lon="6.36493">
        <ele>467.8</ele>
        <time>2021-03-27T12:35:15Z</time>
      </trkpt>
      <trkpt lat="46.07056" lon="6.36493">
        <ele>467.8</ele>
        <time>2021-03-27T12:35:16Z</time>
      </trkpt>
      <trkpt lat="46.07056" lon="6.36493">
        <ele>467.8</ele>
        <time>2021-03-27T12:35:17Z</time>
      </trkpt>
      <trkpt lat="46.07056" lon="6.36493">
        <ele>467.8</ele>
        <time>2021-03-27T12:35:18Z</time>
      </trkpt>
      <trkpt lat="46.07056" lon="6.36493">
        <ele>467.8</ele>
        <time>2021-03-27T12:35:19Z</time>
      </trkpt>
      <trkpt lat="46.07056" lon="6.36493">
        <ele>468</ele>
        <time>2021-03-27T12:35:20Z</time>
      </trkpt>
      <trkpt lat="46.07056" lon="6.36493">
        <ele>468</ele>
        <time>2021-03-27T12:35:21Z</time>
      </trkpt>
      <trkpt lat="46.07056" lon="6.36493">
        <ele>468</ele>
        <time>2021-03-27T12:35:22Z</time>
      </trkpt>
      <trkpt lat="46.07056" lon="6.36493">
        <ele>468</ele>
        <time>2021-03-27T12:35:23Z</time>
      </trkpt>
      <trkpt lat="46.07056" lon="6.36493">
        <ele>468</ele>
        <time>2021-03-27T12:35:24Z</time>
      </trkpt>
      <trkpt lat="46.07056" lon="6.36493">
        <ele>468.2</ele>
        <time>2021-03-27T12:35:25Z</time>
      </trkpt>
      <trkpt lat="46.07056" lon="6.36493">
        <ele>468.2</ele>
        <time>2021-03-27T12:35:26Z</time>
      </trkpt>
      <trkpt lat="46.07056" lon="6.36493">
        <ele>468.2</ele>
        <time>2021-03-27T12:35:27Z</time>
      </trkpt>
      <trkpt lat="46.07056" lon="6.36493">
        <ele>468.2</ele>
        <time>2021-03-27T12:35:28Z</time>
      </trkpt>
      <trkpt lat="46.07056" lon="6.36493">
        <ele>468.2</ele>
        <time>2021-03-27T12:35:29Z</time>
      </trkpt>
      <trkpt lat="46.07056" lon="6.36493">
        <ele>468.4</ele>
        <time>2021-03-27T12:35:30Z</time>
      </trkpt>
      <trkpt lat="46.07056" lon="6.36493">
        <ele>468.4</ele>
        <time>2021-03-27T12:35:31Z</time>
      </trkpt>
      <trkpt lat="46.07056" lon="6.36493">
        <ele>468.2</ele>
        <time>2021-03-27T12:35:32Z</time>
      </trkpt>
      <trkpt lat="46.07056" lon="6.36493">
        <ele>468.2</ele>
        <time>2021-03-27T12:35:33Z</time>
      </trkpt>
      <trkpt lat="46.07056" lon="6.36493">
        <ele>468.2</ele>
        <time>2021-03-27T12:35:34Z</time>
      </trkpt>
      <trkpt lat="46.07056" lon="6.36493">
        <ele>468.2</ele>
        <time>2021-03-27T12:35:35Z</time>
      </trkpt>
      <trkpt lat="46.07056" lon="6.36493">
        <ele>468.2</ele>
        <time>2021-03-27T12:35:36Z</time>
      </trkpt>
      <trkpt lat="46.07056" lon="6.36493">
        <ele>468.2</ele>
        <time>2021-03-27T12:35:37Z</time>
      </trkpt>
      <trkpt lat="46.07056" lon="6.36493">
        <ele>468.4</ele>
        <time>2021-03-27T12:35:38Z</time>
      </trkpt>
      <trkpt lat="46.07056" lon="6.36493">
        <ele>468.2</ele>
        <time>2021-03-27T12:35:39Z</time>
      </trkpt>
      <trkpt lat="46.07056" lon="6.36493">
        <ele>468.2</ele>
        <time>2021-03-27T12:35:40Z</time>
      </trkpt>
      <trkpt lat="46.07056" lon="6.36493">
        <ele>468.2</ele>
        <time>2021-03-27T12:35:41Z</time>
      </trkpt>
      <trkpt lat="46.07056" lon="6.36493">
        <ele>468.2</ele>
        <time>2021-03-27T12:35:42Z</time>
      </trkpt>
      <trkpt lat="46.07056" lon="6.36493">
        <ele>468.2</ele>
        <time>2021-03-27T12:35:43Z</time>
      </trkpt>
      <trkpt lat="46.07056" lon="6.36493">
        <ele>468.2</ele>
        <time>2021-03-27T12:35:44Z</time>
      </trkpt>
      <trkpt lat="46.07056" lon="6.36493">
        <ele>468.2</ele>
        <time>2021-03-27T12:35:45Z</time>
      </trkpt>
      <trkpt lat="46.07056" lon="6.36493">
        <ele>468.2</ele>
        <time>2021-03-27T12:35:46Z</time>
      </trkpt>
      <trkpt lat="46.07056" lon="6.36493">
        <ele>468.2</ele>
        <time>2021-03-27T12:35:47Z</time>
      </trkpt>
      <trkpt lat="46.07056" lon="6.36493">
        <ele>468.2</ele>
        <time>2021-03-27T12:35:48Z</time>
      </trkpt>
      <trkpt lat="46.07056" lon="6.36493">
        <ele>468</ele>
        <time>2021-03-27T12:35:49Z</time>
      </trkpt>
      <trkpt lat="46.07056" lon="6.36493">
        <ele>468.2</ele>
        <time>2021-03-27T12:35:50Z</time>
      </trkpt>
      <trkpt lat="46.07056" lon="6.36493">
        <ele>468</ele>
        <time>2021-03-27T12:35:51Z</time>
      </trkpt>
      <trkpt lat="46.07056" lon="6.36493">
        <ele>468.2</ele>
        <time>2021-03-27T12:35:52Z</time>
      </trkpt>
      <trkpt lat="46.07056" lon="6.36493">
        <ele>468.2</ele>
        <time>2021-03-27T12:35:53Z</time>
      </trkpt>
      <trkpt lat="46.07056" lon="6.36493">
        <ele>468</ele>
        <time>2021-03-27T12:35:54Z</time>
      </trkpt>
      <trkpt lat="46.07056" lon="6.36493">
        <ele>468.2</ele>
        <time>2021-03-27T12:35:55Z</time>
      </trkpt>
      <trkpt lat="46.07056" lon="6.36493">
        <ele>468.2</ele>
        <time>2021-03-27T12:35:56Z</time>
      </trkpt>
      <trkpt lat="46.07056" lon="6.36493">
        <ele>468.2</ele>
        <time>2021-03-27T12:35:57Z</time>
      </trkpt>
      <trkpt lat="46.07056" lon="6.36493">
        <ele>468</ele>
        <time>2021-03-27T12:35:58Z</time>
      </trkpt>
      <trkpt lat="46.07056" lon="6.36493">
        <ele>468</ele>
        <time>2021-03-27T12:35:59Z</time>
      </trkpt>
      <trkpt lat="46.07056" lon="6.36493">
        <ele>468.2</ele>
        <time>2021-03-27T12:36:00Z</time>
      </trkpt>
      <trkpt lat="46.07056" lon="6.36493">
        <ele>468.2</ele>
        <time>2021-03-27T12:36:01Z</time>
      </trkpt>
      <trkpt lat="46.07056" lon="6.36493">
        <ele>468</ele>
        <time>2021-03-27T12:36:02Z</time>
      </trkpt>
      <trkpt lat="46.07056" lon="6.36493">
        <ele>468</ele>
        <time>2021-03-27T12:36:03Z</time>
      </trkpt>
      <trkpt lat="46.07056" lon="6.36493">
        <ele>468.2</ele>
        <time>2021-03-27T12:36:04Z</time>
      </trkpt>
      <trkpt lat="46.07056" lon="6.36493">
        <ele>468.2</ele>
        <time>2021-03-27T12:36:05Z</time>
      </trkpt>
      <trkpt lat="46.07056" lon="6.36493">
        <ele>468.2</ele>
        <time>2021-03-27T12:36:06Z</time>
      </trkpt>
      <trkpt lat="46.07056" lon="6.36493">
        <ele>468.2</ele>
        <time>2021-03-27T12:36:07Z</time>
      </trkpt>
      <trkpt lat="46.07056" lon="6.36493">
        <ele>468.2</ele>
        <time>2021-03-27T12:36:08Z</time>
      </trkpt>
      <trkpt lat="46.07056" lon="6.36493">
        <ele>468.2</ele>
        <time>2021-03-27T12:36:09Z</time>
      </trkpt>
      <trkpt lat="46.07056" lon="6.36493">
        <ele>468.2</ele>
        <time>2021-03-27T12:36:10Z</time>
      </trkpt>
      <trkpt lat="46.07056" lon="6.36493">
        <ele>468.2</ele>
        <time>2021-03-27T12:36:11Z</time>
      </trkpt>
      <trkpt lat="46.07056" lon="6.36493">
        <ele>468.2</ele>
        <time>2021-03-27T12:36:12Z</time>
      </trkpt>
      <trkpt lat="46.07056" lon="6.36493">
        <ele>468.2</ele>
        <time>2021-03-27T12:36:13Z</time>
      </trkpt>
      <trkpt lat="46.07056" lon="6.36493">
        <ele>468.4</ele>
        <time>2021-03-27T12:36:14Z</time>
      </trkpt>
      <trkpt lat="46.07056" lon="6.36493">
        <ele>468.2</ele>
        <time>2021-03-27T12:36:15Z</time>
      </trkpt>
      <trkpt lat="46.07056" lon="6.36493">
        <ele>468.2</ele>
        <time>2021-03-27T12:36:16Z</time>
      </trkpt>
      <trkpt lat="46.07056" lon="6.36493">
        <ele>468.2</ele>
        <time>2021-03-27T12:36:17Z</time>
      </trkpt>
      <trkpt lat="46.07056" lon="6.36493">
        <ele>468.4</ele>
        <time>2021-03-27T12:36:18Z</time>
      </trkpt>
      <trkpt lat="46.07056" lon="6.36493">
        <ele>468.4</ele>
        <time>2021-03-27T12:36:19Z</time>
      </trkpt>
      <trkpt lat="46.07056" lon="6.36493">
        <ele>468.2</ele>
        <time>2021-03-27T12:36:20Z</time>
      </trkpt>
      <trkpt lat="46.07056" lon="6.36493">
        <ele>468.2</ele>
        <time>2021-03-27T12:36:21Z</time>
      </trkpt>
      <trkpt lat="46.07056" lon="6.36493">
        <ele>468.2</ele>
        <time>2021-03-27T12:36:22Z</time>
      </trkpt>
      <trkpt lat="46.07056" lon="6.36493">
        <ele>468.2</ele>
        <time>2021-03-27T12:36:23Z</time>
      </trkpt>
      <trkpt lat="46.07056" lon="6.36493">
        <ele>468.2</ele>
        <time>2021-03-27T12:36:24Z</time>
      </trkpt>
      <trkpt lat="46.07056" lon="6.36493">
        <ele>468.4</ele>
        <time>2021-03-27T12:36:25Z</time>
      </trkpt>
      <trkpt lat="46.07056" lon="6.36493">
        <ele>468.2</ele>
        <time>2021-03-27T12:36:26Z</time>
      </trkpt>
      <trkpt lat="46.07056" lon="6.36493">
        <ele>468.2</ele>
        <time>2021-03-27T12:36:27Z</time>
      </trkpt>
      <trkpt lat="46.07056" lon="6.36493">
        <ele>468.2</ele>
        <time>2021-03-27T12:36:28Z</time>
      </trkpt>
      <trkpt lat="46.07056" lon="6.36493">
        <ele>468.2</ele>
        <time>2021-03-27T12:36:29Z</time>
      </trkpt>
      <trkpt lat="46.07056" lon="6.36493">
        <ele>468.2</ele>
        <time>2021-03-27T12:36:30Z</time>
      </trkpt>
      <trkpt lat="46.07056" lon="6.36493">
        <ele>468.2</ele>
        <time>2021-03-27T12:36:31Z</time>
      </trkpt>
      <trkpt lat="46.07056" lon="6.36493">
        <ele>468.2</ele>
        <time>2021-03-27T12:36:32Z</time>
      </trkpt>
      <trkpt lat="46.07056" lon="6.36493">
        <ele>468.2</ele>
        <time>2021-03-27T12:36:33Z</time>
      </trkpt>
      <trkpt lat="46.07056" lon="6.36493">
        <ele>468.2</ele>
        <time>2021-03-27T12:36:34Z</time>
      </trkpt>
      <trkpt lat="46.07056" lon="6.36493">
        <ele>468</ele>
        <time>2021-03-27T12:36:35Z</time>
      </trkpt>
      <trkpt lat="46.07056" lon="6.36493">
        <ele>468</ele>
        <time>2021-03-27T12:36:36Z</time>
      </trkpt>
      <trkpt lat="46.07056" lon="6.36493">
        <ele>468</ele>
        <time>2021-03-27T12:36:37Z</time>
      </trkpt>
      <trkpt lat="46.07056" lon="6.36493">
        <ele>468</ele>
        <time>2021-03-27T12:36:38Z</time>
      </trkpt>
      <trkpt lat="46.07056" lon="6.36493">
        <ele>468</ele>
        <time>2021-03-27T12:36:39Z</time>
      </trkpt>
      <trkpt lat="46.07056" lon="6.36493">
        <ele>468.2</ele>
        <time>2021-03-27T12:36:40Z</time>
      </trkpt>
      <trkpt lat="46.07056" lon="6.36493">
        <ele>468</ele>
        <time>2021-03-27T12:36:41Z</time>
      </trkpt>
      <trkpt lat="46.07056" lon="6.36493">
        <ele>468</ele>
        <time>2021-03-27T12:36:42Z</time>
      </trkpt>
      <trkpt lat="46.07056" lon="6.36493">
        <ele>468</ele>
        <time>2021-03-27T12:36:43Z</time>
      </trkpt>
      <trkpt lat="46.07056" lon="6.36493">
        <ele>468</ele>
        <time>2021-03-27T12:36:44Z</time>
      </trkpt>
      <trkpt lat="46.07056" lon="6.36493">
        <ele>468</ele>
        <time>2021-03-27T12:36:45Z</time>
      </trkpt>
      <trkpt lat="46.07056" lon="6.36493">
        <ele>468</ele>
        <time>2021-03-27T12:36:46Z</time>
      </trkpt>
      <trkpt lat="46.07056" lon="6.36493">
        <ele>468</ele>
        <time>2021-03-27T12:36:47Z</time>
      </trkpt>
      <trkpt lat="46.07056" lon="6.36493">
        <ele>468</ele>
        <time>2021-03-27T12:36:48Z</time>
      </trkpt>
      <trkpt lat="46.07056" lon="6.36493">
        <ele>468</ele>
        <time>2021-03-27T12:36:49Z</time>
      </trkpt>
      <trkpt lat="46.07056" lon="6.36493">
        <ele>468.2</ele>
        <time>2021-03-27T12:36:50Z</time>
      </trkpt>
      <trkpt lat="46.07056" lon="6.36493">
        <ele>468</ele>
        <time>2021-03-27T12:36:51Z</time>
      </trkpt>
      <trkpt lat="46.07056" lon="6.36493">
        <ele>468</ele>
        <time>2021-03-27T12:36:52Z</time>
      </trkpt>
      <trkpt lat="46.07056" lon="6.36493">
        <ele>468.2</ele>
        <time>2021-03-27T12:36:53Z</time>
      </trkpt>
      <trkpt lat="46.07056" lon="6.36493">
        <ele>468.4</ele>
        <time>2021-03-27T12:36:54Z</time>
      </trkpt>
      <trkpt lat="46.07056" lon="6.36493">
        <ele>468.2</ele>
        <time>2021-03-27T12:36:55Z</time>
      </trkpt>
      <trkpt lat="46.07056" lon="6.36493">
        <ele>468.2</ele>
        <time>2021-03-27T12:36:56Z</time>
      </trkpt>
      <trkpt lat="46.07056" lon="6.36493">
        <ele>468.2</ele>
        <time>2021-03-27T12:36:57Z</time>
      </trkpt>
      <trkpt lat="46.07056" lon="6.36493">
        <ele>468.2</ele>
        <time>2021-03-27T12:36:58Z</time>
      </trkpt>
      <trkpt lat="46.07056" lon="6.36493">
        <ele>468.2</ele>
        <time>2021-03-27T12:36:59Z</time>
      </trkpt>
      <trkpt lat="46.07056" lon="6.36493">
        <ele>468.4</ele>
        <time>2021-03-27T12:37:00Z</time>
      </trkpt>
      <trkpt lat="46.07056" lon="6.36493">
        <ele>468.2</ele>
        <time>2021-03-27T12:37:01Z</time>
      </trkpt>
      <trkpt lat="46.07056" lon="6.36493">
        <ele>468.2</ele>
        <time>2021-03-27T12:37:02Z</time>
      </trkpt>
      <trkpt lat="46.07056" lon="6.36493">
        <ele>468</ele>
        <time>2021-03-27T12:37:03Z</time>
      </trkpt>
      <trkpt lat="46.07056" lon="6.36493">
        <ele>468.2</ele>
        <time>2021-03-27T12:37:04Z</time>
      </trkpt>
      <trkpt lat="46.07056" lon="6.36493">
        <ele>468.2</ele>
        <time>2021-03-27T12:37:05Z</time>
      </trkpt>
      <trkpt lat="46.07056" lon="6.36493">
        <ele>468.2</ele>
        <time>2021-03-27T12:37:06Z</time>
      </trkpt>
      <trkpt lat="46.07056" lon="6.36493">
        <ele>468.2</ele>
        <time>2021-03-27T12:37:07Z</time>
      </trkpt>
      <trkpt lat="46.07056" lon="6.36493">
        <ele>468.2</ele>
        <time>2021-03-27T12:37:08Z</time>
      </trkpt>
      <trkpt lat="46.07056" lon="6.36493">
        <ele>468</ele>
        <time>2021-03-27T12:37:09Z</time>
      </trkpt>
      <trkpt lat="46.07056" lon="6.36493">
        <ele>468</ele>
        <time>2021-03-27T12:37:10Z</time>
      </trkpt>
      <trkpt lat="46.07056" lon="6.36493">
        <ele>468.2</ele>
        <time>2021-03-27T12:37:11Z</time>
      </trkpt>
      <trkpt lat="46.07056" lon="6.36493">
        <ele>468</ele>
        <time>2021-03-27T12:37:12Z</time>
      </trkpt>
      <trkpt lat="46.07056" lon="6.36493">
        <ele>468</ele>
        <time>2021-03-27T12:37:13Z</time>
      </trkpt>
      <trkpt lat="46.07056" lon="6.36493">
        <ele>468</ele>
        <time>2021-03-27T12:37:14Z</time>
      </trkpt>
      <trkpt lat="46.07056" lon="6.36493">
        <ele>468</ele>
        <time>2021-03-27T12:37:15Z</time>
      </trkpt>
      <trkpt lat="46.07056" lon="6.36493">
        <ele>468</ele>
        <time>2021-03-27T12:37:16Z</time>
      </trkpt>
      <trkpt lat="46.07056" lon="6.36493">
        <ele>468</ele>
        <time>2021-03-27T12:37:17Z</time>
      </trkpt>
      <trkpt lat="46.07056" lon="6.36493">
        <ele>468</ele>
        <time>2021-03-27T12:37:18Z</time>
      </trkpt>
      <trkpt lat="46.07056" lon="6.36493">
        <ele>468.2</ele>
        <time>2021-03-27T12:37:19Z</time>
      </trkpt>
      <trkpt lat="46.07056" lon="6.36493">
        <ele>468.2</ele>
        <time>2021-03-27T12:37:20Z</time>
      </trkpt>
      <trkpt lat="46.07056" lon="6.36493">
        <ele>468</ele>
        <time>2021-03-27T12:37:21Z</time>
      </trkpt>
      <trkpt lat="46.07056" lon="6.36493">
        <ele>468</ele>
        <time>2021-03-27T12:37:22Z</time>
      </trkpt>
      <trkpt lat="46.07056" lon="6.36493">
        <ele>468</ele>
        <time>2021-03-27T12:37:23Z</time>
      </trkpt>
      <trkpt lat="46.07056" lon="6.36493">
        <ele>468.2</ele>
        <time>2021-03-27T12:37:24Z</time>
      </trkpt>
      <trkpt lat="46.07056" lon="6.36493">
        <ele>468.2</ele>
        <time>2021-03-27T12:37:25Z</time>
      </trkpt>
      <trkpt lat="46.07056" lon="6.36493">
        <ele>468.4</ele>
        <time>2021-03-27T12:37:26Z</time>
      </trkpt>
      <trkpt lat="46.07056" lon="6.36493">
        <ele>468.2</ele>
        <time>2021-03-27T12:37:27Z</time>
      </trkpt>
      <trkpt lat="46.07056" lon="6.36493">
        <ele>468.4</ele>
        <time>2021-03-27T12:37:28Z</time>
      </trkpt>
      <trkpt lat="46.07056" lon="6.36493">
        <ele>468.2</ele>
        <time>2021-03-27T12:37:29Z</time>
      </trkpt>
      <trkpt lat="46.07056" lon="6.36493">
        <ele>468.2</ele>
        <time>2021-03-27T12:37:30Z</time>
      </trkpt>
      <trkpt lat="46.07056" lon="6.36493">
        <ele>468.2</ele>
        <time>2021-03-27T12:37:31Z</time>
      </trkpt>
      <trkpt lat="46.07056" lon="6.36493">
        <ele>468.4</ele>
        <time>2021-03-27T12:37:32Z</time>
      </trkpt>
      <trkpt lat="46.07056" lon="6.36493">
        <ele>468.4</ele>
        <time>2021-03-27T12:37:33Z</time>
      </trkpt>
      <trkpt lat="46.07056" lon="6.36493">
        <ele>468.4</ele>
        <time>2021-03-27T12:37:34Z</time>
      </trkpt>
      <trkpt lat="46.07056" lon="6.36493">
        <ele>468.4</ele>
        <time>2021-03-27T12:37:35Z</time>
      </trkpt>
      <trkpt lat="46.07056" lon="6.36493">
        <ele>468.4</ele>
        <time>2021-03-27T12:37:36Z</time>
      </trkpt>
      <trkpt lat="46.07056" lon="6.36493">
        <ele>468.4</ele>
        <time>2021-03-27T12:37:37Z</time>
      </trkpt>
      <trkpt lat="46.07056" lon="6.36493">
        <ele>468.4</ele>
        <time>2021-03-27T12:37:38Z</time>
      </trkpt>
      <trkpt lat="46.07056" lon="6.36493">
        <ele>468.4</ele>
        <time>2021-03-27T12:37:39Z</time>
      </trkpt>
      <trkpt lat="46.07056" lon="6.36493">
        <ele>468.4</ele>
        <time>2021-03-27T12:37:40Z</time>
      </trkpt>
      <trkpt lat="46.07056" lon="6.36493">
        <ele>468.2</ele>
        <time>2021-03-27T12:37:41Z</time>
      </trkpt>
      <trkpt lat="46.07056" lon="6.36493">
        <ele>468.2</ele>
        <time>2021-03-27T12:37:42Z</time>
      </trkpt>
      <trkpt lat="46.07056" lon="6.36493">
        <ele>468.4</ele>
        <time>2021-03-27T12:37:43Z</time>
      </trkpt>
      <trkpt lat="46.07056" lon="6.36493">
        <ele>468.2</ele>
        <time>2021-03-27T12:37:44Z</time>
      </trkpt>
      <trkpt lat="46.07056" lon="6.36493">
        <ele>468.4</ele>
        <time>2021-03-27T12:37:45Z</time>
      </trkpt>
      <trkpt lat="46.07055" lon="6.36494">
        <ele>468.2</ele>
        <time>2021-03-27T12:37:46Z</time>
      </trkpt>
      <trkpt lat="46.07055" lon="6.36495">
        <ele>468.2</ele>
        <time>2021-03-27T12:37:47Z</time>
      </trkpt>
      <trkpt lat="46.07054" lon="6.36496">
        <ele>468.4</ele>
        <time>2021-03-27T12:37:48Z</time>
      </trkpt>
      <trkpt lat="46.07054" lon="6.36496">
        <ele>468.2</ele>
        <time>2021-03-27T12:37:49Z</time>
      </trkpt>
      <trkpt lat="46.07053" lon="6.36496">
        <ele>468.4</ele>
        <time>2021-03-27T12:37:50Z</time>
      </trkpt>
      <trkpt lat="46.07053" lon="6.36496">
        <ele>468.4</ele>
        <time>2021-03-27T12:37:51Z</time>
      </trkpt>
      <trkpt lat="46.07051" lon="6.36496">
        <ele>468.2</ele>
        <time>2021-03-27T12:37:52Z</time>
      </trkpt>
      <trkpt lat="46.0705" lon="6.36496">
        <ele>468.2</ele>
        <time>2021-03-27T12:37:53Z</time>
      </trkpt>
      <trkpt lat="46.07048" lon="6.36495">
        <ele>468.4</ele>
        <time>2021-03-27T12:37:54Z</time>
      </trkpt>
      <trkpt lat="46.07046" lon="6.36495">
        <ele>468.2</ele>
        <time>2021-03-27T12:37:55Z</time>
      </trkpt>
      <trkpt lat="46.07043" lon="6.36495">
        <ele>468.4</ele>
        <time>2021-03-27T12:37:56Z</time>
      </trkpt>
      <trkpt lat="46.0704" lon="6.36494">
        <ele>468.2</ele>
        <time>2021-03-27T12:37:57Z</time>
      </trkpt>
      <trkpt lat="46.07037" lon="6.36494">
        <ele>468.2</ele>
        <time>2021-03-27T12:37:58Z</time>
      </trkpt>
      <trkpt lat="46.07033" lon="6.36494">
        <ele>468.2</ele>
        <time>2021-03-27T12:37:59Z</time>
      </trkpt>
      <trkpt lat="46.07029" lon="6.36493">
        <ele>468.2</ele>
        <time>2021-03-27T12:38:00Z</time>
      </trkpt>
      <trkpt lat="46.07024" lon="6.36493">
        <ele>468.2</ele>
        <time>2021-03-27T12:38:01Z</time>
      </trkpt>
      <trkpt lat="46.07019" lon="6.36492">
        <ele>468</ele>
        <time>2021-03-27T12:38:02Z</time>
      </trkpt>
      <trkpt lat="46.07015" lon="6.36492">
        <ele>468.2</ele>
        <time>2021-03-27T12:38:03Z</time>
      </trkpt>
      <trkpt lat="46.07009" lon="6.36492">
        <ele>468</ele>
        <time>2021-03-27T12:38:04Z</time>
      </trkpt>
      <trkpt lat="46.07004" lon="6.36491">
        <ele>468</ele>
        <time>2021-03-27T12:38:05Z</time>
      </trkpt>
      <trkpt lat="46.06999" lon="6.36491">
        <ele>468.2</ele>
        <time>2021-03-27T12:38:06Z</time>
      </trkpt>
      <trkpt lat="46.06993" lon="6.3649">
        <ele>468</ele>
        <time>2021-03-27T12:38:07Z</time>
      </trkpt>
      <trkpt lat="46.06987" lon="6.3649">
        <ele>468.2</ele>
        <time>2021-03-27T12:38:08Z</time>
      </trkpt>
      <trkpt lat="46.06981" lon="6.3649">
        <ele>467.8</ele>
        <time>2021-03-27T12:38:09Z</time>
      </trkpt>
      <trkpt lat="46.06975" lon="6.36489">
        <ele>468</ele>
        <time>2021-03-27T12:38:10Z</time>
      </trkpt>
      <trkpt lat="46.06969" lon="6.36489">
        <ele>468</ele>
        <time>2021-03-27T12:38:11Z</time>
      </trkpt>
      <trkpt lat="46.06963" lon="6.36488">
        <ele>468</ele>
        <time>2021-03-27T12:38:12Z</time>
      </trkpt>
      <trkpt lat="46.06956" lon="6.36488">
        <ele>468</ele>
        <time>2021-03-27T12:38:13Z</time>
      </trkpt>
      <trkpt lat="46.0695" lon="6.36487">
        <ele>468</ele>
        <time>2021-03-27T12:38:14Z</time>
      </trkpt>
      <trkpt lat="46.06944" lon="6.36486">
        <ele>468</ele>
        <time>2021-03-27T12:38:15Z</time>
      </trkpt>
      <trkpt lat="46.06937" lon="6.36486">
        <ele>468</ele>
        <time>2021-03-27T12:38:16Z</time>
      </trkpt>
      <trkpt lat="46.06931" lon="6.36485">
        <ele>467.8</ele>
        <time>2021-03-27T12:38:17Z</time>
      </trkpt>
      <trkpt lat="46.06925" lon="6.36484">
        <ele>467.8</ele>
        <time>2021-03-27T12:38:18Z</time>
      </trkpt>
      <trkpt lat="46.06919" lon="6.36483">
        <ele>467.8</ele>
        <time>2021-03-27T12:38:19Z</time>
      </trkpt>
      <trkpt lat="46.06913" lon="6.36482">
        <ele>467.6</ele>
        <time>2021-03-27T12:38:20Z</time>
      </trkpt>
      <trkpt lat="46.06906" lon="6.3648">
        <ele>467.6</ele>
        <time>2021-03-27T12:38:21Z</time>
      </trkpt>
      <trkpt lat="46.069" lon="6.36479">
        <ele>467.6</ele>
        <time>2021-03-27T12:38:22Z</time>
      </trkpt>
      <trkpt lat="46.06894" lon="6.36478">
        <ele>467.6</ele>
        <time>2021-03-27T12:38:23Z</time>
      </trkpt>
      <trkpt lat="46.06888" lon="6.36477">
        <ele>467.6</ele>
        <time>2021-03-27T12:38:24Z</time>
      </trkpt>
      <trkpt lat="46.06882" lon="6.36476">
        <ele>467.6</ele>
        <time>2021-03-27T12:38:25Z</time>
      </trkpt>
      <trkpt lat="46.06875" lon="6.36475">
        <ele>467.4</ele>
        <time>2021-03-27T12:38:26Z</time>
      </trkpt>
      <trkpt lat="46.06869" lon="6.36473">
        <ele>467.4</ele>
        <time>2021-03-27T12:38:27Z</time>
      </trkpt>
      <trkpt lat="46.06863" lon="6.36472">
        <ele>467.6</ele>
        <time>2021-03-27T12:38:28Z</time>
      </trkpt>
      <trkpt lat="46.06857" lon="6.36471">
        <ele>467.6</ele>
        <time>2021-03-27T12:38:29Z</time>
      </trkpt>
      <trkpt lat="46.0685" lon="6.3647">
        <ele>467.4</ele>
        <time>2021-03-27T12:38:30Z</time>
      </trkpt>
      <trkpt lat="46.06844" lon="6.36468">
        <ele>467.6</ele>
        <time>2021-03-27T12:38:31Z</time>
      </trkpt>
      <trkpt lat="46.06838" lon="6.36467">
        <ele>467.6</ele>
        <time>2021-03-27T12:38:32Z</time>
      </trkpt>
      <trkpt lat="46.06831" lon="6.36466">
        <ele>467.6</ele>
        <time>2021-03-27T12:38:33Z</time>
      </trkpt>
      <trkpt lat="46.06825" lon="6.36464">
        <ele>467.6</ele>
        <time>2021-03-27T12:38:34Z</time>
      </trkpt>
      <trkpt lat="46.06819" lon="6.36463">
        <ele>467.8</ele>
        <time>2021-03-27T12:38:35Z</time>
      </trkpt>
      <trkpt lat="46.06812" lon="6.36461">
        <ele>467.8</ele>
        <time>2021-03-27T12:38:36Z</time>
      </trkpt>
      <trkpt lat="46.06806" lon="6.3646">
        <ele>468</ele>
        <time>2021-03-27T12:38:37Z</time>
      </trkpt>
      <trkpt lat="46.06799" lon="6.36459">
        <ele>468</ele>
        <time>2021-03-27T12:38:38Z</time>
      </trkpt>
      <trkpt lat="46.06793" lon="6.36458">
        <ele>468</ele>
        <time>2021-03-27T12:38:39Z</time>
      </trkpt>
      <trkpt lat="46.06787" lon="6.36457">
        <ele>468.2</ele>
        <time>2021-03-27T12:38:40Z</time>
      </trkpt>
      <trkpt lat="46.0678" lon="6.36456">
        <ele>468.2</ele>
        <time>2021-03-27T12:38:41Z</time>
      </trkpt>
      <trkpt lat="46.06774" lon="6.36454">
        <ele>468.4</ele>
        <time>2021-03-27T12:38:42Z</time>
      </trkpt>
      <trkpt lat="46.06767" lon="6.36453">
        <ele>468.4</ele>
        <time>2021-03-27T12:38:43Z</time>
      </trkpt>
      <trkpt lat="46.06761" lon="6.36452">
        <ele>468.4</ele>
        <time>2021-03-27T12:38:44Z</time>
      </trkpt>
      <trkpt lat="46.06754" lon="6.36451">
        <ele>468.6</ele>
        <time>2021-03-27T12:38:45Z</time>
      </trkpt>
      <trkpt lat="46.06748" lon="6.3645">
        <ele>468.6</ele>
        <time>2021-03-27T12:38:46Z</time>
      </trkpt>
      <trkpt lat="46.06741" lon="6.36449">
        <ele>468.6</ele>
        <time>2021-03-27T12:38:47Z</time>
      </trkpt>
      <trkpt lat="46.06735" lon="6.36448">
        <ele>468.6</ele>
        <time>2021-03-27T12:38:48Z</time>
      </trkpt>
      <trkpt lat="46.06728" lon="6.36447">
        <ele>468.8</ele>
        <time>2021-03-27T12:38:49Z</time>
      </trkpt>
      <trkpt lat="46.06722" lon="6.36445">
        <ele>468.8</ele>
        <time>2021-03-27T12:38:50Z</time>
      </trkpt>
      <trkpt lat="46.06716" lon="6.36444">
        <ele>469</ele>
        <time>2021-03-27T12:38:51Z</time>
      </trkpt>
      <trkpt lat="46.06709" lon="6.36443">
        <ele>469</ele>
        <time>2021-03-27T12:38:52Z</time>
      </trkpt>
      <trkpt lat="46.06703" lon="6.36442">
        <ele>469</ele>
        <time>2021-03-27T12:38:53Z</time>
      </trkpt>
      <trkpt lat="46.06696" lon="6.3644">
        <ele>469</ele>
        <time>2021-03-27T12:38:54Z</time>
      </trkpt>
      <trkpt lat="46.0669" lon="6.36439">
        <ele>469.2</ele>
        <time>2021-03-27T12:38:55Z</time>
      </trkpt>
      <trkpt lat="46.06683" lon="6.36438">
        <ele>469.4</ele>
        <time>2021-03-27T12:38:56Z</time>
      </trkpt>
      <trkpt lat="46.06676" lon="6.36437">
        <ele>469.4</ele>
        <time>2021-03-27T12:38:57Z</time>
      </trkpt>
      <trkpt lat="46.0667" lon="6.36436">
        <ele>469.6</ele>
        <time>2021-03-27T12:38:58Z</time>
      </trkpt>
      <trkpt lat="46.06664" lon="6.36435">
        <ele>469.8</ele>
        <time>2021-03-27T12:38:59Z</time>
      </trkpt>
      <trkpt lat="46.06657" lon="6.36434">
        <ele>469.8</ele>
        <time>2021-03-27T12:39:00Z</time>
      </trkpt>
      <trkpt lat="46.06651" lon="6.36433">
        <ele>469.8</ele>
        <time>2021-03-27T12:39:01Z</time>
      </trkpt>
      <trkpt lat="46.06644" lon="6.36431">
        <ele>470</ele>
        <time>2021-03-27T12:39:02Z</time>
      </trkpt>
      <trkpt lat="46.06638" lon="6.3643">
        <ele>470</ele>
        <time>2021-03-27T12:39:03Z</time>
      </trkpt>
      <trkpt lat="46.06632" lon="6.36429">
        <ele>470</ele>
        <time>2021-03-27T12:39:04Z</time>
      </trkpt>
      <trkpt lat="46.06625" lon="6.36428">
        <ele>470</ele>
        <time>2021-03-27T12:39:05Z</time>
      </trkpt>
      <trkpt lat="46.06619" lon="6.36427">
        <ele>470.2</ele>
        <time>2021-03-27T12:39:06Z</time>
      </trkpt>
      <trkpt lat="46.06613" lon="6.36425">
        <ele>470.2</ele>
        <time>2021-03-27T12:39:07Z</time>
      </trkpt>
      <trkpt lat="46.06606" lon="6.36424">
        <ele>470.4</ele>
        <time>2021-03-27T12:39:08Z</time>
      </trkpt>
      <trkpt lat="46.066" lon="6.36422">
        <ele>470.4</ele>
        <time>2021-03-27T12:39:09Z</time>
      </trkpt>
      <trkpt lat="46.06593" lon="6.36419">
        <ele>470.4</ele>
        <time>2021-03-27T12:39:10Z</time>
      </trkpt>
      <trkpt lat="46.06586" lon="6.36417">
        <ele>470.4</ele>
        <time>2021-03-27T12:39:11Z</time>
      </trkpt>
      <trkpt lat="46.0658" lon="6.36416">
        <ele>470.6</ele>
        <time>2021-03-27T12:39:12Z</time>
      </trkpt>
      <trkpt lat="46.06573" lon="6.36413">
        <ele>470.6</ele>
        <time>2021-03-27T12:39:13Z</time>
      </trkpt>
      <trkpt lat="46.06567" lon="6.3641">
        <ele>470.4</ele>
        <time>2021-03-27T12:39:14Z</time>
      </trkpt>
      <trkpt lat="46.06561" lon="6.36406">
        <ele>470.6</ele>
        <time>2021-03-27T12:39:15Z</time>
      </trkpt>
      <trkpt lat="46.06555" lon="6.36404">
        <ele>470.6</ele>
        <time>2021-03-27T12:39:16Z</time>
      </trkpt>
      <trkpt lat="46.06549" lon="6.36404">
        <ele>470.6</ele>
        <time>2021-03-27T12:39:17Z</time>
      </trkpt>
      <trkpt lat="46.06543" lon="6.36406">
        <ele>470.6</ele>
        <time>2021-03-27T12:39:18Z</time>
      </trkpt>
      <trkpt lat="46.06537" lon="6.36407">
        <ele>470.8</ele>
        <time>2021-03-27T12:39:19Z</time>
      </trkpt>
      <trkpt lat="46.06531" lon="6.36408">
        <ele>470.8</ele>
        <time>2021-03-27T12:39:20Z</time>
      </trkpt>
      <trkpt lat="46.06524" lon="6.36407">
        <ele>471</ele>
        <time>2021-03-27T12:39:21Z</time>
      </trkpt>
      <trkpt lat="46.06518" lon="6.36407">
        <ele>471</ele>
        <time>2021-03-27T12:39:22Z</time>
      </trkpt>
      <trkpt lat="46.06511" lon="6.36406">
        <ele>471.2</ele>
        <time>2021-03-27T12:39:23Z</time>
      </trkpt>
      <trkpt lat="46.06504" lon="6.36406">
        <ele>471.2</ele>
        <time>2021-03-27T12:39:24Z</time>
      </trkpt>
      <trkpt lat="46.06498" lon="6.36405">
        <ele>471.4</ele>
        <time>2021-03-27T12:39:25Z</time>
      </trkpt>
      <trkpt lat="46.06491" lon="6.36405">
        <ele>472</ele>
        <time>2021-03-27T12:39:26Z</time>
      </trkpt>
      <trkpt lat="46.06484" lon="6.36405">
        <ele>472.4</ele>
        <time>2021-03-27T12:39:27Z</time>
      </trkpt>
      <trkpt lat="46.06478" lon="6.36404">
        <ele>472.6</ele>
        <time>2021-03-27T12:39:28Z</time>
      </trkpt>
      <trkpt lat="46.06471" lon="6.36404">
        <ele>472.6</ele>
        <time>2021-03-27T12:39:29Z</time>
      </trkpt>
      <trkpt lat="46.06465" lon="6.36403">
        <ele>472.6</ele>
        <time>2021-03-27T12:39:30Z</time>
      </trkpt>
      <trkpt lat="46.06458" lon="6.36402">
        <ele>472.8</ele>
        <time>2021-03-27T12:39:31Z</time>
      </trkpt>
      <trkpt lat="46.06452" lon="6.36402">
        <ele>473</ele>
        <time>2021-03-27T12:39:32Z</time>
      </trkpt>
      <trkpt lat="46.06445" lon="6.36402">
        <ele>473</ele>
        <time>2021-03-27T12:39:33Z</time>
      </trkpt>
      <trkpt lat="46.06438" lon="6.36401">
        <ele>473.2</ele>
        <time>2021-03-27T12:39:34Z</time>
      </trkpt>
      <trkpt lat="46.06432" lon="6.36402">
        <ele>473.2</ele>
        <time>2021-03-27T12:39:35Z</time>
      </trkpt>
      <trkpt lat="46.06425" lon="6.36402">
        <ele>473.4</ele>
        <time>2021-03-27T12:39:36Z</time>
      </trkpt>
      <trkpt lat="46.06419" lon="6.36402">
        <ele>473.4</ele>
        <time>2021-03-27T12:39:37Z</time>
      </trkpt>
      <trkpt lat="46.06412" lon="6.36403">
        <ele>473.6</ele>
        <time>2021-03-27T12:39:38Z</time>
      </trkpt>
      <trkpt lat="46.06406" lon="6.36403">
        <ele>473.8</ele>
        <time>2021-03-27T12:39:39Z</time>
      </trkpt>
      <trkpt lat="46.06399" lon="6.36403">
        <ele>473.6</ele>
        <time>2021-03-27T12:39:40Z</time>
      </trkpt>
      <trkpt lat="46.06393" lon="6.36404">
        <ele>473.8</ele>
        <time>2021-03-27T12:39:41Z</time>
      </trkpt>
      <trkpt lat="46.06387" lon="6.36405">
        <ele>473.8</ele>
        <time>2021-03-27T12:39:42Z</time>
      </trkpt>
      <trkpt lat="46.06381" lon="6.36405">
        <ele>474.2</ele>
        <time>2021-03-27T12:39:43Z</time>
      </trkpt>
      <trkpt lat="46.06375" lon="6.36406">
        <ele>474.2</ele>
        <time>2021-03-27T12:39:44Z</time>
      </trkpt>
      <trkpt lat="46.06369" lon="6.36405">
        <ele>474.2</ele>
        <time>2021-03-27T12:39:45Z</time>
      </trkpt>
      <trkpt lat="46.06362" lon="6.36405">
        <ele>474.4</ele>
        <time>2021-03-27T12:39:46Z</time>
      </trkpt>
      <trkpt lat="46.06356" lon="6.36405">
        <ele>474.4</ele>
        <time>2021-03-27T12:39:47Z</time>
      </trkpt>
      <trkpt lat="46.0635" lon="6.36404">
        <ele>474.6</ele>
        <time>2021-03-27T12:39:48Z</time>
      </trkpt>
      <trkpt lat="46.06344" lon="6.36404">
        <ele>474.8</ele>
        <time>2021-03-27T12:39:49Z</time>
      </trkpt>
      <trkpt lat="46.06338" lon="6.36403">
        <ele>475</ele>
        <time>2021-03-27T12:39:50Z</time>
      </trkpt>
      <trkpt lat="46.06331" lon="6.36402">
        <ele>475.2</ele>
        <time>2021-03-27T12:39:51Z</time>
      </trkpt>
      <trkpt lat="46.06325" lon="6.36401">
        <ele>475.4</ele>
        <time>2021-03-27T12:39:52Z</time>
      </trkpt>
      <trkpt lat="46.06318" lon="6.36399">
        <ele>475.4</ele>
        <time>2021-03-27T12:39:53Z</time>
      </trkpt>
      <trkpt lat="46.06312" lon="6.36398">
        <ele>475.6</ele>
        <time>2021-03-27T12:39:54Z</time>
      </trkpt>
      <trkpt lat="46.06305" lon="6.36396">
        <ele>475.6</ele>
        <time>2021-03-27T12:39:55Z</time>
      </trkpt>
      <trkpt lat="46.06299" lon="6.36395">
        <ele>475.6</ele>
        <time>2021-03-27T12:39:56Z</time>
      </trkpt>
      <trkpt lat="46.06293" lon="6.36394">
        <ele>475.8</ele>
        <time>2021-03-27T12:39:57Z</time>
      </trkpt>
      <trkpt lat="46.06286" lon="6.36392">
        <ele>475.6</ele>
        <time>2021-03-27T12:39:58Z</time>
      </trkpt>
      <trkpt lat="46.0628" lon="6.36391">
        <ele>475.8</ele>
        <time>2021-03-27T12:39:59Z</time>
      </trkpt>
      <trkpt lat="46.06274" lon="6.36389">
        <ele>476</ele>
        <time>2021-03-27T12:40:00Z</time>
      </trkpt>
      <trkpt lat="46.06267" lon="6.36388">
        <ele>476</ele>
        <time>2021-03-27T12:40:01Z</time>
      </trkpt>
      <trkpt lat="46.06261" lon="6.36386">
        <ele>476</ele>
        <time>2021-03-27T12:40:02Z</time>
      </trkpt>
      <trkpt lat="46.06255" lon="6.36385">
        <ele>476</ele>
        <time>2021-03-27T12:40:03Z</time>
      </trkpt>
      <trkpt lat="46.06249" lon="6.36383">
        <ele>476.2</ele>
        <time>2021-03-27T12:40:04Z</time>
      </trkpt>
      <trkpt lat="46.06242" lon="6.36381">
        <ele>476</ele>
        <time>2021-03-27T12:40:05Z</time>
      </trkpt>
      <trkpt lat="46.06235" lon="6.3638">
        <ele>476.2</ele>
        <time>2021-03-27T12:40:06Z</time>
      </trkpt>
      <trkpt lat="46.06229" lon="6.36378">
        <ele>476.2</ele>
        <time>2021-03-27T12:40:07Z</time>
      </trkpt>
      <trkpt lat="46.06222" lon="6.36377">
        <ele>476.4</ele>
        <time>2021-03-27T12:40:08Z</time>
      </trkpt>
      <trkpt lat="46.06215" lon="6.36375">
        <ele>476.4</ele>
        <time>2021-03-27T12:40:09Z</time>
      </trkpt>
      <trkpt lat="46.06208" lon="6.36373">
        <ele>476.8</ele>
        <time>2021-03-27T12:40:10Z</time>
      </trkpt>
      <trkpt lat="46.06202" lon="6.36371">
        <ele>476.8</ele>
        <time>2021-03-27T12:40:11Z</time>
      </trkpt>
      <trkpt lat="46.06195" lon="6.3637">
        <ele>477</ele>
        <time>2021-03-27T12:40:12Z</time>
      </trkpt>
      <trkpt lat="46.06188" lon="6.36368">
        <ele>476.8</ele>
        <time>2021-03-27T12:40:13Z</time>
      </trkpt>
      <trkpt lat="46.06181" lon="6.36368">
        <ele>477</ele>
        <time>2021-03-27T12:40:14Z</time>
      </trkpt>
      <trkpt lat="46.06175" lon="6.36368">
        <ele>477.2</ele>
        <time>2021-03-27T12:40:15Z</time>
      </trkpt>
      <trkpt lat="46.06168" lon="6.36369">
        <ele>477.2</ele>
        <time>2021-03-27T12:40:16Z</time>
      </trkpt>
      <trkpt lat="46.06161" lon="6.36371">
        <ele>477.2</ele>
        <time>2021-03-27T12:40:17Z</time>
      </trkpt>
      <trkpt lat="46.06155" lon="6.36372">
        <ele>477.4</ele>
        <time>2021-03-27T12:40:18Z</time>
      </trkpt>
      <trkpt lat="46.06148" lon="6.36373">
        <ele>477.4</ele>
        <time>2021-03-27T12:40:19Z</time>
      </trkpt>
      <trkpt lat="46.06141" lon="6.36373">
        <ele>477.2</ele>
        <time>2021-03-27T12:40:20Z</time>
      </trkpt>
      <trkpt lat="46.06134" lon="6.36372">
        <ele>477.4</ele>
        <time>2021-03-27T12:40:21Z</time>
      </trkpt>
      <trkpt lat="46.06128" lon="6.36372">
        <ele>477.4</ele>
        <time>2021-03-27T12:40:22Z</time>
      </trkpt>
      <trkpt lat="46.06121" lon="6.36371">
        <ele>477.2</ele>
        <time>2021-03-27T12:40:23Z</time>
      </trkpt>
      <trkpt lat="46.06114" lon="6.36371">
        <ele>477.6</ele>
        <time>2021-03-27T12:40:24Z</time>
      </trkpt>
      <trkpt lat="46.06107" lon="6.3637">
        <ele>477.6</ele>
        <time>2021-03-27T12:40:25Z</time>
      </trkpt>
      <trkpt lat="46.06101" lon="6.3637">
        <ele>477.6</ele>
        <time>2021-03-27T12:40:26Z</time>
      </trkpt>
      <trkpt lat="46.06094" lon="6.36369">
        <ele>477.6</ele>
        <time>2021-03-27T12:40:27Z</time>
      </trkpt>
      <trkpt lat="46.06087" lon="6.36368">
        <ele>477.6</ele>
        <time>2021-03-27T12:40:28Z</time>
      </trkpt>
      <trkpt lat="46.0608" lon="6.36367">
        <ele>477.8</ele>
        <time>2021-03-27T12:40:29Z</time>
      </trkpt>
      <trkpt lat="46.06073" lon="6.36367">
        <ele>477.8</ele>
        <time>2021-03-27T12:40:30Z</time>
      </trkpt>
      <trkpt lat="46.06067" lon="6.36365">
        <ele>477.8</ele>
        <time>2021-03-27T12:40:31Z</time>
      </trkpt>
      <trkpt lat="46.0606" lon="6.36364">
        <ele>477.8</ele>
        <time>2021-03-27T12:40:32Z</time>
      </trkpt>
      <trkpt lat="46.06053" lon="6.36363">
        <ele>478.2</ele>
        <time>2021-03-27T12:40:33Z</time>
      </trkpt>
      <trkpt lat="46.06046" lon="6.36361">
        <ele>478.2</ele>
        <time>2021-03-27T12:40:34Z</time>
      </trkpt>
      <trkpt lat="46.0604" lon="6.3636">
        <ele>478.4</ele>
        <time>2021-03-27T12:40:35Z</time>
      </trkpt>
      <trkpt lat="46.06033" lon="6.36358">
        <ele>478.6</ele>
        <time>2021-03-27T12:40:36Z</time>
      </trkpt>
      <trkpt lat="46.06027" lon="6.36356">
        <ele>478.8</ele>
        <time>2021-03-27T12:40:37Z</time>
      </trkpt>
      <trkpt lat="46.0602" lon="6.36355">
        <ele>478.8</ele>
        <time>2021-03-27T12:40:38Z</time>
      </trkpt>
      <trkpt lat="46.06014" lon="6.36354">
        <ele>478.6</ele>
        <time>2021-03-27T12:40:39Z</time>
      </trkpt>
      <trkpt lat="46.06007" lon="6.36353">
        <ele>478.8</ele>
        <time>2021-03-27T12:40:40Z</time>
      </trkpt>
      <trkpt lat="46.06001" lon="6.36352">
        <ele>478.8</ele>
        <time>2021-03-27T12:40:41Z</time>
      </trkpt>
      <trkpt lat="46.05996" lon="6.36351">
        <ele>478.8</ele>
        <time>2021-03-27T12:40:42Z</time>
      </trkpt>
      <trkpt lat="46.0599" lon="6.3635">
        <ele>478.8</ele>
        <time>2021-03-27T12:40:43Z</time>
      </trkpt>
      <trkpt lat="46.05985" lon="6.3635">
        <ele>478.8</ele>
        <time>2021-03-27T12:40:44Z</time>
      </trkpt>
      <trkpt lat="46.05979" lon="6.36351">
        <ele>478.8</ele>
        <time>2021-03-27T12:40:45Z</time>
      </trkpt>
      <trkpt lat="46.05974" lon="6.36352">
        <ele>478.8</ele>
        <time>2021-03-27T12:40:46Z</time>
      </trkpt>
      <trkpt lat="46.05968" lon="6.36355">
        <ele>479</ele>
        <time>2021-03-27T12:40:47Z</time>
      </trkpt>
      <trkpt lat="46.05963" lon="6.36359">
        <ele>478.8</ele>
        <time>2021-03-27T12:40:48Z</time>
      </trkpt>
      <trkpt lat="46.0596" lon="6.36365">
        <ele>479</ele>
        <time>2021-03-27T12:40:49Z</time>
      </trkpt>
      <trkpt lat="46.05958" lon="6.36372">
        <ele>479</ele>
        <time>2021-03-27T12:40:50Z</time>
      </trkpt>
      <trkpt lat="46.05957" lon="6.3638">
        <ele>479</ele>
        <time>2021-03-27T12:40:51Z</time>
      </trkpt>
      <trkpt lat="46.05955" lon="6.36388">
        <ele>479.2</ele>
        <time>2021-03-27T12:40:52Z</time>
      </trkpt>
      <trkpt lat="46.05952" lon="6.36394">
        <ele>479.2</ele>
        <time>2021-03-27T12:40:53Z</time>
      </trkpt>
      <trkpt lat="46.05947" lon="6.36396">
        <ele>479.4</ele>
        <time>2021-03-27T12:40:54Z</time>
      </trkpt>
      <trkpt lat="46.05943" lon="6.36397">
        <ele>479.4</ele>
        <time>2021-03-27T12:40:55Z</time>
      </trkpt>
      <trkpt lat="46.05937" lon="6.36395">
        <ele>479.4</ele>
        <time>2021-03-27T12:40:56Z</time>
      </trkpt>
      <trkpt lat="46.05932" lon="6.36393">
        <ele>479.6</ele>
        <time>2021-03-27T12:40:57Z</time>
      </trkpt>
      <trkpt lat="46.05927" lon="6.36392">
        <ele>479.8</ele>
        <time>2021-03-27T12:40:58Z</time>
      </trkpt>
      <trkpt lat="46.05922" lon="6.36389">
        <ele>480</ele>
        <time>2021-03-27T12:40:59Z</time>
      </trkpt>
      <trkpt lat="46.05917" lon="6.36385">
        <ele>480.2</ele>
        <time>2021-03-27T12:41:00Z</time>
      </trkpt>
      <trkpt lat="46.05912" lon="6.36381">
        <ele>480</ele>
        <time>2021-03-27T12:41:01Z</time>
      </trkpt>
      <trkpt lat="46.05906" lon="6.36377">
        <ele>480</ele>
        <time>2021-03-27T12:41:02Z</time>
      </trkpt>
      <trkpt lat="46.05902" lon="6.36371">
        <ele>480.2</ele>
        <time>2021-03-27T12:41:03Z</time>
      </trkpt>
      <trkpt lat="46.05898" lon="6.36365">
        <ele>480</ele>
        <time>2021-03-27T12:41:04Z</time>
      </trkpt>
      <trkpt lat="46.05895" lon="6.36358">
        <ele>480</ele>
        <time>2021-03-27T12:41:05Z</time>
      </trkpt>
      <trkpt lat="46.05893" lon="6.3635">
        <ele>480.2</ele>
        <time>2021-03-27T12:41:06Z</time>
      </trkpt>
      <trkpt lat="46.05891" lon="6.36343">
        <ele>480.2</ele>
        <time>2021-03-27T12:41:07Z</time>
      </trkpt>
      <trkpt lat="46.05888" lon="6.36337">
        <ele>480.4</ele>
        <time>2021-03-27T12:41:08Z</time>
      </trkpt>
      <trkpt lat="46.05884" lon="6.36334">
        <ele>480.2</ele>
        <time>2021-03-27T12:41:09Z</time>
      </trkpt>
      <trkpt lat="46.0588" lon="6.36332">
        <ele>480.2</ele>
        <time>2021-03-27T12:41:10Z</time>
      </trkpt>
      <trkpt lat="46.05875" lon="6.36331">
        <ele>480.4</ele>
        <time>2021-03-27T12:41:11Z</time>
      </trkpt>
      <trkpt lat="46.0587" lon="6.36331">
        <ele>480.2</ele>
        <time>2021-03-27T12:41:12Z</time>
      </trkpt>
      <trkpt lat="46.05865" lon="6.3633">
        <ele>480.2</ele>
        <time>2021-03-27T12:41:13Z</time>
      </trkpt>
      <trkpt lat="46.0586" lon="6.36331">
        <ele>480</ele>
        <time>2021-03-27T12:41:14Z</time>
      </trkpt>
      <trkpt lat="46.05855" lon="6.36331">
        <ele>480.2</ele>
        <time>2021-03-27T12:41:15Z</time>
      </trkpt>
      <trkpt lat="46.05849" lon="6.36331">
        <ele>480</ele>
        <time>2021-03-27T12:41:16Z</time>
      </trkpt>
      <trkpt lat="46.05843" lon="6.36331">
        <ele>480</ele>
        <time>2021-03-27T12:41:17Z</time>
      </trkpt>
      <trkpt lat="46.05837" lon="6.36331">
        <ele>480</ele>
        <time>2021-03-27T12:41:18Z</time>
      </trkpt>
      <trkpt lat="46.05831" lon="6.36331">
        <ele>480</ele>
        <time>2021-03-27T12:41:19Z</time>
      </trkpt>
      <trkpt lat="46.05825" lon="6.36331">
        <ele>480</ele>
        <time>2021-03-27T12:41:20Z</time>
      </trkpt>
      <trkpt lat="46.05819" lon="6.36331">
        <ele>480</ele>
        <time>2021-03-27T12:41:21Z</time>
      </trkpt>
      <trkpt lat="46.05813" lon="6.36331">
        <ele>480</ele>
        <time>2021-03-27T12:41:22Z</time>
      </trkpt>
      <trkpt lat="46.05807" lon="6.36331">
        <ele>480.2</ele>
        <time>2021-03-27T12:41:23Z</time>
      </trkpt>
      <trkpt lat="46.05801" lon="6.36331">
        <ele>480.2</ele>
        <time>2021-03-27T12:41:24Z</time>
      </trkpt>
      <trkpt lat="46.05795" lon="6.36331">
        <ele>480.2</ele>
        <time>2021-03-27T12:41:25Z</time>
      </trkpt>
      <trkpt lat="46.05789" lon="6.36332">
        <ele>480.2</ele>
        <time>2021-03-27T12:41:26Z</time>
      </trkpt>
      <trkpt lat="46.05783" lon="6.36333">
        <ele>480</ele>
        <time>2021-03-27T12:41:27Z</time>
      </trkpt>
      <trkpt lat="46.05777" lon="6.36333">
        <ele>480.2</ele>
        <time>2021-03-27T12:41:28Z</time>
      </trkpt>
      <trkpt lat="46.05771" lon="6.36334">
        <ele>480.2</ele>
        <time>2021-03-27T12:41:29Z</time>
      </trkpt>
      <trkpt lat="46.05765" lon="6.36335">
        <ele>480.2</ele>
        <time>2021-03-27T12:41:30Z</time>
      </trkpt>
      <trkpt lat="46.05759" lon="6.36337">
        <ele>480.2</ele>
        <time>2021-03-27T12:41:31Z</time>
      </trkpt>
      <trkpt lat="46.05752" lon="6.36337">
        <ele>480.2</ele>
        <time>2021-03-27T12:41:32Z</time>
      </trkpt>
      <trkpt lat="46.05746" lon="6.36338">
        <ele>480.2</ele>
        <time>2021-03-27T12:41:33Z</time>
      </trkpt>
      <trkpt lat="46.0574" lon="6.36339">
        <ele>480.4</ele>
        <time>2021-03-27T12:41:34Z</time>
      </trkpt>
      <trkpt lat="46.05734" lon="6.36339">
        <ele>480.2</ele>
        <time>2021-03-27T12:41:35Z</time>
      </trkpt>
      <trkpt lat="46.05728" lon="6.3634">
        <ele>480.4</ele>
        <time>2021-03-27T12:41:36Z</time>
      </trkpt>
      <trkpt lat="46.05722" lon="6.36341">
        <ele>480.4</ele>
        <time>2021-03-27T12:41:37Z</time>
      </trkpt>
      <trkpt lat="46.05717" lon="6.36341">
        <ele>480.4</ele>
        <time>2021-03-27T12:41:38Z</time>
      </trkpt>
      <trkpt lat="46.05711" lon="6.3634">
        <ele>480.4</ele>
        <time>2021-03-27T12:41:39Z</time>
      </trkpt>
      <trkpt lat="46.05705" lon="6.3634">
        <ele>480.8</ele>
        <time>2021-03-27T12:41:40Z</time>
      </trkpt>
      <trkpt lat="46.05699" lon="6.36339">
        <ele>481</ele>
        <time>2021-03-27T12:41:41Z</time>
      </trkpt>
      <trkpt lat="46.05692" lon="6.36339">
        <ele>481</ele>
        <time>2021-03-27T12:41:42Z</time>
      </trkpt>
      <trkpt lat="46.05686" lon="6.36339">
        <ele>481.2</ele>
        <time>2021-03-27T12:41:43Z</time>
      </trkpt>
      <trkpt lat="46.0568" lon="6.36339">
        <ele>481.4</ele>
        <time>2021-03-27T12:41:44Z</time>
      </trkpt>
      <trkpt lat="46.05675" lon="6.36339">
        <ele>481.4</ele>
        <time>2021-03-27T12:41:45Z</time>
      </trkpt>
      <trkpt lat="46.05669" lon="6.36338">
        <ele>481.6</ele>
        <time>2021-03-27T12:41:46Z</time>
      </trkpt>
      <trkpt lat="46.05663" lon="6.36337">
        <ele>481.6</ele>
        <time>2021-03-27T12:41:47Z</time>
      </trkpt>
      <trkpt lat="46.05657" lon="6.36336">
        <ele>481.8</ele>
        <time>2021-03-27T12:41:48Z</time>
      </trkpt>
      <trkpt lat="46.05652" lon="6.36335">
        <ele>482</ele>
        <time>2021-03-27T12:41:49Z</time>
      </trkpt>
      <trkpt lat="46.05647" lon="6.36334">
        <ele>482</ele>
        <time>2021-03-27T12:41:50Z</time>
      </trkpt>
      <trkpt lat="46.05642" lon="6.36332">
        <ele>482</ele>
        <time>2021-03-27T12:41:51Z</time>
      </trkpt>
      <trkpt lat="46.05637" lon="6.36331">
        <ele>482.2</ele>
        <time>2021-03-27T12:41:52Z</time>
      </trkpt>
      <trkpt lat="46.05633" lon="6.36329">
        <ele>482.2</ele>
        <time>2021-03-27T12:41:53Z</time>
      </trkpt>
      <trkpt lat="46.05628" lon="6.36327">
        <ele>482.4</ele>
        <time>2021-03-27T12:41:54Z</time>
      </trkpt>
      <trkpt lat="46.05621" lon="6.36324">
        <ele>482.2</ele>
        <time>2021-03-27T12:41:56Z</time>
      </trkpt>
      <trkpt lat="46.05618" lon="6.36323">
        <ele>482.4</ele>
        <time>2021-03-27T12:41:57Z</time>
      </trkpt>
      <trkpt lat="46.05615" lon="6.36322">
        <ele>482.6</ele>
        <time>2021-03-27T12:41:58Z</time>
      </trkpt>
      <trkpt lat="46.05612" lon="6.36321">
        <ele>482.8</ele>
        <time>2021-03-27T12:41:59Z</time>
      </trkpt>
      <trkpt lat="46.05609" lon="6.36321">
        <ele>483.4</ele>
        <time>2021-03-27T12:42:00Z</time>
      </trkpt>
      <trkpt lat="46.05606" lon="6.3632">
        <ele>484.2</ele>
        <time>2021-03-27T12:42:01Z</time>
      </trkpt>
      <trkpt lat="46.05604" lon="6.36321">
        <ele>484.6</ele>
        <time>2021-03-27T12:42:02Z</time>
      </trkpt>
      <trkpt lat="46.05601" lon="6.36322">
        <ele>485.2</ele>
        <time>2021-03-27T12:42:03Z</time>
      </trkpt>
      <trkpt lat="46.05599" lon="6.36324">
        <ele>485.6</ele>
        <time>2021-03-27T12:42:04Z</time>
      </trkpt>
      <trkpt lat="46.05596" lon="6.36327">
        <ele>485.8</ele>
        <time>2021-03-27T12:42:05Z</time>
      </trkpt>
      <trkpt lat="46.05594" lon="6.36331">
        <ele>486.4</ele>
        <time>2021-03-27T12:42:06Z</time>
      </trkpt>
      <trkpt lat="46.05593" lon="6.36335">
        <ele>487</ele>
        <time>2021-03-27T12:42:07Z</time>
      </trkpt>
      <trkpt lat="46.05591" lon="6.3634">
        <ele>487.4</ele>
        <time>2021-03-27T12:42:08Z</time>
      </trkpt>
      <trkpt lat="46.05591" lon="6.36345">
        <ele>487.6</ele>
        <time>2021-03-27T12:42:09Z</time>
      </trkpt>
      <trkpt lat="46.0559" lon="6.3635">
        <ele>488.2</ele>
        <time>2021-03-27T12:42:10Z</time>
      </trkpt>
      <trkpt lat="46.05589" lon="6.36355">
        <ele>488.8</ele>
        <time>2021-03-27T12:42:11Z</time>
      </trkpt>
      <trkpt lat="46.05589" lon="6.36359">
        <ele>488.8</ele>
        <time>2021-03-27T12:42:12Z</time>
      </trkpt>
      <trkpt lat="46.05588" lon="6.36364">
        <ele>489.4</ele>
        <time>2021-03-27T12:42:13Z</time>
      </trkpt>
      <trkpt lat="46.05588" lon="6.36368">
        <ele>489.6</ele>
        <time>2021-03-27T12:42:14Z</time>
      </trkpt>
      <trkpt lat="46.05587" lon="6.36373">
        <ele>489.8</ele>
        <time>2021-03-27T12:42:15Z</time>
      </trkpt>
      <trkpt lat="46.05586" lon="6.36377">
        <ele>490</ele>
        <time>2021-03-27T12:42:16Z</time>
      </trkpt>
      <trkpt lat="46.05585" lon="6.36382">
        <ele>490.2</ele>
        <time>2021-03-27T12:42:17Z</time>
      </trkpt>
      <trkpt lat="46.05585" lon="6.36386">
        <ele>490.6</ele>
        <time>2021-03-27T12:42:18Z</time>
      </trkpt>
      <trkpt lat="46.05584" lon="6.36391">
        <ele>490.6</ele>
        <time>2021-03-27T12:42:19Z</time>
      </trkpt>
      <trkpt lat="46.05583" lon="6.36396">
        <ele>490.8</ele>
        <time>2021-03-27T12:42:20Z</time>
      </trkpt>
      <trkpt lat="46.05582" lon="6.36401">
        <ele>491</ele>
        <time>2021-03-27T12:42:21Z</time>
      </trkpt>
      <trkpt lat="46.05581" lon="6.36406">
        <ele>491.4</ele>
        <time>2021-03-27T12:42:22Z</time>
      </trkpt>
      <trkpt lat="46.0558" lon="6.36411">
        <ele>491.8</ele>
        <time>2021-03-27T12:42:23Z</time>
      </trkpt>
      <trkpt lat="46.0558" lon="6.36416">
        <ele>492</ele>
        <time>2021-03-27T12:42:24Z</time>
      </trkpt>
      <trkpt lat="46.05579" lon="6.36421">
        <ele>492.4</ele>
        <time>2021-03-27T12:42:25Z</time>
      </trkpt>
      <trkpt lat="46.05578" lon="6.36426">
        <ele>492.6</ele>
        <time>2021-03-27T12:42:26Z</time>
      </trkpt>
      <trkpt lat="46.05578" lon="6.36431">
        <ele>493</ele>
        <time>2021-03-27T12:42:27Z</time>
      </trkpt>
      <trkpt lat="46.05577" lon="6.36436">
        <ele>493.2</ele>
        <time>2021-03-27T12:42:28Z</time>
      </trkpt>
      <trkpt lat="46.05577" lon="6.36441">
        <ele>493.4</ele>
        <time>2021-03-27T12:42:29Z</time>
      </trkpt>
      <trkpt lat="46.05576" lon="6.36447">
        <ele>493.6</ele>
        <time>2021-03-27T12:42:30Z</time>
      </trkpt>
      <trkpt lat="46.05576" lon="6.36452">
        <ele>493.8</ele>
        <time>2021-03-27T12:42:31Z</time>
      </trkpt>
      <trkpt lat="46.05575" lon="6.36457">
        <ele>493.8</ele>
        <time>2021-03-27T12:42:32Z</time>
      </trkpt>
      <trkpt lat="46.05575" lon="6.36463">
        <ele>494</ele>
        <time>2021-03-27T12:42:33Z</time>
      </trkpt>
      <trkpt lat="46.05575" lon="6.36468">
        <ele>494.2</ele>
        <time>2021-03-27T12:42:34Z</time>
      </trkpt>
      <trkpt lat="46.05575" lon="6.36473">
        <ele>494.4</ele>
        <time>2021-03-27T12:42:35Z</time>
      </trkpt>
      <trkpt lat="46.05574" lon="6.36478">
        <ele>494.8</ele>
        <time>2021-03-27T12:42:36Z</time>
      </trkpt>
      <trkpt lat="46.05573" lon="6.36483">
        <ele>495.2</ele>
        <time>2021-03-27T12:42:37Z</time>
      </trkpt>
      <trkpt lat="46.05571" lon="6.36487">
        <ele>495.2</ele>
        <time>2021-03-27T12:42:38Z</time>
      </trkpt>
      <trkpt lat="46.05568" lon="6.3649">
        <ele>495.4</ele>
        <time>2021-03-27T12:42:39Z</time>
      </trkpt>
      <trkpt lat="46.05566" lon="6.36492">
        <ele>495.8</ele>
        <time>2021-03-27T12:42:40Z</time>
      </trkpt>
      <trkpt lat="46.05563" lon="6.36492">
        <ele>496</ele>
        <time>2021-03-27T12:42:41Z</time>
      </trkpt>
      <trkpt lat="46.0556" lon="6.36492">
        <ele>496.2</ele>
        <time>2021-03-27T12:42:42Z</time>
      </trkpt>
      <trkpt lat="46.05557" lon="6.36492">
        <ele>496.4</ele>
        <time>2021-03-27T12:42:43Z</time>
      </trkpt>
      <trkpt lat="46.05553" lon="6.36492">
        <ele>496.6</ele>
        <time>2021-03-27T12:42:44Z</time>
      </trkpt>
      <trkpt lat="46.0555" lon="6.36494">
        <ele>497</ele>
        <time>2021-03-27T12:42:45Z</time>
      </trkpt>
      <trkpt lat="46.05546" lon="6.36497">
        <ele>497.2</ele>
        <time>2021-03-27T12:42:46Z</time>
      </trkpt>
      <trkpt lat="46.05544" lon="6.36502">
        <ele>497.4</ele>
        <time>2021-03-27T12:42:47Z</time>
      </trkpt>
      <trkpt lat="46.05542" lon="6.36508">
        <ele>497.6</ele>
        <time>2021-03-27T12:42:48Z</time>
      </trkpt>
      <trkpt lat="46.05541" lon="6.36513">
        <ele>497.6</ele>
        <time>2021-03-27T12:42:49Z</time>
      </trkpt>
      <trkpt lat="46.0554" lon="6.36519">
        <ele>497.8</ele>
        <time>2021-03-27T12:42:50Z</time>
      </trkpt>
      <trkpt lat="46.0554" lon="6.36525">
        <ele>498</ele>
        <time>2021-03-27T12:42:51Z</time>
      </trkpt>
      <trkpt lat="46.05539" lon="6.36531">
        <ele>498.2</ele>
        <time>2021-03-27T12:42:52Z</time>
      </trkpt>
      <trkpt lat="46.05539" lon="6.36537">
        <ele>498.4</ele>
        <time>2021-03-27T12:42:53Z</time>
      </trkpt>
      <trkpt lat="46.05539" lon="6.36542">
        <ele>498.6</ele>
        <time>2021-03-27T12:42:54Z</time>
      </trkpt>
      <trkpt lat="46.05538" lon="6.36548">
        <ele>498.6</ele>
        <time>2021-03-27T12:42:55Z</time>
      </trkpt>
      <trkpt lat="46.05538" lon="6.36553">
        <ele>498.6</ele>
        <time>2021-03-27T12:42:56Z</time>
      </trkpt>
      <trkpt lat="46.05538" lon="6.36558">
        <ele>498.8</ele>
        <time>2021-03-27T12:42:57Z</time>
      </trkpt>
      <trkpt lat="46.05537" lon="6.36563">
        <ele>499.2</ele>
        <time>2021-03-27T12:42:58Z</time>
      </trkpt>
      <trkpt lat="46.05537" lon="6.36568">
        <ele>499.4</ele>
        <time>2021-03-27T12:42:59Z</time>
      </trkpt>
      <trkpt lat="46.05536" lon="6.36574">
        <ele>499.6</ele>
        <time>2021-03-27T12:43:00Z</time>
      </trkpt>
      <trkpt lat="46.05536" lon="6.3658">
        <ele>499.8</ele>
        <time>2021-03-27T12:43:01Z</time>
      </trkpt>
      <trkpt lat="46.05535" lon="6.36586">
        <ele>500</ele>
        <time>2021-03-27T12:43:02Z</time>
      </trkpt>
      <trkpt lat="46.05534" lon="6.36597">
        <ele>500.4</ele>
        <time>2021-03-27T12:43:04Z</time>
      </trkpt>
      <trkpt lat="46.05534" lon="6.36603">
        <ele>500.6</ele>
        <time>2021-03-27T12:43:05Z</time>
      </trkpt>
      <trkpt lat="46.05533" lon="6.36614">
        <ele>501.2</ele>
        <time>2021-03-27T12:43:07Z</time>
      </trkpt>
      <trkpt lat="46.05533" lon="6.3662">
        <ele>501.2</ele>
        <time>2021-03-27T12:43:08Z</time>
      </trkpt>
      <trkpt lat="46.05533" lon="6.36632">
        <ele>501.4</ele>
        <time>2021-03-27T12:43:10Z</time>
      </trkpt>
      <trkpt lat="46.05532" lon="6.36638">
        <ele>501.6</ele>
        <time>2021-03-27T12:43:11Z</time>
      </trkpt>
      <trkpt lat="46.05531" lon="6.3665">
        <ele>502</ele>
        <time>2021-03-27T12:43:13Z</time>
      </trkpt>
      <trkpt lat="46.05531" lon="6.36655">
        <ele>502</ele>
        <time>2021-03-27T12:43:14Z</time>
      </trkpt>
      <trkpt lat="46.0553" lon="6.36661">
        <ele>502.2</ele>
        <time>2021-03-27T12:43:15Z</time>
      </trkpt>
      <trkpt lat="46.0553" lon="6.36666">
        <ele>502.6</ele>
        <time>2021-03-27T12:43:16Z</time>
      </trkpt>
      <trkpt lat="46.0553" lon="6.36671">
        <ele>502.6</ele>
        <time>2021-03-27T12:43:17Z</time>
      </trkpt>
      <trkpt lat="46.05529" lon="6.36676">
        <ele>502.6</ele>
        <time>2021-03-27T12:43:18Z</time>
      </trkpt>
      <trkpt lat="46.05528" lon="6.36681">
        <ele>502.6</ele>
        <time>2021-03-27T12:43:19Z</time>
      </trkpt>
      <trkpt lat="46.05527" lon="6.36685">
        <ele>502.6</ele>
        <time>2021-03-27T12:43:20Z</time>
      </trkpt>
      <trkpt lat="46.05525" lon="6.36688">
        <ele>502.6</ele>
        <time>2021-03-27T12:43:21Z</time>
      </trkpt>
      <trkpt lat="46.05523" lon="6.3669">
        <ele>502.6</ele>
        <time>2021-03-27T12:43:22Z</time>
      </trkpt>
      <trkpt lat="46.05521" lon="6.36691">
        <ele>502.8</ele>
        <time>2021-03-27T12:43:23Z</time>
      </trkpt>
      <trkpt lat="46.05519" lon="6.36691">
        <ele>502.8</ele>
        <time>2021-03-27T12:43:24Z</time>
      </trkpt>
      <trkpt lat="46.05517" lon="6.3669">
        <ele>503.4</ele>
        <time>2021-03-27T12:43:25Z</time>
      </trkpt>
      <trkpt lat="46.05515" lon="6.36688">
        <ele>503.6</ele>
        <time>2021-03-27T12:43:26Z</time>
      </trkpt>
      <trkpt lat="46.05511" lon="6.36685">
        <ele>504.2</ele>
        <time>2021-03-27T12:43:28Z</time>
      </trkpt>
      <trkpt lat="46.0551" lon="6.36684">
        <ele>504.6</ele>
        <time>2021-03-27T12:43:29Z</time>
      </trkpt>
      <trkpt lat="46.05508" lon="6.3668">
        <ele>505.8</ele>
        <time>2021-03-27T12:43:31Z</time>
      </trkpt>
      <trkpt lat="46.05506" lon="6.36678">
        <ele>506.2</ele>
        <time>2021-03-27T12:43:32Z</time>
      </trkpt>
      <trkpt lat="46.05504" lon="6.36675">
        <ele>507.2</ele>
        <time>2021-03-27T12:43:34Z</time>
      </trkpt>
      <trkpt lat="46.05503" lon="6.36672">
        <ele>507.4</ele>
        <time>2021-03-27T12:43:35Z</time>
      </trkpt>
      <trkpt lat="46.055" lon="6.36668">
        <ele>508.2</ele>
        <time>2021-03-27T12:43:37Z</time>
      </trkpt>
      <trkpt lat="46.05499" lon="6.36666">
        <ele>508.6</ele>
        <time>2021-03-27T12:43:38Z</time>
      </trkpt>
      <trkpt lat="46.05496" lon="6.3666">
        <ele>509.4</ele>
        <time>2021-03-27T12:43:40Z</time>
      </trkpt>
      <trkpt lat="46.05495" lon="6.36658">
        <ele>509.8</ele>
        <time>2021-03-27T12:43:41Z</time>
      </trkpt>
      <trkpt lat="46.05493" lon="6.36654">
        <ele>510.6</ele>
        <time>2021-03-27T12:43:43Z</time>
      </trkpt>
      <trkpt lat="46.05492" lon="6.36652">
        <ele>511</ele>
        <time>2021-03-27T12:43:44Z</time>
      </trkpt>
      <trkpt lat="46.05489" lon="6.36649">
        <ele>511.8</ele>
        <time>2021-03-27T12:43:46Z</time>
      </trkpt>
      <trkpt lat="46.05487" lon="6.36647">
        <ele>512</ele>
        <time>2021-03-27T12:43:47Z</time>
      </trkpt>
      <trkpt lat="46.05483" lon="6.36647">
        <ele>513</ele>
        <time>2021-03-27T12:43:49Z</time>
      </trkpt>
      <trkpt lat="46.0548" lon="6.36648">
        <ele>513.4</ele>
        <time>2021-03-27T12:43:50Z</time>
      </trkpt>
      <trkpt lat="46.05476" lon="6.36649">
        <ele>514.2</ele>
        <time>2021-03-27T12:43:52Z</time>
      </trkpt>
      <trkpt lat="46.05474" lon="6.36649">
        <ele>514.4</ele>
        <time>2021-03-27T12:43:53Z</time>
      </trkpt>
      <trkpt lat="46.0547" lon="6.36646">
        <ele>515.4</ele>
        <time>2021-03-27T12:43:55Z</time>
      </trkpt>
      <trkpt lat="46.05468" lon="6.36644">
        <ele>515.8</ele>
        <time>2021-03-27T12:43:56Z</time>
      </trkpt>
      <trkpt lat="46.05464" lon="6.36638">
        <ele>516.6</ele>
        <time>2021-03-27T12:43:58Z</time>
      </trkpt>
      <trkpt lat="46.0546" lon="6.36632">
        <ele>517.6</ele>
        <time>2021-03-27T12:44:00Z</time>
      </trkpt>
      <trkpt lat="46.05458" lon="6.36629">
        <ele>518</ele>
        <time>2021-03-27T12:44:01Z</time>
      </trkpt>
      <trkpt lat="46.05454" lon="6.36623">
        <ele>518.2</ele>
        <time>2021-03-27T12:44:03Z</time>
      </trkpt>
      <trkpt lat="46.05453" lon="6.36619">
        <ele>518.6</ele>
        <time>2021-03-27T12:44:04Z</time>
      </trkpt>
      <trkpt lat="46.05451" lon="6.36616">
        <ele>518.6</ele>
        <time>2021-03-27T12:44:05Z</time>
      </trkpt>
      <trkpt lat="46.0545" lon="6.36612">
        <ele>518.4</ele>
        <time>2021-03-27T12:44:06Z</time>
      </trkpt>
      <trkpt lat="46.05448" lon="6.36608">
        <ele>518.6</ele>
        <time>2021-03-27T12:44:07Z</time>
      </trkpt>
      <trkpt lat="46.05447" lon="6.36604">
        <ele>518.8</ele>
        <time>2021-03-27T12:44:08Z</time>
      </trkpt>
      <trkpt lat="46.05446" lon="6.366">
        <ele>519</ele>
        <time>2021-03-27T12:44:09Z</time>
      </trkpt>
      <trkpt lat="46.05445" lon="6.36595">
        <ele>519</ele>
        <time>2021-03-27T12:44:10Z</time>
      </trkpt>
      <trkpt lat="46.05444" lon="6.36591">
        <ele>519.6</ele>
        <time>2021-03-27T12:44:11Z</time>
      </trkpt>
      <trkpt lat="46.05443" lon="6.36587">
        <ele>519.6</ele>
        <time>2021-03-27T12:44:12Z</time>
      </trkpt>
      <trkpt lat="46.05442" lon="6.36583">
        <ele>519.6</ele>
        <time>2021-03-27T12:44:13Z</time>
      </trkpt>
      <trkpt lat="46.05442" lon="6.36578">
        <ele>519.8</ele>
        <time>2021-03-27T12:44:14Z</time>
      </trkpt>
      <trkpt lat="46.05441" lon="6.36574">
        <ele>520</ele>
        <time>2021-03-27T12:44:15Z</time>
      </trkpt>
      <trkpt lat="46.0544" lon="6.3657">
        <ele>520</ele>
        <time>2021-03-27T12:44:16Z</time>
      </trkpt>
      <trkpt lat="46.0544" lon="6.36566">
        <ele>520.2</ele>
        <time>2021-03-27T12:44:17Z</time>
      </trkpt>
      <trkpt lat="46.05439" lon="6.36561">
        <ele>520.2</ele>
        <time>2021-03-27T12:44:18Z</time>
      </trkpt>
      <trkpt lat="46.05439" lon="6.36557">
        <ele>520.4</ele>
        <time>2021-03-27T12:44:19Z</time>
      </trkpt>
      <trkpt lat="46.05439" lon="6.36553">
        <ele>520.4</ele>
        <time>2021-03-27T12:44:20Z</time>
      </trkpt>
      <trkpt lat="46.05438" lon="6.36549">
        <ele>520.6</ele>
        <time>2021-03-27T12:44:21Z</time>
      </trkpt>
      <trkpt lat="46.05438" lon="6.36544">
        <ele>520.6</ele>
        <time>2021-03-27T12:44:22Z</time>
      </trkpt>
      <trkpt lat="46.05438" lon="6.3654">
        <ele>521</ele>
        <time>2021-03-27T12:44:23Z</time>
      </trkpt>
      <trkpt lat="46.05437" lon="6.36536">
        <ele>521.2</ele>
        <time>2021-03-27T12:44:24Z</time>
      </trkpt>
      <trkpt lat="46.05437" lon="6.36531">
        <ele>521.2</ele>
        <time>2021-03-27T12:44:25Z</time>
      </trkpt>
      <trkpt lat="46.05437" lon="6.36527">
        <ele>521.8</ele>
        <time>2021-03-27T12:44:26Z</time>
      </trkpt>
      <trkpt lat="46.05437" lon="6.36522">
        <ele>522</ele>
        <time>2021-03-27T12:44:27Z</time>
      </trkpt>
      <trkpt lat="46.05437" lon="6.36517">
        <ele>522.2</ele>
        <time>2021-03-27T12:44:28Z</time>
      </trkpt>
      <trkpt lat="46.05437" lon="6.36513">
        <ele>522.6</ele>
        <time>2021-03-27T12:44:29Z</time>
      </trkpt>
      <trkpt lat="46.05437" lon="6.36508">
        <ele>522.8</ele>
        <time>2021-03-27T12:44:30Z</time>
      </trkpt>
      <trkpt lat="46.05437" lon="6.36504">
        <ele>523</ele>
        <time>2021-03-27T12:44:31Z</time>
      </trkpt>
      <trkpt lat="46.05438" lon="6.36499">
        <ele>523.4</ele>
        <time>2021-03-27T12:44:32Z</time>
      </trkpt>
      <trkpt lat="46.05438" lon="6.36494">
        <ele>523.4</ele>
        <time>2021-03-27T12:44:33Z</time>
      </trkpt>
      <trkpt lat="46.05438" lon="6.3649">
        <ele>523.6</ele>
        <time>2021-03-27T12:44:34Z</time>
      </trkpt>
      <trkpt lat="46.05438" lon="6.36485">
        <ele>523.6</ele>
        <time>2021-03-27T12:44:35Z</time>
      </trkpt>
      <trkpt lat="46.05439" lon="6.3648">
        <ele>524</ele>
        <time>2021-03-27T12:44:36Z</time>
      </trkpt>
      <trkpt lat="46.05439" lon="6.36475">
        <ele>524.2</ele>
        <time>2021-03-27T12:44:37Z</time>
      </trkpt>
      <trkpt lat="46.0544" lon="6.3647">
        <ele>524.4</ele>
        <time>2021-03-27T12:44:38Z</time>
      </trkpt>
      <trkpt lat="46.0544" lon="6.36465">
        <ele>524.6</ele>
        <time>2021-03-27T12:44:39Z</time>
      </trkpt>
      <trkpt lat="46.0544" lon="6.3646">
        <ele>524.8</ele>
        <time>2021-03-27T12:44:40Z</time>
      </trkpt>
      <trkpt lat="46.0544" lon="6.36455">
        <ele>525</ele>
        <time>2021-03-27T12:44:41Z</time>
      </trkpt>
      <trkpt lat="46.0544" lon="6.3645">
        <ele>525.2</ele>
        <time>2021-03-27T12:44:42Z</time>
      </trkpt>
      <trkpt lat="46.0544" lon="6.36446">
        <ele>525.2</ele>
        <time>2021-03-27T12:44:43Z</time>
      </trkpt>
      <trkpt lat="46.0544" lon="6.36441">
        <ele>525.4</ele>
        <time>2021-03-27T12:44:44Z</time>
      </trkpt>
      <trkpt lat="46.05441" lon="6.36436">
        <ele>525.8</ele>
        <time>2021-03-27T12:44:45Z</time>
      </trkpt>
      <trkpt lat="46.05441" lon="6.36431">
        <ele>526.2</ele>
        <time>2021-03-27T12:44:46Z</time>
      </trkpt>
      <trkpt lat="46.05441" lon="6.36426">
        <ele>526.2</ele>
        <time>2021-03-27T12:44:47Z</time>
      </trkpt>
      <trkpt lat="46.05441" lon="6.36421">
        <ele>526.6</ele>
        <time>2021-03-27T12:44:48Z</time>
      </trkpt>
      <trkpt lat="46.05441" lon="6.36416">
        <ele>526.6</ele>
        <time>2021-03-27T12:44:49Z</time>
      </trkpt>
      <trkpt lat="46.05441" lon="6.36412">
        <ele>526.8</ele>
        <time>2021-03-27T12:44:50Z</time>
      </trkpt>
      <trkpt lat="46.05441" lon="6.36407">
        <ele>527.2</ele>
        <time>2021-03-27T12:44:51Z</time>
      </trkpt>
      <trkpt lat="46.05441" lon="6.36402">
        <ele>527.2</ele>
        <time>2021-03-27T12:44:52Z</time>
      </trkpt>
      <trkpt lat="46.05441" lon="6.36397">
        <ele>527.4</ele>
        <time>2021-03-27T12:44:53Z</time>
      </trkpt>
      <trkpt lat="46.05441" lon="6.36392">
        <ele>527.4</ele>
        <time>2021-03-27T12:44:54Z</time>
      </trkpt>
      <trkpt lat="46.05441" lon="6.36387">
        <ele>527.6</ele>
        <time>2021-03-27T12:44:55Z</time>
      </trkpt>
      <trkpt lat="46.05441" lon="6.36382">
        <ele>527.8</ele>
        <time>2021-03-27T12:44:56Z</time>
      </trkpt>
      <trkpt lat="46.0544" lon="6.36377">
        <ele>528</ele>
        <time>2021-03-27T12:44:57Z</time>
      </trkpt>
      <trkpt lat="46.0544" lon="6.36372">
        <ele>528.4</ele>
        <time>2021-03-27T12:44:58Z</time>
      </trkpt>
      <trkpt lat="46.05441" lon="6.36367">
        <ele>528.8</ele>
        <time>2021-03-27T12:44:59Z</time>
      </trkpt>
      <trkpt lat="46.0544" lon="6.36362">
        <ele>529</ele>
        <time>2021-03-27T12:45:00Z</time>
      </trkpt>
      <trkpt lat="46.0544" lon="6.36357">
        <ele>529</ele>
        <time>2021-03-27T12:45:01Z</time>
      </trkpt>
      <trkpt lat="46.0544" lon="6.36352">
        <ele>529.4</ele>
        <time>2021-03-27T12:45:02Z</time>
      </trkpt>
      <trkpt lat="46.05441" lon="6.36347">
        <ele>529.6</ele>
        <time>2021-03-27T12:45:03Z</time>
      </trkpt>
      <trkpt lat="46.05441" lon="6.36342">
        <ele>529.8</ele>
        <time>2021-03-27T12:45:04Z</time>
      </trkpt>
      <trkpt lat="46.05441" lon="6.36337">
        <ele>529.8</ele>
        <time>2021-03-27T12:45:05Z</time>
      </trkpt>
      <trkpt lat="46.05442" lon="6.36332">
        <ele>530</ele>
        <time>2021-03-27T12:45:06Z</time>
      </trkpt>
      <trkpt lat="46.05442" lon="6.36327">
        <ele>530.4</ele>
        <time>2021-03-27T12:45:07Z</time>
      </trkpt>
      <trkpt lat="46.05443" lon="6.36322">
        <ele>530.6</ele>
        <time>2021-03-27T12:45:08Z</time>
      </trkpt>
      <trkpt lat="46.05443" lon="6.36317">
        <ele>530.8</ele>
        <time>2021-03-27T12:45:09Z</time>
      </trkpt>
      <trkpt lat="46.05444" lon="6.36313">
        <ele>531</ele>
        <time>2021-03-27T12:45:10Z</time>
      </trkpt>
      <trkpt lat="46.05444" lon="6.36308">
        <ele>531.4</ele>
        <time>2021-03-27T12:45:11Z</time>
      </trkpt>
      <trkpt lat="46.05445" lon="6.36304">
        <ele>531.4</ele>
        <time>2021-03-27T12:45:12Z</time>
      </trkpt>
      <trkpt lat="46.05445" lon="6.36299">
        <ele>532</ele>
        <time>2021-03-27T12:45:13Z</time>
      </trkpt>
      <trkpt lat="46.05446" lon="6.36295">
        <ele>532.2</ele>
        <time>2021-03-27T12:45:14Z</time>
      </trkpt>
      <trkpt lat="46.05446" lon="6.3629">
        <ele>532.6</ele>
        <time>2021-03-27T12:45:15Z</time>
      </trkpt>
      <trkpt lat="46.05446" lon="6.36285">
        <ele>532.8</ele>
        <time>2021-03-27T12:45:16Z</time>
      </trkpt>
      <trkpt lat="46.05445" lon="6.36281">
        <ele>533</ele>
        <time>2021-03-27T12:45:17Z</time>
      </trkpt>
      <trkpt lat="46.05445" lon="6.36276">
        <ele>533</ele>
        <time>2021-03-27T12:45:18Z</time>
      </trkpt>
      <trkpt lat="46.05443" lon="6.36272">
        <ele>533.4</ele>
        <time>2021-03-27T12:45:19Z</time>
      </trkpt>
      <trkpt lat="46.05441" lon="6.36268">
        <ele>533.4</ele>
        <time>2021-03-27T12:45:20Z</time>
      </trkpt>
      <trkpt lat="46.05439" lon="6.36264">
        <ele>533.6</ele>
        <time>2021-03-27T12:45:21Z</time>
      </trkpt>
      <trkpt lat="46.05437" lon="6.36261">
        <ele>533.6</ele>
        <time>2021-03-27T12:45:22Z</time>
      </trkpt>
      <trkpt lat="46.05434" lon="6.36258">
        <ele>534</ele>
        <time>2021-03-27T12:45:23Z</time>
      </trkpt>
      <trkpt lat="46.05431" lon="6.36255">
        <ele>534.2</ele>
        <time>2021-03-27T12:45:24Z</time>
      </trkpt>
      <trkpt lat="46.05428" lon="6.36253">
        <ele>534.6</ele>
        <time>2021-03-27T12:45:25Z</time>
      </trkpt>
      <trkpt lat="46.05425" lon="6.3625">
        <ele>535</ele>
        <time>2021-03-27T12:45:26Z</time>
      </trkpt>
      <trkpt lat="46.05422" lon="6.36249">
        <ele>535.2</ele>
        <time>2021-03-27T12:45:27Z</time>
      </trkpt>
      <trkpt lat="46.05419" lon="6.36248">
        <ele>535.4</ele>
        <time>2021-03-27T12:45:28Z</time>
      </trkpt>
      <trkpt lat="46.05415" lon="6.36248">
        <ele>535.6</ele>
        <time>2021-03-27T12:45:29Z</time>
      </trkpt>
      <trkpt lat="46.05408" lon="6.36249">
        <ele>536</ele>
        <time>2021-03-27T12:45:31Z</time>
      </trkpt>
      <trkpt lat="46.05405" lon="6.3625">
        <ele>536.2</ele>
        <time>2021-03-27T12:45:32Z</time>
      </trkpt>
      <trkpt lat="46.05399" lon="6.36253">
        <ele>536.8</ele>
        <time>2021-03-27T12:45:34Z</time>
      </trkpt>
      <trkpt lat="46.05396" lon="6.36256">
        <ele>537</ele>
        <time>2021-03-27T12:45:35Z</time>
      </trkpt>
      <trkpt lat="46.05392" lon="6.36263">
        <ele>537.4</ele>
        <time>2021-03-27T12:45:37Z</time>
      </trkpt>
      <trkpt lat="46.0539" lon="6.36267">
        <ele>537.8</ele>
        <time>2021-03-27T12:45:38Z</time>
      </trkpt>
      <trkpt lat="46.05389" lon="6.36272">
        <ele>538</ele>
        <time>2021-03-27T12:45:39Z</time>
      </trkpt>
      <trkpt lat="46.05387" lon="6.36276">
        <ele>538.2</ele>
        <time>2021-03-27T12:45:40Z</time>
      </trkpt>
      <trkpt lat="46.05386" lon="6.36281">
        <ele>538.4</ele>
        <time>2021-03-27T12:45:41Z</time>
      </trkpt>
      <trkpt lat="46.05385" lon="6.36285">
        <ele>538.8</ele>
        <time>2021-03-27T12:45:42Z</time>
      </trkpt>
      <trkpt lat="46.05384" lon="6.3629">
        <ele>539</ele>
        <time>2021-03-27T12:45:43Z</time>
      </trkpt>
      <trkpt lat="46.05383" lon="6.36295">
        <ele>539.2</ele>
        <time>2021-03-27T12:45:44Z</time>
      </trkpt>
      <trkpt lat="46.05382" lon="6.363">
        <ele>539.4</ele>
        <time>2021-03-27T12:45:45Z</time>
      </trkpt>
      <trkpt lat="46.05382" lon="6.36305">
        <ele>539.8</ele>
        <time>2021-03-27T12:45:46Z</time>
      </trkpt>
      <trkpt lat="46.05381" lon="6.3631">
        <ele>540</ele>
        <time>2021-03-27T12:45:47Z</time>
      </trkpt>
      <trkpt lat="46.0538" lon="6.36315">
        <ele>540.2</ele>
        <time>2021-03-27T12:45:48Z</time>
      </trkpt>
      <trkpt lat="46.0538" lon="6.3632">
        <ele>540.6</ele>
        <time>2021-03-27T12:45:49Z</time>
      </trkpt>
      <trkpt lat="46.05379" lon="6.36325">
        <ele>541</ele>
        <time>2021-03-27T12:45:50Z</time>
      </trkpt>
      <trkpt lat="46.05379" lon="6.3633">
        <ele>541.2</ele>
        <time>2021-03-27T12:45:51Z</time>
      </trkpt>
      <trkpt lat="46.05379" lon="6.36336">
        <ele>541.4</ele>
        <time>2021-03-27T12:45:52Z</time>
      </trkpt>
      <trkpt lat="46.05378" lon="6.36341">
        <ele>541.6</ele>
        <time>2021-03-27T12:45:53Z</time>
      </trkpt>
      <trkpt lat="46.05378" lon="6.36347">
        <ele>541.8</ele>
        <time>2021-03-27T12:45:54Z</time>
      </trkpt>
      <trkpt lat="46.05377" lon="6.36352">
        <ele>542</ele>
        <time>2021-03-27T12:45:55Z</time>
      </trkpt>
      <trkpt lat="46.05377" lon="6.36357">
        <ele>542.2</ele>
        <time>2021-03-27T12:45:56Z</time>
      </trkpt>
      <trkpt lat="46.05377" lon="6.36363">
        <ele>542.4</ele>
        <time>2021-03-27T12:45:57Z</time>
      </trkpt>
      <trkpt lat="46.05377" lon="6.36368">
        <ele>542.6</ele>
        <time>2021-03-27T12:45:58Z</time>
      </trkpt>
      <trkpt lat="46.05377" lon="6.36373">
        <ele>543</ele>
        <time>2021-03-27T12:45:59Z</time>
      </trkpt>
      <trkpt lat="46.05377" lon="6.36379">
        <ele>543.2</ele>
        <time>2021-03-27T12:46:00Z</time>
      </trkpt>
      <trkpt lat="46.05378" lon="6.36384">
        <ele>543.2</ele>
        <time>2021-03-27T12:46:01Z</time>
      </trkpt>
      <trkpt lat="46.05378" lon="6.36389">
        <ele>543.4</ele>
        <time>2021-03-27T12:46:02Z</time>
      </trkpt>
      <trkpt lat="46.05377" lon="6.36394">
        <ele>543.4</ele>
        <time>2021-03-27T12:46:03Z</time>
      </trkpt>
      <trkpt lat="46.05378" lon="6.364">
        <ele>543.8</ele>
        <time>2021-03-27T12:46:04Z</time>
      </trkpt>
      <trkpt lat="46.05378" lon="6.36405">
        <ele>544</ele>
        <time>2021-03-27T12:46:05Z</time>
      </trkpt>
      <trkpt lat="46.05377" lon="6.36411">
        <ele>544</ele>
        <time>2021-03-27T12:46:06Z</time>
      </trkpt>
      <trkpt lat="46.05377" lon="6.36416">
        <ele>544.4</ele>
        <time>2021-03-27T12:46:07Z</time>
      </trkpt>
      <trkpt lat="46.05376" lon="6.36421">
        <ele>544.6</ele>
        <time>2021-03-27T12:46:08Z</time>
      </trkpt>
      <trkpt lat="46.05376" lon="6.36426">
        <ele>544.8</ele>
        <time>2021-03-27T12:46:09Z</time>
      </trkpt>
      <trkpt lat="46.05376" lon="6.3643">
        <ele>545</ele>
        <time>2021-03-27T12:46:10Z</time>
      </trkpt>
      <trkpt lat="46.05375" lon="6.36435">
        <ele>545.2</ele>
        <time>2021-03-27T12:46:11Z</time>
      </trkpt>
      <trkpt lat="46.05374" lon="6.3644">
        <ele>545.4</ele>
        <time>2021-03-27T12:46:12Z</time>
      </trkpt>
      <trkpt lat="46.05374" lon="6.36446">
        <ele>545.8</ele>
        <time>2021-03-27T12:46:13Z</time>
      </trkpt>
      <trkpt lat="46.05374" lon="6.36451">
        <ele>546</ele>
        <time>2021-03-27T12:46:14Z</time>
      </trkpt>
      <trkpt lat="46.05373" lon="6.36456">
        <ele>546</ele>
        <time>2021-03-27T12:46:15Z</time>
      </trkpt>
      <trkpt lat="46.05372" lon="6.36462">
        <ele>546.4</ele>
        <time>2021-03-27T12:46:16Z</time>
      </trkpt>
      <trkpt lat="46.05371" lon="6.36467">
        <ele>546.6</ele>
        <time>2021-03-27T12:46:17Z</time>
      </trkpt>
      <trkpt lat="46.0537" lon="6.36471">
        <ele>546.8</ele>
        <time>2021-03-27T12:46:18Z</time>
      </trkpt>
      <trkpt lat="46.05369" lon="6.36475">
        <ele>547</ele>
        <time>2021-03-27T12:46:19Z</time>
      </trkpt>
      <trkpt lat="46.05368" lon="6.36479">
        <ele>547</ele>
        <time>2021-03-27T12:46:20Z</time>
      </trkpt>
      <trkpt lat="46.05367" lon="6.36484">
        <ele>547.2</ele>
        <time>2021-03-27T12:46:21Z</time>
      </trkpt>
      <trkpt lat="46.05366" lon="6.36488">
        <ele>547.6</ele>
        <time>2021-03-27T12:46:22Z</time>
      </trkpt>
      <trkpt lat="46.05365" lon="6.36493">
        <ele>547.8</ele>
        <time>2021-03-27T12:46:23Z</time>
      </trkpt>
      <trkpt lat="46.05364" lon="6.36498">
        <ele>548</ele>
        <time>2021-03-27T12:46:24Z</time>
      </trkpt>
      <trkpt lat="46.05363" lon="6.36503">
        <ele>548.2</ele>
        <time>2021-03-27T12:46:25Z</time>
      </trkpt>
      <trkpt lat="46.05362" lon="6.36508">
        <ele>548.2</ele>
        <time>2021-03-27T12:46:26Z</time>
      </trkpt>
      <trkpt lat="46.0536" lon="6.36513">
        <ele>548.4</ele>
        <time>2021-03-27T12:46:27Z</time>
      </trkpt>
      <trkpt lat="46.05359" lon="6.36517">
        <ele>548.8</ele>
        <time>2021-03-27T12:46:28Z</time>
      </trkpt>
      <trkpt lat="46.05358" lon="6.36521">
        <ele>549</ele>
        <time>2021-03-27T12:46:29Z</time>
      </trkpt>
      <trkpt lat="46.05356" lon="6.36525">
        <ele>549.2</ele>
        <time>2021-03-27T12:46:30Z</time>
      </trkpt>
      <trkpt lat="46.05355" lon="6.36529">
        <ele>549.6</ele>
        <time>2021-03-27T12:46:31Z</time>
      </trkpt>
      <trkpt lat="46.05354" lon="6.36532">
        <ele>549.6</ele>
        <time>2021-03-27T12:46:32Z</time>
      </trkpt>
      <trkpt lat="46.05353" lon="6.36536">
        <ele>549.6</ele>
        <time>2021-03-27T12:46:33Z</time>
      </trkpt>
      <trkpt lat="46.05352" lon="6.36539">
        <ele>549.6</ele>
        <time>2021-03-27T12:46:34Z</time>
      </trkpt>
      <trkpt lat="46.05351" lon="6.36543">
        <ele>549.8</ele>
        <time>2021-03-27T12:46:35Z</time>
      </trkpt>
      <trkpt lat="46.0535" lon="6.36547">
        <ele>550.2</ele>
        <time>2021-03-27T12:46:36Z</time>
      </trkpt>
      <trkpt lat="46.05348" lon="6.3655">
        <ele>550.4</ele>
        <time>2021-03-27T12:46:37Z</time>
      </trkpt>
      <trkpt lat="46.05347" lon="6.36554">
        <ele>550.4</ele>
        <time>2021-03-27T12:46:38Z</time>
      </trkpt>
      <trkpt lat="46.05346" lon="6.36558">
        <ele>550.6</ele>
        <time>2021-03-27T12:46:39Z</time>
      </trkpt>
      <trkpt lat="46.05344" lon="6.36563">
        <ele>551</ele>
        <time>2021-03-27T12:46:40Z</time>
      </trkpt>
      <trkpt lat="46.05342" lon="6.36568">
        <ele>551.4</ele>
        <time>2021-03-27T12:46:41Z</time>
      </trkpt>
      <trkpt lat="46.0534" lon="6.36573">
        <ele>551.6</ele>
        <time>2021-03-27T12:46:42Z</time>
      </trkpt>
      <trkpt lat="46.05339" lon="6.36578">
        <ele>551.8</ele>
        <time>2021-03-27T12:46:43Z</time>
      </trkpt>
      <trkpt lat="46.05337" lon="6.36583">
        <ele>552</ele>
        <time>2021-03-27T12:46:44Z</time>
      </trkpt>
      <trkpt lat="46.05336" lon="6.36588">
        <ele>552.2</ele>
        <time>2021-03-27T12:46:45Z</time>
      </trkpt>
      <trkpt lat="46.05334" lon="6.36594">
        <ele>552.4</ele>
        <time>2021-03-27T12:46:46Z</time>
      </trkpt>
      <trkpt lat="46.05333" lon="6.366">
        <ele>552.4</ele>
        <time>2021-03-27T12:46:47Z</time>
      </trkpt>
      <trkpt lat="46.05332" lon="6.36605">
        <ele>552.8</ele>
        <time>2021-03-27T12:46:48Z</time>
      </trkpt>
      <trkpt lat="46.0533" lon="6.3661">
        <ele>553</ele>
        <time>2021-03-27T12:46:49Z</time>
      </trkpt>
      <trkpt lat="46.05329" lon="6.36616">
        <ele>553.2</ele>
        <time>2021-03-27T12:46:50Z</time>
      </trkpt>
      <trkpt lat="46.05327" lon="6.36621">
        <ele>553.4</ele>
        <time>2021-03-27T12:46:51Z</time>
      </trkpt>
      <trkpt lat="46.05326" lon="6.36626">
        <ele>553.6</ele>
        <time>2021-03-27T12:46:52Z</time>
      </trkpt>
      <trkpt lat="46.05324" lon="6.36631">
        <ele>553.8</ele>
        <time>2021-03-27T12:46:53Z</time>
      </trkpt>
      <trkpt lat="46.05322" lon="6.36636">
        <ele>554</ele>
        <time>2021-03-27T12:46:54Z</time>
      </trkpt>
      <trkpt lat="46.05321" lon="6.36642">
        <ele>554.2</ele>
        <time>2021-03-27T12:46:55Z</time>
      </trkpt>
      <trkpt lat="46.05319" lon="6.36647">
        <ele>554.6</ele>
        <time>2021-03-27T12:46:56Z</time>
      </trkpt>
      <trkpt lat="46.05318" lon="6.36652">
        <ele>554.8</ele>
        <time>2021-03-27T12:46:57Z</time>
      </trkpt>
      <trkpt lat="46.05316" lon="6.36657">
        <ele>555</ele>
        <time>2021-03-27T12:46:58Z</time>
      </trkpt>
      <trkpt lat="46.05314" lon="6.36662">
        <ele>555.2</ele>
        <time>2021-03-27T12:46:59Z</time>
      </trkpt>
      <trkpt lat="46.05313" lon="6.36666">
        <ele>555.4</ele>
        <time>2021-03-27T12:47:00Z</time>
      </trkpt>
      <trkpt lat="46.05312" lon="6.36671">
        <ele>555.8</ele>
        <time>2021-03-27T12:47:01Z</time>
      </trkpt>
      <trkpt lat="46.0531" lon="6.36676">
        <ele>555.8</ele>
        <time>2021-03-27T12:47:02Z</time>
      </trkpt>
      <trkpt lat="46.05309" lon="6.36681">
        <ele>556.2</ele>
        <time>2021-03-27T12:47:03Z</time>
      </trkpt>
      <trkpt lat="46.05308" lon="6.36685">
        <ele>556.4</ele>
        <time>2021-03-27T12:47:04Z</time>
      </trkpt>
      <trkpt lat="46.05306" lon="6.3669">
        <ele>556.6</ele>
        <time>2021-03-27T12:47:05Z</time>
      </trkpt>
      <trkpt lat="46.05305" lon="6.36694">
        <ele>556.8</ele>
        <time>2021-03-27T12:47:06Z</time>
      </trkpt>
      <trkpt lat="46.05303" lon="6.36699">
        <ele>556.8</ele>
        <time>2021-03-27T12:47:07Z</time>
      </trkpt>
      <trkpt lat="46.05301" lon="6.36703">
        <ele>557.2</ele>
        <time>2021-03-27T12:47:08Z</time>
      </trkpt>
      <trkpt lat="46.05299" lon="6.36707">
        <ele>557</ele>
        <time>2021-03-27T12:47:09Z</time>
      </trkpt>
      <trkpt lat="46.05298" lon="6.36712">
        <ele>557.2</ele>
        <time>2021-03-27T12:47:10Z</time>
      </trkpt>
      <trkpt lat="46.05296" lon="6.36717">
        <ele>557.6</ele>
        <time>2021-03-27T12:47:11Z</time>
      </trkpt>
      <trkpt lat="46.05294" lon="6.36722">
        <ele>557.6</ele>
        <time>2021-03-27T12:47:12Z</time>
      </trkpt>
      <trkpt lat="46.05292" lon="6.36726">
        <ele>557.8</ele>
        <time>2021-03-27T12:47:13Z</time>
      </trkpt>
      <trkpt lat="46.05291" lon="6.36731">
        <ele>558.2</ele>
        <time>2021-03-27T12:47:14Z</time>
      </trkpt>
      <trkpt lat="46.05289" lon="6.36735">
        <ele>558.4</ele>
        <time>2021-03-27T12:47:15Z</time>
      </trkpt>
      <trkpt lat="46.05288" lon="6.3674">
        <ele>558.8</ele>
        <time>2021-03-27T12:47:16Z</time>
      </trkpt>
      <trkpt lat="46.05287" lon="6.36745">
        <ele>559</ele>
        <time>2021-03-27T12:47:17Z</time>
      </trkpt>
      <trkpt lat="46.05285" lon="6.3675">
        <ele>559.2</ele>
        <time>2021-03-27T12:47:18Z</time>
      </trkpt>
      <trkpt lat="46.05284" lon="6.36754">
        <ele>559.4</ele>
        <time>2021-03-27T12:47:19Z</time>
      </trkpt>
      <trkpt lat="46.05283" lon="6.36758">
        <ele>559.6</ele>
        <time>2021-03-27T12:47:20Z</time>
      </trkpt>
      <trkpt lat="46.05282" lon="6.36763">
        <ele>559.8</ele>
        <time>2021-03-27T12:47:21Z</time>
      </trkpt>
      <trkpt lat="46.05281" lon="6.36767">
        <ele>560</ele>
        <time>2021-03-27T12:47:22Z</time>
      </trkpt>
      <trkpt lat="46.05281" lon="6.36772">
        <ele>560</ele>
        <time>2021-03-27T12:47:23Z</time>
      </trkpt>
      <trkpt lat="46.0528" lon="6.36776">
        <ele>560.4</ele>
        <time>2021-03-27T12:47:24Z</time>
      </trkpt>
      <trkpt lat="46.0528" lon="6.3678">
        <ele>560.4</ele>
        <time>2021-03-27T12:47:25Z</time>
      </trkpt>
      <trkpt lat="46.05279" lon="6.36784">
        <ele>560.8</ele>
        <time>2021-03-27T12:47:26Z</time>
      </trkpt>
      <trkpt lat="46.05279" lon="6.36788">
        <ele>560.8</ele>
        <time>2021-03-27T12:47:27Z</time>
      </trkpt>
      <trkpt lat="46.05279" lon="6.36791">
        <ele>561</ele>
        <time>2021-03-27T12:47:28Z</time>
      </trkpt>
      <trkpt lat="46.05279" lon="6.36796">
        <ele>561.4</ele>
        <time>2021-03-27T12:47:29Z</time>
      </trkpt>
      <trkpt lat="46.05279" lon="6.36799">
        <ele>561.6</ele>
        <time>2021-03-27T12:47:30Z</time>
      </trkpt>
      <trkpt lat="46.05279" lon="6.36804">
        <ele>561.8</ele>
        <time>2021-03-27T12:47:31Z</time>
      </trkpt>
      <trkpt lat="46.05278" lon="6.36809">
        <ele>562</ele>
        <time>2021-03-27T12:47:32Z</time>
      </trkpt>
      <trkpt lat="46.05277" lon="6.36813">
        <ele>562.2</ele>
        <time>2021-03-27T12:47:33Z</time>
      </trkpt>
      <trkpt lat="46.05277" lon="6.36818">
        <ele>562.4</ele>
        <time>2021-03-27T12:47:34Z</time>
      </trkpt>
      <trkpt lat="46.05276" lon="6.36822">
        <ele>562.8</ele>
        <time>2021-03-27T12:47:35Z</time>
      </trkpt>
      <trkpt lat="46.05276" lon="6.36827">
        <ele>563</ele>
        <time>2021-03-27T12:47:36Z</time>
      </trkpt>
      <trkpt lat="46.05275" lon="6.36831">
        <ele>563.2</ele>
        <time>2021-03-27T12:47:37Z</time>
      </trkpt>
      <trkpt lat="46.05274" lon="6.36836">
        <ele>563.4</ele>
        <time>2021-03-27T12:47:38Z</time>
      </trkpt>
      <trkpt lat="46.05273" lon="6.3684">
        <ele>563.6</ele>
        <time>2021-03-27T12:47:39Z</time>
      </trkpt>
      <trkpt lat="46.05271" lon="6.36845">
        <ele>563.6</ele>
        <time>2021-03-27T12:47:40Z</time>
      </trkpt>
      <trkpt lat="46.0527" lon="6.36849">
        <ele>564</ele>
        <time>2021-03-27T12:47:41Z</time>
      </trkpt>
      <trkpt lat="46.05269" lon="6.36853">
        <ele>564.2</ele>
        <time>2021-03-27T12:47:42Z</time>
      </trkpt>
      <trkpt lat="46.05267" lon="6.36858">
        <ele>564.6</ele>
        <time>2021-03-27T12:47:43Z</time>
      </trkpt>
      <trkpt lat="46.05266" lon="6.36861">
        <ele>564.8</ele>
        <time>2021-03-27T12:47:44Z</time>
      </trkpt>
      <trkpt lat="46.05264" lon="6.36865">
        <ele>565</ele>
        <time>2021-03-27T12:47:45Z</time>
      </trkpt>
      <trkpt lat="46.05262" lon="6.36869">
        <ele>565.2</ele>
        <time>2021-03-27T12:47:46Z</time>
      </trkpt>
      <trkpt lat="46.0526" lon="6.36873">
        <ele>565.4</ele>
        <time>2021-03-27T12:47:47Z</time>
      </trkpt>
      <trkpt lat="46.05258" lon="6.36878">
        <ele>565.4</ele>
        <time>2021-03-27T12:47:48Z</time>
      </trkpt>
      <trkpt lat="46.05255" lon="6.36882">
        <ele>565.8</ele>
        <time>2021-03-27T12:47:49Z</time>
      </trkpt>
      <trkpt lat="46.05252" lon="6.36886">
        <ele>566</ele>
        <time>2021-03-27T12:47:50Z</time>
      </trkpt>
      <trkpt lat="46.0525" lon="6.36891">
        <ele>566.4</ele>
        <time>2021-03-27T12:47:51Z</time>
      </trkpt>
      <trkpt lat="46.05247" lon="6.36895">
        <ele>566.8</ele>
        <time>2021-03-27T12:47:52Z</time>
      </trkpt>
      <trkpt lat="46.05245" lon="6.36899">
        <ele>566.8</ele>
        <time>2021-03-27T12:47:53Z</time>
      </trkpt>
      <trkpt lat="46.05242" lon="6.36902">
        <ele>566.8</ele>
        <time>2021-03-27T12:47:54Z</time>
      </trkpt>
      <trkpt lat="46.05239" lon="6.36906">
        <ele>567.2</ele>
        <time>2021-03-27T12:47:55Z</time>
      </trkpt>
      <trkpt lat="46.05236" lon="6.3691">
        <ele>567.4</ele>
        <time>2021-03-27T12:47:56Z</time>
      </trkpt>
      <trkpt lat="46.05233" lon="6.36914">
        <ele>567.8</ele>
        <time>2021-03-27T12:47:57Z</time>
      </trkpt>
      <trkpt lat="46.05231" lon="6.36918">
        <ele>568</ele>
        <time>2021-03-27T12:47:58Z</time>
      </trkpt>
      <trkpt lat="46.05228" lon="6.36921">
        <ele>568.4</ele>
        <time>2021-03-27T12:47:59Z</time>
      </trkpt>
      <trkpt lat="46.05226" lon="6.36925">
        <ele>568.6</ele>
        <time>2021-03-27T12:48:00Z</time>
      </trkpt>
      <trkpt lat="46.05223" lon="6.36928">
        <ele>568.6</ele>
        <time>2021-03-27T12:48:01Z</time>
      </trkpt>
      <trkpt lat="46.05221" lon="6.36932">
        <ele>568.8</ele>
        <time>2021-03-27T12:48:02Z</time>
      </trkpt>
      <trkpt lat="46.05218" lon="6.36936">
        <ele>569</ele>
        <time>2021-03-27T12:48:03Z</time>
      </trkpt>
      <trkpt lat="46.05216" lon="6.36939">
        <ele>569.2</ele>
        <time>2021-03-27T12:48:04Z</time>
      </trkpt>
      <trkpt lat="46.05214" lon="6.36943">
        <ele>569.4</ele>
        <time>2021-03-27T12:48:05Z</time>
      </trkpt>
      <trkpt lat="46.05211" lon="6.36947">
        <ele>569.6</ele>
        <time>2021-03-27T12:48:06Z</time>
      </trkpt>
      <trkpt lat="46.05209" lon="6.3695">
        <ele>569.6</ele>
        <time>2021-03-27T12:48:07Z</time>
      </trkpt>
      <trkpt lat="46.05206" lon="6.36954">
        <ele>570</ele>
        <time>2021-03-27T12:48:08Z</time>
      </trkpt>
      <trkpt lat="46.05204" lon="6.36958">
        <ele>570.2</ele>
        <time>2021-03-27T12:48:09Z</time>
      </trkpt>
      <trkpt lat="46.05201" lon="6.36962">
        <ele>570.4</ele>
        <time>2021-03-27T12:48:10Z</time>
      </trkpt>
      <trkpt lat="46.05199" lon="6.36966">
        <ele>570.8</ele>
        <time>2021-03-27T12:48:11Z</time>
      </trkpt>
      <trkpt lat="46.05197" lon="6.36969">
        <ele>570.8</ele>
        <time>2021-03-27T12:48:12Z</time>
      </trkpt>
      <trkpt lat="46.05194" lon="6.36973">
        <ele>571.2</ele>
        <time>2021-03-27T12:48:13Z</time>
      </trkpt>
      <trkpt lat="46.05192" lon="6.36976">
        <ele>571.4</ele>
        <time>2021-03-27T12:48:14Z</time>
      </trkpt>
      <trkpt lat="46.0519" lon="6.3698">
        <ele>571.6</ele>
        <time>2021-03-27T12:48:15Z</time>
      </trkpt>
      <trkpt lat="46.05188" lon="6.36983">
        <ele>571.8</ele>
        <time>2021-03-27T12:48:16Z</time>
      </trkpt>
      <trkpt lat="46.05186" lon="6.36987">
        <ele>572</ele>
        <time>2021-03-27T12:48:17Z</time>
      </trkpt>
      <trkpt lat="46.05183" lon="6.3699">
        <ele>572.4</ele>
        <time>2021-03-27T12:48:18Z</time>
      </trkpt>
      <trkpt lat="46.05181" lon="6.36994">
        <ele>572.4</ele>
        <time>2021-03-27T12:48:19Z</time>
      </trkpt>
      <trkpt lat="46.05179" lon="6.36998">
        <ele>572.6</ele>
        <time>2021-03-27T12:48:20Z</time>
      </trkpt>
      <trkpt lat="46.05177" lon="6.37002">
        <ele>572.6</ele>
        <time>2021-03-27T12:48:21Z</time>
      </trkpt>
      <trkpt lat="46.05176" lon="6.37006">
        <ele>573.2</ele>
        <time>2021-03-27T12:48:22Z</time>
      </trkpt>
      <trkpt lat="46.05174" lon="6.3701">
        <ele>573.4</ele>
        <time>2021-03-27T12:48:23Z</time>
      </trkpt>
      <trkpt lat="46.05172" lon="6.37014">
        <ele>573.4</ele>
        <time>2021-03-27T12:48:24Z</time>
      </trkpt>
      <trkpt lat="46.05171" lon="6.37018">
        <ele>573.8</ele>
        <time>2021-03-27T12:48:25Z</time>
      </trkpt>
      <trkpt lat="46.0517" lon="6.37022">
        <ele>573.8</ele>
        <time>2021-03-27T12:48:26Z</time>
      </trkpt>
      <trkpt lat="46.0517" lon="6.37027">
        <ele>574.2</ele>
        <time>2021-03-27T12:48:27Z</time>
      </trkpt>
      <trkpt lat="46.05169" lon="6.37031">
        <ele>574.6</ele>
        <time>2021-03-27T12:48:28Z</time>
      </trkpt>
      <trkpt lat="46.05167" lon="6.37041">
        <ele>575.2</ele>
        <time>2021-03-27T12:48:30Z</time>
      </trkpt>
      <trkpt lat="46.05166" lon="6.37046">
        <ele>575.6</ele>
        <time>2021-03-27T12:48:31Z</time>
      </trkpt>
      <trkpt lat="46.05165" lon="6.37057">
        <ele>576</ele>
        <time>2021-03-27T12:48:33Z</time>
      </trkpt>
      <trkpt lat="46.05164" lon="6.37063">
        <ele>576.4</ele>
        <time>2021-03-27T12:48:34Z</time>
      </trkpt>
      <trkpt lat="46.05163" lon="6.37073">
        <ele>577.2</ele>
        <time>2021-03-27T12:48:36Z</time>
      </trkpt>
      <trkpt lat="46.05162" lon="6.37079">
        <ele>577.2</ele>
        <time>2021-03-27T12:48:37Z</time>
      </trkpt>
      <trkpt lat="46.05162" lon="6.37084">
        <ele>577.2</ele>
        <time>2021-03-27T12:48:38Z</time>
      </trkpt>
      <trkpt lat="46.05161" lon="6.37089">
        <ele>577.6</ele>
        <time>2021-03-27T12:48:39Z</time>
      </trkpt>
      <trkpt lat="46.05161" lon="6.37094">
        <ele>577.6</ele>
        <time>2021-03-27T12:48:40Z</time>
      </trkpt>
      <trkpt lat="46.0516" lon="6.37105">
        <ele>578</ele>
        <time>2021-03-27T12:48:42Z</time>
      </trkpt>
      <trkpt lat="46.05159" lon="6.3711">
        <ele>578</ele>
        <time>2021-03-27T12:48:43Z</time>
      </trkpt>
      <trkpt lat="46.05159" lon="6.37116">
        <ele>578.2</ele>
        <time>2021-03-27T12:48:44Z</time>
      </trkpt>
      <trkpt lat="46.05158" lon="6.37121">
        <ele>578.2</ele>
        <time>2021-03-27T12:48:45Z</time>
      </trkpt>
      <trkpt lat="46.05158" lon="6.37127">
        <ele>578.6</ele>
        <time>2021-03-27T12:48:46Z</time>
      </trkpt>
      <trkpt lat="46.05158" lon="6.37138">
        <ele>578.8</ele>
        <time>2021-03-27T12:48:48Z</time>
      </trkpt>
      <trkpt lat="46.05158" lon="6.37143">
        <ele>579</ele>
        <time>2021-03-27T12:48:49Z</time>
      </trkpt>
      <trkpt lat="46.05159" lon="6.37149">
        <ele>579.2</ele>
        <time>2021-03-27T12:48:50Z</time>
      </trkpt>
      <trkpt lat="46.05158" lon="6.37154">
        <ele>579.4</ele>
        <time>2021-03-27T12:48:51Z</time>
      </trkpt>
      <trkpt lat="46.05157" lon="6.37159">
        <ele>579.6</ele>
        <time>2021-03-27T12:48:52Z</time>
      </trkpt>
      <trkpt lat="46.05157" lon="6.37169">
        <ele>580</ele>
        <time>2021-03-27T12:48:54Z</time>
      </trkpt>
      <trkpt lat="46.05157" lon="6.37174">
        <ele>580</ele>
        <time>2021-03-27T12:48:55Z</time>
      </trkpt>
      <trkpt lat="46.05157" lon="6.37179">
        <ele>580.2</ele>
        <time>2021-03-27T12:48:56Z</time>
      </trkpt>
      <trkpt lat="46.05157" lon="6.37184">
        <ele>580.4</ele>
        <time>2021-03-27T12:48:57Z</time>
      </trkpt>
      <trkpt lat="46.05157" lon="6.37189">
        <ele>580.6</ele>
        <time>2021-03-27T12:48:58Z</time>
      </trkpt>
      <trkpt lat="46.05158" lon="6.372">
        <ele>580.8</ele>
        <time>2021-03-27T12:49:00Z</time>
      </trkpt>
      <trkpt lat="46.05158" lon="6.37205">
        <ele>581</ele>
        <time>2021-03-27T12:49:01Z</time>
      </trkpt>
      <trkpt lat="46.05158" lon="6.37215">
        <ele>581.4</ele>
        <time>2021-03-27T12:49:03Z</time>
      </trkpt>
      <trkpt lat="46.05157" lon="6.3722">
        <ele>581.6</ele>
        <time>2021-03-27T12:49:04Z</time>
      </trkpt>
      <trkpt lat="46.05156" lon="6.37224">
        <ele>581.8</ele>
        <time>2021-03-27T12:49:05Z</time>
      </trkpt>
      <trkpt lat="46.05155" lon="6.37229">
        <ele>582.2</ele>
        <time>2021-03-27T12:49:06Z</time>
      </trkpt>
      <trkpt lat="46.05154" lon="6.37232">
        <ele>582.4</ele>
        <time>2021-03-27T12:49:07Z</time>
      </trkpt>
      <trkpt lat="46.05149" lon="6.37237">
        <ele>582.8</ele>
        <time>2021-03-27T12:49:09Z</time>
      </trkpt>
      <trkpt lat="46.05145" lon="6.37238">
        <ele>583.2</ele>
        <time>2021-03-27T12:49:10Z</time>
      </trkpt>
      <trkpt lat="46.05137" lon="6.37236">
        <ele>583.8</ele>
        <time>2021-03-27T12:49:13Z</time>
      </trkpt>
      <trkpt lat="46.05134" lon="6.37234">
        <ele>584</ele>
        <time>2021-03-27T12:49:14Z</time>
      </trkpt>
      <trkpt lat="46.05131" lon="6.37231">
        <ele>584.4</ele>
        <time>2021-03-27T12:49:15Z</time>
      </trkpt>
      <trkpt lat="46.05129" lon="6.37228">
        <ele>584.8</ele>
        <time>2021-03-27T12:49:16Z</time>
      </trkpt>
      <trkpt lat="46.05128" lon="6.37224">
        <ele>585</ele>
        <time>2021-03-27T12:49:17Z</time>
      </trkpt>
      <trkpt lat="46.05126" lon="6.3722">
        <ele>585.4</ele>
        <time>2021-03-27T12:49:18Z</time>
      </trkpt>
      <trkpt lat="46.05125" lon="6.37216">
        <ele>585.6</ele>
        <time>2021-03-27T12:49:19Z</time>
      </trkpt>
      <trkpt lat="46.05125" lon="6.37212">
        <ele>585.8</ele>
        <time>2021-03-27T12:49:20Z</time>
      </trkpt>
      <trkpt lat="46.05125" lon="6.37208">
        <ele>586</ele>
        <time>2021-03-27T12:49:21Z</time>
      </trkpt>
      <trkpt lat="46.05125" lon="6.37203">
        <ele>586.2</ele>
        <time>2021-03-27T12:49:22Z</time>
      </trkpt>
      <trkpt lat="46.05125" lon="6.37199">
        <ele>586.6</ele>
        <time>2021-03-27T12:49:23Z</time>
      </trkpt>
      <trkpt lat="46.05125" lon="6.37194">
        <ele>586.8</ele>
        <time>2021-03-27T12:49:24Z</time>
      </trkpt>
      <trkpt lat="46.05125" lon="6.37188">
        <ele>587</ele>
        <time>2021-03-27T12:49:25Z</time>
      </trkpt>
      <trkpt lat="46.05124" lon="6.37183">
        <ele>587.4</ele>
        <time>2021-03-27T12:49:26Z</time>
      </trkpt>
      <trkpt lat="46.05124" lon="6.37178">
        <ele>587.6</ele>
        <time>2021-03-27T12:49:27Z</time>
      </trkpt>
      <trkpt lat="46.05124" lon="6.37173">
        <ele>587.8</ele>
        <time>2021-03-27T12:49:28Z</time>
      </trkpt>
      <trkpt lat="46.05124" lon="6.37168">
        <ele>588.2</ele>
        <time>2021-03-27T12:49:29Z</time>
      </trkpt>
      <trkpt lat="46.05124" lon="6.37163">
        <ele>588.4</ele>
        <time>2021-03-27T12:49:30Z</time>
      </trkpt>
      <trkpt lat="46.05124" lon="6.37158">
        <ele>588.4</ele>
        <time>2021-03-27T12:49:31Z</time>
      </trkpt>
      <trkpt lat="46.05125" lon="6.37153">
        <ele>588.6</ele>
        <time>2021-03-27T12:49:32Z</time>
      </trkpt>
      <trkpt lat="46.05125" lon="6.37147">
        <ele>588.8</ele>
        <time>2021-03-27T12:49:33Z</time>
      </trkpt>
      <trkpt lat="46.05125" lon="6.37142">
        <ele>589</ele>
        <time>2021-03-27T12:49:34Z</time>
      </trkpt>
      <trkpt lat="46.05125" lon="6.37137">
        <ele>589</ele>
        <time>2021-03-27T12:49:35Z</time>
      </trkpt>
      <trkpt lat="46.05126" lon="6.37131">
        <ele>589.4</ele>
        <time>2021-03-27T12:49:36Z</time>
      </trkpt>
      <trkpt lat="46.05126" lon="6.37126">
        <ele>589.6</ele>
        <time>2021-03-27T12:49:37Z</time>
      </trkpt>
      <trkpt lat="46.05126" lon="6.37121">
        <ele>589.8</ele>
        <time>2021-03-27T12:49:38Z</time>
      </trkpt>
      <trkpt lat="46.05126" lon="6.37116">
        <ele>589.8</ele>
        <time>2021-03-27T12:49:39Z</time>
      </trkpt>
      <trkpt lat="46.05126" lon="6.37111">
        <ele>590.2</ele>
        <time>2021-03-27T12:49:40Z</time>
      </trkpt>
      <trkpt lat="46.05126" lon="6.37106">
        <ele>590</ele>
        <time>2021-03-27T12:49:41Z</time>
      </trkpt>
      <trkpt lat="46.05127" lon="6.37101">
        <ele>590.2</ele>
        <time>2021-03-27T12:49:42Z</time>
      </trkpt>
      <trkpt lat="46.05127" lon="6.37095">
        <ele>590.2</ele>
        <time>2021-03-27T12:49:43Z</time>
      </trkpt>
      <trkpt lat="46.05128" lon="6.3709">
        <ele>590.2</ele>
        <time>2021-03-27T12:49:44Z</time>
      </trkpt>
      <trkpt lat="46.05129" lon="6.37085">
        <ele>590.4</ele>
        <time>2021-03-27T12:49:45Z</time>
      </trkpt>
      <trkpt lat="46.05129" lon="6.3708">
        <ele>590.6</ele>
        <time>2021-03-27T12:49:46Z</time>
      </trkpt>
      <trkpt lat="46.0513" lon="6.37075">
        <ele>591</ele>
        <time>2021-03-27T12:49:47Z</time>
      </trkpt>
      <trkpt lat="46.05131" lon="6.3707">
        <ele>591.4</ele>
        <time>2021-03-27T12:49:48Z</time>
      </trkpt>
      <trkpt lat="46.05131" lon="6.37065">
        <ele>591.8</ele>
        <time>2021-03-27T12:49:49Z</time>
      </trkpt>
      <trkpt lat="46.05132" lon="6.3706">
        <ele>592.2</ele>
        <time>2021-03-27T12:49:50Z</time>
      </trkpt>
      <trkpt lat="46.05132" lon="6.37055">
        <ele>592.6</ele>
        <time>2021-03-27T12:49:51Z</time>
      </trkpt>
      <trkpt lat="46.05133" lon="6.3705">
        <ele>592.8</ele>
        <time>2021-03-27T12:49:52Z</time>
      </trkpt>
      <trkpt lat="46.05134" lon="6.37045">
        <ele>593</ele>
        <time>2021-03-27T12:49:53Z</time>
      </trkpt>
      <trkpt lat="46.05135" lon="6.3704">
        <ele>593</ele>
        <time>2021-03-27T12:49:54Z</time>
      </trkpt>
      <trkpt lat="46.05135" lon="6.37036">
        <ele>593.2</ele>
        <time>2021-03-27T12:49:55Z</time>
      </trkpt>
      <trkpt lat="46.05135" lon="6.37031">
        <ele>593.2</ele>
        <time>2021-03-27T12:49:56Z</time>
      </trkpt>
      <trkpt lat="46.05136" lon="6.37027">
        <ele>593.6</ele>
        <time>2021-03-27T12:49:57Z</time>
      </trkpt>
      <trkpt lat="46.05136" lon="6.37022">
        <ele>593.6</ele>
        <time>2021-03-27T12:49:58Z</time>
      </trkpt>
      <trkpt lat="46.05136" lon="6.37018">
        <ele>593.8</ele>
        <time>2021-03-27T12:49:59Z</time>
      </trkpt>
      <trkpt lat="46.05135" lon="6.37013">
        <ele>594</ele>
        <time>2021-03-27T12:50:00Z</time>
      </trkpt>
      <trkpt lat="46.05134" lon="6.37009">
        <ele>594.2</ele>
        <time>2021-03-27T12:50:01Z</time>
      </trkpt>
      <trkpt lat="46.05132" lon="6.37004">
        <ele>594.4</ele>
        <time>2021-03-27T12:50:02Z</time>
      </trkpt>
      <trkpt lat="46.05131" lon="6.36999">
        <ele>594.6</ele>
        <time>2021-03-27T12:50:03Z</time>
      </trkpt>
      <trkpt lat="46.05129" lon="6.36995">
        <ele>595</ele>
        <time>2021-03-27T12:50:04Z</time>
      </trkpt>
      <trkpt lat="46.05127" lon="6.3699">
        <ele>595.2</ele>
        <time>2021-03-27T12:50:05Z</time>
      </trkpt>
      <trkpt lat="46.05126" lon="6.36987">
        <ele>595.2</ele>
        <time>2021-03-27T12:50:06Z</time>
      </trkpt>
      <trkpt lat="46.05125" lon="6.36982">
        <ele>595.4</ele>
        <time>2021-03-27T12:50:07Z</time>
      </trkpt>
      <trkpt lat="46.05123" lon="6.36978">
        <ele>595.6</ele>
        <time>2021-03-27T12:50:08Z</time>
      </trkpt>
      <trkpt lat="46.05122" lon="6.36975">
        <ele>595.8</ele>
        <time>2021-03-27T12:50:09Z</time>
      </trkpt>
      <trkpt lat="46.0512" lon="6.36971">
        <ele>596</ele>
        <time>2021-03-27T12:50:10Z</time>
      </trkpt>
      <trkpt lat="46.0512" lon="6.36967">
        <ele>596.2</ele>
        <time>2021-03-27T12:50:11Z</time>
      </trkpt>
      <trkpt lat="46.05119" lon="6.36963">
        <ele>596.4</ele>
        <time>2021-03-27T12:50:12Z</time>
      </trkpt>
      <trkpt lat="46.05119" lon="6.36959">
        <ele>596.6</ele>
        <time>2021-03-27T12:50:13Z</time>
      </trkpt>
      <trkpt lat="46.0512" lon="6.36954">
        <ele>596.6</ele>
        <time>2021-03-27T12:50:14Z</time>
      </trkpt>
      <trkpt lat="46.05119" lon="6.36949">
        <ele>596.8</ele>
        <time>2021-03-27T12:50:15Z</time>
      </trkpt>
      <trkpt lat="46.05119" lon="6.36944">
        <ele>597</ele>
        <time>2021-03-27T12:50:16Z</time>
      </trkpt>
      <trkpt lat="46.05119" lon="6.36938">
        <ele>597</ele>
        <time>2021-03-27T12:50:17Z</time>
      </trkpt>
      <trkpt lat="46.05119" lon="6.36934">
        <ele>597.2</ele>
        <time>2021-03-27T12:50:18Z</time>
      </trkpt>
      <trkpt lat="46.0512" lon="6.36929">
        <ele>597.2</ele>
        <time>2021-03-27T12:50:19Z</time>
      </trkpt>
      <trkpt lat="46.05121" lon="6.36925">
        <ele>597.4</ele>
        <time>2021-03-27T12:50:20Z</time>
      </trkpt>
      <trkpt lat="46.05123" lon="6.36919">
        <ele>597.8</ele>
        <time>2021-03-27T12:50:21Z</time>
      </trkpt>
      <trkpt lat="46.05123" lon="6.36913">
        <ele>597.8</ele>
        <time>2021-03-27T12:50:22Z</time>
      </trkpt>
      <trkpt lat="46.05124" lon="6.36908">
        <ele>598</ele>
        <time>2021-03-27T12:50:23Z</time>
      </trkpt>
      <trkpt lat="46.05125" lon="6.36902">
        <ele>598.4</ele>
        <time>2021-03-27T12:50:24Z</time>
      </trkpt>
      <trkpt lat="46.05125" lon="6.36898">
        <ele>598.6</ele>
        <time>2021-03-27T12:50:25Z</time>
      </trkpt>
      <trkpt lat="46.05125" lon="6.36893">
        <ele>598.8</ele>
        <time>2021-03-27T12:50:26Z</time>
      </trkpt>
      <trkpt lat="46.05124" lon="6.36888">
        <ele>599</ele>
        <time>2021-03-27T12:50:27Z</time>
      </trkpt>
      <trkpt lat="46.05124" lon="6.36883">
        <ele>599.2</ele>
        <time>2021-03-27T12:50:28Z</time>
      </trkpt>
      <trkpt lat="46.05122" lon="6.36879">
        <ele>599.2</ele>
        <time>2021-03-27T12:50:29Z</time>
      </trkpt>
      <trkpt lat="46.0512" lon="6.36874">
        <ele>599.2</ele>
        <time>2021-03-27T12:50:30Z</time>
      </trkpt>
      <trkpt lat="46.05119" lon="6.3687">
        <ele>599.6</ele>
        <time>2021-03-27T12:50:31Z</time>
      </trkpt>
      <trkpt lat="46.05118" lon="6.36865">
        <ele>599.6</ele>
        <time>2021-03-27T12:50:32Z</time>
      </trkpt>
      <trkpt lat="46.05116" lon="6.36861">
        <ele>599.8</ele>
        <time>2021-03-27T12:50:33Z</time>
      </trkpt>
      <trkpt lat="46.05114" lon="6.36858">
        <ele>600.2</ele>
        <time>2021-03-27T12:50:34Z</time>
      </trkpt>
      <trkpt lat="46.05112" lon="6.36854">
        <ele>600.6</ele>
        <time>2021-03-27T12:50:35Z</time>
      </trkpt>
      <trkpt lat="46.05111" lon="6.36851">
        <ele>600.8</ele>
        <time>2021-03-27T12:50:36Z</time>
      </trkpt>
      <trkpt lat="46.05109" lon="6.36848">
        <ele>600.8</ele>
        <time>2021-03-27T12:50:37Z</time>
      </trkpt>
      <trkpt lat="46.05108" lon="6.36844">
        <ele>601.6</ele>
        <time>2021-03-27T12:50:38Z</time>
      </trkpt>
      <trkpt lat="46.05108" lon="6.3684">
        <ele>602</ele>
        <time>2021-03-27T12:50:39Z</time>
      </trkpt>
      <trkpt lat="46.05108" lon="6.36835">
        <ele>602</ele>
        <time>2021-03-27T12:50:40Z</time>
      </trkpt>
      <trkpt lat="46.05108" lon="6.3683">
        <ele>602.2</ele>
        <time>2021-03-27T12:50:41Z</time>
      </trkpt>
      <trkpt lat="46.05107" lon="6.36824">
        <ele>602.4</ele>
        <time>2021-03-27T12:50:42Z</time>
      </trkpt>
      <trkpt lat="46.05107" lon="6.36818">
        <ele>602.8</ele>
        <time>2021-03-27T12:50:43Z</time>
      </trkpt>
      <trkpt lat="46.05107" lon="6.36812">
        <ele>603</ele>
        <time>2021-03-27T12:50:44Z</time>
      </trkpt>
      <trkpt lat="46.05107" lon="6.36807">
        <ele>603</ele>
        <time>2021-03-27T12:50:45Z</time>
      </trkpt>
      <trkpt lat="46.05106" lon="6.36801">
        <ele>603.2</ele>
        <time>2021-03-27T12:50:46Z</time>
      </trkpt>
      <trkpt lat="46.05105" lon="6.36795">
        <ele>603.2</ele>
        <time>2021-03-27T12:50:47Z</time>
      </trkpt>
      <trkpt lat="46.05105" lon="6.36789">
        <ele>603.4</ele>
        <time>2021-03-27T12:50:48Z</time>
      </trkpt>
      <trkpt lat="46.05105" lon="6.36783">
        <ele>603.8</ele>
        <time>2021-03-27T12:50:49Z</time>
      </trkpt>
      <trkpt lat="46.05105" lon="6.36777">
        <ele>603.8</ele>
        <time>2021-03-27T12:50:50Z</time>
      </trkpt>
      <trkpt lat="46.05104" lon="6.36771">
        <ele>603.8</ele>
        <time>2021-03-27T12:50:51Z</time>
      </trkpt>
      <trkpt lat="46.05104" lon="6.36765">
        <ele>604</ele>
        <time>2021-03-27T12:50:52Z</time>
      </trkpt>
      <trkpt lat="46.05103" lon="6.3676">
        <ele>604.2</ele>
        <time>2021-03-27T12:50:53Z</time>
      </trkpt>
      <trkpt lat="46.05102" lon="6.36754">
        <ele>604.6</ele>
        <time>2021-03-27T12:50:54Z</time>
      </trkpt>
      <trkpt lat="46.05102" lon="6.36748">
        <ele>604.8</ele>
        <time>2021-03-27T12:50:55Z</time>
      </trkpt>
      <trkpt lat="46.05101" lon="6.36743">
        <ele>604.8</ele>
        <time>2021-03-27T12:50:56Z</time>
      </trkpt>
      <trkpt lat="46.051" lon="6.36737">
        <ele>605.4</ele>
        <time>2021-03-27T12:50:57Z</time>
      </trkpt>
      <trkpt lat="46.05099" lon="6.36732">
        <ele>605.6</ele>
        <time>2021-03-27T12:50:58Z</time>
      </trkpt>
      <trkpt lat="46.05097" lon="6.36727">
        <ele>605.8</ele>
        <time>2021-03-27T12:50:59Z</time>
      </trkpt>
      <trkpt lat="46.05096" lon="6.36723">
        <ele>606</ele>
        <time>2021-03-27T12:51:00Z</time>
      </trkpt>
      <trkpt lat="46.05095" lon="6.36719">
        <ele>606.4</ele>
        <time>2021-03-27T12:51:01Z</time>
      </trkpt>
      <trkpt lat="46.05094" lon="6.36714">
        <ele>606.4</ele>
        <time>2021-03-27T12:51:02Z</time>
      </trkpt>
      <trkpt lat="46.05093" lon="6.3671">
        <ele>606.6</ele>
        <time>2021-03-27T12:51:03Z</time>
      </trkpt>
      <trkpt lat="46.05092" lon="6.36706">
        <ele>606.8</ele>
        <time>2021-03-27T12:51:04Z</time>
      </trkpt>
      <trkpt lat="46.05091" lon="6.36702">
        <ele>607.2</ele>
        <time>2021-03-27T12:51:05Z</time>
      </trkpt>
      <trkpt lat="46.05089" lon="6.36698">
        <ele>607.4</ele>
        <time>2021-03-27T12:51:06Z</time>
      </trkpt>
      <trkpt lat="46.05088" lon="6.36694">
        <ele>607.8</ele>
        <time>2021-03-27T12:51:07Z</time>
      </trkpt>
      <trkpt lat="46.05087" lon="6.3669">
        <ele>608.2</ele>
        <time>2021-03-27T12:51:08Z</time>
      </trkpt>
      <trkpt lat="46.05085" lon="6.36686">
        <ele>608.6</ele>
        <time>2021-03-27T12:51:09Z</time>
      </trkpt>
      <trkpt lat="46.05083" lon="6.36682">
        <ele>608.6</ele>
        <time>2021-03-27T12:51:10Z</time>
      </trkpt>
      <trkpt lat="46.05081" lon="6.36677">
        <ele>608.8</ele>
        <time>2021-03-27T12:51:11Z</time>
      </trkpt>
      <trkpt lat="46.0508" lon="6.36673">
        <ele>608.8</ele>
        <time>2021-03-27T12:51:12Z</time>
      </trkpt>
      <trkpt lat="46.05079" lon="6.36668">
        <ele>609</ele>
        <time>2021-03-27T12:51:13Z</time>
      </trkpt>
      <trkpt lat="46.05079" lon="6.36663">
        <ele>609.2</ele>
        <time>2021-03-27T12:51:14Z</time>
      </trkpt>
      <trkpt lat="46.05078" lon="6.36659">
        <ele>609.4</ele>
        <time>2021-03-27T12:51:15Z</time>
      </trkpt>
      <trkpt lat="46.05078" lon="6.36653">
        <ele>609.6</ele>
        <time>2021-03-27T12:51:16Z</time>
      </trkpt>
      <trkpt lat="46.05077" lon="6.36648">
        <ele>610</ele>
        <time>2021-03-27T12:51:17Z</time>
      </trkpt>
      <trkpt lat="46.05076" lon="6.36643">
        <ele>610</ele>
        <time>2021-03-27T12:51:18Z</time>
      </trkpt>
      <trkpt lat="46.05075" lon="6.36639">
        <ele>610.4</ele>
        <time>2021-03-27T12:51:19Z</time>
      </trkpt>
      <trkpt lat="46.05074" lon="6.36635">
        <ele>610.8</ele>
        <time>2021-03-27T12:51:20Z</time>
      </trkpt>
      <trkpt lat="46.05073" lon="6.3663">
        <ele>611</ele>
        <time>2021-03-27T12:51:21Z</time>
      </trkpt>
      <trkpt lat="46.05073" lon="6.36625">
        <ele>611.2</ele>
        <time>2021-03-27T12:51:22Z</time>
      </trkpt>
      <trkpt lat="46.05072" lon="6.36621">
        <ele>611.6</ele>
        <time>2021-03-27T12:51:23Z</time>
      </trkpt>
      <trkpt lat="46.05071" lon="6.36616">
        <ele>611.8</ele>
        <time>2021-03-27T12:51:24Z</time>
      </trkpt>
      <trkpt lat="46.05069" lon="6.36613">
        <ele>612.2</ele>
        <time>2021-03-27T12:51:25Z</time>
      </trkpt>
      <trkpt lat="46.05067" lon="6.36609">
        <ele>612.2</ele>
        <time>2021-03-27T12:51:26Z</time>
      </trkpt>
      <trkpt lat="46.05066" lon="6.36605">
        <ele>612.4</ele>
        <time>2021-03-27T12:51:27Z</time>
      </trkpt>
      <trkpt lat="46.05064" lon="6.36602">
        <ele>612.4</ele>
        <time>2021-03-27T12:51:28Z</time>
      </trkpt>
      <trkpt lat="46.05064" lon="6.36598">
        <ele>612.6</ele>
        <time>2021-03-27T12:51:29Z</time>
      </trkpt>
      <trkpt lat="46.05063" lon="6.36594">
        <ele>613</ele>
        <time>2021-03-27T12:51:30Z</time>
      </trkpt>
      <trkpt lat="46.05062" lon="6.3659">
        <ele>613</ele>
        <time>2021-03-27T12:51:31Z</time>
      </trkpt>
      <trkpt lat="46.0506" lon="6.36586">
        <ele>613.4</ele>
        <time>2021-03-27T12:51:32Z</time>
      </trkpt>
      <trkpt lat="46.05059" lon="6.36582">
        <ele>613.6</ele>
        <time>2021-03-27T12:51:33Z</time>
      </trkpt>
      <trkpt lat="46.05058" lon="6.36578">
        <ele>613.8</ele>
        <time>2021-03-27T12:51:34Z</time>
      </trkpt>
      <trkpt lat="46.05056" lon="6.36574">
        <ele>614</ele>
        <time>2021-03-27T12:51:35Z</time>
      </trkpt>
      <trkpt lat="46.05054" lon="6.3657">
        <ele>614.2</ele>
        <time>2021-03-27T12:51:36Z</time>
      </trkpt>
      <trkpt lat="46.05054" lon="6.36565">
        <ele>614.4</ele>
        <time>2021-03-27T12:51:37Z</time>
      </trkpt>
      <trkpt lat="46.05053" lon="6.3656">
        <ele>614.6</ele>
        <time>2021-03-27T12:51:38Z</time>
      </trkpt>
      <trkpt lat="46.05052" lon="6.36554">
        <ele>614.8</ele>
        <time>2021-03-27T12:51:39Z</time>
      </trkpt>
      <trkpt lat="46.05053" lon="6.36551">
        <ele>614.8</ele>
        <time>2021-03-27T12:51:40Z</time>
      </trkpt>
      <trkpt lat="46.05053" lon="6.36546">
        <ele>615</ele>
        <time>2021-03-27T12:51:41Z</time>
      </trkpt>
      <trkpt lat="46.05054" lon="6.36541">
        <ele>615.2</ele>
        <time>2021-03-27T12:51:42Z</time>
      </trkpt>
      <trkpt lat="46.05055" lon="6.36536">
        <ele>615.2</ele>
        <time>2021-03-27T12:51:43Z</time>
      </trkpt>
      <trkpt lat="46.05056" lon="6.3653">
        <ele>615.4</ele>
        <time>2021-03-27T12:51:44Z</time>
      </trkpt>
      <trkpt lat="46.05058" lon="6.36523">
        <ele>615.6</ele>
        <time>2021-03-27T12:51:45Z</time>
      </trkpt>
      <trkpt lat="46.05058" lon="6.36516">
        <ele>616</ele>
        <time>2021-03-27T12:51:46Z</time>
      </trkpt>
      <trkpt lat="46.05059" lon="6.36509">
        <ele>616.2</ele>
        <time>2021-03-27T12:51:47Z</time>
      </trkpt>
      <trkpt lat="46.05058" lon="6.36503">
        <ele>616.6</ele>
        <time>2021-03-27T12:51:48Z</time>
      </trkpt>
      <trkpt lat="46.05058" lon="6.36497">
        <ele>616.8</ele>
        <time>2021-03-27T12:51:49Z</time>
      </trkpt>
      <trkpt lat="46.05058" lon="6.3649">
        <ele>617.2</ele>
        <time>2021-03-27T12:51:50Z</time>
      </trkpt>
      <trkpt lat="46.05058" lon="6.36483">
        <ele>617.4</ele>
        <time>2021-03-27T12:51:51Z</time>
      </trkpt>
      <trkpt lat="46.05057" lon="6.36477">
        <ele>617.6</ele>
        <time>2021-03-27T12:51:52Z</time>
      </trkpt>
      <trkpt lat="46.05057" lon="6.36471">
        <ele>617.8</ele>
        <time>2021-03-27T12:51:53Z</time>
      </trkpt>
      <trkpt lat="46.05057" lon="6.36465">
        <ele>618</ele>
        <time>2021-03-27T12:51:54Z</time>
      </trkpt>
      <trkpt lat="46.05057" lon="6.36459">
        <ele>618.2</ele>
        <time>2021-03-27T12:51:55Z</time>
      </trkpt>
      <trkpt lat="46.05057" lon="6.36453">
        <ele>618.4</ele>
        <time>2021-03-27T12:51:56Z</time>
      </trkpt>
      <trkpt lat="46.05057" lon="6.36448">
        <ele>618.8</ele>
        <time>2021-03-27T12:51:57Z</time>
      </trkpt>
      <trkpt lat="46.05056" lon="6.36442">
        <ele>619</ele>
        <time>2021-03-27T12:51:58Z</time>
      </trkpt>
      <trkpt lat="46.05056" lon="6.36437">
        <ele>619.4</ele>
        <time>2021-03-27T12:51:59Z</time>
      </trkpt>
      <trkpt lat="46.05055" lon="6.36431">
        <ele>619.6</ele>
        <time>2021-03-27T12:52:00Z</time>
      </trkpt>
      <trkpt lat="46.05054" lon="6.36426">
        <ele>619.8</ele>
        <time>2021-03-27T12:52:01Z</time>
      </trkpt>
      <trkpt lat="46.05054" lon="6.36421">
        <ele>620.2</ele>
        <time>2021-03-27T12:52:02Z</time>
      </trkpt>
      <trkpt lat="46.05054" lon="6.36416">
        <ele>620.2</ele>
        <time>2021-03-27T12:52:03Z</time>
      </trkpt>
      <trkpt lat="46.05055" lon="6.36412">
        <ele>620.2</ele>
        <time>2021-03-27T12:52:04Z</time>
      </trkpt>
      <trkpt lat="46.05055" lon="6.36408">
        <ele>620.4</ele>
        <time>2021-03-27T12:52:05Z</time>
      </trkpt>
      <trkpt lat="46.05055" lon="6.36403">
        <ele>620.6</ele>
        <time>2021-03-27T12:52:06Z</time>
      </trkpt>
      <trkpt lat="46.05056" lon="6.36399">
        <ele>621</ele>
        <time>2021-03-27T12:52:07Z</time>
      </trkpt>
      <trkpt lat="46.05057" lon="6.36395">
        <ele>621.2</ele>
        <time>2021-03-27T12:52:08Z</time>
      </trkpt>
      <trkpt lat="46.05057" lon="6.3639">
        <ele>621.6</ele>
        <time>2021-03-27T12:52:09Z</time>
      </trkpt>
      <trkpt lat="46.05057" lon="6.36385">
        <ele>621.6</ele>
        <time>2021-03-27T12:52:10Z</time>
      </trkpt>
      <trkpt lat="46.05056" lon="6.36381">
        <ele>621.8</ele>
        <time>2021-03-27T12:52:11Z</time>
      </trkpt>
      <trkpt lat="46.05057" lon="6.36376">
        <ele>622.2</ele>
        <time>2021-03-27T12:52:12Z</time>
      </trkpt>
      <trkpt lat="46.05057" lon="6.36371">
        <ele>622.4</ele>
        <time>2021-03-27T12:52:13Z</time>
      </trkpt>
      <trkpt lat="46.05057" lon="6.36366">
        <ele>622.6</ele>
        <time>2021-03-27T12:52:14Z</time>
      </trkpt>
      <trkpt lat="46.05057" lon="6.36361">
        <ele>622.8</ele>
        <time>2021-03-27T12:52:15Z</time>
      </trkpt>
      <trkpt lat="46.05056" lon="6.36357">
        <ele>623</ele>
        <time>2021-03-27T12:52:16Z</time>
      </trkpt>
      <trkpt lat="46.05056" lon="6.36353">
        <ele>623.4</ele>
        <time>2021-03-27T12:52:17Z</time>
      </trkpt>
      <trkpt lat="46.05056" lon="6.36349">
        <ele>623.4</ele>
        <time>2021-03-27T12:52:18Z</time>
      </trkpt>
      <trkpt lat="46.05055" lon="6.36344">
        <ele>623.8</ele>
        <time>2021-03-27T12:52:19Z</time>
      </trkpt>
      <trkpt lat="46.05055" lon="6.36338">
        <ele>623.8</ele>
        <time>2021-03-27T12:52:20Z</time>
      </trkpt>
      <trkpt lat="46.05055" lon="6.36332">
        <ele>624.2</ele>
        <time>2021-03-27T12:52:21Z</time>
      </trkpt>
      <trkpt lat="46.05055" lon="6.36328">
        <ele>624.4</ele>
        <time>2021-03-27T12:52:22Z</time>
      </trkpt>
      <trkpt lat="46.05056" lon="6.36322">
        <ele>624.6</ele>
        <time>2021-03-27T12:52:23Z</time>
      </trkpt>
      <trkpt lat="46.05056" lon="6.36318">
        <ele>624.8</ele>
        <time>2021-03-27T12:52:24Z</time>
      </trkpt>
      <trkpt lat="46.05055" lon="6.36313">
        <ele>625</ele>
        <time>2021-03-27T12:52:25Z</time>
      </trkpt>
      <trkpt lat="46.05055" lon="6.36309">
        <ele>625.2</ele>
        <time>2021-03-27T12:52:26Z</time>
      </trkpt>
      <trkpt lat="46.05054" lon="6.36304">
        <ele>625.2</ele>
        <time>2021-03-27T12:52:27Z</time>
      </trkpt>
      <trkpt lat="46.05054" lon="6.363">
        <ele>625.4</ele>
        <time>2021-03-27T12:52:28Z</time>
      </trkpt>
      <trkpt lat="46.05052" lon="6.36297">
        <ele>625.4</ele>
        <time>2021-03-27T12:52:29Z</time>
      </trkpt>
      <trkpt lat="46.05051" lon="6.36293">
        <ele>625.6</ele>
        <time>2021-03-27T12:52:30Z</time>
      </trkpt>
      <trkpt lat="46.0505" lon="6.36289">
        <ele>625.8</ele>
        <time>2021-03-27T12:52:31Z</time>
      </trkpt>
      <trkpt lat="46.05049" lon="6.36285">
        <ele>626</ele>
        <time>2021-03-27T12:52:32Z</time>
      </trkpt>
      <trkpt lat="46.05049" lon="6.3628">
        <ele>626.4</ele>
        <time>2021-03-27T12:52:33Z</time>
      </trkpt>
      <trkpt lat="46.05049" lon="6.36274">
        <ele>626.6</ele>
        <time>2021-03-27T12:52:34Z</time>
      </trkpt>
      <trkpt lat="46.05048" lon="6.36267">
        <ele>626.8</ele>
        <time>2021-03-27T12:52:35Z</time>
      </trkpt>
      <trkpt lat="46.05048" lon="6.36262">
        <ele>627</ele>
        <time>2021-03-27T12:52:36Z</time>
      </trkpt>
      <trkpt lat="46.05048" lon="6.36256">
        <ele>627.6</ele>
        <time>2021-03-27T12:52:37Z</time>
      </trkpt>
      <trkpt lat="46.05048" lon="6.36251">
        <ele>627.8</ele>
        <time>2021-03-27T12:52:38Z</time>
      </trkpt>
      <trkpt lat="46.05048" lon="6.36246">
        <ele>628</ele>
        <time>2021-03-27T12:52:39Z</time>
      </trkpt>
      <trkpt lat="46.05049" lon="6.36241">
        <ele>628.4</ele>
        <time>2021-03-27T12:52:40Z</time>
      </trkpt>
      <trkpt lat="46.05049" lon="6.36236">
        <ele>628.6</ele>
        <time>2021-03-27T12:52:41Z</time>
      </trkpt>
      <trkpt lat="46.05049" lon="6.3623">
        <ele>628.8</ele>
        <time>2021-03-27T12:52:42Z</time>
      </trkpt>
      <trkpt lat="46.05049" lon="6.36225">
        <ele>629</ele>
        <time>2021-03-27T12:52:43Z</time>
      </trkpt>
      <trkpt lat="46.05049" lon="6.3622">
        <ele>629.4</ele>
        <time>2021-03-27T12:52:44Z</time>
      </trkpt>
      <trkpt lat="46.05049" lon="6.36215">
        <ele>629.6</ele>
        <time>2021-03-27T12:52:45Z</time>
      </trkpt>
      <trkpt lat="46.05049" lon="6.3621">
        <ele>630</ele>
        <time>2021-03-27T12:52:46Z</time>
      </trkpt>
      <trkpt lat="46.05049" lon="6.36205">
        <ele>630.2</ele>
        <time>2021-03-27T12:52:47Z</time>
      </trkpt>
      <trkpt lat="46.05049" lon="6.362">
        <ele>630.6</ele>
        <time>2021-03-27T12:52:48Z</time>
      </trkpt>
      <trkpt lat="46.05048" lon="6.36195">
        <ele>631</ele>
        <time>2021-03-27T12:52:49Z</time>
      </trkpt>
      <trkpt lat="46.05048" lon="6.3619">
        <ele>631.2</ele>
        <time>2021-03-27T12:52:50Z</time>
      </trkpt>
      <trkpt lat="46.05047" lon="6.36186">
        <ele>631.2</ele>
        <time>2021-03-27T12:52:51Z</time>
      </trkpt>
      <trkpt lat="46.05046" lon="6.36182">
        <ele>631.4</ele>
        <time>2021-03-27T12:52:52Z</time>
      </trkpt>
      <trkpt lat="46.05045" lon="6.36177">
        <ele>631.8</ele>
        <time>2021-03-27T12:52:53Z</time>
      </trkpt>
      <trkpt lat="46.05044" lon="6.36172">
        <ele>631.8</ele>
        <time>2021-03-27T12:52:54Z</time>
      </trkpt>
      <trkpt lat="46.05044" lon="6.36168">
        <ele>632</ele>
        <time>2021-03-27T12:52:55Z</time>
      </trkpt>
      <trkpt lat="46.05044" lon="6.36162">
        <ele>632.2</ele>
        <time>2021-03-27T12:52:56Z</time>
      </trkpt>
      <trkpt lat="46.05046" lon="6.36153">
        <ele>632.6</ele>
        <time>2021-03-27T12:52:58Z</time>
      </trkpt>
      <trkpt lat="46.05047" lon="6.36149">
        <ele>632.8</ele>
        <time>2021-03-27T12:52:59Z</time>
      </trkpt>
      <trkpt lat="46.05047" lon="6.36145">
        <ele>633</ele>
        <time>2021-03-27T12:53:00Z</time>
      </trkpt>
      <trkpt lat="46.05048" lon="6.3614">
        <ele>633.2</ele>
        <time>2021-03-27T12:53:01Z</time>
      </trkpt>
      <trkpt lat="46.05048" lon="6.36135">
        <ele>633.2</ele>
        <time>2021-03-27T12:53:02Z</time>
      </trkpt>
      <trkpt lat="46.0505" lon="6.36131">
        <ele>633.4</ele>
        <time>2021-03-27T12:53:03Z</time>
      </trkpt>
      <trkpt lat="46.05051" lon="6.36126">
        <ele>633.8</ele>
        <time>2021-03-27T12:53:04Z</time>
      </trkpt>
      <trkpt lat="46.05053" lon="6.36123">
        <ele>634</ele>
        <time>2021-03-27T12:53:05Z</time>
      </trkpt>
      <trkpt lat="46.05055" lon="6.36113">
        <ele>634.4</ele>
        <time>2021-03-27T12:53:07Z</time>
      </trkpt>
      <trkpt lat="46.05055" lon="6.36109">
        <ele>634.6</ele>
        <time>2021-03-27T12:53:08Z</time>
      </trkpt>
      <trkpt lat="46.05055" lon="6.36104">
        <ele>634.8</ele>
        <time>2021-03-27T12:53:09Z</time>
      </trkpt>
      <trkpt lat="46.05054" lon="6.36095">
        <ele>635.2</ele>
        <time>2021-03-27T12:53:11Z</time>
      </trkpt>
      <trkpt lat="46.05055" lon="6.3609">
        <ele>635.4</ele>
        <time>2021-03-27T12:53:12Z</time>
      </trkpt>
      <trkpt lat="46.05056" lon="6.36085">
        <ele>635.6</ele>
        <time>2021-03-27T12:53:13Z</time>
      </trkpt>
      <trkpt lat="46.05058" lon="6.3608">
        <ele>635.8</ele>
        <time>2021-03-27T12:53:14Z</time>
      </trkpt>
      <trkpt lat="46.05059" lon="6.36074">
        <ele>635.8</ele>
        <time>2021-03-27T12:53:15Z</time>
      </trkpt>
      <trkpt lat="46.05061" lon="6.36068">
        <ele>636</ele>
        <time>2021-03-27T12:53:16Z</time>
      </trkpt>
      <trkpt lat="46.05061" lon="6.36063">
        <ele>636.4</ele>
        <time>2021-03-27T12:53:17Z</time>
      </trkpt>
      <trkpt lat="46.05061" lon="6.36057">
        <ele>636.6</ele>
        <time>2021-03-27T12:53:18Z</time>
      </trkpt>
      <trkpt lat="46.05062" lon="6.36048">
        <ele>637</ele>
        <time>2021-03-27T12:53:20Z</time>
      </trkpt>
      <trkpt lat="46.05062" lon="6.36042">
        <ele>637.4</ele>
        <time>2021-03-27T12:53:21Z</time>
      </trkpt>
      <trkpt lat="46.05063" lon="6.36036">
        <ele>637.8</ele>
        <time>2021-03-27T12:53:22Z</time>
      </trkpt>
      <trkpt lat="46.05064" lon="6.36025">
        <ele>638.6</ele>
        <time>2021-03-27T12:53:24Z</time>
      </trkpt>
      <trkpt lat="46.05064" lon="6.36019">
        <ele>638.8</ele>
        <time>2021-03-27T12:53:25Z</time>
      </trkpt>
      <trkpt lat="46.05064" lon="6.36014">
        <ele>638.8</ele>
        <time>2021-03-27T12:53:26Z</time>
      </trkpt>
      <trkpt lat="46.05063" lon="6.3601">
        <ele>639</ele>
        <time>2021-03-27T12:53:27Z</time>
      </trkpt>
      <trkpt lat="46.05063" lon="6.36006">
        <ele>639.4</ele>
        <time>2021-03-27T12:53:28Z</time>
      </trkpt>
      <trkpt lat="46.05061" lon="6.36002">
        <ele>639.6</ele>
        <time>2021-03-27T12:53:29Z</time>
      </trkpt>
      <trkpt lat="46.05059" lon="6.35998">
        <ele>639.6</ele>
        <time>2021-03-27T12:53:30Z</time>
      </trkpt>
      <trkpt lat="46.05056" lon="6.35995">
        <ele>640</ele>
        <time>2021-03-27T12:53:31Z</time>
      </trkpt>
      <trkpt lat="46.0505" lon="6.35989">
        <ele>640.2</ele>
        <time>2021-03-27T12:53:33Z</time>
      </trkpt>
      <trkpt lat="46.05047" lon="6.35987">
        <ele>640.4</ele>
        <time>2021-03-27T12:53:34Z</time>
      </trkpt>
      <trkpt lat="46.05043" lon="6.35984">
        <ele>640.6</ele>
        <time>2021-03-27T12:53:35Z</time>
      </trkpt>
      <trkpt lat="46.0504" lon="6.35982">
        <ele>640.8</ele>
        <time>2021-03-27T12:53:36Z</time>
      </trkpt>
      <trkpt lat="46.05036" lon="6.3598">
        <ele>641</ele>
        <time>2021-03-27T12:53:37Z</time>
      </trkpt>
      <trkpt lat="46.05032" lon="6.35979">
        <ele>641</ele>
        <time>2021-03-27T12:53:38Z</time>
      </trkpt>
      <trkpt lat="46.05027" lon="6.35977">
        <ele>641</ele>
        <time>2021-03-27T12:53:39Z</time>
      </trkpt>
      <trkpt lat="46.05023" lon="6.35974">
        <ele>641.2</ele>
        <time>2021-03-27T12:53:40Z</time>
      </trkpt>
      <trkpt lat="46.05019" lon="6.35971">
        <ele>641</ele>
        <time>2021-03-27T12:53:41Z</time>
      </trkpt>
      <trkpt lat="46.05014" lon="6.35968">
        <ele>641.2</ele>
        <time>2021-03-27T12:53:42Z</time>
      </trkpt>
      <trkpt lat="46.0501" lon="6.35965">
        <ele>641</ele>
        <time>2021-03-27T12:53:44Z</time>
      </trkpt>
      <trkpt lat="46.05005" lon="6.35962">
        <ele>641.2</ele>
        <time>2021-03-27T12:53:45Z</time>
      </trkpt>
      <trkpt lat="46.04995" lon="6.35957">
        <ele>641.2</ele>
        <time>2021-03-27T12:53:47Z</time>
      </trkpt>
      <trkpt lat="46.0499" lon="6.35954">
        <ele>641.2</ele>
        <time>2021-03-27T12:53:48Z</time>
      </trkpt>
      <trkpt lat="46.04985" lon="6.35951">
        <ele>641</ele>
        <time>2021-03-27T12:53:49Z</time>
      </trkpt>
      <trkpt lat="46.04981" lon="6.35947">
        <ele>641</ele>
        <time>2021-03-27T12:53:50Z</time>
      </trkpt>
      <trkpt lat="46.04977" lon="6.35944">
        <ele>641</ele>
        <time>2021-03-27T12:53:51Z</time>
      </trkpt>
      <trkpt lat="46.04972" lon="6.35941">
        <ele>641</ele>
        <time>2021-03-27T12:53:52Z</time>
      </trkpt>
      <trkpt lat="46.04968" lon="6.35938">
        <ele>641</ele>
        <time>2021-03-27T12:53:53Z</time>
      </trkpt>
      <trkpt lat="46.04963" lon="6.35935">
        <ele>640.8</ele>
        <time>2021-03-27T12:53:54Z</time>
      </trkpt>
      <trkpt lat="46.04959" lon="6.35932">
        <ele>641</ele>
        <time>2021-03-27T12:53:55Z</time>
      </trkpt>
      <trkpt lat="46.04954" lon="6.35929">
        <ele>640.8</ele>
        <time>2021-03-27T12:53:56Z</time>
      </trkpt>
      <trkpt lat="46.0495" lon="6.35926">
        <ele>640.8</ele>
        <time>2021-03-27T12:53:57Z</time>
      </trkpt>
      <trkpt lat="46.04946" lon="6.35922">
        <ele>640.8</ele>
        <time>2021-03-27T12:53:58Z</time>
      </trkpt>
      <trkpt lat="46.04941" lon="6.35919">
        <ele>640.8</ele>
        <time>2021-03-27T12:53:59Z</time>
      </trkpt>
      <trkpt lat="46.04937" lon="6.35916">
        <ele>640.8</ele>
        <time>2021-03-27T12:54:00Z</time>
      </trkpt>
      <trkpt lat="46.04933" lon="6.35913">
        <ele>640.8</ele>
        <time>2021-03-27T12:54:01Z</time>
      </trkpt>
      <trkpt lat="46.04929" lon="6.35911">
        <ele>641</ele>
        <time>2021-03-27T12:54:02Z</time>
      </trkpt>
      <trkpt lat="46.04925" lon="6.35908">
        <ele>641</ele>
        <time>2021-03-27T12:54:03Z</time>
      </trkpt>
      <trkpt lat="46.0492" lon="6.35905">
        <ele>641.2</ele>
        <time>2021-03-27T12:54:04Z</time>
      </trkpt>
      <trkpt lat="46.04917" lon="6.35902">
        <ele>641.2</ele>
        <time>2021-03-27T12:54:05Z</time>
      </trkpt>
      <trkpt lat="46.04913" lon="6.35899">
        <ele>641.4</ele>
        <time>2021-03-27T12:54:06Z</time>
      </trkpt>
      <trkpt lat="46.04909" lon="6.35896">
        <ele>641.4</ele>
        <time>2021-03-27T12:54:07Z</time>
      </trkpt>
      <trkpt lat="46.04905" lon="6.35893">
        <ele>641.4</ele>
        <time>2021-03-27T12:54:08Z</time>
      </trkpt>
      <trkpt lat="46.04901" lon="6.35891">
        <ele>641.4</ele>
        <time>2021-03-27T12:54:09Z</time>
      </trkpt>
      <trkpt lat="46.04897" lon="6.35888">
        <ele>641.6</ele>
        <time>2021-03-27T12:54:10Z</time>
      </trkpt>
      <trkpt lat="46.04893" lon="6.35886">
        <ele>641.8</ele>
        <time>2021-03-27T12:54:11Z</time>
      </trkpt>
      <trkpt lat="46.04889" lon="6.35883">
        <ele>642.2</ele>
        <time>2021-03-27T12:54:12Z</time>
      </trkpt>
      <trkpt lat="46.04884" lon="6.35881">
        <ele>642.4</ele>
        <time>2021-03-27T12:54:13Z</time>
      </trkpt>
      <trkpt lat="46.0488" lon="6.35879">
        <ele>642.6</ele>
        <time>2021-03-27T12:54:14Z</time>
      </trkpt>
      <trkpt lat="46.04876" lon="6.35877">
        <ele>642.8</ele>
        <time>2021-03-27T12:54:15Z</time>
      </trkpt>
      <trkpt lat="46.04871" lon="6.35875">
        <ele>642.8</ele>
        <time>2021-03-27T12:54:16Z</time>
      </trkpt>
      <trkpt lat="46.04867" lon="6.35873">
        <ele>643</ele>
        <time>2021-03-27T12:54:17Z</time>
      </trkpt>
      <trkpt lat="46.04862" lon="6.35871">
        <ele>643</ele>
        <time>2021-03-27T12:54:18Z</time>
      </trkpt>
      <trkpt lat="46.04857" lon="6.3587">
        <ele>643.2</ele>
        <time>2021-03-27T12:54:19Z</time>
      </trkpt>
      <trkpt lat="46.04853" lon="6.35868">
        <ele>643.2</ele>
        <time>2021-03-27T12:54:20Z</time>
      </trkpt>
      <trkpt lat="46.04848" lon="6.35867">
        <ele>643.4</ele>
        <time>2021-03-27T12:54:21Z</time>
      </trkpt>
      <trkpt lat="46.04843" lon="6.35866">
        <ele>643.8</ele>
        <time>2021-03-27T12:54:22Z</time>
      </trkpt>
      <trkpt lat="46.04838" lon="6.35865">
        <ele>643.8</ele>
        <time>2021-03-27T12:54:23Z</time>
      </trkpt>
      <trkpt lat="46.04833" lon="6.35864">
        <ele>644.2</ele>
        <time>2021-03-27T12:54:24Z</time>
      </trkpt>
      <trkpt lat="46.04829" lon="6.35863">
        <ele>644.4</ele>
        <time>2021-03-27T12:54:25Z</time>
      </trkpt>
      <trkpt lat="46.04824" lon="6.35862">
        <ele>644.6</ele>
        <time>2021-03-27T12:54:26Z</time>
      </trkpt>
      <trkpt lat="46.04819" lon="6.35862">
        <ele>645</ele>
        <time>2021-03-27T12:54:27Z</time>
      </trkpt>
      <trkpt lat="46.04815" lon="6.35862">
        <ele>645.6</ele>
        <time>2021-03-27T12:54:28Z</time>
      </trkpt>
      <trkpt lat="46.0481" lon="6.35862">
        <ele>646</ele>
        <time>2021-03-27T12:54:29Z</time>
      </trkpt>
      <trkpt lat="46.04806" lon="6.35863">
        <ele>646.2</ele>
        <time>2021-03-27T12:54:30Z</time>
      </trkpt>
      <trkpt lat="46.04802" lon="6.35863">
        <ele>646.8</ele>
        <time>2021-03-27T12:54:31Z</time>
      </trkpt>
      <trkpt lat="46.04798" lon="6.35864">
        <ele>647.2</ele>
        <time>2021-03-27T12:54:32Z</time>
      </trkpt>
      <trkpt lat="46.04794" lon="6.35865">
        <ele>647.4</ele>
        <time>2021-03-27T12:54:33Z</time>
      </trkpt>
      <trkpt lat="46.0479" lon="6.35865">
        <ele>647.4</ele>
        <time>2021-03-27T12:54:34Z</time>
      </trkpt>
      <trkpt lat="46.04786" lon="6.35864">
        <ele>647.6</ele>
        <time>2021-03-27T12:54:35Z</time>
      </trkpt>
      <trkpt lat="46.04782" lon="6.35864">
        <ele>647.8</ele>
        <time>2021-03-27T12:54:36Z</time>
      </trkpt>
      <trkpt lat="46.04778" lon="6.35864">
        <ele>647.8</ele>
        <time>2021-03-27T12:54:37Z</time>
      </trkpt>
      <trkpt lat="46.04775" lon="6.35864">
        <ele>648</ele>
        <time>2021-03-27T12:54:38Z</time>
      </trkpt>
      <trkpt lat="46.04771" lon="6.35864">
        <ele>648.4</ele>
        <time>2021-03-27T12:54:39Z</time>
      </trkpt>
      <trkpt lat="46.04767" lon="6.35864">
        <ele>648.8</ele>
        <time>2021-03-27T12:54:40Z</time>
      </trkpt>
      <trkpt lat="46.04763" lon="6.35863">
        <ele>649</ele>
        <time>2021-03-27T12:54:41Z</time>
      </trkpt>
      <trkpt lat="46.0476" lon="6.35863">
        <ele>649.2</ele>
        <time>2021-03-27T12:54:42Z</time>
      </trkpt>
      <trkpt lat="46.04757" lon="6.35862">
        <ele>649.4</ele>
        <time>2021-03-27T12:54:43Z</time>
      </trkpt>
      <trkpt lat="46.04754" lon="6.35859">
        <ele>649.6</ele>
        <time>2021-03-27T12:54:44Z</time>
      </trkpt>
      <trkpt lat="46.04752" lon="6.35856">
        <ele>650.2</ele>
        <time>2021-03-27T12:54:45Z</time>
      </trkpt>
      <trkpt lat="46.0475" lon="6.35852">
        <ele>650.6</ele>
        <time>2021-03-27T12:54:46Z</time>
      </trkpt>
      <trkpt lat="46.0475" lon="6.35847">
        <ele>650.8</ele>
        <time>2021-03-27T12:54:47Z</time>
      </trkpt>
      <trkpt lat="46.0475" lon="6.35842">
        <ele>651</ele>
        <time>2021-03-27T12:54:48Z</time>
      </trkpt>
      <trkpt lat="46.04751" lon="6.35837">
        <ele>651.2</ele>
        <time>2021-03-27T12:54:49Z</time>
      </trkpt>
      <trkpt lat="46.04751" lon="6.35832">
        <ele>651.6</ele>
        <time>2021-03-27T12:54:50Z</time>
      </trkpt>
      <trkpt lat="46.04752" lon="6.35826">
        <ele>651.8</ele>
        <time>2021-03-27T12:54:51Z</time>
      </trkpt>
      <trkpt lat="46.04752" lon="6.35821">
        <ele>652</ele>
        <time>2021-03-27T12:54:52Z</time>
      </trkpt>
      <trkpt lat="46.04752" lon="6.35816">
        <ele>652.2</ele>
        <time>2021-03-27T12:54:53Z</time>
      </trkpt>
      <trkpt lat="46.04753" lon="6.35811">
        <ele>652.4</ele>
        <time>2021-03-27T12:54:54Z</time>
      </trkpt>
      <trkpt lat="46.04753" lon="6.35806">
        <ele>652.6</ele>
        <time>2021-03-27T12:54:55Z</time>
      </trkpt>
      <trkpt lat="46.04754" lon="6.35801">
        <ele>652.6</ele>
        <time>2021-03-27T12:54:56Z</time>
      </trkpt>
      <trkpt lat="46.04754" lon="6.35797">
        <ele>652.6</ele>
        <time>2021-03-27T12:54:57Z</time>
      </trkpt>
      <trkpt lat="46.04755" lon="6.35792">
        <ele>652.8</ele>
        <time>2021-03-27T12:54:58Z</time>
      </trkpt>
      <trkpt lat="46.04755" lon="6.35786">
        <ele>652.8</ele>
        <time>2021-03-27T12:54:59Z</time>
      </trkpt>
      <trkpt lat="46.04756" lon="6.3578">
        <ele>652.8</ele>
        <time>2021-03-27T12:55:00Z</time>
      </trkpt>
      <trkpt lat="46.04756" lon="6.35774">
        <ele>652.8</ele>
        <time>2021-03-27T12:55:01Z</time>
      </trkpt>
      <trkpt lat="46.04757" lon="6.35767">
        <ele>652.8</ele>
        <time>2021-03-27T12:55:02Z</time>
      </trkpt>
      <trkpt lat="46.04758" lon="6.3576">
        <ele>652.8</ele>
        <time>2021-03-27T12:55:03Z</time>
      </trkpt>
      <trkpt lat="46.04758" lon="6.35752">
        <ele>652.8</ele>
        <time>2021-03-27T12:55:04Z</time>
      </trkpt>
      <trkpt lat="46.04759" lon="6.35745">
        <ele>652.8</ele>
        <time>2021-03-27T12:55:05Z</time>
      </trkpt>
      <trkpt lat="46.04759" lon="6.35736">
        <ele>652.6</ele>
        <time>2021-03-27T12:55:06Z</time>
      </trkpt>
      <trkpt lat="46.0476" lon="6.35728">
        <ele>652.6</ele>
        <time>2021-03-27T12:55:07Z</time>
      </trkpt>
      <trkpt lat="46.0476" lon="6.35719">
        <ele>652.6</ele>
        <time>2021-03-27T12:55:08Z</time>
      </trkpt>
      <trkpt lat="46.04761" lon="6.35711">
        <ele>652.4</ele>
        <time>2021-03-27T12:55:09Z</time>
      </trkpt>
      <trkpt lat="46.04762" lon="6.35702">
        <ele>652.2</ele>
        <time>2021-03-27T12:55:10Z</time>
      </trkpt>
      <trkpt lat="46.04764" lon="6.35694">
        <ele>651.8</ele>
        <time>2021-03-27T12:55:11Z</time>
      </trkpt>
      <trkpt lat="46.04765" lon="6.35685">
        <ele>651.8</ele>
        <time>2021-03-27T12:55:12Z</time>
      </trkpt>
      <trkpt lat="46.04766" lon="6.35677">
        <ele>651.2</ele>
        <time>2021-03-27T12:55:13Z</time>
      </trkpt>
      <trkpt lat="46.04767" lon="6.35668">
        <ele>651</ele>
        <time>2021-03-27T12:55:14Z</time>
      </trkpt>
      <trkpt lat="46.04768" lon="6.3566">
        <ele>650.8</ele>
        <time>2021-03-27T12:55:15Z</time>
      </trkpt>
      <trkpt lat="46.04769" lon="6.35651">
        <ele>650.2</ele>
        <time>2021-03-27T12:55:16Z</time>
      </trkpt>
      <trkpt lat="46.0477" lon="6.35643">
        <ele>649.8</ele>
        <time>2021-03-27T12:55:17Z</time>
      </trkpt>
      <trkpt lat="46.04771" lon="6.35634">
        <ele>649.8</ele>
        <time>2021-03-27T12:55:18Z</time>
      </trkpt>
      <trkpt lat="46.04773" lon="6.35625">
        <ele>649.4</ele>
        <time>2021-03-27T12:55:19Z</time>
      </trkpt>
      <trkpt lat="46.04774" lon="6.35616">
        <ele>649.4</ele>
        <time>2021-03-27T12:55:20Z</time>
      </trkpt>
      <trkpt lat="46.04775" lon="6.35607">
        <ele>649.2</ele>
        <time>2021-03-27T12:55:21Z</time>
      </trkpt>
      <trkpt lat="46.04776" lon="6.35598">
        <ele>649.2</ele>
        <time>2021-03-27T12:55:22Z</time>
      </trkpt>
      <trkpt lat="46.04777" lon="6.35589">
        <ele>649.2</ele>
        <time>2021-03-27T12:55:23Z</time>
      </trkpt>
      <trkpt lat="46.04777" lon="6.3558">
        <ele>649.2</ele>
        <time>2021-03-27T12:55:24Z</time>
      </trkpt>
      <trkpt lat="46.04778" lon="6.35571">
        <ele>649</ele>
        <time>2021-03-27T12:55:25Z</time>
      </trkpt>
      <trkpt lat="46.04778" lon="6.35562">
        <ele>648.8</ele>
        <time>2021-03-27T12:55:26Z</time>
      </trkpt>
      <trkpt lat="46.04779" lon="6.35553">
        <ele>649</ele>
        <time>2021-03-27T12:55:27Z</time>
      </trkpt>
      <trkpt lat="46.0478" lon="6.35544">
        <ele>649</ele>
        <time>2021-03-27T12:55:28Z</time>
      </trkpt>
      <trkpt lat="46.04781" lon="6.35535">
        <ele>649</ele>
        <time>2021-03-27T12:55:29Z</time>
      </trkpt>
      <trkpt lat="46.04782" lon="6.35526">
        <ele>649</ele>
        <time>2021-03-27T12:55:30Z</time>
      </trkpt>
      <trkpt lat="46.04783" lon="6.35518">
        <ele>648.8</ele>
        <time>2021-03-27T12:55:31Z</time>
      </trkpt>
      <trkpt lat="46.04784" lon="6.35509">
        <ele>648.8</ele>
        <time>2021-03-27T12:55:32Z</time>
      </trkpt>
      <trkpt lat="46.04784" lon="6.355">
        <ele>648.8</ele>
        <time>2021-03-27T12:55:33Z</time>
      </trkpt>
      <trkpt lat="46.04785" lon="6.35491">
        <ele>648.8</ele>
        <time>2021-03-27T12:55:34Z</time>
      </trkpt>
      <trkpt lat="46.04786" lon="6.35482">
        <ele>648.6</ele>
        <time>2021-03-27T12:55:35Z</time>
      </trkpt>
      <trkpt lat="46.04786" lon="6.35473">
        <ele>648.6</ele>
        <time>2021-03-27T12:55:36Z</time>
      </trkpt>
      <trkpt lat="46.04785" lon="6.35464">
        <ele>648.6</ele>
        <time>2021-03-27T12:55:37Z</time>
      </trkpt>
      <trkpt lat="46.04784" lon="6.35455">
        <ele>648.6</ele>
        <time>2021-03-27T12:55:38Z</time>
      </trkpt>
      <trkpt lat="46.04784" lon="6.35446">
        <ele>648.4</ele>
        <time>2021-03-27T12:55:39Z</time>
      </trkpt>
      <trkpt lat="46.04782" lon="6.35437">
        <ele>648.4</ele>
        <time>2021-03-27T12:55:40Z</time>
      </trkpt>
      <trkpt lat="46.04782" lon="6.35428">
        <ele>648.4</ele>
        <time>2021-03-27T12:55:41Z</time>
      </trkpt>
      <trkpt lat="46.04781" lon="6.35419">
        <ele>648.6</ele>
        <time>2021-03-27T12:55:42Z</time>
      </trkpt>
      <trkpt lat="46.0478" lon="6.3541">
        <ele>648.6</ele>
        <time>2021-03-27T12:55:43Z</time>
      </trkpt>
      <trkpt lat="46.04779" lon="6.354">
        <ele>648.4</ele>
        <time>2021-03-27T12:55:44Z</time>
      </trkpt>
      <trkpt lat="46.04779" lon="6.35391">
        <ele>648.4</ele>
        <time>2021-03-27T12:55:45Z</time>
      </trkpt>
      <trkpt lat="46.04778" lon="6.35382">
        <ele>648.4</ele>
        <time>2021-03-27T12:55:46Z</time>
      </trkpt>
      <trkpt lat="46.04778" lon="6.35373">
        <ele>648.4</ele>
        <time>2021-03-27T12:55:47Z</time>
      </trkpt>
      <trkpt lat="46.04778" lon="6.35364">
        <ele>648.4</ele>
        <time>2021-03-27T12:55:48Z</time>
      </trkpt>
      <trkpt lat="46.04777" lon="6.35356">
        <ele>648.4</ele>
        <time>2021-03-27T12:55:49Z</time>
      </trkpt>
      <trkpt lat="46.04776" lon="6.35347">
        <ele>648.4</ele>
        <time>2021-03-27T12:55:50Z</time>
      </trkpt>
      <trkpt lat="46.04776" lon="6.35339">
        <ele>648.4</ele>
        <time>2021-03-27T12:55:51Z</time>
      </trkpt>
      <trkpt lat="46.04776" lon="6.35331">
        <ele>648.6</ele>
        <time>2021-03-27T12:55:52Z</time>
      </trkpt>
      <trkpt lat="46.04775" lon="6.35324">
        <ele>648.6</ele>
        <time>2021-03-27T12:55:53Z</time>
      </trkpt>
      <trkpt lat="46.04775" lon="6.35316">
        <ele>648.6</ele>
        <time>2021-03-27T12:55:54Z</time>
      </trkpt>
      <trkpt lat="46.04774" lon="6.35309">
        <ele>648.6</ele>
        <time>2021-03-27T12:55:55Z</time>
      </trkpt>
      <trkpt lat="46.04774" lon="6.35302">
        <ele>648.8</ele>
        <time>2021-03-27T12:55:56Z</time>
      </trkpt>
      <trkpt lat="46.04774" lon="6.35295">
        <ele>649</ele>
        <time>2021-03-27T12:55:57Z</time>
      </trkpt>
      <trkpt lat="46.04775" lon="6.35288">
        <ele>649</ele>
        <time>2021-03-27T12:55:58Z</time>
      </trkpt>
      <trkpt lat="46.04776" lon="6.35281">
        <ele>649.4</ele>
        <time>2021-03-27T12:55:59Z</time>
      </trkpt>
      <trkpt lat="46.04776" lon="6.35274">
        <ele>649.4</ele>
        <time>2021-03-27T12:56:00Z</time>
      </trkpt>
      <trkpt lat="46.04776" lon="6.35267">
        <ele>649.6</ele>
        <time>2021-03-27T12:56:01Z</time>
      </trkpt>
      <trkpt lat="46.04776" lon="6.3526">
        <ele>649.6</ele>
        <time>2021-03-27T12:56:02Z</time>
      </trkpt>
      <trkpt lat="46.04776" lon="6.35253">
        <ele>649.8</ele>
        <time>2021-03-27T12:56:03Z</time>
      </trkpt>
      <trkpt lat="46.04775" lon="6.35246">
        <ele>649.8</ele>
        <time>2021-03-27T12:56:04Z</time>
      </trkpt>
      <trkpt lat="46.04775" lon="6.35239">
        <ele>650.2</ele>
        <time>2021-03-27T12:56:05Z</time>
      </trkpt>
      <trkpt lat="46.04775" lon="6.35232">
        <ele>650.4</ele>
        <time>2021-03-27T12:56:06Z</time>
      </trkpt>
      <trkpt lat="46.04775" lon="6.35225">
        <ele>650.4</ele>
        <time>2021-03-27T12:56:07Z</time>
      </trkpt>
      <trkpt lat="46.04776" lon="6.35218">
        <ele>650.6</ele>
        <time>2021-03-27T12:56:08Z</time>
      </trkpt>
      <trkpt lat="46.04777" lon="6.35212">
        <ele>651</ele>
        <time>2021-03-27T12:56:09Z</time>
      </trkpt>
      <trkpt lat="46.04777" lon="6.35205">
        <ele>651.6</ele>
        <time>2021-03-27T12:56:10Z</time>
      </trkpt>
      <trkpt lat="46.04778" lon="6.35198">
        <ele>651.8</ele>
        <time>2021-03-27T12:56:11Z</time>
      </trkpt>
      <trkpt lat="46.04778" lon="6.35191">
        <ele>652</ele>
        <time>2021-03-27T12:56:12Z</time>
      </trkpt>
      <trkpt lat="46.04778" lon="6.35184">
        <ele>652.2</ele>
        <time>2021-03-27T12:56:13Z</time>
      </trkpt>
      <trkpt lat="46.04779" lon="6.35178">
        <ele>652.4</ele>
        <time>2021-03-27T12:56:14Z</time>
      </trkpt>
      <trkpt lat="46.0478" lon="6.35171">
        <ele>652.6</ele>
        <time>2021-03-27T12:56:15Z</time>
      </trkpt>
      <trkpt lat="46.04782" lon="6.35165">
        <ele>652.8</ele>
        <time>2021-03-27T12:56:16Z</time>
      </trkpt>
      <trkpt lat="46.04784" lon="6.35159">
        <ele>653</ele>
        <time>2021-03-27T12:56:17Z</time>
      </trkpt>
      <trkpt lat="46.04787" lon="6.35153">
        <ele>653</ele>
        <time>2021-03-27T12:56:18Z</time>
      </trkpt>
      <trkpt lat="46.04791" lon="6.35148">
        <ele>653</ele>
        <time>2021-03-27T12:56:19Z</time>
      </trkpt>
      <trkpt lat="46.04794" lon="6.35143">
        <ele>653</ele>
        <time>2021-03-27T12:56:20Z</time>
      </trkpt>
      <trkpt lat="46.04798" lon="6.35138">
        <ele>653.2</ele>
        <time>2021-03-27T12:56:21Z</time>
      </trkpt>
      <trkpt lat="46.04801" lon="6.35133">
        <ele>653.2</ele>
        <time>2021-03-27T12:56:22Z</time>
      </trkpt>
      <trkpt lat="46.04805" lon="6.35129">
        <ele>653.4</ele>
        <time>2021-03-27T12:56:23Z</time>
      </trkpt>
      <trkpt lat="46.04809" lon="6.35124">
        <ele>653.4</ele>
        <time>2021-03-27T12:56:24Z</time>
      </trkpt>
      <trkpt lat="46.04813" lon="6.35119">
        <ele>653.4</ele>
        <time>2021-03-27T12:56:25Z</time>
      </trkpt>
      <trkpt lat="46.04816" lon="6.35114">
        <ele>653.6</ele>
        <time>2021-03-27T12:56:26Z</time>
      </trkpt>
      <trkpt lat="46.04821" lon="6.35108">
        <ele>653.8</ele>
        <time>2021-03-27T12:56:27Z</time>
      </trkpt>
      <trkpt lat="46.04825" lon="6.35103">
        <ele>654</ele>
        <time>2021-03-27T12:56:28Z</time>
      </trkpt>
      <trkpt lat="46.04829" lon="6.35097">
        <ele>654</ele>
        <time>2021-03-27T12:56:29Z</time>
      </trkpt>
      <trkpt lat="46.04834" lon="6.35091">
        <ele>654.4</ele>
        <time>2021-03-27T12:56:30Z</time>
      </trkpt>
      <trkpt lat="46.04838" lon="6.35085">
        <ele>654.6</ele>
        <time>2021-03-27T12:56:31Z</time>
      </trkpt>
      <trkpt lat="46.04842" lon="6.35078">
        <ele>654.6</ele>
        <time>2021-03-27T12:56:32Z</time>
      </trkpt>
      <trkpt lat="46.04845" lon="6.35071">
        <ele>654.6</ele>
        <time>2021-03-27T12:56:33Z</time>
      </trkpt>
      <trkpt lat="46.04848" lon="6.35064">
        <ele>654.8</ele>
        <time>2021-03-27T12:56:34Z</time>
      </trkpt>
      <trkpt lat="46.04851" lon="6.35057">
        <ele>655</ele>
        <time>2021-03-27T12:56:35Z</time>
      </trkpt>
      <trkpt lat="46.04854" lon="6.35049">
        <ele>655</ele>
        <time>2021-03-27T12:56:36Z</time>
      </trkpt>
      <trkpt lat="46.04856" lon="6.3504">
        <ele>655</ele>
        <time>2021-03-27T12:56:37Z</time>
      </trkpt>
      <trkpt lat="46.04858" lon="6.35031">
        <ele>655.2</ele>
        <time>2021-03-27T12:56:38Z</time>
      </trkpt>
      <trkpt lat="46.0486" lon="6.35023">
        <ele>655</ele>
        <time>2021-03-27T12:56:39Z</time>
      </trkpt>
      <trkpt lat="46.04862" lon="6.35014">
        <ele>655</ele>
        <time>2021-03-27T12:56:40Z</time>
      </trkpt>
      <trkpt lat="46.04864" lon="6.35005">
        <ele>655</ele>
        <time>2021-03-27T12:56:41Z</time>
      </trkpt>
      <trkpt lat="46.04865" lon="6.34996">
        <ele>655.2</ele>
        <time>2021-03-27T12:56:42Z</time>
      </trkpt>
      <trkpt lat="46.04867" lon="6.34987">
        <ele>655.2</ele>
        <time>2021-03-27T12:56:43Z</time>
      </trkpt>
      <trkpt lat="46.04868" lon="6.34979">
        <ele>655.2</ele>
        <time>2021-03-27T12:56:44Z</time>
      </trkpt>
      <trkpt lat="46.0487" lon="6.3497">
        <ele>655</ele>
        <time>2021-03-27T12:56:45Z</time>
      </trkpt>
      <trkpt lat="46.04872" lon="6.34961">
        <ele>655</ele>
        <time>2021-03-27T12:56:46Z</time>
      </trkpt>
      <trkpt lat="46.04873" lon="6.34953">
        <ele>655.2</ele>
        <time>2021-03-27T12:56:47Z</time>
      </trkpt>
      <trkpt lat="46.04875" lon="6.34944">
        <ele>655</ele>
        <time>2021-03-27T12:56:48Z</time>
      </trkpt>
      <trkpt lat="46.04877" lon="6.34935">
        <ele>655</ele>
        <time>2021-03-27T12:56:49Z</time>
      </trkpt>
      <trkpt lat="46.04879" lon="6.34927">
        <ele>655</ele>
        <time>2021-03-27T12:56:50Z</time>
      </trkpt>
      <trkpt lat="46.0488" lon="6.34918">
        <ele>655</ele>
        <time>2021-03-27T12:56:51Z</time>
      </trkpt>
      <trkpt lat="46.04882" lon="6.3491">
        <ele>655</ele>
        <time>2021-03-27T12:56:52Z</time>
      </trkpt>
      <trkpt lat="46.04884" lon="6.34901">
        <ele>655</ele>
        <time>2021-03-27T12:56:53Z</time>
      </trkpt>
      <trkpt lat="46.04885" lon="6.34893">
        <ele>655</ele>
        <time>2021-03-27T12:56:54Z</time>
      </trkpt>
      <trkpt lat="46.04887" lon="6.34884">
        <ele>655</ele>
        <time>2021-03-27T12:56:55Z</time>
      </trkpt>
      <trkpt lat="46.04888" lon="6.34876">
        <ele>655</ele>
        <time>2021-03-27T12:56:56Z</time>
      </trkpt>
      <trkpt lat="46.0489" lon="6.34867">
        <ele>655</ele>
        <time>2021-03-27T12:56:57Z</time>
      </trkpt>
      <trkpt lat="46.04891" lon="6.34858">
        <ele>655</ele>
        <time>2021-03-27T12:56:58Z</time>
      </trkpt>
      <trkpt lat="46.04892" lon="6.3485">
        <ele>655</ele>
        <time>2021-03-27T12:56:59Z</time>
      </trkpt>
      <trkpt lat="46.04893" lon="6.34841">
        <ele>655</ele>
        <time>2021-03-27T12:57:00Z</time>
      </trkpt>
      <trkpt lat="46.04893" lon="6.34832">
        <ele>655.2</ele>
        <time>2021-03-27T12:57:01Z</time>
      </trkpt>
      <trkpt lat="46.04894" lon="6.34822">
        <ele>655.2</ele>
        <time>2021-03-27T12:57:02Z</time>
      </trkpt>
      <trkpt lat="46.04895" lon="6.34813">
        <ele>655.2</ele>
        <time>2021-03-27T12:57:03Z</time>
      </trkpt>
      <trkpt lat="46.04895" lon="6.34803">
        <ele>655.2</ele>
        <time>2021-03-27T12:57:04Z</time>
      </trkpt>
      <trkpt lat="46.04896" lon="6.34793">
        <ele>655.2</ele>
        <time>2021-03-27T12:57:05Z</time>
      </trkpt>
      <trkpt lat="46.04896" lon="6.34784">
        <ele>655.2</ele>
        <time>2021-03-27T12:57:06Z</time>
      </trkpt>
      <trkpt lat="46.04897" lon="6.34774">
        <ele>655.2</ele>
        <time>2021-03-27T12:57:07Z</time>
      </trkpt>
      <trkpt lat="46.04898" lon="6.34764">
        <ele>655.2</ele>
        <time>2021-03-27T12:57:08Z</time>
      </trkpt>
      <trkpt lat="46.04899" lon="6.34754">
        <ele>655</ele>
        <time>2021-03-27T12:57:09Z</time>
      </trkpt>
      <trkpt lat="46.04899" lon="6.34744">
        <ele>655.2</ele>
        <time>2021-03-27T12:57:10Z</time>
      </trkpt>
      <trkpt lat="46.049" lon="6.34734">
        <ele>655.2</ele>
        <time>2021-03-27T12:57:11Z</time>
      </trkpt>
      <trkpt lat="46.049" lon="6.34724">
        <ele>655.2</ele>
        <time>2021-03-27T12:57:12Z</time>
      </trkpt>
      <trkpt lat="46.04901" lon="6.34714">
        <ele>655.4</ele>
        <time>2021-03-27T12:57:13Z</time>
      </trkpt>
      <trkpt lat="46.04903" lon="6.34704">
        <ele>655.4</ele>
        <time>2021-03-27T12:57:14Z</time>
      </trkpt>
      <trkpt lat="46.04904" lon="6.34693">
        <ele>655.2</ele>
        <time>2021-03-27T12:57:15Z</time>
      </trkpt>
      <trkpt lat="46.04904" lon="6.34683">
        <ele>655.2</ele>
        <time>2021-03-27T12:57:16Z</time>
      </trkpt>
      <trkpt lat="46.04905" lon="6.34672">
        <ele>655.2</ele>
        <time>2021-03-27T12:57:17Z</time>
      </trkpt>
      <trkpt lat="46.04905" lon="6.34661">
        <ele>655.2</ele>
        <time>2021-03-27T12:57:18Z</time>
      </trkpt>
      <trkpt lat="46.04906" lon="6.3465">
        <ele>655.2</ele>
        <time>2021-03-27T12:57:19Z</time>
      </trkpt>
      <trkpt lat="46.04906" lon="6.34639">
        <ele>655</ele>
        <time>2021-03-27T12:57:20Z</time>
      </trkpt>
      <trkpt lat="46.04906" lon="6.34628">
        <ele>655</ele>
        <time>2021-03-27T12:57:21Z</time>
      </trkpt>
      <trkpt lat="46.04906" lon="6.34617">
        <ele>655</ele>
        <time>2021-03-27T12:57:22Z</time>
      </trkpt>
      <trkpt lat="46.04906" lon="6.34607">
        <ele>655</ele>
        <time>2021-03-27T12:57:23Z</time>
      </trkpt>
      <trkpt lat="46.04906" lon="6.34597">
        <ele>655.2</ele>
        <time>2021-03-27T12:57:24Z</time>
      </trkpt>
      <trkpt lat="46.04907" lon="6.34587">
        <ele>655.2</ele>
        <time>2021-03-27T12:57:25Z</time>
      </trkpt>
      <trkpt lat="46.04907" lon="6.34578">
        <ele>655.2</ele>
        <time>2021-03-27T12:57:26Z</time>
      </trkpt>
      <trkpt lat="46.04907" lon="6.34569">
        <ele>655</ele>
        <time>2021-03-27T12:57:27Z</time>
      </trkpt>
      <trkpt lat="46.04907" lon="6.3456">
        <ele>655.2</ele>
        <time>2021-03-27T12:57:28Z</time>
      </trkpt>
      <trkpt lat="46.04907" lon="6.34552">
        <ele>655.2</ele>
        <time>2021-03-27T12:57:29Z</time>
      </trkpt>
      <trkpt lat="46.04906" lon="6.34544">
        <ele>655.2</ele>
        <time>2021-03-27T12:57:30Z</time>
      </trkpt>
      <trkpt lat="46.04906" lon="6.34536">
        <ele>655.4</ele>
        <time>2021-03-27T12:57:31Z</time>
      </trkpt>
      <trkpt lat="46.04905" lon="6.34527">
        <ele>655.4</ele>
        <time>2021-03-27T12:57:32Z</time>
      </trkpt>
      <trkpt lat="46.04904" lon="6.34519">
        <ele>655.4</ele>
        <time>2021-03-27T12:57:33Z</time>
      </trkpt>
      <trkpt lat="46.04903" lon="6.34511">
        <ele>655.4</ele>
        <time>2021-03-27T12:57:34Z</time>
      </trkpt>
      <trkpt lat="46.04902" lon="6.34503">
        <ele>656</ele>
        <time>2021-03-27T12:57:35Z</time>
      </trkpt>
      <trkpt lat="46.04901" lon="6.34495">
        <ele>656.4</ele>
        <time>2021-03-27T12:57:36Z</time>
      </trkpt>
      <trkpt lat="46.04899" lon="6.34479">
        <ele>657</ele>
        <time>2021-03-27T12:57:38Z</time>
      </trkpt>
      <trkpt lat="46.04898" lon="6.34471">
        <ele>657.2</ele>
        <time>2021-03-27T12:57:39Z</time>
      </trkpt>
      <trkpt lat="46.04897" lon="6.34463">
        <ele>657.4</ele>
        <time>2021-03-27T12:57:40Z</time>
      </trkpt>
      <trkpt lat="46.04896" lon="6.34455">
        <ele>657.6</ele>
        <time>2021-03-27T12:57:41Z</time>
      </trkpt>
      <trkpt lat="46.04894" lon="6.34439">
        <ele>657.8</ele>
        <time>2021-03-27T12:57:43Z</time>
      </trkpt>
      <trkpt lat="46.04893" lon="6.34431">
        <ele>657.8</ele>
        <time>2021-03-27T12:57:44Z</time>
      </trkpt>
      <trkpt lat="46.04892" lon="6.34422">
        <ele>657.8</ele>
        <time>2021-03-27T12:57:45Z</time>
      </trkpt>
      <trkpt lat="46.04891" lon="6.34414">
        <ele>657.8</ele>
        <time>2021-03-27T12:57:46Z</time>
      </trkpt>
      <trkpt lat="46.0489" lon="6.34406">
        <ele>658</ele>
        <time>2021-03-27T12:57:47Z</time>
      </trkpt>
      <trkpt lat="46.04889" lon="6.34398">
        <ele>658</ele>
        <time>2021-03-27T12:57:48Z</time>
      </trkpt>
      <trkpt lat="46.04887" lon="6.3439">
        <ele>658</ele>
        <time>2021-03-27T12:57:49Z</time>
      </trkpt>
      <trkpt lat="46.04886" lon="6.34382">
        <ele>658</ele>
        <time>2021-03-27T12:57:50Z</time>
      </trkpt>
      <trkpt lat="46.04884" lon="6.34374">
        <ele>658.2</ele>
        <time>2021-03-27T12:57:51Z</time>
      </trkpt>
      <trkpt lat="46.04883" lon="6.34366">
        <ele>658.2</ele>
        <time>2021-03-27T12:57:52Z</time>
      </trkpt>
      <trkpt lat="46.04881" lon="6.34359">
        <ele>658.2</ele>
        <time>2021-03-27T12:57:53Z</time>
      </trkpt>
      <trkpt lat="46.0488" lon="6.34351">
        <ele>658.4</ele>
        <time>2021-03-27T12:57:54Z</time>
      </trkpt>
      <trkpt lat="46.0488" lon="6.34343">
        <ele>658.6</ele>
        <time>2021-03-27T12:57:55Z</time>
      </trkpt>
      <trkpt lat="46.04879" lon="6.34335">
        <ele>658.6</ele>
        <time>2021-03-27T12:57:56Z</time>
      </trkpt>
      <trkpt lat="46.04878" lon="6.34327">
        <ele>658.8</ele>
        <time>2021-03-27T12:57:57Z</time>
      </trkpt>
      <trkpt lat="46.04877" lon="6.34319">
        <ele>658.8</ele>
        <time>2021-03-27T12:57:58Z</time>
      </trkpt>
      <trkpt lat="46.04876" lon="6.3431">
        <ele>659</ele>
        <time>2021-03-27T12:57:59Z</time>
      </trkpt>
      <trkpt lat="46.04875" lon="6.34301">
        <ele>659</ele>
        <time>2021-03-27T12:58:00Z</time>
      </trkpt>
      <trkpt lat="46.04875" lon="6.34291">
        <ele>659.2</ele>
        <time>2021-03-27T12:58:01Z</time>
      </trkpt>
      <trkpt lat="46.04875" lon="6.34282">
        <ele>659.4</ele>
        <time>2021-03-27T12:58:02Z</time>
      </trkpt>
      <trkpt lat="46.04875" lon="6.34271">
        <ele>659.4</ele>
        <time>2021-03-27T12:58:03Z</time>
      </trkpt>
      <trkpt lat="46.04876" lon="6.34261">
        <ele>659.4</ele>
        <time>2021-03-27T12:58:04Z</time>
      </trkpt>
      <trkpt lat="46.04877" lon="6.3425">
        <ele>659.4</ele>
        <time>2021-03-27T12:58:05Z</time>
      </trkpt>
      <trkpt lat="46.04878" lon="6.34239">
        <ele>659.6</ele>
        <time>2021-03-27T12:58:06Z</time>
      </trkpt>
      <trkpt lat="46.04879" lon="6.34229">
        <ele>659.4</ele>
        <time>2021-03-27T12:58:07Z</time>
      </trkpt>
      <trkpt lat="46.0488" lon="6.34218">
        <ele>659.6</ele>
        <time>2021-03-27T12:58:08Z</time>
      </trkpt>
      <trkpt lat="46.04881" lon="6.34207">
        <ele>659.6</ele>
        <time>2021-03-27T12:58:09Z</time>
      </trkpt>
      <trkpt lat="46.04882" lon="6.34197">
        <ele>659.4</ele>
        <time>2021-03-27T12:58:10Z</time>
      </trkpt>
      <trkpt lat="46.04883" lon="6.34186">
        <ele>659.2</ele>
        <time>2021-03-27T12:58:11Z</time>
      </trkpt>
      <trkpt lat="46.04885" lon="6.34175">
        <ele>658.2</ele>
        <time>2021-03-27T12:58:12Z</time>
      </trkpt>
      <trkpt lat="46.04886" lon="6.34164">
        <ele>657.6</ele>
        <time>2021-03-27T12:58:13Z</time>
      </trkpt>
      <trkpt lat="46.04887" lon="6.34153">
        <ele>657</ele>
        <time>2021-03-27T12:58:14Z</time>
      </trkpt>
      <trkpt lat="46.04889" lon="6.34142">
        <ele>656.8</ele>
        <time>2021-03-27T12:58:15Z</time>
      </trkpt>
      <trkpt lat="46.0489" lon="6.34131">
        <ele>656.6</ele>
        <time>2021-03-27T12:58:16Z</time>
      </trkpt>
      <trkpt lat="46.04893" lon="6.34119">
        <ele>656.2</ele>
        <time>2021-03-27T12:58:17Z</time>
      </trkpt>
      <trkpt lat="46.04895" lon="6.34108">
        <ele>656.4</ele>
        <time>2021-03-27T12:58:18Z</time>
      </trkpt>
      <trkpt lat="46.04898" lon="6.34096">
        <ele>656.2</ele>
        <time>2021-03-27T12:58:19Z</time>
      </trkpt>
      <trkpt lat="46.04901" lon="6.34084">
        <ele>656.2</ele>
        <time>2021-03-27T12:58:20Z</time>
      </trkpt>
      <trkpt lat="46.04904" lon="6.34071">
        <ele>655.8</ele>
        <time>2021-03-27T12:58:21Z</time>
      </trkpt>
      <trkpt lat="46.04907" lon="6.34059">
        <ele>655.2</ele>
        <time>2021-03-27T12:58:22Z</time>
      </trkpt>
      <trkpt lat="46.0491" lon="6.34046">
        <ele>654.8</ele>
        <time>2021-03-27T12:58:23Z</time>
      </trkpt>
      <trkpt lat="46.04913" lon="6.34033">
        <ele>654</ele>
        <time>2021-03-27T12:58:24Z</time>
      </trkpt>
      <trkpt lat="46.04916" lon="6.3402">
        <ele>652.8</ele>
        <time>2021-03-27T12:58:25Z</time>
      </trkpt>
      <trkpt lat="46.04918" lon="6.34007">
        <ele>651.8</ele>
        <time>2021-03-27T12:58:26Z</time>
      </trkpt>
      <trkpt lat="46.0492" lon="6.33994">
        <ele>651.4</ele>
        <time>2021-03-27T12:58:27Z</time>
      </trkpt>
      <trkpt lat="46.04922" lon="6.33981">
        <ele>650.6</ele>
        <time>2021-03-27T12:58:28Z</time>
      </trkpt>
      <trkpt lat="46.04924" lon="6.33969">
        <ele>649.4</ele>
        <time>2021-03-27T12:58:29Z</time>
      </trkpt>
      <trkpt lat="46.04926" lon="6.33956">
        <ele>648</ele>
        <time>2021-03-27T12:58:30Z</time>
      </trkpt>
      <trkpt lat="46.04928" lon="6.33943">
        <ele>647.4</ele>
        <time>2021-03-27T12:58:31Z</time>
      </trkpt>
      <trkpt lat="46.0493" lon="6.33931">
        <ele>646.8</ele>
        <time>2021-03-27T12:58:32Z</time>
      </trkpt>
      <trkpt lat="46.04931" lon="6.33918">
        <ele>645.8</ele>
        <time>2021-03-27T12:58:33Z</time>
      </trkpt>
      <trkpt lat="46.04932" lon="6.33905">
        <ele>644.6</ele>
        <time>2021-03-27T12:58:34Z</time>
      </trkpt>
      <trkpt lat="46.04933" lon="6.33893">
        <ele>644</ele>
        <time>2021-03-27T12:58:35Z</time>
      </trkpt>
      <trkpt lat="46.04933" lon="6.3388">
        <ele>643.4</ele>
        <time>2021-03-27T12:58:36Z</time>
      </trkpt>
      <trkpt lat="46.04934" lon="6.33868">
        <ele>643.4</ele>
        <time>2021-03-27T12:58:37Z</time>
      </trkpt>
      <trkpt lat="46.04934" lon="6.33855">
        <ele>643.2</ele>
        <time>2021-03-27T12:58:38Z</time>
      </trkpt>
      <trkpt lat="46.04934" lon="6.33843">
        <ele>643</ele>
        <time>2021-03-27T12:58:39Z</time>
      </trkpt>
      <trkpt lat="46.04934" lon="6.3383">
        <ele>642.6</ele>
        <time>2021-03-27T12:58:40Z</time>
      </trkpt>
      <trkpt lat="46.04934" lon="6.33818">
        <ele>642.4</ele>
        <time>2021-03-27T12:58:41Z</time>
      </trkpt>
      <trkpt lat="46.04934" lon="6.33805">
        <ele>642</ele>
        <time>2021-03-27T12:58:42Z</time>
      </trkpt>
      <trkpt lat="46.04935" lon="6.33792">
        <ele>641.8</ele>
        <time>2021-03-27T12:58:43Z</time>
      </trkpt>
      <trkpt lat="46.04935" lon="6.33779">
        <ele>641.6</ele>
        <time>2021-03-27T12:58:44Z</time>
      </trkpt>
      <trkpt lat="46.04935" lon="6.33767">
        <ele>641.4</ele>
        <time>2021-03-27T12:58:45Z</time>
      </trkpt>
      <trkpt lat="46.04936" lon="6.33754">
        <ele>641.2</ele>
        <time>2021-03-27T12:58:46Z</time>
      </trkpt>
      <trkpt lat="46.04936" lon="6.33742">
        <ele>641</ele>
        <time>2021-03-27T12:58:47Z</time>
      </trkpt>
      <trkpt lat="46.04937" lon="6.33729">
        <ele>640.6</ele>
        <time>2021-03-27T12:58:48Z</time>
      </trkpt>
      <trkpt lat="46.04938" lon="6.33717">
        <ele>640.4</ele>
        <time>2021-03-27T12:58:49Z</time>
      </trkpt>
      <trkpt lat="46.04938" lon="6.33705">
        <ele>640.4</ele>
        <time>2021-03-27T12:58:50Z</time>
      </trkpt>
      <trkpt lat="46.04939" lon="6.33693">
        <ele>640.2</ele>
        <time>2021-03-27T12:58:51Z</time>
      </trkpt>
      <trkpt lat="46.04939" lon="6.33681">
        <ele>640</ele>
        <time>2021-03-27T12:58:52Z</time>
      </trkpt>
      <trkpt lat="46.0494" lon="6.33669">
        <ele>639.6</ele>
        <time>2021-03-27T12:58:53Z</time>
      </trkpt>
      <trkpt lat="46.04941" lon="6.33657">
        <ele>639.6</ele>
        <time>2021-03-27T12:58:54Z</time>
      </trkpt>
      <trkpt lat="46.04942" lon="6.33645">
        <ele>639.4</ele>
        <time>2021-03-27T12:58:55Z</time>
      </trkpt>
      <trkpt lat="46.04942" lon="6.33634">
        <ele>638.6</ele>
        <time>2021-03-27T12:58:56Z</time>
      </trkpt>
      <trkpt lat="46.04943" lon="6.33623">
        <ele>637.8</ele>
        <time>2021-03-27T12:58:57Z</time>
      </trkpt>
      <trkpt lat="46.04944" lon="6.33612">
        <ele>637.6</ele>
        <time>2021-03-27T12:58:58Z</time>
      </trkpt>
      <trkpt lat="46.04945" lon="6.33601">
        <ele>637.4</ele>
        <time>2021-03-27T12:58:59Z</time>
      </trkpt>
      <trkpt lat="46.04947" lon="6.33591">
        <ele>637.2</ele>
        <time>2021-03-27T12:59:00Z</time>
      </trkpt>
      <trkpt lat="46.04949" lon="6.3358">
        <ele>637</ele>
        <time>2021-03-27T12:59:01Z</time>
      </trkpt>
      <trkpt lat="46.0495" lon="6.33571">
        <ele>637.2</ele>
        <time>2021-03-27T12:59:02Z</time>
      </trkpt>
      <trkpt lat="46.04951" lon="6.33561">
        <ele>637</ele>
        <time>2021-03-27T12:59:03Z</time>
      </trkpt>
      <trkpt lat="46.04953" lon="6.33551">
        <ele>636.8</ele>
        <time>2021-03-27T12:59:04Z</time>
      </trkpt>
      <trkpt lat="46.04955" lon="6.33542">
        <ele>636.8</ele>
        <time>2021-03-27T12:59:05Z</time>
      </trkpt>
      <trkpt lat="46.04958" lon="6.33532">
        <ele>636.6</ele>
        <time>2021-03-27T12:59:06Z</time>
      </trkpt>
      <trkpt lat="46.04961" lon="6.33522">
        <ele>636.6</ele>
        <time>2021-03-27T12:59:07Z</time>
      </trkpt>
      <trkpt lat="46.04966" lon="6.33512">
        <ele>636.4</ele>
        <time>2021-03-27T12:59:08Z</time>
      </trkpt>
      <trkpt lat="46.0497" lon="6.33504">
        <ele>636.4</ele>
        <time>2021-03-27T12:59:09Z</time>
      </trkpt>
      <trkpt lat="46.04976" lon="6.33496">
        <ele>636.4</ele>
        <time>2021-03-27T12:59:10Z</time>
      </trkpt>
      <trkpt lat="46.04981" lon="6.33488">
        <ele>636.2</ele>
        <time>2021-03-27T12:59:11Z</time>
      </trkpt>
      <trkpt lat="46.04988" lon="6.33481">
        <ele>636</ele>
        <time>2021-03-27T12:59:12Z</time>
      </trkpt>
      <trkpt lat="46.04994" lon="6.33474">
        <ele>636</ele>
        <time>2021-03-27T12:59:13Z</time>
      </trkpt>
      <trkpt lat="46.05001" lon="6.33467">
        <ele>635.8</ele>
        <time>2021-03-27T12:59:14Z</time>
      </trkpt>
      <trkpt lat="46.05007" lon="6.33459">
        <ele>635.8</ele>
        <time>2021-03-27T12:59:15Z</time>
      </trkpt>
      <trkpt lat="46.05014" lon="6.33452">
        <ele>635.6</ele>
        <time>2021-03-27T12:59:16Z</time>
      </trkpt>
      <trkpt lat="46.05021" lon="6.33444">
        <ele>635.8</ele>
        <time>2021-03-27T12:59:17Z</time>
      </trkpt>
      <trkpt lat="46.05028" lon="6.33436">
        <ele>635.6</ele>
        <time>2021-03-27T12:59:18Z</time>
      </trkpt>
      <trkpt lat="46.05035" lon="6.33428">
        <ele>635.6</ele>
        <time>2021-03-27T12:59:19Z</time>
      </trkpt>
      <trkpt lat="46.05041" lon="6.33421">
        <ele>635.2</ele>
        <time>2021-03-27T12:59:20Z</time>
      </trkpt>
      <trkpt lat="46.05048" lon="6.33413">
        <ele>635</ele>
        <time>2021-03-27T12:59:21Z</time>
      </trkpt>
      <trkpt lat="46.05054" lon="6.33406">
        <ele>634.8</ele>
        <time>2021-03-27T12:59:22Z</time>
      </trkpt>
      <trkpt lat="46.05061" lon="6.33399">
        <ele>634.4</ele>
        <time>2021-03-27T12:59:23Z</time>
      </trkpt>
      <trkpt lat="46.05067" lon="6.33391">
        <ele>634.2</ele>
        <time>2021-03-27T12:59:24Z</time>
      </trkpt>
      <trkpt lat="46.05073" lon="6.33384">
        <ele>633.8</ele>
        <time>2021-03-27T12:59:25Z</time>
      </trkpt>
      <trkpt lat="46.05079" lon="6.33376">
        <ele>633.6</ele>
        <time>2021-03-27T12:59:26Z</time>
      </trkpt>
      <trkpt lat="46.05086" lon="6.33369">
        <ele>633</ele>
        <time>2021-03-27T12:59:27Z</time>
      </trkpt>
      <trkpt lat="46.05092" lon="6.33361">
        <ele>632.8</ele>
        <time>2021-03-27T12:59:28Z</time>
      </trkpt>
      <trkpt lat="46.05098" lon="6.33354">
        <ele>632.6</ele>
        <time>2021-03-27T12:59:29Z</time>
      </trkpt>
      <trkpt lat="46.05103" lon="6.33345">
        <ele>632.4</ele>
        <time>2021-03-27T12:59:30Z</time>
      </trkpt>
      <trkpt lat="46.05108" lon="6.33337">
        <ele>632.2</ele>
        <time>2021-03-27T12:59:31Z</time>
      </trkpt>
      <trkpt lat="46.05112" lon="6.33328">
        <ele>632.4</ele>
        <time>2021-03-27T12:59:32Z</time>
      </trkpt>
      <trkpt lat="46.05116" lon="6.33319">
        <ele>632.2</ele>
        <time>2021-03-27T12:59:33Z</time>
      </trkpt>
      <trkpt lat="46.0512" lon="6.33309">
        <ele>632.2</ele>
        <time>2021-03-27T12:59:34Z</time>
      </trkpt>
      <trkpt lat="46.05123" lon="6.333">
        <ele>632</ele>
        <time>2021-03-27T12:59:35Z</time>
      </trkpt>
      <trkpt lat="46.05126" lon="6.3329">
        <ele>632</ele>
        <time>2021-03-27T12:59:36Z</time>
      </trkpt>
      <trkpt lat="46.0513" lon="6.33281">
        <ele>632.2</ele>
        <time>2021-03-27T12:59:37Z</time>
      </trkpt>
      <trkpt lat="46.05133" lon="6.33271">
        <ele>632</ele>
        <time>2021-03-27T12:59:38Z</time>
      </trkpt>
      <trkpt lat="46.05136" lon="6.33262">
        <ele>632</ele>
        <time>2021-03-27T12:59:39Z</time>
      </trkpt>
      <trkpt lat="46.05139" lon="6.33252">
        <ele>631.8</ele>
        <time>2021-03-27T12:59:40Z</time>
      </trkpt>
      <trkpt lat="46.05142" lon="6.33242">
        <ele>631.8</ele>
        <time>2021-03-27T12:59:41Z</time>
      </trkpt>
      <trkpt lat="46.05146" lon="6.33232">
        <ele>631.6</ele>
        <time>2021-03-27T12:59:42Z</time>
      </trkpt>
      <trkpt lat="46.05149" lon="6.33223">
        <ele>631.6</ele>
        <time>2021-03-27T12:59:43Z</time>
      </trkpt>
      <trkpt lat="46.05152" lon="6.33213">
        <ele>631.6</ele>
        <time>2021-03-27T12:59:44Z</time>
      </trkpt>
      <trkpt lat="46.05155" lon="6.33202">
        <ele>631.6</ele>
        <time>2021-03-27T12:59:45Z</time>
      </trkpt>
      <trkpt lat="46.05159" lon="6.33192">
        <ele>631.4</ele>
        <time>2021-03-27T12:59:46Z</time>
      </trkpt>
      <trkpt lat="46.05162" lon="6.33182">
        <ele>631.4</ele>
        <time>2021-03-27T12:59:47Z</time>
      </trkpt>
      <trkpt lat="46.05165" lon="6.33172">
        <ele>631.4</ele>
        <time>2021-03-27T12:59:48Z</time>
      </trkpt>
      <trkpt lat="46.05169" lon="6.33162">
        <ele>631.2</ele>
        <time>2021-03-27T12:59:49Z</time>
      </trkpt>
      <trkpt lat="46.05172" lon="6.33152">
        <ele>631.2</ele>
        <time>2021-03-27T12:59:50Z</time>
      </trkpt>
      <trkpt lat="46.05175" lon="6.33142">
        <ele>631</ele>
        <time>2021-03-27T12:59:51Z</time>
      </trkpt>
      <trkpt lat="46.05178" lon="6.33132">
        <ele>631</ele>
        <time>2021-03-27T12:59:52Z</time>
      </trkpt>
      <trkpt lat="46.05181" lon="6.33122">
        <ele>631</ele>
        <time>2021-03-27T12:59:53Z</time>
      </trkpt>
      <trkpt lat="46.05185" lon="6.33113">
        <ele>630.8</ele>
        <time>2021-03-27T12:59:54Z</time>
      </trkpt>
      <trkpt lat="46.05188" lon="6.33103">
        <ele>631</ele>
        <time>2021-03-27T12:59:55Z</time>
      </trkpt>
      <trkpt lat="46.05191" lon="6.33093">
        <ele>630.6</ele>
        <time>2021-03-27T12:59:56Z</time>
      </trkpt>
      <trkpt lat="46.05194" lon="6.33083">
        <ele>630.4</ele>
        <time>2021-03-27T12:59:57Z</time>
      </trkpt>
      <trkpt lat="46.05198" lon="6.33073">
        <ele>630.4</ele>
        <time>2021-03-27T12:59:58Z</time>
      </trkpt>
      <trkpt lat="46.05202" lon="6.33062">
        <ele>630.2</ele>
        <time>2021-03-27T12:59:59Z</time>
      </trkpt>
      <trkpt lat="46.05206" lon="6.33052">
        <ele>630</ele>
        <time>2021-03-27T13:00:00Z</time>
      </trkpt>
      <trkpt lat="46.05211" lon="6.33042">
        <ele>629.6</ele>
        <time>2021-03-27T13:00:01Z</time>
      </trkpt>
      <trkpt lat="46.05216" lon="6.33033">
        <ele>629.2</ele>
        <time>2021-03-27T13:00:02Z</time>
      </trkpt>
      <trkpt lat="46.05222" lon="6.33024">
        <ele>629</ele>
        <time>2021-03-27T13:00:03Z</time>
      </trkpt>
      <trkpt lat="46.05229" lon="6.33016">
        <ele>628.6</ele>
        <time>2021-03-27T13:00:04Z</time>
      </trkpt>
      <trkpt lat="46.05235" lon="6.33009">
        <ele>628.6</ele>
        <time>2021-03-27T13:00:05Z</time>
      </trkpt>
      <trkpt lat="46.05242" lon="6.33003">
        <ele>628</ele>
        <time>2021-03-27T13:00:06Z</time>
      </trkpt>
      <trkpt lat="46.0525" lon="6.32997">
        <ele>627.6</ele>
        <time>2021-03-27T13:00:07Z</time>
      </trkpt>
      <trkpt lat="46.05258" lon="6.32992">
        <ele>626.8</ele>
        <time>2021-03-27T13:00:08Z</time>
      </trkpt>
      <trkpt lat="46.05264" lon="6.32987">
        <ele>626.2</ele>
        <time>2021-03-27T13:00:09Z</time>
      </trkpt>
      <trkpt lat="46.05271" lon="6.32982">
        <ele>625.4</ele>
        <time>2021-03-27T13:00:10Z</time>
      </trkpt>
      <trkpt lat="46.05278" lon="6.32978">
        <ele>625.2</ele>
        <time>2021-03-27T13:00:11Z</time>
      </trkpt>
      <trkpt lat="46.05284" lon="6.32973">
        <ele>624.8</ele>
        <time>2021-03-27T13:00:12Z</time>
      </trkpt>
      <trkpt lat="46.0529" lon="6.32969">
        <ele>624.8</ele>
        <time>2021-03-27T13:00:13Z</time>
      </trkpt>
      <trkpt lat="46.05296" lon="6.32964">
        <ele>624.8</ele>
        <time>2021-03-27T13:00:14Z</time>
      </trkpt>
      <trkpt lat="46.05302" lon="6.32959">
        <ele>624.4</ele>
        <time>2021-03-27T13:00:15Z</time>
      </trkpt>
      <trkpt lat="46.05308" lon="6.32954">
        <ele>624.4</ele>
        <time>2021-03-27T13:00:16Z</time>
      </trkpt>
      <trkpt lat="46.05312" lon="6.32947">
        <ele>624.2</ele>
        <time>2021-03-27T13:00:17Z</time>
      </trkpt>
      <trkpt lat="46.05316" lon="6.32941">
        <ele>624</ele>
        <time>2021-03-27T13:00:18Z</time>
      </trkpt>
      <trkpt lat="46.05319" lon="6.32935">
        <ele>624.2</ele>
        <time>2021-03-27T13:00:19Z</time>
      </trkpt>
      <trkpt lat="46.0532" lon="6.32929">
        <ele>624</ele>
        <time>2021-03-27T13:00:20Z</time>
      </trkpt>
      <trkpt lat="46.05321" lon="6.32923">
        <ele>624</ele>
        <time>2021-03-27T13:00:21Z</time>
      </trkpt>
      <trkpt lat="46.0532" lon="6.32917">
        <ele>623.6</ele>
        <time>2021-03-27T13:00:22Z</time>
      </trkpt>
      <trkpt lat="46.05317" lon="6.32913">
        <ele>623.2</ele>
        <time>2021-03-27T13:00:23Z</time>
      </trkpt>
      <trkpt lat="46.05313" lon="6.3291">
        <ele>623</ele>
        <time>2021-03-27T13:00:24Z</time>
      </trkpt>
      <trkpt lat="46.05308" lon="6.32907">
        <ele>622.4</ele>
        <time>2021-03-27T13:00:25Z</time>
      </trkpt>
      <trkpt lat="46.05302" lon="6.32903">
        <ele>621.8</ele>
        <time>2021-03-27T13:00:26Z</time>
      </trkpt>
      <trkpt lat="46.05297" lon="6.32897">
        <ele>621.4</ele>
        <time>2021-03-27T13:00:27Z</time>
      </trkpt>
      <trkpt lat="46.05291" lon="6.32891">
        <ele>621</ele>
        <time>2021-03-27T13:00:28Z</time>
      </trkpt>
      <trkpt lat="46.05286" lon="6.32884">
        <ele>621</ele>
        <time>2021-03-27T13:00:29Z</time>
      </trkpt>
      <trkpt lat="46.0528" lon="6.32877">
        <ele>621</ele>
        <time>2021-03-27T13:00:30Z</time>
      </trkpt>
      <trkpt lat="46.05274" lon="6.32869">
        <ele>620.6</ele>
        <time>2021-03-27T13:00:31Z</time>
      </trkpt>
      <trkpt lat="46.05268" lon="6.32862">
        <ele>620.4</ele>
        <time>2021-03-27T13:00:32Z</time>
      </trkpt>
      <trkpt lat="46.05262" lon="6.32855">
        <ele>620</ele>
        <time>2021-03-27T13:00:33Z</time>
      </trkpt>
      <trkpt lat="46.05256" lon="6.32848">
        <ele>619.4</ele>
        <time>2021-03-27T13:00:34Z</time>
      </trkpt>
      <trkpt lat="46.0525" lon="6.3284">
        <ele>618.8</ele>
        <time>2021-03-27T13:00:35Z</time>
      </trkpt>
      <trkpt lat="46.05244" lon="6.32832">
        <ele>618.4</ele>
        <time>2021-03-27T13:00:36Z</time>
      </trkpt>
      <trkpt lat="46.05239" lon="6.32825">
        <ele>617.8</ele>
        <time>2021-03-27T13:00:37Z</time>
      </trkpt>
      <trkpt lat="46.05233" lon="6.32817">
        <ele>617.2</ele>
        <time>2021-03-27T13:00:38Z</time>
      </trkpt>
      <trkpt lat="46.05228" lon="6.3281">
        <ele>616.8</ele>
        <time>2021-03-27T13:00:39Z</time>
      </trkpt>
      <trkpt lat="46.05222" lon="6.32802">
        <ele>616.8</ele>
        <time>2021-03-27T13:00:40Z</time>
      </trkpt>
      <trkpt lat="46.05217" lon="6.32795">
        <ele>616.6</ele>
        <time>2021-03-27T13:00:41Z</time>
      </trkpt>
      <trkpt lat="46.05212" lon="6.32788">
        <ele>616.6</ele>
        <time>2021-03-27T13:00:42Z</time>
      </trkpt>
      <trkpt lat="46.05208" lon="6.3278">
        <ele>616.2</ele>
        <time>2021-03-27T13:00:43Z</time>
      </trkpt>
      <trkpt lat="46.05205" lon="6.3277">
        <ele>616.2</ele>
        <time>2021-03-27T13:00:44Z</time>
      </trkpt>
      <trkpt lat="46.05204" lon="6.32761">
        <ele>616.2</ele>
        <time>2021-03-27T13:00:45Z</time>
      </trkpt>
      <trkpt lat="46.05203" lon="6.32751">
        <ele>616</ele>
        <time>2021-03-27T13:00:46Z</time>
      </trkpt>
      <trkpt lat="46.05201" lon="6.32742">
        <ele>616</ele>
        <time>2021-03-27T13:00:47Z</time>
      </trkpt>
      <trkpt lat="46.05198" lon="6.32733">
        <ele>616</ele>
        <time>2021-03-27T13:00:48Z</time>
      </trkpt>
      <trkpt lat="46.05195" lon="6.32724">
        <ele>616</ele>
        <time>2021-03-27T13:00:49Z</time>
      </trkpt>
      <trkpt lat="46.05192" lon="6.32716">
        <ele>616</ele>
        <time>2021-03-27T13:00:50Z</time>
      </trkpt>
      <trkpt lat="46.05189" lon="6.32708">
        <ele>616</ele>
        <time>2021-03-27T13:00:51Z</time>
      </trkpt>
      <trkpt lat="46.05187" lon="6.32699">
        <ele>616</ele>
        <time>2021-03-27T13:00:52Z</time>
      </trkpt>
      <trkpt lat="46.05186" lon="6.3269">
        <ele>616.4</ele>
        <time>2021-03-27T13:00:53Z</time>
      </trkpt>
      <trkpt lat="46.05186" lon="6.32681">
        <ele>616.4</ele>
        <time>2021-03-27T13:00:54Z</time>
      </trkpt>
      <trkpt lat="46.05185" lon="6.32672">
        <ele>616.6</ele>
        <time>2021-03-27T13:00:55Z</time>
      </trkpt>
      <trkpt lat="46.05186" lon="6.32663">
        <ele>616.8</ele>
        <time>2021-03-27T13:00:56Z</time>
      </trkpt>
      <trkpt lat="46.05186" lon="6.32654">
        <ele>616.8</ele>
        <time>2021-03-27T13:00:57Z</time>
      </trkpt>
      <trkpt lat="46.05187" lon="6.32645">
        <ele>616.8</ele>
        <time>2021-03-27T13:00:58Z</time>
      </trkpt>
      <trkpt lat="46.05188" lon="6.32636">
        <ele>616.8</ele>
        <time>2021-03-27T13:00:59Z</time>
      </trkpt>
      <trkpt lat="46.0519" lon="6.32627">
        <ele>616.8</ele>
        <time>2021-03-27T13:01:00Z</time>
      </trkpt>
      <trkpt lat="46.05192" lon="6.32619">
        <ele>616.8</ele>
        <time>2021-03-27T13:01:01Z</time>
      </trkpt>
      <trkpt lat="46.05194" lon="6.3261">
        <ele>617</ele>
        <time>2021-03-27T13:01:02Z</time>
      </trkpt>
      <trkpt lat="46.05196" lon="6.32601">
        <ele>617</ele>
        <time>2021-03-27T13:01:03Z</time>
      </trkpt>
      <trkpt lat="46.05197" lon="6.32593">
        <ele>617.2</ele>
        <time>2021-03-27T13:01:04Z</time>
      </trkpt>
      <trkpt lat="46.05201" lon="6.32575">
        <ele>617.2</ele>
        <time>2021-03-27T13:01:06Z</time>
      </trkpt>
      <trkpt lat="46.05205" lon="6.32557">
        <ele>617.4</ele>
        <time>2021-03-27T13:01:08Z</time>
      </trkpt>
      <trkpt lat="46.05207" lon="6.32548">
        <ele>617.4</ele>
        <time>2021-03-27T13:01:09Z</time>
      </trkpt>
      <trkpt lat="46.05209" lon="6.32539">
        <ele>617.4</ele>
        <time>2021-03-27T13:01:10Z</time>
      </trkpt>
      <trkpt lat="46.05212" lon="6.3252">
        <ele>617.6</ele>
        <time>2021-03-27T13:01:12Z</time>
      </trkpt>
      <trkpt lat="46.05214" lon="6.32511">
        <ele>617.6</ele>
        <time>2021-03-27T13:01:13Z</time>
      </trkpt>
      <trkpt lat="46.05216" lon="6.32502">
        <ele>617.8</ele>
        <time>2021-03-27T13:01:14Z</time>
      </trkpt>
      <trkpt lat="46.0522" lon="6.32483">
        <ele>618</ele>
        <time>2021-03-27T13:01:16Z</time>
      </trkpt>
      <trkpt lat="46.05223" lon="6.32474">
        <ele>618</ele>
        <time>2021-03-27T13:01:17Z</time>
      </trkpt>
      <trkpt lat="46.05227" lon="6.32455">
        <ele>618</ele>
        <time>2021-03-27T13:01:19Z</time>
      </trkpt>
      <trkpt lat="46.05229" lon="6.32446">
        <ele>618</ele>
        <time>2021-03-27T13:01:20Z</time>
      </trkpt>
      <trkpt lat="46.05231" lon="6.32436">
        <ele>618</ele>
        <time>2021-03-27T13:01:21Z</time>
      </trkpt>
      <trkpt lat="46.05235" lon="6.32418">
        <ele>618</ele>
        <time>2021-03-27T13:01:23Z</time>
      </trkpt>
      <trkpt lat="46.05236" lon="6.32408">
        <ele>618</ele>
        <time>2021-03-27T13:01:24Z</time>
      </trkpt>
      <trkpt lat="46.05237" lon="6.32399">
        <ele>618</ele>
        <time>2021-03-27T13:01:25Z</time>
      </trkpt>
      <trkpt lat="46.05237" lon="6.3239">
        <ele>618</ele>
        <time>2021-03-27T13:01:26Z</time>
      </trkpt>
      <trkpt lat="46.05236" lon="6.3238">
        <ele>618</ele>
        <time>2021-03-27T13:01:27Z</time>
      </trkpt>
      <trkpt lat="46.05234" lon="6.32372">
        <ele>618.2</ele>
        <time>2021-03-27T13:01:28Z</time>
      </trkpt>
      <trkpt lat="46.05227" lon="6.32361">
        <ele>618</ele>
        <time>2021-03-27T13:01:30Z</time>
      </trkpt>
      <trkpt lat="46.05223" lon="6.32357">
        <ele>618.2</ele>
        <time>2021-03-27T13:01:31Z</time>
      </trkpt>
      <trkpt lat="46.0522" lon="6.32355">
        <ele>618</ele>
        <time>2021-03-27T13:01:32Z</time>
      </trkpt>
      <trkpt lat="46.05216" lon="6.32353">
        <ele>618.2</ele>
        <time>2021-03-27T13:01:33Z</time>
      </trkpt>
      <trkpt lat="46.05212" lon="6.32351">
        <ele>618.2</ele>
        <time>2021-03-27T13:01:34Z</time>
      </trkpt>
      <trkpt lat="46.05208" lon="6.32349">
        <ele>618.2</ele>
        <time>2021-03-27T13:01:35Z</time>
      </trkpt>
      <trkpt lat="46.05205" lon="6.32348">
        <ele>618.2</ele>
        <time>2021-03-27T13:01:36Z</time>
      </trkpt>
      <trkpt lat="46.05201" lon="6.32346">
        <ele>618.6</ele>
        <time>2021-03-27T13:01:37Z</time>
      </trkpt>
      <trkpt lat="46.05197" lon="6.32344">
        <ele>618.6</ele>
        <time>2021-03-27T13:01:38Z</time>
      </trkpt>
      <trkpt lat="46.05194" lon="6.32343">
        <ele>618.8</ele>
        <time>2021-03-27T13:01:39Z</time>
      </trkpt>
      <trkpt lat="46.0519" lon="6.32342">
        <ele>619</ele>
        <time>2021-03-27T13:01:40Z</time>
      </trkpt>
      <trkpt lat="46.05183" lon="6.32339">
        <ele>619.6</ele>
        <time>2021-03-27T13:01:42Z</time>
      </trkpt>
      <trkpt lat="46.0518" lon="6.32338">
        <ele>620.4</ele>
        <time>2021-03-27T13:01:43Z</time>
      </trkpt>
      <trkpt lat="46.05177" lon="6.32336">
        <ele>620.8</ele>
        <time>2021-03-27T13:01:44Z</time>
      </trkpt>
      <trkpt lat="46.05174" lon="6.32335">
        <ele>621</ele>
        <time>2021-03-27T13:01:45Z</time>
      </trkpt>
      <trkpt lat="46.0517" lon="6.32334">
        <ele>621.4</ele>
        <time>2021-03-27T13:01:46Z</time>
      </trkpt>
      <trkpt lat="46.05167" lon="6.32333">
        <ele>622</ele>
        <time>2021-03-27T13:01:47Z</time>
      </trkpt>
      <trkpt lat="46.05164" lon="6.32332">
        <ele>622</ele>
        <time>2021-03-27T13:01:48Z</time>
      </trkpt>
      <trkpt lat="46.05161" lon="6.3233">
        <ele>622.4</ele>
        <time>2021-03-27T13:01:49Z</time>
      </trkpt>
      <trkpt lat="46.05158" lon="6.32329">
        <ele>622.8</ele>
        <time>2021-03-27T13:01:50Z</time>
      </trkpt>
      <trkpt lat="46.05155" lon="6.32327">
        <ele>623.2</ele>
        <time>2021-03-27T13:01:51Z</time>
      </trkpt>
      <trkpt lat="46.05152" lon="6.32326">
        <ele>623.6</ele>
        <time>2021-03-27T13:01:52Z</time>
      </trkpt>
      <trkpt lat="46.05149" lon="6.32324">
        <ele>623.6</ele>
        <time>2021-03-27T13:01:53Z</time>
      </trkpt>
      <trkpt lat="46.05146" lon="6.32323">
        <ele>624</ele>
        <time>2021-03-27T13:01:54Z</time>
      </trkpt>
      <trkpt lat="46.05144" lon="6.32321">
        <ele>624.2</ele>
        <time>2021-03-27T13:01:55Z</time>
      </trkpt>
      <trkpt lat="46.05141" lon="6.3232">
        <ele>624.6</ele>
        <time>2021-03-27T13:01:56Z</time>
      </trkpt>
      <trkpt lat="46.05139" lon="6.32318">
        <ele>624.8</ele>
        <time>2021-03-27T13:01:57Z</time>
      </trkpt>
      <trkpt lat="46.05137" lon="6.32317">
        <ele>625.4</ele>
        <time>2021-03-27T13:01:58Z</time>
      </trkpt>
      <trkpt lat="46.05134" lon="6.32315">
        <ele>625.6</ele>
        <time>2021-03-27T13:01:59Z</time>
      </trkpt>
      <trkpt lat="46.05132" lon="6.32314">
        <ele>626</ele>
        <time>2021-03-27T13:02:00Z</time>
      </trkpt>
      <trkpt lat="46.0513" lon="6.32312">
        <ele>626.4</ele>
        <time>2021-03-27T13:02:01Z</time>
      </trkpt>
      <trkpt lat="46.05128" lon="6.3231">
        <ele>626.6</ele>
        <time>2021-03-27T13:02:02Z</time>
      </trkpt>
      <trkpt lat="46.05126" lon="6.32309">
        <ele>627</ele>
        <time>2021-03-27T13:02:03Z</time>
      </trkpt>
      <trkpt lat="46.05123" lon="6.32307">
        <ele>627.2</ele>
        <time>2021-03-27T13:02:04Z</time>
      </trkpt>
      <trkpt lat="46.0512" lon="6.32306">
        <ele>627.6</ele>
        <time>2021-03-27T13:02:05Z</time>
      </trkpt>
      <trkpt lat="46.05117" lon="6.32304">
        <ele>627.8</ele>
        <time>2021-03-27T13:02:06Z</time>
      </trkpt>
      <trkpt lat="46.05115" lon="6.32302">
        <ele>628.2</ele>
        <time>2021-03-27T13:02:07Z</time>
      </trkpt>
      <trkpt lat="46.05113" lon="6.32301">
        <ele>628.8</ele>
        <time>2021-03-27T13:02:08Z</time>
      </trkpt>
      <trkpt lat="46.05107" lon="6.32298">
        <ele>629</ele>
        <time>2021-03-27T13:02:10Z</time>
      </trkpt>
      <trkpt lat="46.05104" lon="6.32297">
        <ele>629.2</ele>
        <time>2021-03-27T13:02:11Z</time>
      </trkpt>
      <trkpt lat="46.05101" lon="6.32295">
        <ele>629.6</ele>
        <time>2021-03-27T13:02:12Z</time>
      </trkpt>
      <trkpt lat="46.05098" lon="6.32294">
        <ele>630</ele>
        <time>2021-03-27T13:02:13Z</time>
      </trkpt>
      <trkpt lat="46.05095" lon="6.32293">
        <ele>630.4</ele>
        <time>2021-03-27T13:02:14Z</time>
      </trkpt>
      <trkpt lat="46.05093" lon="6.32294">
        <ele>630.8</ele>
        <time>2021-03-27T13:02:15Z</time>
      </trkpt>
      <trkpt lat="46.0509" lon="6.32293">
        <ele>630.8</ele>
        <time>2021-03-27T13:02:16Z</time>
      </trkpt>
      <trkpt lat="46.05088" lon="6.32293">
        <ele>631.2</ele>
        <time>2021-03-27T13:02:17Z</time>
      </trkpt>
      <trkpt lat="46.05083" lon="6.32291">
        <ele>632</ele>
        <time>2021-03-27T13:02:19Z</time>
      </trkpt>
      <trkpt lat="46.0508" lon="6.32291">
        <ele>632.4</ele>
        <time>2021-03-27T13:02:20Z</time>
      </trkpt>
      <trkpt lat="46.05077" lon="6.3229">
        <ele>632.6</ele>
        <time>2021-03-27T13:02:21Z</time>
      </trkpt>
      <trkpt lat="46.05075" lon="6.3229">
        <ele>632.6</ele>
        <time>2021-03-27T13:02:22Z</time>
      </trkpt>
      <trkpt lat="46.05073" lon="6.3229">
        <ele>632.8</ele>
        <time>2021-03-27T13:02:23Z</time>
      </trkpt>
      <trkpt lat="46.05071" lon="6.3229">
        <ele>633</ele>
        <time>2021-03-27T13:02:24Z</time>
      </trkpt>
      <trkpt lat="46.05069" lon="6.32289">
        <ele>633</ele>
        <time>2021-03-27T13:02:25Z</time>
      </trkpt>
      <trkpt lat="46.05066" lon="6.32289">
        <ele>633.2</ele>
        <time>2021-03-27T13:02:26Z</time>
      </trkpt>
      <trkpt lat="46.05063" lon="6.32288">
        <ele>633.2</ele>
        <time>2021-03-27T13:02:27Z</time>
      </trkpt>
      <trkpt lat="46.05061" lon="6.32288">
        <ele>633.2</ele>
        <time>2021-03-27T13:02:28Z</time>
      </trkpt>
      <trkpt lat="46.05058" lon="6.32288">
        <ele>633.6</ele>
        <time>2021-03-27T13:02:29Z</time>
      </trkpt>
      <trkpt lat="46.05055" lon="6.32288">
        <ele>633.8</ele>
        <time>2021-03-27T13:02:30Z</time>
      </trkpt>
      <trkpt lat="46.0505" lon="6.32288">
        <ele>634.8</ele>
        <time>2021-03-27T13:02:32Z</time>
      </trkpt>
      <trkpt lat="46.05049" lon="6.32288">
        <ele>635</ele>
        <time>2021-03-27T13:02:33Z</time>
      </trkpt>
      <trkpt lat="46.05047" lon="6.32288">
        <ele>635.4</ele>
        <time>2021-03-27T13:02:34Z</time>
      </trkpt>
      <trkpt lat="46.05042" lon="6.32287">
        <ele>636</ele>
        <time>2021-03-27T13:02:36Z</time>
      </trkpt>
      <trkpt lat="46.0504" lon="6.32287">
        <ele>636</ele>
        <time>2021-03-27T13:02:37Z</time>
      </trkpt>
      <trkpt lat="46.05038" lon="6.32286">
        <ele>636.4</ele>
        <time>2021-03-27T13:02:38Z</time>
      </trkpt>
      <trkpt lat="46.05035" lon="6.32286">
        <ele>636.6</ele>
        <time>2021-03-27T13:02:39Z</time>
      </trkpt>
      <trkpt lat="46.05033" lon="6.32285">
        <ele>636.8</ele>
        <time>2021-03-27T13:02:40Z</time>
      </trkpt>
      <trkpt lat="46.05031" lon="6.32285">
        <ele>637.4</ele>
        <time>2021-03-27T13:02:41Z</time>
      </trkpt>
      <trkpt lat="46.05029" lon="6.32285">
        <ele>637.6</ele>
        <time>2021-03-27T13:02:42Z</time>
      </trkpt>
      <trkpt lat="46.05027" lon="6.32285">
        <ele>638</ele>
        <time>2021-03-27T13:02:43Z</time>
      </trkpt>
      <trkpt lat="46.05022" lon="6.32284">
        <ele>638.8</ele>
        <time>2021-03-27T13:02:45Z</time>
      </trkpt>
      <trkpt lat="46.05021" lon="6.32284">
        <ele>639</ele>
        <time>2021-03-27T13:02:46Z</time>
      </trkpt>
      <trkpt lat="46.05019" lon="6.32284">
        <ele>639.4</ele>
        <time>2021-03-27T13:02:47Z</time>
      </trkpt>
      <trkpt lat="46.05016" lon="6.32284">
        <ele>640</ele>
        <time>2021-03-27T13:02:49Z</time>
      </trkpt>
      <trkpt lat="46.05014" lon="6.32284">
        <ele>640.4</ele>
        <time>2021-03-27T13:02:50Z</time>
      </trkpt>
      <trkpt lat="46.05013" lon="6.32283">
        <ele>640.6</ele>
        <time>2021-03-27T13:02:51Z</time>
      </trkpt>
      <trkpt lat="46.05011" lon="6.32282">
        <ele>641</ele>
        <time>2021-03-27T13:02:52Z</time>
      </trkpt>
      <trkpt lat="46.05008" lon="6.32282">
        <ele>641.4</ele>
        <time>2021-03-27T13:02:53Z</time>
      </trkpt>
      <trkpt lat="46.05006" lon="6.32281">
        <ele>641.6</ele>
        <time>2021-03-27T13:02:54Z</time>
      </trkpt>
      <trkpt lat="46.05004" lon="6.32281">
        <ele>642</ele>
        <time>2021-03-27T13:02:55Z</time>
      </trkpt>
      <trkpt lat="46.05002" lon="6.3228">
        <ele>642.2</ele>
        <time>2021-03-27T13:02:56Z</time>
      </trkpt>
      <trkpt lat="46.04997" lon="6.32277">
        <ele>642.8</ele>
        <time>2021-03-27T13:02:58Z</time>
      </trkpt>
      <trkpt lat="46.04994" lon="6.32275">
        <ele>643</ele>
        <time>2021-03-27T13:02:59Z</time>
      </trkpt>
      <trkpt lat="46.04992" lon="6.32273">
        <ele>643.4</ele>
        <time>2021-03-27T13:03:00Z</time>
      </trkpt>
      <trkpt lat="46.04989" lon="6.32271">
        <ele>643.6</ele>
        <time>2021-03-27T13:03:01Z</time>
      </trkpt>
      <trkpt lat="46.04988" lon="6.32269">
        <ele>644</ele>
        <time>2021-03-27T13:03:02Z</time>
      </trkpt>
      <trkpt lat="46.04986" lon="6.32266">
        <ele>644.2</ele>
        <time>2021-03-27T13:03:03Z</time>
      </trkpt>
      <trkpt lat="46.04982" lon="6.3226">
        <ele>644.8</ele>
        <time>2021-03-27T13:03:05Z</time>
      </trkpt>
      <trkpt lat="46.04981" lon="6.32257">
        <ele>645</ele>
        <time>2021-03-27T13:03:06Z</time>
      </trkpt>
      <trkpt lat="46.0498" lon="6.32253">
        <ele>645.4</ele>
        <time>2021-03-27T13:03:07Z</time>
      </trkpt>
      <trkpt lat="46.04977" lon="6.32247">
        <ele>645.6</ele>
        <time>2021-03-27T13:03:09Z</time>
      </trkpt>
      <trkpt lat="46.04976" lon="6.32243">
        <ele>645.8</ele>
        <time>2021-03-27T13:03:10Z</time>
      </trkpt>
      <trkpt lat="46.04975" lon="6.3224">
        <ele>645.8</ele>
        <time>2021-03-27T13:03:11Z</time>
      </trkpt>
      <trkpt lat="46.04974" lon="6.32236">
        <ele>645.8</ele>
        <time>2021-03-27T13:03:12Z</time>
      </trkpt>
      <trkpt lat="46.04973" lon="6.32233">
        <ele>646</ele>
        <time>2021-03-27T13:03:13Z</time>
      </trkpt>
      <trkpt lat="46.04973" lon="6.32229">
        <ele>646.2</ele>
        <time>2021-03-27T13:03:14Z</time>
      </trkpt>
      <trkpt lat="46.04972" lon="6.32225">
        <ele>646.4</ele>
        <time>2021-03-27T13:03:15Z</time>
      </trkpt>
      <trkpt lat="46.04971" lon="6.32222">
        <ele>646.6</ele>
        <time>2021-03-27T13:03:16Z</time>
      </trkpt>
      <trkpt lat="46.04971" lon="6.32219">
        <ele>647</ele>
        <time>2021-03-27T13:03:17Z</time>
      </trkpt>
      <trkpt lat="46.04971" lon="6.32215">
        <ele>647.2</ele>
        <time>2021-03-27T13:03:18Z</time>
      </trkpt>
      <trkpt lat="46.0497" lon="6.32212">
        <ele>647.6</ele>
        <time>2021-03-27T13:03:19Z</time>
      </trkpt>
      <trkpt lat="46.0497" lon="6.32208">
        <ele>648</ele>
        <time>2021-03-27T13:03:20Z</time>
      </trkpt>
      <trkpt lat="46.04969" lon="6.32205">
        <ele>648.4</ele>
        <time>2021-03-27T13:03:21Z</time>
      </trkpt>
      <trkpt lat="46.04969" lon="6.32201">
        <ele>648.6</ele>
        <time>2021-03-27T13:03:22Z</time>
      </trkpt>
      <trkpt lat="46.04969" lon="6.32198">
        <ele>648.8</ele>
        <time>2021-03-27T13:03:23Z</time>
      </trkpt>
      <trkpt lat="46.04968" lon="6.32194">
        <ele>648.8</ele>
        <time>2021-03-27T13:03:24Z</time>
      </trkpt>
      <trkpt lat="46.04967" lon="6.3219">
        <ele>649</ele>
        <time>2021-03-27T13:03:25Z</time>
      </trkpt>
      <trkpt lat="46.04967" lon="6.32186">
        <ele>649.4</ele>
        <time>2021-03-27T13:03:26Z</time>
      </trkpt>
      <trkpt lat="46.04967" lon="6.32182">
        <ele>649.4</ele>
        <time>2021-03-27T13:03:27Z</time>
      </trkpt>
      <trkpt lat="46.04967" lon="6.32178">
        <ele>649.6</ele>
        <time>2021-03-27T13:03:28Z</time>
      </trkpt>
      <trkpt lat="46.04967" lon="6.32174">
        <ele>649.8</ele>
        <time>2021-03-27T13:03:29Z</time>
      </trkpt>
      <trkpt lat="46.04966" lon="6.3217">
        <ele>650.2</ele>
        <time>2021-03-27T13:03:30Z</time>
      </trkpt>
      <trkpt lat="46.04966" lon="6.32166">
        <ele>650.8</ele>
        <time>2021-03-27T13:03:31Z</time>
      </trkpt>
      <trkpt lat="46.04966" lon="6.32162">
        <ele>651.2</ele>
        <time>2021-03-27T13:03:32Z</time>
      </trkpt>
      <trkpt lat="46.04965" lon="6.32158">
        <ele>651.2</ele>
        <time>2021-03-27T13:03:33Z</time>
      </trkpt>
      <trkpt lat="46.04965" lon="6.32154">
        <ele>651.4</ele>
        <time>2021-03-27T13:03:34Z</time>
      </trkpt>
      <trkpt lat="46.04965" lon="6.3215">
        <ele>651.8</ele>
        <time>2021-03-27T13:03:35Z</time>
      </trkpt>
      <trkpt lat="46.04965" lon="6.32146">
        <ele>652.2</ele>
        <time>2021-03-27T13:03:36Z</time>
      </trkpt>
      <trkpt lat="46.04965" lon="6.32142">
        <ele>652.6</ele>
        <time>2021-03-27T13:03:37Z</time>
      </trkpt>
      <trkpt lat="46.04965" lon="6.32138">
        <ele>652.8</ele>
        <time>2021-03-27T13:03:38Z</time>
      </trkpt>
      <trkpt lat="46.04965" lon="6.32134">
        <ele>653</ele>
        <time>2021-03-27T13:03:39Z</time>
      </trkpt>
      <trkpt lat="46.04964" lon="6.3213">
        <ele>653</ele>
        <time>2021-03-27T13:03:40Z</time>
      </trkpt>
      <trkpt lat="46.04964" lon="6.32126">
        <ele>653.4</ele>
        <time>2021-03-27T13:03:41Z</time>
      </trkpt>
      <trkpt lat="46.04963" lon="6.32122">
        <ele>653.4</ele>
        <time>2021-03-27T13:03:42Z</time>
      </trkpt>
      <trkpt lat="46.04963" lon="6.32118">
        <ele>653.6</ele>
        <time>2021-03-27T13:03:43Z</time>
      </trkpt>
      <trkpt lat="46.04962" lon="6.32114">
        <ele>654</ele>
        <time>2021-03-27T13:03:44Z</time>
      </trkpt>
      <trkpt lat="46.04962" lon="6.3211">
        <ele>654</ele>
        <time>2021-03-27T13:03:45Z</time>
      </trkpt>
      <trkpt lat="46.04961" lon="6.32106">
        <ele>654.2</ele>
        <time>2021-03-27T13:03:46Z</time>
      </trkpt>
      <trkpt lat="46.04961" lon="6.32102">
        <ele>654.4</ele>
        <time>2021-03-27T13:03:47Z</time>
      </trkpt>
      <trkpt lat="46.0496" lon="6.32098">
        <ele>654.8</ele>
        <time>2021-03-27T13:03:48Z</time>
      </trkpt>
      <trkpt lat="46.0496" lon="6.32094">
        <ele>654.8</ele>
        <time>2021-03-27T13:03:49Z</time>
      </trkpt>
      <trkpt lat="46.04959" lon="6.3209">
        <ele>655.2</ele>
        <time>2021-03-27T13:03:50Z</time>
      </trkpt>
      <trkpt lat="46.04959" lon="6.32086">
        <ele>655.2</ele>
        <time>2021-03-27T13:03:51Z</time>
      </trkpt>
      <trkpt lat="46.04958" lon="6.32082">
        <ele>655.4</ele>
        <time>2021-03-27T13:03:52Z</time>
      </trkpt>
      <trkpt lat="46.04958" lon="6.32078">
        <ele>655.6</ele>
        <time>2021-03-27T13:03:53Z</time>
      </trkpt>
      <trkpt lat="46.04957" lon="6.32075">
        <ele>656.2</ele>
        <time>2021-03-27T13:03:54Z</time>
      </trkpt>
      <trkpt lat="46.04956" lon="6.32071">
        <ele>656.2</ele>
        <time>2021-03-27T13:03:55Z</time>
      </trkpt>
      <trkpt lat="46.04956" lon="6.32067">
        <ele>656.6</ele>
        <time>2021-03-27T13:03:56Z</time>
      </trkpt>
      <trkpt lat="46.04955" lon="6.32063">
        <ele>656.8</ele>
        <time>2021-03-27T13:03:57Z</time>
      </trkpt>
      <trkpt lat="46.04954" lon="6.32059">
        <ele>657</ele>
        <time>2021-03-27T13:03:58Z</time>
      </trkpt>
      <trkpt lat="46.04954" lon="6.32055">
        <ele>657</ele>
        <time>2021-03-27T13:03:59Z</time>
      </trkpt>
      <trkpt lat="46.04953" lon="6.32051">
        <ele>657.2</ele>
        <time>2021-03-27T13:04:00Z</time>
      </trkpt>
      <trkpt lat="46.04953" lon="6.32047">
        <ele>657.4</ele>
        <time>2021-03-27T13:04:01Z</time>
      </trkpt>
      <trkpt lat="46.04952" lon="6.32044">
        <ele>657.4</ele>
        <time>2021-03-27T13:04:02Z</time>
      </trkpt>
      <trkpt lat="46.04952" lon="6.3204">
        <ele>657.6</ele>
        <time>2021-03-27T13:04:03Z</time>
      </trkpt>
      <trkpt lat="46.04951" lon="6.32036">
        <ele>657.6</ele>
        <time>2021-03-27T13:04:04Z</time>
      </trkpt>
      <trkpt lat="46.0495" lon="6.32032">
        <ele>658</ele>
        <time>2021-03-27T13:04:05Z</time>
      </trkpt>
      <trkpt lat="46.0495" lon="6.32029">
        <ele>658</ele>
        <time>2021-03-27T13:04:06Z</time>
      </trkpt>
      <trkpt lat="46.04949" lon="6.32025">
        <ele>658.4</ele>
        <time>2021-03-27T13:04:07Z</time>
      </trkpt>
      <trkpt lat="46.04948" lon="6.32021">
        <ele>658.4</ele>
        <time>2021-03-27T13:04:08Z</time>
      </trkpt>
      <trkpt lat="46.04947" lon="6.32017">
        <ele>658.8</ele>
        <time>2021-03-27T13:04:09Z</time>
      </trkpt>
      <trkpt lat="46.04947" lon="6.32013">
        <ele>659.2</ele>
        <time>2021-03-27T13:04:10Z</time>
      </trkpt>
      <trkpt lat="46.04946" lon="6.32009">
        <ele>659.4</ele>
        <time>2021-03-27T13:04:11Z</time>
      </trkpt>
      <trkpt lat="46.04946" lon="6.32005">
        <ele>659.6</ele>
        <time>2021-03-27T13:04:12Z</time>
      </trkpt>
      <trkpt lat="46.04945" lon="6.32001">
        <ele>659.4</ele>
        <time>2021-03-27T13:04:13Z</time>
      </trkpt>
      <trkpt lat="46.04944" lon="6.31997">
        <ele>659.6</ele>
        <time>2021-03-27T13:04:14Z</time>
      </trkpt>
      <trkpt lat="46.04943" lon="6.31993">
        <ele>660</ele>
        <time>2021-03-27T13:04:15Z</time>
      </trkpt>
      <trkpt lat="46.04942" lon="6.31988">
        <ele>660</ele>
        <time>2021-03-27T13:04:16Z</time>
      </trkpt>
      <trkpt lat="46.04942" lon="6.31984">
        <ele>660.2</ele>
        <time>2021-03-27T13:04:17Z</time>
      </trkpt>
      <trkpt lat="46.04941" lon="6.3198">
        <ele>660.6</ele>
        <time>2021-03-27T13:04:18Z</time>
      </trkpt>
      <trkpt lat="46.0494" lon="6.31976">
        <ele>661.2</ele>
        <time>2021-03-27T13:04:19Z</time>
      </trkpt>
      <trkpt lat="46.04939" lon="6.31972">
        <ele>661.6</ele>
        <time>2021-03-27T13:04:20Z</time>
      </trkpt>
      <trkpt lat="46.04939" lon="6.31968">
        <ele>661.8</ele>
        <time>2021-03-27T13:04:21Z</time>
      </trkpt>
      <trkpt lat="46.04938" lon="6.31964">
        <ele>662.2</ele>
        <time>2021-03-27T13:04:22Z</time>
      </trkpt>
      <trkpt lat="46.04937" lon="6.3196">
        <ele>662.4</ele>
        <time>2021-03-27T13:04:23Z</time>
      </trkpt>
      <trkpt lat="46.04936" lon="6.31956">
        <ele>662.8</ele>
        <time>2021-03-27T13:04:24Z</time>
      </trkpt>
      <trkpt lat="46.04935" lon="6.31952">
        <ele>663</ele>
        <time>2021-03-27T13:04:25Z</time>
      </trkpt>
      <trkpt lat="46.04935" lon="6.31948">
        <ele>663</ele>
        <time>2021-03-27T13:04:26Z</time>
      </trkpt>
      <trkpt lat="46.04934" lon="6.31944">
        <ele>663</ele>
        <time>2021-03-27T13:04:27Z</time>
      </trkpt>
      <trkpt lat="46.04933" lon="6.3194">
        <ele>663.2</ele>
        <time>2021-03-27T13:04:28Z</time>
      </trkpt>
      <trkpt lat="46.04932" lon="6.31936">
        <ele>663.4</ele>
        <time>2021-03-27T13:04:29Z</time>
      </trkpt>
      <trkpt lat="46.04932" lon="6.31933">
        <ele>663.4</ele>
        <time>2021-03-27T13:04:30Z</time>
      </trkpt>
      <trkpt lat="46.04931" lon="6.31928">
        <ele>663.6</ele>
        <time>2021-03-27T13:04:31Z</time>
      </trkpt>
      <trkpt lat="46.0493" lon="6.31924">
        <ele>664.2</ele>
        <time>2021-03-27T13:04:32Z</time>
      </trkpt>
      <trkpt lat="46.04929" lon="6.3192">
        <ele>664.6</ele>
        <time>2021-03-27T13:04:33Z</time>
      </trkpt>
      <trkpt lat="46.04928" lon="6.31916">
        <ele>664.8</ele>
        <time>2021-03-27T13:04:34Z</time>
      </trkpt>
      <trkpt lat="46.04928" lon="6.31913">
        <ele>665.2</ele>
        <time>2021-03-27T13:04:35Z</time>
      </trkpt>
      <trkpt lat="46.04927" lon="6.31909">
        <ele>665.2</ele>
        <time>2021-03-27T13:04:36Z</time>
      </trkpt>
      <trkpt lat="46.04926" lon="6.31905">
        <ele>665.4</ele>
        <time>2021-03-27T13:04:37Z</time>
      </trkpt>
      <trkpt lat="46.04925" lon="6.31901">
        <ele>665.4</ele>
        <time>2021-03-27T13:04:38Z</time>
      </trkpt>
      <trkpt lat="46.04925" lon="6.31897">
        <ele>665.4</ele>
        <time>2021-03-27T13:04:39Z</time>
      </trkpt>
      <trkpt lat="46.04924" lon="6.31893">
        <ele>665.6</ele>
        <time>2021-03-27T13:04:40Z</time>
      </trkpt>
      <trkpt lat="46.04923" lon="6.31889">
        <ele>665.6</ele>
        <time>2021-03-27T13:04:41Z</time>
      </trkpt>
      <trkpt lat="46.04922" lon="6.31884">
        <ele>665.8</ele>
        <time>2021-03-27T13:04:42Z</time>
      </trkpt>
      <trkpt lat="46.04922" lon="6.3188">
        <ele>666</ele>
        <time>2021-03-27T13:04:43Z</time>
      </trkpt>
      <trkpt lat="46.04921" lon="6.31876">
        <ele>666.2</ele>
        <time>2021-03-27T13:04:44Z</time>
      </trkpt>
      <trkpt lat="46.0492" lon="6.31872">
        <ele>666.4</ele>
        <time>2021-03-27T13:04:45Z</time>
      </trkpt>
      <trkpt lat="46.0492" lon="6.31868">
        <ele>666.6</ele>
        <time>2021-03-27T13:04:46Z</time>
      </trkpt>
      <trkpt lat="46.04919" lon="6.31863">
        <ele>666.8</ele>
        <time>2021-03-27T13:04:47Z</time>
      </trkpt>
      <trkpt lat="46.04918" lon="6.31859">
        <ele>667</ele>
        <time>2021-03-27T13:04:48Z</time>
      </trkpt>
      <trkpt lat="46.04918" lon="6.31854">
        <ele>667.2</ele>
        <time>2021-03-27T13:04:49Z</time>
      </trkpt>
      <trkpt lat="46.04917" lon="6.31849">
        <ele>667.4</ele>
        <time>2021-03-27T13:04:50Z</time>
      </trkpt>
      <trkpt lat="46.04916" lon="6.31844">
        <ele>667.4</ele>
        <time>2021-03-27T13:04:51Z</time>
      </trkpt>
      <trkpt lat="46.04916" lon="6.3184">
        <ele>667.6</ele>
        <time>2021-03-27T13:04:52Z</time>
      </trkpt>
      <trkpt lat="46.04915" lon="6.31835">
        <ele>667.8</ele>
        <time>2021-03-27T13:04:53Z</time>
      </trkpt>
      <trkpt lat="46.04914" lon="6.3183">
        <ele>668</ele>
        <time>2021-03-27T13:04:54Z</time>
      </trkpt>
      <trkpt lat="46.04914" lon="6.31825">
        <ele>668</ele>
        <time>2021-03-27T13:04:55Z</time>
      </trkpt>
      <trkpt lat="46.04914" lon="6.3182">
        <ele>668</ele>
        <time>2021-03-27T13:04:56Z</time>
      </trkpt>
      <trkpt lat="46.04914" lon="6.31815">
        <ele>668</ele>
        <time>2021-03-27T13:04:57Z</time>
      </trkpt>
      <trkpt lat="46.04914" lon="6.31809">
        <ele>668.4</ele>
        <time>2021-03-27T13:04:58Z</time>
      </trkpt>
      <trkpt lat="46.04914" lon="6.31804">
        <ele>668.4</ele>
        <time>2021-03-27T13:04:59Z</time>
      </trkpt>
      <trkpt lat="46.04914" lon="6.31798">
        <ele>668.4</ele>
        <time>2021-03-27T13:05:00Z</time>
      </trkpt>
      <trkpt lat="46.04913" lon="6.31793">
        <ele>668.6</ele>
        <time>2021-03-27T13:05:01Z</time>
      </trkpt>
      <trkpt lat="46.04913" lon="6.31787">
        <ele>668.6</ele>
        <time>2021-03-27T13:05:02Z</time>
      </trkpt>
      <trkpt lat="46.04913" lon="6.31782">
        <ele>668.8</ele>
        <time>2021-03-27T13:05:03Z</time>
      </trkpt>
      <trkpt lat="46.04913" lon="6.31777">
        <ele>669</ele>
        <time>2021-03-27T13:05:04Z</time>
      </trkpt>
      <trkpt lat="46.04913" lon="6.31771">
        <ele>669</ele>
        <time>2021-03-27T13:05:05Z</time>
      </trkpt>
      <trkpt lat="46.04913" lon="6.31766">
        <ele>669.2</ele>
        <time>2021-03-27T13:05:06Z</time>
      </trkpt>
      <trkpt lat="46.04913" lon="6.31761">
        <ele>669.4</ele>
        <time>2021-03-27T13:05:07Z</time>
      </trkpt>
      <trkpt lat="46.04913" lon="6.31755">
        <ele>669.8</ele>
        <time>2021-03-27T13:05:08Z</time>
      </trkpt>
      <trkpt lat="46.04913" lon="6.3175">
        <ele>670</ele>
        <time>2021-03-27T13:05:09Z</time>
      </trkpt>
      <trkpt lat="46.04913" lon="6.31745">
        <ele>670</ele>
        <time>2021-03-27T13:05:10Z</time>
      </trkpt>
      <trkpt lat="46.04914" lon="6.31739">
        <ele>670.2</ele>
        <time>2021-03-27T13:05:11Z</time>
      </trkpt>
      <trkpt lat="46.04914" lon="6.31734">
        <ele>670.4</ele>
        <time>2021-03-27T13:05:12Z</time>
      </trkpt>
      <trkpt lat="46.04914" lon="6.31729">
        <ele>670.6</ele>
        <time>2021-03-27T13:05:13Z</time>
      </trkpt>
      <trkpt lat="46.04915" lon="6.31724">
        <ele>671</ele>
        <time>2021-03-27T13:05:14Z</time>
      </trkpt>
      <trkpt lat="46.04915" lon="6.31718">
        <ele>671.2</ele>
        <time>2021-03-27T13:05:15Z</time>
      </trkpt>
      <trkpt lat="46.04915" lon="6.31713">
        <ele>671.4</ele>
        <time>2021-03-27T13:05:16Z</time>
      </trkpt>
      <trkpt lat="46.04915" lon="6.31708">
        <ele>671.4</ele>
        <time>2021-03-27T13:05:17Z</time>
      </trkpt>
      <trkpt lat="46.04915" lon="6.31703">
        <ele>671.4</ele>
        <time>2021-03-27T13:05:18Z</time>
      </trkpt>
      <trkpt lat="46.04915" lon="6.31698">
        <ele>671.8</ele>
        <time>2021-03-27T13:05:19Z</time>
      </trkpt>
      <trkpt lat="46.04915" lon="6.31693">
        <ele>672.4</ele>
        <time>2021-03-27T13:05:20Z</time>
      </trkpt>
      <trkpt lat="46.04915" lon="6.31687">
        <ele>672.8</ele>
        <time>2021-03-27T13:05:21Z</time>
      </trkpt>
      <trkpt lat="46.04915" lon="6.31682">
        <ele>673</ele>
        <time>2021-03-27T13:05:22Z</time>
      </trkpt>
      <trkpt lat="46.04916" lon="6.31677">
        <ele>673.2</ele>
        <time>2021-03-27T13:05:23Z</time>
      </trkpt>
      <trkpt lat="46.04917" lon="6.31671">
        <ele>673.4</ele>
        <time>2021-03-27T13:05:24Z</time>
      </trkpt>
      <trkpt lat="46.04917" lon="6.31666">
        <ele>673.6</ele>
        <time>2021-03-27T13:05:25Z</time>
      </trkpt>
      <trkpt lat="46.04918" lon="6.3166">
        <ele>673.8</ele>
        <time>2021-03-27T13:05:26Z</time>
      </trkpt>
      <trkpt lat="46.0492" lon="6.31654">
        <ele>674</ele>
        <time>2021-03-27T13:05:27Z</time>
      </trkpt>
      <trkpt lat="46.04921" lon="6.31648">
        <ele>674</ele>
        <time>2021-03-27T13:05:28Z</time>
      </trkpt>
      <trkpt lat="46.04923" lon="6.31642">
        <ele>674.2</ele>
        <time>2021-03-27T13:05:29Z</time>
      </trkpt>
      <trkpt lat="46.04924" lon="6.31635">
        <ele>674.4</ele>
        <time>2021-03-27T13:05:30Z</time>
      </trkpt>
      <trkpt lat="46.04925" lon="6.31628">
        <ele>674.6</ele>
        <time>2021-03-27T13:05:31Z</time>
      </trkpt>
      <trkpt lat="46.04927" lon="6.31621">
        <ele>674.4</ele>
        <time>2021-03-27T13:05:32Z</time>
      </trkpt>
      <trkpt lat="46.04928" lon="6.31614">
        <ele>674.6</ele>
        <time>2021-03-27T13:05:33Z</time>
      </trkpt>
      <trkpt lat="46.04928" lon="6.31606">
        <ele>674.6</ele>
        <time>2021-03-27T13:05:34Z</time>
      </trkpt>
      <trkpt lat="46.04928" lon="6.31597">
        <ele>674.6</ele>
        <time>2021-03-27T13:05:35Z</time>
      </trkpt>
      <trkpt lat="46.04928" lon="6.31588">
        <ele>674.6</ele>
        <time>2021-03-27T13:05:36Z</time>
      </trkpt>
      <trkpt lat="46.04927" lon="6.31579">
        <ele>674.6</ele>
        <time>2021-03-27T13:05:37Z</time>
      </trkpt>
      <trkpt lat="46.04926" lon="6.31569">
        <ele>674.6</ele>
        <time>2021-03-27T13:05:38Z</time>
      </trkpt>
      <trkpt lat="46.04924" lon="6.3156">
        <ele>674.6</ele>
        <time>2021-03-27T13:05:39Z</time>
      </trkpt>
      <trkpt lat="46.04923" lon="6.31551">
        <ele>674.4</ele>
        <time>2021-03-27T13:05:40Z</time>
      </trkpt>
      <trkpt lat="46.04921" lon="6.31543">
        <ele>674.4</ele>
        <time>2021-03-27T13:05:41Z</time>
      </trkpt>
      <trkpt lat="46.0492" lon="6.31536">
        <ele>674.4</ele>
        <time>2021-03-27T13:05:42Z</time>
      </trkpt>
      <trkpt lat="46.04918" lon="6.3153">
        <ele>674.4</ele>
        <time>2021-03-27T13:05:43Z</time>
      </trkpt>
      <trkpt lat="46.04917" lon="6.31524">
        <ele>674.4</ele>
        <time>2021-03-27T13:05:44Z</time>
      </trkpt>
      <trkpt lat="46.04915" lon="6.31519">
        <ele>674.4</ele>
        <time>2021-03-27T13:05:45Z</time>
      </trkpt>
      <trkpt lat="46.04914" lon="6.31515">
        <ele>674.4</ele>
        <time>2021-03-27T13:05:46Z</time>
      </trkpt>
      <trkpt lat="46.04912" lon="6.3151">
        <ele>674.4</ele>
        <time>2021-03-27T13:05:47Z</time>
      </trkpt>
      <trkpt lat="46.0491" lon="6.31505">
        <ele>674.4</ele>
        <time>2021-03-27T13:05:48Z</time>
      </trkpt>
      <trkpt lat="46.04909" lon="6.31501">
        <ele>674.4</ele>
        <time>2021-03-27T13:05:49Z</time>
      </trkpt>
      <trkpt lat="46.04908" lon="6.31496">
        <ele>674.4</ele>
        <time>2021-03-27T13:05:50Z</time>
      </trkpt>
      <trkpt lat="46.04907" lon="6.31491">
        <ele>674.4</ele>
        <time>2021-03-27T13:05:51Z</time>
      </trkpt>
      <trkpt lat="46.04906" lon="6.31486">
        <ele>674.6</ele>
        <time>2021-03-27T13:05:52Z</time>
      </trkpt>
      <trkpt lat="46.04905" lon="6.31482">
        <ele>675</ele>
        <time>2021-03-27T13:05:53Z</time>
      </trkpt>
      <trkpt lat="46.04905" lon="6.31477">
        <ele>675.2</ele>
        <time>2021-03-27T13:05:54Z</time>
      </trkpt>
      <trkpt lat="46.04905" lon="6.31473">
        <ele>675.4</ele>
        <time>2021-03-27T13:05:55Z</time>
      </trkpt>
      <trkpt lat="46.04905" lon="6.31469">
        <ele>675.8</ele>
        <time>2021-03-27T13:05:56Z</time>
      </trkpt>
      <trkpt lat="46.04905" lon="6.31465">
        <ele>676.2</ele>
        <time>2021-03-27T13:05:57Z</time>
      </trkpt>
      <trkpt lat="46.04904" lon="6.31461">
        <ele>676.6</ele>
        <time>2021-03-27T13:05:58Z</time>
      </trkpt>
      <trkpt lat="46.04904" lon="6.31457">
        <ele>676.8</ele>
        <time>2021-03-27T13:05:59Z</time>
      </trkpt>
      <trkpt lat="46.04903" lon="6.31453">
        <ele>677</ele>
        <time>2021-03-27T13:06:00Z</time>
      </trkpt>
      <trkpt lat="46.04903" lon="6.31449">
        <ele>677.4</ele>
        <time>2021-03-27T13:06:01Z</time>
      </trkpt>
      <trkpt lat="46.04903" lon="6.31445">
        <ele>677.8</ele>
        <time>2021-03-27T13:06:02Z</time>
      </trkpt>
      <trkpt lat="46.04903" lon="6.31441">
        <ele>678</ele>
        <time>2021-03-27T13:06:03Z</time>
      </trkpt>
      <trkpt lat="46.04903" lon="6.31437">
        <ele>678.4</ele>
        <time>2021-03-27T13:06:04Z</time>
      </trkpt>
      <trkpt lat="46.04902" lon="6.31433">
        <ele>678.8</ele>
        <time>2021-03-27T13:06:05Z</time>
      </trkpt>
      <trkpt lat="46.04901" lon="6.31429">
        <ele>679</ele>
        <time>2021-03-27T13:06:06Z</time>
      </trkpt>
      <trkpt lat="46.04901" lon="6.31425">
        <ele>679.2</ele>
        <time>2021-03-27T13:06:07Z</time>
      </trkpt>
      <trkpt lat="46.049" lon="6.3142">
        <ele>679.6</ele>
        <time>2021-03-27T13:06:08Z</time>
      </trkpt>
      <trkpt lat="46.049" lon="6.31416">
        <ele>679.6</ele>
        <time>2021-03-27T13:06:09Z</time>
      </trkpt>
      <trkpt lat="46.04899" lon="6.31411">
        <ele>680</ele>
        <time>2021-03-27T13:06:10Z</time>
      </trkpt>
      <trkpt lat="46.04899" lon="6.31407">
        <ele>680</ele>
        <time>2021-03-27T13:06:11Z</time>
      </trkpt>
      <trkpt lat="46.04898" lon="6.31402">
        <ele>680.4</ele>
        <time>2021-03-27T13:06:12Z</time>
      </trkpt>
      <trkpt lat="46.04897" lon="6.31398">
        <ele>680.8</ele>
        <time>2021-03-27T13:06:13Z</time>
      </trkpt>
      <trkpt lat="46.04897" lon="6.31394">
        <ele>681</ele>
        <time>2021-03-27T13:06:14Z</time>
      </trkpt>
      <trkpt lat="46.04896" lon="6.3139">
        <ele>681.6</ele>
        <time>2021-03-27T13:06:15Z</time>
      </trkpt>
      <trkpt lat="46.04896" lon="6.31386">
        <ele>681.8</ele>
        <time>2021-03-27T13:06:16Z</time>
      </trkpt>
      <trkpt lat="46.04895" lon="6.31382">
        <ele>682.2</ele>
        <time>2021-03-27T13:06:17Z</time>
      </trkpt>
      <trkpt lat="46.04895" lon="6.31377">
        <ele>682.6</ele>
        <time>2021-03-27T13:06:18Z</time>
      </trkpt>
      <trkpt lat="46.04895" lon="6.31373">
        <ele>682.8</ele>
        <time>2021-03-27T13:06:19Z</time>
      </trkpt>
      <trkpt lat="46.04894" lon="6.31369">
        <ele>683.2</ele>
        <time>2021-03-27T13:06:20Z</time>
      </trkpt>
      <trkpt lat="46.04894" lon="6.31365">
        <ele>683.4</ele>
        <time>2021-03-27T13:06:21Z</time>
      </trkpt>
      <trkpt lat="46.04894" lon="6.3136">
        <ele>683.6</ele>
        <time>2021-03-27T13:06:22Z</time>
      </trkpt>
      <trkpt lat="46.04893" lon="6.31356">
        <ele>683.8</ele>
        <time>2021-03-27T13:06:23Z</time>
      </trkpt>
      <trkpt lat="46.04892" lon="6.31352">
        <ele>683.8</ele>
        <time>2021-03-27T13:06:24Z</time>
      </trkpt>
      <trkpt lat="46.04892" lon="6.31348">
        <ele>684</ele>
        <time>2021-03-27T13:06:25Z</time>
      </trkpt>
      <trkpt lat="46.04891" lon="6.31343">
        <ele>684.4</ele>
        <time>2021-03-27T13:06:26Z</time>
      </trkpt>
      <trkpt lat="46.04891" lon="6.31339">
        <ele>684.8</ele>
        <time>2021-03-27T13:06:27Z</time>
      </trkpt>
      <trkpt lat="46.0489" lon="6.31335">
        <ele>685.2</ele>
        <time>2021-03-27T13:06:28Z</time>
      </trkpt>
      <trkpt lat="46.04889" lon="6.3133">
        <ele>685.2</ele>
        <time>2021-03-27T13:06:29Z</time>
      </trkpt>
      <trkpt lat="46.04888" lon="6.31326">
        <ele>685.6</ele>
        <time>2021-03-27T13:06:30Z</time>
      </trkpt>
      <trkpt lat="46.04888" lon="6.31321">
        <ele>685.8</ele>
        <time>2021-03-27T13:06:31Z</time>
      </trkpt>
      <trkpt lat="46.04887" lon="6.31317">
        <ele>686.2</ele>
        <time>2021-03-27T13:06:32Z</time>
      </trkpt>
      <trkpt lat="46.04886" lon="6.31312">
        <ele>686.6</ele>
        <time>2021-03-27T13:06:33Z</time>
      </trkpt>
      <trkpt lat="46.04885" lon="6.31308">
        <ele>686.6</ele>
        <time>2021-03-27T13:06:34Z</time>
      </trkpt>
      <trkpt lat="46.04883" lon="6.31304">
        <ele>687</ele>
        <time>2021-03-27T13:06:35Z</time>
      </trkpt>
      <trkpt lat="46.04882" lon="6.313">
        <ele>687</ele>
        <time>2021-03-27T13:06:36Z</time>
      </trkpt>
      <trkpt lat="46.0488" lon="6.31296">
        <ele>687.2</ele>
        <time>2021-03-27T13:06:37Z</time>
      </trkpt>
      <trkpt lat="46.04879" lon="6.31292">
        <ele>687.6</ele>
        <time>2021-03-27T13:06:38Z</time>
      </trkpt>
      <trkpt lat="46.04877" lon="6.31289">
        <ele>687.8</ele>
        <time>2021-03-27T13:06:39Z</time>
      </trkpt>
      <trkpt lat="46.04875" lon="6.31286">
        <ele>688</ele>
        <time>2021-03-27T13:06:40Z</time>
      </trkpt>
      <trkpt lat="46.04873" lon="6.31283">
        <ele>688.4</ele>
        <time>2021-03-27T13:06:41Z</time>
      </trkpt>
      <trkpt lat="46.04871" lon="6.3128">
        <ele>688.6</ele>
        <time>2021-03-27T13:06:42Z</time>
      </trkpt>
      <trkpt lat="46.04868" lon="6.31278">
        <ele>688.6</ele>
        <time>2021-03-27T13:06:43Z</time>
      </trkpt>
      <trkpt lat="46.04866" lon="6.31275">
        <ele>688.8</ele>
        <time>2021-03-27T13:06:44Z</time>
      </trkpt>
      <trkpt lat="46.04864" lon="6.31273">
        <ele>688.8</ele>
        <time>2021-03-27T13:06:45Z</time>
      </trkpt>
      <trkpt lat="46.04862" lon="6.3127">
        <ele>689</ele>
        <time>2021-03-27T13:06:46Z</time>
      </trkpt>
      <trkpt lat="46.0486" lon="6.31268">
        <ele>689.4</ele>
        <time>2021-03-27T13:06:47Z</time>
      </trkpt>
      <trkpt lat="46.04857" lon="6.31266">
        <ele>689.8</ele>
        <time>2021-03-27T13:06:48Z</time>
      </trkpt>
      <trkpt lat="46.04855" lon="6.31264">
        <ele>690.2</ele>
        <time>2021-03-27T13:06:49Z</time>
      </trkpt>
      <trkpt lat="46.04853" lon="6.31262">
        <ele>690.4</ele>
        <time>2021-03-27T13:06:50Z</time>
      </trkpt>
      <trkpt lat="46.0485" lon="6.31261">
        <ele>690.8</ele>
        <time>2021-03-27T13:06:51Z</time>
      </trkpt>
      <trkpt lat="46.04847" lon="6.31259">
        <ele>691</ele>
        <time>2021-03-27T13:06:52Z</time>
      </trkpt>
      <trkpt lat="46.04844" lon="6.31258">
        <ele>691.2</ele>
        <time>2021-03-27T13:06:53Z</time>
      </trkpt>
      <trkpt lat="46.04842" lon="6.31256">
        <ele>691.6</ele>
        <time>2021-03-27T13:06:54Z</time>
      </trkpt>
      <trkpt lat="46.04839" lon="6.31255">
        <ele>691.6</ele>
        <time>2021-03-27T13:06:55Z</time>
      </trkpt>
      <trkpt lat="46.04837" lon="6.31253">
        <ele>691.8</ele>
        <time>2021-03-27T13:06:56Z</time>
      </trkpt>
      <trkpt lat="46.04834" lon="6.31252">
        <ele>692.2</ele>
        <time>2021-03-27T13:06:57Z</time>
      </trkpt>
      <trkpt lat="46.04832" lon="6.3125">
        <ele>692.4</ele>
        <time>2021-03-27T13:06:58Z</time>
      </trkpt>
      <trkpt lat="46.04829" lon="6.31248">
        <ele>692.6</ele>
        <time>2021-03-27T13:06:59Z</time>
      </trkpt>
      <trkpt lat="46.04827" lon="6.31247">
        <ele>692.6</ele>
        <time>2021-03-27T13:07:00Z</time>
      </trkpt>
      <trkpt lat="46.04824" lon="6.31245">
        <ele>692.6</ele>
        <time>2021-03-27T13:07:01Z</time>
      </trkpt>
      <trkpt lat="46.04822" lon="6.31244">
        <ele>693</ele>
        <time>2021-03-27T13:07:02Z</time>
      </trkpt>
      <trkpt lat="46.04819" lon="6.31242">
        <ele>693.2</ele>
        <time>2021-03-27T13:07:03Z</time>
      </trkpt>
      <trkpt lat="46.04817" lon="6.31241">
        <ele>693.4</ele>
        <time>2021-03-27T13:07:04Z</time>
      </trkpt>
      <trkpt lat="46.04814" lon="6.31239">
        <ele>693.8</ele>
        <time>2021-03-27T13:07:05Z</time>
      </trkpt>
      <trkpt lat="46.04811" lon="6.31238">
        <ele>694</ele>
        <time>2021-03-27T13:07:06Z</time>
      </trkpt>
      <trkpt lat="46.04809" lon="6.31236">
        <ele>694.4</ele>
        <time>2021-03-27T13:07:07Z</time>
      </trkpt>
      <trkpt lat="46.04806" lon="6.31234">
        <ele>694.8</ele>
        <time>2021-03-27T13:07:08Z</time>
      </trkpt>
      <trkpt lat="46.04803" lon="6.31233">
        <ele>695</ele>
        <time>2021-03-27T13:07:09Z</time>
      </trkpt>
      <trkpt lat="46.04801" lon="6.31231">
        <ele>695.4</ele>
        <time>2021-03-27T13:07:10Z</time>
      </trkpt>
      <trkpt lat="46.04798" lon="6.3123">
        <ele>695.6</ele>
        <time>2021-03-27T13:07:11Z</time>
      </trkpt>
      <trkpt lat="46.04795" lon="6.31229">
        <ele>695.6</ele>
        <time>2021-03-27T13:07:12Z</time>
      </trkpt>
      <trkpt lat="46.04793" lon="6.31227">
        <ele>696</ele>
        <time>2021-03-27T13:07:13Z</time>
      </trkpt>
      <trkpt lat="46.0479" lon="6.31226">
        <ele>696.2</ele>
        <time>2021-03-27T13:07:14Z</time>
      </trkpt>
      <trkpt lat="46.04787" lon="6.31225">
        <ele>696.2</ele>
        <time>2021-03-27T13:07:15Z</time>
      </trkpt>
      <trkpt lat="46.04784" lon="6.31224">
        <ele>696.6</ele>
        <time>2021-03-27T13:07:16Z</time>
      </trkpt>
      <trkpt lat="46.04781" lon="6.31223">
        <ele>696.8</ele>
        <time>2021-03-27T13:07:17Z</time>
      </trkpt>
      <trkpt lat="46.04778" lon="6.31222">
        <ele>697.2</ele>
        <time>2021-03-27T13:07:18Z</time>
      </trkpt>
      <trkpt lat="46.04776" lon="6.3122">
        <ele>697.2</ele>
        <time>2021-03-27T13:07:19Z</time>
      </trkpt>
      <trkpt lat="46.04773" lon="6.31218">
        <ele>697.6</ele>
        <time>2021-03-27T13:07:20Z</time>
      </trkpt>
      <trkpt lat="46.04771" lon="6.31216">
        <ele>697.8</ele>
        <time>2021-03-27T13:07:21Z</time>
      </trkpt>
      <trkpt lat="46.04769" lon="6.31214">
        <ele>698.2</ele>
        <time>2021-03-27T13:07:22Z</time>
      </trkpt>
      <trkpt lat="46.04767" lon="6.31213">
        <ele>698.4</ele>
        <time>2021-03-27T13:07:23Z</time>
      </trkpt>
      <trkpt lat="46.04765" lon="6.31211">
        <ele>698.6</ele>
        <time>2021-03-27T13:07:24Z</time>
      </trkpt>
      <trkpt lat="46.04763" lon="6.31209">
        <ele>698.8</ele>
        <time>2021-03-27T13:07:25Z</time>
      </trkpt>
      <trkpt lat="46.04761" lon="6.31208">
        <ele>699.2</ele>
        <time>2021-03-27T13:07:26Z</time>
      </trkpt>
      <trkpt lat="46.04759" lon="6.31206">
        <ele>699.4</ele>
        <time>2021-03-27T13:07:27Z</time>
      </trkpt>
      <trkpt lat="46.04757" lon="6.31204">
        <ele>699.6</ele>
        <time>2021-03-27T13:07:28Z</time>
      </trkpt>
      <trkpt lat="46.04755" lon="6.31204">
        <ele>699.8</ele>
        <time>2021-03-27T13:07:29Z</time>
      </trkpt>
      <trkpt lat="46.04752" lon="6.31202">
        <ele>699.8</ele>
        <time>2021-03-27T13:07:30Z</time>
      </trkpt>
      <trkpt lat="46.0475" lon="6.31201">
        <ele>700.2</ele>
        <time>2021-03-27T13:07:31Z</time>
      </trkpt>
      <trkpt lat="46.04748" lon="6.312">
        <ele>700.6</ele>
        <time>2021-03-27T13:07:32Z</time>
      </trkpt>
      <trkpt lat="46.04746" lon="6.31198">
        <ele>701</ele>
        <time>2021-03-27T13:07:33Z</time>
      </trkpt>
      <trkpt lat="46.04744" lon="6.31198">
        <ele>701.2</ele>
        <time>2021-03-27T13:07:34Z</time>
      </trkpt>
      <trkpt lat="46.04742" lon="6.31197">
        <ele>701.2</ele>
        <time>2021-03-27T13:07:35Z</time>
      </trkpt>
      <trkpt lat="46.0474" lon="6.31196">
        <ele>701.4</ele>
        <time>2021-03-27T13:07:36Z</time>
      </trkpt>
      <trkpt lat="46.04738" lon="6.31195">
        <ele>701.8</ele>
        <time>2021-03-27T13:07:37Z</time>
      </trkpt>
      <trkpt lat="46.04737" lon="6.31194">
        <ele>702.2</ele>
        <time>2021-03-27T13:07:38Z</time>
      </trkpt>
      <trkpt lat="46.04735" lon="6.31193">
        <ele>702.6</ele>
        <time>2021-03-27T13:07:39Z</time>
      </trkpt>
      <trkpt lat="46.04732" lon="6.31193">
        <ele>702.8</ele>
        <time>2021-03-27T13:07:40Z</time>
      </trkpt>
      <trkpt lat="46.04731" lon="6.31192">
        <ele>703.2</ele>
        <time>2021-03-27T13:07:41Z</time>
      </trkpt>
      <trkpt lat="46.04728" lon="6.31192">
        <ele>703.4</ele>
        <time>2021-03-27T13:07:42Z</time>
      </trkpt>
      <trkpt lat="46.04725" lon="6.31192">
        <ele>703.8</ele>
        <time>2021-03-27T13:07:43Z</time>
      </trkpt>
      <trkpt lat="46.04723" lon="6.31193">
        <ele>703.8</ele>
        <time>2021-03-27T13:07:44Z</time>
      </trkpt>
      <trkpt lat="46.04721" lon="6.31194">
        <ele>704.4</ele>
        <time>2021-03-27T13:07:45Z</time>
      </trkpt>
      <trkpt lat="46.04719" lon="6.31196">
        <ele>704.6</ele>
        <time>2021-03-27T13:07:46Z</time>
      </trkpt>
      <trkpt lat="46.04718" lon="6.31198">
        <ele>705</ele>
        <time>2021-03-27T13:07:47Z</time>
      </trkpt>
      <trkpt lat="46.04717" lon="6.312">
        <ele>705.4</ele>
        <time>2021-03-27T13:07:48Z</time>
      </trkpt>
      <trkpt lat="46.04716" lon="6.31203">
        <ele>705.8</ele>
        <time>2021-03-27T13:07:49Z</time>
      </trkpt>
      <trkpt lat="46.04715" lon="6.31206">
        <ele>706</ele>
        <time>2021-03-27T13:07:50Z</time>
      </trkpt>
      <trkpt lat="46.04715" lon="6.31209">
        <ele>706.2</ele>
        <time>2021-03-27T13:07:51Z</time>
      </trkpt>
      <trkpt lat="46.04714" lon="6.31213">
        <ele>706.6</ele>
        <time>2021-03-27T13:07:52Z</time>
      </trkpt>
      <trkpt lat="46.04714" lon="6.31217">
        <ele>706.6</ele>
        <time>2021-03-27T13:07:53Z</time>
      </trkpt>
      <trkpt lat="46.04714" lon="6.31221">
        <ele>707</ele>
        <time>2021-03-27T13:07:54Z</time>
      </trkpt>
      <trkpt lat="46.04715" lon="6.31225">
        <ele>707.2</ele>
        <time>2021-03-27T13:07:55Z</time>
      </trkpt>
      <trkpt lat="46.04714" lon="6.31229">
        <ele>707.4</ele>
        <time>2021-03-27T13:07:56Z</time>
      </trkpt>
      <trkpt lat="46.04713" lon="6.31233">
        <ele>707.4</ele>
        <time>2021-03-27T13:07:57Z</time>
      </trkpt>
      <trkpt lat="46.04713" lon="6.31236">
        <ele>707.8</ele>
        <time>2021-03-27T13:07:58Z</time>
      </trkpt>
      <trkpt lat="46.04712" lon="6.3124">
        <ele>708</ele>
        <time>2021-03-27T13:07:59Z</time>
      </trkpt>
      <trkpt lat="46.04712" lon="6.31244">
        <ele>708.2</ele>
        <time>2021-03-27T13:08:00Z</time>
      </trkpt>
      <trkpt lat="46.04711" lon="6.31248">
        <ele>708.6</ele>
        <time>2021-03-27T13:08:01Z</time>
      </trkpt>
      <trkpt lat="46.04711" lon="6.31252">
        <ele>708.8</ele>
        <time>2021-03-27T13:08:02Z</time>
      </trkpt>
      <trkpt lat="46.04711" lon="6.31256">
        <ele>709.2</ele>
        <time>2021-03-27T13:08:03Z</time>
      </trkpt>
      <trkpt lat="46.04711" lon="6.31259">
        <ele>709.4</ele>
        <time>2021-03-27T13:08:04Z</time>
      </trkpt>
      <trkpt lat="46.04711" lon="6.31263">
        <ele>709.6</ele>
        <time>2021-03-27T13:08:05Z</time>
      </trkpt>
      <trkpt lat="46.04711" lon="6.31267">
        <ele>710</ele>
        <time>2021-03-27T13:08:06Z</time>
      </trkpt>
      <trkpt lat="46.04711" lon="6.31271">
        <ele>710</ele>
        <time>2021-03-27T13:08:07Z</time>
      </trkpt>
      <trkpt lat="46.04711" lon="6.31275">
        <ele>710.4</ele>
        <time>2021-03-27T13:08:08Z</time>
      </trkpt>
      <trkpt lat="46.04711" lon="6.31279">
        <ele>710.6</ele>
        <time>2021-03-27T13:08:09Z</time>
      </trkpt>
      <trkpt lat="46.04711" lon="6.31283">
        <ele>711</ele>
        <time>2021-03-27T13:08:10Z</time>
      </trkpt>
      <trkpt lat="46.04711" lon="6.31286">
        <ele>711</ele>
        <time>2021-03-27T13:08:11Z</time>
      </trkpt>
      <trkpt lat="46.0471" lon="6.3129">
        <ele>711.4</ele>
        <time>2021-03-27T13:08:12Z</time>
      </trkpt>
      <trkpt lat="46.0471" lon="6.31294">
        <ele>711.6</ele>
        <time>2021-03-27T13:08:13Z</time>
      </trkpt>
      <trkpt lat="46.0471" lon="6.31298">
        <ele>712</ele>
        <time>2021-03-27T13:08:14Z</time>
      </trkpt>
      <trkpt lat="46.0471" lon="6.31302">
        <ele>712.2</ele>
        <time>2021-03-27T13:08:15Z</time>
      </trkpt>
      <trkpt lat="46.0471" lon="6.31306">
        <ele>712.4</ele>
        <time>2021-03-27T13:08:16Z</time>
      </trkpt>
      <trkpt lat="46.0471" lon="6.3131">
        <ele>712.8</ele>
        <time>2021-03-27T13:08:17Z</time>
      </trkpt>
      <trkpt lat="46.0471" lon="6.31314">
        <ele>712.8</ele>
        <time>2021-03-27T13:08:18Z</time>
      </trkpt>
      <trkpt lat="46.04709" lon="6.31318">
        <ele>713</ele>
        <time>2021-03-27T13:08:19Z</time>
      </trkpt>
      <trkpt lat="46.04709" lon="6.31323">
        <ele>713.4</ele>
        <time>2021-03-27T13:08:20Z</time>
      </trkpt>
      <trkpt lat="46.04708" lon="6.31328">
        <ele>713.8</ele>
        <time>2021-03-27T13:08:21Z</time>
      </trkpt>
      <trkpt lat="46.04708" lon="6.31333">
        <ele>713.8</ele>
        <time>2021-03-27T13:08:22Z</time>
      </trkpt>
      <trkpt lat="46.04707" lon="6.31338">
        <ele>714</ele>
        <time>2021-03-27T13:08:23Z</time>
      </trkpt>
      <trkpt lat="46.04707" lon="6.31343">
        <ele>714.2</ele>
        <time>2021-03-27T13:08:24Z</time>
      </trkpt>
      <trkpt lat="46.04706" lon="6.31348">
        <ele>714.4</ele>
        <time>2021-03-27T13:08:25Z</time>
      </trkpt>
      <trkpt lat="46.04706" lon="6.31354">
        <ele>714.6</ele>
        <time>2021-03-27T13:08:26Z</time>
      </trkpt>
      <trkpt lat="46.04705" lon="6.31359">
        <ele>714.8</ele>
        <time>2021-03-27T13:08:27Z</time>
      </trkpt>
      <trkpt lat="46.04704" lon="6.31364">
        <ele>714.8</ele>
        <time>2021-03-27T13:08:28Z</time>
      </trkpt>
      <trkpt lat="46.04703" lon="6.31369">
        <ele>715.2</ele>
        <time>2021-03-27T13:08:29Z</time>
      </trkpt>
      <trkpt lat="46.04703" lon="6.31373">
        <ele>715.2</ele>
        <time>2021-03-27T13:08:30Z</time>
      </trkpt>
      <trkpt lat="46.04702" lon="6.31378">
        <ele>715.6</ele>
        <time>2021-03-27T13:08:31Z</time>
      </trkpt>
      <trkpt lat="46.04702" lon="6.31383">
        <ele>715.6</ele>
        <time>2021-03-27T13:08:32Z</time>
      </trkpt>
      <trkpt lat="46.047" lon="6.31388">
        <ele>715.8</ele>
        <time>2021-03-27T13:08:33Z</time>
      </trkpt>
      <trkpt lat="46.04699" lon="6.31393">
        <ele>715.8</ele>
        <time>2021-03-27T13:08:34Z</time>
      </trkpt>
      <trkpt lat="46.04697" lon="6.31398">
        <ele>716</ele>
        <time>2021-03-27T13:08:35Z</time>
      </trkpt>
      <trkpt lat="46.04696" lon="6.31404">
        <ele>716</ele>
        <time>2021-03-27T13:08:36Z</time>
      </trkpt>
      <trkpt lat="46.04694" lon="6.31409">
        <ele>716</ele>
        <time>2021-03-27T13:08:37Z</time>
      </trkpt>
      <trkpt lat="46.04692" lon="6.31414">
        <ele>716</ele>
        <time>2021-03-27T13:08:38Z</time>
      </trkpt>
      <trkpt lat="46.04691" lon="6.3142">
        <ele>716.2</ele>
        <time>2021-03-27T13:08:39Z</time>
      </trkpt>
      <trkpt lat="46.04689" lon="6.31426">
        <ele>716.2</ele>
        <time>2021-03-27T13:08:40Z</time>
      </trkpt>
      <trkpt lat="46.04688" lon="6.31432">
        <ele>716.2</ele>
        <time>2021-03-27T13:08:41Z</time>
      </trkpt>
      <trkpt lat="46.04687" lon="6.31438">
        <ele>716.4</ele>
        <time>2021-03-27T13:08:42Z</time>
      </trkpt>
      <trkpt lat="46.04686" lon="6.31444">
        <ele>716.6</ele>
        <time>2021-03-27T13:08:43Z</time>
      </trkpt>
      <trkpt lat="46.04685" lon="6.3145">
        <ele>716.8</ele>
        <time>2021-03-27T13:08:44Z</time>
      </trkpt>
      <trkpt lat="46.04684" lon="6.31456">
        <ele>717</ele>
        <time>2021-03-27T13:08:45Z</time>
      </trkpt>
      <trkpt lat="46.04684" lon="6.31463">
        <ele>717</ele>
        <time>2021-03-27T13:08:46Z</time>
      </trkpt>
      <trkpt lat="46.04683" lon="6.3147">
        <ele>717.2</ele>
        <time>2021-03-27T13:08:47Z</time>
      </trkpt>
      <trkpt lat="46.04684" lon="6.31477">
        <ele>717.2</ele>
        <time>2021-03-27T13:08:48Z</time>
      </trkpt>
      <trkpt lat="46.04684" lon="6.31484">
        <ele>717.2</ele>
        <time>2021-03-27T13:08:49Z</time>
      </trkpt>
      <trkpt lat="46.04685" lon="6.31491">
        <ele>717.2</ele>
        <time>2021-03-27T13:08:50Z</time>
      </trkpt>
      <trkpt lat="46.04685" lon="6.31499">
        <ele>717.2</ele>
        <time>2021-03-27T13:08:51Z</time>
      </trkpt>
      <trkpt lat="46.04685" lon="6.31507">
        <ele>717.2</ele>
        <time>2021-03-27T13:08:52Z</time>
      </trkpt>
      <trkpt lat="46.04685" lon="6.31514">
        <ele>717.4</ele>
        <time>2021-03-27T13:08:53Z</time>
      </trkpt>
      <trkpt lat="46.04686" lon="6.31522">
        <ele>717.2</ele>
        <time>2021-03-27T13:08:54Z</time>
      </trkpt>
      <trkpt lat="46.04685" lon="6.31531">
        <ele>717.4</ele>
        <time>2021-03-27T13:08:55Z</time>
      </trkpt>
      <trkpt lat="46.04684" lon="6.3154">
        <ele>717.4</ele>
        <time>2021-03-27T13:08:56Z</time>
      </trkpt>
      <trkpt lat="46.04681" lon="6.31557">
        <ele>717.6</ele>
        <time>2021-03-27T13:08:58Z</time>
      </trkpt>
      <trkpt lat="46.04679" lon="6.31564">
        <ele>717.6</ele>
        <time>2021-03-27T13:08:59Z</time>
      </trkpt>
      <trkpt lat="46.04676" lon="6.31571">
        <ele>717.6</ele>
        <time>2021-03-27T13:09:00Z</time>
      </trkpt>
      <trkpt lat="46.04674" lon="6.31577">
        <ele>717.6</ele>
        <time>2021-03-27T13:09:01Z</time>
      </trkpt>
      <trkpt lat="46.04672" lon="6.31583">
        <ele>717.6</ele>
        <time>2021-03-27T13:09:02Z</time>
      </trkpt>
      <trkpt lat="46.0467" lon="6.31588">
        <ele>717.6</ele>
        <time>2021-03-27T13:09:03Z</time>
      </trkpt>
      <trkpt lat="46.04667" lon="6.31592">
        <ele>717.6</ele>
        <time>2021-03-27T13:09:04Z</time>
      </trkpt>
      <trkpt lat="46.04664" lon="6.31595">
        <ele>717.6</ele>
        <time>2021-03-27T13:09:05Z</time>
      </trkpt>
      <trkpt lat="46.04657" lon="6.31595">
        <ele>718.2</ele>
        <time>2021-03-27T13:09:07Z</time>
      </trkpt>
      <trkpt lat="46.04653" lon="6.31593">
        <ele>718.6</ele>
        <time>2021-03-27T13:09:08Z</time>
      </trkpt>
      <trkpt lat="46.04648" lon="6.31587">
        <ele>719.2</ele>
        <time>2021-03-27T13:09:10Z</time>
      </trkpt>
      <trkpt lat="46.04647" lon="6.31582">
        <ele>719.8</ele>
        <time>2021-03-27T13:09:11Z</time>
      </trkpt>
      <trkpt lat="46.04647" lon="6.31577">
        <ele>720.2</ele>
        <time>2021-03-27T13:09:12Z</time>
      </trkpt>
      <trkpt lat="46.04648" lon="6.31572">
        <ele>720.8</ele>
        <time>2021-03-27T13:09:13Z</time>
      </trkpt>
      <trkpt lat="46.0465" lon="6.31568">
        <ele>721</ele>
        <time>2021-03-27T13:09:14Z</time>
      </trkpt>
      <trkpt lat="46.04652" lon="6.31563">
        <ele>721</ele>
        <time>2021-03-27T13:09:15Z</time>
      </trkpt>
      <trkpt lat="46.04654" lon="6.31559">
        <ele>721.2</ele>
        <time>2021-03-27T13:09:16Z</time>
      </trkpt>
      <trkpt lat="46.04656" lon="6.31555">
        <ele>721.6</ele>
        <time>2021-03-27T13:09:17Z</time>
      </trkpt>
      <trkpt lat="46.04656" lon="6.31551">
        <ele>721.6</ele>
        <time>2021-03-27T13:09:18Z</time>
      </trkpt>
      <trkpt lat="46.04657" lon="6.31547">
        <ele>721.8</ele>
        <time>2021-03-27T13:09:19Z</time>
      </trkpt>
      <trkpt lat="46.04656" lon="6.31543">
        <ele>721.8</ele>
        <time>2021-03-27T13:09:20Z</time>
      </trkpt>
      <trkpt lat="46.04656" lon="6.31538">
        <ele>722</ele>
        <time>2021-03-27T13:09:21Z</time>
      </trkpt>
      <trkpt lat="46.04655" lon="6.31535">
        <ele>722</ele>
        <time>2021-03-27T13:09:22Z</time>
      </trkpt>
      <trkpt lat="46.04655" lon="6.31532">
        <ele>722.4</ele>
        <time>2021-03-27T13:09:23Z</time>
      </trkpt>
      <trkpt lat="46.04655" lon="6.31529">
        <ele>722.8</ele>
        <time>2021-03-27T13:09:24Z</time>
      </trkpt>
      <trkpt lat="46.04655" lon="6.31525">
        <ele>722.8</ele>
        <time>2021-03-27T13:09:25Z</time>
      </trkpt>
      <trkpt lat="46.04655" lon="6.31522">
        <ele>723</ele>
        <time>2021-03-27T13:09:26Z</time>
      </trkpt>
      <trkpt lat="46.04655" lon="6.31519">
        <ele>723.2</ele>
        <time>2021-03-27T13:09:27Z</time>
      </trkpt>
      <trkpt lat="46.04656" lon="6.31515">
        <ele>723.4</ele>
        <time>2021-03-27T13:09:28Z</time>
      </trkpt>
      <trkpt lat="46.04655" lon="6.31511">
        <ele>723.6</ele>
        <time>2021-03-27T13:09:29Z</time>
      </trkpt>
      <trkpt lat="46.04654" lon="6.31507">
        <ele>723.8</ele>
        <time>2021-03-27T13:09:30Z</time>
      </trkpt>
      <trkpt lat="46.04654" lon="6.31503">
        <ele>724</ele>
        <time>2021-03-27T13:09:31Z</time>
      </trkpt>
      <trkpt lat="46.04652" lon="6.31499">
        <ele>724.2</ele>
        <time>2021-03-27T13:09:32Z</time>
      </trkpt>
      <trkpt lat="46.04651" lon="6.31495">
        <ele>724.4</ele>
        <time>2021-03-27T13:09:33Z</time>
      </trkpt>
      <trkpt lat="46.0465" lon="6.31491">
        <ele>724.6</ele>
        <time>2021-03-27T13:09:34Z</time>
      </trkpt>
      <trkpt lat="46.04649" lon="6.31488">
        <ele>724.6</ele>
        <time>2021-03-27T13:09:35Z</time>
      </trkpt>
      <trkpt lat="46.04649" lon="6.31483">
        <ele>725.2</ele>
        <time>2021-03-27T13:09:36Z</time>
      </trkpt>
      <trkpt lat="46.04649" lon="6.31479">
        <ele>725.4</ele>
        <time>2021-03-27T13:09:37Z</time>
      </trkpt>
      <trkpt lat="46.04649" lon="6.31476">
        <ele>725.8</ele>
        <time>2021-03-27T13:09:38Z</time>
      </trkpt>
      <trkpt lat="46.04649" lon="6.31472">
        <ele>726.2</ele>
        <time>2021-03-27T13:09:39Z</time>
      </trkpt>
      <trkpt lat="46.04649" lon="6.31468">
        <ele>726.4</ele>
        <time>2021-03-27T13:09:40Z</time>
      </trkpt>
      <trkpt lat="46.04648" lon="6.31463">
        <ele>726.8</ele>
        <time>2021-03-27T13:09:41Z</time>
      </trkpt>
      <trkpt lat="46.04647" lon="6.31458">
        <ele>726.8</ele>
        <time>2021-03-27T13:09:42Z</time>
      </trkpt>
      <trkpt lat="46.04647" lon="6.31453">
        <ele>727.2</ele>
        <time>2021-03-27T13:09:43Z</time>
      </trkpt>
      <trkpt lat="46.04646" lon="6.31447">
        <ele>727.4</ele>
        <time>2021-03-27T13:09:44Z</time>
      </trkpt>
      <trkpt lat="46.04646" lon="6.31441">
        <ele>727.4</ele>
        <time>2021-03-27T13:09:45Z</time>
      </trkpt>
      <trkpt lat="46.04646" lon="6.31435">
        <ele>727.6</ele>
        <time>2021-03-27T13:09:46Z</time>
      </trkpt>
      <trkpt lat="46.04646" lon="6.3143">
        <ele>727.8</ele>
        <time>2021-03-27T13:09:47Z</time>
      </trkpt>
      <trkpt lat="46.04645" lon="6.31424">
        <ele>727.8</ele>
        <time>2021-03-27T13:09:48Z</time>
      </trkpt>
      <trkpt lat="46.04645" lon="6.31419">
        <ele>728</ele>
        <time>2021-03-27T13:09:49Z</time>
      </trkpt>
      <trkpt lat="46.04645" lon="6.31414">
        <ele>728</ele>
        <time>2021-03-27T13:09:50Z</time>
      </trkpt>
      <trkpt lat="46.04644" lon="6.31409">
        <ele>728</ele>
        <time>2021-03-27T13:09:51Z</time>
      </trkpt>
      <trkpt lat="46.04644" lon="6.31404">
        <ele>728.2</ele>
        <time>2021-03-27T13:09:52Z</time>
      </trkpt>
      <trkpt lat="46.04645" lon="6.31399">
        <ele>728.6</ele>
        <time>2021-03-27T13:09:53Z</time>
      </trkpt>
      <trkpt lat="46.04645" lon="6.31394">
        <ele>728.8</ele>
        <time>2021-03-27T13:09:54Z</time>
      </trkpt>
      <trkpt lat="46.04646" lon="6.31389">
        <ele>729.2</ele>
        <time>2021-03-27T13:09:55Z</time>
      </trkpt>
      <trkpt lat="46.04646" lon="6.31384">
        <ele>729.4</ele>
        <time>2021-03-27T13:09:56Z</time>
      </trkpt>
      <trkpt lat="46.04647" lon="6.31379">
        <ele>729.6</ele>
        <time>2021-03-27T13:09:57Z</time>
      </trkpt>
      <trkpt lat="46.04648" lon="6.31374">
        <ele>730</ele>
        <time>2021-03-27T13:09:58Z</time>
      </trkpt>
      <trkpt lat="46.04649" lon="6.3137">
        <ele>730.4</ele>
        <time>2021-03-27T13:09:59Z</time>
      </trkpt>
      <trkpt lat="46.0465" lon="6.31366">
        <ele>730.6</ele>
        <time>2021-03-27T13:10:00Z</time>
      </trkpt>
      <trkpt lat="46.0465" lon="6.31361">
        <ele>731</ele>
        <time>2021-03-27T13:10:01Z</time>
      </trkpt>
      <trkpt lat="46.0465" lon="6.31357">
        <ele>731.2</ele>
        <time>2021-03-27T13:10:02Z</time>
      </trkpt>
      <trkpt lat="46.04651" lon="6.31352">
        <ele>731.4</ele>
        <time>2021-03-27T13:10:03Z</time>
      </trkpt>
      <trkpt lat="46.04651" lon="6.31347">
        <ele>731.8</ele>
        <time>2021-03-27T13:10:04Z</time>
      </trkpt>
      <trkpt lat="46.0465" lon="6.31342">
        <ele>732</ele>
        <time>2021-03-27T13:10:05Z</time>
      </trkpt>
      <trkpt lat="46.0465" lon="6.31338">
        <ele>732.2</ele>
        <time>2021-03-27T13:10:06Z</time>
      </trkpt>
      <trkpt lat="46.04648" lon="6.31334">
        <ele>732.4</ele>
        <time>2021-03-27T13:10:07Z</time>
      </trkpt>
      <trkpt lat="46.04646" lon="6.31331">
        <ele>732.6</ele>
        <time>2021-03-27T13:10:08Z</time>
      </trkpt>
      <trkpt lat="46.04643" lon="6.31329">
        <ele>732.6</ele>
        <time>2021-03-27T13:10:09Z</time>
      </trkpt>
      <trkpt lat="46.0464" lon="6.31327">
        <ele>733</ele>
        <time>2021-03-27T13:10:10Z</time>
      </trkpt>
      <trkpt lat="46.04637" lon="6.31326">
        <ele>733.4</ele>
        <time>2021-03-27T13:10:11Z</time>
      </trkpt>
      <trkpt lat="46.04634" lon="6.31327">
        <ele>733.6</ele>
        <time>2021-03-27T13:10:12Z</time>
      </trkpt>
      <trkpt lat="46.0463" lon="6.31328">
        <ele>733.6</ele>
        <time>2021-03-27T13:10:13Z</time>
      </trkpt>
      <trkpt lat="46.04628" lon="6.31331">
        <ele>733.8</ele>
        <time>2021-03-27T13:10:14Z</time>
      </trkpt>
      <trkpt lat="46.04625" lon="6.31334">
        <ele>734.2</ele>
        <time>2021-03-27T13:10:15Z</time>
      </trkpt>
      <trkpt lat="46.04623" lon="6.31337">
        <ele>734.4</ele>
        <time>2021-03-27T13:10:16Z</time>
      </trkpt>
      <trkpt lat="46.04621" lon="6.31341">
        <ele>734.4</ele>
        <time>2021-03-27T13:10:17Z</time>
      </trkpt>
      <trkpt lat="46.0462" lon="6.31344">
        <ele>734.6</ele>
        <time>2021-03-27T13:10:18Z</time>
      </trkpt>
      <trkpt lat="46.04619" lon="6.31348">
        <ele>735.2</ele>
        <time>2021-03-27T13:10:19Z</time>
      </trkpt>
      <trkpt lat="46.04618" lon="6.31352">
        <ele>735.4</ele>
        <time>2021-03-27T13:10:20Z</time>
      </trkpt>
      <trkpt lat="46.04616" lon="6.31357">
        <ele>735.8</ele>
        <time>2021-03-27T13:10:21Z</time>
      </trkpt>
      <trkpt lat="46.04615" lon="6.31361">
        <ele>736</ele>
        <time>2021-03-27T13:10:22Z</time>
      </trkpt>
      <trkpt lat="46.04614" lon="6.31365">
        <ele>736.4</ele>
        <time>2021-03-27T13:10:23Z</time>
      </trkpt>
      <trkpt lat="46.04612" lon="6.31369">
        <ele>736.8</ele>
        <time>2021-03-27T13:10:24Z</time>
      </trkpt>
      <trkpt lat="46.04612" lon="6.31373">
        <ele>737</ele>
        <time>2021-03-27T13:10:25Z</time>
      </trkpt>
      <trkpt lat="46.04611" lon="6.31377">
        <ele>737</ele>
        <time>2021-03-27T13:10:26Z</time>
      </trkpt>
      <trkpt lat="46.0461" lon="6.31381">
        <ele>737.4</ele>
        <time>2021-03-27T13:10:27Z</time>
      </trkpt>
      <trkpt lat="46.04609" lon="6.31385">
        <ele>737.6</ele>
        <time>2021-03-27T13:10:28Z</time>
      </trkpt>
      <trkpt lat="46.04608" lon="6.31388">
        <ele>737.8</ele>
        <time>2021-03-27T13:10:29Z</time>
      </trkpt>
      <trkpt lat="46.04607" lon="6.31392">
        <ele>737.8</ele>
        <time>2021-03-27T13:10:30Z</time>
      </trkpt>
      <trkpt lat="46.04606" lon="6.31396">
        <ele>738</ele>
        <time>2021-03-27T13:10:31Z</time>
      </trkpt>
      <trkpt lat="46.04604" lon="6.31399">
        <ele>738.4</ele>
        <time>2021-03-27T13:10:32Z</time>
      </trkpt>
      <trkpt lat="46.04603" lon="6.31403">
        <ele>738.8</ele>
        <time>2021-03-27T13:10:33Z</time>
      </trkpt>
      <trkpt lat="46.04602" lon="6.31406">
        <ele>739</ele>
        <time>2021-03-27T13:10:34Z</time>
      </trkpt>
      <trkpt lat="46.046" lon="6.31409">
        <ele>739.2</ele>
        <time>2021-03-27T13:10:35Z</time>
      </trkpt>
      <trkpt lat="46.04599" lon="6.31411">
        <ele>739.6</ele>
        <time>2021-03-27T13:10:36Z</time>
      </trkpt>
      <trkpt lat="46.04597" lon="6.31414">
        <ele>740</ele>
        <time>2021-03-27T13:10:37Z</time>
      </trkpt>
      <trkpt lat="46.04596" lon="6.31416">
        <ele>740.2</ele>
        <time>2021-03-27T13:10:38Z</time>
      </trkpt>
      <trkpt lat="46.04594" lon="6.31419">
        <ele>740.4</ele>
        <time>2021-03-27T13:10:39Z</time>
      </trkpt>
      <trkpt lat="46.04592" lon="6.31422">
        <ele>740.6</ele>
        <time>2021-03-27T13:10:40Z</time>
      </trkpt>
      <trkpt lat="46.0459" lon="6.31425">
        <ele>741</ele>
        <time>2021-03-27T13:10:41Z</time>
      </trkpt>
      <trkpt lat="46.04588" lon="6.31428">
        <ele>741.2</ele>
        <time>2021-03-27T13:10:42Z</time>
      </trkpt>
      <trkpt lat="46.04588" lon="6.3143">
        <ele>741.4</ele>
        <time>2021-03-27T13:10:43Z</time>
      </trkpt>
      <trkpt lat="46.04587" lon="6.31434">
        <ele>741.4</ele>
        <time>2021-03-27T13:10:44Z</time>
      </trkpt>
      <trkpt lat="46.04587" lon="6.31436">
        <ele>741.6</ele>
        <time>2021-03-27T13:10:45Z</time>
      </trkpt>
      <trkpt lat="46.04585" lon="6.31439">
        <ele>742.2</ele>
        <time>2021-03-27T13:10:46Z</time>
      </trkpt>
      <trkpt lat="46.04584" lon="6.31441">
        <ele>742.2</ele>
        <time>2021-03-27T13:10:47Z</time>
      </trkpt>
      <trkpt lat="46.04583" lon="6.31444">
        <ele>742.6</ele>
        <time>2021-03-27T13:10:48Z</time>
      </trkpt>
      <trkpt lat="46.04581" lon="6.31446">
        <ele>742.8</ele>
        <time>2021-03-27T13:10:49Z</time>
      </trkpt>
      <trkpt lat="46.04579" lon="6.31449">
        <ele>742.8</ele>
        <time>2021-03-27T13:10:50Z</time>
      </trkpt>
      <trkpt lat="46.04577" lon="6.31451">
        <ele>743</ele>
        <time>2021-03-27T13:10:51Z</time>
      </trkpt>
      <trkpt lat="46.04575" lon="6.31453">
        <ele>743</ele>
        <time>2021-03-27T13:10:52Z</time>
      </trkpt>
      <trkpt lat="46.04573" lon="6.31455">
        <ele>743.2</ele>
        <time>2021-03-27T13:10:53Z</time>
      </trkpt>
      <trkpt lat="46.04572" lon="6.31457">
        <ele>743.6</ele>
        <time>2021-03-27T13:10:54Z</time>
      </trkpt>
      <trkpt lat="46.0457" lon="6.3146">
        <ele>743.6</ele>
        <time>2021-03-27T13:10:55Z</time>
      </trkpt>
      <trkpt lat="46.04569" lon="6.31463">
        <ele>744</ele>
        <time>2021-03-27T13:10:56Z</time>
      </trkpt>
      <trkpt lat="46.04567" lon="6.31466">
        <ele>744.2</ele>
        <time>2021-03-27T13:10:57Z</time>
      </trkpt>
      <trkpt lat="46.04565" lon="6.3147">
        <ele>744.6</ele>
        <time>2021-03-27T13:10:58Z</time>
      </trkpt>
      <trkpt lat="46.04563" lon="6.31473">
        <ele>745</ele>
        <time>2021-03-27T13:10:59Z</time>
      </trkpt>
      <trkpt lat="46.04561" lon="6.31476">
        <ele>745.2</ele>
        <time>2021-03-27T13:11:00Z</time>
      </trkpt>
      <trkpt lat="46.04559" lon="6.31479">
        <ele>745.4</ele>
        <time>2021-03-27T13:11:01Z</time>
      </trkpt>
      <trkpt lat="46.04557" lon="6.31482">
        <ele>745.8</ele>
        <time>2021-03-27T13:11:02Z</time>
      </trkpt>
      <trkpt lat="46.04554" lon="6.31485">
        <ele>746</ele>
        <time>2021-03-27T13:11:03Z</time>
      </trkpt>
      <trkpt lat="46.04552" lon="6.31487">
        <ele>746.4</ele>
        <time>2021-03-27T13:11:04Z</time>
      </trkpt>
      <trkpt lat="46.0455" lon="6.31488">
        <ele>746.6</ele>
        <time>2021-03-27T13:11:05Z</time>
      </trkpt>
      <trkpt lat="46.04547" lon="6.3149">
        <ele>746.8</ele>
        <time>2021-03-27T13:11:06Z</time>
      </trkpt>
      <trkpt lat="46.04545" lon="6.31491">
        <ele>747</ele>
        <time>2021-03-27T13:11:07Z</time>
      </trkpt>
      <trkpt lat="46.04542" lon="6.31492">
        <ele>747.6</ele>
        <time>2021-03-27T13:11:08Z</time>
      </trkpt>
      <trkpt lat="46.0454" lon="6.31494">
        <ele>747.8</ele>
        <time>2021-03-27T13:11:09Z</time>
      </trkpt>
      <trkpt lat="46.04537" lon="6.31494">
        <ele>748</ele>
        <time>2021-03-27T13:11:10Z</time>
      </trkpt>
      <trkpt lat="46.04535" lon="6.31495">
        <ele>748.2</ele>
        <time>2021-03-27T13:11:11Z</time>
      </trkpt>
      <trkpt lat="46.04532" lon="6.31496">
        <ele>748.6</ele>
        <time>2021-03-27T13:11:12Z</time>
      </trkpt>
      <trkpt lat="46.04529" lon="6.31496">
        <ele>748.8</ele>
        <time>2021-03-27T13:11:13Z</time>
      </trkpt>
      <trkpt lat="46.04527" lon="6.31495">
        <ele>749.4</ele>
        <time>2021-03-27T13:11:14Z</time>
      </trkpt>
      <trkpt lat="46.04524" lon="6.31495">
        <ele>749.6</ele>
        <time>2021-03-27T13:11:15Z</time>
      </trkpt>
      <trkpt lat="46.04522" lon="6.31494">
        <ele>750</ele>
        <time>2021-03-27T13:11:16Z</time>
      </trkpt>
      <trkpt lat="46.04519" lon="6.31493">
        <ele>750.2</ele>
        <time>2021-03-27T13:11:17Z</time>
      </trkpt>
      <trkpt lat="46.04517" lon="6.31492">
        <ele>750.4</ele>
        <time>2021-03-27T13:11:18Z</time>
      </trkpt>
      <trkpt lat="46.04515" lon="6.31491">
        <ele>750.8</ele>
        <time>2021-03-27T13:11:19Z</time>
      </trkpt>
      <trkpt lat="46.04512" lon="6.31489">
        <ele>751</ele>
        <time>2021-03-27T13:11:20Z</time>
      </trkpt>
      <trkpt lat="46.0451" lon="6.31488">
        <ele>751.2</ele>
        <time>2021-03-27T13:11:21Z</time>
      </trkpt>
      <trkpt lat="46.04508" lon="6.31486">
        <ele>751.4</ele>
        <time>2021-03-27T13:11:22Z</time>
      </trkpt>
      <trkpt lat="46.04506" lon="6.31484">
        <ele>751.6</ele>
        <time>2021-03-27T13:11:23Z</time>
      </trkpt>
      <trkpt lat="46.04504" lon="6.31482">
        <ele>752</ele>
        <time>2021-03-27T13:11:24Z</time>
      </trkpt>
      <trkpt lat="46.04502" lon="6.31479">
        <ele>752</ele>
        <time>2021-03-27T13:11:25Z</time>
      </trkpt>
      <trkpt lat="46.045" lon="6.31477">
        <ele>752.2</ele>
        <time>2021-03-27T13:11:26Z</time>
      </trkpt>
      <trkpt lat="46.04498" lon="6.31475">
        <ele>752.4</ele>
        <time>2021-03-27T13:11:27Z</time>
      </trkpt>
      <trkpt lat="46.04497" lon="6.31473">
        <ele>752.6</ele>
        <time>2021-03-27T13:11:28Z</time>
      </trkpt>
      <trkpt lat="46.04496" lon="6.3147">
        <ele>752.6</ele>
        <time>2021-03-27T13:11:29Z</time>
      </trkpt>
      <trkpt lat="46.04494" lon="6.31466">
        <ele>753</ele>
        <time>2021-03-27T13:11:30Z</time>
      </trkpt>
      <trkpt lat="46.04493" lon="6.31463">
        <ele>753</ele>
        <time>2021-03-27T13:11:31Z</time>
      </trkpt>
      <trkpt lat="46.04491" lon="6.3146">
        <ele>753</ele>
        <time>2021-03-27T13:11:32Z</time>
      </trkpt>
      <trkpt lat="46.0449" lon="6.31457">
        <ele>753.2</ele>
        <time>2021-03-27T13:11:33Z</time>
      </trkpt>
      <trkpt lat="46.04488" lon="6.31453">
        <ele>753.4</ele>
        <time>2021-03-27T13:11:34Z</time>
      </trkpt>
      <trkpt lat="46.04486" lon="6.3145">
        <ele>753.6</ele>
        <time>2021-03-27T13:11:35Z</time>
      </trkpt>
      <trkpt lat="46.04485" lon="6.31447">
        <ele>753.8</ele>
        <time>2021-03-27T13:11:36Z</time>
      </trkpt>
      <trkpt lat="46.04483" lon="6.31444">
        <ele>754</ele>
        <time>2021-03-27T13:11:37Z</time>
      </trkpt>
      <trkpt lat="46.04481" lon="6.31442">
        <ele>754.6</ele>
        <time>2021-03-27T13:11:38Z</time>
      </trkpt>
      <trkpt lat="46.0448" lon="6.31439">
        <ele>755</ele>
        <time>2021-03-27T13:11:39Z</time>
      </trkpt>
      <trkpt lat="46.04479" lon="6.31435">
        <ele>755.2</ele>
        <time>2021-03-27T13:11:40Z</time>
      </trkpt>
      <trkpt lat="46.04477" lon="6.31432">
        <ele>755.4</ele>
        <time>2021-03-27T13:11:41Z</time>
      </trkpt>
      <trkpt lat="46.04476" lon="6.3143">
        <ele>755.8</ele>
        <time>2021-03-27T13:11:42Z</time>
      </trkpt>
      <trkpt lat="46.04474" lon="6.31428">
        <ele>756.2</ele>
        <time>2021-03-27T13:11:43Z</time>
      </trkpt>
      <trkpt lat="46.04472" lon="6.31425">
        <ele>756.4</ele>
        <time>2021-03-27T13:11:44Z</time>
      </trkpt>
      <trkpt lat="46.04471" lon="6.31422">
        <ele>756.4</ele>
        <time>2021-03-27T13:11:45Z</time>
      </trkpt>
      <trkpt lat="46.04469" lon="6.31419">
        <ele>756.4</ele>
        <time>2021-03-27T13:11:46Z</time>
      </trkpt>
      <trkpt lat="46.04468" lon="6.31416">
        <ele>756.6</ele>
        <time>2021-03-27T13:11:47Z</time>
      </trkpt>
      <trkpt lat="46.04466" lon="6.31413">
        <ele>757</ele>
        <time>2021-03-27T13:11:48Z</time>
      </trkpt>
      <trkpt lat="46.04465" lon="6.3141">
        <ele>757</ele>
        <time>2021-03-27T13:11:49Z</time>
      </trkpt>
      <trkpt lat="46.04463" lon="6.31407">
        <ele>757.4</ele>
        <time>2021-03-27T13:11:50Z</time>
      </trkpt>
      <trkpt lat="46.04461" lon="6.31404">
        <ele>757.6</ele>
        <time>2021-03-27T13:11:51Z</time>
      </trkpt>
      <trkpt lat="46.04459" lon="6.31402">
        <ele>757.8</ele>
        <time>2021-03-27T13:11:52Z</time>
      </trkpt>
      <trkpt lat="46.04457" lon="6.31399">
        <ele>758</ele>
        <time>2021-03-27T13:11:53Z</time>
      </trkpt>
      <trkpt lat="46.04456" lon="6.31396">
        <ele>758.2</ele>
        <time>2021-03-27T13:11:54Z</time>
      </trkpt>
      <trkpt lat="46.04455" lon="6.31393">
        <ele>758.4</ele>
        <time>2021-03-27T13:11:55Z</time>
      </trkpt>
      <trkpt lat="46.04453" lon="6.3139">
        <ele>758.6</ele>
        <time>2021-03-27T13:11:56Z</time>
      </trkpt>
      <trkpt lat="46.04451" lon="6.31387">
        <ele>758.8</ele>
        <time>2021-03-27T13:11:57Z</time>
      </trkpt>
      <trkpt lat="46.0445" lon="6.31384">
        <ele>759</ele>
        <time>2021-03-27T13:11:58Z</time>
      </trkpt>
      <trkpt lat="46.04449" lon="6.31381">
        <ele>758.8</ele>
        <time>2021-03-27T13:11:59Z</time>
      </trkpt>
      <trkpt lat="46.04448" lon="6.31378">
        <ele>759.2</ele>
        <time>2021-03-27T13:12:00Z</time>
      </trkpt>
      <trkpt lat="46.04448" lon="6.31375">
        <ele>759.6</ele>
        <time>2021-03-27T13:12:01Z</time>
      </trkpt>
      <trkpt lat="46.04447" lon="6.31371">
        <ele>760</ele>
        <time>2021-03-27T13:12:02Z</time>
      </trkpt>
      <trkpt lat="46.04447" lon="6.31368">
        <ele>760.2</ele>
        <time>2021-03-27T13:12:03Z</time>
      </trkpt>
      <trkpt lat="46.04446" lon="6.31364">
        <ele>760.6</ele>
        <time>2021-03-27T13:12:04Z</time>
      </trkpt>
      <trkpt lat="46.04446" lon="6.3136">
        <ele>760.6</ele>
        <time>2021-03-27T13:12:05Z</time>
      </trkpt>
      <trkpt lat="46.04445" lon="6.31356">
        <ele>760.8</ele>
        <time>2021-03-27T13:12:06Z</time>
      </trkpt>
      <trkpt lat="46.04445" lon="6.31352">
        <ele>760.8</ele>
        <time>2021-03-27T13:12:07Z</time>
      </trkpt>
      <trkpt lat="46.04445" lon="6.31347">
        <ele>761</ele>
        <time>2021-03-27T13:12:08Z</time>
      </trkpt>
      <trkpt lat="46.04445" lon="6.31343">
        <ele>761.2</ele>
        <time>2021-03-27T13:12:09Z</time>
      </trkpt>
      <trkpt lat="46.04444" lon="6.31338">
        <ele>761.4</ele>
        <time>2021-03-27T13:12:10Z</time>
      </trkpt>
      <trkpt lat="46.04445" lon="6.31333">
        <ele>761.8</ele>
        <time>2021-03-27T13:12:11Z</time>
      </trkpt>
      <trkpt lat="46.04445" lon="6.31328">
        <ele>762</ele>
        <time>2021-03-27T13:12:12Z</time>
      </trkpt>
      <trkpt lat="46.04445" lon="6.31322">
        <ele>762.2</ele>
        <time>2021-03-27T13:12:13Z</time>
      </trkpt>
      <trkpt lat="46.04445" lon="6.31317">
        <ele>762.4</ele>
        <time>2021-03-27T13:12:14Z</time>
      </trkpt>
      <trkpt lat="46.04445" lon="6.31312">
        <ele>762.6</ele>
        <time>2021-03-27T13:12:15Z</time>
      </trkpt>
      <trkpt lat="46.04445" lon="6.31306">
        <ele>763</ele>
        <time>2021-03-27T13:12:16Z</time>
      </trkpt>
      <trkpt lat="46.04445" lon="6.31301">
        <ele>763.2</ele>
        <time>2021-03-27T13:12:17Z</time>
      </trkpt>
      <trkpt lat="46.04445" lon="6.31295">
        <ele>763.4</ele>
        <time>2021-03-27T13:12:18Z</time>
      </trkpt>
      <trkpt lat="46.04445" lon="6.31289">
        <ele>763.4</ele>
        <time>2021-03-27T13:12:19Z</time>
      </trkpt>
      <trkpt lat="46.04446" lon="6.31284">
        <ele>763.6</ele>
        <time>2021-03-27T13:12:20Z</time>
      </trkpt>
      <trkpt lat="46.04446" lon="6.31279">
        <ele>763.6</ele>
        <time>2021-03-27T13:12:21Z</time>
      </trkpt>
      <trkpt lat="46.04446" lon="6.31274">
        <ele>763.8</ele>
        <time>2021-03-27T13:12:22Z</time>
      </trkpt>
      <trkpt lat="46.04446" lon="6.31269">
        <ele>764</ele>
        <time>2021-03-27T13:12:23Z</time>
      </trkpt>
      <trkpt lat="46.04446" lon="6.31265">
        <ele>764.2</ele>
        <time>2021-03-27T13:12:24Z</time>
      </trkpt>
      <trkpt lat="46.04447" lon="6.31259">
        <ele>764.2</ele>
        <time>2021-03-27T13:12:25Z</time>
      </trkpt>
      <trkpt lat="46.04447" lon="6.31254">
        <ele>764.2</ele>
        <time>2021-03-27T13:12:26Z</time>
      </trkpt>
      <trkpt lat="46.04448" lon="6.31248">
        <ele>764.2</ele>
        <time>2021-03-27T13:12:27Z</time>
      </trkpt>
      <trkpt lat="46.04449" lon="6.31242">
        <ele>764.4</ele>
        <time>2021-03-27T13:12:28Z</time>
      </trkpt>
      <trkpt lat="46.04449" lon="6.31236">
        <ele>764.4</ele>
        <time>2021-03-27T13:12:29Z</time>
      </trkpt>
      <trkpt lat="46.0445" lon="6.3123">
        <ele>764.4</ele>
        <time>2021-03-27T13:12:30Z</time>
      </trkpt>
      <trkpt lat="46.0445" lon="6.31224">
        <ele>764.4</ele>
        <time>2021-03-27T13:12:31Z</time>
      </trkpt>
      <trkpt lat="46.04451" lon="6.31218">
        <ele>764.4</ele>
        <time>2021-03-27T13:12:32Z</time>
      </trkpt>
      <trkpt lat="46.04451" lon="6.31212">
        <ele>764.4</ele>
        <time>2021-03-27T13:12:33Z</time>
      </trkpt>
      <trkpt lat="46.04452" lon="6.31205">
        <ele>764.4</ele>
        <time>2021-03-27T13:12:34Z</time>
      </trkpt>
      <trkpt lat="46.04453" lon="6.31198">
        <ele>764.4</ele>
        <time>2021-03-27T13:12:35Z</time>
      </trkpt>
      <trkpt lat="46.04453" lon="6.31192">
        <ele>764.4</ele>
        <time>2021-03-27T13:12:36Z</time>
      </trkpt>
      <trkpt lat="46.04453" lon="6.31185">
        <ele>764.4</ele>
        <time>2021-03-27T13:12:37Z</time>
      </trkpt>
      <trkpt lat="46.04454" lon="6.31178">
        <ele>764.4</ele>
        <time>2021-03-27T13:12:38Z</time>
      </trkpt>
      <trkpt lat="46.04454" lon="6.31171">
        <ele>764.6</ele>
        <time>2021-03-27T13:12:39Z</time>
      </trkpt>
      <trkpt lat="46.04453" lon="6.31165">
        <ele>764.6</ele>
        <time>2021-03-27T13:12:40Z</time>
      </trkpt>
      <trkpt lat="46.04453" lon="6.31159">
        <ele>764.4</ele>
        <time>2021-03-27T13:12:41Z</time>
      </trkpt>
      <trkpt lat="46.04451" lon="6.31153">
        <ele>764.6</ele>
        <time>2021-03-27T13:12:42Z</time>
      </trkpt>
      <trkpt lat="46.0445" lon="6.31147">
        <ele>764.6</ele>
        <time>2021-03-27T13:12:43Z</time>
      </trkpt>
      <trkpt lat="46.04448" lon="6.31141">
        <ele>764.6</ele>
        <time>2021-03-27T13:12:44Z</time>
      </trkpt>
      <trkpt lat="46.04445" lon="6.31135">
        <ele>764.6</ele>
        <time>2021-03-27T13:12:45Z</time>
      </trkpt>
      <trkpt lat="46.04442" lon="6.31129">
        <ele>764.6</ele>
        <time>2021-03-27T13:12:46Z</time>
      </trkpt>
      <trkpt lat="46.04439" lon="6.31124">
        <ele>764.4</ele>
        <time>2021-03-27T13:12:47Z</time>
      </trkpt>
      <trkpt lat="46.04434" lon="6.31119">
        <ele>764.4</ele>
        <time>2021-03-27T13:12:48Z</time>
      </trkpt>
      <trkpt lat="46.04429" lon="6.31114">
        <ele>764.4</ele>
        <time>2021-03-27T13:12:49Z</time>
      </trkpt>
      <trkpt lat="46.04423" lon="6.31108">
        <ele>764.4</ele>
        <time>2021-03-27T13:12:50Z</time>
      </trkpt>
      <trkpt lat="46.04419" lon="6.31102">
        <ele>764.2</ele>
        <time>2021-03-27T13:12:51Z</time>
      </trkpt>
      <trkpt lat="46.04415" lon="6.31095">
        <ele>764.4</ele>
        <time>2021-03-27T13:12:52Z</time>
      </trkpt>
      <trkpt lat="46.04411" lon="6.31088">
        <ele>764</ele>
        <time>2021-03-27T13:12:53Z</time>
      </trkpt>
      <trkpt lat="46.04407" lon="6.31082">
        <ele>763.4</ele>
        <time>2021-03-27T13:12:54Z</time>
      </trkpt>
      <trkpt lat="46.04404" lon="6.31075">
        <ele>762.6</ele>
        <time>2021-03-27T13:12:55Z</time>
      </trkpt>
      <trkpt lat="46.044" lon="6.31068">
        <ele>761.6</ele>
        <time>2021-03-27T13:12:56Z</time>
      </trkpt>
      <trkpt lat="46.04397" lon="6.31059">
        <ele>761</ele>
        <time>2021-03-27T13:12:57Z</time>
      </trkpt>
      <trkpt lat="46.04394" lon="6.3105">
        <ele>760.6</ele>
        <time>2021-03-27T13:12:58Z</time>
      </trkpt>
      <trkpt lat="46.04391" lon="6.31041">
        <ele>760.2</ele>
        <time>2021-03-27T13:12:59Z</time>
      </trkpt>
      <trkpt lat="46.04389" lon="6.31032">
        <ele>760.2</ele>
        <time>2021-03-27T13:13:00Z</time>
      </trkpt>
      <trkpt lat="46.04388" lon="6.31023">
        <ele>760</ele>
        <time>2021-03-27T13:13:01Z</time>
      </trkpt>
      <trkpt lat="46.04388" lon="6.31015">
        <ele>760</ele>
        <time>2021-03-27T13:13:02Z</time>
      </trkpt>
      <trkpt lat="46.04387" lon="6.31006">
        <ele>759.8</ele>
        <time>2021-03-27T13:13:03Z</time>
      </trkpt>
      <trkpt lat="46.04387" lon="6.30997">
        <ele>759.8</ele>
        <time>2021-03-27T13:13:04Z</time>
      </trkpt>
      <trkpt lat="46.04388" lon="6.30989">
        <ele>759.8</ele>
        <time>2021-03-27T13:13:05Z</time>
      </trkpt>
      <trkpt lat="46.04389" lon="6.30982">
        <ele>760</ele>
        <time>2021-03-27T13:13:06Z</time>
      </trkpt>
      <trkpt lat="46.04389" lon="6.30975">
        <ele>759.8</ele>
        <time>2021-03-27T13:13:07Z</time>
      </trkpt>
      <trkpt lat="46.0439" lon="6.3097">
        <ele>759.8</ele>
        <time>2021-03-27T13:13:08Z</time>
      </trkpt>
      <trkpt lat="46.0439" lon="6.30965">
        <ele>760</ele>
        <time>2021-03-27T13:13:09Z</time>
      </trkpt>
      <trkpt lat="46.0439" lon="6.30961">
        <ele>759.8</ele>
        <time>2021-03-27T13:13:10Z</time>
      </trkpt>
      <trkpt lat="46.04391" lon="6.30957">
        <ele>759.8</ele>
        <time>2021-03-27T13:13:11Z</time>
      </trkpt>
      <trkpt lat="46.0439" lon="6.30953">
        <ele>760</ele>
        <time>2021-03-27T13:13:12Z</time>
      </trkpt>
      <trkpt lat="46.0439" lon="6.30949">
        <ele>760</ele>
        <time>2021-03-27T13:13:13Z</time>
      </trkpt>
      <trkpt lat="46.0439" lon="6.30946">
        <ele>760.2</ele>
        <time>2021-03-27T13:13:14Z</time>
      </trkpt>
      <trkpt lat="46.04391" lon="6.30942">
        <ele>760.6</ele>
        <time>2021-03-27T13:13:15Z</time>
      </trkpt>
      <trkpt lat="46.04392" lon="6.30938">
        <ele>761.6</ele>
        <time>2021-03-27T13:13:16Z</time>
      </trkpt>
      <trkpt lat="46.04392" lon="6.30935">
        <ele>762.6</ele>
        <time>2021-03-27T13:13:17Z</time>
      </trkpt>
      <trkpt lat="46.04393" lon="6.30931">
        <ele>763.4</ele>
        <time>2021-03-27T13:13:18Z</time>
      </trkpt>
      <trkpt lat="46.04393" lon="6.30927">
        <ele>763.8</ele>
        <time>2021-03-27T13:13:19Z</time>
      </trkpt>
      <trkpt lat="46.04394" lon="6.30924">
        <ele>764.4</ele>
        <time>2021-03-27T13:13:20Z</time>
      </trkpt>
      <trkpt lat="46.04395" lon="6.3092">
        <ele>764.8</ele>
        <time>2021-03-27T13:13:21Z</time>
      </trkpt>
      <trkpt lat="46.04396" lon="6.30917">
        <ele>765.4</ele>
        <time>2021-03-27T13:13:22Z</time>
      </trkpt>
      <trkpt lat="46.04396" lon="6.30913">
        <ele>765.6</ele>
        <time>2021-03-27T13:13:23Z</time>
      </trkpt>
      <trkpt lat="46.04397" lon="6.3091">
        <ele>766</ele>
        <time>2021-03-27T13:13:24Z</time>
      </trkpt>
      <trkpt lat="46.04398" lon="6.30907">
        <ele>766.4</ele>
        <time>2021-03-27T13:13:25Z</time>
      </trkpt>
      <trkpt lat="46.04398" lon="6.30903">
        <ele>766.6</ele>
        <time>2021-03-27T13:13:26Z</time>
      </trkpt>
      <trkpt lat="46.04399" lon="6.309">
        <ele>767.2</ele>
        <time>2021-03-27T13:13:27Z</time>
      </trkpt>
      <trkpt lat="46.044" lon="6.30897">
        <ele>767.4</ele>
        <time>2021-03-27T13:13:28Z</time>
      </trkpt>
      <trkpt lat="46.044" lon="6.30893">
        <ele>767.8</ele>
        <time>2021-03-27T13:13:29Z</time>
      </trkpt>
      <trkpt lat="46.04401" lon="6.3089">
        <ele>768</ele>
        <time>2021-03-27T13:13:30Z</time>
      </trkpt>
      <trkpt lat="46.04402" lon="6.30887">
        <ele>768.4</ele>
        <time>2021-03-27T13:13:31Z</time>
      </trkpt>
      <trkpt lat="46.04403" lon="6.30883">
        <ele>768.8</ele>
        <time>2021-03-27T13:13:32Z</time>
      </trkpt>
      <trkpt lat="46.04403" lon="6.30879">
        <ele>769</ele>
        <time>2021-03-27T13:13:33Z</time>
      </trkpt>
      <trkpt lat="46.04404" lon="6.30876">
        <ele>769.4</ele>
        <time>2021-03-27T13:13:34Z</time>
      </trkpt>
      <trkpt lat="46.04404" lon="6.30872">
        <ele>769.8</ele>
        <time>2021-03-27T13:13:35Z</time>
      </trkpt>
      <trkpt lat="46.04405" lon="6.30869">
        <ele>770.2</ele>
        <time>2021-03-27T13:13:36Z</time>
      </trkpt>
      <trkpt lat="46.04406" lon="6.30866">
        <ele>770.6</ele>
        <time>2021-03-27T13:13:37Z</time>
      </trkpt>
      <trkpt lat="46.04407" lon="6.30862">
        <ele>770.8</ele>
        <time>2021-03-27T13:13:38Z</time>
      </trkpt>
      <trkpt lat="46.04408" lon="6.30859">
        <ele>771.2</ele>
        <time>2021-03-27T13:13:39Z</time>
      </trkpt>
      <trkpt lat="46.04408" lon="6.30855">
        <ele>771.6</ele>
        <time>2021-03-27T13:13:40Z</time>
      </trkpt>
      <trkpt lat="46.04409" lon="6.30852">
        <ele>771.6</ele>
        <time>2021-03-27T13:13:41Z</time>
      </trkpt>
      <trkpt lat="46.04409" lon="6.30848">
        <ele>772.2</ele>
        <time>2021-03-27T13:13:42Z</time>
      </trkpt>
      <trkpt lat="46.0441" lon="6.30844">
        <ele>772.2</ele>
        <time>2021-03-27T13:13:43Z</time>
      </trkpt>
      <trkpt lat="46.04411" lon="6.30841">
        <ele>772.6</ele>
        <time>2021-03-27T13:13:44Z</time>
      </trkpt>
      <trkpt lat="46.04412" lon="6.30837">
        <ele>773</ele>
        <time>2021-03-27T13:13:45Z</time>
      </trkpt>
      <trkpt lat="46.04413" lon="6.30833">
        <ele>773.2</ele>
        <time>2021-03-27T13:13:46Z</time>
      </trkpt>
      <trkpt lat="46.04414" lon="6.30829">
        <ele>773.4</ele>
        <time>2021-03-27T13:13:47Z</time>
      </trkpt>
      <trkpt lat="46.04415" lon="6.30825">
        <ele>773.4</ele>
        <time>2021-03-27T13:13:48Z</time>
      </trkpt>
      <trkpt lat="46.04415" lon="6.3082">
        <ele>773.8</ele>
        <time>2021-03-27T13:13:49Z</time>
      </trkpt>
      <trkpt lat="46.04416" lon="6.30816">
        <ele>774.2</ele>
        <time>2021-03-27T13:13:50Z</time>
      </trkpt>
      <trkpt lat="46.04416" lon="6.30812">
        <ele>774.4</ele>
        <time>2021-03-27T13:13:51Z</time>
      </trkpt>
      <trkpt lat="46.04417" lon="6.30808">
        <ele>774.4</ele>
        <time>2021-03-27T13:13:52Z</time>
      </trkpt>
      <trkpt lat="46.04418" lon="6.30804">
        <ele>774.6</ele>
        <time>2021-03-27T13:13:53Z</time>
      </trkpt>
      <trkpt lat="46.04419" lon="6.308">
        <ele>774.8</ele>
        <time>2021-03-27T13:13:54Z</time>
      </trkpt>
      <trkpt lat="46.0442" lon="6.30795">
        <ele>775</ele>
        <time>2021-03-27T13:13:55Z</time>
      </trkpt>
      <trkpt lat="46.04421" lon="6.30791">
        <ele>775.4</ele>
        <time>2021-03-27T13:13:56Z</time>
      </trkpt>
      <trkpt lat="46.04422" lon="6.30787">
        <ele>775.8</ele>
        <time>2021-03-27T13:13:57Z</time>
      </trkpt>
      <trkpt lat="46.04423" lon="6.30782">
        <ele>775.8</ele>
        <time>2021-03-27T13:13:58Z</time>
      </trkpt>
      <trkpt lat="46.04423" lon="6.30777">
        <ele>776</ele>
        <time>2021-03-27T13:13:59Z</time>
      </trkpt>
      <trkpt lat="46.04424" lon="6.30772">
        <ele>776.2</ele>
        <time>2021-03-27T13:14:00Z</time>
      </trkpt>
      <trkpt lat="46.04424" lon="6.30766">
        <ele>776.2</ele>
        <time>2021-03-27T13:14:01Z</time>
      </trkpt>
      <trkpt lat="46.04424" lon="6.30761">
        <ele>776.2</ele>
        <time>2021-03-27T13:14:02Z</time>
      </trkpt>
      <trkpt lat="46.04425" lon="6.30756">
        <ele>776.4</ele>
        <time>2021-03-27T13:14:03Z</time>
      </trkpt>
      <trkpt lat="46.04425" lon="6.3075">
        <ele>776.4</ele>
        <time>2021-03-27T13:14:04Z</time>
      </trkpt>
      <trkpt lat="46.04424" lon="6.30744">
        <ele>776.6</ele>
        <time>2021-03-27T13:14:05Z</time>
      </trkpt>
      <trkpt lat="46.04423" lon="6.30739">
        <ele>776.6</ele>
        <time>2021-03-27T13:14:06Z</time>
      </trkpt>
      <trkpt lat="46.04422" lon="6.30733">
        <ele>776.6</ele>
        <time>2021-03-27T13:14:07Z</time>
      </trkpt>
      <trkpt lat="46.04421" lon="6.30727">
        <ele>776.6</ele>
        <time>2021-03-27T13:14:08Z</time>
      </trkpt>
      <trkpt lat="46.04421" lon="6.30721">
        <ele>776.8</ele>
        <time>2021-03-27T13:14:09Z</time>
      </trkpt>
      <trkpt lat="46.0442" lon="6.30715">
        <ele>776.8</ele>
        <time>2021-03-27T13:14:10Z</time>
      </trkpt>
      <trkpt lat="46.0442" lon="6.30709">
        <ele>776.8</ele>
        <time>2021-03-27T13:14:11Z</time>
      </trkpt>
      <trkpt lat="46.0442" lon="6.30703">
        <ele>776.8</ele>
        <time>2021-03-27T13:14:12Z</time>
      </trkpt>
      <trkpt lat="46.0442" lon="6.30697">
        <ele>776.8</ele>
        <time>2021-03-27T13:14:13Z</time>
      </trkpt>
      <trkpt lat="46.04421" lon="6.3069">
        <ele>776.8</ele>
        <time>2021-03-27T13:14:14Z</time>
      </trkpt>
      <trkpt lat="46.04422" lon="6.30684">
        <ele>777</ele>
        <time>2021-03-27T13:14:15Z</time>
      </trkpt>
      <trkpt lat="46.04423" lon="6.30677">
        <ele>776.8</ele>
        <time>2021-03-27T13:14:16Z</time>
      </trkpt>
      <trkpt lat="46.04423" lon="6.30671">
        <ele>776.8</ele>
        <time>2021-03-27T13:14:17Z</time>
      </trkpt>
      <trkpt lat="46.04423" lon="6.30665">
        <ele>776.8</ele>
        <time>2021-03-27T13:14:18Z</time>
      </trkpt>
      <trkpt lat="46.04423" lon="6.30659">
        <ele>776.6</ele>
        <time>2021-03-27T13:14:19Z</time>
      </trkpt>
      <trkpt lat="46.04422" lon="6.30654">
        <ele>776.6</ele>
        <time>2021-03-27T13:14:20Z</time>
      </trkpt>
      <trkpt lat="46.0442" lon="6.30649">
        <ele>776.8</ele>
        <time>2021-03-27T13:14:21Z</time>
      </trkpt>
      <trkpt lat="46.04418" lon="6.30645">
        <ele>776.8</ele>
        <time>2021-03-27T13:14:22Z</time>
      </trkpt>
      <trkpt lat="46.04417" lon="6.3064">
        <ele>776.8</ele>
        <time>2021-03-27T13:14:23Z</time>
      </trkpt>
      <trkpt lat="46.04416" lon="6.30636">
        <ele>776.8</ele>
        <time>2021-03-27T13:14:24Z</time>
      </trkpt>
      <trkpt lat="46.04416" lon="6.30631">
        <ele>776.8</ele>
        <time>2021-03-27T13:14:25Z</time>
      </trkpt>
      <trkpt lat="46.04416" lon="6.30627">
        <ele>776.8</ele>
        <time>2021-03-27T13:14:26Z</time>
      </trkpt>
      <trkpt lat="46.04416" lon="6.30622">
        <ele>777</ele>
        <time>2021-03-27T13:14:27Z</time>
      </trkpt>
      <trkpt lat="46.04416" lon="6.30617">
        <ele>777.2</ele>
        <time>2021-03-27T13:14:28Z</time>
      </trkpt>
      <trkpt lat="46.04417" lon="6.30612">
        <ele>777.4</ele>
        <time>2021-03-27T13:14:29Z</time>
      </trkpt>
      <trkpt lat="46.04418" lon="6.30607">
        <ele>777.8</ele>
        <time>2021-03-27T13:14:30Z</time>
      </trkpt>
      <trkpt lat="46.04419" lon="6.30603">
        <ele>778</ele>
        <time>2021-03-27T13:14:31Z</time>
      </trkpt>
      <trkpt lat="46.04421" lon="6.30597">
        <ele>778.4</ele>
        <time>2021-03-27T13:14:32Z</time>
      </trkpt>
      <trkpt lat="46.04422" lon="6.30592">
        <ele>778.6</ele>
        <time>2021-03-27T13:14:33Z</time>
      </trkpt>
      <trkpt lat="46.04422" lon="6.30586">
        <ele>778.8</ele>
        <time>2021-03-27T13:14:34Z</time>
      </trkpt>
      <trkpt lat="46.04423" lon="6.3058">
        <ele>779.2</ele>
        <time>2021-03-27T13:14:35Z</time>
      </trkpt>
      <trkpt lat="46.04424" lon="6.30574">
        <ele>779.2</ele>
        <time>2021-03-27T13:14:36Z</time>
      </trkpt>
      <trkpt lat="46.04426" lon="6.30567">
        <ele>779.2</ele>
        <time>2021-03-27T13:14:37Z</time>
      </trkpt>
      <trkpt lat="46.04427" lon="6.30561">
        <ele>779.4</ele>
        <time>2021-03-27T13:14:38Z</time>
      </trkpt>
      <trkpt lat="46.04429" lon="6.30554">
        <ele>779.4</ele>
        <time>2021-03-27T13:14:39Z</time>
      </trkpt>
      <trkpt lat="46.0443" lon="6.30547">
        <ele>779.4</ele>
        <time>2021-03-27T13:14:40Z</time>
      </trkpt>
      <trkpt lat="46.04431" lon="6.30539">
        <ele>779.6</ele>
        <time>2021-03-27T13:14:41Z</time>
      </trkpt>
      <trkpt lat="46.04433" lon="6.30532">
        <ele>779.4</ele>
        <time>2021-03-27T13:14:42Z</time>
      </trkpt>
      <trkpt lat="46.04434" lon="6.30524">
        <ele>779.4</ele>
        <time>2021-03-27T13:14:43Z</time>
      </trkpt>
      <trkpt lat="46.04436" lon="6.30516">
        <ele>779.6</ele>
        <time>2021-03-27T13:14:44Z</time>
      </trkpt>
      <trkpt lat="46.04438" lon="6.30509">
        <ele>779.6</ele>
        <time>2021-03-27T13:14:45Z</time>
      </trkpt>
      <trkpt lat="46.04439" lon="6.30501">
        <ele>779.2</ele>
        <time>2021-03-27T13:14:46Z</time>
      </trkpt>
      <trkpt lat="46.04441" lon="6.30493">
        <ele>779</ele>
        <time>2021-03-27T13:14:47Z</time>
      </trkpt>
      <trkpt lat="46.04443" lon="6.30484">
        <ele>779.2</ele>
        <time>2021-03-27T13:14:48Z</time>
      </trkpt>
      <trkpt lat="46.04445" lon="6.30476">
        <ele>778.8</ele>
        <time>2021-03-27T13:14:49Z</time>
      </trkpt>
      <trkpt lat="46.04446" lon="6.30468">
        <ele>778.8</ele>
        <time>2021-03-27T13:14:50Z</time>
      </trkpt>
      <trkpt lat="46.04448" lon="6.3046">
        <ele>778.6</ele>
        <time>2021-03-27T13:14:51Z</time>
      </trkpt>
      <trkpt lat="46.04449" lon="6.30452">
        <ele>778.4</ele>
        <time>2021-03-27T13:14:52Z</time>
      </trkpt>
      <trkpt lat="46.04449" lon="6.30444">
        <ele>778.2</ele>
        <time>2021-03-27T13:14:53Z</time>
      </trkpt>
      <trkpt lat="46.0445" lon="6.30437">
        <ele>778.2</ele>
        <time>2021-03-27T13:14:54Z</time>
      </trkpt>
      <trkpt lat="46.04451" lon="6.3043">
        <ele>778</ele>
        <time>2021-03-27T13:14:55Z</time>
      </trkpt>
      <trkpt lat="46.04451" lon="6.30423">
        <ele>778</ele>
        <time>2021-03-27T13:14:56Z</time>
      </trkpt>
      <trkpt lat="46.04451" lon="6.30416">
        <ele>778</ele>
        <time>2021-03-27T13:14:57Z</time>
      </trkpt>
      <trkpt lat="46.04451" lon="6.30408">
        <ele>777.8</ele>
        <time>2021-03-27T13:14:58Z</time>
      </trkpt>
      <trkpt lat="46.04451" lon="6.30401">
        <ele>777.8</ele>
        <time>2021-03-27T13:14:59Z</time>
      </trkpt>
      <trkpt lat="46.04451" lon="6.30393">
        <ele>777.8</ele>
        <time>2021-03-27T13:15:00Z</time>
      </trkpt>
      <trkpt lat="46.04451" lon="6.30385">
        <ele>777.8</ele>
        <time>2021-03-27T13:15:01Z</time>
      </trkpt>
      <trkpt lat="46.04451" lon="6.30377">
        <ele>777.8</ele>
        <time>2021-03-27T13:15:02Z</time>
      </trkpt>
      <trkpt lat="46.0445" lon="6.3037">
        <ele>777.6</ele>
        <time>2021-03-27T13:15:03Z</time>
      </trkpt>
      <trkpt lat="46.0445" lon="6.30362">
        <ele>777.8</ele>
        <time>2021-03-27T13:15:04Z</time>
      </trkpt>
      <trkpt lat="46.04449" lon="6.30355">
        <ele>777.8</ele>
        <time>2021-03-27T13:15:05Z</time>
      </trkpt>
      <trkpt lat="46.04449" lon="6.30347">
        <ele>777.8</ele>
        <time>2021-03-27T13:15:06Z</time>
      </trkpt>
      <trkpt lat="46.04448" lon="6.3034">
        <ele>778</ele>
        <time>2021-03-27T13:15:07Z</time>
      </trkpt>
      <trkpt lat="46.04447" lon="6.30334">
        <ele>778</ele>
        <time>2021-03-27T13:15:08Z</time>
      </trkpt>
      <trkpt lat="46.04445" lon="6.30327">
        <ele>778.2</ele>
        <time>2021-03-27T13:15:09Z</time>
      </trkpt>
      <trkpt lat="46.04444" lon="6.30322">
        <ele>778.2</ele>
        <time>2021-03-27T13:15:10Z</time>
      </trkpt>
      <trkpt lat="46.04443" lon="6.30317">
        <ele>778.4</ele>
        <time>2021-03-27T13:15:11Z</time>
      </trkpt>
      <trkpt lat="46.04443" lon="6.30311">
        <ele>778.4</ele>
        <time>2021-03-27T13:15:12Z</time>
      </trkpt>
      <trkpt lat="46.04442" lon="6.30306">
        <ele>778.8</ele>
        <time>2021-03-27T13:15:13Z</time>
      </trkpt>
      <trkpt lat="46.04442" lon="6.303">
        <ele>778.8</ele>
        <time>2021-03-27T13:15:14Z</time>
      </trkpt>
      <trkpt lat="46.04441" lon="6.30293">
        <ele>778.6</ele>
        <time>2021-03-27T13:15:15Z</time>
      </trkpt>
      <trkpt lat="46.04441" lon="6.30287">
        <ele>779</ele>
        <time>2021-03-27T13:15:16Z</time>
      </trkpt>
      <trkpt lat="46.04441" lon="6.3028">
        <ele>779.2</ele>
        <time>2021-03-27T13:15:17Z</time>
      </trkpt>
      <trkpt lat="46.04441" lon="6.30273">
        <ele>779.4</ele>
        <time>2021-03-27T13:15:18Z</time>
      </trkpt>
      <trkpt lat="46.04441" lon="6.30266">
        <ele>779.6</ele>
        <time>2021-03-27T13:15:19Z</time>
      </trkpt>
      <trkpt lat="46.04441" lon="6.30258">
        <ele>779.6</ele>
        <time>2021-03-27T13:15:20Z</time>
      </trkpt>
      <trkpt lat="46.04441" lon="6.3025">
        <ele>779.4</ele>
        <time>2021-03-27T13:15:21Z</time>
      </trkpt>
      <trkpt lat="46.04441" lon="6.30243">
        <ele>779.4</ele>
        <time>2021-03-27T13:15:22Z</time>
      </trkpt>
      <trkpt lat="46.04441" lon="6.30226">
        <ele>779.6</ele>
        <time>2021-03-27T13:15:24Z</time>
      </trkpt>
      <trkpt lat="46.04442" lon="6.30218">
        <ele>779.6</ele>
        <time>2021-03-27T13:15:25Z</time>
      </trkpt>
      <trkpt lat="46.04445" lon="6.30209">
        <ele>779.6</ele>
        <time>2021-03-27T13:15:26Z</time>
      </trkpt>
      <trkpt lat="46.04448" lon="6.302">
        <ele>779.6</ele>
        <time>2021-03-27T13:15:27Z</time>
      </trkpt>
      <trkpt lat="46.04454" lon="6.30191">
        <ele>779.6</ele>
        <time>2021-03-27T13:15:28Z</time>
      </trkpt>
      <trkpt lat="46.0446" lon="6.30182">
        <ele>779.4</ele>
        <time>2021-03-27T13:15:29Z</time>
      </trkpt>
      <trkpt lat="46.04466" lon="6.30175">
        <ele>779.2</ele>
        <time>2021-03-27T13:15:30Z</time>
      </trkpt>
      <trkpt lat="46.04478" lon="6.30163">
        <ele>778.8</ele>
        <time>2021-03-27T13:15:32Z</time>
      </trkpt>
      <trkpt lat="46.04484" lon="6.30159">
        <ele>778.6</ele>
        <time>2021-03-27T13:15:33Z</time>
      </trkpt>
      <trkpt lat="46.04488" lon="6.30156">
        <ele>778.2</ele>
        <time>2021-03-27T13:15:34Z</time>
      </trkpt>
      <trkpt lat="46.04492" lon="6.30153">
        <ele>777.8</ele>
        <time>2021-03-27T13:15:35Z</time>
      </trkpt>
      <trkpt lat="46.04495" lon="6.30149">
        <ele>776.8</ele>
        <time>2021-03-27T13:15:36Z</time>
      </trkpt>
      <trkpt lat="46.04496" lon="6.30145">
        <ele>775.2</ele>
        <time>2021-03-27T13:15:37Z</time>
      </trkpt>
      <trkpt lat="46.04497" lon="6.3014">
        <ele>773.8</ele>
        <time>2021-03-27T13:15:38Z</time>
      </trkpt>
      <trkpt lat="46.04496" lon="6.30135">
        <ele>773</ele>
        <time>2021-03-27T13:15:39Z</time>
      </trkpt>
      <trkpt lat="46.04494" lon="6.30131">
        <ele>772.2</ele>
        <time>2021-03-27T13:15:40Z</time>
      </trkpt>
      <trkpt lat="46.04493" lon="6.30127">
        <ele>772</ele>
        <time>2021-03-27T13:15:41Z</time>
      </trkpt>
      <trkpt lat="46.04491" lon="6.30124">
        <ele>771.8</ele>
        <time>2021-03-27T13:15:42Z</time>
      </trkpt>
      <trkpt lat="46.04487" lon="6.30116">
        <ele>771.6</ele>
        <time>2021-03-27T13:15:44Z</time>
      </trkpt>
      <trkpt lat="46.04485" lon="6.30112">
        <ele>771.8</ele>
        <time>2021-03-27T13:15:45Z</time>
      </trkpt>
      <trkpt lat="46.04484" lon="6.30109">
        <ele>771.6</ele>
        <time>2021-03-27T13:15:46Z</time>
      </trkpt>
      <trkpt lat="46.04482" lon="6.30106">
        <ele>771.6</ele>
        <time>2021-03-27T13:15:47Z</time>
      </trkpt>
      <trkpt lat="46.0448" lon="6.30102">
        <ele>771.8</ele>
        <time>2021-03-27T13:15:48Z</time>
      </trkpt>
      <trkpt lat="46.04478" lon="6.30099">
        <ele>771.6</ele>
        <time>2021-03-27T13:15:49Z</time>
      </trkpt>
      <trkpt lat="46.04476" lon="6.30096">
        <ele>771.8</ele>
        <time>2021-03-27T13:15:50Z</time>
      </trkpt>
      <trkpt lat="46.04474" lon="6.30093">
        <ele>772.2</ele>
        <time>2021-03-27T13:15:51Z</time>
      </trkpt>
      <trkpt lat="46.04471" lon="6.3009">
        <ele>772.4</ele>
        <time>2021-03-27T13:15:52Z</time>
      </trkpt>
      <trkpt lat="46.04469" lon="6.30087">
        <ele>772.6</ele>
        <time>2021-03-27T13:15:53Z</time>
      </trkpt>
      <trkpt lat="46.04467" lon="6.30084">
        <ele>772.6</ele>
        <time>2021-03-27T13:15:54Z</time>
      </trkpt>
      <trkpt lat="46.04465" lon="6.30082">
        <ele>773.2</ele>
        <time>2021-03-27T13:15:55Z</time>
      </trkpt>
      <trkpt lat="46.04463" lon="6.3008">
        <ele>773.4</ele>
        <time>2021-03-27T13:15:56Z</time>
      </trkpt>
      <trkpt lat="46.0446" lon="6.30078">
        <ele>773.8</ele>
        <time>2021-03-27T13:15:57Z</time>
      </trkpt>
      <trkpt lat="46.04458" lon="6.30076">
        <ele>774</ele>
        <time>2021-03-27T13:15:58Z</time>
      </trkpt>
      <trkpt lat="46.04456" lon="6.30075">
        <ele>774.2</ele>
        <time>2021-03-27T13:15:59Z</time>
      </trkpt>
      <trkpt lat="46.04454" lon="6.30073">
        <ele>774.6</ele>
        <time>2021-03-27T13:16:00Z</time>
      </trkpt>
      <trkpt lat="46.04452" lon="6.30071">
        <ele>774.6</ele>
        <time>2021-03-27T13:16:01Z</time>
      </trkpt>
      <trkpt lat="46.0445" lon="6.30069">
        <ele>774.8</ele>
        <time>2021-03-27T13:16:02Z</time>
      </trkpt>
      <trkpt lat="46.04448" lon="6.30067">
        <ele>775</ele>
        <time>2021-03-27T13:16:03Z</time>
      </trkpt>
      <trkpt lat="46.04446" lon="6.30066">
        <ele>775.6</ele>
        <time>2021-03-27T13:16:04Z</time>
      </trkpt>
      <trkpt lat="46.04444" lon="6.30064">
        <ele>776</ele>
        <time>2021-03-27T13:16:05Z</time>
      </trkpt>
      <trkpt lat="46.04442" lon="6.30062">
        <ele>776.2</ele>
        <time>2021-03-27T13:16:06Z</time>
      </trkpt>
      <trkpt lat="46.04441" lon="6.3006">
        <ele>776.8</ele>
        <time>2021-03-27T13:16:07Z</time>
      </trkpt>
      <trkpt lat="46.04439" lon="6.30059">
        <ele>777.2</ele>
        <time>2021-03-27T13:16:08Z</time>
      </trkpt>
      <trkpt lat="46.04438" lon="6.30057">
        <ele>777.6</ele>
        <time>2021-03-27T13:16:09Z</time>
      </trkpt>
      <trkpt lat="46.04437" lon="6.30056">
        <ele>777.8</ele>
        <time>2021-03-27T13:16:10Z</time>
      </trkpt>
      <trkpt lat="46.04435" lon="6.30055">
        <ele>778.4</ele>
        <time>2021-03-27T13:16:11Z</time>
      </trkpt>
      <trkpt lat="46.04433" lon="6.30053">
        <ele>778.8</ele>
        <time>2021-03-27T13:16:12Z</time>
      </trkpt>
      <trkpt lat="46.0443" lon="6.30052">
        <ele>779.2</ele>
        <time>2021-03-27T13:16:13Z</time>
      </trkpt>
      <trkpt lat="46.04428" lon="6.30051">
        <ele>779.6</ele>
        <time>2021-03-27T13:16:14Z</time>
      </trkpt>
      <trkpt lat="46.04426" lon="6.3005">
        <ele>780.2</ele>
        <time>2021-03-27T13:16:15Z</time>
      </trkpt>
      <trkpt lat="46.04425" lon="6.30048">
        <ele>780.4</ele>
        <time>2021-03-27T13:16:16Z</time>
      </trkpt>
      <trkpt lat="46.04423" lon="6.30047">
        <ele>780.6</ele>
        <time>2021-03-27T13:16:17Z</time>
      </trkpt>
      <trkpt lat="46.04421" lon="6.30046">
        <ele>781</ele>
        <time>2021-03-27T13:16:18Z</time>
      </trkpt>
      <trkpt lat="46.04419" lon="6.30045">
        <ele>781.2</ele>
        <time>2021-03-27T13:16:19Z</time>
      </trkpt>
      <trkpt lat="46.04418" lon="6.30044">
        <ele>781.6</ele>
        <time>2021-03-27T13:16:20Z</time>
      </trkpt>
      <trkpt lat="46.04416" lon="6.30043">
        <ele>781.8</ele>
        <time>2021-03-27T13:16:21Z</time>
      </trkpt>
      <trkpt lat="46.04415" lon="6.30042">
        <ele>782</ele>
        <time>2021-03-27T13:16:22Z</time>
      </trkpt>
      <trkpt lat="46.04413" lon="6.30041">
        <ele>782.4</ele>
        <time>2021-03-27T13:16:23Z</time>
      </trkpt>
      <trkpt lat="46.04411" lon="6.3004">
        <ele>782.8</ele>
        <time>2021-03-27T13:16:24Z</time>
      </trkpt>
      <trkpt lat="46.04409" lon="6.30039">
        <ele>783.4</ele>
        <time>2021-03-27T13:16:25Z</time>
      </trkpt>
      <trkpt lat="46.04408" lon="6.30038">
        <ele>783.6</ele>
        <time>2021-03-27T13:16:26Z</time>
      </trkpt>
      <trkpt lat="46.04406" lon="6.30037">
        <ele>783.8</ele>
        <time>2021-03-27T13:16:27Z</time>
      </trkpt>
      <trkpt lat="46.04404" lon="6.30035">
        <ele>784</ele>
        <time>2021-03-27T13:16:28Z</time>
      </trkpt>
      <trkpt lat="46.04403" lon="6.30034">
        <ele>784.4</ele>
        <time>2021-03-27T13:16:29Z</time>
      </trkpt>
      <trkpt lat="46.04401" lon="6.30033">
        <ele>784.6</ele>
        <time>2021-03-27T13:16:30Z</time>
      </trkpt>
      <trkpt lat="46.044" lon="6.30032">
        <ele>785</ele>
        <time>2021-03-27T13:16:31Z</time>
      </trkpt>
      <trkpt lat="46.04398" lon="6.3003">
        <ele>785.2</ele>
        <time>2021-03-27T13:16:32Z</time>
      </trkpt>
      <trkpt lat="46.04396" lon="6.30029">
        <ele>785.6</ele>
        <time>2021-03-27T13:16:33Z</time>
      </trkpt>
      <trkpt lat="46.04395" lon="6.30028">
        <ele>786</ele>
        <time>2021-03-27T13:16:34Z</time>
      </trkpt>
      <trkpt lat="46.04393" lon="6.30027">
        <ele>786.4</ele>
        <time>2021-03-27T13:16:35Z</time>
      </trkpt>
      <trkpt lat="46.04392" lon="6.30026">
        <ele>786.6</ele>
        <time>2021-03-27T13:16:36Z</time>
      </trkpt>
      <trkpt lat="46.0439" lon="6.30024">
        <ele>786.6</ele>
        <time>2021-03-27T13:16:37Z</time>
      </trkpt>
      <trkpt lat="46.04388" lon="6.30023">
        <ele>786.8</ele>
        <time>2021-03-27T13:16:38Z</time>
      </trkpt>
      <trkpt lat="46.04385" lon="6.30021">
        <ele>787.2</ele>
        <time>2021-03-27T13:16:39Z</time>
      </trkpt>
      <trkpt lat="46.04383" lon="6.3002">
        <ele>787.4</ele>
        <time>2021-03-27T13:16:40Z</time>
      </trkpt>
      <trkpt lat="46.04381" lon="6.30018">
        <ele>787.8</ele>
        <time>2021-03-27T13:16:41Z</time>
      </trkpt>
      <trkpt lat="46.04379" lon="6.30017">
        <ele>788.2</ele>
        <time>2021-03-27T13:16:42Z</time>
      </trkpt>
      <trkpt lat="46.04377" lon="6.30016">
        <ele>788.4</ele>
        <time>2021-03-27T13:16:43Z</time>
      </trkpt>
      <trkpt lat="46.04375" lon="6.30014">
        <ele>788.8</ele>
        <time>2021-03-27T13:16:44Z</time>
      </trkpt>
      <trkpt lat="46.04373" lon="6.30013">
        <ele>788.8</ele>
        <time>2021-03-27T13:16:45Z</time>
      </trkpt>
      <trkpt lat="46.04371" lon="6.30012">
        <ele>789.4</ele>
        <time>2021-03-27T13:16:46Z</time>
      </trkpt>
      <trkpt lat="46.0437" lon="6.3001">
        <ele>789.6</ele>
        <time>2021-03-27T13:16:47Z</time>
      </trkpt>
      <trkpt lat="46.04368" lon="6.30009">
        <ele>790</ele>
        <time>2021-03-27T13:16:48Z</time>
      </trkpt>
      <trkpt lat="46.04366" lon="6.30008">
        <ele>790.2</ele>
        <time>2021-03-27T13:16:49Z</time>
      </trkpt>
      <trkpt lat="46.04365" lon="6.30008">
        <ele>790.6</ele>
        <time>2021-03-27T13:16:50Z</time>
      </trkpt>
      <trkpt lat="46.04363" lon="6.30007">
        <ele>790.6</ele>
        <time>2021-03-27T13:16:51Z</time>
      </trkpt>
      <trkpt lat="46.04361" lon="6.30006">
        <ele>791</ele>
        <time>2021-03-27T13:16:52Z</time>
      </trkpt>
      <trkpt lat="46.04359" lon="6.30006">
        <ele>791.4</ele>
        <time>2021-03-27T13:16:53Z</time>
      </trkpt>
      <trkpt lat="46.04358" lon="6.30005">
        <ele>791.6</ele>
        <time>2021-03-27T13:16:54Z</time>
      </trkpt>
      <trkpt lat="46.04356" lon="6.30005">
        <ele>791.6</ele>
        <time>2021-03-27T13:16:55Z</time>
      </trkpt>
      <trkpt lat="46.04353" lon="6.30005">
        <ele>792</ele>
        <time>2021-03-27T13:16:56Z</time>
      </trkpt>
      <trkpt lat="46.04351" lon="6.30005">
        <ele>792.6</ele>
        <time>2021-03-27T13:16:57Z</time>
      </trkpt>
      <trkpt lat="46.04349" lon="6.30004">
        <ele>793</ele>
        <time>2021-03-27T13:16:58Z</time>
      </trkpt>
      <trkpt lat="46.04347" lon="6.30004">
        <ele>793.4</ele>
        <time>2021-03-27T13:16:59Z</time>
      </trkpt>
      <trkpt lat="46.04345" lon="6.30003">
        <ele>793.8</ele>
        <time>2021-03-27T13:17:00Z</time>
      </trkpt>
      <trkpt lat="46.04343" lon="6.30003">
        <ele>794.2</ele>
        <time>2021-03-27T13:17:01Z</time>
      </trkpt>
      <trkpt lat="46.04341" lon="6.30002">
        <ele>794.4</ele>
        <time>2021-03-27T13:17:02Z</time>
      </trkpt>
      <trkpt lat="46.04338" lon="6.30002">
        <ele>794.6</ele>
        <time>2021-03-27T13:17:03Z</time>
      </trkpt>
      <trkpt lat="46.04336" lon="6.30002">
        <ele>795</ele>
        <time>2021-03-27T13:17:04Z</time>
      </trkpt>
      <trkpt lat="46.04334" lon="6.30002">
        <ele>795.4</ele>
        <time>2021-03-27T13:17:05Z</time>
      </trkpt>
      <trkpt lat="46.04332" lon="6.30001">
        <ele>795.6</ele>
        <time>2021-03-27T13:17:06Z</time>
      </trkpt>
      <trkpt lat="46.0433" lon="6.30002">
        <ele>796</ele>
        <time>2021-03-27T13:17:07Z</time>
      </trkpt>
      <trkpt lat="46.04328" lon="6.30002">
        <ele>796.4</ele>
        <time>2021-03-27T13:17:08Z</time>
      </trkpt>
      <trkpt lat="46.04327" lon="6.30003">
        <ele>796.6</ele>
        <time>2021-03-27T13:17:09Z</time>
      </trkpt>
      <trkpt lat="46.04325" lon="6.30003">
        <ele>796.8</ele>
        <time>2021-03-27T13:17:10Z</time>
      </trkpt>
      <trkpt lat="46.04324" lon="6.30003">
        <ele>797.2</ele>
        <time>2021-03-27T13:17:11Z</time>
      </trkpt>
      <trkpt lat="46.04323" lon="6.30003">
        <ele>797.4</ele>
        <time>2021-03-27T13:17:12Z</time>
      </trkpt>
      <trkpt lat="46.04321" lon="6.30003">
        <ele>797.8</ele>
        <time>2021-03-27T13:17:13Z</time>
      </trkpt>
      <trkpt lat="46.04319" lon="6.30004">
        <ele>798</ele>
        <time>2021-03-27T13:17:14Z</time>
      </trkpt>
      <trkpt lat="46.04317" lon="6.30004">
        <ele>798.2</ele>
        <time>2021-03-27T13:17:15Z</time>
      </trkpt>
      <trkpt lat="46.04316" lon="6.30003">
        <ele>798.6</ele>
        <time>2021-03-27T13:17:16Z</time>
      </trkpt>
      <trkpt lat="46.04315" lon="6.30003">
        <ele>799</ele>
        <time>2021-03-27T13:17:17Z</time>
      </trkpt>
      <trkpt lat="46.04313" lon="6.30004">
        <ele>799.2</ele>
        <time>2021-03-27T13:17:18Z</time>
      </trkpt>
      <trkpt lat="46.04312" lon="6.30004">
        <ele>799.8</ele>
        <time>2021-03-27T13:17:19Z</time>
      </trkpt>
      <trkpt lat="46.0431" lon="6.30005">
        <ele>800</ele>
        <time>2021-03-27T13:17:20Z</time>
      </trkpt>
      <trkpt lat="46.04308" lon="6.30005">
        <ele>800.4</ele>
        <time>2021-03-27T13:17:21Z</time>
      </trkpt>
      <trkpt lat="46.04307" lon="6.30005">
        <ele>800.4</ele>
        <time>2021-03-27T13:17:22Z</time>
      </trkpt>
      <trkpt lat="46.04306" lon="6.30005">
        <ele>800.6</ele>
        <time>2021-03-27T13:17:23Z</time>
      </trkpt>
      <trkpt lat="46.04303" lon="6.30005">
        <ele>800.8</ele>
        <time>2021-03-27T13:17:24Z</time>
      </trkpt>
      <trkpt lat="46.04302" lon="6.30005">
        <ele>801.2</ele>
        <time>2021-03-27T13:17:25Z</time>
      </trkpt>
      <trkpt lat="46.043" lon="6.30005">
        <ele>801.4</ele>
        <time>2021-03-27T13:17:26Z</time>
      </trkpt>
      <trkpt lat="46.04297" lon="6.30005">
        <ele>801.4</ele>
        <time>2021-03-27T13:17:27Z</time>
      </trkpt>
      <trkpt lat="46.04295" lon="6.30005">
        <ele>801.8</ele>
        <time>2021-03-27T13:17:28Z</time>
      </trkpt>
      <trkpt lat="46.04293" lon="6.30005">
        <ele>802.4</ele>
        <time>2021-03-27T13:17:29Z</time>
      </trkpt>
      <trkpt lat="46.04292" lon="6.30005">
        <ele>802.4</ele>
        <time>2021-03-27T13:17:30Z</time>
      </trkpt>
      <trkpt lat="46.0429" lon="6.30006">
        <ele>802.6</ele>
        <time>2021-03-27T13:17:31Z</time>
      </trkpt>
      <trkpt lat="46.04287" lon="6.30006">
        <ele>803.2</ele>
        <time>2021-03-27T13:17:33Z</time>
      </trkpt>
      <trkpt lat="46.04285" lon="6.30006">
        <ele>803.4</ele>
        <time>2021-03-27T13:17:34Z</time>
      </trkpt>
      <trkpt lat="46.04283" lon="6.30005">
        <ele>803.6</ele>
        <time>2021-03-27T13:17:35Z</time>
      </trkpt>
      <trkpt lat="46.0428" lon="6.30005">
        <ele>804</ele>
        <time>2021-03-27T13:17:36Z</time>
      </trkpt>
      <trkpt lat="46.04278" lon="6.30005">
        <ele>804.4</ele>
        <time>2021-03-27T13:17:37Z</time>
      </trkpt>
      <trkpt lat="46.04276" lon="6.30005">
        <ele>804.8</ele>
        <time>2021-03-27T13:17:38Z</time>
      </trkpt>
      <trkpt lat="46.04273" lon="6.30005">
        <ele>804.8</ele>
        <time>2021-03-27T13:17:39Z</time>
      </trkpt>
      <trkpt lat="46.04272" lon="6.30005">
        <ele>805.2</ele>
        <time>2021-03-27T13:17:40Z</time>
      </trkpt>
      <trkpt lat="46.0427" lon="6.30005">
        <ele>805.4</ele>
        <time>2021-03-27T13:17:41Z</time>
      </trkpt>
      <trkpt lat="46.04268" lon="6.30005">
        <ele>805.6</ele>
        <time>2021-03-27T13:17:42Z</time>
      </trkpt>
      <trkpt lat="46.04267" lon="6.30005">
        <ele>805.8</ele>
        <time>2021-03-27T13:17:43Z</time>
      </trkpt>
      <trkpt lat="46.04265" lon="6.30004">
        <ele>806</ele>
        <time>2021-03-27T13:17:44Z</time>
      </trkpt>
      <trkpt lat="46.04264" lon="6.30004">
        <ele>806.4</ele>
        <time>2021-03-27T13:17:45Z</time>
      </trkpt>
      <trkpt lat="46.04261" lon="6.30004">
        <ele>806.6</ele>
        <time>2021-03-27T13:17:46Z</time>
      </trkpt>
      <trkpt lat="46.04258" lon="6.30003">
        <ele>806.8</ele>
        <time>2021-03-27T13:17:47Z</time>
      </trkpt>
      <trkpt lat="46.04254" lon="6.30003">
        <ele>807.4</ele>
        <time>2021-03-27T13:17:49Z</time>
      </trkpt>
      <trkpt lat="46.04252" lon="6.30003">
        <ele>807.6</ele>
        <time>2021-03-27T13:17:50Z</time>
      </trkpt>
      <trkpt lat="46.04251" lon="6.30003">
        <ele>807.6</ele>
        <time>2021-03-27T13:17:51Z</time>
      </trkpt>
      <trkpt lat="46.04248" lon="6.30003">
        <ele>808</ele>
        <time>2021-03-27T13:17:52Z</time>
      </trkpt>
      <trkpt lat="46.04246" lon="6.30003">
        <ele>808</ele>
        <time>2021-03-27T13:17:53Z</time>
      </trkpt>
      <trkpt lat="46.04244" lon="6.30003">
        <ele>808.4</ele>
        <time>2021-03-27T13:17:54Z</time>
      </trkpt>
      <trkpt lat="46.04243" lon="6.30002">
        <ele>808.4</ele>
        <time>2021-03-27T13:17:55Z</time>
      </trkpt>
      <trkpt lat="46.04241" lon="6.30002">
        <ele>808.8</ele>
        <time>2021-03-27T13:17:56Z</time>
      </trkpt>
      <trkpt lat="46.04239" lon="6.30002">
        <ele>809</ele>
        <time>2021-03-27T13:17:57Z</time>
      </trkpt>
      <trkpt lat="46.04236" lon="6.30002">
        <ele>809.2</ele>
        <time>2021-03-27T13:17:58Z</time>
      </trkpt>
      <trkpt lat="46.04234" lon="6.30001">
        <ele>809.8</ele>
        <time>2021-03-27T13:17:59Z</time>
      </trkpt>
      <trkpt lat="46.04229" lon="6.3">
        <ele>810.4</ele>
        <time>2021-03-27T13:18:01Z</time>
      </trkpt>
      <trkpt lat="46.04226" lon="6.29999">
        <ele>810.8</ele>
        <time>2021-03-27T13:18:02Z</time>
      </trkpt>
      <trkpt lat="46.04224" lon="6.29998">
        <ele>811.2</ele>
        <time>2021-03-27T13:18:03Z</time>
      </trkpt>
      <trkpt lat="46.04222" lon="6.29997">
        <ele>811.6</ele>
        <time>2021-03-27T13:18:04Z</time>
      </trkpt>
      <trkpt lat="46.04219" lon="6.29996">
        <ele>812.2</ele>
        <time>2021-03-27T13:18:05Z</time>
      </trkpt>
      <trkpt lat="46.04215" lon="6.29995">
        <ele>812.6</ele>
        <time>2021-03-27T13:18:07Z</time>
      </trkpt>
      <trkpt lat="46.04212" lon="6.29994">
        <ele>812.8</ele>
        <time>2021-03-27T13:18:08Z</time>
      </trkpt>
      <trkpt lat="46.04209" lon="6.29993">
        <ele>813.2</ele>
        <time>2021-03-27T13:18:09Z</time>
      </trkpt>
      <trkpt lat="46.04206" lon="6.29993">
        <ele>813.4</ele>
        <time>2021-03-27T13:18:10Z</time>
      </trkpt>
      <trkpt lat="46.04204" lon="6.29992">
        <ele>813.8</ele>
        <time>2021-03-27T13:18:11Z</time>
      </trkpt>
      <trkpt lat="46.04199" lon="6.2999">
        <ele>814.2</ele>
        <time>2021-03-27T13:18:13Z</time>
      </trkpt>
      <trkpt lat="46.04197" lon="6.29989">
        <ele>814.4</ele>
        <time>2021-03-27T13:18:14Z</time>
      </trkpt>
      <trkpt lat="46.04194" lon="6.29989">
        <ele>814.6</ele>
        <time>2021-03-27T13:18:15Z</time>
      </trkpt>
      <trkpt lat="46.04192" lon="6.29988">
        <ele>814.8</ele>
        <time>2021-03-27T13:18:16Z</time>
      </trkpt>
      <trkpt lat="46.0419" lon="6.29988">
        <ele>815</ele>
        <time>2021-03-27T13:18:17Z</time>
      </trkpt>
      <trkpt lat="46.04187" lon="6.29987">
        <ele>815.4</ele>
        <time>2021-03-27T13:18:19Z</time>
      </trkpt>
      <trkpt lat="46.04185" lon="6.29986">
        <ele>815.6</ele>
        <time>2021-03-27T13:18:20Z</time>
      </trkpt>
      <trkpt lat="46.04184" lon="6.29986">
        <ele>815.8</ele>
        <time>2021-03-27T13:18:21Z</time>
      </trkpt>
      <trkpt lat="46.04182" lon="6.29986">
        <ele>816</ele>
        <time>2021-03-27T13:18:22Z</time>
      </trkpt>
      <trkpt lat="46.04181" lon="6.29985">
        <ele>816.2</ele>
        <time>2021-03-27T13:18:23Z</time>
      </trkpt>
      <trkpt lat="46.04179" lon="6.29984">
        <ele>816.4</ele>
        <time>2021-03-27T13:18:24Z</time>
      </trkpt>
      <trkpt lat="46.04178" lon="6.29984">
        <ele>816.2</ele>
        <time>2021-03-27T13:18:25Z</time>
      </trkpt>
      <trkpt lat="46.04175" lon="6.29983">
        <ele>816.6</ele>
        <time>2021-03-27T13:18:26Z</time>
      </trkpt>
      <trkpt lat="46.04173" lon="6.29983">
        <ele>816.8</ele>
        <time>2021-03-27T13:18:27Z</time>
      </trkpt>
      <trkpt lat="46.04171" lon="6.29984">
        <ele>817</ele>
        <time>2021-03-27T13:18:28Z</time>
      </trkpt>
      <trkpt lat="46.04168" lon="6.29986">
        <ele>817.4</ele>
        <time>2021-03-27T13:18:29Z</time>
      </trkpt>
      <trkpt lat="46.04167" lon="6.2999">
        <ele>817.6</ele>
        <time>2021-03-27T13:18:30Z</time>
      </trkpt>
      <trkpt lat="46.04166" lon="6.29993">
        <ele>818</ele>
        <time>2021-03-27T13:18:31Z</time>
      </trkpt>
      <trkpt lat="46.04165" lon="6.29997">
        <ele>818</ele>
        <time>2021-03-27T13:18:32Z</time>
      </trkpt>
      <trkpt lat="46.04163" lon="6.30001">
        <ele>818.6</ele>
        <time>2021-03-27T13:18:33Z</time>
      </trkpt>
      <trkpt lat="46.04162" lon="6.30005">
        <ele>818.8</ele>
        <time>2021-03-27T13:18:34Z</time>
      </trkpt>
      <trkpt lat="46.04161" lon="6.30009">
        <ele>819</ele>
        <time>2021-03-27T13:18:35Z</time>
      </trkpt>
      <trkpt lat="46.04159" lon="6.30012">
        <ele>819.2</ele>
        <time>2021-03-27T13:18:36Z</time>
      </trkpt>
      <trkpt lat="46.04158" lon="6.30016">
        <ele>819.4</ele>
        <time>2021-03-27T13:18:37Z</time>
      </trkpt>
      <trkpt lat="46.04157" lon="6.3002">
        <ele>819.6</ele>
        <time>2021-03-27T13:18:38Z</time>
      </trkpt>
      <trkpt lat="46.04156" lon="6.30024">
        <ele>820</ele>
        <time>2021-03-27T13:18:39Z</time>
      </trkpt>
      <trkpt lat="46.04154" lon="6.30028">
        <ele>820.2</ele>
        <time>2021-03-27T13:18:40Z</time>
      </trkpt>
      <trkpt lat="46.04151" lon="6.30035">
        <ele>820.6</ele>
        <time>2021-03-27T13:18:42Z</time>
      </trkpt>
      <trkpt lat="46.04148" lon="6.30043">
        <ele>820.8</ele>
        <time>2021-03-27T13:18:44Z</time>
      </trkpt>
      <trkpt lat="46.04147" lon="6.30046">
        <ele>821.2</ele>
        <time>2021-03-27T13:18:45Z</time>
      </trkpt>
      <trkpt lat="46.04145" lon="6.3005">
        <ele>821.2</ele>
        <time>2021-03-27T13:18:46Z</time>
      </trkpt>
      <trkpt lat="46.04143" lon="6.30054">
        <ele>821.4</ele>
        <time>2021-03-27T13:18:47Z</time>
      </trkpt>
      <trkpt lat="46.04141" lon="6.30058">
        <ele>821.4</ele>
        <time>2021-03-27T13:18:48Z</time>
      </trkpt>
      <trkpt lat="46.04139" lon="6.30062">
        <ele>821.8</ele>
        <time>2021-03-27T13:18:49Z</time>
      </trkpt>
      <trkpt lat="46.04137" lon="6.30066">
        <ele>822</ele>
        <time>2021-03-27T13:18:50Z</time>
      </trkpt>
      <trkpt lat="46.04135" lon="6.30069">
        <ele>822</ele>
        <time>2021-03-27T13:18:51Z</time>
      </trkpt>
      <trkpt lat="46.04131" lon="6.30077">
        <ele>822.4</ele>
        <time>2021-03-27T13:18:53Z</time>
      </trkpt>
      <trkpt lat="46.04129" lon="6.30081">
        <ele>822.4</ele>
        <time>2021-03-27T13:18:54Z</time>
      </trkpt>
      <trkpt lat="46.04127" lon="6.30085">
        <ele>822.6</ele>
        <time>2021-03-27T13:18:55Z</time>
      </trkpt>
      <trkpt lat="46.04125" lon="6.30089">
        <ele>822.8</ele>
        <time>2021-03-27T13:18:56Z</time>
      </trkpt>
      <trkpt lat="46.04123" lon="6.30093">
        <ele>823</ele>
        <time>2021-03-27T13:18:57Z</time>
      </trkpt>
      <trkpt lat="46.0412" lon="6.30097">
        <ele>823.4</ele>
        <time>2021-03-27T13:18:58Z</time>
      </trkpt>
      <trkpt lat="46.04117" lon="6.30101">
        <ele>823.4</ele>
        <time>2021-03-27T13:18:59Z</time>
      </trkpt>
      <trkpt lat="46.04114" lon="6.30104">
        <ele>823.8</ele>
        <time>2021-03-27T13:19:00Z</time>
      </trkpt>
      <trkpt lat="46.04111" lon="6.30107">
        <ele>823.6</ele>
        <time>2021-03-27T13:19:01Z</time>
      </trkpt>
      <trkpt lat="46.04107" lon="6.30109">
        <ele>824</ele>
        <time>2021-03-27T13:19:02Z</time>
      </trkpt>
      <trkpt lat="46.04105" lon="6.30111">
        <ele>824</ele>
        <time>2021-03-27T13:19:03Z</time>
      </trkpt>
      <trkpt lat="46.04102" lon="6.30112">
        <ele>824.2</ele>
        <time>2021-03-27T13:19:04Z</time>
      </trkpt>
      <trkpt lat="46.04098" lon="6.30112">
        <ele>824.4</ele>
        <time>2021-03-27T13:19:05Z</time>
      </trkpt>
      <trkpt lat="46.04095" lon="6.30112">
        <ele>824.4</ele>
        <time>2021-03-27T13:19:06Z</time>
      </trkpt>
      <trkpt lat="46.04092" lon="6.30112">
        <ele>824.4</ele>
        <time>2021-03-27T13:19:07Z</time>
      </trkpt>
      <trkpt lat="46.04089" lon="6.30111">
        <ele>824.6</ele>
        <time>2021-03-27T13:19:08Z</time>
      </trkpt>
      <trkpt lat="46.04086" lon="6.3011">
        <ele>825</ele>
        <time>2021-03-27T13:19:09Z</time>
      </trkpt>
      <trkpt lat="46.04083" lon="6.30109">
        <ele>825.2</ele>
        <time>2021-03-27T13:19:10Z</time>
      </trkpt>
      <trkpt lat="46.0408" lon="6.30107">
        <ele>825.6</ele>
        <time>2021-03-27T13:19:11Z</time>
      </trkpt>
      <trkpt lat="46.04077" lon="6.30105">
        <ele>825.8</ele>
        <time>2021-03-27T13:19:12Z</time>
      </trkpt>
      <trkpt lat="46.04074" lon="6.30102">
        <ele>826</ele>
        <time>2021-03-27T13:19:13Z</time>
      </trkpt>
      <trkpt lat="46.04072" lon="6.30099">
        <ele>826.2</ele>
        <time>2021-03-27T13:19:14Z</time>
      </trkpt>
      <trkpt lat="46.0407" lon="6.30095">
        <ele>826.2</ele>
        <time>2021-03-27T13:19:15Z</time>
      </trkpt>
      <trkpt lat="46.04068" lon="6.30091">
        <ele>826.4</ele>
        <time>2021-03-27T13:19:16Z</time>
      </trkpt>
      <trkpt lat="46.04066" lon="6.30088">
        <ele>826.6</ele>
        <time>2021-03-27T13:19:17Z</time>
      </trkpt>
      <trkpt lat="46.04064" lon="6.30083">
        <ele>826.8</ele>
        <time>2021-03-27T13:19:18Z</time>
      </trkpt>
      <trkpt lat="46.04062" lon="6.30079">
        <ele>827</ele>
        <time>2021-03-27T13:19:19Z</time>
      </trkpt>
      <trkpt lat="46.0406" lon="6.30075">
        <ele>827.4</ele>
        <time>2021-03-27T13:19:20Z</time>
      </trkpt>
      <trkpt lat="46.04059" lon="6.3007">
        <ele>827.8</ele>
        <time>2021-03-27T13:19:21Z</time>
      </trkpt>
      <trkpt lat="46.04058" lon="6.30066">
        <ele>827.8</ele>
        <time>2021-03-27T13:19:22Z</time>
      </trkpt>
      <trkpt lat="46.04056" lon="6.30061">
        <ele>828.2</ele>
        <time>2021-03-27T13:19:23Z</time>
      </trkpt>
      <trkpt lat="46.04053" lon="6.30053">
        <ele>828.2</ele>
        <time>2021-03-27T13:19:25Z</time>
      </trkpt>
      <trkpt lat="46.04052" lon="6.30048">
        <ele>828.4</ele>
        <time>2021-03-27T13:19:26Z</time>
      </trkpt>
      <trkpt lat="46.04051" lon="6.30043">
        <ele>828.6</ele>
        <time>2021-03-27T13:19:27Z</time>
      </trkpt>
      <trkpt lat="46.04049" lon="6.30039">
        <ele>829</ele>
        <time>2021-03-27T13:19:28Z</time>
      </trkpt>
      <trkpt lat="46.04048" lon="6.30034">
        <ele>829.2</ele>
        <time>2021-03-27T13:19:29Z</time>
      </trkpt>
      <trkpt lat="46.04047" lon="6.3003">
        <ele>829.2</ele>
        <time>2021-03-27T13:19:30Z</time>
      </trkpt>
      <trkpt lat="46.04046" lon="6.30025">
        <ele>829.2</ele>
        <time>2021-03-27T13:19:31Z</time>
      </trkpt>
      <trkpt lat="46.04044" lon="6.30021">
        <ele>829.4</ele>
        <time>2021-03-27T13:19:32Z</time>
      </trkpt>
      <trkpt lat="46.04043" lon="6.30016">
        <ele>829.6</ele>
        <time>2021-03-27T13:19:33Z</time>
      </trkpt>
      <trkpt lat="46.04043" lon="6.30012">
        <ele>829.8</ele>
        <time>2021-03-27T13:19:34Z</time>
      </trkpt>
      <trkpt lat="46.04042" lon="6.30007">
        <ele>830</ele>
        <time>2021-03-27T13:19:35Z</time>
      </trkpt>
      <trkpt lat="46.04041" lon="6.30002">
        <ele>830</ele>
        <time>2021-03-27T13:19:36Z</time>
      </trkpt>
      <trkpt lat="46.04039" lon="6.29993">
        <ele>830.4</ele>
        <time>2021-03-27T13:19:38Z</time>
      </trkpt>
      <trkpt lat="46.04038" lon="6.29989">
        <ele>830.6</ele>
        <time>2021-03-27T13:19:39Z</time>
      </trkpt>
      <trkpt lat="46.04037" lon="6.29984">
        <ele>830.6</ele>
        <time>2021-03-27T13:19:40Z</time>
      </trkpt>
      <trkpt lat="46.04035" lon="6.2998">
        <ele>831</ele>
        <time>2021-03-27T13:19:41Z</time>
      </trkpt>
      <trkpt lat="46.04034" lon="6.29976">
        <ele>831</ele>
        <time>2021-03-27T13:19:42Z</time>
      </trkpt>
      <trkpt lat="46.04032" lon="6.29972">
        <ele>831</ele>
        <time>2021-03-27T13:19:43Z</time>
      </trkpt>
      <trkpt lat="46.04031" lon="6.29967">
        <ele>831.2</ele>
        <time>2021-03-27T13:19:44Z</time>
      </trkpt>
      <trkpt lat="46.0403" lon="6.29963">
        <ele>831.2</ele>
        <time>2021-03-27T13:19:45Z</time>
      </trkpt>
      <trkpt lat="46.04029" lon="6.29959">
        <ele>831.4</ele>
        <time>2021-03-27T13:19:46Z</time>
      </trkpt>
      <trkpt lat="46.04027" lon="6.29954">
        <ele>831.6</ele>
        <time>2021-03-27T13:19:47Z</time>
      </trkpt>
      <trkpt lat="46.04026" lon="6.2995">
        <ele>831.6</ele>
        <time>2021-03-27T13:19:48Z</time>
      </trkpt>
      <trkpt lat="46.04024" lon="6.29946">
        <ele>831.6</ele>
        <time>2021-03-27T13:19:49Z</time>
      </trkpt>
      <trkpt lat="46.04022" lon="6.29942">
        <ele>832</ele>
        <time>2021-03-27T13:19:50Z</time>
      </trkpt>
      <trkpt lat="46.0402" lon="6.29938">
        <ele>832.2</ele>
        <time>2021-03-27T13:19:51Z</time>
      </trkpt>
      <trkpt lat="46.04018" lon="6.29935">
        <ele>832.4</ele>
        <time>2021-03-27T13:19:52Z</time>
      </trkpt>
      <trkpt lat="46.04015" lon="6.29931">
        <ele>832.6</ele>
        <time>2021-03-27T13:19:53Z</time>
      </trkpt>
      <trkpt lat="46.04013" lon="6.29928">
        <ele>832.8</ele>
        <time>2021-03-27T13:19:54Z</time>
      </trkpt>
      <trkpt lat="46.0401" lon="6.29924">
        <ele>832.8</ele>
        <time>2021-03-27T13:19:55Z</time>
      </trkpt>
      <trkpt lat="46.04008" lon="6.29921">
        <ele>833</ele>
        <time>2021-03-27T13:19:56Z</time>
      </trkpt>
      <trkpt lat="46.04005" lon="6.29918">
        <ele>833.4</ele>
        <time>2021-03-27T13:19:57Z</time>
      </trkpt>
      <trkpt lat="46.04002" lon="6.29915">
        <ele>833.6</ele>
        <time>2021-03-27T13:19:58Z</time>
      </trkpt>
      <trkpt lat="46.04" lon="6.29912">
        <ele>833.8</ele>
        <time>2021-03-27T13:19:59Z</time>
      </trkpt>
      <trkpt lat="46.03997" lon="6.29909">
        <ele>834</ele>
        <time>2021-03-27T13:20:00Z</time>
      </trkpt>
      <trkpt lat="46.03995" lon="6.29906">
        <ele>834.2</ele>
        <time>2021-03-27T13:20:01Z</time>
      </trkpt>
      <trkpt lat="46.03993" lon="6.29903">
        <ele>834.2</ele>
        <time>2021-03-27T13:20:02Z</time>
      </trkpt>
      <trkpt lat="46.03991" lon="6.29899">
        <ele>834.4</ele>
        <time>2021-03-27T13:20:03Z</time>
      </trkpt>
      <trkpt lat="46.03988" lon="6.29895">
        <ele>834.6</ele>
        <time>2021-03-27T13:20:04Z</time>
      </trkpt>
      <trkpt lat="46.03986" lon="6.29892">
        <ele>834.8</ele>
        <time>2021-03-27T13:20:05Z</time>
      </trkpt>
      <trkpt lat="46.03984" lon="6.29888">
        <ele>835</ele>
        <time>2021-03-27T13:20:06Z</time>
      </trkpt>
      <trkpt lat="46.03982" lon="6.29884">
        <ele>835.2</ele>
        <time>2021-03-27T13:20:07Z</time>
      </trkpt>
      <trkpt lat="46.0398" lon="6.2988">
        <ele>835.4</ele>
        <time>2021-03-27T13:20:08Z</time>
      </trkpt>
      <trkpt lat="46.03978" lon="6.29875">
        <ele>835.4</ele>
        <time>2021-03-27T13:20:09Z</time>
      </trkpt>
      <trkpt lat="46.03977" lon="6.29871">
        <ele>835.6</ele>
        <time>2021-03-27T13:20:10Z</time>
      </trkpt>
      <trkpt lat="46.03976" lon="6.29867">
        <ele>835.6</ele>
        <time>2021-03-27T13:20:11Z</time>
      </trkpt>
      <trkpt lat="46.03975" lon="6.29862">
        <ele>836</ele>
        <time>2021-03-27T13:20:12Z</time>
      </trkpt>
      <trkpt lat="46.03974" lon="6.29858">
        <ele>836.2</ele>
        <time>2021-03-27T13:20:13Z</time>
      </trkpt>
      <trkpt lat="46.03972" lon="6.29854">
        <ele>836.4</ele>
        <time>2021-03-27T13:20:14Z</time>
      </trkpt>
      <trkpt lat="46.03971" lon="6.2985">
        <ele>836.8</ele>
        <time>2021-03-27T13:20:15Z</time>
      </trkpt>
      <trkpt lat="46.0397" lon="6.29846">
        <ele>836.8</ele>
        <time>2021-03-27T13:20:16Z</time>
      </trkpt>
      <trkpt lat="46.03969" lon="6.29841">
        <ele>837.2</ele>
        <time>2021-03-27T13:20:17Z</time>
      </trkpt>
      <trkpt lat="46.03969" lon="6.29837">
        <ele>837.2</ele>
        <time>2021-03-27T13:20:18Z</time>
      </trkpt>
      <trkpt lat="46.03968" lon="6.29832">
        <ele>837.6</ele>
        <time>2021-03-27T13:20:19Z</time>
      </trkpt>
      <trkpt lat="46.03967" lon="6.29828">
        <ele>837.6</ele>
        <time>2021-03-27T13:20:20Z</time>
      </trkpt>
      <trkpt lat="46.03966" lon="6.29823">
        <ele>837.6</ele>
        <time>2021-03-27T13:20:21Z</time>
      </trkpt>
      <trkpt lat="46.03964" lon="6.29818">
        <ele>837.8</ele>
        <time>2021-03-27T13:20:22Z</time>
      </trkpt>
      <trkpt lat="46.03963" lon="6.29814">
        <ele>837.8</ele>
        <time>2021-03-27T13:20:23Z</time>
      </trkpt>
      <trkpt lat="46.03961" lon="6.29809">
        <ele>837.8</ele>
        <time>2021-03-27T13:20:24Z</time>
      </trkpt>
      <trkpt lat="46.0396" lon="6.29804">
        <ele>837.8</ele>
        <time>2021-03-27T13:20:25Z</time>
      </trkpt>
      <trkpt lat="46.03958" lon="6.29799">
        <ele>838</ele>
        <time>2021-03-27T13:20:26Z</time>
      </trkpt>
      <trkpt lat="46.03957" lon="6.29794">
        <ele>838.2</ele>
        <time>2021-03-27T13:20:27Z</time>
      </trkpt>
      <trkpt lat="46.03956" lon="6.2979">
        <ele>838.6</ele>
        <time>2021-03-27T13:20:28Z</time>
      </trkpt>
      <trkpt lat="46.03954" lon="6.29786">
        <ele>838.8</ele>
        <time>2021-03-27T13:20:29Z</time>
      </trkpt>
      <trkpt lat="46.03953" lon="6.29782">
        <ele>839.2</ele>
        <time>2021-03-27T13:20:30Z</time>
      </trkpt>
      <trkpt lat="46.03951" lon="6.29778">
        <ele>839.2</ele>
        <time>2021-03-27T13:20:31Z</time>
      </trkpt>
      <trkpt lat="46.03948" lon="6.29774">
        <ele>839.8</ele>
        <time>2021-03-27T13:20:32Z</time>
      </trkpt>
      <trkpt lat="46.03946" lon="6.29771">
        <ele>840.2</ele>
        <time>2021-03-27T13:20:33Z</time>
      </trkpt>
      <trkpt lat="46.03944" lon="6.29768">
        <ele>840.6</ele>
        <time>2021-03-27T13:20:34Z</time>
      </trkpt>
      <trkpt lat="46.03941" lon="6.29765">
        <ele>840.8</ele>
        <time>2021-03-27T13:20:35Z</time>
      </trkpt>
      <trkpt lat="46.03939" lon="6.29762">
        <ele>841</ele>
        <time>2021-03-27T13:20:36Z</time>
      </trkpt>
      <trkpt lat="46.03937" lon="6.2976">
        <ele>841.2</ele>
        <time>2021-03-27T13:20:37Z</time>
      </trkpt>
      <trkpt lat="46.03935" lon="6.29757">
        <ele>841.2</ele>
        <time>2021-03-27T13:20:38Z</time>
      </trkpt>
      <trkpt lat="46.03932" lon="6.29755">
        <ele>841.4</ele>
        <time>2021-03-27T13:20:39Z</time>
      </trkpt>
      <trkpt lat="46.0393" lon="6.29752">
        <ele>841.6</ele>
        <time>2021-03-27T13:20:40Z</time>
      </trkpt>
      <trkpt lat="46.03928" lon="6.2975">
        <ele>841.8</ele>
        <time>2021-03-27T13:20:41Z</time>
      </trkpt>
      <trkpt lat="46.03926" lon="6.29748">
        <ele>841.8</ele>
        <time>2021-03-27T13:20:42Z</time>
      </trkpt>
      <trkpt lat="46.03923" lon="6.29746">
        <ele>842</ele>
        <time>2021-03-27T13:20:43Z</time>
      </trkpt>
      <trkpt lat="46.03921" lon="6.29744">
        <ele>842</ele>
        <time>2021-03-27T13:20:44Z</time>
      </trkpt>
      <trkpt lat="46.03919" lon="6.29742">
        <ele>842.2</ele>
        <time>2021-03-27T13:20:45Z</time>
      </trkpt>
      <trkpt lat="46.03917" lon="6.2974">
        <ele>842.4</ele>
        <time>2021-03-27T13:20:46Z</time>
      </trkpt>
      <trkpt lat="46.03915" lon="6.29738">
        <ele>842.4</ele>
        <time>2021-03-27T13:20:47Z</time>
      </trkpt>
      <trkpt lat="46.03914" lon="6.29736">
        <ele>842.6</ele>
        <time>2021-03-27T13:20:48Z</time>
      </trkpt>
      <trkpt lat="46.03912" lon="6.29734">
        <ele>843</ele>
        <time>2021-03-27T13:20:49Z</time>
      </trkpt>
      <trkpt lat="46.0391" lon="6.29732">
        <ele>843</ele>
        <time>2021-03-27T13:20:50Z</time>
      </trkpt>
      <trkpt lat="46.03907" lon="6.29729">
        <ele>843.4</ele>
        <time>2021-03-27T13:20:51Z</time>
      </trkpt>
      <trkpt lat="46.03904" lon="6.29727">
        <ele>843.6</ele>
        <time>2021-03-27T13:20:52Z</time>
      </trkpt>
      <trkpt lat="46.03901" lon="6.29725">
        <ele>844</ele>
        <time>2021-03-27T13:20:53Z</time>
      </trkpt>
      <trkpt lat="46.03898" lon="6.29723">
        <ele>844.4</ele>
        <time>2021-03-27T13:20:54Z</time>
      </trkpt>
      <trkpt lat="46.03895" lon="6.2972">
        <ele>844.4</ele>
        <time>2021-03-27T13:20:55Z</time>
      </trkpt>
      <trkpt lat="46.03892" lon="6.29718">
        <ele>844.6</ele>
        <time>2021-03-27T13:20:56Z</time>
      </trkpt>
      <trkpt lat="46.03888" lon="6.29715">
        <ele>844.8</ele>
        <time>2021-03-27T13:20:57Z</time>
      </trkpt>
      <trkpt lat="46.03884" lon="6.29712">
        <ele>845</ele>
        <time>2021-03-27T13:20:58Z</time>
      </trkpt>
      <trkpt lat="46.03882" lon="6.2971">
        <ele>845</ele>
        <time>2021-03-27T13:20:59Z</time>
      </trkpt>
      <trkpt lat="46.03879" lon="6.29707">
        <ele>845.2</ele>
        <time>2021-03-27T13:21:00Z</time>
      </trkpt>
      <trkpt lat="46.03876" lon="6.29705">
        <ele>845.2</ele>
        <time>2021-03-27T13:21:01Z</time>
      </trkpt>
      <trkpt lat="46.03874" lon="6.29703">
        <ele>845.4</ele>
        <time>2021-03-27T13:21:02Z</time>
      </trkpt>
      <trkpt lat="46.03871" lon="6.29701">
        <ele>845.6</ele>
        <time>2021-03-27T13:21:03Z</time>
      </trkpt>
      <trkpt lat="46.03869" lon="6.29698">
        <ele>845.8</ele>
        <time>2021-03-27T13:21:04Z</time>
      </trkpt>
      <trkpt lat="46.03867" lon="6.29696">
        <ele>846</ele>
        <time>2021-03-27T13:21:05Z</time>
      </trkpt>
      <trkpt lat="46.03865" lon="6.29694">
        <ele>846</ele>
        <time>2021-03-27T13:21:06Z</time>
      </trkpt>
      <trkpt lat="46.03862" lon="6.29691">
        <ele>846</ele>
        <time>2021-03-27T13:21:07Z</time>
      </trkpt>
      <trkpt lat="46.03861" lon="6.29689">
        <ele>846.4</ele>
        <time>2021-03-27T13:21:08Z</time>
      </trkpt>
      <trkpt lat="46.03858" lon="6.29687">
        <ele>846.6</ele>
        <time>2021-03-27T13:21:09Z</time>
      </trkpt>
      <trkpt lat="46.03855" lon="6.29684">
        <ele>847</ele>
        <time>2021-03-27T13:21:10Z</time>
      </trkpt>
      <trkpt lat="46.03851" lon="6.2968">
        <ele>847.2</ele>
        <time>2021-03-27T13:21:11Z</time>
      </trkpt>
      <trkpt lat="46.03847" lon="6.29677">
        <ele>847.2</ele>
        <time>2021-03-27T13:21:12Z</time>
      </trkpt>
      <trkpt lat="46.03843" lon="6.29674">
        <ele>847.6</ele>
        <time>2021-03-27T13:21:13Z</time>
      </trkpt>
      <trkpt lat="46.03839" lon="6.2967">
        <ele>847.8</ele>
        <time>2021-03-27T13:21:14Z</time>
      </trkpt>
      <trkpt lat="46.03836" lon="6.29666">
        <ele>847.8</ele>
        <time>2021-03-27T13:21:15Z</time>
      </trkpt>
      <trkpt lat="46.03833" lon="6.29663">
        <ele>848.2</ele>
        <time>2021-03-27T13:21:16Z</time>
      </trkpt>
      <trkpt lat="46.0383" lon="6.29659">
        <ele>848.2</ele>
        <time>2021-03-27T13:21:17Z</time>
      </trkpt>
      <trkpt lat="46.03827" lon="6.29655">
        <ele>848.6</ele>
        <time>2021-03-27T13:21:18Z</time>
      </trkpt>
      <trkpt lat="46.03825" lon="6.29651">
        <ele>848.8</ele>
        <time>2021-03-27T13:21:19Z</time>
      </trkpt>
      <trkpt lat="46.03822" lon="6.29648">
        <ele>849</ele>
        <time>2021-03-27T13:21:20Z</time>
      </trkpt>
      <trkpt lat="46.0382" lon="6.29644">
        <ele>849.2</ele>
        <time>2021-03-27T13:21:21Z</time>
      </trkpt>
      <trkpt lat="46.03817" lon="6.2964">
        <ele>849.4</ele>
        <time>2021-03-27T13:21:22Z</time>
      </trkpt>
      <trkpt lat="46.03815" lon="6.29636">
        <ele>849.4</ele>
        <time>2021-03-27T13:21:23Z</time>
      </trkpt>
      <trkpt lat="46.03812" lon="6.29632">
        <ele>849.6</ele>
        <time>2021-03-27T13:21:24Z</time>
      </trkpt>
      <trkpt lat="46.0381" lon="6.29628">
        <ele>849.8</ele>
        <time>2021-03-27T13:21:25Z</time>
      </trkpt>
      <trkpt lat="46.03809" lon="6.29623">
        <ele>849.8</ele>
        <time>2021-03-27T13:21:26Z</time>
      </trkpt>
      <trkpt lat="46.03807" lon="6.29619">
        <ele>850.2</ele>
        <time>2021-03-27T13:21:27Z</time>
      </trkpt>
      <trkpt lat="46.03805" lon="6.29614">
        <ele>850.4</ele>
        <time>2021-03-27T13:21:28Z</time>
      </trkpt>
      <trkpt lat="46.03804" lon="6.29609">
        <ele>850.6</ele>
        <time>2021-03-27T13:21:29Z</time>
      </trkpt>
      <trkpt lat="46.03803" lon="6.29605">
        <ele>850.8</ele>
        <time>2021-03-27T13:21:30Z</time>
      </trkpt>
      <trkpt lat="46.03802" lon="6.296">
        <ele>850.8</ele>
        <time>2021-03-27T13:21:31Z</time>
      </trkpt>
      <trkpt lat="46.03801" lon="6.29595">
        <ele>851.2</ele>
        <time>2021-03-27T13:21:32Z</time>
      </trkpt>
      <trkpt lat="46.038" lon="6.2959">
        <ele>851.2</ele>
        <time>2021-03-27T13:21:33Z</time>
      </trkpt>
      <trkpt lat="46.03799" lon="6.29586">
        <ele>851.2</ele>
        <time>2021-03-27T13:21:34Z</time>
      </trkpt>
      <trkpt lat="46.03798" lon="6.29581">
        <ele>851.4</ele>
        <time>2021-03-27T13:21:35Z</time>
      </trkpt>
      <trkpt lat="46.03796" lon="6.29576">
        <ele>851.6</ele>
        <time>2021-03-27T13:21:36Z</time>
      </trkpt>
      <trkpt lat="46.03795" lon="6.29571">
        <ele>851.6</ele>
        <time>2021-03-27T13:21:37Z</time>
      </trkpt>
      <trkpt lat="46.03793" lon="6.29567">
        <ele>851.8</ele>
        <time>2021-03-27T13:21:38Z</time>
      </trkpt>
      <trkpt lat="46.03791" lon="6.29562">
        <ele>852</ele>
        <time>2021-03-27T13:21:39Z</time>
      </trkpt>
      <trkpt lat="46.03789" lon="6.29557">
        <ele>852.4</ele>
        <time>2021-03-27T13:21:40Z</time>
      </trkpt>
      <trkpt lat="46.03787" lon="6.29553">
        <ele>852.4</ele>
        <time>2021-03-27T13:21:41Z</time>
      </trkpt>
      <trkpt lat="46.03785" lon="6.29549">
        <ele>852.8</ele>
        <time>2021-03-27T13:21:42Z</time>
      </trkpt>
      <trkpt lat="46.03783" lon="6.29544">
        <ele>852.8</ele>
        <time>2021-03-27T13:21:43Z</time>
      </trkpt>
      <trkpt lat="46.03781" lon="6.29541">
        <ele>853.2</ele>
        <time>2021-03-27T13:21:44Z</time>
      </trkpt>
      <trkpt lat="46.03778" lon="6.29537">
        <ele>853.4</ele>
        <time>2021-03-27T13:21:45Z</time>
      </trkpt>
      <trkpt lat="46.03776" lon="6.29533">
        <ele>853.6</ele>
        <time>2021-03-27T13:21:46Z</time>
      </trkpt>
      <trkpt lat="46.03773" lon="6.2953">
        <ele>853.8</ele>
        <time>2021-03-27T13:21:47Z</time>
      </trkpt>
      <trkpt lat="46.03771" lon="6.29527">
        <ele>854</ele>
        <time>2021-03-27T13:21:48Z</time>
      </trkpt>
      <trkpt lat="46.03768" lon="6.29524">
        <ele>854.2</ele>
        <time>2021-03-27T13:21:49Z</time>
      </trkpt>
      <trkpt lat="46.03765" lon="6.29521">
        <ele>854</ele>
        <time>2021-03-27T13:21:50Z</time>
      </trkpt>
      <trkpt lat="46.03762" lon="6.29518">
        <ele>854.6</ele>
        <time>2021-03-27T13:21:51Z</time>
      </trkpt>
      <trkpt lat="46.03759" lon="6.29515">
        <ele>854.6</ele>
        <time>2021-03-27T13:21:52Z</time>
      </trkpt>
      <trkpt lat="46.03756" lon="6.29512">
        <ele>854.8</ele>
        <time>2021-03-27T13:21:53Z</time>
      </trkpt>
      <trkpt lat="46.03753" lon="6.29509">
        <ele>855</ele>
        <time>2021-03-27T13:21:54Z</time>
      </trkpt>
      <trkpt lat="46.0375" lon="6.29507">
        <ele>855.2</ele>
        <time>2021-03-27T13:21:55Z</time>
      </trkpt>
      <trkpt lat="46.03747" lon="6.29504">
        <ele>855</ele>
        <time>2021-03-27T13:21:56Z</time>
      </trkpt>
      <trkpt lat="46.03744" lon="6.29501">
        <ele>855.4</ele>
        <time>2021-03-27T13:21:57Z</time>
      </trkpt>
      <trkpt lat="46.03741" lon="6.29498">
        <ele>855.4</ele>
        <time>2021-03-27T13:21:58Z</time>
      </trkpt>
      <trkpt lat="46.03739" lon="6.29495">
        <ele>855.6</ele>
        <time>2021-03-27T13:21:59Z</time>
      </trkpt>
      <trkpt lat="46.03736" lon="6.29492">
        <ele>856</ele>
        <time>2021-03-27T13:22:00Z</time>
      </trkpt>
      <trkpt lat="46.03734" lon="6.29489">
        <ele>856</ele>
        <time>2021-03-27T13:22:01Z</time>
      </trkpt>
      <trkpt lat="46.03731" lon="6.29485">
        <ele>856.4</ele>
        <time>2021-03-27T13:22:02Z</time>
      </trkpt>
      <trkpt lat="46.03729" lon="6.29482">
        <ele>856.6</ele>
        <time>2021-03-27T13:22:03Z</time>
      </trkpt>
      <trkpt lat="46.03726" lon="6.29478">
        <ele>856.6</ele>
        <time>2021-03-27T13:22:04Z</time>
      </trkpt>
      <trkpt lat="46.03724" lon="6.29475">
        <ele>857</ele>
        <time>2021-03-27T13:22:05Z</time>
      </trkpt>
      <trkpt lat="46.03722" lon="6.29471">
        <ele>857.2</ele>
        <time>2021-03-27T13:22:06Z</time>
      </trkpt>
      <trkpt lat="46.0372" lon="6.29467">
        <ele>857.4</ele>
        <time>2021-03-27T13:22:07Z</time>
      </trkpt>
      <trkpt lat="46.03718" lon="6.29464">
        <ele>857.8</ele>
        <time>2021-03-27T13:22:08Z</time>
      </trkpt>
      <trkpt lat="46.03716" lon="6.2946">
        <ele>857.8</ele>
        <time>2021-03-27T13:22:09Z</time>
      </trkpt>
      <trkpt lat="46.03714" lon="6.29456">
        <ele>858</ele>
        <time>2021-03-27T13:22:10Z</time>
      </trkpt>
      <trkpt lat="46.03713" lon="6.29452">
        <ele>858.2</ele>
        <time>2021-03-27T13:22:11Z</time>
      </trkpt>
      <trkpt lat="46.03711" lon="6.29448">
        <ele>858.4</ele>
        <time>2021-03-27T13:22:12Z</time>
      </trkpt>
      <trkpt lat="46.03708" lon="6.29444">
        <ele>858.8</ele>
        <time>2021-03-27T13:22:13Z</time>
      </trkpt>
      <trkpt lat="46.03706" lon="6.2944">
        <ele>858.8</ele>
        <time>2021-03-27T13:22:14Z</time>
      </trkpt>
      <trkpt lat="46.03704" lon="6.29436">
        <ele>859</ele>
        <time>2021-03-27T13:22:15Z</time>
      </trkpt>
      <trkpt lat="46.03703" lon="6.29432">
        <ele>859.2</ele>
        <time>2021-03-27T13:22:16Z</time>
      </trkpt>
      <trkpt lat="46.037" lon="6.29428">
        <ele>859.2</ele>
        <time>2021-03-27T13:22:17Z</time>
      </trkpt>
      <trkpt lat="46.03698" lon="6.29424">
        <ele>859.4</ele>
        <time>2021-03-27T13:22:18Z</time>
      </trkpt>
      <trkpt lat="46.03696" lon="6.29421">
        <ele>859.4</ele>
        <time>2021-03-27T13:22:19Z</time>
      </trkpt>
      <trkpt lat="46.03694" lon="6.29417">
        <ele>859.6</ele>
        <time>2021-03-27T13:22:20Z</time>
      </trkpt>
      <trkpt lat="46.03692" lon="6.29413">
        <ele>859.6</ele>
        <time>2021-03-27T13:22:21Z</time>
      </trkpt>
      <trkpt lat="46.0369" lon="6.29409">
        <ele>859.8</ele>
        <time>2021-03-27T13:22:22Z</time>
      </trkpt>
      <trkpt lat="46.03688" lon="6.29405">
        <ele>860</ele>
        <time>2021-03-27T13:22:23Z</time>
      </trkpt>
      <trkpt lat="46.03686" lon="6.29402">
        <ele>860</ele>
        <time>2021-03-27T13:22:24Z</time>
      </trkpt>
      <trkpt lat="46.03684" lon="6.29398">
        <ele>860.2</ele>
        <time>2021-03-27T13:22:25Z</time>
      </trkpt>
      <trkpt lat="46.03681" lon="6.29394">
        <ele>860.2</ele>
        <time>2021-03-27T13:22:26Z</time>
      </trkpt>
      <trkpt lat="46.03679" lon="6.29391">
        <ele>860.4</ele>
        <time>2021-03-27T13:22:27Z</time>
      </trkpt>
      <trkpt lat="46.03677" lon="6.29387">
        <ele>860.8</ele>
        <time>2021-03-27T13:22:28Z</time>
      </trkpt>
      <trkpt lat="46.03675" lon="6.29384">
        <ele>861</ele>
        <time>2021-03-27T13:22:29Z</time>
      </trkpt>
      <trkpt lat="46.03672" lon="6.29381">
        <ele>861</ele>
        <time>2021-03-27T13:22:30Z</time>
      </trkpt>
      <trkpt lat="46.0367" lon="6.29378">
        <ele>861.2</ele>
        <time>2021-03-27T13:22:31Z</time>
      </trkpt>
      <trkpt lat="46.03667" lon="6.29375">
        <ele>861.4</ele>
        <time>2021-03-27T13:22:32Z</time>
      </trkpt>
      <trkpt lat="46.03665" lon="6.29372">
        <ele>861.4</ele>
        <time>2021-03-27T13:22:33Z</time>
      </trkpt>
      <trkpt lat="46.03662" lon="6.29368">
        <ele>861.4</ele>
        <time>2021-03-27T13:22:34Z</time>
      </trkpt>
      <trkpt lat="46.0366" lon="6.29365">
        <ele>861.6</ele>
        <time>2021-03-27T13:22:35Z</time>
      </trkpt>
      <trkpt lat="46.03657" lon="6.29362">
        <ele>861.4</ele>
        <time>2021-03-27T13:22:36Z</time>
      </trkpt>
      <trkpt lat="46.03655" lon="6.29359">
        <ele>861.6</ele>
        <time>2021-03-27T13:22:37Z</time>
      </trkpt>
      <trkpt lat="46.03653" lon="6.29355">
        <ele>861.8</ele>
        <time>2021-03-27T13:22:38Z</time>
      </trkpt>
      <trkpt lat="46.0365" lon="6.29352">
        <ele>862</ele>
        <time>2021-03-27T13:22:39Z</time>
      </trkpt>
      <trkpt lat="46.03648" lon="6.29349">
        <ele>862.8</ele>
        <time>2021-03-27T13:22:40Z</time>
      </trkpt>
      <trkpt lat="46.03645" lon="6.29346">
        <ele>863.4</ele>
        <time>2021-03-27T13:22:41Z</time>
      </trkpt>
      <trkpt lat="46.03643" lon="6.29343">
        <ele>864</ele>
        <time>2021-03-27T13:22:42Z</time>
      </trkpt>
      <trkpt lat="46.0364" lon="6.2934">
        <ele>864.4</ele>
        <time>2021-03-27T13:22:43Z</time>
      </trkpt>
      <trkpt lat="46.03637" lon="6.29337">
        <ele>864.4</ele>
        <time>2021-03-27T13:22:44Z</time>
      </trkpt>
      <trkpt lat="46.03635" lon="6.29333">
        <ele>864.6</ele>
        <time>2021-03-27T13:22:45Z</time>
      </trkpt>
      <trkpt lat="46.03632" lon="6.2933">
        <ele>864.6</ele>
        <time>2021-03-27T13:22:46Z</time>
      </trkpt>
      <trkpt lat="46.0363" lon="6.29327">
        <ele>864.8</ele>
        <time>2021-03-27T13:22:47Z</time>
      </trkpt>
      <trkpt lat="46.03627" lon="6.29324">
        <ele>864.6</ele>
        <time>2021-03-27T13:22:48Z</time>
      </trkpt>
      <trkpt lat="46.03624" lon="6.29321">
        <ele>865</ele>
        <time>2021-03-27T13:22:49Z</time>
      </trkpt>
      <trkpt lat="46.03621" lon="6.29318">
        <ele>865.4</ele>
        <time>2021-03-27T13:22:50Z</time>
      </trkpt>
      <trkpt lat="46.03618" lon="6.29315">
        <ele>865.6</ele>
        <time>2021-03-27T13:22:51Z</time>
      </trkpt>
      <trkpt lat="46.03616" lon="6.29312">
        <ele>865.6</ele>
        <time>2021-03-27T13:22:52Z</time>
      </trkpt>
      <trkpt lat="46.03613" lon="6.29309">
        <ele>865.8</ele>
        <time>2021-03-27T13:22:53Z</time>
      </trkpt>
      <trkpt lat="46.0361" lon="6.29306">
        <ele>866</ele>
        <time>2021-03-27T13:22:54Z</time>
      </trkpt>
      <trkpt lat="46.03608" lon="6.29303">
        <ele>866.2</ele>
        <time>2021-03-27T13:22:55Z</time>
      </trkpt>
      <trkpt lat="46.03606" lon="6.29301">
        <ele>866.4</ele>
        <time>2021-03-27T13:22:56Z</time>
      </trkpt>
      <trkpt lat="46.03603" lon="6.29298">
        <ele>866.6</ele>
        <time>2021-03-27T13:22:57Z</time>
      </trkpt>
      <trkpt lat="46.03601" lon="6.29295">
        <ele>866.6</ele>
        <time>2021-03-27T13:22:58Z</time>
      </trkpt>
      <trkpt lat="46.03599" lon="6.29292">
        <ele>866.8</ele>
        <time>2021-03-27T13:22:59Z</time>
      </trkpt>
      <trkpt lat="46.03596" lon="6.29289">
        <ele>867</ele>
        <time>2021-03-27T13:23:00Z</time>
      </trkpt>
      <trkpt lat="46.03594" lon="6.29286">
        <ele>867</ele>
        <time>2021-03-27T13:23:01Z</time>
      </trkpt>
      <trkpt lat="46.03591" lon="6.29283">
        <ele>867.4</ele>
        <time>2021-03-27T13:23:02Z</time>
      </trkpt>
      <trkpt lat="46.03589" lon="6.2928">
        <ele>867.6</ele>
        <time>2021-03-27T13:23:03Z</time>
      </trkpt>
      <trkpt lat="46.03587" lon="6.29277">
        <ele>867.8</ele>
        <time>2021-03-27T13:23:04Z</time>
      </trkpt>
      <trkpt lat="46.03584" lon="6.29274">
        <ele>868</ele>
        <time>2021-03-27T13:23:05Z</time>
      </trkpt>
      <trkpt lat="46.03582" lon="6.29271">
        <ele>868.2</ele>
        <time>2021-03-27T13:23:06Z</time>
      </trkpt>
      <trkpt lat="46.0358" lon="6.29268">
        <ele>868.4</ele>
        <time>2021-03-27T13:23:07Z</time>
      </trkpt>
      <trkpt lat="46.03577" lon="6.29265">
        <ele>868.6</ele>
        <time>2021-03-27T13:23:08Z</time>
      </trkpt>
      <trkpt lat="46.03575" lon="6.29261">
        <ele>868.8</ele>
        <time>2021-03-27T13:23:09Z</time>
      </trkpt>
      <trkpt lat="46.03573" lon="6.29257">
        <ele>868.8</ele>
        <time>2021-03-27T13:23:10Z</time>
      </trkpt>
      <trkpt lat="46.0357" lon="6.29254">
        <ele>869</ele>
        <time>2021-03-27T13:23:11Z</time>
      </trkpt>
      <trkpt lat="46.03568" lon="6.2925">
        <ele>869.2</ele>
        <time>2021-03-27T13:23:12Z</time>
      </trkpt>
      <trkpt lat="46.03566" lon="6.29247">
        <ele>869.4</ele>
        <time>2021-03-27T13:23:13Z</time>
      </trkpt>
      <trkpt lat="46.03563" lon="6.29243">
        <ele>869.4</ele>
        <time>2021-03-27T13:23:14Z</time>
      </trkpt>
      <trkpt lat="46.03561" lon="6.29239">
        <ele>869.8</ele>
        <time>2021-03-27T13:23:15Z</time>
      </trkpt>
      <trkpt lat="46.03558" lon="6.29236">
        <ele>869.8</ele>
        <time>2021-03-27T13:23:16Z</time>
      </trkpt>
      <trkpt lat="46.03555" lon="6.29232">
        <ele>870</ele>
        <time>2021-03-27T13:23:17Z</time>
      </trkpt>
      <trkpt lat="46.03553" lon="6.29229">
        <ele>870</ele>
        <time>2021-03-27T13:23:18Z</time>
      </trkpt>
      <trkpt lat="46.03551" lon="6.29225">
        <ele>870.2</ele>
        <time>2021-03-27T13:23:19Z</time>
      </trkpt>
      <trkpt lat="46.03548" lon="6.29222">
        <ele>870.2</ele>
        <time>2021-03-27T13:23:20Z</time>
      </trkpt>
      <trkpt lat="46.03546" lon="6.29218">
        <ele>870.4</ele>
        <time>2021-03-27T13:23:21Z</time>
      </trkpt>
      <trkpt lat="46.03544" lon="6.29215">
        <ele>870.4</ele>
        <time>2021-03-27T13:23:22Z</time>
      </trkpt>
      <trkpt lat="46.03542" lon="6.29211">
        <ele>870.4</ele>
        <time>2021-03-27T13:23:23Z</time>
      </trkpt>
      <trkpt lat="46.03539" lon="6.29207">
        <ele>870.4</ele>
        <time>2021-03-27T13:23:24Z</time>
      </trkpt>
      <trkpt lat="46.03537" lon="6.29203">
        <ele>870.6</ele>
        <time>2021-03-27T13:23:25Z</time>
      </trkpt>
      <trkpt lat="46.03536" lon="6.29199">
        <ele>870.8</ele>
        <time>2021-03-27T13:23:26Z</time>
      </trkpt>
      <trkpt lat="46.03534" lon="6.29195">
        <ele>870.8</ele>
        <time>2021-03-27T13:23:27Z</time>
      </trkpt>
      <trkpt lat="46.03532" lon="6.29191">
        <ele>870.8</ele>
        <time>2021-03-27T13:23:28Z</time>
      </trkpt>
      <trkpt lat="46.0353" lon="6.29187">
        <ele>871.2</ele>
        <time>2021-03-27T13:23:29Z</time>
      </trkpt>
      <trkpt lat="46.03528" lon="6.29183">
        <ele>871.6</ele>
        <time>2021-03-27T13:23:30Z</time>
      </trkpt>
      <trkpt lat="46.03526" lon="6.29178">
        <ele>872</ele>
        <time>2021-03-27T13:23:31Z</time>
      </trkpt>
      <trkpt lat="46.03524" lon="6.29174">
        <ele>872.4</ele>
        <time>2021-03-27T13:23:32Z</time>
      </trkpt>
      <trkpt lat="46.03523" lon="6.2917">
        <ele>872.4</ele>
        <time>2021-03-27T13:23:33Z</time>
      </trkpt>
      <trkpt lat="46.03521" lon="6.29165">
        <ele>872.6</ele>
        <time>2021-03-27T13:23:34Z</time>
      </trkpt>
      <trkpt lat="46.03519" lon="6.29161">
        <ele>872.8</ele>
        <time>2021-03-27T13:23:35Z</time>
      </trkpt>
      <trkpt lat="46.03517" lon="6.29156">
        <ele>873</ele>
        <time>2021-03-27T13:23:36Z</time>
      </trkpt>
      <trkpt lat="46.03516" lon="6.29152">
        <ele>873.4</ele>
        <time>2021-03-27T13:23:37Z</time>
      </trkpt>
      <trkpt lat="46.03514" lon="6.29148">
        <ele>873.6</ele>
        <time>2021-03-27T13:23:38Z</time>
      </trkpt>
      <trkpt lat="46.03512" lon="6.29143">
        <ele>873.8</ele>
        <time>2021-03-27T13:23:39Z</time>
      </trkpt>
      <trkpt lat="46.0351" lon="6.29139">
        <ele>873.8</ele>
        <time>2021-03-27T13:23:40Z</time>
      </trkpt>
      <trkpt lat="46.03509" lon="6.29135">
        <ele>874</ele>
        <time>2021-03-27T13:23:41Z</time>
      </trkpt>
      <trkpt lat="46.03507" lon="6.29132">
        <ele>874.2</ele>
        <time>2021-03-27T13:23:42Z</time>
      </trkpt>
      <trkpt lat="46.03506" lon="6.29127">
        <ele>874.4</ele>
        <time>2021-03-27T13:23:43Z</time>
      </trkpt>
      <trkpt lat="46.03504" lon="6.29123">
        <ele>874.6</ele>
        <time>2021-03-27T13:23:44Z</time>
      </trkpt>
      <trkpt lat="46.03503" lon="6.29119">
        <ele>874.6</ele>
        <time>2021-03-27T13:23:45Z</time>
      </trkpt>
      <trkpt lat="46.03502" lon="6.29114">
        <ele>874.8</ele>
        <time>2021-03-27T13:23:46Z</time>
      </trkpt>
      <trkpt lat="46.035" lon="6.29109">
        <ele>875.2</ele>
        <time>2021-03-27T13:23:47Z</time>
      </trkpt>
      <trkpt lat="46.03499" lon="6.29105">
        <ele>875.2</ele>
        <time>2021-03-27T13:23:48Z</time>
      </trkpt>
      <trkpt lat="46.03498" lon="6.291">
        <ele>875.4</ele>
        <time>2021-03-27T13:23:49Z</time>
      </trkpt>
      <trkpt lat="46.03497" lon="6.29096">
        <ele>875.4</ele>
        <time>2021-03-27T13:23:50Z</time>
      </trkpt>
      <trkpt lat="46.03497" lon="6.29091">
        <ele>875.6</ele>
        <time>2021-03-27T13:23:51Z</time>
      </trkpt>
      <trkpt lat="46.03496" lon="6.29086">
        <ele>875.8</ele>
        <time>2021-03-27T13:23:52Z</time>
      </trkpt>
      <trkpt lat="46.03495" lon="6.29081">
        <ele>876.2</ele>
        <time>2021-03-27T13:23:53Z</time>
      </trkpt>
      <trkpt lat="46.03494" lon="6.29076">
        <ele>876.2</ele>
        <time>2021-03-27T13:23:54Z</time>
      </trkpt>
      <trkpt lat="46.03493" lon="6.29071">
        <ele>876.4</ele>
        <time>2021-03-27T13:23:55Z</time>
      </trkpt>
      <trkpt lat="46.03493" lon="6.29067">
        <ele>876.6</ele>
        <time>2021-03-27T13:23:56Z</time>
      </trkpt>
      <trkpt lat="46.03492" lon="6.29062">
        <ele>876.8</ele>
        <time>2021-03-27T13:23:57Z</time>
      </trkpt>
      <trkpt lat="46.03491" lon="6.29057">
        <ele>877.2</ele>
        <time>2021-03-27T13:23:58Z</time>
      </trkpt>
      <trkpt lat="46.0349" lon="6.29053">
        <ele>877.4</ele>
        <time>2021-03-27T13:23:59Z</time>
      </trkpt>
      <trkpt lat="46.03489" lon="6.29048">
        <ele>877.4</ele>
        <time>2021-03-27T13:24:00Z</time>
      </trkpt>
      <trkpt lat="46.03488" lon="6.29044">
        <ele>877.4</ele>
        <time>2021-03-27T13:24:01Z</time>
      </trkpt>
      <trkpt lat="46.03487" lon="6.29039">
        <ele>877.6</ele>
        <time>2021-03-27T13:24:02Z</time>
      </trkpt>
      <trkpt lat="46.03486" lon="6.29035">
        <ele>877.8</ele>
        <time>2021-03-27T13:24:03Z</time>
      </trkpt>
      <trkpt lat="46.03484" lon="6.29031">
        <ele>877.8</ele>
        <time>2021-03-27T13:24:04Z</time>
      </trkpt>
      <trkpt lat="46.03483" lon="6.29026">
        <ele>878</ele>
        <time>2021-03-27T13:24:05Z</time>
      </trkpt>
      <trkpt lat="46.03482" lon="6.29022">
        <ele>878.2</ele>
        <time>2021-03-27T13:24:06Z</time>
      </trkpt>
      <trkpt lat="46.03481" lon="6.29017">
        <ele>878.4</ele>
        <time>2021-03-27T13:24:07Z</time>
      </trkpt>
      <trkpt lat="46.0348" lon="6.29012">
        <ele>878.4</ele>
        <time>2021-03-27T13:24:08Z</time>
      </trkpt>
      <trkpt lat="46.03478" lon="6.29008">
        <ele>878.4</ele>
        <time>2021-03-27T13:24:09Z</time>
      </trkpt>
      <trkpt lat="46.03477" lon="6.29004">
        <ele>878.8</ele>
        <time>2021-03-27T13:24:10Z</time>
      </trkpt>
      <trkpt lat="46.03475" lon="6.29">
        <ele>878.8</ele>
        <time>2021-03-27T13:24:11Z</time>
      </trkpt>
      <trkpt lat="46.03473" lon="6.28995">
        <ele>879</ele>
        <time>2021-03-27T13:24:12Z</time>
      </trkpt>
      <trkpt lat="46.03471" lon="6.28991">
        <ele>879.2</ele>
        <time>2021-03-27T13:24:13Z</time>
      </trkpt>
      <trkpt lat="46.03468" lon="6.28987">
        <ele>879.4</ele>
        <time>2021-03-27T13:24:14Z</time>
      </trkpt>
      <trkpt lat="46.03466" lon="6.28984">
        <ele>879.4</ele>
        <time>2021-03-27T13:24:15Z</time>
      </trkpt>
      <trkpt lat="46.03464" lon="6.2898">
        <ele>879.8</ele>
        <time>2021-03-27T13:24:16Z</time>
      </trkpt>
      <trkpt lat="46.03462" lon="6.28976">
        <ele>879.8</ele>
        <time>2021-03-27T13:24:17Z</time>
      </trkpt>
      <trkpt lat="46.03459" lon="6.28973">
        <ele>880.2</ele>
        <time>2021-03-27T13:24:18Z</time>
      </trkpt>
      <trkpt lat="46.03457" lon="6.28969">
        <ele>880.4</ele>
        <time>2021-03-27T13:24:19Z</time>
      </trkpt>
      <trkpt lat="46.03454" lon="6.28966">
        <ele>880.8</ele>
        <time>2021-03-27T13:24:20Z</time>
      </trkpt>
      <trkpt lat="46.03452" lon="6.28963">
        <ele>881.2</ele>
        <time>2021-03-27T13:24:21Z</time>
      </trkpt>
      <trkpt lat="46.03449" lon="6.2896">
        <ele>881.6</ele>
        <time>2021-03-27T13:24:22Z</time>
      </trkpt>
      <trkpt lat="46.03446" lon="6.28957">
        <ele>881.8</ele>
        <time>2021-03-27T13:24:23Z</time>
      </trkpt>
      <trkpt lat="46.03443" lon="6.28954">
        <ele>881.8</ele>
        <time>2021-03-27T13:24:24Z</time>
      </trkpt>
      <trkpt lat="46.03441" lon="6.28951">
        <ele>882</ele>
        <time>2021-03-27T13:24:25Z</time>
      </trkpt>
      <trkpt lat="46.03438" lon="6.28949">
        <ele>882.4</ele>
        <time>2021-03-27T13:24:26Z</time>
      </trkpt>
      <trkpt lat="46.03435" lon="6.28946">
        <ele>882.8</ele>
        <time>2021-03-27T13:24:27Z</time>
      </trkpt>
      <trkpt lat="46.03432" lon="6.28943">
        <ele>883.2</ele>
        <time>2021-03-27T13:24:28Z</time>
      </trkpt>
      <trkpt lat="46.03429" lon="6.28941">
        <ele>883.4</ele>
        <time>2021-03-27T13:24:29Z</time>
      </trkpt>
      <trkpt lat="46.03426" lon="6.28939">
        <ele>883.4</ele>
        <time>2021-03-27T13:24:30Z</time>
      </trkpt>
      <trkpt lat="46.03423" lon="6.28936">
        <ele>883.6</ele>
        <time>2021-03-27T13:24:31Z</time>
      </trkpt>
      <trkpt lat="46.0342" lon="6.28934">
        <ele>883.8</ele>
        <time>2021-03-27T13:24:32Z</time>
      </trkpt>
      <trkpt lat="46.03417" lon="6.28931">
        <ele>884</ele>
        <time>2021-03-27T13:24:33Z</time>
      </trkpt>
      <trkpt lat="46.03414" lon="6.28928">
        <ele>884.4</ele>
        <time>2021-03-27T13:24:34Z</time>
      </trkpt>
      <trkpt lat="46.03412" lon="6.28926">
        <ele>884.6</ele>
        <time>2021-03-27T13:24:35Z</time>
      </trkpt>
      <trkpt lat="46.03409" lon="6.28923">
        <ele>884.6</ele>
        <time>2021-03-27T13:24:36Z</time>
      </trkpt>
      <trkpt lat="46.03406" lon="6.2892">
        <ele>884.8</ele>
        <time>2021-03-27T13:24:37Z</time>
      </trkpt>
      <trkpt lat="46.03403" lon="6.28918">
        <ele>885</ele>
        <time>2021-03-27T13:24:38Z</time>
      </trkpt>
      <trkpt lat="46.034" lon="6.28915">
        <ele>885</ele>
        <time>2021-03-27T13:24:39Z</time>
      </trkpt>
      <trkpt lat="46.03397" lon="6.28912">
        <ele>885.2</ele>
        <time>2021-03-27T13:24:40Z</time>
      </trkpt>
      <trkpt lat="46.03394" lon="6.2891">
        <ele>885.4</ele>
        <time>2021-03-27T13:24:41Z</time>
      </trkpt>
      <trkpt lat="46.03391" lon="6.28907">
        <ele>885.4</ele>
        <time>2021-03-27T13:24:42Z</time>
      </trkpt>
      <trkpt lat="46.03387" lon="6.28905">
        <ele>885.4</ele>
        <time>2021-03-27T13:24:43Z</time>
      </trkpt>
      <trkpt lat="46.03384" lon="6.28902">
        <ele>885.8</ele>
        <time>2021-03-27T13:24:44Z</time>
      </trkpt>
      <trkpt lat="46.03381" lon="6.289">
        <ele>886</ele>
        <time>2021-03-27T13:24:45Z</time>
      </trkpt>
      <trkpt lat="46.03378" lon="6.28897">
        <ele>885.8</ele>
        <time>2021-03-27T13:24:46Z</time>
      </trkpt>
      <trkpt lat="46.03376" lon="6.28894">
        <ele>886</ele>
        <time>2021-03-27T13:24:47Z</time>
      </trkpt>
      <trkpt lat="46.03373" lon="6.28891">
        <ele>886.2</ele>
        <time>2021-03-27T13:24:48Z</time>
      </trkpt>
      <trkpt lat="46.0337" lon="6.28888">
        <ele>886.2</ele>
        <time>2021-03-27T13:24:49Z</time>
      </trkpt>
      <trkpt lat="46.03368" lon="6.28884">
        <ele>886.2</ele>
        <time>2021-03-27T13:24:50Z</time>
      </trkpt>
      <trkpt lat="46.03365" lon="6.28881">
        <ele>886.4</ele>
        <time>2021-03-27T13:24:51Z</time>
      </trkpt>
      <trkpt lat="46.03363" lon="6.28877">
        <ele>886.4</ele>
        <time>2021-03-27T13:24:52Z</time>
      </trkpt>
      <trkpt lat="46.03361" lon="6.28873">
        <ele>886.6</ele>
        <time>2021-03-27T13:24:53Z</time>
      </trkpt>
      <trkpt lat="46.03359" lon="6.28869">
        <ele>887</ele>
        <time>2021-03-27T13:24:54Z</time>
      </trkpt>
      <trkpt lat="46.03357" lon="6.28865">
        <ele>887.2</ele>
        <time>2021-03-27T13:24:55Z</time>
      </trkpt>
      <trkpt lat="46.03355" lon="6.28861">
        <ele>887.4</ele>
        <time>2021-03-27T13:24:56Z</time>
      </trkpt>
      <trkpt lat="46.03354" lon="6.28856">
        <ele>887.6</ele>
        <time>2021-03-27T13:24:57Z</time>
      </trkpt>
      <trkpt lat="46.03352" lon="6.28852">
        <ele>887.8</ele>
        <time>2021-03-27T13:24:58Z</time>
      </trkpt>
      <trkpt lat="46.03351" lon="6.28848">
        <ele>888.4</ele>
        <time>2021-03-27T13:24:59Z</time>
      </trkpt>
      <trkpt lat="46.03349" lon="6.28843">
        <ele>888.8</ele>
        <time>2021-03-27T13:25:00Z</time>
      </trkpt>
      <trkpt lat="46.03348" lon="6.28839">
        <ele>889.2</ele>
        <time>2021-03-27T13:25:01Z</time>
      </trkpt>
      <trkpt lat="46.03347" lon="6.28834">
        <ele>889.4</ele>
        <time>2021-03-27T13:25:02Z</time>
      </trkpt>
      <trkpt lat="46.03347" lon="6.2883">
        <ele>889.4</ele>
        <time>2021-03-27T13:25:03Z</time>
      </trkpt>
      <trkpt lat="46.03346" lon="6.28825">
        <ele>889.6</ele>
        <time>2021-03-27T13:25:04Z</time>
      </trkpt>
      <trkpt lat="46.03345" lon="6.28821">
        <ele>889.4</ele>
        <time>2021-03-27T13:25:05Z</time>
      </trkpt>
      <trkpt lat="46.03344" lon="6.28816">
        <ele>889.8</ele>
        <time>2021-03-27T13:25:06Z</time>
      </trkpt>
      <trkpt lat="46.03342" lon="6.28812">
        <ele>890.2</ele>
        <time>2021-03-27T13:25:07Z</time>
      </trkpt>
      <trkpt lat="46.03341" lon="6.28807">
        <ele>890.2</ele>
        <time>2021-03-27T13:25:08Z</time>
      </trkpt>
      <trkpt lat="46.0334" lon="6.28803">
        <ele>890.4</ele>
        <time>2021-03-27T13:25:09Z</time>
      </trkpt>
      <trkpt lat="46.03339" lon="6.28799">
        <ele>890.4</ele>
        <time>2021-03-27T13:25:10Z</time>
      </trkpt>
      <trkpt lat="46.03338" lon="6.28794">
        <ele>890.8</ele>
        <time>2021-03-27T13:25:11Z</time>
      </trkpt>
      <trkpt lat="46.03336" lon="6.2879">
        <ele>890.8</ele>
        <time>2021-03-27T13:25:12Z</time>
      </trkpt>
      <trkpt lat="46.03335" lon="6.28786">
        <ele>891.2</ele>
        <time>2021-03-27T13:25:13Z</time>
      </trkpt>
      <trkpt lat="46.03333" lon="6.28782">
        <ele>891.6</ele>
        <time>2021-03-27T13:25:14Z</time>
      </trkpt>
      <trkpt lat="46.03331" lon="6.28778">
        <ele>891.8</ele>
        <time>2021-03-27T13:25:15Z</time>
      </trkpt>
      <trkpt lat="46.0333" lon="6.28773">
        <ele>891.8</ele>
        <time>2021-03-27T13:25:16Z</time>
      </trkpt>
      <trkpt lat="46.03328" lon="6.28769">
        <ele>892.2</ele>
        <time>2021-03-27T13:25:17Z</time>
      </trkpt>
      <trkpt lat="46.03326" lon="6.28765">
        <ele>892.2</ele>
        <time>2021-03-27T13:25:18Z</time>
      </trkpt>
      <trkpt lat="46.03325" lon="6.28761">
        <ele>892.4</ele>
        <time>2021-03-27T13:25:19Z</time>
      </trkpt>
      <trkpt lat="46.03323" lon="6.28757">
        <ele>892.6</ele>
        <time>2021-03-27T13:25:20Z</time>
      </trkpt>
      <trkpt lat="46.03322" lon="6.28754">
        <ele>892.8</ele>
        <time>2021-03-27T13:25:21Z</time>
      </trkpt>
      <trkpt lat="46.0332" lon="6.2875">
        <ele>893</ele>
        <time>2021-03-27T13:25:22Z</time>
      </trkpt>
      <trkpt lat="46.03318" lon="6.28747">
        <ele>893.4</ele>
        <time>2021-03-27T13:25:23Z</time>
      </trkpt>
      <trkpt lat="46.03317" lon="6.28743">
        <ele>893.6</ele>
        <time>2021-03-27T13:25:24Z</time>
      </trkpt>
      <trkpt lat="46.03315" lon="6.2874">
        <ele>894</ele>
        <time>2021-03-27T13:25:25Z</time>
      </trkpt>
      <trkpt lat="46.03313" lon="6.28737">
        <ele>894.2</ele>
        <time>2021-03-27T13:25:26Z</time>
      </trkpt>
      <trkpt lat="46.03312" lon="6.28734">
        <ele>894.4</ele>
        <time>2021-03-27T13:25:27Z</time>
      </trkpt>
      <trkpt lat="46.0331" lon="6.28731">
        <ele>894.8</ele>
        <time>2021-03-27T13:25:28Z</time>
      </trkpt>
      <trkpt lat="46.03309" lon="6.28729">
        <ele>894.8</ele>
        <time>2021-03-27T13:25:29Z</time>
      </trkpt>
      <trkpt lat="46.03307" lon="6.28727">
        <ele>895.2</ele>
        <time>2021-03-27T13:25:30Z</time>
      </trkpt>
      <trkpt lat="46.03305" lon="6.28725">
        <ele>895.4</ele>
        <time>2021-03-27T13:25:31Z</time>
      </trkpt>
      <trkpt lat="46.03303" lon="6.28723">
        <ele>895.6</ele>
        <time>2021-03-27T13:25:32Z</time>
      </trkpt>
      <trkpt lat="46.033" lon="6.28722">
        <ele>895.8</ele>
        <time>2021-03-27T13:25:33Z</time>
      </trkpt>
      <trkpt lat="46.03297" lon="6.2872">
        <ele>896</ele>
        <time>2021-03-27T13:25:34Z</time>
      </trkpt>
      <trkpt lat="46.03294" lon="6.28719">
        <ele>896.2</ele>
        <time>2021-03-27T13:25:35Z</time>
      </trkpt>
      <trkpt lat="46.0329" lon="6.28717">
        <ele>896.6</ele>
        <time>2021-03-27T13:25:36Z</time>
      </trkpt>
      <trkpt lat="46.03287" lon="6.28716">
        <ele>896.6</ele>
        <time>2021-03-27T13:25:37Z</time>
      </trkpt>
      <trkpt lat="46.03284" lon="6.28715">
        <ele>896.6</ele>
        <time>2021-03-27T13:25:38Z</time>
      </trkpt>
      <trkpt lat="46.0328" lon="6.28714">
        <ele>896.8</ele>
        <time>2021-03-27T13:25:39Z</time>
      </trkpt>
      <trkpt lat="46.03277" lon="6.28713">
        <ele>897.2</ele>
        <time>2021-03-27T13:25:40Z</time>
      </trkpt>
      <trkpt lat="46.03273" lon="6.28712">
        <ele>897.4</ele>
        <time>2021-03-27T13:25:41Z</time>
      </trkpt>
      <trkpt lat="46.0327" lon="6.2871">
        <ele>897.6</ele>
        <time>2021-03-27T13:25:42Z</time>
      </trkpt>
      <trkpt lat="46.03267" lon="6.28709">
        <ele>897.6</ele>
        <time>2021-03-27T13:25:43Z</time>
      </trkpt>
      <trkpt lat="46.03264" lon="6.28709">
        <ele>897.6</ele>
        <time>2021-03-27T13:25:44Z</time>
      </trkpt>
      <trkpt lat="46.03261" lon="6.28707">
        <ele>897.6</ele>
        <time>2021-03-27T13:25:45Z</time>
      </trkpt>
      <trkpt lat="46.03258" lon="6.28706">
        <ele>897.8</ele>
        <time>2021-03-27T13:25:46Z</time>
      </trkpt>
      <trkpt lat="46.03255" lon="6.28704">
        <ele>897.8</ele>
        <time>2021-03-27T13:25:47Z</time>
      </trkpt>
      <trkpt lat="46.03252" lon="6.28703">
        <ele>898.2</ele>
        <time>2021-03-27T13:25:48Z</time>
      </trkpt>
      <trkpt lat="46.03249" lon="6.28701">
        <ele>898.2</ele>
        <time>2021-03-27T13:25:49Z</time>
      </trkpt>
      <trkpt lat="46.03245" lon="6.28699">
        <ele>898.4</ele>
        <time>2021-03-27T13:25:50Z</time>
      </trkpt>
      <trkpt lat="46.03242" lon="6.28696">
        <ele>898.6</ele>
        <time>2021-03-27T13:25:51Z</time>
      </trkpt>
      <trkpt lat="46.03239" lon="6.28694">
        <ele>898.8</ele>
        <time>2021-03-27T13:25:52Z</time>
      </trkpt>
      <trkpt lat="46.03236" lon="6.28692">
        <ele>898.8</ele>
        <time>2021-03-27T13:25:53Z</time>
      </trkpt>
      <trkpt lat="46.03232" lon="6.2869">
        <ele>899</ele>
        <time>2021-03-27T13:25:54Z</time>
      </trkpt>
      <trkpt lat="46.03229" lon="6.28687">
        <ele>899</ele>
        <time>2021-03-27T13:25:55Z</time>
      </trkpt>
      <trkpt lat="46.03226" lon="6.28685">
        <ele>899.2</ele>
        <time>2021-03-27T13:25:56Z</time>
      </trkpt>
      <trkpt lat="46.03223" lon="6.28682">
        <ele>899.2</ele>
        <time>2021-03-27T13:25:57Z</time>
      </trkpt>
      <trkpt lat="46.03221" lon="6.2868">
        <ele>899.2</ele>
        <time>2021-03-27T13:25:58Z</time>
      </trkpt>
      <trkpt lat="46.03218" lon="6.28678">
        <ele>899.4</ele>
        <time>2021-03-27T13:25:59Z</time>
      </trkpt>
      <trkpt lat="46.03215" lon="6.28675">
        <ele>899.4</ele>
        <time>2021-03-27T13:26:00Z</time>
      </trkpt>
      <trkpt lat="46.03213" lon="6.28672">
        <ele>899.4</ele>
        <time>2021-03-27T13:26:01Z</time>
      </trkpt>
      <trkpt lat="46.0321" lon="6.28668">
        <ele>899.4</ele>
        <time>2021-03-27T13:26:02Z</time>
      </trkpt>
      <trkpt lat="46.03208" lon="6.28665">
        <ele>899.4</ele>
        <time>2021-03-27T13:26:03Z</time>
      </trkpt>
      <trkpt lat="46.03205" lon="6.28661">
        <ele>899.6</ele>
        <time>2021-03-27T13:26:04Z</time>
      </trkpt>
      <trkpt lat="46.03203" lon="6.28658">
        <ele>899.8</ele>
        <time>2021-03-27T13:26:05Z</time>
      </trkpt>
      <trkpt lat="46.03201" lon="6.28654">
        <ele>899.8</ele>
        <time>2021-03-27T13:26:06Z</time>
      </trkpt>
      <trkpt lat="46.03198" lon="6.28651">
        <ele>900</ele>
        <time>2021-03-27T13:26:07Z</time>
      </trkpt>
      <trkpt lat="46.03196" lon="6.28647">
        <ele>900.2</ele>
        <time>2021-03-27T13:26:08Z</time>
      </trkpt>
      <trkpt lat="46.03194" lon="6.28643">
        <ele>900.4</ele>
        <time>2021-03-27T13:26:09Z</time>
      </trkpt>
      <trkpt lat="46.03192" lon="6.28639">
        <ele>900.6</ele>
        <time>2021-03-27T13:26:10Z</time>
      </trkpt>
      <trkpt lat="46.03191" lon="6.28634">
        <ele>900.6</ele>
        <time>2021-03-27T13:26:11Z</time>
      </trkpt>
      <trkpt lat="46.03189" lon="6.2863">
        <ele>901</ele>
        <time>2021-03-27T13:26:12Z</time>
      </trkpt>
      <trkpt lat="46.03188" lon="6.28625">
        <ele>901.4</ele>
        <time>2021-03-27T13:26:13Z</time>
      </trkpt>
      <trkpt lat="46.03186" lon="6.28621">
        <ele>901.8</ele>
        <time>2021-03-27T13:26:14Z</time>
      </trkpt>
      <trkpt lat="46.03185" lon="6.28616">
        <ele>902.2</ele>
        <time>2021-03-27T13:26:15Z</time>
      </trkpt>
      <trkpt lat="46.03184" lon="6.28611">
        <ele>902.4</ele>
        <time>2021-03-27T13:26:16Z</time>
      </trkpt>
      <trkpt lat="46.03183" lon="6.28607">
        <ele>902.6</ele>
        <time>2021-03-27T13:26:17Z</time>
      </trkpt>
      <trkpt lat="46.03182" lon="6.28602">
        <ele>902.8</ele>
        <time>2021-03-27T13:26:18Z</time>
      </trkpt>
      <trkpt lat="46.03181" lon="6.28598">
        <ele>903.2</ele>
        <time>2021-03-27T13:26:19Z</time>
      </trkpt>
      <trkpt lat="46.0318" lon="6.28593">
        <ele>903.6</ele>
        <time>2021-03-27T13:26:20Z</time>
      </trkpt>
      <trkpt lat="46.03178" lon="6.28589">
        <ele>903.8</ele>
        <time>2021-03-27T13:26:21Z</time>
      </trkpt>
      <trkpt lat="46.03177" lon="6.28584">
        <ele>904</ele>
        <time>2021-03-27T13:26:22Z</time>
      </trkpt>
      <trkpt lat="46.03177" lon="6.2858">
        <ele>904</ele>
        <time>2021-03-27T13:26:23Z</time>
      </trkpt>
      <trkpt lat="46.03176" lon="6.28575">
        <ele>904.2</ele>
        <time>2021-03-27T13:26:24Z</time>
      </trkpt>
      <trkpt lat="46.03175" lon="6.28571">
        <ele>904.2</ele>
        <time>2021-03-27T13:26:25Z</time>
      </trkpt>
      <trkpt lat="46.03174" lon="6.28566">
        <ele>904.4</ele>
        <time>2021-03-27T13:26:26Z</time>
      </trkpt>
      <trkpt lat="46.03172" lon="6.28563">
        <ele>904.8</ele>
        <time>2021-03-27T13:26:27Z</time>
      </trkpt>
      <trkpt lat="46.03171" lon="6.28559">
        <ele>905</ele>
        <time>2021-03-27T13:26:28Z</time>
      </trkpt>
      <trkpt lat="46.03169" lon="6.28555">
        <ele>905.4</ele>
        <time>2021-03-27T13:26:29Z</time>
      </trkpt>
      <trkpt lat="46.03167" lon="6.28551">
        <ele>905.6</ele>
        <time>2021-03-27T13:26:30Z</time>
      </trkpt>
      <trkpt lat="46.03165" lon="6.28547">
        <ele>906</ele>
        <time>2021-03-27T13:26:31Z</time>
      </trkpt>
      <trkpt lat="46.03164" lon="6.28544">
        <ele>906.2</ele>
        <time>2021-03-27T13:26:32Z</time>
      </trkpt>
      <trkpt lat="46.03162" lon="6.28541">
        <ele>906.4</ele>
        <time>2021-03-27T13:26:33Z</time>
      </trkpt>
      <trkpt lat="46.03159" lon="6.28537">
        <ele>906.8</ele>
        <time>2021-03-27T13:26:34Z</time>
      </trkpt>
      <trkpt lat="46.03157" lon="6.28535">
        <ele>907</ele>
        <time>2021-03-27T13:26:35Z</time>
      </trkpt>
      <trkpt lat="46.03154" lon="6.28533">
        <ele>907.2</ele>
        <time>2021-03-27T13:26:36Z</time>
      </trkpt>
      <trkpt lat="46.03151" lon="6.28531">
        <ele>907.4</ele>
        <time>2021-03-27T13:26:37Z</time>
      </trkpt>
      <trkpt lat="46.03149" lon="6.2853">
        <ele>907.8</ele>
        <time>2021-03-27T13:26:38Z</time>
      </trkpt>
      <trkpt lat="46.03146" lon="6.28528">
        <ele>907.8</ele>
        <time>2021-03-27T13:26:39Z</time>
      </trkpt>
      <trkpt lat="46.03144" lon="6.28526">
        <ele>908</ele>
        <time>2021-03-27T13:26:40Z</time>
      </trkpt>
      <trkpt lat="46.03141" lon="6.28525">
        <ele>908</ele>
        <time>2021-03-27T13:26:41Z</time>
      </trkpt>
      <trkpt lat="46.03139" lon="6.28524">
        <ele>908.4</ele>
        <time>2021-03-27T13:26:42Z</time>
      </trkpt>
      <trkpt lat="46.03136" lon="6.28522">
        <ele>908.6</ele>
        <time>2021-03-27T13:26:43Z</time>
      </trkpt>
      <trkpt lat="46.03133" lon="6.28521">
        <ele>908.8</ele>
        <time>2021-03-27T13:26:44Z</time>
      </trkpt>
      <trkpt lat="46.0313" lon="6.2852">
        <ele>909</ele>
        <time>2021-03-27T13:26:45Z</time>
      </trkpt>
      <trkpt lat="46.03126" lon="6.28519">
        <ele>909.4</ele>
        <time>2021-03-27T13:26:46Z</time>
      </trkpt>
      <trkpt lat="46.03123" lon="6.28518">
        <ele>909.6</ele>
        <time>2021-03-27T13:26:47Z</time>
      </trkpt>
      <trkpt lat="46.03119" lon="6.28517">
        <ele>910</ele>
        <time>2021-03-27T13:26:48Z</time>
      </trkpt>
      <trkpt lat="46.03116" lon="6.28516">
        <ele>910.2</ele>
        <time>2021-03-27T13:26:49Z</time>
      </trkpt>
      <trkpt lat="46.03113" lon="6.28516">
        <ele>910.2</ele>
        <time>2021-03-27T13:26:50Z</time>
      </trkpt>
      <trkpt lat="46.0311" lon="6.28515">
        <ele>910.4</ele>
        <time>2021-03-27T13:26:51Z</time>
      </trkpt>
      <trkpt lat="46.03106" lon="6.28515">
        <ele>910.6</ele>
        <time>2021-03-27T13:26:52Z</time>
      </trkpt>
      <trkpt lat="46.03103" lon="6.28514">
        <ele>910.6</ele>
        <time>2021-03-27T13:26:53Z</time>
      </trkpt>
      <trkpt lat="46.031" lon="6.28513">
        <ele>910.6</ele>
        <time>2021-03-27T13:26:54Z</time>
      </trkpt>
      <trkpt lat="46.03097" lon="6.28513">
        <ele>910.6</ele>
        <time>2021-03-27T13:26:55Z</time>
      </trkpt>
      <trkpt lat="46.03093" lon="6.28513">
        <ele>911</ele>
        <time>2021-03-27T13:26:56Z</time>
      </trkpt>
      <trkpt lat="46.0309" lon="6.28512">
        <ele>911.2</ele>
        <time>2021-03-27T13:26:57Z</time>
      </trkpt>
      <trkpt lat="46.03087" lon="6.28511">
        <ele>911.2</ele>
        <time>2021-03-27T13:26:58Z</time>
      </trkpt>
      <trkpt lat="46.03084" lon="6.2851">
        <ele>911.6</ele>
        <time>2021-03-27T13:26:59Z</time>
      </trkpt>
      <trkpt lat="46.03081" lon="6.28508">
        <ele>912</ele>
        <time>2021-03-27T13:27:00Z</time>
      </trkpt>
      <trkpt lat="46.03078" lon="6.28507">
        <ele>912</ele>
        <time>2021-03-27T13:27:01Z</time>
      </trkpt>
      <trkpt lat="46.03075" lon="6.28506">
        <ele>912.2</ele>
        <time>2021-03-27T13:27:02Z</time>
      </trkpt>
      <trkpt lat="46.03072" lon="6.28504">
        <ele>912.4</ele>
        <time>2021-03-27T13:27:03Z</time>
      </trkpt>
      <trkpt lat="46.03069" lon="6.28501">
        <ele>912.8</ele>
        <time>2021-03-27T13:27:04Z</time>
      </trkpt>
      <trkpt lat="46.03066" lon="6.28499">
        <ele>912.8</ele>
        <time>2021-03-27T13:27:05Z</time>
      </trkpt>
      <trkpt lat="46.03063" lon="6.28497">
        <ele>912.8</ele>
        <time>2021-03-27T13:27:06Z</time>
      </trkpt>
      <trkpt lat="46.0306" lon="6.28495">
        <ele>913</ele>
        <time>2021-03-27T13:27:07Z</time>
      </trkpt>
      <trkpt lat="46.03057" lon="6.28492">
        <ele>913</ele>
        <time>2021-03-27T13:27:08Z</time>
      </trkpt>
      <trkpt lat="46.03054" lon="6.2849">
        <ele>913</ele>
        <time>2021-03-27T13:27:09Z</time>
      </trkpt>
      <trkpt lat="46.03052" lon="6.28487">
        <ele>913.4</ele>
        <time>2021-03-27T13:27:10Z</time>
      </trkpt>
      <trkpt lat="46.03049" lon="6.28484">
        <ele>913.2</ele>
        <time>2021-03-27T13:27:11Z</time>
      </trkpt>
      <trkpt lat="46.03046" lon="6.28482">
        <ele>913.4</ele>
        <time>2021-03-27T13:27:12Z</time>
      </trkpt>
      <trkpt lat="46.03044" lon="6.28479">
        <ele>913.4</ele>
        <time>2021-03-27T13:27:13Z</time>
      </trkpt>
      <trkpt lat="46.03041" lon="6.28476">
        <ele>914</ele>
        <time>2021-03-27T13:27:14Z</time>
      </trkpt>
      <trkpt lat="46.03039" lon="6.28473">
        <ele>914.4</ele>
        <time>2021-03-27T13:27:15Z</time>
      </trkpt>
      <trkpt lat="46.03036" lon="6.2847">
        <ele>914.4</ele>
        <time>2021-03-27T13:27:16Z</time>
      </trkpt>
      <trkpt lat="46.03034" lon="6.28467">
        <ele>914.6</ele>
        <time>2021-03-27T13:27:17Z</time>
      </trkpt>
      <trkpt lat="46.03031" lon="6.28464">
        <ele>915</ele>
        <time>2021-03-27T13:27:18Z</time>
      </trkpt>
      <trkpt lat="46.03029" lon="6.28461">
        <ele>915</ele>
        <time>2021-03-27T13:27:19Z</time>
      </trkpt>
      <trkpt lat="46.03026" lon="6.28458">
        <ele>915.4</ele>
        <time>2021-03-27T13:27:20Z</time>
      </trkpt>
      <trkpt lat="46.03023" lon="6.28455">
        <ele>915.6</ele>
        <time>2021-03-27T13:27:21Z</time>
      </trkpt>
      <trkpt lat="46.03021" lon="6.28452">
        <ele>915.6</ele>
        <time>2021-03-27T13:27:22Z</time>
      </trkpt>
      <trkpt lat="46.03018" lon="6.28449">
        <ele>915.8</ele>
        <time>2021-03-27T13:27:23Z</time>
      </trkpt>
      <trkpt lat="46.03016" lon="6.28446">
        <ele>916</ele>
        <time>2021-03-27T13:27:24Z</time>
      </trkpt>
      <trkpt lat="46.03013" lon="6.28443">
        <ele>916</ele>
        <time>2021-03-27T13:27:25Z</time>
      </trkpt>
      <trkpt lat="46.03011" lon="6.2844">
        <ele>916.2</ele>
        <time>2021-03-27T13:27:26Z</time>
      </trkpt>
      <trkpt lat="46.03009" lon="6.28436">
        <ele>916.2</ele>
        <time>2021-03-27T13:27:27Z</time>
      </trkpt>
      <trkpt lat="46.03006" lon="6.28433">
        <ele>916.2</ele>
        <time>2021-03-27T13:27:28Z</time>
      </trkpt>
      <trkpt lat="46.03004" lon="6.2843">
        <ele>916.4</ele>
        <time>2021-03-27T13:27:29Z</time>
      </trkpt>
      <trkpt lat="46.03002" lon="6.28427">
        <ele>916.2</ele>
        <time>2021-03-27T13:27:30Z</time>
      </trkpt>
      <trkpt lat="46.02999" lon="6.28424">
        <ele>916.6</ele>
        <time>2021-03-27T13:27:31Z</time>
      </trkpt>
      <trkpt lat="46.02997" lon="6.28421">
        <ele>916.8</ele>
        <time>2021-03-27T13:27:32Z</time>
      </trkpt>
      <trkpt lat="46.02994" lon="6.28418">
        <ele>917</ele>
        <time>2021-03-27T13:27:33Z</time>
      </trkpt>
      <trkpt lat="46.02992" lon="6.28415">
        <ele>917.2</ele>
        <time>2021-03-27T13:27:34Z</time>
      </trkpt>
      <trkpt lat="46.02989" lon="6.28411">
        <ele>917.4</ele>
        <time>2021-03-27T13:27:35Z</time>
      </trkpt>
      <trkpt lat="46.02987" lon="6.28408">
        <ele>917.4</ele>
        <time>2021-03-27T13:27:36Z</time>
      </trkpt>
      <trkpt lat="46.02984" lon="6.28405">
        <ele>917.6</ele>
        <time>2021-03-27T13:27:37Z</time>
      </trkpt>
      <trkpt lat="46.02982" lon="6.28402">
        <ele>917.8</ele>
        <time>2021-03-27T13:27:38Z</time>
      </trkpt>
      <trkpt lat="46.0298" lon="6.28399">
        <ele>918</ele>
        <time>2021-03-27T13:27:39Z</time>
      </trkpt>
      <trkpt lat="46.02978" lon="6.28396">
        <ele>918</ele>
        <time>2021-03-27T13:27:40Z</time>
      </trkpt>
      <trkpt lat="46.02975" lon="6.28393">
        <ele>918</ele>
        <time>2021-03-27T13:27:41Z</time>
      </trkpt>
      <trkpt lat="46.02973" lon="6.2839">
        <ele>918.4</ele>
        <time>2021-03-27T13:27:42Z</time>
      </trkpt>
      <trkpt lat="46.0297" lon="6.28387">
        <ele>918.4</ele>
        <time>2021-03-27T13:27:43Z</time>
      </trkpt>
      <trkpt lat="46.02968" lon="6.28384">
        <ele>918.6</ele>
        <time>2021-03-27T13:27:44Z</time>
      </trkpt>
      <trkpt lat="46.02966" lon="6.2838">
        <ele>918.8</ele>
        <time>2021-03-27T13:27:45Z</time>
      </trkpt>
      <trkpt lat="46.02963" lon="6.28377">
        <ele>919.2</ele>
        <time>2021-03-27T13:27:46Z</time>
      </trkpt>
      <trkpt lat="46.02961" lon="6.28374">
        <ele>919.4</ele>
        <time>2021-03-27T13:27:47Z</time>
      </trkpt>
      <trkpt lat="46.02958" lon="6.28371">
        <ele>919.8</ele>
        <time>2021-03-27T13:27:48Z</time>
      </trkpt>
      <trkpt lat="46.02956" lon="6.28367">
        <ele>920</ele>
        <time>2021-03-27T13:27:49Z</time>
      </trkpt>
      <trkpt lat="46.02953" lon="6.28364">
        <ele>920.2</ele>
        <time>2021-03-27T13:27:50Z</time>
      </trkpt>
      <trkpt lat="46.02951" lon="6.28361">
        <ele>920.6</ele>
        <time>2021-03-27T13:27:51Z</time>
      </trkpt>
      <trkpt lat="46.02948" lon="6.28357">
        <ele>920.8</ele>
        <time>2021-03-27T13:27:52Z</time>
      </trkpt>
      <trkpt lat="46.02946" lon="6.28354">
        <ele>921.2</ele>
        <time>2021-03-27T13:27:53Z</time>
      </trkpt>
      <trkpt lat="46.02944" lon="6.28351">
        <ele>921.4</ele>
        <time>2021-03-27T13:27:54Z</time>
      </trkpt>
      <trkpt lat="46.02941" lon="6.28347">
        <ele>921.4</ele>
        <time>2021-03-27T13:27:55Z</time>
      </trkpt>
      <trkpt lat="46.02939" lon="6.28344">
        <ele>921.6</ele>
        <time>2021-03-27T13:27:56Z</time>
      </trkpt>
      <trkpt lat="46.02936" lon="6.28341">
        <ele>921.6</ele>
        <time>2021-03-27T13:27:57Z</time>
      </trkpt>
      <trkpt lat="46.02934" lon="6.28337">
        <ele>921.6</ele>
        <time>2021-03-27T13:27:58Z</time>
      </trkpt>
      <trkpt lat="46.02932" lon="6.28334">
        <ele>922</ele>
        <time>2021-03-27T13:27:59Z</time>
      </trkpt>
      <trkpt lat="46.0293" lon="6.28331">
        <ele>922.2</ele>
        <time>2021-03-27T13:28:00Z</time>
      </trkpt>
      <trkpt lat="46.02927" lon="6.28328">
        <ele>922.2</ele>
        <time>2021-03-27T13:28:01Z</time>
      </trkpt>
      <trkpt lat="46.02925" lon="6.28324">
        <ele>922.4</ele>
        <time>2021-03-27T13:28:02Z</time>
      </trkpt>
      <trkpt lat="46.02922" lon="6.28321">
        <ele>922.6</ele>
        <time>2021-03-27T13:28:03Z</time>
      </trkpt>
      <trkpt lat="46.0292" lon="6.28318">
        <ele>922.8</ele>
        <time>2021-03-27T13:28:04Z</time>
      </trkpt>
      <trkpt lat="46.02918" lon="6.28315">
        <ele>923.4</ele>
        <time>2021-03-27T13:28:05Z</time>
      </trkpt>
      <trkpt lat="46.02915" lon="6.28312">
        <ele>923.6</ele>
        <time>2021-03-27T13:28:06Z</time>
      </trkpt>
      <trkpt lat="46.02913" lon="6.28308">
        <ele>923.8</ele>
        <time>2021-03-27T13:28:07Z</time>
      </trkpt>
      <trkpt lat="46.02911" lon="6.28305">
        <ele>924</ele>
        <time>2021-03-27T13:28:08Z</time>
      </trkpt>
      <trkpt lat="46.02909" lon="6.28302">
        <ele>924.2</ele>
        <time>2021-03-27T13:28:09Z</time>
      </trkpt>
      <trkpt lat="46.02906" lon="6.28299">
        <ele>924.2</ele>
        <time>2021-03-27T13:28:10Z</time>
      </trkpt>
      <trkpt lat="46.02904" lon="6.28296">
        <ele>924.6</ele>
        <time>2021-03-27T13:28:11Z</time>
      </trkpt>
      <trkpt lat="46.02902" lon="6.28293">
        <ele>924.6</ele>
        <time>2021-03-27T13:28:12Z</time>
      </trkpt>
      <trkpt lat="46.02899" lon="6.2829">
        <ele>924.6</ele>
        <time>2021-03-27T13:28:13Z</time>
      </trkpt>
      <trkpt lat="46.02897" lon="6.28287">
        <ele>925</ele>
        <time>2021-03-27T13:28:14Z</time>
      </trkpt>
      <trkpt lat="46.02895" lon="6.28283">
        <ele>925.2</ele>
        <time>2021-03-27T13:28:15Z</time>
      </trkpt>
      <trkpt lat="46.02892" lon="6.2828">
        <ele>925.4</ele>
        <time>2021-03-27T13:28:16Z</time>
      </trkpt>
      <trkpt lat="46.0289" lon="6.28278">
        <ele>926</ele>
        <time>2021-03-27T13:28:17Z</time>
      </trkpt>
      <trkpt lat="46.02887" lon="6.28275">
        <ele>926.2</ele>
        <time>2021-03-27T13:28:18Z</time>
      </trkpt>
      <trkpt lat="46.02885" lon="6.28273">
        <ele>926.2</ele>
        <time>2021-03-27T13:28:19Z</time>
      </trkpt>
      <trkpt lat="46.02882" lon="6.28271">
        <ele>926.8</ele>
        <time>2021-03-27T13:28:20Z</time>
      </trkpt>
      <trkpt lat="46.02879" lon="6.28269">
        <ele>927</ele>
        <time>2021-03-27T13:28:21Z</time>
      </trkpt>
      <trkpt lat="46.02876" lon="6.28268">
        <ele>927.2</ele>
        <time>2021-03-27T13:28:22Z</time>
      </trkpt>
      <trkpt lat="46.02873" lon="6.28266">
        <ele>927.4</ele>
        <time>2021-03-27T13:28:23Z</time>
      </trkpt>
      <trkpt lat="46.0287" lon="6.28265">
        <ele>927.6</ele>
        <time>2021-03-27T13:28:24Z</time>
      </trkpt>
      <trkpt lat="46.02867" lon="6.28264">
        <ele>927.8</ele>
        <time>2021-03-27T13:28:25Z</time>
      </trkpt>
      <trkpt lat="46.02864" lon="6.28263">
        <ele>928.2</ele>
        <time>2021-03-27T13:28:26Z</time>
      </trkpt>
      <trkpt lat="46.02861" lon="6.28263">
        <ele>928.6</ele>
        <time>2021-03-27T13:28:27Z</time>
      </trkpt>
      <trkpt lat="46.02858" lon="6.28263">
        <ele>928.6</ele>
        <time>2021-03-27T13:28:28Z</time>
      </trkpt>
      <trkpt lat="46.02855" lon="6.28262">
        <ele>928.8</ele>
        <time>2021-03-27T13:28:29Z</time>
      </trkpt>
      <trkpt lat="46.02852" lon="6.28263">
        <ele>929</ele>
        <time>2021-03-27T13:28:30Z</time>
      </trkpt>
      <trkpt lat="46.02848" lon="6.28263">
        <ele>929.4</ele>
        <time>2021-03-27T13:28:31Z</time>
      </trkpt>
      <trkpt lat="46.02845" lon="6.28264">
        <ele>929.4</ele>
        <time>2021-03-27T13:28:32Z</time>
      </trkpt>
      <trkpt lat="46.02842" lon="6.28266">
        <ele>929.4</ele>
        <time>2021-03-27T13:28:33Z</time>
      </trkpt>
      <trkpt lat="46.02839" lon="6.28267">
        <ele>929.8</ele>
        <time>2021-03-27T13:28:34Z</time>
      </trkpt>
      <trkpt lat="46.02835" lon="6.28269">
        <ele>929.6</ele>
        <time>2021-03-27T13:28:35Z</time>
      </trkpt>
      <trkpt lat="46.02832" lon="6.28272">
        <ele>929.8</ele>
        <time>2021-03-27T13:28:36Z</time>
      </trkpt>
      <trkpt lat="46.02829" lon="6.28274">
        <ele>930</ele>
        <time>2021-03-27T13:28:37Z</time>
      </trkpt>
      <trkpt lat="46.02826" lon="6.28277">
        <ele>930.2</ele>
        <time>2021-03-27T13:28:38Z</time>
      </trkpt>
      <trkpt lat="46.02823" lon="6.2828">
        <ele>930.4</ele>
        <time>2021-03-27T13:28:39Z</time>
      </trkpt>
      <trkpt lat="46.02821" lon="6.28284">
        <ele>930.4</ele>
        <time>2021-03-27T13:28:40Z</time>
      </trkpt>
      <trkpt lat="46.02818" lon="6.28287">
        <ele>930.4</ele>
        <time>2021-03-27T13:28:41Z</time>
      </trkpt>
      <trkpt lat="46.02816" lon="6.28291">
        <ele>930.8</ele>
        <time>2021-03-27T13:28:42Z</time>
      </trkpt>
      <trkpt lat="46.02813" lon="6.28295">
        <ele>930.8</ele>
        <time>2021-03-27T13:28:43Z</time>
      </trkpt>
      <trkpt lat="46.02811" lon="6.28299">
        <ele>931.2</ele>
        <time>2021-03-27T13:28:44Z</time>
      </trkpt>
      <trkpt lat="46.02809" lon="6.28304">
        <ele>931.2</ele>
        <time>2021-03-27T13:28:45Z</time>
      </trkpt>
      <trkpt lat="46.02807" lon="6.28308">
        <ele>931.4</ele>
        <time>2021-03-27T13:28:46Z</time>
      </trkpt>
      <trkpt lat="46.02805" lon="6.28313">
        <ele>931.6</ele>
        <time>2021-03-27T13:28:47Z</time>
      </trkpt>
      <trkpt lat="46.02803" lon="6.28319">
        <ele>932</ele>
        <time>2021-03-27T13:28:48Z</time>
      </trkpt>
      <trkpt lat="46.02801" lon="6.28324">
        <ele>932.2</ele>
        <time>2021-03-27T13:28:49Z</time>
      </trkpt>
      <trkpt lat="46.02799" lon="6.28329">
        <ele>932.4</ele>
        <time>2021-03-27T13:28:50Z</time>
      </trkpt>
      <trkpt lat="46.02798" lon="6.28334">
        <ele>932.4</ele>
        <time>2021-03-27T13:28:51Z</time>
      </trkpt>
      <trkpt lat="46.02796" lon="6.2834">
        <ele>932.4</ele>
        <time>2021-03-27T13:28:52Z</time>
      </trkpt>
      <trkpt lat="46.02794" lon="6.28345">
        <ele>932.6</ele>
        <time>2021-03-27T13:28:53Z</time>
      </trkpt>
      <trkpt lat="46.02792" lon="6.2835">
        <ele>933</ele>
        <time>2021-03-27T13:28:54Z</time>
      </trkpt>
      <trkpt lat="46.0279" lon="6.28356">
        <ele>933.2</ele>
        <time>2021-03-27T13:28:55Z</time>
      </trkpt>
      <trkpt lat="46.02789" lon="6.28361">
        <ele>933.4</ele>
        <time>2021-03-27T13:28:56Z</time>
      </trkpt>
      <trkpt lat="46.02787" lon="6.28367">
        <ele>933.6</ele>
        <time>2021-03-27T13:28:57Z</time>
      </trkpt>
      <trkpt lat="46.02785" lon="6.28372">
        <ele>933.8</ele>
        <time>2021-03-27T13:28:58Z</time>
      </trkpt>
      <trkpt lat="46.02783" lon="6.28378">
        <ele>933.8</ele>
        <time>2021-03-27T13:28:59Z</time>
      </trkpt>
      <trkpt lat="46.02781" lon="6.28384">
        <ele>933.8</ele>
        <time>2021-03-27T13:29:00Z</time>
      </trkpt>
      <trkpt lat="46.02779" lon="6.28389">
        <ele>933.8</ele>
        <time>2021-03-27T13:29:01Z</time>
      </trkpt>
      <trkpt lat="46.02777" lon="6.28395">
        <ele>933.8</ele>
        <time>2021-03-27T13:29:02Z</time>
      </trkpt>
      <trkpt lat="46.02775" lon="6.28401">
        <ele>933.8</ele>
        <time>2021-03-27T13:29:03Z</time>
      </trkpt>
      <trkpt lat="46.02773" lon="6.28407">
        <ele>933.8</ele>
        <time>2021-03-27T13:29:04Z</time>
      </trkpt>
      <trkpt lat="46.02771" lon="6.28413">
        <ele>933.8</ele>
        <time>2021-03-27T13:29:05Z</time>
      </trkpt>
      <trkpt lat="46.02769" lon="6.28419">
        <ele>933.8</ele>
        <time>2021-03-27T13:29:06Z</time>
      </trkpt>
      <trkpt lat="46.02767" lon="6.28425">
        <ele>934</ele>
        <time>2021-03-27T13:29:07Z</time>
      </trkpt>
      <trkpt lat="46.02766" lon="6.28431">
        <ele>934</ele>
        <time>2021-03-27T13:29:08Z</time>
      </trkpt>
      <trkpt lat="46.02764" lon="6.28437">
        <ele>934.2</ele>
        <time>2021-03-27T13:29:09Z</time>
      </trkpt>
      <trkpt lat="46.02761" lon="6.28443">
        <ele>934.2</ele>
        <time>2021-03-27T13:29:10Z</time>
      </trkpt>
      <trkpt lat="46.0276" lon="6.28449">
        <ele>934.2</ele>
        <time>2021-03-27T13:29:11Z</time>
      </trkpt>
      <trkpt lat="46.02758" lon="6.28455">
        <ele>934.4</ele>
        <time>2021-03-27T13:29:12Z</time>
      </trkpt>
      <trkpt lat="46.02756" lon="6.28461">
        <ele>934.2</ele>
        <time>2021-03-27T13:29:13Z</time>
      </trkpt>
      <trkpt lat="46.02754" lon="6.28467">
        <ele>934.2</ele>
        <time>2021-03-27T13:29:14Z</time>
      </trkpt>
      <trkpt lat="46.02752" lon="6.28473">
        <ele>934.4</ele>
        <time>2021-03-27T13:29:15Z</time>
      </trkpt>
      <trkpt lat="46.02749" lon="6.28479">
        <ele>934.2</ele>
        <time>2021-03-27T13:29:16Z</time>
      </trkpt>
      <trkpt lat="46.02747" lon="6.28485">
        <ele>934.2</ele>
        <time>2021-03-27T13:29:17Z</time>
      </trkpt>
      <trkpt lat="46.02745" lon="6.28491">
        <ele>934.4</ele>
        <time>2021-03-27T13:29:18Z</time>
      </trkpt>
      <trkpt lat="46.02743" lon="6.28497">
        <ele>934.8</ele>
        <time>2021-03-27T13:29:19Z</time>
      </trkpt>
      <trkpt lat="46.02741" lon="6.28503">
        <ele>934.8</ele>
        <time>2021-03-27T13:29:20Z</time>
      </trkpt>
      <trkpt lat="46.02739" lon="6.28509">
        <ele>934.8</ele>
        <time>2021-03-27T13:29:21Z</time>
      </trkpt>
      <trkpt lat="46.02737" lon="6.28515">
        <ele>935.2</ele>
        <time>2021-03-27T13:29:22Z</time>
      </trkpt>
      <trkpt lat="46.02735" lon="6.28521">
        <ele>935</ele>
        <time>2021-03-27T13:29:23Z</time>
      </trkpt>
      <trkpt lat="46.02733" lon="6.28528">
        <ele>935.2</ele>
        <time>2021-03-27T13:29:24Z</time>
      </trkpt>
      <trkpt lat="46.02731" lon="6.28534">
        <ele>935.2</ele>
        <time>2021-03-27T13:29:25Z</time>
      </trkpt>
      <trkpt lat="46.02729" lon="6.2854">
        <ele>935.4</ele>
        <time>2021-03-27T13:29:26Z</time>
      </trkpt>
      <trkpt lat="46.02727" lon="6.28546">
        <ele>935.4</ele>
        <time>2021-03-27T13:29:27Z</time>
      </trkpt>
      <trkpt lat="46.02725" lon="6.28553">
        <ele>935.4</ele>
        <time>2021-03-27T13:29:28Z</time>
      </trkpt>
      <trkpt lat="46.02723" lon="6.28559">
        <ele>935.6</ele>
        <time>2021-03-27T13:29:29Z</time>
      </trkpt>
      <trkpt lat="46.02721" lon="6.28565">
        <ele>935.8</ele>
        <time>2021-03-27T13:29:30Z</time>
      </trkpt>
      <trkpt lat="46.02719" lon="6.28571">
        <ele>936</ele>
        <time>2021-03-27T13:29:31Z</time>
      </trkpt>
      <trkpt lat="46.02717" lon="6.28577">
        <ele>935.8</ele>
        <time>2021-03-27T13:29:32Z</time>
      </trkpt>
      <trkpt lat="46.02715" lon="6.28583">
        <ele>936</ele>
        <time>2021-03-27T13:29:33Z</time>
      </trkpt>
      <trkpt lat="46.02713" lon="6.28589">
        <ele>936</ele>
        <time>2021-03-27T13:29:34Z</time>
      </trkpt>
      <trkpt lat="46.0271" lon="6.28595">
        <ele>936</ele>
        <time>2021-03-27T13:29:35Z</time>
      </trkpt>
      <trkpt lat="46.02708" lon="6.28602">
        <ele>936.2</ele>
        <time>2021-03-27T13:29:36Z</time>
      </trkpt>
      <trkpt lat="46.02706" lon="6.28608">
        <ele>936.2</ele>
        <time>2021-03-27T13:29:37Z</time>
      </trkpt>
      <trkpt lat="46.02704" lon="6.28614">
        <ele>936.2</ele>
        <time>2021-03-27T13:29:38Z</time>
      </trkpt>
      <trkpt lat="46.02702" lon="6.2862">
        <ele>936.4</ele>
        <time>2021-03-27T13:29:39Z</time>
      </trkpt>
      <trkpt lat="46.027" lon="6.28627">
        <ele>936.4</ele>
        <time>2021-03-27T13:29:40Z</time>
      </trkpt>
      <trkpt lat="46.02698" lon="6.28633">
        <ele>936.8</ele>
        <time>2021-03-27T13:29:41Z</time>
      </trkpt>
      <trkpt lat="46.02695" lon="6.28639">
        <ele>936.8</ele>
        <time>2021-03-27T13:29:42Z</time>
      </trkpt>
      <trkpt lat="46.02693" lon="6.28645">
        <ele>936.8</ele>
        <time>2021-03-27T13:29:43Z</time>
      </trkpt>
      <trkpt lat="46.0269" lon="6.28651">
        <ele>937</ele>
        <time>2021-03-27T13:29:44Z</time>
      </trkpt>
      <trkpt lat="46.02688" lon="6.28656">
        <ele>937</ele>
        <time>2021-03-27T13:29:45Z</time>
      </trkpt>
      <trkpt lat="46.02685" lon="6.28662">
        <ele>937.2</ele>
        <time>2021-03-27T13:29:46Z</time>
      </trkpt>
      <trkpt lat="46.02683" lon="6.28668">
        <ele>937.2</ele>
        <time>2021-03-27T13:29:47Z</time>
      </trkpt>
      <trkpt lat="46.0268" lon="6.28673">
        <ele>937.2</ele>
        <time>2021-03-27T13:29:48Z</time>
      </trkpt>
      <trkpt lat="46.02676" lon="6.28678">
        <ele>937.2</ele>
        <time>2021-03-27T13:29:49Z</time>
      </trkpt>
      <trkpt lat="46.02673" lon="6.28683">
        <ele>937.4</ele>
        <time>2021-03-27T13:29:50Z</time>
      </trkpt>
      <trkpt lat="46.0267" lon="6.28688">
        <ele>937.6</ele>
        <time>2021-03-27T13:29:51Z</time>
      </trkpt>
      <trkpt lat="46.02666" lon="6.28693">
        <ele>937.8</ele>
        <time>2021-03-27T13:29:52Z</time>
      </trkpt>
      <trkpt lat="46.02662" lon="6.28698">
        <ele>937.8</ele>
        <time>2021-03-27T13:29:53Z</time>
      </trkpt>
      <trkpt lat="46.02659" lon="6.28702">
        <ele>937.6</ele>
        <time>2021-03-27T13:29:54Z</time>
      </trkpt>
      <trkpt lat="46.02655" lon="6.28707">
        <ele>937.8</ele>
        <time>2021-03-27T13:29:55Z</time>
      </trkpt>
      <trkpt lat="46.02651" lon="6.28711">
        <ele>937.8</ele>
        <time>2021-03-27T13:29:56Z</time>
      </trkpt>
      <trkpt lat="46.02647" lon="6.28715">
        <ele>938</ele>
        <time>2021-03-27T13:29:57Z</time>
      </trkpt>
      <trkpt lat="46.02643" lon="6.28719">
        <ele>938</ele>
        <time>2021-03-27T13:29:58Z</time>
      </trkpt>
      <trkpt lat="46.02639" lon="6.28722">
        <ele>938</ele>
        <time>2021-03-27T13:29:59Z</time>
      </trkpt>
      <trkpt lat="46.02635" lon="6.28725">
        <ele>938</ele>
        <time>2021-03-27T13:30:00Z</time>
      </trkpt>
      <trkpt lat="46.0263" lon="6.28728">
        <ele>938.2</ele>
        <time>2021-03-27T13:30:01Z</time>
      </trkpt>
      <trkpt lat="46.02626" lon="6.28731">
        <ele>938.2</ele>
        <time>2021-03-27T13:30:02Z</time>
      </trkpt>
      <trkpt lat="46.02621" lon="6.28733">
        <ele>938.4</ele>
        <time>2021-03-27T13:30:03Z</time>
      </trkpt>
      <trkpt lat="46.02617" lon="6.28735">
        <ele>938.6</ele>
        <time>2021-03-27T13:30:04Z</time>
      </trkpt>
      <trkpt lat="46.02612" lon="6.28737">
        <ele>938.6</ele>
        <time>2021-03-27T13:30:05Z</time>
      </trkpt>
      <trkpt lat="46.02607" lon="6.28738">
        <ele>938.6</ele>
        <time>2021-03-27T13:30:06Z</time>
      </trkpt>
      <trkpt lat="46.02602" lon="6.28739">
        <ele>938.6</ele>
        <time>2021-03-27T13:30:07Z</time>
      </trkpt>
      <trkpt lat="46.02598" lon="6.2874">
        <ele>938.8</ele>
        <time>2021-03-27T13:30:08Z</time>
      </trkpt>
      <trkpt lat="46.02593" lon="6.28741">
        <ele>938.6</ele>
        <time>2021-03-27T13:30:09Z</time>
      </trkpt>
      <trkpt lat="46.02588" lon="6.28742">
        <ele>938.8</ele>
        <time>2021-03-27T13:30:10Z</time>
      </trkpt>
      <trkpt lat="46.02584" lon="6.28743">
        <ele>938.8</ele>
        <time>2021-03-27T13:30:11Z</time>
      </trkpt>
      <trkpt lat="46.02579" lon="6.28744">
        <ele>938.8</ele>
        <time>2021-03-27T13:30:12Z</time>
      </trkpt>
      <trkpt lat="46.02574" lon="6.28745">
        <ele>939</ele>
        <time>2021-03-27T13:30:13Z</time>
      </trkpt>
      <trkpt lat="46.02569" lon="6.28746">
        <ele>938.8</ele>
        <time>2021-03-27T13:30:14Z</time>
      </trkpt>
      <trkpt lat="46.02565" lon="6.28747">
        <ele>939</ele>
        <time>2021-03-27T13:30:15Z</time>
      </trkpt>
      <trkpt lat="46.0256" lon="6.28748">
        <ele>939</ele>
        <time>2021-03-27T13:30:16Z</time>
      </trkpt>
      <trkpt lat="46.02555" lon="6.28749">
        <ele>939.2</ele>
        <time>2021-03-27T13:30:17Z</time>
      </trkpt>
      <trkpt lat="46.02551" lon="6.2875">
        <ele>939.2</ele>
        <time>2021-03-27T13:30:18Z</time>
      </trkpt>
      <trkpt lat="46.02546" lon="6.28751">
        <ele>939.2</ele>
        <time>2021-03-27T13:30:19Z</time>
      </trkpt>
      <trkpt lat="46.02541" lon="6.28751">
        <ele>939.4</ele>
        <time>2021-03-27T13:30:20Z</time>
      </trkpt>
      <trkpt lat="46.02536" lon="6.28752">
        <ele>939.4</ele>
        <time>2021-03-27T13:30:21Z</time>
      </trkpt>
      <trkpt lat="46.02531" lon="6.28753">
        <ele>939.4</ele>
        <time>2021-03-27T13:30:22Z</time>
      </trkpt>
      <trkpt lat="46.02526" lon="6.28754">
        <ele>939.4</ele>
        <time>2021-03-27T13:30:23Z</time>
      </trkpt>
      <trkpt lat="46.02521" lon="6.28755">
        <ele>939.6</ele>
        <time>2021-03-27T13:30:24Z</time>
      </trkpt>
      <trkpt lat="46.02516" lon="6.28756">
        <ele>939.6</ele>
        <time>2021-03-27T13:30:25Z</time>
      </trkpt>
      <trkpt lat="46.02511" lon="6.28757">
        <ele>939.8</ele>
        <time>2021-03-27T13:30:26Z</time>
      </trkpt>
      <trkpt lat="46.02506" lon="6.28758">
        <ele>939.8</ele>
        <time>2021-03-27T13:30:27Z</time>
      </trkpt>
      <trkpt lat="46.02501" lon="6.28759">
        <ele>940</ele>
        <time>2021-03-27T13:30:28Z</time>
      </trkpt>
      <trkpt lat="46.02496" lon="6.28757">
        <ele>940.2</ele>
        <time>2021-03-27T13:30:29Z</time>
      </trkpt>
      <trkpt lat="46.02491" lon="6.28754">
        <ele>940.6</ele>
        <time>2021-03-27T13:30:30Z</time>
      </trkpt>
      <trkpt lat="46.02477" lon="6.28745">
        <ele>941</ele>
        <time>2021-03-27T13:30:33Z</time>
      </trkpt>
      <trkpt lat="46.02473" lon="6.28741">
        <ele>941.2</ele>
        <time>2021-03-27T13:30:34Z</time>
      </trkpt>
      <trkpt lat="46.02468" lon="6.28737">
        <ele>941.2</ele>
        <time>2021-03-27T13:30:35Z</time>
      </trkpt>
      <trkpt lat="46.02464" lon="6.28733">
        <ele>941.2</ele>
        <time>2021-03-27T13:30:36Z</time>
      </trkpt>
      <trkpt lat="46.02459" lon="6.28729">
        <ele>941.2</ele>
        <time>2021-03-27T13:30:37Z</time>
      </trkpt>
      <trkpt lat="46.02455" lon="6.28725">
        <ele>941.2</ele>
        <time>2021-03-27T13:30:38Z</time>
      </trkpt>
      <trkpt lat="46.02452" lon="6.28721">
        <ele>941.4</ele>
        <time>2021-03-27T13:30:39Z</time>
      </trkpt>
      <trkpt lat="46.02448" lon="6.28716">
        <ele>941.2</ele>
        <time>2021-03-27T13:30:40Z</time>
      </trkpt>
      <trkpt lat="46.02444" lon="6.28711">
        <ele>941.2</ele>
        <time>2021-03-27T13:30:41Z</time>
      </trkpt>
      <trkpt lat="46.0244" lon="6.28706">
        <ele>941.2</ele>
        <time>2021-03-27T13:30:42Z</time>
      </trkpt>
      <trkpt lat="46.02436" lon="6.287">
        <ele>941</ele>
        <time>2021-03-27T13:30:43Z</time>
      </trkpt>
      <trkpt lat="46.02432" lon="6.28693">
        <ele>941</ele>
        <time>2021-03-27T13:30:44Z</time>
      </trkpt>
      <trkpt lat="46.02429" lon="6.28685">
        <ele>940.6</ele>
        <time>2021-03-27T13:30:45Z</time>
      </trkpt>
      <trkpt lat="46.02425" lon="6.28677">
        <ele>940.4</ele>
        <time>2021-03-27T13:30:46Z</time>
      </trkpt>
      <trkpt lat="46.02422" lon="6.28668">
        <ele>940.2</ele>
        <time>2021-03-27T13:30:47Z</time>
      </trkpt>
      <trkpt lat="46.02419" lon="6.28658">
        <ele>939.8</ele>
        <time>2021-03-27T13:30:48Z</time>
      </trkpt>
      <trkpt lat="46.02416" lon="6.28648">
        <ele>939.4</ele>
        <time>2021-03-27T13:30:49Z</time>
      </trkpt>
      <trkpt lat="46.02414" lon="6.28638">
        <ele>939</ele>
        <time>2021-03-27T13:30:50Z</time>
      </trkpt>
      <trkpt lat="46.02411" lon="6.28626">
        <ele>938.8</ele>
        <time>2021-03-27T13:30:51Z</time>
      </trkpt>
      <trkpt lat="46.02408" lon="6.28615">
        <ele>938.8</ele>
        <time>2021-03-27T13:30:52Z</time>
      </trkpt>
      <trkpt lat="46.02404" lon="6.28603">
        <ele>938.8</ele>
        <time>2021-03-27T13:30:53Z</time>
      </trkpt>
      <trkpt lat="46.02401" lon="6.2859">
        <ele>938.6</ele>
        <time>2021-03-27T13:30:54Z</time>
      </trkpt>
      <trkpt lat="46.02397" lon="6.28578">
        <ele>938</ele>
        <time>2021-03-27T13:30:55Z</time>
      </trkpt>
      <trkpt lat="46.02392" lon="6.28565">
        <ele>937.6</ele>
        <time>2021-03-27T13:30:56Z</time>
      </trkpt>
      <trkpt lat="46.02387" lon="6.28554">
        <ele>936.6</ele>
        <time>2021-03-27T13:30:57Z</time>
      </trkpt>
      <trkpt lat="46.02381" lon="6.28542">
        <ele>936.2</ele>
        <time>2021-03-27T13:30:58Z</time>
      </trkpt>
      <trkpt lat="46.02375" lon="6.28531">
        <ele>935.8</ele>
        <time>2021-03-27T13:30:59Z</time>
      </trkpt>
      <trkpt lat="46.02367" lon="6.28522">
        <ele>935.4</ele>
        <time>2021-03-27T13:31:00Z</time>
      </trkpt>
      <trkpt lat="46.02358" lon="6.28514">
        <ele>935.4</ele>
        <time>2021-03-27T13:31:01Z</time>
      </trkpt>
      <trkpt lat="46.02349" lon="6.28508">
        <ele>934.8</ele>
        <time>2021-03-27T13:31:02Z</time>
      </trkpt>
      <trkpt lat="46.02339" lon="6.28503">
        <ele>934.4</ele>
        <time>2021-03-27T13:31:03Z</time>
      </trkpt>
      <trkpt lat="46.02329" lon="6.28498">
        <ele>933.6</ele>
        <time>2021-03-27T13:31:04Z</time>
      </trkpt>
      <trkpt lat="46.02319" lon="6.28495">
        <ele>932.8</ele>
        <time>2021-03-27T13:31:05Z</time>
      </trkpt>
      <trkpt lat="46.02309" lon="6.28492">
        <ele>932.2</ele>
        <time>2021-03-27T13:31:06Z</time>
      </trkpt>
      <trkpt lat="46.02299" lon="6.28488">
        <ele>931.6</ele>
        <time>2021-03-27T13:31:07Z</time>
      </trkpt>
      <trkpt lat="46.02289" lon="6.28485">
        <ele>931</ele>
        <time>2021-03-27T13:31:08Z</time>
      </trkpt>
      <trkpt lat="46.02281" lon="6.2848">
        <ele>930.6</ele>
        <time>2021-03-27T13:31:09Z</time>
      </trkpt>
      <trkpt lat="46.02274" lon="6.28471">
        <ele>930.4</ele>
        <time>2021-03-27T13:31:10Z</time>
      </trkpt>
      <trkpt lat="46.02267" lon="6.28462">
        <ele>929.6</ele>
        <time>2021-03-27T13:31:11Z</time>
      </trkpt>
      <trkpt lat="46.02262" lon="6.2845">
        <ele>929</ele>
        <time>2021-03-27T13:31:12Z</time>
      </trkpt>
      <trkpt lat="46.02258" lon="6.28438">
        <ele>928.4</ele>
        <time>2021-03-27T13:31:13Z</time>
      </trkpt>
      <trkpt lat="46.02254" lon="6.28426">
        <ele>927.8</ele>
        <time>2021-03-27T13:31:14Z</time>
      </trkpt>
      <trkpt lat="46.0225" lon="6.28413">
        <ele>927.2</ele>
        <time>2021-03-27T13:31:15Z</time>
      </trkpt>
      <trkpt lat="46.02246" lon="6.28399">
        <ele>926.6</ele>
        <time>2021-03-27T13:31:16Z</time>
      </trkpt>
      <trkpt lat="46.02241" lon="6.28386">
        <ele>926.2</ele>
        <time>2021-03-27T13:31:17Z</time>
      </trkpt>
      <trkpt lat="46.02236" lon="6.28372">
        <ele>925.2</ele>
        <time>2021-03-27T13:31:18Z</time>
      </trkpt>
      <trkpt lat="46.02231" lon="6.28358">
        <ele>924.6</ele>
        <time>2021-03-27T13:31:19Z</time>
      </trkpt>
      <trkpt lat="46.02226" lon="6.28344">
        <ele>924.2</ele>
        <time>2021-03-27T13:31:20Z</time>
      </trkpt>
      <trkpt lat="46.02221" lon="6.2833">
        <ele>924</ele>
        <time>2021-03-27T13:31:21Z</time>
      </trkpt>
      <trkpt lat="46.02215" lon="6.28315">
        <ele>923.6</ele>
        <time>2021-03-27T13:31:22Z</time>
      </trkpt>
      <trkpt lat="46.0221" lon="6.28301">
        <ele>923.4</ele>
        <time>2021-03-27T13:31:23Z</time>
      </trkpt>
      <trkpt lat="46.02203" lon="6.28287">
        <ele>923.2</ele>
        <time>2021-03-27T13:31:24Z</time>
      </trkpt>
      <trkpt lat="46.02196" lon="6.28273">
        <ele>922.4</ele>
        <time>2021-03-27T13:31:25Z</time>
      </trkpt>
      <trkpt lat="46.02189" lon="6.2826">
        <ele>922</ele>
        <time>2021-03-27T13:31:26Z</time>
      </trkpt>
      <trkpt lat="46.02181" lon="6.28247">
        <ele>921.4</ele>
        <time>2021-03-27T13:31:27Z</time>
      </trkpt>
      <trkpt lat="46.02173" lon="6.28236">
        <ele>920.8</ele>
        <time>2021-03-27T13:31:28Z</time>
      </trkpt>
      <trkpt lat="46.02164" lon="6.28225">
        <ele>920</ele>
        <time>2021-03-27T13:31:29Z</time>
      </trkpt>
      <trkpt lat="46.02155" lon="6.28215">
        <ele>919</ele>
        <time>2021-03-27T13:31:30Z</time>
      </trkpt>
      <trkpt lat="46.02147" lon="6.28204">
        <ele>918.4</ele>
        <time>2021-03-27T13:31:31Z</time>
      </trkpt>
      <trkpt lat="46.02138" lon="6.28194">
        <ele>917.8</ele>
        <time>2021-03-27T13:31:32Z</time>
      </trkpt>
      <trkpt lat="46.02129" lon="6.28185">
        <ele>917.4</ele>
        <time>2021-03-27T13:31:33Z</time>
      </trkpt>
      <trkpt lat="46.0212" lon="6.28176">
        <ele>916.8</ele>
        <time>2021-03-27T13:31:34Z</time>
      </trkpt>
      <trkpt lat="46.02109" lon="6.28168">
        <ele>916.4</ele>
        <time>2021-03-27T13:31:35Z</time>
      </trkpt>
      <trkpt lat="46.02099" lon="6.28162">
        <ele>915.6</ele>
        <time>2021-03-27T13:31:36Z</time>
      </trkpt>
      <trkpt lat="46.02088" lon="6.28157">
        <ele>914.8</ele>
        <time>2021-03-27T13:31:37Z</time>
      </trkpt>
      <trkpt lat="46.02077" lon="6.28153">
        <ele>914.4</ele>
        <time>2021-03-27T13:31:38Z</time>
      </trkpt>
      <trkpt lat="46.02066" lon="6.28149">
        <ele>914</ele>
        <time>2021-03-27T13:31:39Z</time>
      </trkpt>
      <trkpt lat="46.02055" lon="6.28145">
        <ele>913.2</ele>
        <time>2021-03-27T13:31:40Z</time>
      </trkpt>
      <trkpt lat="46.02043" lon="6.28141">
        <ele>912.8</ele>
        <time>2021-03-27T13:31:41Z</time>
      </trkpt>
      <trkpt lat="46.02032" lon="6.28137">
        <ele>912.2</ele>
        <time>2021-03-27T13:31:42Z</time>
      </trkpt>
      <trkpt lat="46.02022" lon="6.28133">
        <ele>910.8</ele>
        <time>2021-03-27T13:31:43Z</time>
      </trkpt>
      <trkpt lat="46.02011" lon="6.28128">
        <ele>909.8</ele>
        <time>2021-03-27T13:31:44Z</time>
      </trkpt>
      <trkpt lat="46.02001" lon="6.28121">
        <ele>909.2</ele>
        <time>2021-03-27T13:31:45Z</time>
      </trkpt>
      <trkpt lat="46.01991" lon="6.28113">
        <ele>908</ele>
        <time>2021-03-27T13:31:46Z</time>
      </trkpt>
      <trkpt lat="46.01983" lon="6.28102">
        <ele>907.4</ele>
        <time>2021-03-27T13:31:47Z</time>
      </trkpt>
      <trkpt lat="46.01976" lon="6.2809">
        <ele>907</ele>
        <time>2021-03-27T13:31:48Z</time>
      </trkpt>
      <trkpt lat="46.01969" lon="6.28078">
        <ele>906.4</ele>
        <time>2021-03-27T13:31:49Z</time>
      </trkpt>
      <trkpt lat="46.01963" lon="6.28066">
        <ele>906.4</ele>
        <time>2021-03-27T13:31:50Z</time>
      </trkpt>
      <trkpt lat="46.01958" lon="6.28053">
        <ele>905.6</ele>
        <time>2021-03-27T13:31:51Z</time>
      </trkpt>
      <trkpt lat="46.01952" lon="6.28041">
        <ele>904.4</ele>
        <time>2021-03-27T13:31:52Z</time>
      </trkpt>
      <trkpt lat="46.01946" lon="6.28028">
        <ele>903.6</ele>
        <time>2021-03-27T13:31:53Z</time>
      </trkpt>
      <trkpt lat="46.01941" lon="6.28015">
        <ele>903</ele>
        <time>2021-03-27T13:31:54Z</time>
      </trkpt>
      <trkpt lat="46.01935" lon="6.28003">
        <ele>902.8</ele>
        <time>2021-03-27T13:31:55Z</time>
      </trkpt>
      <trkpt lat="46.0193" lon="6.27992">
        <ele>902.4</ele>
        <time>2021-03-27T13:31:56Z</time>
      </trkpt>
      <trkpt lat="46.01924" lon="6.27982">
        <ele>902.4</ele>
        <time>2021-03-27T13:31:57Z</time>
      </trkpt>
      <trkpt lat="46.01916" lon="6.27974">
        <ele>902</ele>
        <time>2021-03-27T13:31:58Z</time>
      </trkpt>
      <trkpt lat="46.01907" lon="6.27972">
        <ele>901.8</ele>
        <time>2021-03-27T13:31:59Z</time>
      </trkpt>
      <trkpt lat="46.01898" lon="6.27976">
        <ele>901.4</ele>
        <time>2021-03-27T13:32:00Z</time>
      </trkpt>
      <trkpt lat="46.01893" lon="6.27986">
        <ele>901.2</ele>
        <time>2021-03-27T13:32:01Z</time>
      </trkpt>
      <trkpt lat="46.0189" lon="6.27997">
        <ele>900.8</ele>
        <time>2021-03-27T13:32:02Z</time>
      </trkpt>
      <trkpt lat="46.01889" lon="6.2801">
        <ele>900.4</ele>
        <time>2021-03-27T13:32:03Z</time>
      </trkpt>
      <trkpt lat="46.01891" lon="6.28023">
        <ele>900.2</ele>
        <time>2021-03-27T13:32:04Z</time>
      </trkpt>
      <trkpt lat="46.01895" lon="6.28037">
        <ele>899.4</ele>
        <time>2021-03-27T13:32:05Z</time>
      </trkpt>
      <trkpt lat="46.01899" lon="6.28051">
        <ele>898.4</ele>
        <time>2021-03-27T13:32:06Z</time>
      </trkpt>
      <trkpt lat="46.01903" lon="6.28065">
        <ele>897.8</ele>
        <time>2021-03-27T13:32:07Z</time>
      </trkpt>
      <trkpt lat="46.01907" lon="6.28079">
        <ele>897.2</ele>
        <time>2021-03-27T13:32:08Z</time>
      </trkpt>
      <trkpt lat="46.0191" lon="6.28094">
        <ele>896.6</ele>
        <time>2021-03-27T13:32:09Z</time>
      </trkpt>
      <trkpt lat="46.01914" lon="6.28108">
        <ele>896.2</ele>
        <time>2021-03-27T13:32:10Z</time>
      </trkpt>
      <trkpt lat="46.01919" lon="6.28122">
        <ele>896</ele>
        <time>2021-03-27T13:32:11Z</time>
      </trkpt>
      <trkpt lat="46.01923" lon="6.28136">
        <ele>895.8</ele>
        <time>2021-03-27T13:32:12Z</time>
      </trkpt>
      <trkpt lat="46.01927" lon="6.2815">
        <ele>895.8</ele>
        <time>2021-03-27T13:32:13Z</time>
      </trkpt>
      <trkpt lat="46.01931" lon="6.28164">
        <ele>895.6</ele>
        <time>2021-03-27T13:32:14Z</time>
      </trkpt>
      <trkpt lat="46.01935" lon="6.28177">
        <ele>895.4</ele>
        <time>2021-03-27T13:32:15Z</time>
      </trkpt>
      <trkpt lat="46.01941" lon="6.28191">
        <ele>895.2</ele>
        <time>2021-03-27T13:32:16Z</time>
      </trkpt>
      <trkpt lat="46.01945" lon="6.28204">
        <ele>895</ele>
        <time>2021-03-27T13:32:17Z</time>
      </trkpt>
      <trkpt lat="46.01951" lon="6.28217">
        <ele>894.2</ele>
        <time>2021-03-27T13:32:18Z</time>
      </trkpt>
      <trkpt lat="46.01956" lon="6.28229">
        <ele>893.8</ele>
        <time>2021-03-27T13:32:19Z</time>
      </trkpt>
      <trkpt lat="46.01964" lon="6.28241">
        <ele>893.2</ele>
        <time>2021-03-27T13:32:20Z</time>
      </trkpt>
      <trkpt lat="46.01972" lon="6.28252">
        <ele>892.8</ele>
        <time>2021-03-27T13:32:21Z</time>
      </trkpt>
      <trkpt lat="46.0198" lon="6.28263">
        <ele>892.2</ele>
        <time>2021-03-27T13:32:22Z</time>
      </trkpt>
      <trkpt lat="46.0199" lon="6.28272">
        <ele>891.8</ele>
        <time>2021-03-27T13:32:23Z</time>
      </trkpt>
      <trkpt lat="46.01999" lon="6.28281">
        <ele>891.4</ele>
        <time>2021-03-27T13:32:24Z</time>
      </trkpt>
      <trkpt lat="46.02009" lon="6.28288">
        <ele>891</ele>
        <time>2021-03-27T13:32:25Z</time>
      </trkpt>
      <trkpt lat="46.02019" lon="6.28294">
        <ele>890.8</ele>
        <time>2021-03-27T13:32:26Z</time>
      </trkpt>
      <trkpt lat="46.02029" lon="6.283">
        <ele>890</ele>
        <time>2021-03-27T13:32:27Z</time>
      </trkpt>
      <trkpt lat="46.02039" lon="6.28306">
        <ele>889.4</ele>
        <time>2021-03-27T13:32:28Z</time>
      </trkpt>
      <trkpt lat="46.02048" lon="6.28313">
        <ele>889.2</ele>
        <time>2021-03-27T13:32:29Z</time>
      </trkpt>
      <trkpt lat="46.02056" lon="6.28322">
        <ele>889</ele>
        <time>2021-03-27T13:32:30Z</time>
      </trkpt>
      <trkpt lat="46.02062" lon="6.28333">
        <ele>888.6</ele>
        <time>2021-03-27T13:32:31Z</time>
      </trkpt>
      <trkpt lat="46.02065" lon="6.28345">
        <ele>888.2</ele>
        <time>2021-03-27T13:32:32Z</time>
      </trkpt>
      <trkpt lat="46.02065" lon="6.28357">
        <ele>887.6</ele>
        <time>2021-03-27T13:32:33Z</time>
      </trkpt>
      <trkpt lat="46.02063" lon="6.28367">
        <ele>887</ele>
        <time>2021-03-27T13:32:34Z</time>
      </trkpt>
      <trkpt lat="46.02057" lon="6.28371">
        <ele>886.6</ele>
        <time>2021-03-27T13:32:35Z</time>
      </trkpt>
      <trkpt lat="46.02051" lon="6.2837">
        <ele>886.4</ele>
        <time>2021-03-27T13:32:36Z</time>
      </trkpt>
      <trkpt lat="46.02042" lon="6.28365">
        <ele>886.2</ele>
        <time>2021-03-27T13:32:37Z</time>
      </trkpt>
      <trkpt lat="46.0203" lon="6.28359">
        <ele>886</ele>
        <time>2021-03-27T13:32:38Z</time>
      </trkpt>
      <trkpt lat="46.0202" lon="6.28353">
        <ele>885.4</ele>
        <time>2021-03-27T13:32:39Z</time>
      </trkpt>
      <trkpt lat="46.0201" lon="6.28348">
        <ele>885</ele>
        <time>2021-03-27T13:32:40Z</time>
      </trkpt>
      <trkpt lat="46.02" lon="6.28343">
        <ele>884.8</ele>
        <time>2021-03-27T13:32:41Z</time>
      </trkpt>
      <trkpt lat="46.0199" lon="6.28338">
        <ele>884</ele>
        <time>2021-03-27T13:32:42Z</time>
      </trkpt>
      <trkpt lat="46.01981" lon="6.28333">
        <ele>883.6</ele>
        <time>2021-03-27T13:32:43Z</time>
      </trkpt>
      <trkpt lat="46.01971" lon="6.28328">
        <ele>882.8</ele>
        <time>2021-03-27T13:32:44Z</time>
      </trkpt>
      <trkpt lat="46.01961" lon="6.28323">
        <ele>881.6</ele>
        <time>2021-03-27T13:32:45Z</time>
      </trkpt>
      <trkpt lat="46.01951" lon="6.28317">
        <ele>880.6</ele>
        <time>2021-03-27T13:32:46Z</time>
      </trkpt>
      <trkpt lat="46.01941" lon="6.28312">
        <ele>880</ele>
        <time>2021-03-27T13:32:47Z</time>
      </trkpt>
      <trkpt lat="46.01931" lon="6.28307">
        <ele>879.2</ele>
        <time>2021-03-27T13:32:48Z</time>
      </trkpt>
      <trkpt lat="46.01921" lon="6.28301">
        <ele>878.6</ele>
        <time>2021-03-27T13:32:49Z</time>
      </trkpt>
      <trkpt lat="46.01911" lon="6.28296">
        <ele>878.2</ele>
        <time>2021-03-27T13:32:50Z</time>
      </trkpt>
      <trkpt lat="46.01901" lon="6.2829">
        <ele>878</ele>
        <time>2021-03-27T13:32:51Z</time>
      </trkpt>
      <trkpt lat="46.01891" lon="6.28285">
        <ele>877.8</ele>
        <time>2021-03-27T13:32:52Z</time>
      </trkpt>
      <trkpt lat="46.01881" lon="6.28279">
        <ele>877.6</ele>
        <time>2021-03-27T13:32:53Z</time>
      </trkpt>
      <trkpt lat="46.01871" lon="6.28274">
        <ele>877.6</ele>
        <time>2021-03-27T13:32:54Z</time>
      </trkpt>
      <trkpt lat="46.01862" lon="6.28269">
        <ele>877.2</ele>
        <time>2021-03-27T13:32:55Z</time>
      </trkpt>
      <trkpt lat="46.01852" lon="6.28264">
        <ele>877</ele>
        <time>2021-03-27T13:32:56Z</time>
      </trkpt>
      <trkpt lat="46.01842" lon="6.28258">
        <ele>876.6</ele>
        <time>2021-03-27T13:32:57Z</time>
      </trkpt>
      <trkpt lat="46.01832" lon="6.28253">
        <ele>875.6</ele>
        <time>2021-03-27T13:32:58Z</time>
      </trkpt>
      <trkpt lat="46.01822" lon="6.28247">
        <ele>874.6</ele>
        <time>2021-03-27T13:32:59Z</time>
      </trkpt>
      <trkpt lat="46.01812" lon="6.28242">
        <ele>873.8</ele>
        <time>2021-03-27T13:33:00Z</time>
      </trkpt>
      <trkpt lat="46.01802" lon="6.28237">
        <ele>873.2</ele>
        <time>2021-03-27T13:33:01Z</time>
      </trkpt>
      <trkpt lat="46.01792" lon="6.28232">
        <ele>872.8</ele>
        <time>2021-03-27T13:33:02Z</time>
      </trkpt>
      <trkpt lat="46.01782" lon="6.28226">
        <ele>872.6</ele>
        <time>2021-03-27T13:33:03Z</time>
      </trkpt>
      <trkpt lat="46.01772" lon="6.28221">
        <ele>871.8</ele>
        <time>2021-03-27T13:33:04Z</time>
      </trkpt>
      <trkpt lat="46.01762" lon="6.28215">
        <ele>871.4</ele>
        <time>2021-03-27T13:33:05Z</time>
      </trkpt>
      <trkpt lat="46.01753" lon="6.28209">
        <ele>871</ele>
        <time>2021-03-27T13:33:06Z</time>
      </trkpt>
      <trkpt lat="46.01744" lon="6.28201">
        <ele>870.4</ele>
        <time>2021-03-27T13:33:07Z</time>
      </trkpt>
      <trkpt lat="46.01735" lon="6.28192">
        <ele>870</ele>
        <time>2021-03-27T13:33:08Z</time>
      </trkpt>
      <trkpt lat="46.01727" lon="6.28182">
        <ele>869</ele>
        <time>2021-03-27T13:33:09Z</time>
      </trkpt>
      <trkpt lat="46.01719" lon="6.28172">
        <ele>868.2</ele>
        <time>2021-03-27T13:33:10Z</time>
      </trkpt>
      <trkpt lat="46.01711" lon="6.28162">
        <ele>867.2</ele>
        <time>2021-03-27T13:33:11Z</time>
      </trkpt>
      <trkpt lat="46.01704" lon="6.28151">
        <ele>866.6</ele>
        <time>2021-03-27T13:33:12Z</time>
      </trkpt>
      <trkpt lat="46.01696" lon="6.2814">
        <ele>866.2</ele>
        <time>2021-03-27T13:33:13Z</time>
      </trkpt>
      <trkpt lat="46.01689" lon="6.28129">
        <ele>865.8</ele>
        <time>2021-03-27T13:33:14Z</time>
      </trkpt>
      <trkpt lat="46.01681" lon="6.28117">
        <ele>865.6</ele>
        <time>2021-03-27T13:33:15Z</time>
      </trkpt>
      <trkpt lat="46.01674" lon="6.28106">
        <ele>865.6</ele>
        <time>2021-03-27T13:33:16Z</time>
      </trkpt>
      <trkpt lat="46.01667" lon="6.28094">
        <ele>865.2</ele>
        <time>2021-03-27T13:33:17Z</time>
      </trkpt>
      <trkpt lat="46.01659" lon="6.28082">
        <ele>864.8</ele>
        <time>2021-03-27T13:33:18Z</time>
      </trkpt>
      <trkpt lat="46.01652" lon="6.2807">
        <ele>864</ele>
        <time>2021-03-27T13:33:19Z</time>
      </trkpt>
      <trkpt lat="46.01644" lon="6.28058">
        <ele>863.6</ele>
        <time>2021-03-27T13:33:20Z</time>
      </trkpt>
      <trkpt lat="46.01637" lon="6.28045">
        <ele>863</ele>
        <time>2021-03-27T13:33:21Z</time>
      </trkpt>
      <trkpt lat="46.01631" lon="6.28032">
        <ele>862.4</ele>
        <time>2021-03-27T13:33:22Z</time>
      </trkpt>
      <trkpt lat="46.01625" lon="6.28018">
        <ele>861.8</ele>
        <time>2021-03-27T13:33:23Z</time>
      </trkpt>
      <trkpt lat="46.0162" lon="6.28004">
        <ele>861.2</ele>
        <time>2021-03-27T13:33:24Z</time>
      </trkpt>
      <trkpt lat="46.01615" lon="6.27988">
        <ele>860.6</ele>
        <time>2021-03-27T13:33:25Z</time>
      </trkpt>
      <trkpt lat="46.01611" lon="6.27972">
        <ele>860</ele>
        <time>2021-03-27T13:33:26Z</time>
      </trkpt>
      <trkpt lat="46.01608" lon="6.27957">
        <ele>859</ele>
        <time>2021-03-27T13:33:27Z</time>
      </trkpt>
      <trkpt lat="46.01605" lon="6.27941">
        <ele>859</ele>
        <time>2021-03-27T13:33:28Z</time>
      </trkpt>
      <trkpt lat="46.01602" lon="6.27925">
        <ele>858.4</ele>
        <time>2021-03-27T13:33:29Z</time>
      </trkpt>
      <trkpt lat="46.01599" lon="6.27909">
        <ele>857.8</ele>
        <time>2021-03-27T13:33:30Z</time>
      </trkpt>
      <trkpt lat="46.01597" lon="6.27893">
        <ele>857</ele>
        <time>2021-03-27T13:33:31Z</time>
      </trkpt>
      <trkpt lat="46.01594" lon="6.27877">
        <ele>856</ele>
        <time>2021-03-27T13:33:32Z</time>
      </trkpt>
      <trkpt lat="46.01592" lon="6.27861">
        <ele>855</ele>
        <time>2021-03-27T13:33:33Z</time>
      </trkpt>
      <trkpt lat="46.0159" lon="6.27845">
        <ele>854.2</ele>
        <time>2021-03-27T13:33:34Z</time>
      </trkpt>
      <trkpt lat="46.01588" lon="6.27829">
        <ele>853.8</ele>
        <time>2021-03-27T13:33:35Z</time>
      </trkpt>
      <trkpt lat="46.01586" lon="6.27813">
        <ele>853</ele>
        <time>2021-03-27T13:33:36Z</time>
      </trkpt>
      <trkpt lat="46.01584" lon="6.27798">
        <ele>852.6</ele>
        <time>2021-03-27T13:33:37Z</time>
      </trkpt>
      <trkpt lat="46.01582" lon="6.27782">
        <ele>852.2</ele>
        <time>2021-03-27T13:33:38Z</time>
      </trkpt>
      <trkpt lat="46.0158" lon="6.27767">
        <ele>851.8</ele>
        <time>2021-03-27T13:33:39Z</time>
      </trkpt>
      <trkpt lat="46.01578" lon="6.27751">
        <ele>851.2</ele>
        <time>2021-03-27T13:33:40Z</time>
      </trkpt>
      <trkpt lat="46.01575" lon="6.27736">
        <ele>851</ele>
        <time>2021-03-27T13:33:41Z</time>
      </trkpt>
      <trkpt lat="46.01572" lon="6.27721">
        <ele>850</ele>
        <time>2021-03-27T13:33:42Z</time>
      </trkpt>
      <trkpt lat="46.01569" lon="6.27706">
        <ele>849</ele>
        <time>2021-03-27T13:33:43Z</time>
      </trkpt>
      <trkpt lat="46.01566" lon="6.27691">
        <ele>848.4</ele>
        <time>2021-03-27T13:33:44Z</time>
      </trkpt>
      <trkpt lat="46.01562" lon="6.27676">
        <ele>847.4</ele>
        <time>2021-03-27T13:33:45Z</time>
      </trkpt>
      <trkpt lat="46.01559" lon="6.2766">
        <ele>847</ele>
        <time>2021-03-27T13:33:46Z</time>
      </trkpt>
      <trkpt lat="46.01557" lon="6.27645">
        <ele>846.2</ele>
        <time>2021-03-27T13:33:47Z</time>
      </trkpt>
      <trkpt lat="46.01555" lon="6.2763">
        <ele>845.8</ele>
        <time>2021-03-27T13:33:48Z</time>
      </trkpt>
      <trkpt lat="46.01555" lon="6.27614">
        <ele>845.4</ele>
        <time>2021-03-27T13:33:49Z</time>
      </trkpt>
      <trkpt lat="46.01555" lon="6.27597">
        <ele>845.4</ele>
        <time>2021-03-27T13:33:50Z</time>
      </trkpt>
      <trkpt lat="46.01555" lon="6.27581">
        <ele>845</ele>
        <time>2021-03-27T13:33:51Z</time>
      </trkpt>
      <trkpt lat="46.01556" lon="6.27565">
        <ele>844.2</ele>
        <time>2021-03-27T13:33:52Z</time>
      </trkpt>
      <trkpt lat="46.01558" lon="6.27549">
        <ele>843.6</ele>
        <time>2021-03-27T13:33:53Z</time>
      </trkpt>
      <trkpt lat="46.01558" lon="6.27532">
        <ele>843</ele>
        <time>2021-03-27T13:33:54Z</time>
      </trkpt>
      <trkpt lat="46.01557" lon="6.27516">
        <ele>842</ele>
        <time>2021-03-27T13:33:55Z</time>
      </trkpt>
      <trkpt lat="46.01554" lon="6.27501">
        <ele>841.4</ele>
        <time>2021-03-27T13:33:56Z</time>
      </trkpt>
      <trkpt lat="46.01548" lon="6.27488">
        <ele>840.8</ele>
        <time>2021-03-27T13:33:57Z</time>
      </trkpt>
      <trkpt lat="46.0154" lon="6.27478">
        <ele>840.6</ele>
        <time>2021-03-27T13:33:58Z</time>
      </trkpt>
      <trkpt lat="46.0153" lon="6.27469">
        <ele>840.4</ele>
        <time>2021-03-27T13:33:59Z</time>
      </trkpt>
      <trkpt lat="46.01519" lon="6.27463">
        <ele>840.2</ele>
        <time>2021-03-27T13:34:00Z</time>
      </trkpt>
      <trkpt lat="46.01509" lon="6.27456">
        <ele>839.8</ele>
        <time>2021-03-27T13:34:01Z</time>
      </trkpt>
      <trkpt lat="46.01498" lon="6.2745">
        <ele>839.4</ele>
        <time>2021-03-27T13:34:02Z</time>
      </trkpt>
      <trkpt lat="46.01487" lon="6.27443">
        <ele>838.6</ele>
        <time>2021-03-27T13:34:03Z</time>
      </trkpt>
      <trkpt lat="46.01477" lon="6.27434">
        <ele>837.6</ele>
        <time>2021-03-27T13:34:04Z</time>
      </trkpt>
      <trkpt lat="46.01468" lon="6.27424">
        <ele>836.8</ele>
        <time>2021-03-27T13:34:05Z</time>
      </trkpt>
      <trkpt lat="46.01459" lon="6.27412">
        <ele>836</ele>
        <time>2021-03-27T13:34:06Z</time>
      </trkpt>
      <trkpt lat="46.01451" lon="6.27399">
        <ele>835.6</ele>
        <time>2021-03-27T13:34:07Z</time>
      </trkpt>
      <trkpt lat="46.01443" lon="6.27386">
        <ele>834.6</ele>
        <time>2021-03-27T13:34:08Z</time>
      </trkpt>
      <trkpt lat="46.01437" lon="6.27373">
        <ele>833.4</ele>
        <time>2021-03-27T13:34:09Z</time>
      </trkpt>
      <trkpt lat="46.0143" lon="6.27359">
        <ele>832.8</ele>
        <time>2021-03-27T13:34:10Z</time>
      </trkpt>
      <trkpt lat="46.01424" lon="6.27346">
        <ele>832.2</ele>
        <time>2021-03-27T13:34:11Z</time>
      </trkpt>
      <trkpt lat="46.01417" lon="6.27332">
        <ele>832.2</ele>
        <time>2021-03-27T13:34:12Z</time>
      </trkpt>
      <trkpt lat="46.01411" lon="6.27318">
        <ele>831.6</ele>
        <time>2021-03-27T13:34:13Z</time>
      </trkpt>
      <trkpt lat="46.01404" lon="6.27305">
        <ele>831.2</ele>
        <time>2021-03-27T13:34:14Z</time>
      </trkpt>
      <trkpt lat="46.01398" lon="6.27291">
        <ele>830.8</ele>
        <time>2021-03-27T13:34:15Z</time>
      </trkpt>
      <trkpt lat="46.01392" lon="6.27278">
        <ele>829.6</ele>
        <time>2021-03-27T13:34:16Z</time>
      </trkpt>
      <trkpt lat="46.01385" lon="6.27264">
        <ele>828.6</ele>
        <time>2021-03-27T13:34:17Z</time>
      </trkpt>
      <trkpt lat="46.01378" lon="6.2725">
        <ele>827.8</ele>
        <time>2021-03-27T13:34:18Z</time>
      </trkpt>
      <trkpt lat="46.01372" lon="6.27237">
        <ele>827.4</ele>
        <time>2021-03-27T13:34:19Z</time>
      </trkpt>
      <trkpt lat="46.01365" lon="6.27222">
        <ele>827.2</ele>
        <time>2021-03-27T13:34:20Z</time>
      </trkpt>
      <trkpt lat="46.01359" lon="6.27208">
        <ele>826.8</ele>
        <time>2021-03-27T13:34:21Z</time>
      </trkpt>
      <trkpt lat="46.01354" lon="6.27193">
        <ele>825.8</ele>
        <time>2021-03-27T13:34:22Z</time>
      </trkpt>
      <trkpt lat="46.0135" lon="6.27178">
        <ele>825.2</ele>
        <time>2021-03-27T13:34:23Z</time>
      </trkpt>
      <trkpt lat="46.01347" lon="6.27163">
        <ele>824.2</ele>
        <time>2021-03-27T13:34:24Z</time>
      </trkpt>
      <trkpt lat="46.01345" lon="6.27147">
        <ele>823.8</ele>
        <time>2021-03-27T13:34:25Z</time>
      </trkpt>
      <trkpt lat="46.01342" lon="6.27132">
        <ele>823.4</ele>
        <time>2021-03-27T13:34:26Z</time>
      </trkpt>
      <trkpt lat="46.01338" lon="6.27116">
        <ele>822.4</ele>
        <time>2021-03-27T13:34:27Z</time>
      </trkpt>
      <trkpt lat="46.01334" lon="6.27101">
        <ele>821.6</ele>
        <time>2021-03-27T13:34:28Z</time>
      </trkpt>
      <trkpt lat="46.01329" lon="6.27087">
        <ele>820.6</ele>
        <time>2021-03-27T13:34:29Z</time>
      </trkpt>
      <trkpt lat="46.01324" lon="6.27073">
        <ele>819.8</ele>
        <time>2021-03-27T13:34:30Z</time>
      </trkpt>
      <trkpt lat="46.01319" lon="6.27059">
        <ele>819</ele>
        <time>2021-03-27T13:34:31Z</time>
      </trkpt>
      <trkpt lat="46.01314" lon="6.27044">
        <ele>818.6</ele>
        <time>2021-03-27T13:34:32Z</time>
      </trkpt>
      <trkpt lat="46.0131" lon="6.2703">
        <ele>818</ele>
        <time>2021-03-27T13:34:33Z</time>
      </trkpt>
      <trkpt lat="46.01306" lon="6.27014">
        <ele>817.6</ele>
        <time>2021-03-27T13:34:34Z</time>
      </trkpt>
      <trkpt lat="46.01303" lon="6.26999">
        <ele>817.6</ele>
        <time>2021-03-27T13:34:35Z</time>
      </trkpt>
      <trkpt lat="46.01302" lon="6.26982">
        <ele>817.4</ele>
        <time>2021-03-27T13:34:36Z</time>
      </trkpt>
      <trkpt lat="46.01302" lon="6.26966">
        <ele>817</ele>
        <time>2021-03-27T13:34:37Z</time>
      </trkpt>
      <trkpt lat="46.01303" lon="6.26951">
        <ele>816</ele>
        <time>2021-03-27T13:34:38Z</time>
      </trkpt>
      <trkpt lat="46.01306" lon="6.26935">
        <ele>815.6</ele>
        <time>2021-03-27T13:34:39Z</time>
      </trkpt>
      <trkpt lat="46.0131" lon="6.2692">
        <ele>814.6</ele>
        <time>2021-03-27T13:34:40Z</time>
      </trkpt>
      <trkpt lat="46.01315" lon="6.26906">
        <ele>814.4</ele>
        <time>2021-03-27T13:34:41Z</time>
      </trkpt>
      <trkpt lat="46.01321" lon="6.26892">
        <ele>813.6</ele>
        <time>2021-03-27T13:34:42Z</time>
      </trkpt>
      <trkpt lat="46.01326" lon="6.26878">
        <ele>812.6</ele>
        <time>2021-03-27T13:34:43Z</time>
      </trkpt>
      <trkpt lat="46.01331" lon="6.26864">
        <ele>811.8</ele>
        <time>2021-03-27T13:34:44Z</time>
      </trkpt>
      <trkpt lat="46.01334" lon="6.26849">
        <ele>811.2</ele>
        <time>2021-03-27T13:34:45Z</time>
      </trkpt>
      <trkpt lat="46.01334" lon="6.26834">
        <ele>810.6</ele>
        <time>2021-03-27T13:34:46Z</time>
      </trkpt>
      <trkpt lat="46.01331" lon="6.26821">
        <ele>810.2</ele>
        <time>2021-03-27T13:34:47Z</time>
      </trkpt>
      <trkpt lat="46.01327" lon="6.26807">
        <ele>810</ele>
        <time>2021-03-27T13:34:48Z</time>
      </trkpt>
      <trkpt lat="46.01321" lon="6.26792">
        <ele>809.4</ele>
        <time>2021-03-27T13:34:49Z</time>
      </trkpt>
      <trkpt lat="46.01317" lon="6.26777">
        <ele>809.2</ele>
        <time>2021-03-27T13:34:50Z</time>
      </trkpt>
      <trkpt lat="46.01313" lon="6.26762">
        <ele>808.8</ele>
        <time>2021-03-27T13:34:51Z</time>
      </trkpt>
      <trkpt lat="46.01309" lon="6.26746">
        <ele>808.2</ele>
        <time>2021-03-27T13:34:52Z</time>
      </trkpt>
      <trkpt lat="46.01306" lon="6.26731">
        <ele>807.4</ele>
        <time>2021-03-27T13:34:53Z</time>
      </trkpt>
      <trkpt lat="46.01302" lon="6.26717">
        <ele>806.4</ele>
        <time>2021-03-27T13:34:54Z</time>
      </trkpt>
      <trkpt lat="46.01297" lon="6.26705">
        <ele>805.8</ele>
        <time>2021-03-27T13:34:55Z</time>
      </trkpt>
      <trkpt lat="46.01288" lon="6.26694">
        <ele>805</ele>
        <time>2021-03-27T13:34:56Z</time>
      </trkpt>
      <trkpt lat="46.01279" lon="6.26683">
        <ele>804.2</ele>
        <time>2021-03-27T13:34:57Z</time>
      </trkpt>
      <trkpt lat="46.01268" lon="6.26674">
        <ele>803.6</ele>
        <time>2021-03-27T13:34:58Z</time>
      </trkpt>
      <trkpt lat="46.01258" lon="6.26663">
        <ele>803</ele>
        <time>2021-03-27T13:34:59Z</time>
      </trkpt>
      <trkpt lat="46.01248" lon="6.26652">
        <ele>802.6</ele>
        <time>2021-03-27T13:35:00Z</time>
      </trkpt>
      <trkpt lat="46.01239" lon="6.2664">
        <ele>802.2</ele>
        <time>2021-03-27T13:35:01Z</time>
      </trkpt>
      <trkpt lat="46.01232" lon="6.26627">
        <ele>802</ele>
        <time>2021-03-27T13:35:02Z</time>
      </trkpt>
      <trkpt lat="46.01225" lon="6.26613">
        <ele>801.4</ele>
        <time>2021-03-27T13:35:03Z</time>
      </trkpt>
      <trkpt lat="46.01219" lon="6.26599">
        <ele>800.8</ele>
        <time>2021-03-27T13:35:04Z</time>
      </trkpt>
      <trkpt lat="46.01214" lon="6.26584">
        <ele>800.4</ele>
        <time>2021-03-27T13:35:05Z</time>
      </trkpt>
      <trkpt lat="46.0121" lon="6.26569">
        <ele>799.6</ele>
        <time>2021-03-27T13:35:06Z</time>
      </trkpt>
      <trkpt lat="46.01205" lon="6.26554">
        <ele>798.4</ele>
        <time>2021-03-27T13:35:07Z</time>
      </trkpt>
      <trkpt lat="46.01201" lon="6.26538">
        <ele>797.6</ele>
        <time>2021-03-27T13:35:08Z</time>
      </trkpt>
      <trkpt lat="46.01197" lon="6.26523">
        <ele>796.6</ele>
        <time>2021-03-27T13:35:09Z</time>
      </trkpt>
      <trkpt lat="46.01193" lon="6.26508">
        <ele>795.8</ele>
        <time>2021-03-27T13:35:10Z</time>
      </trkpt>
      <trkpt lat="46.01189" lon="6.26493">
        <ele>795.6</ele>
        <time>2021-03-27T13:35:11Z</time>
      </trkpt>
      <trkpt lat="46.01184" lon="6.26478">
        <ele>795.2</ele>
        <time>2021-03-27T13:35:12Z</time>
      </trkpt>
      <trkpt lat="46.01177" lon="6.26464">
        <ele>794.8</ele>
        <time>2021-03-27T13:35:13Z</time>
      </trkpt>
      <trkpt lat="46.01171" lon="6.2645">
        <ele>793.8</ele>
        <time>2021-03-27T13:35:14Z</time>
      </trkpt>
      <trkpt lat="46.01163" lon="6.26437">
        <ele>793.2</ele>
        <time>2021-03-27T13:35:15Z</time>
      </trkpt>
      <trkpt lat="46.01154" lon="6.26426">
        <ele>792.6</ele>
        <time>2021-03-27T13:35:16Z</time>
      </trkpt>
      <trkpt lat="46.01143" lon="6.26418">
        <ele>792.2</ele>
        <time>2021-03-27T13:35:17Z</time>
      </trkpt>
      <trkpt lat="46.01132" lon="6.26411">
        <ele>790.8</ele>
        <time>2021-03-27T13:35:18Z</time>
      </trkpt>
      <trkpt lat="46.01121" lon="6.26405">
        <ele>789.6</ele>
        <time>2021-03-27T13:35:19Z</time>
      </trkpt>
      <trkpt lat="46.01111" lon="6.264">
        <ele>788.6</ele>
        <time>2021-03-27T13:35:20Z</time>
      </trkpt>
      <trkpt lat="46.011" lon="6.26393">
        <ele>787.4</ele>
        <time>2021-03-27T13:35:21Z</time>
      </trkpt>
      <trkpt lat="46.01089" lon="6.26387">
        <ele>786.4</ele>
        <time>2021-03-27T13:35:22Z</time>
      </trkpt>
      <trkpt lat="46.01079" lon="6.26379">
        <ele>785.6</ele>
        <time>2021-03-27T13:35:23Z</time>
      </trkpt>
      <trkpt lat="46.01068" lon="6.26372">
        <ele>785.2</ele>
        <time>2021-03-27T13:35:24Z</time>
      </trkpt>
      <trkpt lat="46.01058" lon="6.26366">
        <ele>784.6</ele>
        <time>2021-03-27T13:35:25Z</time>
      </trkpt>
      <trkpt lat="46.01047" lon="6.26361">
        <ele>783.8</ele>
        <time>2021-03-27T13:35:26Z</time>
      </trkpt>
      <trkpt lat="46.01037" lon="6.26355">
        <ele>783.2</ele>
        <time>2021-03-27T13:35:27Z</time>
      </trkpt>
      <trkpt lat="46.01027" lon="6.26347">
        <ele>782</ele>
        <time>2021-03-27T13:35:28Z</time>
      </trkpt>
      <trkpt lat="46.01019" lon="6.26337">
        <ele>781.4</ele>
        <time>2021-03-27T13:35:29Z</time>
      </trkpt>
      <trkpt lat="46.01011" lon="6.26326">
        <ele>780.8</ele>
        <time>2021-03-27T13:35:30Z</time>
      </trkpt>
      <trkpt lat="46.01003" lon="6.26314">
        <ele>780.2</ele>
        <time>2021-03-27T13:35:31Z</time>
      </trkpt>
      <trkpt lat="46.00996" lon="6.26304">
        <ele>779.4</ele>
        <time>2021-03-27T13:35:32Z</time>
      </trkpt>
      <trkpt lat="46.00988" lon="6.26295">
        <ele>778.6</ele>
        <time>2021-03-27T13:35:33Z</time>
      </trkpt>
      <trkpt lat="46.00978" lon="6.26288">
        <ele>778</ele>
        <time>2021-03-27T13:35:34Z</time>
      </trkpt>
      <trkpt lat="46.00968" lon="6.26282">
        <ele>777.4</ele>
        <time>2021-03-27T13:35:35Z</time>
      </trkpt>
      <trkpt lat="46.00958" lon="6.26278">
        <ele>777</ele>
        <time>2021-03-27T13:35:36Z</time>
      </trkpt>
      <trkpt lat="46.00948" lon="6.26273">
        <ele>776.6</ele>
        <time>2021-03-27T13:35:37Z</time>
      </trkpt>
      <trkpt lat="46.00938" lon="6.26266">
        <ele>776.4</ele>
        <time>2021-03-27T13:35:38Z</time>
      </trkpt>
      <trkpt lat="46.00929" lon="6.26258">
        <ele>776.2</ele>
        <time>2021-03-27T13:35:39Z</time>
      </trkpt>
      <trkpt lat="46.00922" lon="6.26247">
        <ele>776</ele>
        <time>2021-03-27T13:35:40Z</time>
      </trkpt>
      <trkpt lat="46.00917" lon="6.26234">
        <ele>775.8</ele>
        <time>2021-03-27T13:35:41Z</time>
      </trkpt>
      <trkpt lat="46.00914" lon="6.26219">
        <ele>775</ele>
        <time>2021-03-27T13:35:42Z</time>
      </trkpt>
      <trkpt lat="46.00913" lon="6.26204">
        <ele>773.8</ele>
        <time>2021-03-27T13:35:43Z</time>
      </trkpt>
      <trkpt lat="46.00912" lon="6.26189">
        <ele>772.8</ele>
        <time>2021-03-27T13:35:44Z</time>
      </trkpt>
      <trkpt lat="46.0091" lon="6.26174">
        <ele>772</ele>
        <time>2021-03-27T13:35:45Z</time>
      </trkpt>
      <trkpt lat="46.00906" lon="6.2616">
        <ele>771.2</ele>
        <time>2021-03-27T13:35:46Z</time>
      </trkpt>
      <trkpt lat="46.009" lon="6.26147">
        <ele>770.8</ele>
        <time>2021-03-27T13:35:47Z</time>
      </trkpt>
      <trkpt lat="46.00894" lon="6.26136">
        <ele>770.4</ele>
        <time>2021-03-27T13:35:48Z</time>
      </trkpt>
      <trkpt lat="46.00886" lon="6.26127">
        <ele>770.2</ele>
        <time>2021-03-27T13:35:49Z</time>
      </trkpt>
      <trkpt lat="46.00878" lon="6.26118">
        <ele>770</ele>
        <time>2021-03-27T13:35:50Z</time>
      </trkpt>
      <trkpt lat="46.00869" lon="6.2611">
        <ele>770</ele>
        <time>2021-03-27T13:35:51Z</time>
      </trkpt>
      <trkpt lat="46.0086" lon="6.26101">
        <ele>770</ele>
        <time>2021-03-27T13:35:52Z</time>
      </trkpt>
      <trkpt lat="46.00853" lon="6.26092">
        <ele>769.8</ele>
        <time>2021-03-27T13:35:53Z</time>
      </trkpt>
      <trkpt lat="46.00846" lon="6.26081">
        <ele>769.6</ele>
        <time>2021-03-27T13:35:54Z</time>
      </trkpt>
      <trkpt lat="46.0084" lon="6.26069">
        <ele>769.2</ele>
        <time>2021-03-27T13:35:55Z</time>
      </trkpt>
      <trkpt lat="46.00835" lon="6.26057">
        <ele>768.8</ele>
        <time>2021-03-27T13:35:56Z</time>
      </trkpt>
      <trkpt lat="46.0083" lon="6.26045">
        <ele>768</ele>
        <time>2021-03-27T13:35:57Z</time>
      </trkpt>
      <trkpt lat="46.00826" lon="6.26032">
        <ele>767</ele>
        <time>2021-03-27T13:35:58Z</time>
      </trkpt>
      <trkpt lat="46.0082" lon="6.2602">
        <ele>766.4</ele>
        <time>2021-03-27T13:35:59Z</time>
      </trkpt>
      <trkpt lat="46.00814" lon="6.26009">
        <ele>765</ele>
        <time>2021-03-27T13:36:00Z</time>
      </trkpt>
      <trkpt lat="46.00805" lon="6.26">
        <ele>764</ele>
        <time>2021-03-27T13:36:01Z</time>
      </trkpt>
      <trkpt lat="46.00797" lon="6.25992">
        <ele>763.2</ele>
        <time>2021-03-27T13:36:02Z</time>
      </trkpt>
      <trkpt lat="46.00788" lon="6.25985">
        <ele>763</ele>
        <time>2021-03-27T13:36:03Z</time>
      </trkpt>
      <trkpt lat="46.00778" lon="6.25979">
        <ele>762.6</ele>
        <time>2021-03-27T13:36:04Z</time>
      </trkpt>
      <trkpt lat="46.00769" lon="6.25973">
        <ele>762.6</ele>
        <time>2021-03-27T13:36:05Z</time>
      </trkpt>
      <trkpt lat="46.00759" lon="6.25967">
        <ele>762.2</ele>
        <time>2021-03-27T13:36:06Z</time>
      </trkpt>
      <trkpt lat="46.0075" lon="6.25961">
        <ele>761.6</ele>
        <time>2021-03-27T13:36:07Z</time>
      </trkpt>
      <trkpt lat="46.00741" lon="6.25953">
        <ele>761.4</ele>
        <time>2021-03-27T13:36:08Z</time>
      </trkpt>
      <trkpt lat="46.00733" lon="6.25943">
        <ele>761</ele>
        <time>2021-03-27T13:36:09Z</time>
      </trkpt>
      <trkpt lat="46.00727" lon="6.25932">
        <ele>760.6</ele>
        <time>2021-03-27T13:36:10Z</time>
      </trkpt>
      <trkpt lat="46.00721" lon="6.25921">
        <ele>760</ele>
        <time>2021-03-27T13:36:11Z</time>
      </trkpt>
      <trkpt lat="46.00715" lon="6.2591">
        <ele>759.6</ele>
        <time>2021-03-27T13:36:12Z</time>
      </trkpt>
      <trkpt lat="46.00708" lon="6.259">
        <ele>758.2</ele>
        <time>2021-03-27T13:36:13Z</time>
      </trkpt>
      <trkpt lat="46.00702" lon="6.2589">
        <ele>756.6</ele>
        <time>2021-03-27T13:36:14Z</time>
      </trkpt>
      <trkpt lat="46.00695" lon="6.25881">
        <ele>755.8</ele>
        <time>2021-03-27T13:36:15Z</time>
      </trkpt>
      <trkpt lat="46.00688" lon="6.25873">
        <ele>755.4</ele>
        <time>2021-03-27T13:36:16Z</time>
      </trkpt>
      <trkpt lat="46.00681" lon="6.25864">
        <ele>755</ele>
        <time>2021-03-27T13:36:17Z</time>
      </trkpt>
      <trkpt lat="46.00673" lon="6.25856">
        <ele>754.8</ele>
        <time>2021-03-27T13:36:18Z</time>
      </trkpt>
      <trkpt lat="46.00666" lon="6.25849">
        <ele>754.8</ele>
        <time>2021-03-27T13:36:19Z</time>
      </trkpt>
      <trkpt lat="46.00657" lon="6.25842">
        <ele>754.6</ele>
        <time>2021-03-27T13:36:20Z</time>
      </trkpt>
      <trkpt lat="46.00647" lon="6.25837">
        <ele>754.2</ele>
        <time>2021-03-27T13:36:21Z</time>
      </trkpt>
      <trkpt lat="46.00637" lon="6.25834">
        <ele>753.2</ele>
        <time>2021-03-27T13:36:22Z</time>
      </trkpt>
      <trkpt lat="46.00627" lon="6.25832">
        <ele>752</ele>
        <time>2021-03-27T13:36:23Z</time>
      </trkpt>
      <trkpt lat="46.00617" lon="6.25831">
        <ele>751.2</ele>
        <time>2021-03-27T13:36:24Z</time>
      </trkpt>
      <trkpt lat="46.00607" lon="6.25831">
        <ele>750.6</ele>
        <time>2021-03-27T13:36:25Z</time>
      </trkpt>
      <trkpt lat="46.00597" lon="6.2583">
        <ele>750</ele>
        <time>2021-03-27T13:36:26Z</time>
      </trkpt>
      <trkpt lat="46.00588" lon="6.25828">
        <ele>750</ele>
        <time>2021-03-27T13:36:27Z</time>
      </trkpt>
      <trkpt lat="46.00578" lon="6.25824">
        <ele>749.8</ele>
        <time>2021-03-27T13:36:28Z</time>
      </trkpt>
      <trkpt lat="46.0057" lon="6.25818">
        <ele>749.4</ele>
        <time>2021-03-27T13:36:29Z</time>
      </trkpt>
      <trkpt lat="46.00562" lon="6.25809">
        <ele>749.2</ele>
        <time>2021-03-27T13:36:30Z</time>
      </trkpt>
      <trkpt lat="46.00556" lon="6.25797">
        <ele>748.6</ele>
        <time>2021-03-27T13:36:31Z</time>
      </trkpt>
      <trkpt lat="46.00552" lon="6.25784">
        <ele>747.8</ele>
        <time>2021-03-27T13:36:32Z</time>
      </trkpt>
      <trkpt lat="46.00549" lon="6.2577">
        <ele>747.4</ele>
        <time>2021-03-27T13:36:33Z</time>
      </trkpt>
      <trkpt lat="46.00546" lon="6.25756">
        <ele>746.4</ele>
        <time>2021-03-27T13:36:34Z</time>
      </trkpt>
      <trkpt lat="46.00542" lon="6.25742">
        <ele>745.6</ele>
        <time>2021-03-27T13:36:35Z</time>
      </trkpt>
      <trkpt lat="46.00537" lon="6.2573">
        <ele>745</ele>
        <time>2021-03-27T13:36:36Z</time>
      </trkpt>
      <trkpt lat="46.0053" lon="6.25719">
        <ele>744.6</ele>
        <time>2021-03-27T13:36:37Z</time>
      </trkpt>
      <trkpt lat="46.00521" lon="6.25711">
        <ele>743.8</ele>
        <time>2021-03-27T13:36:38Z</time>
      </trkpt>
      <trkpt lat="46.0051" lon="6.25705">
        <ele>742.6</ele>
        <time>2021-03-27T13:36:39Z</time>
      </trkpt>
      <trkpt lat="46.005" lon="6.25701">
        <ele>741.8</ele>
        <time>2021-03-27T13:36:40Z</time>
      </trkpt>
      <trkpt lat="46.00489" lon="6.25698">
        <ele>741.2</ele>
        <time>2021-03-27T13:36:41Z</time>
      </trkpt>
      <trkpt lat="46.00478" lon="6.25696">
        <ele>740.8</ele>
        <time>2021-03-27T13:36:42Z</time>
      </trkpt>
      <trkpt lat="46.00467" lon="6.25696">
        <ele>740.8</ele>
        <time>2021-03-27T13:36:43Z</time>
      </trkpt>
      <trkpt lat="46.00456" lon="6.25696">
        <ele>740.6</ele>
        <time>2021-03-27T13:36:44Z</time>
      </trkpt>
      <trkpt lat="46.00445" lon="6.25697">
        <ele>740</ele>
        <time>2021-03-27T13:36:45Z</time>
      </trkpt>
      <trkpt lat="46.00434" lon="6.257">
        <ele>739.6</ele>
        <time>2021-03-27T13:36:46Z</time>
      </trkpt>
      <trkpt lat="46.00423" lon="6.25705">
        <ele>739</ele>
        <time>2021-03-27T13:36:47Z</time>
      </trkpt>
      <trkpt lat="46.00413" lon="6.25709">
        <ele>738.6</ele>
        <time>2021-03-27T13:36:48Z</time>
      </trkpt>
      <trkpt lat="46.00402" lon="6.25712">
        <ele>737.8</ele>
        <time>2021-03-27T13:36:49Z</time>
      </trkpt>
      <trkpt lat="46.00392" lon="6.25713">
        <ele>737.2</ele>
        <time>2021-03-27T13:36:50Z</time>
      </trkpt>
      <trkpt lat="46.00381" lon="6.2571">
        <ele>736</ele>
        <time>2021-03-27T13:36:51Z</time>
      </trkpt>
      <trkpt lat="46.00372" lon="6.25705">
        <ele>734.4</ele>
        <time>2021-03-27T13:36:52Z</time>
      </trkpt>
      <trkpt lat="46.00363" lon="6.25698">
        <ele>734.4</ele>
        <time>2021-03-27T13:36:53Z</time>
      </trkpt>
      <trkpt lat="46.00354" lon="6.2569">
        <ele>733.4</ele>
        <time>2021-03-27T13:36:54Z</time>
      </trkpt>
      <trkpt lat="46.00346" lon="6.25681">
        <ele>732.8</ele>
        <time>2021-03-27T13:36:55Z</time>
      </trkpt>
      <trkpt lat="46.00339" lon="6.2567">
        <ele>732.6</ele>
        <time>2021-03-27T13:36:56Z</time>
      </trkpt>
      <trkpt lat="46.00333" lon="6.25658">
        <ele>732.2</ele>
        <time>2021-03-27T13:36:57Z</time>
      </trkpt>
      <trkpt lat="46.00327" lon="6.25646">
        <ele>731.2</ele>
        <time>2021-03-27T13:36:58Z</time>
      </trkpt>
      <trkpt lat="46.00319" lon="6.25635">
        <ele>730</ele>
        <time>2021-03-27T13:36:59Z</time>
      </trkpt>
      <trkpt lat="46.00309" lon="6.25626">
        <ele>729.2</ele>
        <time>2021-03-27T13:37:00Z</time>
      </trkpt>
      <trkpt lat="46.00299" lon="6.25621">
        <ele>728.8</ele>
        <time>2021-03-27T13:37:01Z</time>
      </trkpt>
      <trkpt lat="46.0029" lon="6.25617">
        <ele>728</ele>
        <time>2021-03-27T13:37:02Z</time>
      </trkpt>
      <trkpt lat="46.0028" lon="6.25616">
        <ele>727.6</ele>
        <time>2021-03-27T13:37:03Z</time>
      </trkpt>
      <trkpt lat="46.0027" lon="6.25614">
        <ele>727.2</ele>
        <time>2021-03-27T13:37:04Z</time>
      </trkpt>
      <trkpt lat="46.0026" lon="6.25613">
        <ele>726.8</ele>
        <time>2021-03-27T13:37:05Z</time>
      </trkpt>
      <trkpt lat="46.0025" lon="6.25612">
        <ele>726.6</ele>
        <time>2021-03-27T13:37:06Z</time>
      </trkpt>
      <trkpt lat="46.0024" lon="6.25611">
        <ele>726.4</ele>
        <time>2021-03-27T13:37:07Z</time>
      </trkpt>
      <trkpt lat="46.0023" lon="6.2561">
        <ele>725.6</ele>
        <time>2021-03-27T13:37:08Z</time>
      </trkpt>
      <trkpt lat="46.0022" lon="6.25608">
        <ele>724.8</ele>
        <time>2021-03-27T13:37:09Z</time>
      </trkpt>
      <trkpt lat="46.0021" lon="6.25605">
        <ele>723.6</ele>
        <time>2021-03-27T13:37:10Z</time>
      </trkpt>
      <trkpt lat="46.00199" lon="6.256">
        <ele>723.2</ele>
        <time>2021-03-27T13:37:11Z</time>
      </trkpt>
      <trkpt lat="46.00189" lon="6.25595">
        <ele>722.8</ele>
        <time>2021-03-27T13:37:12Z</time>
      </trkpt>
      <trkpt lat="46.0018" lon="6.25588">
        <ele>722.6</ele>
        <time>2021-03-27T13:37:13Z</time>
      </trkpt>
      <trkpt lat="46.0017" lon="6.25582">
        <ele>722.6</ele>
        <time>2021-03-27T13:37:14Z</time>
      </trkpt>
      <trkpt lat="46.0016" lon="6.25576">
        <ele>722.4</ele>
        <time>2021-03-27T13:37:15Z</time>
      </trkpt>
      <trkpt lat="46.0015" lon="6.2557">
        <ele>722.4</ele>
        <time>2021-03-27T13:37:16Z</time>
      </trkpt>
      <trkpt lat="46.00141" lon="6.25563">
        <ele>722.2</ele>
        <time>2021-03-27T13:37:17Z</time>
      </trkpt>
      <trkpt lat="46.00131" lon="6.25556">
        <ele>722</ele>
        <time>2021-03-27T13:37:18Z</time>
      </trkpt>
      <trkpt lat="46.00122" lon="6.25548">
        <ele>721.4</ele>
        <time>2021-03-27T13:37:19Z</time>
      </trkpt>
      <trkpt lat="46.00114" lon="6.25539">
        <ele>720.6</ele>
        <time>2021-03-27T13:37:20Z</time>
      </trkpt>
      <trkpt lat="46.00107" lon="6.25528">
        <ele>719.4</ele>
        <time>2021-03-27T13:37:21Z</time>
      </trkpt>
      <trkpt lat="46.00101" lon="6.25516">
        <ele>718.8</ele>
        <time>2021-03-27T13:37:22Z</time>
      </trkpt>
      <trkpt lat="46.00096" lon="6.25503">
        <ele>718.2</ele>
        <time>2021-03-27T13:37:23Z</time>
      </trkpt>
      <trkpt lat="46.00091" lon="6.25489">
        <ele>717.4</ele>
        <time>2021-03-27T13:37:24Z</time>
      </trkpt>
      <trkpt lat="46.00088" lon="6.25475">
        <ele>716.6</ele>
        <time>2021-03-27T13:37:25Z</time>
      </trkpt>
      <trkpt lat="46.00086" lon="6.2546">
        <ele>716</ele>
        <time>2021-03-27T13:37:26Z</time>
      </trkpt>
      <trkpt lat="46.00085" lon="6.25445">
        <ele>715.6</ele>
        <time>2021-03-27T13:37:27Z</time>
      </trkpt>
      <trkpt lat="46.00085" lon="6.2543">
        <ele>715.4</ele>
        <time>2021-03-27T13:37:28Z</time>
      </trkpt>
      <trkpt lat="46.00086" lon="6.25414">
        <ele>715.2</ele>
        <time>2021-03-27T13:37:29Z</time>
      </trkpt>
      <trkpt lat="46.00087" lon="6.25399">
        <ele>714.8</ele>
        <time>2021-03-27T13:37:30Z</time>
      </trkpt>
      <trkpt lat="46.00089" lon="6.25383">
        <ele>714.2</ele>
        <time>2021-03-27T13:37:31Z</time>
      </trkpt>
      <trkpt lat="46.00089" lon="6.25368">
        <ele>714</ele>
        <time>2021-03-27T13:37:32Z</time>
      </trkpt>
      <trkpt lat="46.0009" lon="6.25338">
        <ele>712.8</ele>
        <time>2021-03-27T13:37:34Z</time>
      </trkpt>
      <trkpt lat="46.00089" lon="6.25323">
        <ele>712.4</ele>
        <time>2021-03-27T13:37:35Z</time>
      </trkpt>
      <trkpt lat="46.00088" lon="6.25308">
        <ele>712</ele>
        <time>2021-03-27T13:37:36Z</time>
      </trkpt>
      <trkpt lat="46.00087" lon="6.25293">
        <ele>711.2</ele>
        <time>2021-03-27T13:37:37Z</time>
      </trkpt>
      <trkpt lat="46.00085" lon="6.25278">
        <ele>710.8</ele>
        <time>2021-03-27T13:37:38Z</time>
      </trkpt>
      <trkpt lat="46.00083" lon="6.25249">
        <ele>709.6</ele>
        <time>2021-03-27T13:37:40Z</time>
      </trkpt>
      <trkpt lat="46.00082" lon="6.25234">
        <ele>708.8</ele>
        <time>2021-03-27T13:37:41Z</time>
      </trkpt>
      <trkpt lat="46.0008" lon="6.25218">
        <ele>708.2</ele>
        <time>2021-03-27T13:37:42Z</time>
      </trkpt>
      <trkpt lat="46.00079" lon="6.25203">
        <ele>707.4</ele>
        <time>2021-03-27T13:37:43Z</time>
      </trkpt>
      <trkpt lat="46.00077" lon="6.25188">
        <ele>706.8</ele>
        <time>2021-03-27T13:37:44Z</time>
      </trkpt>
      <trkpt lat="46.0007" lon="6.25161">
        <ele>705.8</ele>
        <time>2021-03-27T13:37:46Z</time>
      </trkpt>
      <trkpt lat="46.00065" lon="6.25148">
        <ele>705.4</ele>
        <time>2021-03-27T13:37:47Z</time>
      </trkpt>
      <trkpt lat="46.00058" lon="6.25137">
        <ele>705</ele>
        <time>2021-03-27T13:37:48Z</time>
      </trkpt>
      <trkpt lat="46.0005" lon="6.2513">
        <ele>705</ele>
        <time>2021-03-27T13:37:49Z</time>
      </trkpt>
      <trkpt lat="46.00041" lon="6.25122">
        <ele>704.6</ele>
        <time>2021-03-27T13:37:50Z</time>
      </trkpt>
      <trkpt lat="46.00031" lon="6.25116">
        <ele>704.2</ele>
        <time>2021-03-27T13:37:51Z</time>
      </trkpt>
      <trkpt lat="46.00021" lon="6.25111">
        <ele>703.6</ele>
        <time>2021-03-27T13:37:52Z</time>
      </trkpt>
      <trkpt lat="46.0001" lon="6.25107">
        <ele>703.2</ele>
        <time>2021-03-27T13:37:53Z</time>
      </trkpt>
      <trkpt lat="46" lon="6.25103">
        <ele>702.6</ele>
        <time>2021-03-27T13:37:54Z</time>
      </trkpt>
      <trkpt lat="45.99989" lon="6.25099">
        <ele>701.4</ele>
        <time>2021-03-27T13:37:55Z</time>
      </trkpt>
      <trkpt lat="45.99979" lon="6.25095">
        <ele>700.8</ele>
        <time>2021-03-27T13:37:56Z</time>
      </trkpt>
      <trkpt lat="45.9996" lon="6.25085">
        <ele>700</ele>
        <time>2021-03-27T13:37:58Z</time>
      </trkpt>
      <trkpt lat="45.9995" lon="6.25079">
        <ele>699.4</ele>
        <time>2021-03-27T13:37:59Z</time>
      </trkpt>
      <trkpt lat="45.9994" lon="6.25073">
        <ele>698.6</ele>
        <time>2021-03-27T13:38:00Z</time>
      </trkpt>
      <trkpt lat="45.9993" lon="6.25067">
        <ele>697.6</ele>
        <time>2021-03-27T13:38:01Z</time>
      </trkpt>
      <trkpt lat="45.99921" lon="6.25061">
        <ele>696.6</ele>
        <time>2021-03-27T13:38:02Z</time>
      </trkpt>
      <trkpt lat="45.99911" lon="6.25055">
        <ele>696</ele>
        <time>2021-03-27T13:38:03Z</time>
      </trkpt>
      <trkpt lat="45.99901" lon="6.2505">
        <ele>695.4</ele>
        <time>2021-03-27T13:38:04Z</time>
      </trkpt>
      <trkpt lat="45.99891" lon="6.25045">
        <ele>695</ele>
        <time>2021-03-27T13:38:05Z</time>
      </trkpt>
      <trkpt lat="45.99881" lon="6.25041">
        <ele>694.8</ele>
        <time>2021-03-27T13:38:06Z</time>
      </trkpt>
      <trkpt lat="45.99871" lon="6.25038">
        <ele>694.2</ele>
        <time>2021-03-27T13:38:07Z</time>
      </trkpt>
      <trkpt lat="45.9986" lon="6.25036">
        <ele>693.4</ele>
        <time>2021-03-27T13:38:08Z</time>
      </trkpt>
      <trkpt lat="45.99839" lon="6.25031">
        <ele>692.4</ele>
        <time>2021-03-27T13:38:10Z</time>
      </trkpt>
      <trkpt lat="45.99829" lon="6.25028">
        <ele>692</ele>
        <time>2021-03-27T13:38:11Z</time>
      </trkpt>
      <trkpt lat="45.99818" lon="6.25025">
        <ele>691.4</ele>
        <time>2021-03-27T13:38:12Z</time>
      </trkpt>
      <trkpt lat="45.99808" lon="6.25023">
        <ele>690.6</ele>
        <time>2021-03-27T13:38:13Z</time>
      </trkpt>
      <trkpt lat="45.99798" lon="6.25019">
        <ele>689.8</ele>
        <time>2021-03-27T13:38:14Z</time>
      </trkpt>
      <trkpt lat="45.99778" lon="6.25011">
        <ele>689.4</ele>
        <time>2021-03-27T13:38:16Z</time>
      </trkpt>
      <trkpt lat="45.99769" lon="6.25006">
        <ele>689</ele>
        <time>2021-03-27T13:38:17Z</time>
      </trkpt>
      <trkpt lat="45.99761" lon="6.25001">
        <ele>688.6</ele>
        <time>2021-03-27T13:38:18Z</time>
      </trkpt>
      <trkpt lat="45.99752" lon="6.24995">
        <ele>688.4</ele>
        <time>2021-03-27T13:38:19Z</time>
      </trkpt>
      <trkpt lat="45.99745" lon="6.24989">
        <ele>688.2</ele>
        <time>2021-03-27T13:38:20Z</time>
      </trkpt>
      <trkpt lat="45.99737" lon="6.24984">
        <ele>687.6</ele>
        <time>2021-03-27T13:38:21Z</time>
      </trkpt>
      <trkpt lat="45.9973" lon="6.24978">
        <ele>687</ele>
        <time>2021-03-27T13:38:22Z</time>
      </trkpt>
      <trkpt lat="45.99723" lon="6.24973">
        <ele>686.4</ele>
        <time>2021-03-27T13:38:23Z</time>
      </trkpt>
      <trkpt lat="45.99716" lon="6.24968">
        <ele>686.2</ele>
        <time>2021-03-27T13:38:24Z</time>
      </trkpt>
      <trkpt lat="45.99709" lon="6.24963">
        <ele>686</ele>
        <time>2021-03-27T13:38:25Z</time>
      </trkpt>
      <trkpt lat="45.99703" lon="6.24959">
        <ele>685.8</ele>
        <time>2021-03-27T13:38:26Z</time>
      </trkpt>
      <trkpt lat="45.99696" lon="6.24954">
        <ele>686</ele>
        <time>2021-03-27T13:38:27Z</time>
      </trkpt>
      <trkpt lat="45.9969" lon="6.24949">
        <ele>685.8</ele>
        <time>2021-03-27T13:38:28Z</time>
      </trkpt>
      <trkpt lat="45.99684" lon="6.24944">
        <ele>685.8</ele>
        <time>2021-03-27T13:38:29Z</time>
      </trkpt>
      <trkpt lat="45.99679" lon="6.24939">
        <ele>686</ele>
        <time>2021-03-27T13:38:30Z</time>
      </trkpt>
      <trkpt lat="45.99674" lon="6.24935">
        <ele>686</ele>
        <time>2021-03-27T13:38:31Z</time>
      </trkpt>
      <trkpt lat="45.99671" lon="6.24932">
        <ele>685.8</ele>
        <time>2021-03-27T13:38:32Z</time>
      </trkpt>
      <trkpt lat="45.99669" lon="6.2493">
        <ele>686</ele>
        <time>2021-03-27T13:38:33Z</time>
      </trkpt>
      <trkpt lat="45.99666" lon="6.2493">
        <ele>686.2</ele>
        <time>2021-03-27T13:38:34Z</time>
      </trkpt>
      <trkpt lat="45.99663" lon="6.24933">
        <ele>686.4</ele>
        <time>2021-03-27T13:38:35Z</time>
      </trkpt>
      <trkpt lat="45.99659" lon="6.24938">
        <ele>686.6</ele>
        <time>2021-03-27T13:38:36Z</time>
      </trkpt>
      <trkpt lat="45.99655" lon="6.24944">
        <ele>686.8</ele>
        <time>2021-03-27T13:38:37Z</time>
      </trkpt>
      <trkpt lat="45.99652" lon="6.24951">
        <ele>686.8</ele>
        <time>2021-03-27T13:38:38Z</time>
      </trkpt>
      <trkpt lat="45.99651" lon="6.24959">
        <ele>687.2</ele>
        <time>2021-03-27T13:38:39Z</time>
      </trkpt>
      <trkpt lat="45.99651" lon="6.24967">
        <ele>687.4</ele>
        <time>2021-03-27T13:38:40Z</time>
      </trkpt>
      <trkpt lat="45.99649" lon="6.24975">
        <ele>688</ele>
        <time>2021-03-27T13:38:41Z</time>
      </trkpt>
      <trkpt lat="45.99648" lon="6.24984">
        <ele>688</ele>
        <time>2021-03-27T13:38:42Z</time>
      </trkpt>
      <trkpt lat="45.99646" lon="6.24993">
        <ele>687.8</ele>
        <time>2021-03-27T13:38:43Z</time>
      </trkpt>
      <trkpt lat="45.99644" lon="6.25002">
        <ele>688</ele>
        <time>2021-03-27T13:38:44Z</time>
      </trkpt>
      <trkpt lat="45.99643" lon="6.25011">
        <ele>688</ele>
        <time>2021-03-27T13:38:45Z</time>
      </trkpt>
      <trkpt lat="45.99643" lon="6.25021">
        <ele>688</ele>
        <time>2021-03-27T13:38:46Z</time>
      </trkpt>
      <trkpt lat="45.99643" lon="6.25031">
        <ele>688</ele>
        <time>2021-03-27T13:38:47Z</time>
      </trkpt>
      <trkpt lat="45.99643" lon="6.25041">
        <ele>687.8</ele>
        <time>2021-03-27T13:38:48Z</time>
      </trkpt>
      <trkpt lat="45.99642" lon="6.2505">
        <ele>688</ele>
        <time>2021-03-27T13:38:49Z</time>
      </trkpt>
      <trkpt lat="45.99641" lon="6.2506">
        <ele>687.8</ele>
        <time>2021-03-27T13:38:50Z</time>
      </trkpt>
      <trkpt lat="45.99641" lon="6.25069">
        <ele>687.4</ele>
        <time>2021-03-27T13:38:51Z</time>
      </trkpt>
      <trkpt lat="45.99639" lon="6.25078">
        <ele>687.2</ele>
        <time>2021-03-27T13:38:52Z</time>
      </trkpt>
      <trkpt lat="45.99637" lon="6.25088">
        <ele>687</ele>
        <time>2021-03-27T13:38:53Z</time>
      </trkpt>
      <trkpt lat="45.99636" lon="6.25098">
        <ele>687</ele>
        <time>2021-03-27T13:38:54Z</time>
      </trkpt>
      <trkpt lat="45.99635" lon="6.25109">
        <ele>686.8</ele>
        <time>2021-03-27T13:38:55Z</time>
      </trkpt>
      <trkpt lat="45.99634" lon="6.25121">
        <ele>686.6</ele>
        <time>2021-03-27T13:38:56Z</time>
      </trkpt>
      <trkpt lat="45.99632" lon="6.25133">
        <ele>686.6</ele>
        <time>2021-03-27T13:38:57Z</time>
      </trkpt>
      <trkpt lat="45.99631" lon="6.25145">
        <ele>686.4</ele>
        <time>2021-03-27T13:38:58Z</time>
      </trkpt>
      <trkpt lat="45.9963" lon="6.25156">
        <ele>686.4</ele>
        <time>2021-03-27T13:38:59Z</time>
      </trkpt>
      <trkpt lat="45.99629" lon="6.25168">
        <ele>686.4</ele>
        <time>2021-03-27T13:39:00Z</time>
      </trkpt>
      <trkpt lat="45.99628" lon="6.2518">
        <ele>686</ele>
        <time>2021-03-27T13:39:01Z</time>
      </trkpt>
      <trkpt lat="45.99628" lon="6.25205">
        <ele>685.6</ele>
        <time>2021-03-27T13:39:03Z</time>
      </trkpt>
      <trkpt lat="45.99631" lon="6.25229">
        <ele>685.2</ele>
        <time>2021-03-27T13:39:05Z</time>
      </trkpt>
      <trkpt lat="45.9964" lon="6.25252">
        <ele>684.2</ele>
        <time>2021-03-27T13:39:07Z</time>
      </trkpt>
      <trkpt lat="45.99647" lon="6.2526">
        <ele>683.2</ele>
        <time>2021-03-27T13:39:08Z</time>
      </trkpt>
      <trkpt lat="45.99655" lon="6.25267">
        <ele>682.6</ele>
        <time>2021-03-27T13:39:09Z</time>
      </trkpt>
      <trkpt lat="45.99664" lon="6.25271">
        <ele>682.2</ele>
        <time>2021-03-27T13:39:10Z</time>
      </trkpt>
      <trkpt lat="45.99673" lon="6.25275">
        <ele>681.6</ele>
        <time>2021-03-27T13:39:11Z</time>
      </trkpt>
      <trkpt lat="45.99683" lon="6.25277">
        <ele>681.6</ele>
        <time>2021-03-27T13:39:12Z</time>
      </trkpt>
      <trkpt lat="45.99692" lon="6.25279">
        <ele>681.4</ele>
        <time>2021-03-27T13:39:13Z</time>
      </trkpt>
      <trkpt lat="45.99702" lon="6.25282">
        <ele>681.4</ele>
        <time>2021-03-27T13:39:14Z</time>
      </trkpt>
      <trkpt lat="45.99712" lon="6.25286">
        <ele>681</ele>
        <time>2021-03-27T13:39:15Z</time>
      </trkpt>
      <trkpt lat="45.99721" lon="6.25293">
        <ele>679.8</ele>
        <time>2021-03-27T13:39:16Z</time>
      </trkpt>
      <trkpt lat="45.99728" lon="6.253">
        <ele>679.2</ele>
        <time>2021-03-27T13:39:17Z</time>
      </trkpt>
      <trkpt lat="45.99734" lon="6.25309">
        <ele>678.2</ele>
        <time>2021-03-27T13:39:18Z</time>
      </trkpt>
      <trkpt lat="45.99738" lon="6.25319">
        <ele>678.2</ele>
        <time>2021-03-27T13:39:19Z</time>
      </trkpt>
      <trkpt lat="45.99739" lon="6.25328">
        <ele>677.6</ele>
        <time>2021-03-27T13:39:20Z</time>
      </trkpt>
      <trkpt lat="45.99736" lon="6.25331">
        <ele>668.4</ele>
      </trkpt>
      <trkpt lat="45.99736" lon="6.25336">
        <ele>667.9</ele>
      </trkpt>
      <trkpt lat="45.99736" lon="6.2534">
        <ele>667.5</ele>
      </trkpt>
      <trkpt lat="45.99734" lon="6.2534">
        <ele>667.4</ele>
      </trkpt>
      <trkpt lat="45.99729" lon="6.25343">
        <ele>666.8</ele>
      </trkpt>
      <trkpt lat="45.99727" lon="6.25346">
        <ele>666.4</ele>
      </trkpt>
      <trkpt lat="45.99726" lon="6.2535">
        <ele>666</ele>
      </trkpt>
      <trkpt lat="45.99726" lon="6.25354">
        <ele>665.6</ele>
      </trkpt>
      <trkpt lat="45.99729" lon="6.25361">
        <ele>665.2</ele>
      </trkpt>
      <trkpt lat="45.99732" lon="6.25363">
        <ele>665.1</ele>
      </trkpt>
      <trkpt lat="45.99737" lon="6.25362">
        <ele>665.5</ele>
      </trkpt>
      <trkpt lat="45.99741" lon="6.25357">
        <ele>666.2</ele>
      </trkpt>
      <trkpt lat="45.99742" lon="6.25356">
        <ele>666.4</ele>
      </trkpt>
      <trkpt lat="45.99745" lon="6.25358">
        <ele>666.3</ele>
      </trkpt>
      <trkpt lat="45.99751" lon="6.25362">
        <ele>666.3</ele>
      </trkpt>
      <trkpt lat="45.99758" lon="6.25367">
        <ele>666.3</ele>
      </trkpt>
      <trkpt lat="45.99773" lon="6.25375">
        <ele>666.5</ele>
      </trkpt>
      <trkpt lat="45.99797" lon="6.25378">
        <ele>667.9</ele>
      </trkpt>
      <trkpt lat="45.99807" lon="6.25382">
        <ele>668.3</ele>
      </trkpt>
      <trkpt lat="45.99813" lon="6.25388">
        <ele>668.3</ele>
      </trkpt>
      <trkpt lat="45.9982" lon="6.25401">
        <ele>667.9</ele>
      </trkpt>
      <trkpt lat="45.9982" lon="6.25415">
        <ele>667</ele>
      </trkpt>
      <trkpt lat="45.99819" lon="6.25421">
        <ele>666.7</ele>
      </trkpt>
      <trkpt lat="45.99815" lon="6.25439">
        <ele>666</ele>
      </trkpt>
      <trkpt lat="45.99812" lon="6.2545">
        <ele>665.6</ele>
      </trkpt>
      <trkpt lat="45.99808" lon="6.25459">
        <ele>665.2</ele>
      </trkpt>
      <trkpt lat="45.99803" lon="6.25468">
        <ele>664.7</ele>
      </trkpt>
      <trkpt lat="45.9978" lon="6.25495">
        <ele>662.8</ele>
      </trkpt>
      <trkpt lat="45.99773" lon="6.25505">
        <ele>662.8</ele>
      </trkpt>
      <trkpt lat="45.99766" lon="6.25514">
        <ele>663.1</ele>
      </trkpt>
      <trkpt lat="45.99743" lon="6.25545">
        <ele>664.5</ele>
      </trkpt>
      <trkpt lat="45.99733" lon="6.25565">
        <ele>665.8</ele>
      </trkpt>
      <trkpt lat="45.99713" lon="6.25616">
        <ele>669.2</ele>
      </trkpt>
      <trkpt lat="45.99703" lon="6.25633">
        <ele>670.3</ele>
      </trkpt>
      <trkpt lat="45.99693" lon="6.25645">
        <ele>671.2</ele>
      </trkpt>
      <trkpt lat="45.99684" lon="6.25651">
        <ele>671.6</ele>
      </trkpt>
      <trkpt lat="45.9967" lon="6.25654">
        <ele>671.8</ele>
      </trkpt>
      <trkpt lat="45.99662" lon="6.25652">
        <ele>671.9</ele>
      </trkpt>
      <trkpt lat="45.9963" lon="6.25636">
        <ele>672.2</ele>
      </trkpt>
      <trkpt lat="45.99619" lon="6.25635">
        <ele>672.7</ele>
      </trkpt>
      <trkpt lat="45.99604" lon="6.25642">
        <ele>674.6</ele>
      </trkpt>
      <trkpt lat="45.99599" lon="6.25648">
        <ele>675.8</ele>
      </trkpt>
      <trkpt lat="45.99596" lon="6.25656">
        <ele>677.3</ele>
      </trkpt>
      <trkpt lat="45.99595" lon="6.25663">
        <ele>678.4</ele>
      </trkpt>
      <trkpt lat="45.99597" lon="6.25673">
        <ele>679.4</ele>
      </trkpt>
      <trkpt lat="45.99605" lon="6.25692">
        <ele>680.6</ele>
      </trkpt>
      <trkpt lat="45.99622" lon="6.25702">
        <ele>680.6</ele>
      </trkpt>
      <trkpt lat="45.99614" lon="6.25699">
        <ele>680.7</ele>
      </trkpt>
      <trkpt lat="45.99666" lon="6.25725">
        <ele>680.7</ele>
      </trkpt>
      <trkpt lat="45.99675" lon="6.25733">
        <ele>681.3</ele>
      </trkpt>
      <trkpt lat="45.99685" lon="6.25751">
        <ele>682.8</ele>
      </trkpt>
      <trkpt lat="45.99687" lon="6.25758">
        <ele>683.3</ele>
      </trkpt>
      <trkpt lat="45.99688" lon="6.25762">
        <ele>683.6</ele>
      </trkpt>
      <trkpt lat="45.99687" lon="6.25775">
        <ele>684.9</ele>
      </trkpt>
      <trkpt lat="45.99684" lon="6.25787">
        <ele>686.1</ele>
      </trkpt>
      <trkpt lat="45.99679" lon="6.25796">
        <ele>687.2</ele>
      </trkpt>
      <trkpt lat="45.99674" lon="6.25803">
        <ele>688.1</ele>
      </trkpt>
      <trkpt lat="45.99654" lon="6.25814">
        <ele>689.6</ele>
      </trkpt>
      <trkpt lat="45.9956" lon="6.25833">
        <ele>691.1</ele>
      </trkpt>
      <trkpt lat="45.99545" lon="6.25844">
        <ele>691.4</ele>
      </trkpt>
      <trkpt lat="45.99489" lon="6.25912">
        <ele>695.1</ele>
      </trkpt>
      <trkpt lat="45.99457" lon="6.25955">
        <ele>698</ele>
      </trkpt>
      <trkpt lat="45.99444" lon="6.25976">
        <ele>699</ele>
      </trkpt>
      <trkpt lat="45.99408" lon="6.26026">
        <ele>700.4</ele>
      </trkpt>
      <trkpt lat="45.99386" lon="6.26047">
        <ele>700.3</ele>
      </trkpt>
      <trkpt lat="45.9933" lon="6.26099">
        <ele>697.9</ele>
      </trkpt>
      <trkpt lat="45.99277" lon="6.26164">
        <ele>697.7</ele>
      </trkpt>
      <trkpt lat="45.99251" lon="6.26195">
        <ele>698.9</ele>
      </trkpt>
      <trkpt lat="45.99192" lon="6.26265">
        <ele>700.6</ele>
      </trkpt>
      <trkpt lat="45.99163" lon="6.26337">
        <ele>703.9</ele>
      </trkpt>
      <trkpt lat="45.9913" lon="6.26423">
        <ele>713.4</ele>
      </trkpt>
      <trkpt lat="45.99106" lon="6.26469">
        <ele>720.9</ele>
      </trkpt>
      <trkpt lat="45.99065" lon="6.265">
        <ele>721.2</ele>
      </trkpt>
      <trkpt lat="45.99031" lon="6.26515">
        <ele>724.2</ele>
      </trkpt>
      <trkpt lat="45.99017" lon="6.26518">
        <ele>724.3</ele>
      </trkpt>
      <trkpt lat="45.9897" lon="6.26544">
        <ele>720.3</ele>
      </trkpt>
      <trkpt lat="45.98943" lon="6.2658">
        <ele>721.9</ele>
      </trkpt>
      <trkpt lat="45.9892" lon="6.26665">
        <ele>734.6</ele>
      </trkpt>
      <trkpt lat="45.98891" lon="6.26707">
        <ele>725.4</ele>
      </trkpt>
      <trkpt lat="45.98886" lon="6.26743">
        <ele>731</ele>
      </trkpt>
      <trkpt lat="45.98888" lon="6.26785">
        <ele>737.6</ele>
      </trkpt>
      <trkpt lat="45.98874" lon="6.26879">
        <ele>736.7</ele>
      </trkpt>
      <trkpt lat="45.98873" lon="6.26882">
        <ele>736.4</ele>
      </trkpt>
      <trkpt lat="45.98835" lon="6.26984">
        <ele>736.9</ele>
      </trkpt>
      <trkpt lat="45.98803" lon="6.27099">
        <ele>743.5</ele>
      </trkpt>
      <trkpt lat="45.98736" lon="6.27281">
        <ele>749</ele>
      </trkpt>
      <trkpt lat="45.98704" lon="6.27344">
        <ele>747.8</ele>
      </trkpt>
      <trkpt lat="45.98686" lon="6.27373">
        <ele>748.4</ele>
      </trkpt>
      <trkpt lat="45.98666" lon="6.27398">
        <ele>745.2</ele>
      </trkpt>
      <trkpt lat="45.9864" lon="6.27442">
        <ele>746.8</ele>
      </trkpt>
      <trkpt lat="45.98616" lon="6.27493">
        <ele>747.5</ele>
      </trkpt>
      <trkpt lat="45.98601" lon="6.27578">
        <ele>750.3</ele>
      </trkpt>
      <trkpt lat="45.9859" lon="6.27619">
        <ele>746.8</ele>
      </trkpt>
      <trkpt lat="45.98586" lon="6.27643">
        <ele>745.6</ele>
      </trkpt>
      <trkpt lat="45.98584" lon="6.27664">
        <ele>745.2</ele>
      </trkpt>
      <trkpt lat="45.98586" lon="6.2769">
        <ele>747</ele>
      </trkpt>
      <trkpt lat="45.98586" lon="6.27707">
        <ele>747.6</ele>
      </trkpt>
      <trkpt lat="45.98589" lon="6.27774">
        <ele>753.6</ele>
      </trkpt>
      <trkpt lat="45.98589" lon="6.27786">
        <ele>755.2</ele>
      </trkpt>
      <trkpt lat="45.98589" lon="6.27793">
        <ele>756.1</ele>
      </trkpt>
      <trkpt lat="45.98587" lon="6.27809">
        <ele>757.4</ele>
      </trkpt>
      <trkpt lat="45.98586" lon="6.27812">
        <ele>757.4</ele>
      </trkpt>
      <trkpt lat="45.98582" lon="6.27826">
        <ele>757.9</ele>
      </trkpt>
      <trkpt lat="45.98574" lon="6.2784">
        <ele>758.6</ele>
      </trkpt>
      <trkpt lat="45.98563" lon="6.27851">
        <ele>758.6</ele>
      </trkpt>
      <trkpt lat="45.98553" lon="6.27859">
        <ele>758.4</ele>
      </trkpt>
      <trkpt lat="45.98547" lon="6.27861">
        <ele>757.9</ele>
      </trkpt>
      <trkpt lat="45.9854" lon="6.27863">
        <ele>757.2</ele>
      </trkpt>
      <trkpt lat="45.98514" lon="6.27873">
        <ele>755.1</ele>
      </trkpt>
      <trkpt lat="45.985" lon="6.27884">
        <ele>754.7</ele>
      </trkpt>
      <trkpt lat="45.98486" lon="6.27899">
        <ele>755.6</ele>
      </trkpt>
      <trkpt lat="45.98473" lon="6.27915">
        <ele>756.5</ele>
      </trkpt>
      <trkpt lat="45.98439" lon="6.27976">
        <ele>757.5</ele>
      </trkpt>
      <trkpt lat="45.98428" lon="6.27996">
        <ele>756.8</ele>
      </trkpt>
      <trkpt lat="45.98423" lon="6.28004">
        <ele>756.3</ele>
      </trkpt>
      <trkpt lat="45.98414" lon="6.28026">
        <ele>755.9</ele>
      </trkpt>
      <trkpt lat="45.9841" lon="6.2804">
        <ele>756</ele>
      </trkpt>
      <trkpt lat="45.98407" lon="6.28056">
        <ele>756.4</ele>
      </trkpt>
      <trkpt lat="45.98406" lon="6.28113">
        <ele>759.9</ele>
      </trkpt>
      <trkpt lat="45.98405" lon="6.28119">
        <ele>760.2</ele>
      </trkpt>
      <trkpt lat="45.98404" lon="6.28127">
        <ele>760.7</ele>
      </trkpt>
      <trkpt lat="45.98401" lon="6.28141">
        <ele>761.4</ele>
      </trkpt>
      <trkpt lat="45.98388" lon="6.28166">
        <ele>761.9</ele>
      </trkpt>
      <trkpt lat="45.98353" lon="6.28202">
        <ele>765.2</ele>
      </trkpt>
      <trkpt lat="45.98351" lon="6.28203">
        <ele>765.2</ele>
      </trkpt>
      <trkpt lat="45.98327" lon="6.28219">
        <ele>765.8</ele>
      </trkpt>
      <trkpt lat="45.98292" lon="6.28247">
        <ele>766.5</ele>
      </trkpt>
      <trkpt lat="45.98244" lon="6.28262">
        <ele>764.3</ele>
      </trkpt>
      <trkpt lat="45.98186" lon="6.28308">
        <ele>769.9</ele>
      </trkpt>
      <trkpt lat="45.98167" lon="6.28316">
        <ele>768.7</ele>
      </trkpt>
      <trkpt lat="45.98137" lon="6.2832">
        <ele>767.9</ele>
      </trkpt>
      <trkpt lat="45.98072" lon="6.28308">
        <ele>762.7</ele>
      </trkpt>
      <trkpt lat="45.98056" lon="6.28309">
        <ele>761.8</ele>
      </trkpt>
      <trkpt lat="45.98041" lon="6.28314">
        <ele>761.5</ele>
      </trkpt>
      <trkpt lat="45.98017" lon="6.28331">
        <ele>762</ele>
      </trkpt>
      <trkpt lat="45.97963" lon="6.28376">
        <ele>764.5</ele>
      </trkpt>
      <trkpt lat="45.97925" lon="6.28401">
        <ele>765.3</ele>
      </trkpt>
      <trkpt lat="45.97853" lon="6.28444">
        <ele>764.7</ele>
      </trkpt>
      <trkpt lat="45.97823" lon="6.28469">
        <ele>764.7</ele>
      </trkpt>
      <trkpt lat="45.97813" lon="6.2848">
        <ele>764.9</ele>
      </trkpt>
      <trkpt lat="45.97807" lon="6.28486">
        <ele>765</ele>
      </trkpt>
      <trkpt lat="45.97797" lon="6.28501">
        <ele>765.6</ele>
      </trkpt>
      <trkpt lat="45.97784" lon="6.28526">
        <ele>767</ele>
      </trkpt>
      <trkpt lat="45.97778" lon="6.28538">
        <ele>767.6</ele>
      </trkpt>
      <trkpt lat="45.97749" lon="6.28592">
        <ele>769.6</ele>
      </trkpt>
      <trkpt lat="45.9774" lon="6.28608">
        <ele>769.7</ele>
      </trkpt>
      <trkpt lat="45.97735" lon="6.28619">
        <ele>770.1</ele>
      </trkpt>
      <trkpt lat="45.97726" lon="6.28634">
        <ele>770.3</ele>
      </trkpt>
      <trkpt lat="45.97716" lon="6.28647">
        <ele>770.4</ele>
      </trkpt>
      <trkpt lat="45.97691" lon="6.28664">
        <ele>769.3</ele>
      </trkpt>
      <trkpt lat="45.97685" lon="6.28668">
        <ele>769.2</ele>
      </trkpt>
      <trkpt lat="45.97676" lon="6.28674">
        <ele>769.2</ele>
      </trkpt>
      <trkpt lat="45.97672" lon="6.28676">
        <ele>769.1</ele>
      </trkpt>
      <trkpt lat="45.97653" lon="6.28686">
        <ele>769.6</ele>
      </trkpt>
      <trkpt lat="45.9763" lon="6.28697">
        <ele>770.2</ele>
      </trkpt>
      <trkpt lat="45.97568" lon="6.28716">
        <ele>769.5</ele>
      </trkpt>
      <trkpt lat="45.9755" lon="6.28722">
        <ele>769.1</ele>
      </trkpt>
      <trkpt lat="45.97522" lon="6.28737">
        <ele>769.8</ele>
      </trkpt>
      <trkpt lat="45.97464" lon="6.28775">
        <ele>771.9</ele>
      </trkpt>
      <trkpt lat="45.97451" lon="6.28786">
        <ele>772.5</ele>
      </trkpt>
      <trkpt lat="45.97439" lon="6.28804">
        <ele>774.3</ele>
      </trkpt>
      <trkpt lat="45.97417" lon="6.28847">
        <ele>780</ele>
      </trkpt>
      <trkpt lat="45.9741" lon="6.28854">
        <ele>780.8</ele>
      </trkpt>
      <trkpt lat="45.9737" lon="6.28871">
        <ele>780.9</ele>
      </trkpt>
      <trkpt lat="45.97364" lon="6.28877">
        <ele>781.7</ele>
      </trkpt>
      <trkpt lat="45.97337" lon="6.28922">
        <ele>789.8</ele>
      </trkpt>
      <trkpt lat="45.97285" lon="6.28977">
        <ele>798.6</ele>
      </trkpt>
      <trkpt lat="45.97272" lon="6.28988">
        <ele>799.8</ele>
      </trkpt>
      <trkpt lat="45.97256" lon="6.28994">
        <ele>799.2</ele>
      </trkpt>
      <trkpt lat="45.97234" lon="6.28996">
        <ele>795.5</ele>
      </trkpt>
      <trkpt lat="45.97227" lon="6.28998">
        <ele>794.5</ele>
      </trkpt>
      <trkpt lat="45.97223" lon="6.29003">
        <ele>794.8</ele>
      </trkpt>
      <trkpt lat="45.97221" lon="6.29012">
        <ele>796.2</ele>
      </trkpt>
      <trkpt lat="45.97224" lon="6.2902">
        <ele>798.4</ele>
      </trkpt>
      <trkpt lat="45.97227" lon="6.29023">
        <ele>799.6</ele>
      </trkpt>
      <trkpt lat="45.97234" lon="6.29023">
        <ele>801</ele>
      </trkpt>
      <trkpt lat="45.97257" lon="6.29017">
        <ele>804.2</ele>
      </trkpt>
      <trkpt lat="45.97268" lon="6.29015">
        <ele>805.7</ele>
      </trkpt>
      <trkpt lat="45.97276" lon="6.29017">
        <ele>807.4</ele>
      </trkpt>
      <trkpt lat="45.97294" lon="6.29023">
        <ele>811.9</ele>
      </trkpt>
      <trkpt lat="45.9733" lon="6.29022">
        <ele>818</ele>
      </trkpt>
      <trkpt lat="45.97343" lon="6.29021">
        <ele>818.6</ele>
      </trkpt>
      <trkpt lat="45.97369" lon="6.29025">
        <ele>820.8</ele>
      </trkpt>
      <trkpt lat="45.9744" lon="6.29055">
        <ele>834</ele>
      </trkpt>
      <trkpt lat="45.97452" lon="6.29057">
        <ele>835.9</ele>
      </trkpt>
      <trkpt lat="45.97478" lon="6.29053">
        <ele>837.5</ele>
      </trkpt>
      <trkpt lat="45.97501" lon="6.29042">
        <ele>836.7</ele>
      </trkpt>
      <trkpt lat="45.97529" lon="6.29036">
        <ele>838.2</ele>
      </trkpt>
      <trkpt lat="45.97589" lon="6.29034">
        <ele>843.6</ele>
      </trkpt>
      <trkpt lat="45.97602" lon="6.29037">
        <ele>844.6</ele>
      </trkpt>
      <trkpt lat="45.97631" lon="6.2906">
        <ele>853.3</ele>
      </trkpt>
      <trkpt lat="45.97645" lon="6.29065">
        <ele>854.8</ele>
      </trkpt>
      <trkpt lat="45.97657" lon="6.29063">
        <ele>853.5</ele>
      </trkpt>
      <trkpt lat="45.97665" lon="6.29066">
        <ele>854.4</ele>
      </trkpt>
      <trkpt lat="45.9767" lon="6.29071">
        <ele>856.2</ele>
      </trkpt>
      <trkpt lat="45.97672" lon="6.29078">
        <ele>858.9</ele>
      </trkpt>
      <trkpt lat="45.97672" lon="6.29084">
        <ele>861.2</ele>
      </trkpt>
      <trkpt lat="45.97669" lon="6.29089">
        <ele>863.5</ele>
      </trkpt>
      <trkpt lat="45.97663" lon="6.29092">
        <ele>865.1</ele>
      </trkpt>
      <trkpt lat="45.97651" lon="6.29091">
        <ele>865.2</ele>
      </trkpt>
      <trkpt lat="45.97611" lon="6.2908">
        <ele>862.3</ele>
      </trkpt>
      <trkpt lat="45.97602" lon="6.29079">
        <ele>862.3</ele>
      </trkpt>
      <trkpt lat="45.97592" lon="6.29082">
        <ele>864</ele>
      </trkpt>
      <trkpt lat="45.97444" lon="6.29185">
        <ele>883.3</ele>
      </trkpt>
      <trkpt lat="45.974" lon="6.29198">
        <ele>881.3</ele>
      </trkpt>
      <trkpt lat="45.97385" lon="6.29205">
        <ele>882.7</ele>
      </trkpt>
      <trkpt lat="45.97239" lon="6.29331">
        <ele>910.1</ele>
      </trkpt>
      <trkpt lat="45.972" lon="6.29358">
        <ele>914.2</ele>
      </trkpt>
      <trkpt lat="45.97154" lon="6.29385">
        <ele>914.7</ele>
      </trkpt>
      <trkpt lat="45.97121" lon="6.29413">
        <ele>914.4</ele>
      </trkpt>
      <trkpt lat="45.97096" lon="6.29444">
        <ele>915.5</ele>
      </trkpt>
      <trkpt lat="45.97089" lon="6.29457">
        <ele>917</ele>
      </trkpt>
      <trkpt lat="45.97079" lon="6.29491">
        <ele>924.3</ele>
      </trkpt>
      <trkpt lat="45.97058" lon="6.29522">
        <ele>923.6</ele>
      </trkpt>
      <trkpt lat="45.97027" lon="6.2958">
        <ele>925.4</ele>
      </trkpt>
      <trkpt lat="45.97022" lon="6.29593">
        <ele>925.9</ele>
      </trkpt>
      <trkpt lat="45.96998" lon="6.29663">
        <ele>928.9</ele>
      </trkpt>
      <trkpt lat="45.96984" lon="6.29707">
        <ele>938.5</ele>
      </trkpt>
      <trkpt lat="45.96981" lon="6.29731">
        <ele>944.4</ele>
      </trkpt>
      <trkpt lat="45.96986" lon="6.29774">
        <ele>954.9</ele>
      </trkpt>
      <trkpt lat="45.96979" lon="6.29808">
        <ele>960.6</ele>
      </trkpt>
      <trkpt lat="45.96979" lon="6.29857">
        <ele>968.3</ele>
      </trkpt>
      <trkpt lat="45.96978" lon="6.29874">
        <ele>969.9</ele>
      </trkpt>
      <trkpt lat="45.96976" lon="6.29879">
        <ele>970.1</ele>
      </trkpt>
      <trkpt lat="45.96974" lon="6.29883">
        <ele>970.2</ele>
      </trkpt>
      <trkpt lat="45.96972" lon="6.29887">
        <ele>970.3</ele>
      </trkpt>
      <trkpt lat="45.96969" lon="6.29891">
        <ele>970.2</ele>
      </trkpt>
      <trkpt lat="45.96966" lon="6.29895">
        <ele>970.2</ele>
      </trkpt>
      <trkpt lat="45.96956" lon="6.29902">
        <ele>969.4</ele>
      </trkpt>
      <trkpt lat="45.96939" lon="6.29904">
        <ele>966.8</ele>
      </trkpt>
      <trkpt lat="45.96919" lon="6.29903">
        <ele>963.4</ele>
      </trkpt>
      <trkpt lat="45.96903" lon="6.29904">
        <ele>968.5</ele>
      </trkpt>
      <trkpt lat="45.96892" lon="6.29902">
        <ele>972.6</ele>
      </trkpt>
      <trkpt lat="45.96879" lon="6.29898">
        <ele>977</ele>
      </trkpt>
      <trkpt lat="45.96868" lon="6.29889">
        <ele>979.9</ele>
      </trkpt>
      <trkpt lat="45.9686" lon="6.29882">
        <ele>981.9</ele>
      </trkpt>
      <trkpt lat="45.9685" lon="6.29869">
        <ele>983.6</ele>
      </trkpt>
      <trkpt lat="45.96834" lon="6.2984">
        <ele>984.9</ele>
      </trkpt>
      <trkpt lat="45.96829" lon="6.29833">
        <ele>986.6</ele>
      </trkpt>
      <trkpt lat="45.96819" lon="6.29828">
        <ele>991.8</ele>
      </trkpt>
      <trkpt lat="45.96807" lon="6.2982">
        <ele>997.7</ele>
      </trkpt>
      <trkpt lat="45.96801" lon="6.29814">
        <ele>1000.3</ele>
      </trkpt>
      <trkpt lat="45.96796" lon="6.29797">
        <ele>1000.3</ele>
      </trkpt>
      <trkpt lat="45.96794" lon="6.29768">
        <ele>996.3</ele>
      </trkpt>
      <trkpt lat="45.96779" lon="6.297">
        <ele>999.2</ele>
      </trkpt>
      <trkpt lat="45.96765" lon="6.29652">
        <ele>1004.9</ele>
      </trkpt>
      <trkpt lat="45.96763" lon="6.29637">
        <ele>1004.5</ele>
      </trkpt>
      <trkpt lat="45.96761" lon="6.296">
        <ele>1001.4</ele>
      </trkpt>
      <trkpt lat="45.96758" lon="6.29589">
        <ele>1002.4</ele>
      </trkpt>
      <trkpt lat="45.96739" lon="6.29557">
        <ele>1005.7</ele>
      </trkpt>
      <trkpt lat="45.96727" lon="6.29533">
        <ele>1003.5</ele>
      </trkpt>
      <trkpt lat="45.96718" lon="6.29519">
        <ele>1002.5</ele>
      </trkpt>
      <trkpt lat="45.96675" lon="6.29485">
        <ele>1003.6</ele>
      </trkpt>
      <trkpt lat="45.96644" lon="6.29469">
        <ele>1002.4</ele>
      </trkpt>
      <trkpt lat="45.96616" lon="6.29465">
        <ele>1006.3</ele>
      </trkpt>
      <trkpt lat="45.9656" lon="6.29473">
        <ele>1022.3</ele>
      </trkpt>
      <trkpt lat="45.96547" lon="6.29466">
        <ele>1021.8</ele>
      </trkpt>
      <trkpt lat="45.96528" lon="6.29452">
        <ele>1019.8</ele>
      </trkpt>
      <trkpt lat="45.96514" lon="6.29445">
        <ele>1020.2</ele>
      </trkpt>
      <trkpt lat="45.96498" lon="6.29441">
        <ele>1022.2</ele>
      </trkpt>
      <trkpt lat="45.96484" lon="6.29442">
        <ele>1024.8</ele>
      </trkpt>
      <trkpt lat="45.96477" lon="6.29446">
        <ele>1027.5</ele>
      </trkpt>
      <trkpt lat="45.9647" lon="6.29453">
        <ele>1031.5</ele>
      </trkpt>
      <trkpt lat="45.96469" lon="6.29459">
        <ele>1034.1</ele>
      </trkpt>
      <trkpt lat="45.96471" lon="6.29467">
        <ele>1037.1</ele>
      </trkpt>
      <trkpt lat="45.96474" lon="6.29472">
        <ele>1038.7</ele>
      </trkpt>
      <trkpt lat="45.96479" lon="6.29473">
        <ele>1038.3</ele>
      </trkpt>
      <trkpt lat="45.96489" lon="6.29468">
        <ele>1034.7</ele>
      </trkpt>
      <trkpt lat="45.96506" lon="6.29466">
        <ele>1030.8</ele>
      </trkpt>
      <trkpt lat="45.96513" lon="6.29468">
        <ele>1030.1</ele>
      </trkpt>
      <trkpt lat="45.96519" lon="6.29473">
        <ele>1031</ele>
      </trkpt>
      <trkpt lat="45.96526" lon="6.29483">
        <ele>1033.9</ele>
      </trkpt>
      <trkpt lat="45.96534" lon="6.29505">
        <ele>1041.9</ele>
      </trkpt>
      <trkpt lat="45.96545" lon="6.29517">
        <ele>1045.1</ele>
      </trkpt>
      <trkpt lat="45.96598" lon="6.2952">
        <ele>1037.7</ele>
      </trkpt>
      <trkpt lat="45.96611" lon="6.29523">
        <ele>1036.5</ele>
      </trkpt>
      <trkpt lat="45.96626" lon="6.29531">
        <ele>1037.1</ele>
      </trkpt>
      <trkpt lat="45.96649" lon="6.29552">
        <ele>1041.9</ele>
      </trkpt>
      <trkpt lat="45.96675" lon="6.29583">
        <ele>1047.5</ele>
      </trkpt>
      <trkpt lat="45.96679" lon="6.29592">
        <ele>1047</ele>
      </trkpt>
      <trkpt lat="45.96679" lon="6.29599">
        <ele>1048.3</ele>
      </trkpt>
      <trkpt lat="45.96677" lon="6.29606">
        <ele>1050.7</ele>
      </trkpt>
      <trkpt lat="45.96674" lon="6.29609">
        <ele>1052.9</ele>
      </trkpt>
      <trkpt lat="45.9667" lon="6.2961">
        <ele>1055.3</ele>
      </trkpt>
      <trkpt lat="45.96665" lon="6.29605">
        <ele>1056.6</ele>
      </trkpt>
      <trkpt lat="45.96653" lon="6.29581">
        <ele>1054.1</ele>
      </trkpt>
      <trkpt lat="45.96639" lon="6.29566">
        <ele>1050.4</ele>
      </trkpt>
      <trkpt lat="45.96631" lon="6.29561">
        <ele>1049.9</ele>
      </trkpt>
      <trkpt lat="45.96612" lon="6.29556">
        <ele>1051.7</ele>
      </trkpt>
      <trkpt lat="45.9659" lon="6.29561">
        <ele>1058.8</ele>
      </trkpt>
      <trkpt lat="45.96532" lon="6.29591">
        <ele>1077.6</ele>
      </trkpt>
      <trkpt lat="45.9651" lon="6.29593">
        <ele>1080</ele>
      </trkpt>
      <trkpt lat="45.96471" lon="6.29585">
        <ele>1083.4</ele>
      </trkpt>
      <trkpt lat="45.9645" lon="6.29574">
        <ele>1083.7</ele>
      </trkpt>
      <trkpt lat="45.96437" lon="6.2957">
        <ele>1085</ele>
      </trkpt>
      <trkpt lat="45.96413" lon="6.29574">
        <ele>1091.7</ele>
      </trkpt>
      <trkpt lat="45.96386" lon="6.29571">
        <ele>1095</ele>
      </trkpt>
      <trkpt lat="45.9634" lon="6.29548">
        <ele>1091.2</ele>
      </trkpt>
      <trkpt lat="45.9633" lon="6.29545">
        <ele>1090.2</ele>
      </trkpt>
      <trkpt lat="45.96304" lon="6.29548">
        <ele>1087.6</ele>
      </trkpt>
      <trkpt lat="45.96276" lon="6.29555">
        <ele>1085.9</ele>
      </trkpt>
      <trkpt lat="45.96267" lon="6.2956">
        <ele>1086.2</ele>
      </trkpt>
      <trkpt lat="45.9626" lon="6.29569">
        <ele>1088.2</ele>
      </trkpt>
      <trkpt lat="45.96258" lon="6.29581">
        <ele>1092</ele>
      </trkpt>
      <trkpt lat="45.9626" lon="6.29587">
        <ele>1094.1</ele>
      </trkpt>
      <trkpt lat="45.96265" lon="6.29589">
        <ele>1095.8</ele>
      </trkpt>
      <trkpt lat="45.9629" lon="6.29578">
        <ele>1097.9</ele>
      </trkpt>
      <trkpt lat="45.96303" lon="6.29579">
        <ele>1101.2</ele>
      </trkpt>
      <trkpt lat="45.96311" lon="6.29584">
        <ele>1105.1</ele>
      </trkpt>
      <trkpt lat="45.96385" lon="6.29642">
        <ele>1126.7</ele>
      </trkpt>
      <trkpt lat="45.96394" lon="6.29647">
        <ele>1128</ele>
      </trkpt>
      <trkpt lat="45.9641" lon="6.29651">
        <ele>1128.2</ele>
      </trkpt>
      <trkpt lat="45.9642" lon="6.29657">
        <ele>1129.6</ele>
      </trkpt>
      <trkpt lat="45.96448" lon="6.29677">
        <ele>1132.4</ele>
      </trkpt>
      <trkpt lat="45.96468" lon="6.29705">
        <ele>1139.2</ele>
      </trkpt>
      <trkpt lat="45.96475" lon="6.2971">
        <ele>1139.5</ele>
      </trkpt>
      <trkpt lat="45.96512" lon="6.29712">
        <ele>1131.9</ele>
      </trkpt>
      <trkpt lat="45.96518" lon="6.29715">
        <ele>1131.7</ele>
      </trkpt>
      <trkpt lat="45.96523" lon="6.2972">
        <ele>1132.5</ele>
      </trkpt>
      <trkpt lat="45.96528" lon="6.29728">
        <ele>1134.2</ele>
      </trkpt>
      <trkpt lat="45.96544" lon="6.29768">
        <ele>1142.9</ele>
      </trkpt>
      <trkpt lat="45.96581" lon="6.29824">
        <ele>1148.2</ele>
      </trkpt>
      <trkpt lat="45.96591" lon="6.29847">
        <ele>1148.2</ele>
      </trkpt>
      <trkpt lat="45.96597" lon="6.29875">
        <ele>1150.7</ele>
      </trkpt>
      <trkpt lat="45.96608" lon="6.29943">
        <ele>1157.2</ele>
      </trkpt>
      <trkpt lat="45.96611" lon="6.29989">
        <ele>1162.4</ele>
      </trkpt>
      <trkpt lat="45.96614" lon="6.30013">
        <ele>1165.4</ele>
      </trkpt>
      <trkpt lat="45.96617" lon="6.30022">
        <ele>1165.8</ele>
      </trkpt>
      <trkpt lat="45.96631" lon="6.30044">
        <ele>1162.5</ele>
      </trkpt>
      <trkpt lat="45.96631" lon="6.30051">
        <ele>1164.4</ele>
      </trkpt>
      <trkpt lat="45.9663" lon="6.30055">
        <ele>1166.1</ele>
      </trkpt>
      <trkpt lat="45.9662" lon="6.30057">
        <ele>1173.1</ele>
      </trkpt>
      <trkpt lat="45.96616" lon="6.30052">
        <ele>1174.4</ele>
      </trkpt>
      <trkpt lat="45.96612" lon="6.30045">
        <ele>1175.1</ele>
      </trkpt>
      <trkpt lat="45.96607" lon="6.30034">
        <ele>1175.6</ele>
      </trkpt>
      <trkpt lat="45.96602" lon="6.30011">
        <ele>1173</ele>
      </trkpt>
      <trkpt lat="45.96595" lon="6.29959">
        <ele>1168.3</ele>
      </trkpt>
      <trkpt lat="45.96588" lon="6.29942">
        <ele>1170.2</ele>
      </trkpt>
      <trkpt lat="45.96567" lon="6.29904">
        <ele>1171.1</ele>
      </trkpt>
      <trkpt lat="45.9655" lon="6.29888">
        <ele>1172.5</ele>
      </trkpt>
      <trkpt lat="45.96539" lon="6.29878">
        <ele>1173.3</ele>
      </trkpt>
      <trkpt lat="45.96519" lon="6.29866">
        <ele>1176.1</ele>
      </trkpt>
      <trkpt lat="45.96496" lon="6.29855">
        <ele>1179.5</ele>
      </trkpt>
      <trkpt lat="45.96449" lon="6.29845">
        <ele>1185.1</ele>
      </trkpt>
      <trkpt lat="45.96422" lon="6.29841">
        <ele>1188.6</ele>
      </trkpt>
      <trkpt lat="45.96394" lon="6.29833">
        <ele>1188.8</ele>
      </trkpt>
      <trkpt lat="45.96366" lon="6.2983">
        <ele>1190.3</ele>
      </trkpt>
      <trkpt lat="45.96335" lon="6.29837">
        <ele>1195.2</ele>
      </trkpt>
      <trkpt lat="45.96327" lon="6.29841">
        <ele>1196</ele>
      </trkpt>
      <trkpt lat="45.96325" lon="6.29853">
        <ele>1200.2</ele>
      </trkpt>
      <trkpt lat="45.96327" lon="6.29859">
        <ele>1202.7</ele>
      </trkpt>
      <trkpt lat="45.96335" lon="6.29863">
        <ele>1204.9</ele>
      </trkpt>
      <trkpt lat="45.96355" lon="6.29852">
        <ele>1198.9</ele>
      </trkpt>
      <trkpt lat="45.96372" lon="6.2985">
        <ele>1196.6</ele>
      </trkpt>
      <trkpt lat="45.96384" lon="6.29855">
        <ele>1197.2</ele>
      </trkpt>
      <trkpt lat="45.96393" lon="6.29863">
        <ele>1199</ele>
      </trkpt>
      <trkpt lat="45.96405" lon="6.29876">
        <ele>1202.1</ele>
      </trkpt>
      <trkpt lat="45.96442" lon="6.29926">
        <ele>1210.6</ele>
      </trkpt>
      <trkpt lat="45.96474" lon="6.29951">
        <ele>1208.9</ele>
      </trkpt>
      <trkpt lat="45.96532" lon="6.30017">
        <ele>1206.4</ele>
      </trkpt>
      <trkpt lat="45.96539" lon="6.30028">
        <ele>1206.9</ele>
      </trkpt>
      <trkpt lat="45.96539" lon="6.30035">
        <ele>1208.9</ele>
      </trkpt>
      <trkpt lat="45.96533" lon="6.30043">
        <ele>1213.6</ele>
      </trkpt>
      <trkpt lat="45.96527" lon="6.30044">
        <ele>1216.3</ele>
      </trkpt>
      <trkpt lat="45.96522" lon="6.30041">
        <ele>1217.5</ele>
      </trkpt>
      <trkpt lat="45.96502" lon="6.30014">
        <ele>1216.8</ele>
      </trkpt>
      <trkpt lat="45.96494" lon="6.30005">
        <ele>1216.3</ele>
      </trkpt>
      <trkpt lat="45.96484" lon="6.29999">
        <ele>1217.2</ele>
      </trkpt>
      <trkpt lat="45.96431" lon="6.29993">
        <ele>1230.3</ele>
      </trkpt>
      <trkpt lat="45.9642" lon="6.2999">
        <ele>1232.5</ele>
      </trkpt>
      <trkpt lat="45.96403" lon="6.2998">
        <ele>1234</ele>
      </trkpt>
      <trkpt lat="45.9636" lon="6.29949">
        <ele>1233.2</ele>
      </trkpt>
      <trkpt lat="45.96351" lon="6.29945">
        <ele>1233.4</ele>
      </trkpt>
      <trkpt lat="45.96339" lon="6.29943">
        <ele>1234.7</ele>
      </trkpt>
      <trkpt lat="45.96322" lon="6.29948">
        <ele>1236.2</ele>
      </trkpt>
      <trkpt lat="45.96245" lon="6.29985">
        <ele>1241.2</ele>
      </trkpt>
      <trkpt lat="45.96237" lon="6.29993">
        <ele>1242.8</ele>
      </trkpt>
      <trkpt lat="45.96221" lon="6.30028">
        <ele>1255.2</ele>
      </trkpt>
      <trkpt lat="45.96205" lon="6.30045">
        <ele>1259.2</ele>
      </trkpt>
      <trkpt lat="45.96175" lon="6.30084">
        <ele>1269.5</ele>
      </trkpt>
      <trkpt lat="45.96165" lon="6.30094">
        <ele>1272</ele>
      </trkpt>
      <trkpt lat="45.96156" lon="6.30097">
        <ele>1273.5</ele>
      </trkpt>
      <trkpt lat="45.96148" lon="6.30097">
        <ele>1273.7</ele>
      </trkpt>
      <trkpt lat="45.96122" lon="6.30075">
        <ele>1263.4</ele>
      </trkpt>
      <trkpt lat="45.9611" lon="6.30072">
        <ele>1261.9</ele>
      </trkpt>
      <trkpt lat="45.96102" lon="6.3007">
        <ele>1260.8</ele>
      </trkpt>
      <trkpt lat="45.96083" lon="6.30072">
        <ele>1261.8</ele>
      </trkpt>
      <trkpt lat="45.96069" lon="6.3007">
        <ele>1257</ele>
      </trkpt>
      <trkpt lat="45.96061" lon="6.30073">
        <ele>1256.5</ele>
      </trkpt>
      <trkpt lat="45.96058" lon="6.30075">
        <ele>1256.8</ele>
      </trkpt>
      <trkpt lat="45.96056" lon="6.3008">
        <ele>1259</ele>
      </trkpt>
      <trkpt lat="45.96057" lon="6.30087">
        <ele>1262.8</ele>
      </trkpt>
      <trkpt lat="45.96064" lon="6.30093">
        <ele>1267.6</ele>
      </trkpt>
      <trkpt lat="45.96092" lon="6.30088">
        <ele>1270.1</ele>
      </trkpt>
      <trkpt lat="45.96112" lon="6.30092">
        <ele>1271.8</ele>
      </trkpt>
      <trkpt lat="45.96149" lon="6.30136">
        <ele>1292</ele>
      </trkpt>
      <trkpt lat="45.96163" lon="6.30139">
        <ele>1293.1</ele>
      </trkpt>
      <trkpt lat="45.9617" lon="6.30136">
        <ele>1292.5</ele>
      </trkpt>
      <trkpt lat="45.96192" lon="6.30113">
        <ele>1287.4</ele>
      </trkpt>
      <trkpt lat="45.96247" lon="6.30072">
        <ele>1282.8</ele>
      </trkpt>
      <trkpt lat="45.96271" lon="6.30056">
        <ele>1277</ele>
      </trkpt>
      <trkpt lat="45.96296" lon="6.30049">
        <ele>1275.4</ele>
      </trkpt>
      <trkpt lat="45.96305" lon="6.30049">
        <ele>1276</ele>
      </trkpt>
      <trkpt lat="45.96313" lon="6.30053">
        <ele>1278.2</ele>
      </trkpt>
      <trkpt lat="45.96321" lon="6.30061">
        <ele>1281.8</ele>
      </trkpt>
      <trkpt lat="45.9635" lon="6.30103">
        <ele>1293.4</ele>
      </trkpt>
      <trkpt lat="45.9637" lon="6.30155">
        <ele>1306.6</ele>
      </trkpt>
      <trkpt lat="45.96392" lon="6.30193">
        <ele>1312.5</ele>
      </trkpt>
      <trkpt lat="45.96405" lon="6.30211">
        <ele>1314.2</ele>
      </trkpt>
      <trkpt lat="45.96435" lon="6.30232">
        <ele>1311.1</ele>
      </trkpt>
      <trkpt lat="45.96464" lon="6.30257">
        <ele>1310.2</ele>
      </trkpt>
      <trkpt lat="45.96471" lon="6.3027">
        <ele>1312.7</ele>
      </trkpt>
      <trkpt lat="45.9647" lon="6.30284">
        <ele>1318.7</ele>
      </trkpt>
      <trkpt lat="45.96466" lon="6.30288">
        <ele>1321.9</ele>
      </trkpt>
      <trkpt lat="45.96461" lon="6.30288">
        <ele>1323.9</ele>
      </trkpt>
      <trkpt lat="45.96456" lon="6.30286">
        <ele>1325.1</ele>
      </trkpt>
      <trkpt lat="45.96438" lon="6.30263">
        <ele>1322.6</ele>
      </trkpt>
      <trkpt lat="45.96428" lon="6.30257">
        <ele>1323.8</ele>
      </trkpt>
      <trkpt lat="45.96393" lon="6.30246">
        <ele>1333.9</ele>
      </trkpt>
      <trkpt lat="45.96383" lon="6.30239">
        <ele>1335.4</ele>
      </trkpt>
      <trkpt lat="45.96363" lon="6.3022">
        <ele>1336.4</ele>
      </trkpt>
      <trkpt lat="45.96318" lon="6.30168">
        <ele>1327.4</ele>
      </trkpt>
      <trkpt lat="45.96311" lon="6.30163">
        <ele>1325.1</ele>
      </trkpt>
      <trkpt lat="45.96297" lon="6.30161">
        <ele>1324.1</ele>
      </trkpt>
      <trkpt lat="45.96293" lon="6.30163">
        <ele>1324.9</ele>
      </trkpt>
      <trkpt lat="45.96276" lon="6.30187">
        <ele>1335.4</ele>
      </trkpt>
      <trkpt lat="45.96237" lon="6.30222">
        <ele>1348.7</ele>
      </trkpt>
      <trkpt lat="45.96203" lon="6.30265">
        <ele>1363.1</ele>
      </trkpt>
      <trkpt lat="45.96167" lon="6.30289">
        <ele>1367.4</ele>
      </trkpt>
      <trkpt lat="45.96156" lon="6.30294">
        <ele>1369.4</ele>
      </trkpt>
      <trkpt lat="45.96143" lon="6.30294">
        <ele>1369.2</ele>
      </trkpt>
      <trkpt lat="45.96111" lon="6.30285">
        <ele>1365.2</ele>
      </trkpt>
      <trkpt lat="45.96101" lon="6.30285">
        <ele>1365.1</ele>
      </trkpt>
      <trkpt lat="45.96044" lon="6.30301">
        <ele>1361.5</ele>
      </trkpt>
      <trkpt lat="45.96036" lon="6.30306">
        <ele>1361.5</ele>
      </trkpt>
      <trkpt lat="45.9603" lon="6.30315">
        <ele>1363.6</ele>
      </trkpt>
      <trkpt lat="45.96017" lon="6.3034">
        <ele>1368.6</ele>
      </trkpt>
      <trkpt lat="45.95969" lon="6.30392">
        <ele>1370.2</ele>
      </trkpt>
      <trkpt lat="45.95955" lon="6.30412">
        <ele>1372.4</ele>
      </trkpt>
      <trkpt lat="45.95926" lon="6.30476">
        <ele>1394.6</ele>
      </trkpt>
      <trkpt lat="45.95919" lon="6.30486">
        <ele>1398.4</ele>
      </trkpt>
      <trkpt lat="45.95904" lon="6.30494">
        <ele>1401.8</ele>
      </trkpt>
      <trkpt lat="45.95881" lon="6.305">
        <ele>1403.6</ele>
      </trkpt>
      <trkpt lat="45.95848" lon="6.30515">
        <ele>1406.9</ele>
      </trkpt>
      <trkpt lat="45.95841" lon="6.30522">
        <ele>1407.9</ele>
      </trkpt>
      <trkpt lat="45.95827" lon="6.30551">
        <ele>1410.9</ele>
      </trkpt>
      <trkpt lat="45.95809" lon="6.30607">
        <ele>1408.7</ele>
      </trkpt>
      <trkpt lat="45.9579" lon="6.30683">
        <ele>1399.8</ele>
      </trkpt>
      <trkpt lat="45.95783" lon="6.30714">
        <ele>1397.2</ele>
      </trkpt>
      <trkpt lat="45.95776" lon="6.30752">
        <ele>1394</ele>
      </trkpt>
      <trkpt lat="45.95771" lon="6.30798">
        <ele>1391.3</ele>
      </trkpt>
      <trkpt lat="45.95765" lon="6.30894">
        <ele>1386.2</ele>
      </trkpt>
      <trkpt lat="45.95762" lon="6.30911">
        <ele>1382.8</ele>
      </trkpt>
      <trkpt lat="45.95753" lon="6.30946">
        <ele>1378.7</ele>
      </trkpt>
      <trkpt lat="45.95738" lon="6.31034">
        <ele>1383.2</ele>
      </trkpt>
      <trkpt lat="45.95727" lon="6.31063">
        <ele>1381.9</ele>
      </trkpt>
      <trkpt lat="45.95712" lon="6.31098">
        <ele>1379.5</ele>
      </trkpt>
      <trkpt lat="45.95702" lon="6.31136">
        <ele>1379.3</ele>
      </trkpt>
      <trkpt lat="45.9569" lon="6.31209">
        <ele>1377.4</ele>
      </trkpt>
      <trkpt lat="45.9569" lon="6.31227">
        <ele>1377.5</ele>
      </trkpt>
      <trkpt lat="45.95693" lon="6.31248">
        <ele>1379</ele>
      </trkpt>
      <trkpt lat="45.95707" lon="6.31319">
        <ele>1383.2</ele>
      </trkpt>
      <trkpt lat="45.95709" lon="6.31372">
        <ele>1382</ele>
      </trkpt>
      <trkpt lat="45.95718" lon="6.31453">
        <ele>1385.5</ele>
      </trkpt>
      <trkpt lat="45.95715" lon="6.31499">
        <ele>1383.8</ele>
      </trkpt>
      <trkpt lat="45.95718" lon="6.31522">
        <ele>1384</ele>
      </trkpt>
      <trkpt lat="45.95726" lon="6.31547">
        <ele>1387</ele>
      </trkpt>
      <trkpt lat="45.95754" lon="6.3161">
        <ele>1395.9</ele>
      </trkpt>
      <trkpt lat="45.95772" lon="6.31665">
        <ele>1396.6</ele>
      </trkpt>
      <trkpt lat="45.95776" lon="6.31683">
        <ele>1398.3</ele>
      </trkpt>
      <trkpt lat="45.95779" lon="6.31714">
        <ele>1399</ele>
      </trkpt>
      <trkpt lat="45.9579" lon="6.31759">
        <ele>1404.2</ele>
      </trkpt>
      <trkpt lat="45.95795" lon="6.31807">
        <ele>1407.2</ele>
      </trkpt>
      <trkpt lat="45.958" lon="6.31827">
        <ele>1409.4</ele>
      </trkpt>
      <trkpt lat="45.95912" lon="6.32035">
        <ele>1429.4</ele>
      </trkpt>
      <trkpt lat="45.95935" lon="6.32071">
        <ele>1432.6</ele>
      </trkpt>
      <trkpt lat="45.95936" lon="6.32073">
        <ele>1432.6</ele>
      </trkpt>
      <trkpt lat="45.95942" lon="6.3208">
        <ele>1433.7</ele>
      </trkpt>
      <trkpt lat="45.95948" lon="6.32086">
        <ele>1434.8</ele>
      </trkpt>
      <trkpt lat="45.95988" lon="6.32133">
        <ele>1436.6</ele>
      </trkpt>
      <trkpt lat="45.95998" lon="6.32146">
        <ele>1435.2</ele>
      </trkpt>
      <trkpt lat="45.9609" lon="6.32258">
        <ele>1427.4</ele>
      </trkpt>
      <trkpt lat="45.96092" lon="6.3226">
        <ele>1427.3</ele>
      </trkpt>
      <trkpt lat="45.961" lon="6.32272">
        <ele>1426.5</ele>
      </trkpt>
      <trkpt lat="45.96111" lon="6.32288">
        <ele>1425.4</ele>
      </trkpt>
      <trkpt lat="45.9613" lon="6.32313">
        <ele>1424.3</ele>
      </trkpt>
      <trkpt lat="45.96185" lon="6.32403">
        <ele>1421.9</ele>
      </trkpt>
      <trkpt lat="45.96254" lon="6.32524">
        <ele>1428.3</ele>
      </trkpt>
      <trkpt lat="45.96279" lon="6.32575">
        <ele>1430.7</ele>
      </trkpt>
      <trkpt lat="45.96317" lon="6.32642">
        <ele>1434.7</ele>
      </trkpt>
      <trkpt lat="45.9633" lon="6.32663">
        <ele>1435.7</ele>
      </trkpt>
      <trkpt lat="45.96339" lon="6.32677">
        <ele>1436.2</ele>
      </trkpt>
      <trkpt lat="45.96342" lon="6.32683">
        <ele>1436.2</ele>
      </trkpt>
      <trkpt lat="45.96346" lon="6.32689">
        <ele>1436.3</ele>
      </trkpt>
      <trkpt lat="45.96362" lon="6.32717">
        <ele>1435.9</ele>
      </trkpt>
      <trkpt lat="45.96368" lon="6.32726">
        <ele>1435.6</ele>
      </trkpt>
      <trkpt lat="45.96381" lon="6.3275">
        <ele>1434</ele>
      </trkpt>
      <trkpt lat="45.96386" lon="6.32757">
        <ele>1434.1</ele>
      </trkpt>
      <trkpt lat="45.9639" lon="6.32765">
        <ele>1434.1</ele>
      </trkpt>
      <trkpt lat="45.96445" lon="6.32854">
        <ele>1437.7</ele>
      </trkpt>
      <trkpt lat="45.96485" lon="6.3291">
        <ele>1436.3</ele>
      </trkpt>
      <trkpt lat="45.96519" lon="6.32962">
        <ele>1438.8</ele>
      </trkpt>
      <trkpt lat="45.96542" lon="6.33003">
        <ele>1439.8</ele>
      </trkpt>
      <trkpt lat="45.96559" lon="6.33031">
        <ele>1440.9</ele>
      </trkpt>
      <trkpt lat="45.96588" lon="6.33082">
        <ele>1441</ele>
      </trkpt>
      <trkpt lat="45.96592" lon="6.33087">
        <ele>1441.4</ele>
      </trkpt>
      <trkpt lat="45.96615" lon="6.33127">
        <ele>1442.9</ele>
      </trkpt>
      <trkpt lat="45.96618" lon="6.33133">
        <ele>1442.9</ele>
      </trkpt>
      <trkpt lat="45.96634" lon="6.33159">
        <ele>1443.5</ele>
      </trkpt>
      <trkpt lat="45.96665" lon="6.33213">
        <ele>1443.8</ele>
      </trkpt>
      <trkpt lat="45.96669" lon="6.33219">
        <ele>1443.8</ele>
      </trkpt>
      <trkpt lat="45.9667" lon="6.33221">
        <ele>1443.8</ele>
      </trkpt>
      <trkpt lat="45.96675" lon="6.33226">
        <ele>1443.8</ele>
      </trkpt>
      <trkpt lat="45.96719" lon="6.33284">
        <ele>1440.9</ele>
      </trkpt>
      <trkpt lat="45.9673" lon="6.33297">
        <ele>1440.5</ele>
      </trkpt>
      <trkpt lat="45.96779" lon="6.33368">
        <ele>1435.5</ele>
      </trkpt>
      <trkpt lat="45.96816" lon="6.33413">
        <ele>1429.3</ele>
      </trkpt>
      <trkpt lat="45.96831" lon="6.33436">
        <ele>1427.5</ele>
      </trkpt>
      <trkpt lat="45.96861" lon="6.33469">
        <ele>1427.6</ele>
      </trkpt>
      <trkpt lat="45.96895" lon="6.33513">
        <ele>1425.1</ele>
      </trkpt>
      <trkpt lat="45.96905" lon="6.33528">
        <ele>1423.7</ele>
      </trkpt>
      <trkpt lat="45.96923" lon="6.33565">
        <ele>1420.4</ele>
      </trkpt>
      <trkpt lat="45.9695" lon="6.336">
        <ele>1420.7</ele>
      </trkpt>
      <trkpt lat="45.96956" lon="6.33612">
        <ele>1420.9</ele>
      </trkpt>
      <trkpt lat="45.96978" lon="6.33678">
        <ele>1419.3</ele>
      </trkpt>
      <trkpt lat="45.96989" lon="6.33721">
        <ele>1416.9</ele>
      </trkpt>
      <trkpt lat="45.97007" lon="6.33764">
        <ele>1414.6</ele>
      </trkpt>
      <trkpt lat="45.97041" lon="6.33883">
        <ele>1409.5</ele>
      </trkpt>
      <trkpt lat="45.97046" lon="6.3391">
        <ele>1407.8</ele>
      </trkpt>
      <trkpt lat="45.97054" lon="6.33946">
        <ele>1404.8</ele>
      </trkpt>
      <trkpt lat="45.97061" lon="6.33966">
        <ele>1403</ele>
      </trkpt>
      <trkpt lat="45.97069" lon="6.34002">
        <ele>1399.9</ele>
      </trkpt>
      <trkpt lat="45.97068" lon="6.34013">
        <ele>1399.9</ele>
      </trkpt>
      <trkpt lat="45.97061" lon="6.34051">
        <ele>1400.3</ele>
      </trkpt>
      <trkpt lat="45.97061" lon="6.34056">
        <ele>1400.3</ele>
      </trkpt>
      <trkpt lat="45.9707" lon="6.34085">
        <ele>1399.8</ele>
      </trkpt>
      <trkpt lat="45.97101" lon="6.34151">
        <ele>1400.1</ele>
      </trkpt>
      <trkpt lat="45.97111" lon="6.34188">
        <ele>1400.3</ele>
      </trkpt>
      <trkpt lat="45.97129" lon="6.34245">
        <ele>1399.7</ele>
      </trkpt>
      <trkpt lat="45.97151" lon="6.34303">
        <ele>1396</ele>
      </trkpt>
      <trkpt lat="45.97162" lon="6.34353">
        <ele>1393.7</ele>
      </trkpt>
      <trkpt lat="45.97174" lon="6.34382">
        <ele>1392.8</ele>
      </trkpt>
      <trkpt lat="45.97188" lon="6.34408">
        <ele>1392.2</ele>
      </trkpt>
      <trkpt lat="45.97191" lon="6.34418">
        <ele>1392</ele>
      </trkpt>
      <trkpt lat="45.97191" lon="6.34441">
        <ele>1391.2</ele>
      </trkpt>
      <trkpt lat="45.97182" lon="6.34496">
        <ele>1389.7</ele>
      </trkpt>
      <trkpt lat="45.97183" lon="6.34522">
        <ele>1390</ele>
      </trkpt>
      <trkpt lat="45.97184" lon="6.34527">
        <ele>1390</ele>
      </trkpt>
      <trkpt lat="45.97209" lon="6.34581">
        <ele>1389.4</ele>
      </trkpt>
      <trkpt lat="45.97212" lon="6.34591">
        <ele>1389.3</ele>
      </trkpt>
      <trkpt lat="45.97214" lon="6.34599">
        <ele>1389.2</ele>
      </trkpt>
      <trkpt lat="45.97216" lon="6.34604">
        <ele>1389.1</ele>
      </trkpt>
      <trkpt lat="45.97221" lon="6.34649">
        <ele>1389</ele>
      </trkpt>
      <trkpt lat="45.97235" lon="6.34694">
        <ele>1388.2</ele>
      </trkpt>
      <trkpt lat="45.9726" lon="6.34747">
        <ele>1387.2</ele>
      </trkpt>
      <trkpt lat="45.97284" lon="6.34785">
        <ele>1388.1</ele>
      </trkpt>
      <trkpt lat="45.97309" lon="6.34818">
        <ele>1388.7</ele>
      </trkpt>
      <trkpt lat="45.97322" lon="6.34834">
        <ele>1388.8</ele>
      </trkpt>
      <trkpt lat="45.97332" lon="6.34852">
        <ele>1388.5</ele>
      </trkpt>
      <trkpt lat="45.97348" lon="6.3491">
        <ele>1388</ele>
      </trkpt>
      <trkpt lat="45.97363" lon="6.34947">
        <ele>1389.7</ele>
      </trkpt>
      <trkpt lat="45.97393" lon="6.35003">
        <ele>1392.9</ele>
      </trkpt>
      <trkpt lat="45.97384" lon="6.35011">
        <ele>1392.7</ele>
      </trkpt>
      <trkpt lat="45.9736" lon="6.35025">
        <ele>1392.3</ele>
      </trkpt>
      <trkpt lat="45.97303" lon="6.35051">
        <ele>1392.5</ele>
      </trkpt>
      <trkpt lat="45.97293" lon="6.3505">
        <ele>1392.2</ele>
      </trkpt>
      <trkpt lat="45.97255" lon="6.35036">
        <ele>1390.8</ele>
      </trkpt>
      <trkpt lat="45.97251" lon="6.35035">
        <ele>1390.7</ele>
      </trkpt>
      <trkpt lat="45.97248" lon="6.35035">
        <ele>1390.6</ele>
      </trkpt>
      <trkpt lat="45.97243" lon="6.35037">
        <ele>1390.6</ele>
      </trkpt>
      <trkpt lat="45.97241" lon="6.35041">
        <ele>1390.7</ele>
      </trkpt>
      <trkpt lat="45.97238" lon="6.35049">
        <ele>1390.9</ele>
      </trkpt>
      <trkpt lat="45.97237" lon="6.35051">
        <ele>1390.9</ele>
      </trkpt>
      <trkpt lat="45.97237" lon="6.35053">
        <ele>1391</ele>
      </trkpt>
      <trkpt lat="45.97236" lon="6.35055">
        <ele>1391</ele>
      </trkpt>
      <trkpt lat="45.97231" lon="6.35063">
        <ele>1390.9</ele>
      </trkpt>
      <trkpt lat="45.97214" lon="6.3508">
        <ele>1390</ele>
      </trkpt>
      <trkpt lat="45.97212" lon="6.35082">
        <ele>1389.8</ele>
      </trkpt>
      <trkpt lat="45.97208" lon="6.35085">
        <ele>1389.5</ele>
      </trkpt>
      <trkpt lat="45.97197" lon="6.35096">
        <ele>1388.5</ele>
      </trkpt>
      <trkpt lat="45.97191" lon="6.35106">
        <ele>1387.9</ele>
      </trkpt>
      <trkpt lat="45.97188" lon="6.35118">
        <ele>1387.6</ele>
      </trkpt>
      <trkpt lat="45.97181" lon="6.3516">
        <ele>1386.6</ele>
      </trkpt>
      <trkpt lat="45.97178" lon="6.35169">
        <ele>1386.2</ele>
      </trkpt>
      <trkpt lat="45.97172" lon="6.35178">
        <ele>1385.6</ele>
      </trkpt>
      <trkpt lat="45.97155" lon="6.35195">
        <ele>1385.6</ele>
      </trkpt>
      <trkpt lat="45.97142" lon="6.35228">
        <ele>1384.6</ele>
      </trkpt>
      <trkpt lat="45.97131" lon="6.35252">
        <ele>1382.6</ele>
      </trkpt>
      <trkpt lat="45.97129" lon="6.3526">
        <ele>1381.4</ele>
      </trkpt>
      <trkpt lat="45.97128" lon="6.35265">
        <ele>1380.7</ele>
      </trkpt>
      <trkpt lat="45.97127" lon="6.35288">
        <ele>1377.5</ele>
      </trkpt>
      <trkpt lat="45.97129" lon="6.35299">
        <ele>1376.3</ele>
      </trkpt>
      <trkpt lat="45.97135" lon="6.35327">
        <ele>1373.7</ele>
      </trkpt>
      <trkpt lat="45.97153" lon="6.35391">
        <ele>1365.3</ele>
      </trkpt>
      <trkpt lat="45.97156" lon="6.35408">
        <ele>1362.4</ele>
      </trkpt>
      <trkpt lat="45.97161" lon="6.35471">
        <ele>1351.9</ele>
      </trkpt>
      <trkpt lat="45.97175" lon="6.35524">
        <ele>1347.2</ele>
      </trkpt>
      <trkpt lat="45.97195" lon="6.35617">
        <ele>1346.5</ele>
      </trkpt>
      <trkpt lat="45.97197" lon="6.35629">
        <ele>1346.3</ele>
      </trkpt>
      <trkpt lat="45.97196" lon="6.35657">
        <ele>1342.7</ele>
      </trkpt>
      <trkpt lat="45.97198" lon="6.35694">
        <ele>1338.4</ele>
      </trkpt>
      <trkpt lat="45.97201" lon="6.35712">
        <ele>1337.2</ele>
      </trkpt>
      <trkpt lat="45.97215" lon="6.35767">
        <ele>1336.9</ele>
      </trkpt>
      <trkpt lat="45.97217" lon="6.35787">
        <ele>1335.9</ele>
      </trkpt>
      <trkpt lat="45.97218" lon="6.35812">
        <ele>1333.7</ele>
      </trkpt>
      <trkpt lat="45.97222" lon="6.35843">
        <ele>1332.5</ele>
      </trkpt>
      <trkpt lat="45.97224" lon="6.35867">
        <ele>1331.5</ele>
      </trkpt>
      <trkpt lat="45.97224" lon="6.35884">
        <ele>1330.2</ele>
      </trkpt>
      <trkpt lat="45.97217" lon="6.35913">
        <ele>1325.2</ele>
      </trkpt>
      <trkpt lat="45.97216" lon="6.35937">
        <ele>1322.2</ele>
      </trkpt>
      <trkpt lat="45.97217" lon="6.35955">
        <ele>1320.4</ele>
      </trkpt>
      <trkpt lat="45.97223" lon="6.36003">
        <ele>1316.7</ele>
      </trkpt>
      <trkpt lat="45.97222" lon="6.36028">
        <ele>1311.4</ele>
      </trkpt>
      <trkpt lat="45.97225" lon="6.36054">
        <ele>1307.3</ele>
      </trkpt>
      <trkpt lat="45.9723" lon="6.36076">
        <ele>1304.5</ele>
      </trkpt>
      <trkpt lat="45.97239" lon="6.36104">
        <ele>1300.3</ele>
      </trkpt>
      <trkpt lat="45.97306" lon="6.36243">
        <ele>1290.4</ele>
      </trkpt>
      <trkpt lat="45.97312" lon="6.3626">
        <ele>1288.5</ele>
      </trkpt>
      <trkpt lat="45.97315" lon="6.36274">
        <ele>1286.1</ele>
      </trkpt>
      <trkpt lat="45.97318" lon="6.3629">
        <ele>1282.8</ele>
      </trkpt>
      <trkpt lat="45.97321" lon="6.36334">
        <ele>1271.9</ele>
      </trkpt>
      <trkpt lat="45.97324" lon="6.36356">
        <ele>1268.4</ele>
      </trkpt>
      <trkpt lat="45.97335" lon="6.36389">
        <ele>1262.2</ele>
      </trkpt>
      <trkpt lat="45.97341" lon="6.36402">
        <ele>1261.6</ele>
      </trkpt>
      <trkpt lat="45.97348" lon="6.36414">
        <ele>1261.5</ele>
      </trkpt>
      <trkpt lat="45.97375" lon="6.36448">
        <ele>1263</ele>
      </trkpt>
      <trkpt lat="45.97384" lon="6.36465">
        <ele>1261.5</ele>
      </trkpt>
      <trkpt lat="45.97395" lon="6.365">
        <ele>1255.1</ele>
      </trkpt>
      <trkpt lat="45.97417" lon="6.36592">
        <ele>1235.7</ele>
      </trkpt>
      <trkpt lat="45.97423" lon="6.36615">
        <ele>1236.6</ele>
      </trkpt>
      <trkpt lat="45.97453" lon="6.36691">
        <ele>1233.2</ele>
      </trkpt>
      <trkpt lat="45.97467" lon="6.36733">
        <ele>1226.5</ele>
      </trkpt>
      <trkpt lat="45.97496" lon="6.36835">
        <ele>1210.9</ele>
      </trkpt>
      <trkpt lat="45.97505" lon="6.36857">
        <ele>1209.7</ele>
      </trkpt>
      <trkpt lat="45.97515" lon="6.36877">
        <ele>1210.1</ele>
      </trkpt>
      <trkpt lat="45.97526" lon="6.36891">
        <ele>1209.6</ele>
      </trkpt>
      <trkpt lat="45.97526" lon="6.36891">
        <ele>1209.6</ele>
      </trkpt>
      <trkpt lat="45.97541" lon="6.36906">
        <ele>1208.1</ele>
      </trkpt>
      <trkpt lat="45.97671" lon="6.37021">
        <ele>1212.7</ele>
      </trkpt>
      <trkpt lat="45.9768" lon="6.37041">
        <ele>1212.2</ele>
      </trkpt>
      <trkpt lat="45.97688" lon="6.37099">
        <ele>1205.6</ele>
      </trkpt>
      <trkpt lat="45.97693" lon="6.37115">
        <ele>1204.6</ele>
      </trkpt>
      <trkpt lat="45.97698" lon="6.37124">
        <ele>1204.1</ele>
      </trkpt>
      <trkpt lat="45.97705" lon="6.37131">
        <ele>1203.8</ele>
      </trkpt>
      <trkpt lat="45.97713" lon="6.37135">
        <ele>1203.8</ele>
      </trkpt>
      <trkpt lat="45.97756" lon="6.37141">
        <ele>1206.4</ele>
      </trkpt>
      <trkpt lat="45.9776" lon="6.37145">
        <ele>1206.6</ele>
      </trkpt>
      <trkpt lat="45.97763" lon="6.37153">
        <ele>1205.5</ele>
      </trkpt>
      <trkpt lat="45.97763" lon="6.37159">
        <ele>1204.2</ele>
      </trkpt>
      <trkpt lat="45.97761" lon="6.37166">
        <ele>1202.3</ele>
      </trkpt>
      <trkpt lat="45.97742" lon="6.37193">
        <ele>1194.5</ele>
      </trkpt>
      <trkpt lat="45.97742" lon="6.37198">
        <ele>1193.4</ele>
      </trkpt>
      <trkpt lat="45.97744" lon="6.37203">
        <ele>1192.3</ele>
      </trkpt>
      <trkpt lat="45.97752" lon="6.37208">
        <ele>1191.3</ele>
      </trkpt>
      <trkpt lat="45.97778" lon="6.37206">
        <ele>1195.3</ele>
      </trkpt>
      <trkpt lat="45.97783" lon="6.37209">
        <ele>1195.2</ele>
      </trkpt>
      <trkpt lat="45.97786" lon="6.37219">
        <ele>1192.9</ele>
      </trkpt>
      <trkpt lat="45.97785" lon="6.37225">
        <ele>1191.2</ele>
      </trkpt>
      <trkpt lat="45.97782" lon="6.3723">
        <ele>1189.5</ele>
      </trkpt>
      <trkpt lat="45.97766" lon="6.37245">
        <ele>1184.3</ele>
      </trkpt>
      <trkpt lat="45.97765" lon="6.37251">
        <ele>1182.9</ele>
      </trkpt>
      <trkpt lat="45.97767" lon="6.37255">
        <ele>1182.3</ele>
      </trkpt>
      <trkpt lat="45.97769" lon="6.37259">
        <ele>1181.6</ele>
      </trkpt>
      <trkpt lat="45.97774" lon="6.37261">
        <ele>1181.5</ele>
      </trkpt>
      <trkpt lat="45.97799" lon="6.37262">
        <ele>1182.7</ele>
      </trkpt>
      <trkpt lat="45.9781" lon="6.37269">
        <ele>1181.5</ele>
      </trkpt>
      <trkpt lat="45.97819" lon="6.37278">
        <ele>1179.5</ele>
      </trkpt>
      <trkpt lat="45.97866" lon="6.37365">
        <ele>1162.2</ele>
      </trkpt>
      <trkpt lat="45.97881" lon="6.37387">
        <ele>1156.8</ele>
      </trkpt>
      <trkpt lat="45.97885" lon="6.37398">
        <ele>1153.1</ele>
      </trkpt>
      <trkpt lat="45.97885" lon="6.37402">
        <ele>1151.7</ele>
      </trkpt>
      <trkpt lat="45.97882" lon="6.37404">
        <ele>1150.7</ele>
      </trkpt>
      <trkpt lat="45.97858" lon="6.37409">
        <ele>1147.9</ele>
      </trkpt>
      <trkpt lat="45.97847" lon="6.37419">
        <ele>1145</ele>
      </trkpt>
      <trkpt lat="45.9784" lon="6.37439">
        <ele>1142.9</ele>
      </trkpt>
      <trkpt lat="45.97841" lon="6.37453">
        <ele>1141.3</ele>
      </trkpt>
      <trkpt lat="45.97848" lon="6.37485">
        <ele>1136</ele>
      </trkpt>
      <trkpt lat="45.97849" lon="6.37499">
        <ele>1133.7</ele>
      </trkpt>
      <trkpt lat="45.97847" lon="6.37515">
        <ele>1132.9</ele>
      </trkpt>
      <trkpt lat="45.9784" lon="6.3755">
        <ele>1132.3</ele>
      </trkpt>
      <trkpt lat="45.9784" lon="6.37562">
        <ele>1131.2</ele>
      </trkpt>
      <trkpt lat="45.97842" lon="6.37568">
        <ele>1129.9</ele>
      </trkpt>
      <trkpt lat="45.97845" lon="6.37572">
        <ele>1128.4</ele>
      </trkpt>
      <trkpt lat="45.97848" lon="6.37573">
        <ele>1127.1</ele>
      </trkpt>
      <trkpt lat="45.97855" lon="6.37568">
        <ele>1124.9</ele>
      </trkpt>
      <trkpt lat="45.97857" lon="6.3756">
        <ele>1124.9</ele>
      </trkpt>
      <trkpt lat="45.97866" lon="6.37514">
        <ele>1126.2</ele>
      </trkpt>
      <trkpt lat="45.9787" lon="6.37499">
        <ele>1126.5</ele>
      </trkpt>
      <trkpt lat="45.97884" lon="6.37483">
        <ele>1126.4</ele>
      </trkpt>
      <trkpt lat="45.97905" lon="6.37474">
        <ele>1124.2</ele>
      </trkpt>
      <trkpt lat="45.9791" lon="6.37467">
        <ele>1126</ele>
      </trkpt>
      <trkpt lat="45.97917" lon="6.37448">
        <ele>1133.2</ele>
      </trkpt>
      <trkpt lat="45.97922" lon="6.37443">
        <ele>1136.5</ele>
      </trkpt>
      <trkpt lat="45.97931" lon="6.3744">
        <ele>1139.8</ele>
      </trkpt>
      <trkpt lat="45.97939" lon="6.37441">
        <ele>1141.2</ele>
      </trkpt>
      <trkpt lat="45.97949" lon="6.37451">
        <ele>1138.4</ele>
      </trkpt>
      <trkpt lat="45.97985" lon="6.37499">
        <ele>1118.8</ele>
      </trkpt>
      <trkpt lat="45.98014" lon="6.37521">
        <ele>1115.9</ele>
      </trkpt>
      <trkpt lat="45.98023" lon="6.37533">
        <ele>1114</ele>
      </trkpt>
      <trkpt lat="45.98042" lon="6.37564">
        <ele>1106.5</ele>
      </trkpt>
      <trkpt lat="45.98082" lon="6.37649">
        <ele>1077.7</ele>
      </trkpt>
      <trkpt lat="45.98099" lon="6.37677">
        <ele>1065.1</ele>
      </trkpt>
      <trkpt lat="45.98114" lon="6.37697">
        <ele>1057.9</ele>
      </trkpt>
      <trkpt lat="45.98115" lon="6.377">
        <ele>1056.7</ele>
      </trkpt>
      <trkpt lat="45.98113" lon="6.37706">
        <ele>1053.7</ele>
      </trkpt>
      <trkpt lat="45.98109" lon="6.37707">
        <ele>1052.7</ele>
      </trkpt>
      <trkpt lat="45.98105" lon="6.37705">
        <ele>1053</ele>
      </trkpt>
      <trkpt lat="45.9808" lon="6.37665">
        <ele>1067.8</ele>
      </trkpt>
      <trkpt lat="45.98063" lon="6.37643">
        <ele>1073.7</ele>
      </trkpt>
      <trkpt lat="45.9804" lon="6.37614">
        <ele>1079.3</ele>
      </trkpt>
      <trkpt lat="45.98026" lon="6.37602">
        <ele>1078.9</ele>
      </trkpt>
      <trkpt lat="45.98007" lon="6.37594">
        <ele>1073.7</ele>
      </trkpt>
      <trkpt lat="45.97979" lon="6.37586">
        <ele>1080</ele>
      </trkpt>
      <trkpt lat="45.97965" lon="6.37573">
        <ele>1088.9</ele>
      </trkpt>
      <trkpt lat="45.97959" lon="6.3757">
        <ele>1091.3</ele>
      </trkpt>
      <trkpt lat="45.97955" lon="6.37571">
        <ele>1091.9</ele>
      </trkpt>
      <trkpt lat="45.97952" lon="6.37575">
        <ele>1091.4</ele>
      </trkpt>
      <trkpt lat="45.97951" lon="6.37582">
        <ele>1089.5</ele>
      </trkpt>
      <trkpt lat="45.97954" lon="6.37589">
        <ele>1086.4</ele>
      </trkpt>
      <trkpt lat="45.97958" lon="6.37594">
        <ele>1083.6</ele>
      </trkpt>
      <trkpt lat="45.97976" lon="6.37605">
        <ele>1073.8</ele>
      </trkpt>
      <trkpt lat="45.98006" lon="6.37637">
        <ele>1054.2</ele>
      </trkpt>
      <trkpt lat="45.98023" lon="6.37665">
        <ele>1047.8</ele>
      </trkpt>
      <trkpt lat="45.98051" lon="6.37717">
        <ele>1034.8</ele>
      </trkpt>
      <trkpt lat="45.98072" lon="6.37745">
        <ele>1028.3</ele>
      </trkpt>
      <trkpt lat="45.98115" lon="6.37808">
        <ele>1010.1</ele>
      </trkpt>
      <trkpt lat="45.98118" lon="6.37808">
        <ele>1010.6</ele>
      </trkpt>
      <trkpt lat="45.98123" lon="6.37803">
        <ele>1013.5</ele>
      </trkpt>
      <trkpt lat="45.98135" lon="6.37784">
        <ele>1023.3</ele>
      </trkpt>
      <trkpt lat="45.98144" lon="6.37773">
        <ele>1029.2</ele>
      </trkpt>
      <trkpt lat="45.98169" lon="6.37765">
        <ele>1037.2</ele>
      </trkpt>
      <trkpt lat="45.98176" lon="6.3777">
        <ele>1038.8</ele>
      </trkpt>
      <trkpt lat="45.98179" lon="6.37782">
        <ele>1035.7</ele>
      </trkpt>
      <trkpt lat="45.9818" lon="6.37798">
        <ele>1030.1</ele>
      </trkpt>
      <trkpt lat="45.98178" lon="6.37808">
        <ele>1025.2</ele>
      </trkpt>
      <trkpt lat="45.98169" lon="6.37831">
        <ele>1011.2</ele>
      </trkpt>
      <trkpt lat="45.98171" lon="6.37848">
        <ele>1005.7</ele>
      </trkpt>
      <trkpt lat="45.98175" lon="6.37854">
        <ele>1005.4</ele>
      </trkpt>
      <trkpt lat="45.98197" lon="6.37876">
        <ele>1007.1</ele>
      </trkpt>
      <trkpt lat="45.98213" lon="6.37898">
        <ele>1004.3</ele>
      </trkpt>
      <trkpt lat="45.98288" lon="6.38038">
        <ele>974.1</ele>
      </trkpt>
      <trkpt lat="45.98309" lon="6.38071">
        <ele>970.5</ele>
      </trkpt>
      <trkpt lat="45.98325" lon="6.38103">
        <ele>965.7</ele>
      </trkpt>
      <trkpt lat="45.98341" lon="6.38128">
        <ele>963.5</ele>
      </trkpt>
      <trkpt lat="45.98351" lon="6.38137">
        <ele>963.7</ele>
      </trkpt>
      <trkpt lat="45.9838" lon="6.38156">
        <ele>965.7</ele>
      </trkpt>
      <trkpt lat="45.98417" lon="6.38198">
        <ele>958</ele>
      </trkpt>
      <trkpt lat="45.98429" lon="6.38212">
        <ele>954.1</ele>
      </trkpt>
      <trkpt lat="45.98437" lon="6.38218">
        <ele>952.9</ele>
      </trkpt>
      <trkpt lat="45.98458" lon="6.38226">
        <ele>953.5</ele>
      </trkpt>
      <trkpt lat="45.98461" lon="6.38229">
        <ele>952.5</ele>
      </trkpt>
      <trkpt lat="45.98461" lon="6.38234">
        <ele>949.9</ele>
      </trkpt>
      <trkpt lat="45.98458" lon="6.38237">
        <ele>947.7</ele>
      </trkpt>
      <trkpt lat="45.98439" lon="6.38237">
        <ele>943.8</ele>
      </trkpt>
      <trkpt lat="45.98428" lon="6.38234">
        <ele>943</ele>
      </trkpt>
      <trkpt lat="45.98395" lon="6.38211">
        <ele>944</ele>
      </trkpt>
      <trkpt lat="45.98387" lon="6.3821">
        <ele>941.7</ele>
      </trkpt>
      <trkpt lat="45.98357" lon="6.38212">
        <ele>930.1</ele>
      </trkpt>
      <trkpt lat="45.98349" lon="6.38212">
        <ele>927.3</ele>
      </trkpt>
      <trkpt lat="45.98339" lon="6.38206">
        <ele>926.7</ele>
      </trkpt>
      <trkpt lat="45.98319" lon="6.38198">
        <ele>920.6</ele>
      </trkpt>
      <trkpt lat="45.98308" lon="6.38191">
        <ele>917.6</ele>
      </trkpt>
      <trkpt lat="45.98294" lon="6.38176">
        <ele>916.3</ele>
      </trkpt>
      <trkpt lat="45.98237" lon="6.38098">
        <ele>917.8</ele>
      </trkpt>
      <trkpt lat="45.98232" lon="6.38098">
        <ele>915.9</ele>
      </trkpt>
      <trkpt lat="45.98231" lon="6.38102">
        <ele>913.8</ele>
      </trkpt>
      <trkpt lat="45.98232" lon="6.38107">
        <ele>912.1</ele>
      </trkpt>
      <trkpt lat="45.98253" lon="6.38146">
        <ele>904.5</ele>
      </trkpt>
      <trkpt lat="45.9829" lon="6.38232">
        <ele>889.5</ele>
      </trkpt>
      <trkpt lat="45.98295" lon="6.3824">
        <ele>888.6</ele>
      </trkpt>
      <trkpt lat="45.98301" lon="6.38244">
        <ele>889.8</ele>
      </trkpt>
      <trkpt lat="45.98322" lon="6.38246">
        <ele>899.3</ele>
      </trkpt>
      <trkpt lat="45.98329" lon="6.38252">
        <ele>899.9</ele>
      </trkpt>
      <trkpt lat="45.98345" lon="6.38279">
        <ele>892.2</ele>
      </trkpt>
      <trkpt lat="45.9836" lon="6.38294">
        <ele>889.7</ele>
      </trkpt>
      <trkpt lat="45.98369" lon="6.38313">
        <ele>883</ele>
      </trkpt>
      <trkpt lat="45.98376" lon="6.38337">
        <ele>873.4</ele>
      </trkpt>
      <trkpt lat="45.98382" lon="6.38344">
        <ele>872.7</ele>
      </trkpt>
      <trkpt lat="45.98383" lon="6.38345">
        <ele>872.6</ele>
      </trkpt>
      <trkpt lat="45.98392" lon="6.3835">
        <ele>873.5</ele>
      </trkpt>
      <trkpt lat="45.98417" lon="6.3835">
        <ele>881.6</ele>
      </trkpt>
      <trkpt lat="45.98427" lon="6.38349">
        <ele>883.2</ele>
      </trkpt>
      <trkpt lat="45.98438" lon="6.38354">
        <ele>882.1</ele>
      </trkpt>
      <trkpt lat="45.98474" lon="6.38372">
        <ele>875.9</ele>
      </trkpt>
      <trkpt lat="45.98485" lon="6.38372">
        <ele>876.7</ele>
      </trkpt>
      <trkpt lat="45.985" lon="6.38366">
        <ele>881.4</ele>
      </trkpt>
      <trkpt lat="45.98508" lon="6.38366">
        <ele>882.2</ele>
      </trkpt>
      <trkpt lat="45.98555" lon="6.3838">
        <ele>879</ele>
      </trkpt>
      <trkpt lat="45.98568" lon="6.38388">
        <ele>875.8</ele>
      </trkpt>
      <trkpt lat="45.98592" lon="6.38411">
        <ele>866.3</ele>
      </trkpt>
      <trkpt lat="45.98604" lon="6.38416">
        <ele>866.3</ele>
      </trkpt>
      <trkpt lat="45.98631" lon="6.38418">
        <ele>871.9</ele>
      </trkpt>
      <trkpt lat="45.98641" lon="6.38421">
        <ele>873.1</ele>
      </trkpt>
      <trkpt lat="45.98656" lon="6.38442">
        <ele>868.6</ele>
      </trkpt>
      <trkpt lat="45.98702" lon="6.38546">
        <ele>851.6</ele>
      </trkpt>
      <trkpt lat="45.98726" lon="6.38596">
        <ele>844.3</ele>
      </trkpt>
      <trkpt lat="45.98776" lon="6.38681">
        <ele>836.6</ele>
      </trkpt>
      <trkpt lat="45.98837" lon="6.38766">
        <ele>828.2</ele>
      </trkpt>
      <trkpt lat="45.98893" lon="6.38839">
        <ele>811.7</ele>
      </trkpt>
      <trkpt lat="45.98974" lon="6.38934">
        <ele>800.4</ele>
      </trkpt>
      <trkpt lat="45.98976" lon="6.38939">
        <ele>799.9</ele>
      </trkpt>
      <trkpt lat="45.98979" lon="6.3895">
        <ele>798.5</ele>
      </trkpt>
      <trkpt lat="45.98978" lon="6.3896">
        <ele>796.7</ele>
      </trkpt>
      <trkpt lat="45.98977" lon="6.38966">
        <ele>795.5</ele>
      </trkpt>
      <trkpt lat="45.98972" lon="6.38976">
        <ele>793</ele>
      </trkpt>
      <trkpt lat="45.98962" lon="6.38986">
        <ele>789.8</ele>
      </trkpt>
      <trkpt lat="45.98951" lon="6.38985">
        <ele>788.3</ele>
      </trkpt>
      <trkpt lat="45.98944" lon="6.38979">
        <ele>788.2</ele>
      </trkpt>
      <trkpt lat="45.98899" lon="6.38914">
        <ele>788.6</ele>
      </trkpt>
      <trkpt lat="45.9889" lon="6.38905">
        <ele>788.9</ele>
      </trkpt>
      <trkpt lat="45.98805" lon="6.38838">
        <ele>784.8</ele>
      </trkpt>
      <trkpt lat="45.98799" lon="6.38836">
        <ele>783.5</ele>
      </trkpt>
      <trkpt lat="45.98791" lon="6.3884">
        <ele>780</ele>
      </trkpt>
      <trkpt lat="45.98788" lon="6.38847">
        <ele>777.1</ele>
      </trkpt>
      <trkpt lat="45.98788" lon="6.38855">
        <ele>775</ele>
      </trkpt>
      <trkpt lat="45.98789" lon="6.38859">
        <ele>774.2</ele>
      </trkpt>
      <trkpt lat="45.98794" lon="6.38865">
        <ele>773.9</ele>
      </trkpt>
      <trkpt lat="45.98816" lon="6.38881">
        <ele>775.1</ele>
      </trkpt>
      <trkpt lat="45.98822" lon="6.38887">
        <ele>774.8</ele>
      </trkpt>
      <trkpt lat="45.98868" lon="6.38979">
        <ele>766.4</ele>
      </trkpt>
      <trkpt lat="45.9888" lon="6.38992">
        <ele>768.4</ele>
      </trkpt>
      <trkpt lat="45.98914" lon="6.39026">
        <ele>769.2</ele>
      </trkpt>
      <trkpt lat="45.9894" lon="6.39065">
        <ele>756.8</ele>
      </trkpt>
      <trkpt lat="45.98951" lon="6.39085">
        <ele>750.1</ele>
      </trkpt>
      <trkpt lat="45.98961" lon="6.39092">
        <ele>749.7</ele>
      </trkpt>
      <trkpt lat="45.98991" lon="6.391">
        <ele>751.2</ele>
      </trkpt>
      <trkpt lat="45.98997" lon="6.39104">
        <ele>750.7</ele>
      </trkpt>
      <trkpt lat="45.99001" lon="6.39111">
        <ele>749.1</ele>
      </trkpt>
      <trkpt lat="45.99001" lon="6.39116">
        <ele>747.6</ele>
      </trkpt>
      <trkpt lat="45.99001" lon="6.39121">
        <ele>746.2</ele>
      </trkpt>
      <trkpt lat="45.98997" lon="6.39131">
        <ele>743</ele>
      </trkpt>
      <trkpt lat="45.98987" lon="6.39135">
        <ele>741.1</ele>
      </trkpt>
      <trkpt lat="45.98974" lon="6.39136">
        <ele>739.8</ele>
      </trkpt>
      <trkpt lat="45.98952" lon="6.39131">
        <ele>739.2</ele>
      </trkpt>
      <trkpt lat="45.98941" lon="6.39131">
        <ele>738.3</ele>
      </trkpt>
      <trkpt lat="45.989" lon="6.39149">
        <ele>731</ele>
      </trkpt>
      <trkpt lat="45.98885" lon="6.39149">
        <ele>729.6</ele>
      </trkpt>
      <trkpt lat="45.98877" lon="6.39146">
        <ele>729.3</ele>
      </trkpt>
      <trkpt lat="45.98869" lon="6.39139">
        <ele>729.5</ele>
      </trkpt>
      <trkpt lat="45.98854" lon="6.39104">
        <ele>732.2</ele>
      </trkpt>
      <trkpt lat="45.98847" lon="6.39091">
        <ele>732.6</ele>
      </trkpt>
      <trkpt lat="45.98842" lon="6.39086">
        <ele>732.3</ele>
      </trkpt>
      <trkpt lat="45.98839" lon="6.39082">
        <ele>732.3</ele>
      </trkpt>
      <trkpt lat="45.9883" lon="6.39072">
        <ele>733</ele>
      </trkpt>
      <trkpt lat="45.98807" lon="6.39056">
        <ele>732.8</ele>
      </trkpt>
      <trkpt lat="45.98783" lon="6.39052">
        <ele>729.7</ele>
      </trkpt>
      <trkpt lat="45.98756" lon="6.39043">
        <ele>726.4</ele>
      </trkpt>
      <trkpt lat="45.98748" lon="6.39038">
        <ele>725.9</ele>
      </trkpt>
      <trkpt lat="45.98716" lon="6.39011">
        <ele>726.4</ele>
      </trkpt>
      <trkpt lat="45.98658" lon="6.38957">
        <ele>726.4</ele>
      </trkpt>
      <trkpt lat="45.98647" lon="6.38945">
        <ele>727.1</ele>
      </trkpt>
      <trkpt lat="45.98631" lon="6.38914">
        <ele>726.3</ele>
      </trkpt>
      <trkpt lat="45.98605" lon="6.38875">
        <ele>726.4</ele>
      </trkpt>
      <trkpt lat="45.98577" lon="6.38811">
        <ele>728.4</ele>
      </trkpt>
      <trkpt lat="45.98556" lon="6.38774">
        <ele>733.2</ele>
      </trkpt>
      <trkpt lat="45.98537" lon="6.38748">
        <ele>733.8</ele>
      </trkpt>
      <trkpt lat="45.98523" lon="6.38736">
        <ele>734.2</ele>
      </trkpt>
      <trkpt lat="45.98462" lon="6.38696">
        <ele>735.8</ele>
      </trkpt>
      <trkpt lat="45.98443" lon="6.38687">
        <ele>735.7</ele>
      </trkpt>
      <trkpt lat="45.98421" lon="6.38681">
        <ele>734.6</ele>
      </trkpt>
      <trkpt lat="45.98419" lon="6.38681">
        <ele>734.5</ele>
      </trkpt>
      <trkpt lat="45.98416" lon="6.38681">
        <ele>734.3</ele>
      </trkpt>
      <trkpt lat="45.98406" lon="6.38689">
        <ele>734</ele>
      </trkpt>
      <trkpt lat="45.98399" lon="6.38703">
        <ele>733.5</ele>
      </trkpt>
      <trkpt lat="45.98398" lon="6.38713">
        <ele>733.2</ele>
      </trkpt>
      <trkpt lat="45.98398" lon="6.38719">
        <ele>733</ele>
      </trkpt>
      <trkpt lat="45.98401" lon="6.38752">
        <ele>732.3</ele>
      </trkpt>
      <trkpt lat="45.98401" lon="6.38758">
        <ele>733.9</ele>
      </trkpt>
      <trkpt lat="45.98402" lon="6.38766">
        <ele>736</ele>
      </trkpt>
      <trkpt lat="45.98406" lon="6.38767">
        <ele>736</ele>
      </trkpt>
      <trkpt lat="45.98416" lon="6.38771">
        <ele>736.3</ele>
      </trkpt>
      <trkpt lat="45.9844" lon="6.38788">
        <ele>737.3</ele>
      </trkpt>
      <trkpt lat="45.98463" lon="6.38819">
        <ele>738</ele>
      </trkpt>
      <trkpt lat="45.98498" lon="6.38879">
        <ele>740.1</ele>
      </trkpt>
      <trkpt lat="45.98614" lon="6.39031">
        <ele>742.3</ele>
      </trkpt>
      <trkpt lat="45.98632" lon="6.39052">
        <ele>742.9</ele>
      </trkpt>
      <trkpt lat="45.98659" lon="6.39077">
        <ele>738.2</ele>
      </trkpt>
      <trkpt lat="45.98744" lon="6.39145">
        <ele>734.7</ele>
      </trkpt>
      <trkpt lat="45.9876" lon="6.39162">
        <ele>734.6</ele>
      </trkpt>
      <trkpt lat="45.98775" lon="6.39187">
        <ele>737</ele>
      </trkpt>
      <trkpt lat="45.98787" lon="6.3921">
        <ele>738.5</ele>
      </trkpt>
      <trkpt lat="45.98795" lon="6.39225">
        <ele>738.8</ele>
      </trkpt>
      <trkpt lat="45.98802" lon="6.39235">
        <ele>738.1</ele>
      </trkpt>
      <trkpt lat="45.98885" lon="6.39326">
        <ele>740.2</ele>
      </trkpt>
      <trkpt lat="45.98915" lon="6.39344">
        <ele>744.4</ele>
      </trkpt>
      <trkpt lat="45.98929" lon="6.39349">
        <ele>745</ele>
      </trkpt>
      <trkpt lat="45.98939" lon="6.39348">
        <ele>743.9</ele>
      </trkpt>
      <trkpt lat="45.98962" lon="6.39337">
        <ele>738</ele>
      </trkpt>
      <trkpt lat="45.98976" lon="6.39335">
        <ele>736</ele>
      </trkpt>
      <trkpt lat="45.98989" lon="6.39343">
        <ele>738</ele>
      </trkpt>
      <trkpt lat="45.99013" lon="6.3937">
        <ele>748.4</ele>
      </trkpt>
      <trkpt lat="45.99027" lon="6.3938">
        <ele>752.6</ele>
      </trkpt>
      <trkpt lat="45.99043" lon="6.39381">
        <ele>753.1</ele>
      </trkpt>
      <trkpt lat="45.99068" lon="6.39371">
        <ele>748.7</ele>
      </trkpt>
      <trkpt lat="45.99078" lon="6.39369">
        <ele>747.8</ele>
      </trkpt>
      <trkpt lat="45.99128" lon="6.39383">
        <ele>759.5</ele>
      </trkpt>
      <trkpt lat="45.99137" lon="6.39383">
        <ele>760.6</ele>
      </trkpt>
      <trkpt lat="45.99142" lon="6.3938">
        <ele>760</ele>
      </trkpt>
      <trkpt lat="45.99146" lon="6.39378">
        <ele>759.6</ele>
      </trkpt>
      <trkpt lat="45.99155" lon="6.39366">
        <ele>755.8</ele>
      </trkpt>
      <trkpt lat="45.9917" lon="6.39332">
        <ele>743.5</ele>
      </trkpt>
      <trkpt lat="45.99183" lon="6.39321">
        <ele>739.2</ele>
      </trkpt>
      <trkpt lat="45.99196" lon="6.39319">
        <ele>738.1</ele>
      </trkpt>
      <trkpt lat="45.99286" lon="6.39361">
        <ele>751.1</ele>
      </trkpt>
      <trkpt lat="45.99392" lon="6.39425">
        <ele>757.9</ele>
      </trkpt>
      <trkpt lat="45.99439" lon="6.39442">
        <ele>754.9</ele>
      </trkpt>
      <trkpt lat="45.99464" lon="6.39447">
        <ele>753</ele>
      </trkpt>
      <trkpt lat="45.99496" lon="6.39449">
        <ele>749.5</ele>
      </trkpt>
      <trkpt lat="45.9951" lon="6.39448">
        <ele>748.6</ele>
      </trkpt>
      <trkpt lat="45.99567" lon="6.39436">
        <ele>745</ele>
      </trkpt>
      <trkpt lat="45.99594" lon="6.39432">
        <ele>744.1</ele>
      </trkpt>
      <trkpt lat="45.99617" lon="6.39432">
        <ele>744.4</ele>
      </trkpt>
      <trkpt lat="45.9966" lon="6.39436">
        <ele>745.3</ele>
      </trkpt>
      <trkpt lat="45.99731" lon="6.39448">
        <ele>743.6</ele>
      </trkpt>
      <trkpt lat="45.99754" lon="6.3945">
        <ele>742.6</ele>
      </trkpt>
      <trkpt lat="45.99781" lon="6.39452">
        <ele>741.8</ele>
      </trkpt>
      <trkpt lat="45.99914" lon="6.39448">
        <ele>733</ele>
      </trkpt>
      <trkpt lat="45.99922" lon="6.39449">
        <ele>732.9</ele>
      </trkpt>
      <trkpt lat="45.99928" lon="6.39451">
        <ele>733.2</ele>
      </trkpt>
      <trkpt lat="45.99949" lon="6.39462">
        <ele>734.4</ele>
      </trkpt>
      <trkpt lat="45.9997" lon="6.3948">
        <ele>735.9</ele>
      </trkpt>
      <trkpt lat="45.9998" lon="6.39493">
        <ele>736.9</ele>
      </trkpt>
      <trkpt lat="45.99999" lon="6.39525">
        <ele>737</ele>
      </trkpt>
      <trkpt lat="46.00001" lon="6.39527">
        <ele>737</ele>
      </trkpt>
      <trkpt lat="46.00036" lon="6.39576">
        <ele>736.1</ele>
      </trkpt>
      <trkpt lat="46.00038" lon="6.39579">
        <ele>736.1</ele>
      </trkpt>
      <trkpt lat="46.00042" lon="6.39584">
        <ele>736</ele>
      </trkpt>
      <trkpt lat="46.0005" lon="6.39592">
        <ele>735.9</ele>
      </trkpt>
      <trkpt lat="46.0006" lon="6.396">
        <ele>735.7</ele>
      </trkpt>
      <trkpt lat="46.00065" lon="6.39604">
        <ele>735.6</ele>
      </trkpt>
      <trkpt lat="46.00101" lon="6.3962">
        <ele>733.7</ele>
      </trkpt>
      <trkpt lat="46.00107" lon="6.39621">
        <ele>733.3</ele>
      </trkpt>
      <trkpt lat="46.00119" lon="6.3962">
        <ele>732.4</ele>
      </trkpt>
      <trkpt lat="46.00146" lon="6.39618">
        <ele>730.5</ele>
      </trkpt>
      <trkpt lat="46.00176" lon="6.39618">
        <ele>728.5</ele>
      </trkpt>
      <trkpt lat="46.00201" lon="6.39622">
        <ele>727.3</ele>
      </trkpt>
      <trkpt lat="46.00232" lon="6.39633">
        <ele>726.3</ele>
      </trkpt>
      <trkpt lat="46.00247" lon="6.3964">
        <ele>726.2</ele>
      </trkpt>
      <trkpt lat="46.00277" lon="6.39655">
        <ele>726.1</ele>
      </trkpt>
      <trkpt lat="46.00288" lon="6.3966">
        <ele>726.1</ele>
      </trkpt>
      <trkpt lat="46.00309" lon="6.39675">
        <ele>726.3</ele>
      </trkpt>
      <trkpt lat="46.00316" lon="6.39681">
        <ele>726.3</ele>
      </trkpt>
      <trkpt lat="46.00324" lon="6.39686">
        <ele>726.3</ele>
      </trkpt>
      <trkpt lat="46.00346" lon="6.39698">
        <ele>725.7</ele>
      </trkpt>
      <trkpt lat="46.00359" lon="6.39704">
        <ele>725.1</ele>
      </trkpt>
      <trkpt lat="46.00362" lon="6.39705">
        <ele>725</ele>
      </trkpt>
      <trkpt lat="46.00369" lon="6.39708">
        <ele>724.6</ele>
      </trkpt>
      <trkpt lat="46.00386" lon="6.39718">
        <ele>723.9</ele>
      </trkpt>
      <trkpt lat="46.00413" lon="6.39733">
        <ele>722.6</ele>
      </trkpt>
      <trkpt lat="46.0043" lon="6.39742">
        <ele>722.4</ele>
      </trkpt>
      <trkpt lat="46.00436" lon="6.39745">
        <ele>722.5</ele>
      </trkpt>
      <trkpt lat="46.00447" lon="6.3975">
        <ele>722.6</ele>
      </trkpt>
      <trkpt lat="46.00464" lon="6.39755">
        <ele>723.2</ele>
      </trkpt>
      <trkpt lat="46.00479" lon="6.39756">
        <ele>723</ele>
      </trkpt>
      <trkpt lat="46.00484" lon="6.39756">
        <ele>723</ele>
      </trkpt>
      <trkpt lat="46.00492" lon="6.39753">
        <ele>722.4</ele>
      </trkpt>
      <trkpt lat="46.00498" lon="6.3975">
        <ele>722</ele>
      </trkpt>
      <trkpt lat="46.00504" lon="6.39745">
        <ele>721.7</ele>
      </trkpt>
      <trkpt lat="46.00511" lon="6.39737">
        <ele>721.1</ele>
      </trkpt>
      <trkpt lat="46.00514" lon="6.39734">
        <ele>720.9</ele>
      </trkpt>
      <trkpt lat="46.00522" lon="6.39724">
        <ele>720.1</ele>
      </trkpt>
      <trkpt lat="46.00543" lon="6.39706">
        <ele>718.7</ele>
      </trkpt>
      <trkpt lat="46.00555" lon="6.39701">
        <ele>718.6</ele>
      </trkpt>
      <trkpt lat="46.00574" lon="6.39697">
        <ele>719</ele>
      </trkpt>
      <trkpt lat="46.00776" lon="6.39673">
        <ele>721.7</ele>
      </trkpt>
      <trkpt lat="46.00858" lon="6.39677">
        <ele>721.4</ele>
      </trkpt>
      <trkpt lat="46.0097" lon="6.39686">
        <ele>722.8</ele>
      </trkpt>
      <trkpt lat="46.00987" lon="6.39688">
        <ele>723.8</ele>
      </trkpt>
      <trkpt lat="46.01004" lon="6.39688">
        <ele>724.5</ele>
      </trkpt>
      <trkpt lat="46.01017" lon="6.39687">
        <ele>724.9</ele>
      </trkpt>
      <trkpt lat="46.01028" lon="6.39684">
        <ele>725</ele>
      </trkpt>
      <trkpt lat="46.01049" lon="6.39676">
        <ele>724.9</ele>
      </trkpt>
      <trkpt lat="46.01068" lon="6.39662">
        <ele>723.9</ele>
      </trkpt>
      <trkpt lat="46.0113" lon="6.39599">
        <ele>719.4</ele>
      </trkpt>
      <trkpt lat="46.01146" lon="6.39587">
        <ele>718.1</ele>
      </trkpt>
      <trkpt lat="46.01162" lon="6.39582">
        <ele>717.6</ele>
      </trkpt>
      <trkpt lat="46.01172" lon="6.39582">
        <ele>717</ele>
      </trkpt>
      <trkpt lat="46.01196" lon="6.39587">
        <ele>715.2</ele>
      </trkpt>
      <trkpt lat="46.01205" lon="6.39592">
        <ele>715.1</ele>
      </trkpt>
      <trkpt lat="46.01254" lon="6.39613">
        <ele>713.7</ele>
      </trkpt>
      <trkpt lat="46.01331" lon="6.39648">
        <ele>714.4</ele>
      </trkpt>
      <trkpt lat="46.01337" lon="6.3965">
        <ele>714.7</ele>
      </trkpt>
      <trkpt lat="46.01342" lon="6.39651">
        <ele>715</ele>
      </trkpt>
      <trkpt lat="46.01359" lon="6.3965">
        <ele>715.1</ele>
      </trkpt>
      <trkpt lat="46.01393" lon="6.39644">
        <ele>714.7</ele>
      </trkpt>
      <trkpt lat="46.01462" lon="6.39628">
        <ele>716.6</ele>
      </trkpt>
      <trkpt lat="46.01488" lon="6.39622">
        <ele>717.9</ele>
      </trkpt>
      <trkpt lat="46.01545" lon="6.39604">
        <ele>719.1</ele>
      </trkpt>
      <trkpt lat="46.01568" lon="6.39598">
        <ele>719.3</ele>
      </trkpt>
      <trkpt lat="46.01578" lon="6.39595">
        <ele>719.2</ele>
      </trkpt>
      <trkpt lat="46.01596" lon="6.39594">
        <ele>718.1</ele>
      </trkpt>
      <trkpt lat="46.01618" lon="6.39597">
        <ele>716.6</ele>
      </trkpt>
      <trkpt lat="46.017" lon="6.39633">
        <ele>716.2</ele>
      </trkpt>
      <trkpt lat="46.01729" lon="6.39642">
        <ele>715.1</ele>
      </trkpt>
      <trkpt lat="46.01743" lon="6.39644">
        <ele>714.1</ele>
      </trkpt>
      <trkpt lat="46.01766" lon="6.39648">
        <ele>713.2</ele>
      </trkpt>
      <trkpt lat="46.01796" lon="6.39654">
        <ele>712.6</ele>
      </trkpt>
      <trkpt lat="46.01813" lon="6.3966">
        <ele>712.8</ele>
      </trkpt>
      <trkpt lat="46.0183" lon="6.39669">
        <ele>713.7</ele>
      </trkpt>
      <trkpt lat="46.01848" lon="6.39679">
        <ele>715.4</ele>
      </trkpt>
      <trkpt lat="46.0187" lon="6.39694">
        <ele>718.2</ele>
      </trkpt>
      <trkpt lat="46.01887" lon="6.39702">
        <ele>719.5</ele>
      </trkpt>
      <trkpt lat="46.01896" lon="6.39703">
        <ele>719.5</ele>
      </trkpt>
      <trkpt lat="46.01904" lon="6.39701">
        <ele>718.8</ele>
      </trkpt>
      <trkpt lat="46.01913" lon="6.39695">
        <ele>717.2</ele>
      </trkpt>
      <trkpt lat="46.01919" lon="6.39686">
        <ele>715.4</ele>
      </trkpt>
      <trkpt lat="46.01935" lon="6.39645">
        <ele>708.9</ele>
      </trkpt>
      <trkpt lat="46.01945" lon="6.39632">
        <ele>707.6</ele>
      </trkpt>
      <trkpt lat="46.01958" lon="6.39624">
        <ele>707.6</ele>
      </trkpt>
      <trkpt lat="46.01975" lon="6.39619">
        <ele>708.4</ele>
      </trkpt>
      <trkpt lat="46.01989" lon="6.3962">
        <ele>709.8</ele>
      </trkpt>
      <trkpt lat="46.02006" lon="6.39625">
        <ele>710.5</ele>
      </trkpt>
      <trkpt lat="46.02008" lon="6.39625">
        <ele>710.2</ele>
      </trkpt>
      <trkpt lat="46.02013" lon="6.39627">
        <ele>709.7</ele>
      </trkpt>
      <trkpt lat="46.0206" lon="6.39661">
        <ele>707.5</ele>
      </trkpt>
      <trkpt lat="46.0211" lon="6.39703">
        <ele>712.4</ele>
      </trkpt>
      <trkpt lat="46.02116" lon="6.39707">
        <ele>712.9</ele>
      </trkpt>
      <trkpt lat="46.02122" lon="6.39709">
        <ele>712.8</ele>
      </trkpt>
      <trkpt lat="46.02134" lon="6.39711">
        <ele>712</ele>
      </trkpt>
      <trkpt lat="46.02146" lon="6.39708">
        <ele>709.8</ele>
      </trkpt>
      <trkpt lat="46.02163" lon="6.39696">
        <ele>704.5</ele>
      </trkpt>
      <trkpt lat="46.02169" lon="6.39689">
        <ele>702.7</ele>
      </trkpt>
      <trkpt lat="46.02176" lon="6.39682">
        <ele>702.5</ele>
      </trkpt>
      <trkpt lat="46.02204" lon="6.39648">
        <ele>701.7</ele>
      </trkpt>
      <trkpt lat="46.02216" lon="6.39633">
        <ele>701.8</ele>
      </trkpt>
      <trkpt lat="46.02229" lon="6.39611">
        <ele>700.9</ele>
      </trkpt>
      <trkpt lat="46.02254" lon="6.39559">
        <ele>693</ele>
      </trkpt>
      <trkpt lat="46.02269" lon="6.39541">
        <ele>688.6</ele>
      </trkpt>
      <trkpt lat="46.02278" lon="6.39535">
        <ele>687.6</ele>
      </trkpt>
      <trkpt lat="46.02293" lon="6.39528">
        <ele>687.2</ele>
      </trkpt>
      <trkpt lat="46.02302" lon="6.39528">
        <ele>688.4</ele>
      </trkpt>
      <trkpt lat="46.02321" lon="6.39533">
        <ele>692.4</ele>
      </trkpt>
      <trkpt lat="46.02334" lon="6.39534">
        <ele>694.2</ele>
      </trkpt>
      <trkpt lat="46.02344" lon="6.39527">
        <ele>692.5</ele>
      </trkpt>
      <trkpt lat="46.02359" lon="6.39506">
        <ele>687</ele>
      </trkpt>
      <trkpt lat="46.0237" lon="6.39497">
        <ele>684.5</ele>
      </trkpt>
      <trkpt lat="46.02388" lon="6.3949">
        <ele>682.2</ele>
      </trkpt>
      <trkpt lat="46.02407" lon="6.39489">
        <ele>682.5</ele>
      </trkpt>
      <trkpt lat="46.02421" lon="6.39492">
        <ele>685.4</ele>
      </trkpt>
      <trkpt lat="46.02426" lon="6.39492">
        <ele>686.7</ele>
      </trkpt>
      <trkpt lat="46.02434" lon="6.39492">
        <ele>688.8</ele>
      </trkpt>
      <trkpt lat="46.02442" lon="6.39488">
        <ele>689.4</ele>
      </trkpt>
      <trkpt lat="46.02453" lon="6.39473">
        <ele>687.1</ele>
      </trkpt>
      <trkpt lat="46.02455" lon="6.39467">
        <ele>685.6</ele>
      </trkpt>
      <trkpt lat="46.02457" lon="6.39462">
        <ele>684.5</ele>
      </trkpt>
      <trkpt lat="46.02462" lon="6.39422">
        <ele>673.1</ele>
      </trkpt>
      <trkpt lat="46.02467" lon="6.39409">
        <ele>671.1</ele>
      </trkpt>
      <trkpt lat="46.02477" lon="6.39394">
        <ele>670.6</ele>
      </trkpt>
      <trkpt lat="46.0252" lon="6.39348">
        <ele>668.8</ele>
      </trkpt>
      <trkpt lat="46.02532" lon="6.39325">
        <ele>665.2</ele>
      </trkpt>
      <trkpt lat="46.02542" lon="6.3931">
        <ele>665</ele>
      </trkpt>
      <trkpt lat="46.0266" lon="6.39198">
        <ele>660.9</ele>
      </trkpt>
      <trkpt lat="46.02671" lon="6.39192">
        <ele>660.3</ele>
      </trkpt>
      <trkpt lat="46.02718" lon="6.39171">
        <ele>658.1</ele>
      </trkpt>
      <trkpt lat="46.02731" lon="6.39169">
        <ele>658.4</ele>
      </trkpt>
      <trkpt lat="46.02738" lon="6.39172">
        <ele>659.5</ele>
      </trkpt>
      <trkpt lat="46.02747" lon="6.39181">
        <ele>661.9</ele>
      </trkpt>
      <trkpt lat="46.02763" lon="6.3921">
        <ele>665.9</ele>
      </trkpt>
      <trkpt lat="46.02776" lon="6.39239">
        <ele>668.5</ele>
      </trkpt>
      <trkpt lat="46.02789" lon="6.39276">
        <ele>672.5</ele>
      </trkpt>
      <trkpt lat="46.02796" lon="6.39289">
        <ele>673.2</ele>
      </trkpt>
      <trkpt lat="46.0282" lon="6.39313">
        <ele>670.7</ele>
      </trkpt>
      <trkpt lat="46.02837" lon="6.39319">
        <ele>668.6</ele>
      </trkpt>
      <trkpt lat="46.02848" lon="6.39317">
        <ele>671.3</ele>
      </trkpt>
      <trkpt lat="46.02858" lon="6.3931">
        <ele>673.1</ele>
      </trkpt>
      <trkpt lat="46.02866" lon="6.393">
        <ele>674.2</ele>
      </trkpt>
      <trkpt lat="46.02869" lon="6.39293">
        <ele>674.3</ele>
      </trkpt>
      <trkpt lat="46.02873" lon="6.39276">
        <ele>673.6</ele>
      </trkpt>
      <trkpt lat="46.02875" lon="6.39249">
        <ele>671.4</ele>
      </trkpt>
      <trkpt lat="46.02875" lon="6.39134">
        <ele>655.9</ele>
      </trkpt>
      <trkpt lat="46.02878" lon="6.39115">
        <ele>653</ele>
      </trkpt>
      <trkpt lat="46.02888" lon="6.39101">
        <ele>652.2</ele>
      </trkpt>
      <trkpt lat="46.02892" lon="6.39097">
        <ele>652.1</ele>
      </trkpt>
      <trkpt lat="46.02899" lon="6.39095">
        <ele>652.9</ele>
      </trkpt>
      <trkpt lat="46.02908" lon="6.39096">
        <ele>654.8</ele>
      </trkpt>
      <trkpt lat="46.02932" lon="6.39106">
        <ele>659.2</ele>
      </trkpt>
      <trkpt lat="46.02943" lon="6.39108">
        <ele>660</ele>
      </trkpt>
      <trkpt lat="46.02997" lon="6.39103">
        <ele>659</ele>
      </trkpt>
      <trkpt lat="46.03016" lon="6.39096">
        <ele>657.7</ele>
      </trkpt>
      <trkpt lat="46.03063" lon="6.39062">
        <ele>651.9</ele>
      </trkpt>
      <trkpt lat="46.03073" lon="6.39054">
        <ele>651.3</ele>
      </trkpt>
      <trkpt lat="46.03087" lon="6.39039">
        <ele>649.3</ele>
      </trkpt>
      <trkpt lat="46.03116" lon="6.39005">
        <ele>639.6</ele>
      </trkpt>
      <trkpt lat="46.03132" lon="6.38989">
        <ele>634.8</ele>
      </trkpt>
      <trkpt lat="46.03159" lon="6.38968">
        <ele>630.3</ele>
      </trkpt>
      <trkpt lat="46.03238" lon="6.38908">
        <ele>654.4</ele>
      </trkpt>
      <trkpt lat="46.03259" lon="6.38888">
        <ele>655.6</ele>
      </trkpt>
      <trkpt lat="46.03271" lon="6.38874">
        <ele>656.9</ele>
      </trkpt>
      <trkpt lat="46.03362" lon="6.3873">
        <ele>638.6</ele>
      </trkpt>
      <trkpt lat="46.03385" lon="6.38677">
        <ele>636.7</ele>
      </trkpt>
      <trkpt lat="46.03411" lon="6.38638">
        <ele>640.5</ele>
      </trkpt>
      <trkpt lat="46.03417" lon="6.38624">
        <ele>640.6</ele>
      </trkpt>
      <trkpt lat="46.0342" lon="6.38602">
        <ele>639.9</ele>
      </trkpt>
      <trkpt lat="46.03416" lon="6.38572">
        <ele>635.9</ele>
      </trkpt>
      <trkpt lat="46.03416" lon="6.38564">
        <ele>635.8</ele>
      </trkpt>
      <trkpt lat="46.03425" lon="6.38527">
        <ele>639.2</ele>
      </trkpt>
      <trkpt lat="46.03431" lon="6.38507">
        <ele>641.1</ele>
      </trkpt>
      <trkpt lat="46.0348" lon="6.38431">
        <ele>626.1</ele>
      </trkpt>
      <trkpt lat="46.03511" lon="6.38394">
        <ele>619.3</ele>
      </trkpt>
      <trkpt lat="46.03526" lon="6.38381">
        <ele>619.5</ele>
      </trkpt>
      <trkpt lat="46.03536" lon="6.38378">
        <ele>619.8</ele>
      </trkpt>
      <trkpt lat="46.03571" lon="6.38385">
        <ele>631.2</ele>
      </trkpt>
      <trkpt lat="46.0358" lon="6.38384">
        <ele>632.2</ele>
      </trkpt>
      <trkpt lat="46.03605" lon="6.38373">
        <ele>629.4</ele>
      </trkpt>
      <trkpt lat="46.03621" lon="6.38369">
        <ele>631.7</ele>
      </trkpt>
      <trkpt lat="46.0364" lon="6.38354">
        <ele>626.8</ele>
      </trkpt>
      <trkpt lat="46.03659" lon="6.38346">
        <ele>629.3</ele>
      </trkpt>
      <trkpt lat="46.03695" lon="6.38314">
        <ele>614.5</ele>
      </trkpt>
      <trkpt lat="46.03722" lon="6.38299">
        <ele>606.4</ele>
      </trkpt>
      <trkpt lat="46.03738" lon="6.38297">
        <ele>605.7</ele>
      </trkpt>
      <trkpt lat="46.03751" lon="6.383">
        <ele>608.5</ele>
      </trkpt>
      <trkpt lat="46.03782" lon="6.38293">
        <ele>612.4</ele>
      </trkpt>
      <trkpt lat="46.03805" lon="6.3828">
        <ele>609.9</ele>
      </trkpt>
      <trkpt lat="46.03826" lon="6.38266">
        <ele>606.1</ele>
      </trkpt>
      <trkpt lat="46.03858" lon="6.38238">
        <ele>597.5</ele>
      </trkpt>
      <trkpt lat="46.03875" lon="6.38229">
        <ele>597.8</ele>
      </trkpt>
      <trkpt lat="46.03898" lon="6.38212">
        <ele>596.4</ele>
      </trkpt>
      <trkpt lat="46.03913" lon="6.38193">
        <ele>592.3</ele>
      </trkpt>
      <trkpt lat="46.03919" lon="6.38183">
        <ele>589.8</ele>
      </trkpt>
      <trkpt lat="46.03943" lon="6.3812">
        <ele>579.7</ele>
      </trkpt>
      <trkpt lat="46.03951" lon="6.38107">
        <ele>579.2</ele>
      </trkpt>
      <trkpt lat="46.0396" lon="6.38097">
        <ele>579.6</ele>
      </trkpt>
      <trkpt lat="46.04028" lon="6.38052">
        <ele>583.3</ele>
      </trkpt>
      <trkpt lat="46.0405" lon="6.38041">
        <ele>583.2</ele>
      </trkpt>
      <trkpt lat="46.0407" lon="6.38023">
        <ele>579.9</ele>
      </trkpt>
      <trkpt lat="46.04082" lon="6.38018">
        <ele>579.9</ele>
      </trkpt>
      <trkpt lat="46.04111" lon="6.3802">
        <ele>583.3</ele>
      </trkpt>
      <trkpt lat="46.04132" lon="6.38019">
        <ele>584.8</ele>
      </trkpt>
      <trkpt lat="46.04148" lon="6.38014">
        <ele>584.4</ele>
      </trkpt>
      <trkpt lat="46.04173" lon="6.38">
        <ele>582.5</ele>
      </trkpt>
      <trkpt lat="46.04195" lon="6.37992">
        <ele>585.5</ele>
      </trkpt>
      <trkpt lat="46.04205" lon="6.37986">
        <ele>585.9</ele>
      </trkpt>
      <trkpt lat="46.04216" lon="6.37975">
        <ele>584.6</ele>
      </trkpt>
      <trkpt lat="46.04233" lon="6.37949">
        <ele>578.1</ele>
      </trkpt>
      <trkpt lat="46.04246" lon="6.3794">
        <ele>576.1</ele>
      </trkpt>
      <trkpt lat="46.04254" lon="6.37938">
        <ele>576.1</ele>
      </trkpt>
      <trkpt lat="46.04269" lon="6.3794">
        <ele>578.6</ele>
      </trkpt>
      <trkpt lat="46.04318" lon="6.37949">
        <ele>588.1</ele>
      </trkpt>
      <trkpt lat="46.04338" lon="6.37946">
        <ele>590</ele>
      </trkpt>
      <trkpt lat="46.04353" lon="6.37938">
        <ele>591.3</ele>
      </trkpt>
      <trkpt lat="46.04362" lon="6.37929">
        <ele>590.5</ele>
      </trkpt>
      <trkpt lat="46.04368" lon="6.37922">
        <ele>589.6</ele>
      </trkpt>
      <trkpt lat="46.04377" lon="6.37905">
        <ele>587.8</ele>
      </trkpt>
      <trkpt lat="46.04393" lon="6.37889">
        <ele>587.9</ele>
      </trkpt>
      <trkpt lat="46.04411" lon="6.37859">
        <ele>580.4</ele>
      </trkpt>
      <trkpt lat="46.04429" lon="6.3784">
        <ele>576.2</ele>
      </trkpt>
      <trkpt lat="46.0447" lon="6.37825">
        <ele>581</ele>
      </trkpt>
      <trkpt lat="46.04492" lon="6.37824">
        <ele>584.8</ele>
      </trkpt>
      <trkpt lat="46.04507" lon="6.3782">
        <ele>586.1</ele>
      </trkpt>
      <trkpt lat="46.04524" lon="6.37818">
        <ele>589.8</ele>
      </trkpt>
      <trkpt lat="46.04532" lon="6.37815">
        <ele>590.6</ele>
      </trkpt>
      <trkpt lat="46.04544" lon="6.37803">
        <ele>589</ele>
      </trkpt>
      <trkpt lat="46.0455" lon="6.3779">
        <ele>585.5</ele>
      </trkpt>
      <trkpt lat="46.04551" lon="6.3777">
        <ele>577.8</ele>
      </trkpt>
      <trkpt lat="46.04548" lon="6.37734">
        <ele>566.2</ele>
      </trkpt>
      <trkpt lat="46.04556" lon="6.37692">
        <ele>561.3</ele>
      </trkpt>
      <trkpt lat="46.04559" lon="6.37682">
        <ele>559.9</ele>
      </trkpt>
      <trkpt lat="46.04569" lon="6.37671">
        <ele>558.8</ele>
      </trkpt>
      <trkpt lat="46.04589" lon="6.37665">
        <ele>560.2</ele>
      </trkpt>
      <trkpt lat="46.046" lon="6.37658">
        <ele>561</ele>
      </trkpt>
      <trkpt lat="46.04609" lon="6.37655">
        <ele>562.6</ele>
      </trkpt>
      <trkpt lat="46.04626" lon="6.37655">
        <ele>567.8</ele>
      </trkpt>
      <trkpt lat="46.04635" lon="6.3765">
        <ele>568.5</ele>
      </trkpt>
      <trkpt lat="46.04642" lon="6.37641">
        <ele>566.9</ele>
      </trkpt>
      <trkpt lat="46.04646" lon="6.3763">
        <ele>563.5</ele>
      </trkpt>
      <trkpt lat="46.04649" lon="6.37598">
        <ele>551</ele>
      </trkpt>
      <trkpt lat="46.04652" lon="6.37585">
        <ele>546.4</ele>
      </trkpt>
      <trkpt lat="46.04661" lon="6.37574">
        <ele>543.9</ele>
      </trkpt>
      <trkpt lat="46.04673" lon="6.37572">
        <ele>544.2</ele>
      </trkpt>
      <trkpt lat="46.04693" lon="6.3758">
        <ele>548</ele>
      </trkpt>
      <trkpt lat="46.04718" lon="6.37575">
        <ele>546.4</ele>
      </trkpt>
      <trkpt lat="46.04737" lon="6.37566">
        <ele>543.4</ele>
      </trkpt>
      <trkpt lat="46.04744" lon="6.37566">
        <ele>543.6</ele>
      </trkpt>
      <trkpt lat="46.04755" lon="6.37571">
        <ele>545.1</ele>
      </trkpt>
      <trkpt lat="46.04767" lon="6.37581">
        <ele>547.6</ele>
      </trkpt>
      <trkpt lat="46.04786" lon="6.3759">
        <ele>549</ele>
      </trkpt>
      <trkpt lat="46.04803" lon="6.37613">
        <ele>555</ele>
      </trkpt>
      <trkpt lat="46.04815" lon="6.37617">
        <ele>554.5</ele>
      </trkpt>
      <trkpt lat="46.04823" lon="6.37614">
        <ele>552.4</ele>
      </trkpt>
      <trkpt lat="46.04829" lon="6.37607">
        <ele>549.4</ele>
      </trkpt>
      <trkpt lat="46.04842" lon="6.3758">
        <ele>541</ele>
      </trkpt>
      <trkpt lat="46.04848" lon="6.37576">
        <ele>539.8</ele>
      </trkpt>
      <trkpt lat="46.04857" lon="6.37575">
        <ele>539.4</ele>
      </trkpt>
      <trkpt lat="46.04866" lon="6.37578">
        <ele>540.1</ele>
      </trkpt>
      <trkpt lat="46.04929" lon="6.37615">
        <ele>549.3</ele>
      </trkpt>
      <trkpt lat="46.04952" lon="6.37621">
        <ele>547.5</ele>
      </trkpt>
      <trkpt lat="46.04967" lon="6.37636">
        <ele>549.7</ele>
      </trkpt>
      <trkpt lat="46.04975" lon="6.37639">
        <ele>549.2</ele>
      </trkpt>
      <trkpt lat="46.04986" lon="6.37637">
        <ele>546.8</ele>
      </trkpt>
      <trkpt lat="46.05003" lon="6.37623">
        <ele>540.2</ele>
      </trkpt>
      <trkpt lat="46.05009" lon="6.37621">
        <ele>539</ele>
      </trkpt>
      <trkpt lat="46.05012" lon="6.3762">
        <ele>538.5</ele>
      </trkpt>
      <trkpt lat="46.0502" lon="6.37621">
        <ele>538</ele>
      </trkpt>
      <trkpt lat="46.05028" lon="6.37628">
        <ele>539.4</ele>
      </trkpt>
      <trkpt lat="46.05062" lon="6.37666">
        <ele>547.6</ele>
      </trkpt>
      <trkpt lat="46.05082" lon="6.37675">
        <ele>549.1</ele>
      </trkpt>
      <trkpt lat="46.05091" lon="6.37675">
        <ele>548.9</ele>
      </trkpt>
      <trkpt lat="46.05099" lon="6.37672">
        <ele>547.8</ele>
      </trkpt>
      <trkpt lat="46.05117" lon="6.37654">
        <ele>542.9</ele>
      </trkpt>
      <trkpt lat="46.05138" lon="6.37618">
        <ele>535.6</ele>
      </trkpt>
      <trkpt lat="46.05153" lon="6.37603">
        <ele>533.9</ele>
      </trkpt>
      <trkpt lat="46.05173" lon="6.37588">
        <ele>534.1</ele>
      </trkpt>
      <trkpt lat="46.05179" lon="6.37579">
        <ele>535.1</ele>
      </trkpt>
      <trkpt lat="46.05192" lon="6.3754">
        <ele>540</ele>
      </trkpt>
      <trkpt lat="46.05202" lon="6.37515">
        <ele>541.7</ele>
      </trkpt>
      <trkpt lat="46.05206" lon="6.37499">
        <ele>542.1</ele>
      </trkpt>
      <trkpt lat="46.05211" lon="6.37485">
        <ele>542.4</ele>
      </trkpt>
      <trkpt lat="46.05227" lon="6.37465">
        <ele>541.1</ele>
      </trkpt>
      <trkpt lat="46.05255" lon="6.37412">
        <ele>534.9</ele>
      </trkpt>
      <trkpt lat="46.05262" lon="6.37408">
        <ele>534.4</ele>
      </trkpt>
      <trkpt lat="46.05272" lon="6.37407">
        <ele>533.2</ele>
      </trkpt>
      <trkpt lat="46.05344" lon="6.37417">
        <ele>524.1</ele>
      </trkpt>
      <trkpt lat="46.05364" lon="6.37413">
        <ele>520.2</ele>
      </trkpt>
      <trkpt lat="46.0538" lon="6.37402">
        <ele>516</ele>
      </trkpt>
      <trkpt lat="46.05385" lon="6.37393">
        <ele>513.8</ele>
      </trkpt>
      <trkpt lat="46.0539" lon="6.37376">
        <ele>510.5</ele>
      </trkpt>
      <trkpt lat="46.05389" lon="6.37364">
        <ele>509.2</ele>
      </trkpt>
      <trkpt lat="46.05388" lon="6.37358">
        <ele>508.7</ele>
      </trkpt>
      <trkpt lat="46.05386" lon="6.37355">
        <ele>509</ele>
      </trkpt>
      <trkpt lat="46.05384" lon="6.37352">
        <ele>509.2</ele>
      </trkpt>
      <trkpt lat="46.05382" lon="6.37349">
        <ele>509.5</ele>
      </trkpt>
      <trkpt lat="46.05362" lon="6.3733">
        <ele>514.7</ele>
      </trkpt>
      <trkpt lat="46.05359" lon="6.37327">
        <ele>516</ele>
      </trkpt>
      <trkpt lat="46.05357" lon="6.37323">
        <ele>517.1</ele>
      </trkpt>
      <trkpt lat="46.05356" lon="6.37319">
        <ele>517.9</ele>
      </trkpt>
      <trkpt lat="46.05355" lon="6.37315">
        <ele>518.7</ele>
      </trkpt>
      <trkpt lat="46.05355" lon="6.37301">
        <ele>520.2</ele>
      </trkpt>
      <trkpt lat="46.05358" lon="6.3729">
        <ele>520.2</ele>
      </trkpt>
      <trkpt lat="46.05361" lon="6.37285">
        <ele>519.5</ele>
      </trkpt>
      <trkpt lat="46.05384" lon="6.37259">
        <ele>512.4</ele>
      </trkpt>
      <trkpt lat="46.05406" lon="6.37239">
        <ele>506</ele>
      </trkpt>
      <trkpt lat="46.05457" lon="6.37198">
        <ele>503.5</ele>
      </trkpt>
      <trkpt lat="46.05473" lon="6.3719">
        <ele>501.7</ele>
      </trkpt>
      <trkpt lat="46.05492" lon="6.37186">
        <ele>498.5</ele>
      </trkpt>
      <trkpt lat="46.05493" lon="6.37186">
        <ele>498.3</ele>
      </trkpt>
    </trkseg>
  </trk>
  <trk>
    <name><![CDATA[Brizon Mont Saxonnex  Romme La Colombière avec Jean Pierre ]]></name>
    <extensions>
      <line xmlns="http://www.topografix.com/GPX/gpx_style/0/2">
        <color>00FFFF</color>
        <width>4</width>
      </line>
    </extensions>
    <trkseg>
      <trkpt lat="46.15282" lon="6.32996">
        <ele>265.6</ele>
        <time>2020-09-30T08:25:03Z</time>
      </trkpt>
      <trkpt lat="46.15293" lon="6.32963">
        <ele>266.6</ele>
        <time>2020-09-30T08:24:59Z</time>
      </trkpt>
      <trkpt lat="46.15305" lon="6.32932">
        <ele>265.8</ele>
        <time>2020-09-30T08:24:55Z</time>
      </trkpt>
      <trkpt lat="46.15315" lon="6.329">
        <ele>264.8</ele>
        <time>2020-09-30T08:24:51Z</time>
      </trkpt>
      <trkpt lat="46.15325" lon="6.32866">
        <ele>263.4</ele>
        <time>2020-09-30T08:24:47Z</time>
      </trkpt>
      <trkpt lat="46.15339" lon="6.32835">
        <ele>263.8</ele>
        <time>2020-09-30T08:24:43Z</time>
      </trkpt>
      <trkpt lat="46.15355" lon="6.32808">
        <ele>265</ele>
        <time>2020-09-30T08:24:39Z</time>
      </trkpt>
      <trkpt lat="46.15369" lon="6.32784">
        <ele>265</ele>
        <time>2020-09-30T08:24:35Z</time>
      </trkpt>
      <trkpt lat="46.15383" lon="6.3276">
        <ele>264.2</ele>
        <time>2020-09-30T08:24:31Z</time>
      </trkpt>
      <trkpt lat="46.15393" lon="6.32734">
        <ele>263.2</ele>
        <time>2020-09-30T08:24:27Z</time>
      </trkpt>
      <trkpt lat="46.15398" lon="6.32706">
        <ele>262.4</ele>
        <time>2020-09-30T08:24:23Z</time>
      </trkpt>
      <trkpt lat="46.15394" lon="6.32677">
        <ele>260.8</ele>
        <time>2020-09-30T08:24:19Z</time>
      </trkpt>
      <trkpt lat="46.15393" lon="6.32647">
        <ele>259.2</ele>
        <time>2020-09-30T08:24:15Z</time>
      </trkpt>
      <trkpt lat="46.15399" lon="6.32617">
        <ele>257.6</ele>
        <time>2020-09-30T08:24:11Z</time>
      </trkpt>
      <trkpt lat="46.1541" lon="6.32589">
        <ele>256.2</ele>
        <time>2020-09-30T08:24:07Z</time>
      </trkpt>
      <trkpt lat="46.1543" lon="6.32563">
        <ele>254.2</ele>
        <time>2020-09-30T08:24:03Z</time>
      </trkpt>
      <trkpt lat="46.15451" lon="6.32535">
        <ele>253.2</ele>
        <time>2020-09-30T08:23:59Z</time>
      </trkpt>
      <trkpt lat="46.15466" lon="6.32497">
        <ele>252.8</ele>
        <time>2020-09-30T08:23:55Z</time>
      </trkpt>
      <trkpt lat="46.1548" lon="6.32454">
        <ele>252.4</ele>
        <time>2020-09-30T08:23:51Z</time>
      </trkpt>
      <trkpt lat="46.15495" lon="6.32408">
        <ele>254</ele>
        <time>2020-09-30T08:23:47Z</time>
      </trkpt>
      <trkpt lat="46.15515" lon="6.3237">
        <ele>257.2</ele>
        <time>2020-09-30T08:23:43Z</time>
      </trkpt>
      <trkpt lat="46.15543" lon="6.32358">
        <ele>257</ele>
        <time>2020-09-30T08:23:39Z</time>
      </trkpt>
      <trkpt lat="46.15573" lon="6.32344">
        <ele>256.6</ele>
        <time>2020-09-30T08:23:35Z</time>
      </trkpt>
      <trkpt lat="46.15598" lon="6.32316">
        <ele>257.2</ele>
        <time>2020-09-30T08:23:31Z</time>
      </trkpt>
      <trkpt lat="46.15615" lon="6.32287">
        <ele>259</ele>
        <time>2020-09-30T08:23:27Z</time>
      </trkpt>
      <trkpt lat="46.15627" lon="6.3226">
        <ele>259.8</ele>
        <time>2020-09-30T08:23:23Z</time>
      </trkpt>
      <trkpt lat="46.1564" lon="6.3223">
        <ele>259.2</ele>
        <time>2020-09-30T08:23:19Z</time>
      </trkpt>
      <trkpt lat="46.15652" lon="6.32198">
        <ele>259.8</ele>
        <time>2020-09-30T08:23:15Z</time>
      </trkpt>
      <trkpt lat="46.15665" lon="6.32167">
        <ele>261</ele>
        <time>2020-09-30T08:23:11Z</time>
      </trkpt>
      <trkpt lat="46.15678" lon="6.3214">
        <ele>261.8</ele>
        <time>2020-09-30T08:23:07Z</time>
      </trkpt>
      <trkpt lat="46.15692" lon="6.32116">
        <ele>262.4</ele>
        <time>2020-09-30T08:23:03Z</time>
      </trkpt>
      <trkpt lat="46.15708" lon="6.32099">
        <ele>262.2</ele>
        <time>2020-09-30T08:22:59Z</time>
      </trkpt>
      <trkpt lat="46.15726" lon="6.32086">
        <ele>262</ele>
        <time>2020-09-30T08:22:55Z</time>
      </trkpt>
      <trkpt lat="46.15743" lon="6.32074">
        <ele>260.8</ele>
        <time>2020-09-30T08:22:51Z</time>
      </trkpt>
      <trkpt lat="46.15759" lon="6.32063">
        <ele>259.4</ele>
        <time>2020-09-30T08:22:47Z</time>
      </trkpt>
      <trkpt lat="46.15777" lon="6.3205">
        <ele>258</ele>
        <time>2020-09-30T08:22:43Z</time>
      </trkpt>
      <trkpt lat="46.15797" lon="6.32038">
        <ele>256.4</ele>
        <time>2020-09-30T08:22:39Z</time>
      </trkpt>
      <trkpt lat="46.15818" lon="6.32026">
        <ele>256</ele>
        <time>2020-09-30T08:22:35Z</time>
      </trkpt>
      <trkpt lat="46.1584" lon="6.32014">
        <ele>256</ele>
        <time>2020-09-30T08:22:31Z</time>
      </trkpt>
      <trkpt lat="46.15862" lon="6.32001">
        <ele>255.2</ele>
        <time>2020-09-30T08:22:27Z</time>
      </trkpt>
      <trkpt lat="46.15884" lon="6.31989">
        <ele>255.4</ele>
        <time>2020-09-30T08:22:23Z</time>
      </trkpt>
      <trkpt lat="46.15906" lon="6.31978">
        <ele>255</ele>
        <time>2020-09-30T08:22:19Z</time>
      </trkpt>
      <trkpt lat="46.15929" lon="6.31966">
        <ele>254.8</ele>
        <time>2020-09-30T08:22:15Z</time>
      </trkpt>
      <trkpt lat="46.1595" lon="6.31951">
        <ele>254.8</ele>
        <time>2020-09-30T08:22:11Z</time>
      </trkpt>
      <trkpt lat="46.15967" lon="6.31927">
        <ele>254</ele>
        <time>2020-09-30T08:22:07Z</time>
      </trkpt>
      <trkpt lat="46.15979" lon="6.31899">
        <ele>254</ele>
        <time>2020-09-30T08:22:03Z</time>
      </trkpt>
      <trkpt lat="46.1599" lon="6.31871">
        <ele>254</ele>
        <time>2020-09-30T08:21:59Z</time>
      </trkpt>
      <trkpt lat="46.16" lon="6.31844">
        <ele>253.6</ele>
        <time>2020-09-30T08:21:55Z</time>
      </trkpt>
      <trkpt lat="46.1601" lon="6.31817">
        <ele>253.8</ele>
        <time>2020-09-30T08:21:51Z</time>
      </trkpt>
      <trkpt lat="46.1602" lon="6.31792">
        <ele>253.4</ele>
        <time>2020-09-30T08:21:47Z</time>
      </trkpt>
      <trkpt lat="46.16031" lon="6.31767">
        <ele>252.6</ele>
        <time>2020-09-30T08:21:43Z</time>
      </trkpt>
      <trkpt lat="46.16041" lon="6.31742">
        <ele>252</ele>
        <time>2020-09-30T08:21:39Z</time>
      </trkpt>
      <trkpt lat="46.16053" lon="6.31718">
        <ele>251.2</ele>
        <time>2020-09-30T08:21:35Z</time>
      </trkpt>
      <trkpt lat="46.16067" lon="6.31695">
        <ele>251.6</ele>
        <time>2020-09-30T08:21:31Z</time>
      </trkpt>
      <trkpt lat="46.16083" lon="6.31675">
        <ele>251</ele>
        <time>2020-09-30T08:21:27Z</time>
      </trkpt>
      <trkpt lat="46.161" lon="6.31661">
        <ele>251.2</ele>
        <time>2020-09-30T08:21:23Z</time>
      </trkpt>
      <trkpt lat="46.16118" lon="6.31655">
        <ele>250.2</ele>
        <time>2020-09-30T08:21:19Z</time>
      </trkpt>
      <trkpt lat="46.16133" lon="6.3165">
        <ele>249</ele>
        <time>2020-09-30T08:21:15Z</time>
      </trkpt>
      <trkpt lat="46.16141" lon="6.31623">
        <ele>248.2</ele>
        <time>2020-09-30T08:21:11Z</time>
      </trkpt>
      <trkpt lat="46.16146" lon="6.31593">
        <ele>249</ele>
        <time>2020-09-30T08:21:07Z</time>
      </trkpt>
      <trkpt lat="46.16147" lon="6.31567">
        <ele>249.8</ele>
        <time>2020-09-30T08:21:03Z</time>
      </trkpt>
      <trkpt lat="46.16148" lon="6.31554">
        <ele>251</ele>
        <time>2020-09-30T08:20:59Z</time>
      </trkpt>
      <trkpt lat="46.16149" lon="6.31553">
        <ele>251</ele>
        <time>2020-09-30T08:20:55Z</time>
      </trkpt>
      <trkpt lat="46.16156" lon="6.31539">
        <ele>250.2</ele>
        <time>2020-09-30T08:20:51Z</time>
      </trkpt>
      <trkpt lat="46.1617" lon="6.31508">
        <ele>250.2</ele>
        <time>2020-09-30T08:20:47Z</time>
      </trkpt>
      <trkpt lat="46.16179" lon="6.31471">
        <ele>249.6</ele>
        <time>2020-09-30T08:20:43Z</time>
      </trkpt>
      <trkpt lat="46.16172" lon="6.3143">
        <ele>248</ele>
        <time>2020-09-30T08:20:39Z</time>
      </trkpt>
      <trkpt lat="46.16161" lon="6.31387">
        <ele>247.2</ele>
        <time>2020-09-30T08:20:35Z</time>
      </trkpt>
      <trkpt lat="46.1615" lon="6.31344">
        <ele>249.6</ele>
        <time>2020-09-30T08:20:31Z</time>
      </trkpt>
      <trkpt lat="46.16145" lon="6.31308">
        <ele>253</ele>
        <time>2020-09-30T08:20:27Z</time>
      </trkpt>
      <trkpt lat="46.16153" lon="6.31281">
        <ele>252.8</ele>
        <time>2020-09-30T08:20:23Z</time>
      </trkpt>
      <trkpt lat="46.16164" lon="6.3125">
        <ele>251.4</ele>
        <time>2020-09-30T08:20:19Z</time>
      </trkpt>
      <trkpt lat="46.16174" lon="6.31219">
        <ele>250.6</ele>
        <time>2020-09-30T08:20:15Z</time>
      </trkpt>
      <trkpt lat="46.16187" lon="6.31187">
        <ele>249.2</ele>
        <time>2020-09-30T08:20:11Z</time>
      </trkpt>
      <trkpt lat="46.16204" lon="6.31156">
        <ele>248.6</ele>
        <time>2020-09-30T08:20:07Z</time>
      </trkpt>
      <trkpt lat="46.16224" lon="6.31128">
        <ele>247.8</ele>
        <time>2020-09-30T08:20:03Z</time>
      </trkpt>
      <trkpt lat="46.16245" lon="6.31105">
        <ele>248</ele>
        <time>2020-09-30T08:19:59Z</time>
      </trkpt>
      <trkpt lat="46.16268" lon="6.31084">
        <ele>247</ele>
        <time>2020-09-30T08:19:55Z</time>
      </trkpt>
      <trkpt lat="46.16292" lon="6.3106">
        <ele>246.8</ele>
        <time>2020-09-30T08:19:51Z</time>
      </trkpt>
      <trkpt lat="46.16309" lon="6.31026">
        <ele>246.4</ele>
        <time>2020-09-30T08:19:47Z</time>
      </trkpt>
      <trkpt lat="46.16326" lon="6.30994">
        <ele>247.2</ele>
        <time>2020-09-30T08:19:43Z</time>
      </trkpt>
      <trkpt lat="46.16342" lon="6.30964">
        <ele>247.8</ele>
        <time>2020-09-30T08:19:39Z</time>
      </trkpt>
      <trkpt lat="46.1636" lon="6.30934">
        <ele>247.2</ele>
        <time>2020-09-30T08:19:35Z</time>
      </trkpt>
      <trkpt lat="46.1638" lon="6.30908">
        <ele>247.4</ele>
        <time>2020-09-30T08:19:31Z</time>
      </trkpt>
      <trkpt lat="46.16399" lon="6.30884">
        <ele>248.2</ele>
        <time>2020-09-30T08:19:27Z</time>
      </trkpt>
      <trkpt lat="46.16415" lon="6.30859">
        <ele>248.4</ele>
        <time>2020-09-30T08:19:23Z</time>
      </trkpt>
      <trkpt lat="46.16432" lon="6.30837">
        <ele>247.6</ele>
        <time>2020-09-30T08:19:19Z</time>
      </trkpt>
      <trkpt lat="46.16451" lon="6.30819">
        <ele>247.4</ele>
        <time>2020-09-30T08:19:15Z</time>
      </trkpt>
      <trkpt lat="46.16471" lon="6.30802">
        <ele>246.4</ele>
        <time>2020-09-30T08:19:11Z</time>
      </trkpt>
      <trkpt lat="46.16492" lon="6.30785">
        <ele>246</ele>
        <time>2020-09-30T08:19:07Z</time>
      </trkpt>
      <trkpt lat="46.16514" lon="6.30767">
        <ele>245.6</ele>
        <time>2020-09-30T08:19:03Z</time>
      </trkpt>
      <trkpt lat="46.16535" lon="6.3075">
        <ele>246.2</ele>
        <time>2020-09-30T08:18:59Z</time>
      </trkpt>
      <trkpt lat="46.16555" lon="6.30732">
        <ele>246.2</ele>
        <time>2020-09-30T08:18:55Z</time>
      </trkpt>
      <trkpt lat="46.16572" lon="6.3071">
        <ele>246.4</ele>
        <time>2020-09-30T08:18:51Z</time>
      </trkpt>
      <trkpt lat="46.16588" lon="6.30687">
        <ele>246.2</ele>
        <time>2020-09-30T08:18:47Z</time>
      </trkpt>
      <trkpt lat="46.16602" lon="6.30663">
        <ele>246.8</ele>
        <time>2020-09-30T08:18:43Z</time>
      </trkpt>
      <trkpt lat="46.16615" lon="6.30639">
        <ele>246.4</ele>
        <time>2020-09-30T08:18:39Z</time>
      </trkpt>
      <trkpt lat="46.16624" lon="6.30613">
        <ele>246.2</ele>
        <time>2020-09-30T08:18:35Z</time>
      </trkpt>
      <trkpt lat="46.16629" lon="6.30591">
        <ele>246</ele>
        <time>2020-09-30T08:18:31Z</time>
      </trkpt>
      <trkpt lat="46.16633" lon="6.30567">
        <ele>245.6</ele>
        <time>2020-09-30T08:18:27Z</time>
      </trkpt>
      <trkpt lat="46.16632" lon="6.30545">
        <ele>244.2</ele>
        <time>2020-09-30T08:18:23Z</time>
      </trkpt>
      <trkpt lat="46.16623" lon="6.30518">
        <ele>243.4</ele>
        <time>2020-09-30T08:18:19Z</time>
      </trkpt>
      <trkpt lat="46.16612" lon="6.30501">
        <ele>242.6</ele>
        <time>2020-09-30T08:18:15Z</time>
      </trkpt>
      <trkpt lat="46.16598" lon="6.30492">
        <ele>241.2</ele>
        <time>2020-09-30T08:18:11Z</time>
      </trkpt>
      <trkpt lat="46.16586" lon="6.30481">
        <ele>240</ele>
        <time>2020-09-30T08:18:07Z</time>
      </trkpt>
      <trkpt lat="46.16573" lon="6.30468">
        <ele>238.8</ele>
        <time>2020-09-30T08:18:03Z</time>
      </trkpt>
      <trkpt lat="46.16562" lon="6.30451">
        <ele>238.2</ele>
        <time>2020-09-30T08:17:59Z</time>
      </trkpt>
      <trkpt lat="46.16553" lon="6.30434">
        <ele>236.2</ele>
        <time>2020-09-30T08:17:55Z</time>
      </trkpt>
      <trkpt lat="46.16544" lon="6.30417">
        <ele>235.2</ele>
        <time>2020-09-30T08:17:51Z</time>
      </trkpt>
      <trkpt lat="46.16534" lon="6.30398">
        <ele>233.6</ele>
        <time>2020-09-30T08:17:47Z</time>
      </trkpt>
      <trkpt lat="46.16521" lon="6.30374">
        <ele>233</ele>
        <time>2020-09-30T08:17:43Z</time>
      </trkpt>
      <trkpt lat="46.16506" lon="6.3035">
        <ele>232.6</ele>
        <time>2020-09-30T08:17:39Z</time>
      </trkpt>
      <trkpt lat="46.16493" lon="6.30325">
        <ele>231.6</ele>
        <time>2020-09-30T08:17:35Z</time>
      </trkpt>
      <trkpt lat="46.16479" lon="6.30302">
        <ele>231</ele>
        <time>2020-09-30T08:17:31Z</time>
      </trkpt>
      <trkpt lat="46.16465" lon="6.30277">
        <ele>230.4</ele>
        <time>2020-09-30T08:17:27Z</time>
      </trkpt>
      <trkpt lat="46.16451" lon="6.30252">
        <ele>229.2</ele>
        <time>2020-09-30T08:17:23Z</time>
      </trkpt>
      <trkpt lat="46.16436" lon="6.30227">
        <ele>228.4</ele>
        <time>2020-09-30T08:17:19Z</time>
      </trkpt>
      <trkpt lat="46.16419" lon="6.30201">
        <ele>227.6</ele>
        <time>2020-09-30T08:17:15Z</time>
      </trkpt>
      <trkpt lat="46.16404" lon="6.30176">
        <ele>227.6</ele>
        <time>2020-09-30T08:17:11Z</time>
      </trkpt>
      <trkpt lat="46.16389" lon="6.3015">
        <ele>227.6</ele>
        <time>2020-09-30T08:17:07Z</time>
      </trkpt>
      <trkpt lat="46.16374" lon="6.30126">
        <ele>227.6</ele>
        <time>2020-09-30T08:17:03Z</time>
      </trkpt>
      <trkpt lat="46.16359" lon="6.30101">
        <ele>226.4</ele>
        <time>2020-09-30T08:16:59Z</time>
      </trkpt>
      <trkpt lat="46.16342" lon="6.30075">
        <ele>225.4</ele>
        <time>2020-09-30T08:16:55Z</time>
      </trkpt>
      <trkpt lat="46.16327" lon="6.30049">
        <ele>224.8</ele>
        <time>2020-09-30T08:16:51Z</time>
      </trkpt>
      <trkpt lat="46.16312" lon="6.30023">
        <ele>224.4</ele>
        <time>2020-09-30T08:16:47Z</time>
      </trkpt>
      <trkpt lat="46.16296" lon="6.29996">
        <ele>223.8</ele>
        <time>2020-09-30T08:16:43Z</time>
      </trkpt>
      <trkpt lat="46.16283" lon="6.29968">
        <ele>223</ele>
        <time>2020-09-30T08:16:39Z</time>
      </trkpt>
      <trkpt lat="46.1627" lon="6.2994">
        <ele>222.6</ele>
        <time>2020-09-30T08:16:35Z</time>
      </trkpt>
      <trkpt lat="46.16259" lon="6.2991">
        <ele>221.8</ele>
        <time>2020-09-30T08:16:31Z</time>
      </trkpt>
      <trkpt lat="46.16249" lon="6.29876">
        <ele>221.2</ele>
        <time>2020-09-30T08:16:27Z</time>
      </trkpt>
      <trkpt lat="46.16241" lon="6.29841">
        <ele>222</ele>
        <time>2020-09-30T08:16:23Z</time>
      </trkpt>
      <trkpt lat="46.16232" lon="6.29806">
        <ele>220.8</ele>
        <time>2020-09-30T08:16:19Z</time>
      </trkpt>
      <trkpt lat="46.16223" lon="6.29771">
        <ele>220.6</ele>
        <time>2020-09-30T08:16:15Z</time>
      </trkpt>
      <trkpt lat="46.16215" lon="6.29733">
        <ele>220.8</ele>
        <time>2020-09-30T08:16:11Z</time>
      </trkpt>
      <trkpt lat="46.1621" lon="6.29696">
        <ele>221</ele>
        <time>2020-09-30T08:16:07Z</time>
      </trkpt>
      <trkpt lat="46.16211" lon="6.29663">
        <ele>220.6</ele>
        <time>2020-09-30T08:16:03Z</time>
      </trkpt>
      <trkpt lat="46.16216" lon="6.29629">
        <ele>220.2</ele>
        <time>2020-09-30T08:15:59Z</time>
      </trkpt>
      <trkpt lat="46.16218" lon="6.29595">
        <ele>219.4</ele>
        <time>2020-09-30T08:15:55Z</time>
      </trkpt>
      <trkpt lat="46.16219" lon="6.29559">
        <ele>219.2</ele>
        <time>2020-09-30T08:15:51Z</time>
      </trkpt>
      <trkpt lat="46.16217" lon="6.29522">
        <ele>219.2</ele>
        <time>2020-09-30T08:15:47Z</time>
      </trkpt>
      <trkpt lat="46.16214" lon="6.29486">
        <ele>219.4</ele>
        <time>2020-09-30T08:15:43Z</time>
      </trkpt>
      <trkpt lat="46.16212" lon="6.29454">
        <ele>219</ele>
        <time>2020-09-30T08:15:39Z</time>
      </trkpt>
      <trkpt lat="46.1621" lon="6.29423">
        <ele>218.2</ele>
        <time>2020-09-30T08:15:35Z</time>
      </trkpt>
      <trkpt lat="46.16204" lon="6.29393">
        <ele>218</ele>
        <time>2020-09-30T08:15:31Z</time>
      </trkpt>
      <trkpt lat="46.16197" lon="6.29363">
        <ele>217</ele>
        <time>2020-09-30T08:15:27Z</time>
      </trkpt>
      <trkpt lat="46.16189" lon="6.29333">
        <ele>216.6</ele>
        <time>2020-09-30T08:15:23Z</time>
      </trkpt>
      <trkpt lat="46.16181" lon="6.29304">
        <ele>216.4</ele>
        <time>2020-09-30T08:15:19Z</time>
      </trkpt>
      <trkpt lat="46.16173" lon="6.29276">
        <ele>214.8</ele>
        <time>2020-09-30T08:15:15Z</time>
      </trkpt>
      <trkpt lat="46.16165" lon="6.29246">
        <ele>214.8</ele>
        <time>2020-09-30T08:15:11Z</time>
      </trkpt>
      <trkpt lat="46.16157" lon="6.29218">
        <ele>213</ele>
        <time>2020-09-30T08:15:07Z</time>
      </trkpt>
      <trkpt lat="46.1615" lon="6.29187">
        <ele>212.8</ele>
        <time>2020-09-30T08:15:03Z</time>
      </trkpt>
      <trkpt lat="46.16143" lon="6.29156">
        <ele>211.8</ele>
        <time>2020-09-30T08:14:59Z</time>
      </trkpt>
      <trkpt lat="46.16134" lon="6.29126">
        <ele>211.8</ele>
        <time>2020-09-30T08:14:55Z</time>
      </trkpt>
      <trkpt lat="46.16127" lon="6.29096">
        <ele>211.2</ele>
        <time>2020-09-30T08:14:51Z</time>
      </trkpt>
      <trkpt lat="46.16119" lon="6.29067">
        <ele>210.2</ele>
        <time>2020-09-30T08:14:47Z</time>
      </trkpt>
      <trkpt lat="46.16111" lon="6.29036">
        <ele>209.2</ele>
        <time>2020-09-30T08:14:43Z</time>
      </trkpt>
      <trkpt lat="46.16104" lon="6.29005">
        <ele>207.8</ele>
        <time>2020-09-30T08:14:39Z</time>
      </trkpt>
      <trkpt lat="46.16093" lon="6.28973">
        <ele>207.8</ele>
        <time>2020-09-30T08:14:35Z</time>
      </trkpt>
      <trkpt lat="46.16083" lon="6.28939">
        <ele>207.6</ele>
        <time>2020-09-30T08:14:31Z</time>
      </trkpt>
      <trkpt lat="46.16074" lon="6.28905">
        <ele>207.4</ele>
        <time>2020-09-30T08:14:27Z</time>
      </trkpt>
      <trkpt lat="46.16065" lon="6.28872">
        <ele>208</ele>
        <time>2020-09-30T08:14:23Z</time>
      </trkpt>
      <trkpt lat="46.16055" lon="6.28841">
        <ele>208</ele>
        <time>2020-09-30T08:14:19Z</time>
      </trkpt>
      <trkpt lat="46.16043" lon="6.28812">
        <ele>209</ele>
        <time>2020-09-30T08:14:15Z</time>
      </trkpt>
      <trkpt lat="46.16032" lon="6.28785">
        <ele>209</ele>
        <time>2020-09-30T08:14:11Z</time>
      </trkpt>
      <trkpt lat="46.16021" lon="6.2876">
        <ele>208.4</ele>
        <time>2020-09-30T08:14:07Z</time>
      </trkpt>
      <trkpt lat="46.16008" lon="6.28737">
        <ele>207.8</ele>
        <time>2020-09-30T08:14:03Z</time>
      </trkpt>
      <trkpt lat="46.15996" lon="6.28715">
        <ele>206.4</ele>
        <time>2020-09-30T08:13:59Z</time>
      </trkpt>
      <trkpt lat="46.15983" lon="6.28694">
        <ele>206.2</ele>
        <time>2020-09-30T08:13:55Z</time>
      </trkpt>
      <trkpt lat="46.1597" lon="6.28672">
        <ele>205.4</ele>
        <time>2020-09-30T08:13:51Z</time>
      </trkpt>
      <trkpt lat="46.15957" lon="6.28648">
        <ele>203.6</ele>
        <time>2020-09-30T08:13:47Z</time>
      </trkpt>
      <trkpt lat="46.15942" lon="6.28622">
        <ele>200.6</ele>
        <time>2020-09-30T08:13:43Z</time>
      </trkpt>
      <trkpt lat="46.15921" lon="6.28593">
        <ele>199.6</ele>
        <time>2020-09-30T08:13:39Z</time>
      </trkpt>
      <trkpt lat="46.15899" lon="6.28564">
        <ele>198.8</ele>
        <time>2020-09-30T08:13:35Z</time>
      </trkpt>
      <trkpt lat="46.15873" lon="6.28539">
        <ele>198.6</ele>
        <time>2020-09-30T08:13:31Z</time>
      </trkpt>
      <trkpt lat="46.1587" lon="6.28493">
        <ele>198.6</ele>
        <time>2020-09-30T08:13:27Z</time>
      </trkpt>
      <trkpt lat="46.1588" lon="6.28446">
        <ele>199.8</ele>
        <time>2020-09-30T08:13:23Z</time>
      </trkpt>
      <trkpt lat="46.15896" lon="6.28401">
        <ele>201.2</ele>
        <time>2020-09-30T08:13:19Z</time>
      </trkpt>
      <trkpt lat="46.15914" lon="6.28361">
        <ele>201.4</ele>
        <time>2020-09-30T08:13:15Z</time>
      </trkpt>
      <trkpt lat="46.15935" lon="6.28321">
        <ele>201.4</ele>
        <time>2020-09-30T08:13:11Z</time>
      </trkpt>
      <trkpt lat="46.15955" lon="6.28282">
        <ele>202</ele>
        <time>2020-09-30T08:13:07Z</time>
      </trkpt>
      <trkpt lat="46.15975" lon="6.28243">
        <ele>202.8</ele>
        <time>2020-09-30T08:13:03Z</time>
      </trkpt>
      <trkpt lat="46.15995" lon="6.28203">
        <ele>203.6</ele>
        <time>2020-09-30T08:12:59Z</time>
      </trkpt>
      <trkpt lat="46.1601" lon="6.28162">
        <ele>204.4</ele>
        <time>2020-09-30T08:12:55Z</time>
      </trkpt>
      <trkpt lat="46.16026" lon="6.28121">
        <ele>204</ele>
        <time>2020-09-30T08:12:51Z</time>
      </trkpt>
      <trkpt lat="46.16041" lon="6.28079">
        <ele>205.4</ele>
        <time>2020-09-30T08:12:47Z</time>
      </trkpt>
      <trkpt lat="46.16057" lon="6.28039">
        <ele>204.6</ele>
        <time>2020-09-30T08:12:43Z</time>
      </trkpt>
      <trkpt lat="46.16072" lon="6.27999">
        <ele>204.8</ele>
        <time>2020-09-30T08:12:39Z</time>
      </trkpt>
      <trkpt lat="46.16087" lon="6.27959">
        <ele>204.2</ele>
        <time>2020-09-30T08:12:35Z</time>
      </trkpt>
      <trkpt lat="46.16102" lon="6.27919">
        <ele>203.8</ele>
        <time>2020-09-30T08:12:31Z</time>
      </trkpt>
      <trkpt lat="46.16117" lon="6.2788">
        <ele>204.4</ele>
        <time>2020-09-30T08:12:27Z</time>
      </trkpt>
      <trkpt lat="46.16131" lon="6.27841">
        <ele>204.8</ele>
        <time>2020-09-30T08:12:23Z</time>
      </trkpt>
      <trkpt lat="46.16146" lon="6.27803">
        <ele>205.2</ele>
        <time>2020-09-30T08:12:19Z</time>
      </trkpt>
      <trkpt lat="46.1616" lon="6.27765">
        <ele>205</ele>
        <time>2020-09-30T08:12:15Z</time>
      </trkpt>
      <trkpt lat="46.16175" lon="6.27727">
        <ele>205.2</ele>
        <time>2020-09-30T08:12:11Z</time>
      </trkpt>
      <trkpt lat="46.16189" lon="6.27689">
        <ele>205.4</ele>
        <time>2020-09-30T08:12:07Z</time>
      </trkpt>
      <trkpt lat="46.16202" lon="6.27651">
        <ele>205.8</ele>
        <time>2020-09-30T08:12:03Z</time>
      </trkpt>
      <trkpt lat="46.16208" lon="6.27612">
        <ele>206.2</ele>
        <time>2020-09-30T08:11:59Z</time>
      </trkpt>
      <trkpt lat="46.16227" lon="6.27584">
        <ele>207.2</ele>
        <time>2020-09-30T08:11:55Z</time>
      </trkpt>
      <trkpt lat="46.16242" lon="6.27554">
        <ele>207.8</ele>
        <time>2020-09-30T08:11:51Z</time>
      </trkpt>
      <trkpt lat="46.16256" lon="6.27518">
        <ele>207.8</ele>
        <time>2020-09-30T08:11:47Z</time>
      </trkpt>
      <trkpt lat="46.1627" lon="6.27483">
        <ele>207.8</ele>
        <time>2020-09-30T08:11:43Z</time>
      </trkpt>
      <trkpt lat="46.16282" lon="6.27449">
        <ele>208.8</ele>
        <time>2020-09-30T08:11:39Z</time>
      </trkpt>
      <trkpt lat="46.16294" lon="6.27418">
        <ele>208.6</ele>
        <time>2020-09-30T08:11:35Z</time>
      </trkpt>
      <trkpt lat="46.16307" lon="6.27384">
        <ele>208.4</ele>
        <time>2020-09-30T08:11:31Z</time>
      </trkpt>
      <trkpt lat="46.1632" lon="6.2735">
        <ele>208.4</ele>
        <time>2020-09-30T08:11:27Z</time>
      </trkpt>
      <trkpt lat="46.16331" lon="6.27317">
        <ele>209</ele>
        <time>2020-09-30T08:11:23Z</time>
      </trkpt>
      <trkpt lat="46.16343" lon="6.27289">
        <ele>209</ele>
        <time>2020-09-30T08:11:19Z</time>
      </trkpt>
      <trkpt lat="46.16355" lon="6.27265">
        <ele>208.6</ele>
        <time>2020-09-30T08:11:15Z</time>
      </trkpt>
      <trkpt lat="46.1637" lon="6.27246">
        <ele>208.2</ele>
        <time>2020-09-30T08:11:11Z</time>
      </trkpt>
      <trkpt lat="46.16387" lon="6.27233">
        <ele>206.2</ele>
        <time>2020-09-30T08:11:07Z</time>
      </trkpt>
      <trkpt lat="46.16406" lon="6.27225">
        <ele>205</ele>
        <time>2020-09-30T08:11:03Z</time>
      </trkpt>
      <trkpt lat="46.16425" lon="6.27222">
        <ele>205.4</ele>
        <time>2020-09-30T08:10:59Z</time>
      </trkpt>
      <trkpt lat="46.16444" lon="6.27227">
        <ele>203.8</ele>
        <time>2020-09-30T08:10:55Z</time>
      </trkpt>
      <trkpt lat="46.16463" lon="6.27234">
        <ele>203.2</ele>
        <time>2020-09-30T08:10:51Z</time>
      </trkpt>
      <trkpt lat="46.16483" lon="6.2724">
        <ele>202.4</ele>
        <time>2020-09-30T08:10:47Z</time>
      </trkpt>
      <trkpt lat="46.16501" lon="6.27248">
        <ele>201.4</ele>
        <time>2020-09-30T08:10:43Z</time>
      </trkpt>
      <trkpt lat="46.16519" lon="6.27255">
        <ele>200.4</ele>
        <time>2020-09-30T08:10:39Z</time>
      </trkpt>
      <trkpt lat="46.16537" lon="6.27262">
        <ele>200.2</ele>
        <time>2020-09-30T08:10:35Z</time>
      </trkpt>
      <trkpt lat="46.16555" lon="6.27269">
        <ele>199.4</ele>
        <time>2020-09-30T08:10:31Z</time>
      </trkpt>
      <trkpt lat="46.16573" lon="6.27278">
        <ele>198.6</ele>
        <time>2020-09-30T08:10:27Z</time>
      </trkpt>
      <trkpt lat="46.16589" lon="6.27293">
        <ele>197.4</ele>
        <time>2020-09-30T08:10:23Z</time>
      </trkpt>
      <trkpt lat="46.16604" lon="6.27311">
        <ele>196.2</ele>
        <time>2020-09-30T08:10:19Z</time>
      </trkpt>
      <trkpt lat="46.1662" lon="6.27325">
        <ele>195.4</ele>
        <time>2020-09-30T08:10:15Z</time>
      </trkpt>
      <trkpt lat="46.16638" lon="6.27334">
        <ele>194.4</ele>
        <time>2020-09-30T08:10:11Z</time>
      </trkpt>
      <trkpt lat="46.16657" lon="6.27341">
        <ele>193.2</ele>
        <time>2020-09-30T08:10:07Z</time>
      </trkpt>
      <trkpt lat="46.16676" lon="6.27346">
        <ele>192.8</ele>
        <time>2020-09-30T08:10:03Z</time>
      </trkpt>
      <trkpt lat="46.16698" lon="6.27351">
        <ele>191.4</ele>
        <time>2020-09-30T08:09:59Z</time>
      </trkpt>
      <trkpt lat="46.16719" lon="6.27356">
        <ele>190.8</ele>
        <time>2020-09-30T08:09:55Z</time>
      </trkpt>
      <trkpt lat="46.16739" lon="6.2736">
        <ele>189.6</ele>
        <time>2020-09-30T08:09:51Z</time>
      </trkpt>
      <trkpt lat="46.16761" lon="6.27363">
        <ele>189</ele>
        <time>2020-09-30T08:09:47Z</time>
      </trkpt>
      <trkpt lat="46.16783" lon="6.27364">
        <ele>187.6</ele>
        <time>2020-09-30T08:09:43Z</time>
      </trkpt>
      <trkpt lat="46.16805" lon="6.27355">
        <ele>187</ele>
        <time>2020-09-30T08:09:39Z</time>
      </trkpt>
      <trkpt lat="46.16824" lon="6.27332">
        <ele>185</ele>
        <time>2020-09-30T08:09:35Z</time>
      </trkpt>
      <trkpt lat="46.16836" lon="6.27298">
        <ele>183.8</ele>
        <time>2020-09-30T08:09:31Z</time>
      </trkpt>
      <trkpt lat="46.16841" lon="6.2726">
        <ele>183.8</ele>
        <time>2020-09-30T08:09:27Z</time>
      </trkpt>
      <trkpt lat="46.16847" lon="6.27223">
        <ele>183.8</ele>
        <time>2020-09-30T08:09:23Z</time>
      </trkpt>
      <trkpt lat="46.16852" lon="6.27185">
        <ele>184</ele>
        <time>2020-09-30T08:09:19Z</time>
      </trkpt>
      <trkpt lat="46.16847" lon="6.27151">
        <ele>184.6</ele>
        <time>2020-09-30T08:09:15Z</time>
      </trkpt>
      <trkpt lat="46.16827" lon="6.27135">
        <ele>184.2</ele>
        <time>2020-09-30T08:09:11Z</time>
      </trkpt>
      <trkpt lat="46.1681" lon="6.27123">
        <ele>184.4</ele>
        <time>2020-09-30T08:09:07Z</time>
      </trkpt>
      <trkpt lat="46.16787" lon="6.27117">
        <ele>183</ele>
        <time>2020-09-30T08:09:03Z</time>
      </trkpt>
      <trkpt lat="46.16754" lon="6.27086">
        <ele>182.2</ele>
        <time>2020-09-30T08:08:59Z</time>
      </trkpt>
      <trkpt lat="46.16722" lon="6.27038">
        <ele>187.6</ele>
        <time>2020-09-30T08:08:55Z</time>
      </trkpt>
      <trkpt lat="46.16732" lon="6.26981">
        <ele>191.4</ele>
        <time>2020-09-30T08:08:51Z</time>
      </trkpt>
      <trkpt lat="46.16766" lon="6.26943">
        <ele>194</ele>
        <time>2020-09-30T08:08:47Z</time>
      </trkpt>
      <trkpt lat="46.16802" lon="6.26914">
        <ele>198.6</ele>
        <time>2020-09-30T08:08:43Z</time>
      </trkpt>
      <trkpt lat="46.16839" lon="6.26892">
        <ele>201.8</ele>
        <time>2020-09-30T08:08:39Z</time>
      </trkpt>
      <trkpt lat="46.16868" lon="6.2686">
        <ele>205.2</ele>
        <time>2020-09-30T08:08:35Z</time>
      </trkpt>
      <trkpt lat="46.16891" lon="6.26819">
        <ele>206.8</ele>
        <time>2020-09-30T08:08:31Z</time>
      </trkpt>
      <trkpt lat="46.16903" lon="6.26773">
        <ele>208.4</ele>
        <time>2020-09-30T08:08:27Z</time>
      </trkpt>
      <trkpt lat="46.16905" lon="6.26725">
        <ele>208.8</ele>
        <time>2020-09-30T08:08:23Z</time>
      </trkpt>
      <trkpt lat="46.16917" lon="6.26683">
        <ele>208.4</ele>
        <time>2020-09-30T08:08:19Z</time>
      </trkpt>
      <trkpt lat="46.16937" lon="6.26647">
        <ele>208.8</ele>
        <time>2020-09-30T08:08:15Z</time>
      </trkpt>
      <trkpt lat="46.16959" lon="6.2661">
        <ele>209.2</ele>
        <time>2020-09-30T08:08:11Z</time>
      </trkpt>
      <trkpt lat="46.16984" lon="6.26569">
        <ele>209.2</ele>
        <time>2020-09-30T08:08:07Z</time>
      </trkpt>
      <trkpt lat="46.17009" lon="6.26528">
        <ele>212</ele>
        <time>2020-09-30T08:08:03Z</time>
      </trkpt>
      <trkpt lat="46.17031" lon="6.26491">
        <ele>217</ele>
        <time>2020-09-30T08:07:59Z</time>
      </trkpt>
      <trkpt lat="46.1705" lon="6.2646">
        <ele>219.2</ele>
        <time>2020-09-30T08:07:55Z</time>
      </trkpt>
      <trkpt lat="46.17066" lon="6.26434">
        <ele>221.8</ele>
        <time>2020-09-30T08:07:51Z</time>
      </trkpt>
      <trkpt lat="46.1708" lon="6.2641">
        <ele>222.8</ele>
        <time>2020-09-30T08:07:47Z</time>
      </trkpt>
      <trkpt lat="46.17091" lon="6.26391">
        <ele>223.6</ele>
        <time>2020-09-30T08:07:43Z</time>
      </trkpt>
      <trkpt lat="46.17105" lon="6.26368">
        <ele>222.8</ele>
        <time>2020-09-30T08:07:39Z</time>
      </trkpt>
      <trkpt lat="46.17121" lon="6.26341">
        <ele>223.4</ele>
        <time>2020-09-30T08:07:35Z</time>
      </trkpt>
      <trkpt lat="46.17137" lon="6.26312">
        <ele>224.2</ele>
        <time>2020-09-30T08:07:31Z</time>
      </trkpt>
      <trkpt lat="46.17153" lon="6.26285">
        <ele>224.6</ele>
        <time>2020-09-30T08:07:27Z</time>
      </trkpt>
      <trkpt lat="46.17169" lon="6.2626">
        <ele>224.8</ele>
        <time>2020-09-30T08:07:23Z</time>
      </trkpt>
      <trkpt lat="46.17185" lon="6.26235">
        <ele>225.4</ele>
        <time>2020-09-30T08:07:19Z</time>
      </trkpt>
      <trkpt lat="46.17201" lon="6.2621">
        <ele>224.8</ele>
        <time>2020-09-30T08:07:15Z</time>
      </trkpt>
      <trkpt lat="46.17217" lon="6.26185">
        <ele>225.6</ele>
        <time>2020-09-30T08:07:11Z</time>
      </trkpt>
      <trkpt lat="46.17231" lon="6.26161">
        <ele>225.6</ele>
        <time>2020-09-30T08:07:07Z</time>
      </trkpt>
      <trkpt lat="46.17245" lon="6.26136">
        <ele>225</ele>
        <time>2020-09-30T08:07:03Z</time>
      </trkpt>
      <trkpt lat="46.17257" lon="6.26114">
        <ele>225.2</ele>
        <time>2020-09-30T08:06:59Z</time>
      </trkpt>
      <trkpt lat="46.17267" lon="6.26091">
        <ele>222.8</ele>
        <time>2020-09-30T08:06:55Z</time>
      </trkpt>
      <trkpt lat="46.17278" lon="6.26069">
        <ele>221.6</ele>
        <time>2020-09-30T08:06:51Z</time>
      </trkpt>
      <trkpt lat="46.17292" lon="6.26048">
        <ele>219.4</ele>
        <time>2020-09-30T08:06:47Z</time>
      </trkpt>
      <trkpt lat="46.17305" lon="6.2602">
        <ele>218</ele>
        <time>2020-09-30T08:06:43Z</time>
      </trkpt>
      <trkpt lat="46.1732" lon="6.2599">
        <ele>217.6</ele>
        <time>2020-09-30T08:06:39Z</time>
      </trkpt>
      <trkpt lat="46.17337" lon="6.25959">
        <ele>218.6</ele>
        <time>2020-09-30T08:06:35Z</time>
      </trkpt>
      <trkpt lat="46.1735" lon="6.25924">
        <ele>219.4</ele>
        <time>2020-09-30T08:06:31Z</time>
      </trkpt>
      <trkpt lat="46.17363" lon="6.25889">
        <ele>217.6</ele>
        <time>2020-09-30T08:06:27Z</time>
      </trkpt>
      <trkpt lat="46.17382" lon="6.25862">
        <ele>220.8</ele>
        <time>2020-09-30T08:06:23Z</time>
      </trkpt>
      <trkpt lat="46.17401" lon="6.25841">
        <ele>222.4</ele>
        <time>2020-09-30T08:06:19Z</time>
      </trkpt>
      <trkpt lat="46.17413" lon="6.2582">
        <ele>224.4</ele>
        <time>2020-09-30T08:06:15Z</time>
      </trkpt>
      <trkpt lat="46.17416" lon="6.25797">
        <ele>223.6</ele>
        <time>2020-09-30T08:06:11Z</time>
      </trkpt>
      <trkpt lat="46.17419" lon="6.25783">
        <ele>224</ele>
        <time>2020-09-30T08:06:07Z</time>
      </trkpt>
      <trkpt lat="46.17421" lon="6.25781">
        <ele>224.2</ele>
        <time>2020-09-30T08:06:03Z</time>
      </trkpt>
      <trkpt lat="46.17431" lon="6.25775">
        <ele>224.2</ele>
        <time>2020-09-30T08:05:59Z</time>
      </trkpt>
      <trkpt lat="46.17443" lon="6.25758">
        <ele>223.8</ele>
        <time>2020-09-30T08:05:55Z</time>
      </trkpt>
      <trkpt lat="46.17456" lon="6.25745">
        <ele>222.4</ele>
        <time>2020-09-30T08:05:51Z</time>
      </trkpt>
      <trkpt lat="46.17471" lon="6.25732">
        <ele>221</ele>
        <time>2020-09-30T08:05:47Z</time>
      </trkpt>
      <trkpt lat="46.17486" lon="6.2572">
        <ele>220</ele>
        <time>2020-09-30T08:05:43Z</time>
      </trkpt>
      <trkpt lat="46.17501" lon="6.25708">
        <ele>219.2</ele>
        <time>2020-09-30T08:05:39Z</time>
      </trkpt>
      <trkpt lat="46.17516" lon="6.25694">
        <ele>217.8</ele>
        <time>2020-09-30T08:05:35Z</time>
      </trkpt>
      <trkpt lat="46.17531" lon="6.25681">
        <ele>217</ele>
        <time>2020-09-30T08:05:31Z</time>
      </trkpt>
      <trkpt lat="46.17548" lon="6.25666">
        <ele>215.2</ele>
        <time>2020-09-30T08:05:27Z</time>
      </trkpt>
      <trkpt lat="46.17566" lon="6.25653">
        <ele>214.2</ele>
        <time>2020-09-30T08:05:23Z</time>
      </trkpt>
      <trkpt lat="46.17586" lon="6.25642">
        <ele>213.8</ele>
        <time>2020-09-30T08:05:19Z</time>
      </trkpt>
      <trkpt lat="46.17607" lon="6.25632">
        <ele>213</ele>
        <time>2020-09-30T08:05:15Z</time>
      </trkpt>
      <trkpt lat="46.17628" lon="6.25621">
        <ele>212.6</ele>
        <time>2020-09-30T08:05:11Z</time>
      </trkpt>
      <trkpt lat="46.17648" lon="6.2561">
        <ele>212</ele>
        <time>2020-09-30T08:05:07Z</time>
      </trkpt>
      <trkpt lat="46.1767" lon="6.25598">
        <ele>211.2</ele>
        <time>2020-09-30T08:05:03Z</time>
      </trkpt>
      <trkpt lat="46.17693" lon="6.25587">
        <ele>210</ele>
        <time>2020-09-30T08:04:59Z</time>
      </trkpt>
      <trkpt lat="46.17716" lon="6.25575">
        <ele>208.8</ele>
        <time>2020-09-30T08:04:55Z</time>
      </trkpt>
      <trkpt lat="46.17741" lon="6.25561">
        <ele>209</ele>
        <time>2020-09-30T08:04:51Z</time>
      </trkpt>
      <trkpt lat="46.17769" lon="6.2555">
        <ele>207.8</ele>
        <time>2020-09-30T08:04:47Z</time>
      </trkpt>
      <trkpt lat="46.17801" lon="6.25546">
        <ele>207.2</ele>
        <time>2020-09-30T08:04:43Z</time>
      </trkpt>
      <trkpt lat="46.17834" lon="6.25544">
        <ele>207</ele>
        <time>2020-09-30T08:04:39Z</time>
      </trkpt>
      <trkpt lat="46.17867" lon="6.25551">
        <ele>209.2</ele>
        <time>2020-09-30T08:04:35Z</time>
      </trkpt>
      <trkpt lat="46.17897" lon="6.25551">
        <ele>211.8</ele>
        <time>2020-09-30T08:04:31Z</time>
      </trkpt>
      <trkpt lat="46.17922" lon="6.25547">
        <ele>213.6</ele>
        <time>2020-09-30T08:04:27Z</time>
      </trkpt>
      <trkpt lat="46.17946" lon="6.25541">
        <ele>215.8</ele>
        <time>2020-09-30T08:04:23Z</time>
      </trkpt>
      <trkpt lat="46.17966" lon="6.25534">
        <ele>216.4</ele>
        <time>2020-09-30T08:04:19Z</time>
      </trkpt>
      <trkpt lat="46.17985" lon="6.25524">
        <ele>216.8</ele>
        <time>2020-09-30T08:04:15Z</time>
      </trkpt>
      <trkpt lat="46.18003" lon="6.25512">
        <ele>216.6</ele>
        <time>2020-09-30T08:04:11Z</time>
      </trkpt>
      <trkpt lat="46.18018" lon="6.25498">
        <ele>216.4</ele>
        <time>2020-09-30T08:04:07Z</time>
      </trkpt>
      <trkpt lat="46.18032" lon="6.25482">
        <ele>215.4</ele>
        <time>2020-09-30T08:04:03Z</time>
      </trkpt>
      <trkpt lat="46.18046" lon="6.25465">
        <ele>215</ele>
        <time>2020-09-30T08:03:59Z</time>
      </trkpt>
      <trkpt lat="46.18058" lon="6.25447">
        <ele>213.6</ele>
        <time>2020-09-30T08:03:55Z</time>
      </trkpt>
      <trkpt lat="46.18071" lon="6.25429">
        <ele>212.4</ele>
        <time>2020-09-30T08:03:51Z</time>
      </trkpt>
      <trkpt lat="46.18086" lon="6.25413">
        <ele>211</ele>
        <time>2020-09-30T08:03:47Z</time>
      </trkpt>
      <trkpt lat="46.18104" lon="6.25401">
        <ele>210.2</ele>
        <time>2020-09-30T08:03:43Z</time>
      </trkpt>
      <trkpt lat="46.18122" lon="6.25389">
        <ele>209.4</ele>
        <time>2020-09-30T08:03:39Z</time>
      </trkpt>
      <trkpt lat="46.1814" lon="6.25378">
        <ele>209.4</ele>
        <time>2020-09-30T08:03:35Z</time>
      </trkpt>
      <trkpt lat="46.18159" lon="6.25367">
        <ele>209.6</ele>
        <time>2020-09-30T08:03:31Z</time>
      </trkpt>
      <trkpt lat="46.18176" lon="6.25355">
        <ele>208.4</ele>
        <time>2020-09-30T08:03:27Z</time>
      </trkpt>
      <trkpt lat="46.18193" lon="6.25343">
        <ele>208.2</ele>
        <time>2020-09-30T08:03:23Z</time>
      </trkpt>
      <trkpt lat="46.18211" lon="6.25331">
        <ele>208.2</ele>
        <time>2020-09-30T08:03:19Z</time>
      </trkpt>
      <trkpt lat="46.18228" lon="6.25321">
        <ele>208.4</ele>
        <time>2020-09-30T08:03:15Z</time>
      </trkpt>
      <trkpt lat="46.18245" lon="6.25309">
        <ele>207.4</ele>
        <time>2020-09-30T08:03:11Z</time>
      </trkpt>
      <trkpt lat="46.18261" lon="6.25299">
        <ele>207.4</ele>
        <time>2020-09-30T08:03:07Z</time>
      </trkpt>
      <trkpt lat="46.18276" lon="6.25288">
        <ele>206.6</ele>
        <time>2020-09-30T08:03:03Z</time>
      </trkpt>
      <trkpt lat="46.18293" lon="6.25278">
        <ele>205.4</ele>
        <time>2020-09-30T08:02:59Z</time>
      </trkpt>
      <trkpt lat="46.18309" lon="6.25267">
        <ele>205.2</ele>
        <time>2020-09-30T08:02:55Z</time>
      </trkpt>
      <trkpt lat="46.18325" lon="6.25258">
        <ele>204.4</ele>
        <time>2020-09-30T08:02:51Z</time>
      </trkpt>
      <trkpt lat="46.18343" lon="6.25247">
        <ele>203.4</ele>
        <time>2020-09-30T08:02:47Z</time>
      </trkpt>
      <trkpt lat="46.18359" lon="6.25236">
        <ele>203</ele>
        <time>2020-09-30T08:02:43Z</time>
      </trkpt>
      <trkpt lat="46.18375" lon="6.25225">
        <ele>202</ele>
        <time>2020-09-30T08:02:39Z</time>
      </trkpt>
      <trkpt lat="46.18392" lon="6.25214">
        <ele>200.8</ele>
        <time>2020-09-30T08:02:35Z</time>
      </trkpt>
      <trkpt lat="46.1841" lon="6.25203">
        <ele>200.2</ele>
        <time>2020-09-30T08:02:31Z</time>
      </trkpt>
      <trkpt lat="46.18428" lon="6.25194">
        <ele>200.2</ele>
        <time>2020-09-30T08:02:27Z</time>
      </trkpt>
      <trkpt lat="46.18447" lon="6.25187">
        <ele>199.6</ele>
        <time>2020-09-30T08:02:23Z</time>
      </trkpt>
      <trkpt lat="46.18465" lon="6.25181">
        <ele>199.6</ele>
        <time>2020-09-30T08:02:19Z</time>
      </trkpt>
      <trkpt lat="46.18484" lon="6.25176">
        <ele>198.8</ele>
        <time>2020-09-30T08:02:15Z</time>
      </trkpt>
      <trkpt lat="46.18502" lon="6.25171">
        <ele>198.6</ele>
        <time>2020-09-30T08:02:11Z</time>
      </trkpt>
      <trkpt lat="46.18521" lon="6.25167">
        <ele>197.6</ele>
        <time>2020-09-30T08:02:07Z</time>
      </trkpt>
      <trkpt lat="46.18539" lon="6.25163">
        <ele>197.6</ele>
        <time>2020-09-30T08:02:03Z</time>
      </trkpt>
      <trkpt lat="46.18557" lon="6.25158">
        <ele>196.6</ele>
        <time>2020-09-30T08:01:59Z</time>
      </trkpt>
      <trkpt lat="46.18575" lon="6.25152">
        <ele>196.4</ele>
        <time>2020-09-30T08:01:55Z</time>
      </trkpt>
      <trkpt lat="46.18593" lon="6.2515">
        <ele>196.4</ele>
        <time>2020-09-30T08:01:51Z</time>
      </trkpt>
      <trkpt lat="46.18611" lon="6.25145">
        <ele>195.6</ele>
        <time>2020-09-30T08:01:47Z</time>
      </trkpt>
      <trkpt lat="46.18629" lon="6.25137">
        <ele>195.8</ele>
        <time>2020-09-30T08:01:43Z</time>
      </trkpt>
      <trkpt lat="46.18648" lon="6.25129">
        <ele>194.6</ele>
        <time>2020-09-30T08:01:39Z</time>
      </trkpt>
      <trkpt lat="46.18668" lon="6.25122">
        <ele>194.4</ele>
        <time>2020-09-30T08:01:35Z</time>
      </trkpt>
      <trkpt lat="46.18687" lon="6.25114">
        <ele>193.8</ele>
        <time>2020-09-30T08:01:31Z</time>
      </trkpt>
      <trkpt lat="46.18705" lon="6.25106">
        <ele>193.6</ele>
        <time>2020-09-30T08:01:27Z</time>
      </trkpt>
      <trkpt lat="46.18723" lon="6.25097">
        <ele>193</ele>
        <time>2020-09-30T08:01:23Z</time>
      </trkpt>
      <trkpt lat="46.18743" lon="6.25091">
        <ele>192.8</ele>
        <time>2020-09-30T08:01:19Z</time>
      </trkpt>
      <trkpt lat="46.18761" lon="6.25084">
        <ele>192.6</ele>
        <time>2020-09-30T08:01:15Z</time>
      </trkpt>
      <trkpt lat="46.1878" lon="6.2508">
        <ele>192</ele>
        <time>2020-09-30T08:01:11Z</time>
      </trkpt>
      <trkpt lat="46.18799" lon="6.25077">
        <ele>191.6</ele>
        <time>2020-09-30T08:01:07Z</time>
      </trkpt>
      <trkpt lat="46.18818" lon="6.25076">
        <ele>190.8</ele>
        <time>2020-09-30T08:01:03Z</time>
      </trkpt>
      <trkpt lat="46.18836" lon="6.25077">
        <ele>190.8</ele>
        <time>2020-09-30T08:00:59Z</time>
      </trkpt>
      <trkpt lat="46.18853" lon="6.25077">
        <ele>190.4</ele>
        <time>2020-09-30T08:00:55Z</time>
      </trkpt>
      <trkpt lat="46.18867" lon="6.25077">
        <ele>191</ele>
        <time>2020-09-30T08:00:51Z</time>
      </trkpt>
      <trkpt lat="46.18877" lon="6.25076">
        <ele>190.6</ele>
        <time>2020-09-30T08:00:47Z</time>
      </trkpt>
      <trkpt lat="46.18877" lon="6.25076">
        <ele>190.8</ele>
        <time>2020-09-30T08:00:43Z</time>
      </trkpt>
      <trkpt lat="46.18877" lon="6.25076">
        <ele>191</ele>
        <time>2020-09-30T08:00:39Z</time>
      </trkpt>
      <trkpt lat="46.18877" lon="6.25076">
        <ele>191.2</ele>
        <time>2020-09-30T08:00:35Z</time>
      </trkpt>
      <trkpt lat="46.18877" lon="6.25076">
        <ele>191.2</ele>
        <time>2020-09-30T08:00:31Z</time>
      </trkpt>
      <trkpt lat="46.18877" lon="6.25076">
        <ele>191.2</ele>
        <time>2020-09-30T08:00:31Z</time>
      </trkpt>
      <trkpt lat="46.18877" lon="6.25076">
        <ele>191.2</ele>
        <time>2020-09-30T08:00:31Z</time>
      </trkpt>
    </trkseg>
  </trk>
  <trk>
    <name><![CDATA[Les Glières 01_3]]></name>
    <extensions>
      <line xmlns="http://www.topografix.com/GPX/gpx_style/0/2">
        <color>FF0000</color>
        <width>4</width>
      </line>
    </extensions>
    <trkseg>
      <trkpt lat="46.05168" lon="6.3759">
        <ele>268</ele>
        <time>2020-09-30T13:46:27Z</time>
      </trkpt>
      <trkpt lat="46.05168" lon="6.3759">
        <ele>268</ele>
        <time>2020-09-30T13:46:27Z</time>
      </trkpt>
      <trkpt lat="46.05191" lon="6.37545">
        <ele>264.2</ele>
        <time>2020-09-30T13:46:31Z</time>
      </trkpt>
      <trkpt lat="46.05213" lon="6.37498">
        <ele>262.6</ele>
        <time>2020-09-30T13:46:35Z</time>
      </trkpt>
      <trkpt lat="46.05236" lon="6.37454">
        <ele>259.6</ele>
        <time>2020-09-30T13:46:39Z</time>
      </trkpt>
      <trkpt lat="46.05252" lon="6.37406">
        <ele>257.4</ele>
        <time>2020-09-30T13:46:43Z</time>
      </trkpt>
      <trkpt lat="46.05288" lon="6.37408">
        <ele>253.2</ele>
        <time>2020-09-30T13:46:47Z</time>
      </trkpt>
      <trkpt lat="46.05328" lon="6.37411">
        <ele>251.6</ele>
        <time>2020-09-30T13:46:51Z</time>
      </trkpt>
      <trkpt lat="46.05363" lon="6.37385">
        <ele>249.2</ele>
        <time>2020-09-30T13:46:55Z</time>
      </trkpt>
      <trkpt lat="46.05365" lon="6.37339">
        <ele>248.6</ele>
        <time>2020-09-30T13:46:59Z</time>
      </trkpt>
      <trkpt lat="46.05347" lon="6.37309">
        <ele>248.4</ele>
        <time>2020-09-30T13:47:03Z</time>
      </trkpt>
      <trkpt lat="46.05357" lon="6.37273">
        <ele>248.2</ele>
        <time>2020-09-30T13:47:07Z</time>
      </trkpt>
      <trkpt lat="46.05385" lon="6.37241">
        <ele>245.8</ele>
        <time>2020-09-30T13:47:11Z</time>
      </trkpt>
      <trkpt lat="46.05432" lon="6.37211">
        <ele>242.8</ele>
        <time>2020-09-30T13:47:15Z</time>
      </trkpt>
      <trkpt lat="46.05473" lon="6.37185">
        <ele>241.6</ele>
        <time>2020-09-30T13:47:19Z</time>
      </trkpt>
      <trkpt lat="46.05511" lon="6.37199">
        <ele>240.6</ele>
        <time>2020-09-30T13:47:23Z</time>
      </trkpt>
      <trkpt lat="46.05541" lon="6.37227">
        <ele>238.6</ele>
        <time>2020-09-30T13:47:27Z</time>
      </trkpt>
      <trkpt lat="46.05562" lon="6.37248">
        <ele>238.6</ele>
        <time>2020-09-30T13:47:31Z</time>
      </trkpt>
      <trkpt lat="46.05578" lon="6.37268">
        <ele>237.2</ele>
        <time>2020-09-30T13:47:35Z</time>
      </trkpt>
      <trkpt lat="46.05594" lon="6.37289">
        <ele>235.8</ele>
        <time>2020-09-30T13:47:39Z</time>
      </trkpt>
      <trkpt lat="46.05613" lon="6.37309">
        <ele>234.4</ele>
        <time>2020-09-30T13:47:43Z</time>
      </trkpt>
      <trkpt lat="46.05632" lon="6.37331">
        <ele>234.6</ele>
        <time>2020-09-30T13:47:47Z</time>
      </trkpt>
      <trkpt lat="46.0565" lon="6.37351">
        <ele>234.4</ele>
        <time>2020-09-30T13:47:51Z</time>
      </trkpt>
      <trkpt lat="46.05664" lon="6.37368">
        <ele>234.8</ele>
        <time>2020-09-30T13:47:55Z</time>
      </trkpt>
      <trkpt lat="46.05674" lon="6.37388">
        <ele>233.8</ele>
        <time>2020-09-30T13:47:59Z</time>
      </trkpt>
      <trkpt lat="46.05681" lon="6.37406">
        <ele>234.2</ele>
        <time>2020-09-30T13:48:03Z</time>
      </trkpt>
      <trkpt lat="46.05691" lon="6.37428">
        <ele>233</ele>
        <time>2020-09-30T13:48:07Z</time>
      </trkpt>
      <trkpt lat="46.05702" lon="6.37456">
        <ele>233</ele>
        <time>2020-09-30T13:48:11Z</time>
      </trkpt>
      <trkpt lat="46.05713" lon="6.37484">
        <ele>232.2</ele>
        <time>2020-09-30T13:48:15Z</time>
      </trkpt>
      <trkpt lat="46.05721" lon="6.37516">
        <ele>231.8</ele>
        <time>2020-09-30T13:48:19Z</time>
      </trkpt>
      <trkpt lat="46.05734" lon="6.37524">
        <ele>232.2</ele>
        <time>2020-09-30T13:48:23Z</time>
      </trkpt>
      <trkpt lat="46.05737" lon="6.37518">
        <ele>233.6</ele>
        <time>2020-09-30T13:48:27Z</time>
      </trkpt>
      <trkpt lat="46.05739" lon="6.37518">
        <ele>233.8</ele>
        <time>2020-09-30T13:48:31Z</time>
      </trkpt>
      <trkpt lat="46.05739" lon="6.37518">
        <ele>233.8</ele>
        <time>2020-09-30T13:48:35Z</time>
      </trkpt>
      <trkpt lat="46.05739" lon="6.37518">
        <ele>233.8</ele>
        <time>2020-09-30T13:48:39Z</time>
      </trkpt>
      <trkpt lat="46.05739" lon="6.37518">
        <ele>233.6</ele>
        <time>2020-09-30T13:48:43Z</time>
      </trkpt>
      <trkpt lat="46.05739" lon="6.37518">
        <ele>233.6</ele>
        <time>2020-09-30T13:48:47Z</time>
      </trkpt>
      <trkpt lat="46.05739" lon="6.37518">
        <ele>233.8</ele>
        <time>2020-09-30T13:48:51Z</time>
      </trkpt>
      <trkpt lat="46.05739" lon="6.37518">
        <ele>233.6</ele>
        <time>2020-09-30T13:48:55Z</time>
      </trkpt>
      <trkpt lat="46.05739" lon="6.37518">
        <ele>233.6</ele>
        <time>2020-09-30T13:48:59Z</time>
      </trkpt>
      <trkpt lat="46.05739" lon="6.37518">
        <ele>233.4</ele>
        <time>2020-09-30T13:49:03Z</time>
      </trkpt>
      <trkpt lat="46.05739" lon="6.37518">
        <ele>234</ele>
        <time>2020-09-30T13:49:07Z</time>
      </trkpt>
      <trkpt lat="46.05739" lon="6.37518">
        <ele>234</ele>
        <time>2020-09-30T13:49:11Z</time>
      </trkpt>
      <trkpt lat="46.05739" lon="6.37518">
        <ele>234</ele>
        <time>2020-09-30T13:49:15Z</time>
      </trkpt>
      <trkpt lat="46.05739" lon="6.37518">
        <ele>233.8</ele>
        <time>2020-09-30T13:49:19Z</time>
      </trkpt>
      <trkpt lat="46.05739" lon="6.37518">
        <ele>234</ele>
        <time>2020-09-30T13:49:23Z</time>
      </trkpt>
      <trkpt lat="46.05739" lon="6.37518">
        <ele>234</ele>
        <time>2020-09-30T13:49:27Z</time>
      </trkpt>
      <trkpt lat="46.05739" lon="6.37518">
        <ele>233.8</ele>
        <time>2020-09-30T13:49:31Z</time>
      </trkpt>
      <trkpt lat="46.05739" lon="6.37518">
        <ele>234</ele>
        <time>2020-09-30T13:49:35Z</time>
      </trkpt>
      <trkpt lat="46.05739" lon="6.37518">
        <ele>234</ele>
        <time>2020-09-30T13:49:39Z</time>
      </trkpt>
      <trkpt lat="46.05739" lon="6.37518">
        <ele>234</ele>
        <time>2020-09-30T13:49:43Z</time>
      </trkpt>
      <trkpt lat="46.05739" lon="6.37518">
        <ele>234</ele>
        <time>2020-09-30T13:49:47Z</time>
      </trkpt>
      <trkpt lat="46.05739" lon="6.37518">
        <ele>233.6</ele>
        <time>2020-09-30T13:49:51Z</time>
      </trkpt>
      <trkpt lat="46.05739" lon="6.37518">
        <ele>233.8</ele>
        <time>2020-09-30T13:49:55Z</time>
      </trkpt>
      <trkpt lat="46.05739" lon="6.37518">
        <ele>234</ele>
        <time>2020-09-30T13:49:59Z</time>
      </trkpt>
      <trkpt lat="46.05739" lon="6.37518">
        <ele>234.4</ele>
        <time>2020-09-30T13:50:03Z</time>
      </trkpt>
      <trkpt lat="46.05739" lon="6.37518">
        <ele>234.2</ele>
        <time>2020-09-30T13:50:07Z</time>
      </trkpt>
      <trkpt lat="46.05739" lon="6.37518">
        <ele>234.4</ele>
        <time>2020-09-30T13:50:11Z</time>
      </trkpt>
      <trkpt lat="46.05739" lon="6.37518">
        <ele>234.4</ele>
        <time>2020-09-30T13:50:15Z</time>
      </trkpt>
      <trkpt lat="46.05739" lon="6.37518">
        <ele>234.2</ele>
        <time>2020-09-30T13:50:19Z</time>
      </trkpt>
      <trkpt lat="46.05739" lon="6.37518">
        <ele>234.4</ele>
        <time>2020-09-30T13:50:23Z</time>
      </trkpt>
      <trkpt lat="46.05739" lon="6.37518">
        <ele>234.4</ele>
        <time>2020-09-30T13:50:27Z</time>
      </trkpt>
      <trkpt lat="46.05739" lon="6.37518">
        <ele>234.4</ele>
        <time>2020-09-30T13:50:31Z</time>
      </trkpt>
      <trkpt lat="46.05739" lon="6.37518">
        <ele>234.2</ele>
        <time>2020-09-30T13:50:35Z</time>
      </trkpt>
      <trkpt lat="46.05739" lon="6.37518">
        <ele>234.2</ele>
        <time>2020-09-30T13:50:39Z</time>
      </trkpt>
      <trkpt lat="46.05739" lon="6.37518">
        <ele>234.2</ele>
        <time>2020-09-30T13:50:43Z</time>
      </trkpt>
      <trkpt lat="46.05739" lon="6.37518">
        <ele>233.8</ele>
        <time>2020-09-30T13:50:47Z</time>
      </trkpt>
      <trkpt lat="46.05739" lon="6.37518">
        <ele>233.8</ele>
        <time>2020-09-30T13:50:51Z</time>
      </trkpt>
      <trkpt lat="46.05739" lon="6.37518">
        <ele>234.4</ele>
        <time>2020-09-30T13:50:55Z</time>
      </trkpt>
      <trkpt lat="46.05739" lon="6.37518">
        <ele>234.4</ele>
        <time>2020-09-30T13:50:59Z</time>
      </trkpt>
      <trkpt lat="46.05739" lon="6.37518">
        <ele>234.4</ele>
        <time>2020-09-30T13:51:03Z</time>
      </trkpt>
      <trkpt lat="46.05739" lon="6.37518">
        <ele>234.6</ele>
        <time>2020-09-30T13:51:07Z</time>
      </trkpt>
      <trkpt lat="46.05739" lon="6.37518">
        <ele>234.6</ele>
        <time>2020-09-30T13:51:11Z</time>
      </trkpt>
      <trkpt lat="46.05739" lon="6.37518">
        <ele>234.4</ele>
        <time>2020-09-30T13:51:15Z</time>
      </trkpt>
      <trkpt lat="46.05739" lon="6.37518">
        <ele>234.6</ele>
        <time>2020-09-30T13:51:19Z</time>
      </trkpt>
      <trkpt lat="46.05739" lon="6.37518">
        <ele>234.6</ele>
        <time>2020-09-30T13:51:23Z</time>
      </trkpt>
      <trkpt lat="46.05739" lon="6.37518">
        <ele>234.6</ele>
        <time>2020-09-30T13:51:27Z</time>
      </trkpt>
      <trkpt lat="46.05739" lon="6.37518">
        <ele>234.6</ele>
        <time>2020-09-30T13:51:31Z</time>
      </trkpt>
      <trkpt lat="46.05739" lon="6.37518">
        <ele>234.8</ele>
        <time>2020-09-30T13:51:35Z</time>
      </trkpt>
      <trkpt lat="46.05739" lon="6.37518">
        <ele>235</ele>
        <time>2020-09-30T13:51:39Z</time>
      </trkpt>
      <trkpt lat="46.05739" lon="6.37518">
        <ele>234.4</ele>
        <time>2020-09-30T13:51:43Z</time>
      </trkpt>
      <trkpt lat="46.05739" lon="6.37518">
        <ele>234.6</ele>
        <time>2020-09-30T13:51:47Z</time>
      </trkpt>
      <trkpt lat="46.05739" lon="6.37518">
        <ele>234.8</ele>
        <time>2020-09-30T13:51:51Z</time>
      </trkpt>
      <trkpt lat="46.05739" lon="6.37518">
        <ele>235.2</ele>
        <time>2020-09-30T13:51:55Z</time>
      </trkpt>
      <trkpt lat="46.05739" lon="6.37518">
        <ele>237.8</ele>
        <time>2020-09-30T13:51:59Z</time>
      </trkpt>
      <trkpt lat="46.05739" lon="6.37518">
        <ele>235.2</ele>
        <time>2020-09-30T13:52:03Z</time>
      </trkpt>
      <trkpt lat="46.05739" lon="6.37518">
        <ele>234.8</ele>
        <time>2020-09-30T13:52:07Z</time>
      </trkpt>
      <trkpt lat="46.05739" lon="6.37518">
        <ele>235.2</ele>
        <time>2020-09-30T13:52:11Z</time>
      </trkpt>
      <trkpt lat="46.05738" lon="6.37522">
        <ele>234.6</ele>
        <time>2020-09-30T13:52:15Z</time>
      </trkpt>
      <trkpt lat="46.05735" lon="6.37528">
        <ele>234.4</ele>
        <time>2020-09-30T13:52:19Z</time>
      </trkpt>
      <trkpt lat="46.05734" lon="6.37538">
        <ele>234</ele>
        <time>2020-09-30T13:52:23Z</time>
      </trkpt>
      <trkpt lat="46.05732" lon="6.37557">
        <ele>233.8</ele>
        <time>2020-09-30T13:52:27Z</time>
      </trkpt>
      <trkpt lat="46.05734" lon="6.3758">
        <ele>232.6</ele>
        <time>2020-09-30T13:52:31Z</time>
      </trkpt>
      <trkpt lat="46.05743" lon="6.3761">
        <ele>231.8</ele>
        <time>2020-09-30T13:52:35Z</time>
      </trkpt>
      <trkpt lat="46.05753" lon="6.37642">
        <ele>231.4</ele>
        <time>2020-09-30T13:52:39Z</time>
      </trkpt>
      <trkpt lat="46.05766" lon="6.3768">
        <ele>230.2</ele>
        <time>2020-09-30T13:52:43Z</time>
      </trkpt>
      <trkpt lat="46.05782" lon="6.37719">
        <ele>228.4</ele>
        <time>2020-09-30T13:52:47Z</time>
      </trkpt>
      <trkpt lat="46.0579" lon="6.37765">
        <ele>227.8</ele>
        <time>2020-09-30T13:52:51Z</time>
      </trkpt>
      <trkpt lat="46.05792" lon="6.37812">
        <ele>227.8</ele>
        <time>2020-09-30T13:52:55Z</time>
      </trkpt>
      <trkpt lat="46.05799" lon="6.37857">
        <ele>227.6</ele>
        <time>2020-09-30T13:52:59Z</time>
      </trkpt>
      <trkpt lat="46.05812" lon="6.37898">
        <ele>228.2</ele>
        <time>2020-09-30T13:53:03Z</time>
      </trkpt>
      <trkpt lat="46.05829" lon="6.37934">
        <ele>226.6</ele>
        <time>2020-09-30T13:53:07Z</time>
      </trkpt>
      <trkpt lat="46.05851" lon="6.37972">
        <ele>226.2</ele>
        <time>2020-09-30T13:53:11Z</time>
      </trkpt>
      <trkpt lat="46.05873" lon="6.3801">
        <ele>225.2</ele>
        <time>2020-09-30T13:53:15Z</time>
      </trkpt>
      <trkpt lat="46.05894" lon="6.38048">
        <ele>226.2</ele>
        <time>2020-09-30T13:53:19Z</time>
      </trkpt>
      <trkpt lat="46.05914" lon="6.38085">
        <ele>226.2</ele>
        <time>2020-09-30T13:53:23Z</time>
      </trkpt>
      <trkpt lat="46.05934" lon="6.3812">
        <ele>223.8</ele>
        <time>2020-09-30T13:53:27Z</time>
      </trkpt>
      <trkpt lat="46.05954" lon="6.38155">
        <ele>223.4</ele>
        <time>2020-09-30T13:53:31Z</time>
      </trkpt>
      <trkpt lat="46.05975" lon="6.38193">
        <ele>224.4</ele>
        <time>2020-09-30T13:53:35Z</time>
      </trkpt>
      <trkpt lat="46.05998" lon="6.38233">
        <ele>223</ele>
        <time>2020-09-30T13:53:39Z</time>
      </trkpt>
      <trkpt lat="46.06021" lon="6.38272">
        <ele>224.8</ele>
        <time>2020-09-30T13:53:43Z</time>
      </trkpt>
      <trkpt lat="46.06048" lon="6.38305">
        <ele>221.4</ele>
        <time>2020-09-30T13:53:47Z</time>
      </trkpt>
      <trkpt lat="46.06077" lon="6.38336">
        <ele>220.8</ele>
        <time>2020-09-30T13:53:51Z</time>
      </trkpt>
      <trkpt lat="46.06107" lon="6.38366">
        <ele>220.6</ele>
        <time>2020-09-30T13:53:55Z</time>
      </trkpt>
      <trkpt lat="46.06138" lon="6.38397">
        <ele>220.8</ele>
        <time>2020-09-30T13:53:59Z</time>
      </trkpt>
      <trkpt lat="46.06169" lon="6.38431">
        <ele>219.8</ele>
        <time>2020-09-30T13:54:03Z</time>
      </trkpt>
      <trkpt lat="46.06203" lon="6.38465">
        <ele>220.8</ele>
        <time>2020-09-30T13:54:07Z</time>
      </trkpt>
      <trkpt lat="46.06236" lon="6.38499">
        <ele>219.8</ele>
        <time>2020-09-30T13:54:11Z</time>
      </trkpt>
      <trkpt lat="46.06271" lon="6.38533">
        <ele>218</ele>
        <time>2020-09-30T13:54:15Z</time>
      </trkpt>
      <trkpt lat="46.06306" lon="6.38567">
        <ele>214.8</ele>
        <time>2020-09-30T13:54:19Z</time>
      </trkpt>
      <trkpt lat="46.0634" lon="6.38602">
        <ele>218.6</ele>
        <time>2020-09-30T13:54:23Z</time>
      </trkpt>
      <trkpt lat="46.06376" lon="6.38637">
        <ele>216.6</ele>
        <time>2020-09-30T13:54:27Z</time>
      </trkpt>
      <trkpt lat="46.06414" lon="6.38674">
        <ele>215.8</ele>
        <time>2020-09-30T13:54:31Z</time>
      </trkpt>
      <trkpt lat="46.06451" lon="6.3871">
        <ele>215.8</ele>
        <time>2020-09-30T13:54:35Z</time>
      </trkpt>
      <trkpt lat="46.06488" lon="6.38746">
        <ele>214.6</ele>
        <time>2020-09-30T13:54:39Z</time>
      </trkpt>
      <trkpt lat="46.06525" lon="6.38781">
        <ele>215.4</ele>
        <time>2020-09-30T13:54:43Z</time>
      </trkpt>
      <trkpt lat="46.0656" lon="6.38816">
        <ele>215</ele>
        <time>2020-09-30T13:54:47Z</time>
      </trkpt>
      <trkpt lat="46.06595" lon="6.38849">
        <ele>213.2</ele>
        <time>2020-09-30T13:54:51Z</time>
      </trkpt>
      <trkpt lat="46.06628" lon="6.38882">
        <ele>212</ele>
        <time>2020-09-30T13:54:55Z</time>
      </trkpt>
      <trkpt lat="46.06661" lon="6.38914">
        <ele>211</ele>
        <time>2020-09-30T13:54:59Z</time>
      </trkpt>
      <trkpt lat="46.06693" lon="6.38946">
        <ele>210.2</ele>
        <time>2020-09-30T13:55:03Z</time>
      </trkpt>
      <trkpt lat="46.06724" lon="6.38977">
        <ele>211.4</ele>
        <time>2020-09-30T13:55:07Z</time>
      </trkpt>
      <trkpt lat="46.06755" lon="6.39007">
        <ele>210.6</ele>
        <time>2020-09-30T13:55:11Z</time>
      </trkpt>
      <trkpt lat="46.06787" lon="6.39038">
        <ele>209.2</ele>
        <time>2020-09-30T13:55:15Z</time>
      </trkpt>
      <trkpt lat="46.06824" lon="6.39066">
        <ele>208.4</ele>
        <time>2020-09-30T13:55:19Z</time>
      </trkpt>
      <trkpt lat="46.06856" lon="6.39099">
        <ele>209.2</ele>
        <time>2020-09-30T13:55:23Z</time>
      </trkpt>
      <trkpt lat="46.06886" lon="6.39129">
        <ele>210.8</ele>
        <time>2020-09-30T13:55:27Z</time>
      </trkpt>
      <trkpt lat="46.06916" lon="6.39159">
        <ele>208.4</ele>
        <time>2020-09-30T13:55:31Z</time>
      </trkpt>
      <trkpt lat="46.06947" lon="6.3919">
        <ele>207.4</ele>
        <time>2020-09-30T13:55:35Z</time>
      </trkpt>
      <trkpt lat="46.06977" lon="6.3922">
        <ele>206.2</ele>
        <time>2020-09-30T13:55:39Z</time>
      </trkpt>
      <trkpt lat="46.07006" lon="6.39249">
        <ele>207.2</ele>
        <time>2020-09-30T13:55:43Z</time>
      </trkpt>
      <trkpt lat="46.07035" lon="6.39277">
        <ele>205.8</ele>
        <time>2020-09-30T13:55:47Z</time>
      </trkpt>
      <trkpt lat="46.07063" lon="6.39304">
        <ele>207.6</ele>
        <time>2020-09-30T13:55:51Z</time>
      </trkpt>
      <trkpt lat="46.0709" lon="6.39332">
        <ele>206.8</ele>
        <time>2020-09-30T13:55:55Z</time>
      </trkpt>
      <trkpt lat="46.07119" lon="6.3936">
        <ele>206.2</ele>
        <time>2020-09-30T13:55:59Z</time>
      </trkpt>
      <trkpt lat="46.07148" lon="6.39388">
        <ele>205.6</ele>
        <time>2020-09-30T13:56:03Z</time>
      </trkpt>
      <trkpt lat="46.07176" lon="6.39416">
        <ele>205.8</ele>
        <time>2020-09-30T13:56:07Z</time>
      </trkpt>
      <trkpt lat="46.07205" lon="6.39444">
        <ele>205.6</ele>
        <time>2020-09-30T13:56:11Z</time>
      </trkpt>
      <trkpt lat="46.07233" lon="6.39472">
        <ele>205.6</ele>
        <time>2020-09-30T13:56:15Z</time>
      </trkpt>
      <trkpt lat="46.07259" lon="6.39495">
        <ele>207.2</ele>
        <time>2020-09-30T13:56:19Z</time>
      </trkpt>
      <trkpt lat="46.07276" lon="6.39515">
        <ele>210.2</ele>
        <time>2020-09-30T13:56:23Z</time>
      </trkpt>
      <trkpt lat="46.07276" lon="6.39515">
        <ele>210.4</ele>
        <time>2020-09-30T13:56:27Z</time>
      </trkpt>
      <trkpt lat="46.07276" lon="6.39515">
        <ele>210.2</ele>
        <time>2020-09-30T13:56:31Z</time>
      </trkpt>
      <trkpt lat="46.07279" lon="6.39519">
        <ele>209.8</ele>
        <time>2020-09-30T13:56:35Z</time>
      </trkpt>
      <trkpt lat="46.07278" lon="6.3953">
        <ele>209.8</ele>
        <time>2020-09-30T13:56:39Z</time>
      </trkpt>
      <trkpt lat="46.07269" lon="6.3955">
        <ele>209.4</ele>
        <time>2020-09-30T13:56:43Z</time>
      </trkpt>
      <trkpt lat="46.07263" lon="6.39576">
        <ele>208.2</ele>
        <time>2020-09-30T13:56:47Z</time>
      </trkpt>
      <trkpt lat="46.07268" lon="6.39611">
        <ele>207</ele>
        <time>2020-09-30T13:56:51Z</time>
      </trkpt>
      <trkpt lat="46.07269" lon="6.39653">
        <ele>205.8</ele>
        <time>2020-09-30T13:56:55Z</time>
      </trkpt>
      <trkpt lat="46.07266" lon="6.39698">
        <ele>205.2</ele>
        <time>2020-09-30T13:56:59Z</time>
      </trkpt>
      <trkpt lat="46.07266" lon="6.39746">
        <ele>202.4</ele>
        <time>2020-09-30T13:57:03Z</time>
      </trkpt>
      <trkpt lat="46.0727" lon="6.39794">
        <ele>201.8</ele>
        <time>2020-09-30T13:57:07Z</time>
      </trkpt>
      <trkpt lat="46.07275" lon="6.39847">
        <ele>202.6</ele>
        <time>2020-09-30T13:57:11Z</time>
      </trkpt>
      <trkpt lat="46.07282" lon="6.399">
        <ele>201.4</ele>
        <time>2020-09-30T13:57:15Z</time>
      </trkpt>
      <trkpt lat="46.07291" lon="6.39954">
        <ele>201</ele>
        <time>2020-09-30T13:57:19Z</time>
      </trkpt>
      <trkpt lat="46.07302" lon="6.40006">
        <ele>200.2</ele>
        <time>2020-09-30T13:57:23Z</time>
      </trkpt>
      <trkpt lat="46.07317" lon="6.40056">
        <ele>201</ele>
        <time>2020-09-30T13:57:27Z</time>
      </trkpt>
      <trkpt lat="46.07333" lon="6.40103">
        <ele>201.4</ele>
        <time>2020-09-30T13:57:31Z</time>
      </trkpt>
      <trkpt lat="46.07348" lon="6.40143">
        <ele>201.8</ele>
        <time>2020-09-30T13:57:35Z</time>
      </trkpt>
      <trkpt lat="46.07365" lon="6.40177">
        <ele>202</ele>
        <time>2020-09-30T13:57:39Z</time>
      </trkpt>
      <trkpt lat="46.07381" lon="6.40207">
        <ele>200</ele>
        <time>2020-09-30T13:57:43Z</time>
      </trkpt>
      <trkpt lat="46.07397" lon="6.40238">
        <ele>200.4</ele>
        <time>2020-09-30T13:57:47Z</time>
      </trkpt>
      <trkpt lat="46.07406" lon="6.40263">
        <ele>201</ele>
        <time>2020-09-30T13:57:51Z</time>
      </trkpt>
      <trkpt lat="46.07407" lon="6.4029">
        <ele>200.8</ele>
        <time>2020-09-30T13:57:55Z</time>
      </trkpt>
      <trkpt lat="46.07415" lon="6.40321">
        <ele>199.2</ele>
        <time>2020-09-30T13:57:59Z</time>
      </trkpt>
      <trkpt lat="46.07441" lon="6.40335">
        <ele>198.4</ele>
        <time>2020-09-30T13:58:03Z</time>
      </trkpt>
      <trkpt lat="46.0746" lon="6.40369">
        <ele>198.2</ele>
        <time>2020-09-30T13:58:07Z</time>
      </trkpt>
      <trkpt lat="46.07478" lon="6.40407">
        <ele>198.4</ele>
        <time>2020-09-30T13:58:11Z</time>
      </trkpt>
      <trkpt lat="46.07495" lon="6.40443">
        <ele>199.2</ele>
        <time>2020-09-30T13:58:15Z</time>
      </trkpt>
      <trkpt lat="46.07509" lon="6.4048">
        <ele>199.4</ele>
        <time>2020-09-30T13:58:19Z</time>
      </trkpt>
      <trkpt lat="46.07507" lon="6.40516">
        <ele>200.2</ele>
        <time>2020-09-30T13:58:23Z</time>
      </trkpt>
      <trkpt lat="46.07507" lon="6.40547">
        <ele>200</ele>
        <time>2020-09-30T13:58:27Z</time>
      </trkpt>
      <trkpt lat="46.07528" lon="6.40554">
        <ele>201</ele>
        <time>2020-09-30T13:58:31Z</time>
      </trkpt>
      <trkpt lat="46.0755" lon="6.40561">
        <ele>203.4</ele>
        <time>2020-09-30T13:58:35Z</time>
      </trkpt>
      <trkpt lat="46.07564" lon="6.40588">
        <ele>203</ele>
        <time>2020-09-30T13:58:39Z</time>
      </trkpt>
      <trkpt lat="46.07579" lon="6.40616">
        <ele>203.6</ele>
        <time>2020-09-30T13:58:43Z</time>
      </trkpt>
      <trkpt lat="46.07596" lon="6.40647">
        <ele>201.2</ele>
        <time>2020-09-30T13:58:47Z</time>
      </trkpt>
      <trkpt lat="46.07614" lon="6.4068">
        <ele>201.4</ele>
        <time>2020-09-30T13:58:51Z</time>
      </trkpt>
      <trkpt lat="46.07629" lon="6.40698">
        <ele>200.8</ele>
        <time>2020-09-30T13:58:55Z</time>
      </trkpt>
      <trkpt lat="46.07643" lon="6.40675">
        <ele>200.6</ele>
        <time>2020-09-30T13:58:59Z</time>
      </trkpt>
      <trkpt lat="46.07663" lon="6.40653">
        <ele>202.4</ele>
        <time>2020-09-30T13:59:03Z</time>
      </trkpt>
      <trkpt lat="46.07674" lon="6.40645">
        <ele>202.4</ele>
        <time>2020-09-30T13:59:07Z</time>
      </trkpt>
      <trkpt lat="46.07682" lon="6.40638">
        <ele>201.8</ele>
        <time>2020-09-30T13:59:11Z</time>
      </trkpt>
      <trkpt lat="46.07695" lon="6.40626">
        <ele>201</ele>
        <time>2020-09-30T13:59:15Z</time>
      </trkpt>
      <trkpt lat="46.07714" lon="6.40612">
        <ele>200.6</ele>
        <time>2020-09-30T13:59:19Z</time>
      </trkpt>
      <trkpt lat="46.07738" lon="6.40595">
        <ele>199.4</ele>
        <time>2020-09-30T13:59:23Z</time>
      </trkpt>
      <trkpt lat="46.07764" lon="6.40574">
        <ele>199.6</ele>
        <time>2020-09-30T13:59:27Z</time>
      </trkpt>
      <trkpt lat="46.07786" lon="6.40556">
        <ele>200.8</ele>
        <time>2020-09-30T13:59:31Z</time>
      </trkpt>
      <trkpt lat="46.07803" lon="6.40544">
        <ele>200.8</ele>
        <time>2020-09-30T13:59:35Z</time>
      </trkpt>
      <trkpt lat="46.07819" lon="6.40531">
        <ele>200.2</ele>
        <time>2020-09-30T13:59:39Z</time>
      </trkpt>
      <trkpt lat="46.07835" lon="6.40519">
        <ele>199.8</ele>
        <time>2020-09-30T13:59:43Z</time>
      </trkpt>
      <trkpt lat="46.07853" lon="6.40505">
        <ele>200.4</ele>
        <time>2020-09-30T13:59:47Z</time>
      </trkpt>
      <trkpt lat="46.07866" lon="6.40493">
        <ele>201.6</ele>
        <time>2020-09-30T13:59:51Z</time>
      </trkpt>
      <trkpt lat="46.07881" lon="6.40484">
        <ele>200.4</ele>
        <time>2020-09-30T13:59:55Z</time>
      </trkpt>
      <trkpt lat="46.07898" lon="6.40471">
        <ele>200</ele>
        <time>2020-09-30T13:59:59Z</time>
      </trkpt>
      <trkpt lat="46.07914" lon="6.40457">
        <ele>201.2</ele>
        <time>2020-09-30T14:00:03Z</time>
      </trkpt>
      <trkpt lat="46.07925" lon="6.4045">
        <ele>201.2</ele>
        <time>2020-09-30T14:00:07Z</time>
      </trkpt>
      <trkpt lat="46.07934" lon="6.40446">
        <ele>201.2</ele>
        <time>2020-09-30T14:00:11Z</time>
      </trkpt>
      <trkpt lat="46.07946" lon="6.40434">
        <ele>200.2</ele>
        <time>2020-09-30T14:00:15Z</time>
      </trkpt>
      <trkpt lat="46.07965" lon="6.4042">
        <ele>199.6</ele>
        <time>2020-09-30T14:00:19Z</time>
      </trkpt>
      <trkpt lat="46.07989" lon="6.40402">
        <ele>196.2</ele>
        <time>2020-09-30T14:00:23Z</time>
      </trkpt>
      <trkpt lat="46.08016" lon="6.40379">
        <ele>196.4</ele>
        <time>2020-09-30T14:00:27Z</time>
      </trkpt>
      <trkpt lat="46.08042" lon="6.40354">
        <ele>196.4</ele>
        <time>2020-09-30T14:00:31Z</time>
      </trkpt>
      <trkpt lat="46.0807" lon="6.40328">
        <ele>197</ele>
        <time>2020-09-30T14:00:35Z</time>
      </trkpt>
      <trkpt lat="46.08096" lon="6.40303">
        <ele>199.6</ele>
        <time>2020-09-30T14:00:39Z</time>
      </trkpt>
      <trkpt lat="46.08111" lon="6.40298">
        <ele>201.6</ele>
        <time>2020-09-30T14:00:43Z</time>
      </trkpt>
      <trkpt lat="46.08122" lon="6.40314">
        <ele>200.8</ele>
        <time>2020-09-30T14:00:47Z</time>
      </trkpt>
      <trkpt lat="46.08135" lon="6.40333">
        <ele>201</ele>
        <time>2020-09-30T14:00:51Z</time>
      </trkpt>
      <trkpt lat="46.08148" lon="6.4035">
        <ele>200.2</ele>
        <time>2020-09-30T14:00:55Z</time>
      </trkpt>
      <trkpt lat="46.08163" lon="6.40369">
        <ele>200.2</ele>
        <time>2020-09-30T14:00:59Z</time>
      </trkpt>
      <trkpt lat="46.08178" lon="6.40387">
        <ele>200</ele>
        <time>2020-09-30T14:01:03Z</time>
      </trkpt>
      <trkpt lat="46.08186" lon="6.40397">
        <ele>200</ele>
        <time>2020-09-30T14:01:07Z</time>
      </trkpt>
      <trkpt lat="46.08196" lon="6.40406">
        <ele>199</ele>
        <time>2020-09-30T14:01:11Z</time>
      </trkpt>
      <trkpt lat="46.08211" lon="6.40393">
        <ele>198</ele>
        <time>2020-09-30T14:01:15Z</time>
      </trkpt>
    </trkseg>
  </trk>
  <trk>
    <name><![CDATA[Les Glières 01_4]]></name>
    <trkseg>
      <trkpt lat="46.07635" lon="6.40726">
        <ele>175.8</ele>
        <time>2020-09-30T08:59:03Z</time>
      </trkpt>
      <trkpt lat="46.07649" lon="6.40757">
        <ele>175.6</ele>
        <time>2020-09-30T08:58:59Z</time>
      </trkpt>
      <trkpt lat="46.0766" lon="6.40781">
        <ele>176.4</ele>
        <time>2020-09-30T08:58:55Z</time>
      </trkpt>
      <trkpt lat="46.07667" lon="6.40794">
        <ele>178.4</ele>
        <time>2020-09-30T08:58:51Z</time>
      </trkpt>
      <trkpt lat="46.07677" lon="6.40819">
        <ele>177.8</ele>
        <time>2020-09-30T08:58:47Z</time>
      </trkpt>
      <trkpt lat="46.07688" lon="6.40843">
        <ele>178.2</ele>
        <time>2020-09-30T08:58:43Z</time>
      </trkpt>
      <trkpt lat="46.07702" lon="6.40857">
        <ele>178.8</ele>
        <time>2020-09-30T08:58:39Z</time>
      </trkpt>
      <trkpt lat="46.07723" lon="6.40839">
        <ele>178</ele>
        <time>2020-09-30T08:58:35Z</time>
      </trkpt>
      <trkpt lat="46.07745" lon="6.40818">
        <ele>177</ele>
        <time>2020-09-30T08:58:31Z</time>
      </trkpt>
      <trkpt lat="46.07767" lon="6.40795">
        <ele>176.4</ele>
        <time>2020-09-30T08:58:27Z</time>
      </trkpt>
      <trkpt lat="46.0779" lon="6.4077">
        <ele>176</ele>
        <time>2020-09-30T08:58:23Z</time>
      </trkpt>
      <trkpt lat="46.07815" lon="6.40746">
        <ele>176</ele>
        <time>2020-09-30T08:58:19Z</time>
      </trkpt>
      <trkpt lat="46.07838" lon="6.40725">
        <ele>175.4</ele>
        <time>2020-09-30T08:58:15Z</time>
      </trkpt>
      <trkpt lat="46.07861" lon="6.40705">
        <ele>176</ele>
        <time>2020-09-30T08:58:11Z</time>
      </trkpt>
      <trkpt lat="46.0788" lon="6.40683">
        <ele>176.6</ele>
        <time>2020-09-30T08:58:07Z</time>
      </trkpt>
      <trkpt lat="46.07902" lon="6.40663">
        <ele>176.4</ele>
        <time>2020-09-30T08:58:03Z</time>
      </trkpt>
      <trkpt lat="46.07924" lon="6.40647">
        <ele>175.6</ele>
        <time>2020-09-30T08:57:59Z</time>
      </trkpt>
      <trkpt lat="46.07946" lon="6.40627">
        <ele>175.2</ele>
        <time>2020-09-30T08:57:55Z</time>
      </trkpt>
      <trkpt lat="46.07971" lon="6.40604">
        <ele>174.2</ele>
        <time>2020-09-30T08:57:51Z</time>
      </trkpt>
      <trkpt lat="46.07996" lon="6.40581">
        <ele>172.6</ele>
        <time>2020-09-30T08:57:47Z</time>
      </trkpt>
      <trkpt lat="46.08021" lon="6.40557">
        <ele>171</ele>
        <time>2020-09-30T08:57:43Z</time>
      </trkpt>
      <trkpt lat="46.08047" lon="6.40535">
        <ele>171</ele>
        <time>2020-09-30T08:57:39Z</time>
      </trkpt>
      <trkpt lat="46.08073" lon="6.40512">
        <ele>171</ele>
        <time>2020-09-30T08:57:35Z</time>
      </trkpt>
      <trkpt lat="46.08099" lon="6.4049">
        <ele>172.4</ele>
        <time>2020-09-30T08:57:31Z</time>
      </trkpt>
      <trkpt lat="46.08123" lon="6.40468">
        <ele>171.8</ele>
        <time>2020-09-30T08:57:27Z</time>
      </trkpt>
      <trkpt lat="46.08147" lon="6.40446">
        <ele>172</ele>
        <time>2020-09-30T08:57:23Z</time>
      </trkpt>
      <trkpt lat="46.08171" lon="6.40425">
        <ele>171.8</ele>
        <time>2020-09-30T08:57:19Z</time>
      </trkpt>
      <trkpt lat="46.08191" lon="6.404">
        <ele>172.4</ele>
        <time>2020-09-30T08:57:15Z</time>
      </trkpt>
      <trkpt lat="46.08211" lon="6.40391">
        <ele>173.6</ele>
        <time>2020-09-30T08:57:11Z</time>
      </trkpt>
      <trkpt lat="46.08231" lon="6.40374">
        <ele>174</ele>
        <time>2020-09-30T08:57:07Z</time>
      </trkpt>
      <trkpt lat="46.08258" lon="6.40349">
        <ele>173</ele>
        <time>2020-09-30T08:57:03Z</time>
      </trkpt>
      <trkpt lat="46.08286" lon="6.40325">
        <ele>172.4</ele>
        <time>2020-09-30T08:56:59Z</time>
      </trkpt>
      <trkpt lat="46.08314" lon="6.40301">
        <ele>172.6</ele>
        <time>2020-09-30T08:56:55Z</time>
      </trkpt>
      <trkpt lat="46.08337" lon="6.40278">
        <ele>173.2</ele>
        <time>2020-09-30T08:56:51Z</time>
      </trkpt>
      <trkpt lat="46.08358" lon="6.4026">
        <ele>173.4</ele>
        <time>2020-09-30T08:56:47Z</time>
      </trkpt>
      <trkpt lat="46.08376" lon="6.40245">
        <ele>173.8</ele>
        <time>2020-09-30T08:56:43Z</time>
      </trkpt>
      <trkpt lat="46.08393" lon="6.40232">
        <ele>174.4</ele>
        <time>2020-09-30T08:56:39Z</time>
      </trkpt>
      <trkpt lat="46.08405" lon="6.4022">
        <ele>174.4</ele>
        <time>2020-09-30T08:56:35Z</time>
      </trkpt>
      <trkpt lat="46.0842" lon="6.40209">
        <ele>173.2</ele>
        <time>2020-09-30T08:56:31Z</time>
      </trkpt>
      <trkpt lat="46.08442" lon="6.40188">
        <ele>173</ele>
        <time>2020-09-30T08:56:27Z</time>
      </trkpt>
      <trkpt lat="46.08468" lon="6.40166">
        <ele>171.6</ele>
        <time>2020-09-30T08:56:23Z</time>
      </trkpt>
      <trkpt lat="46.08495" lon="6.40142">
        <ele>172</ele>
        <time>2020-09-30T08:56:19Z</time>
      </trkpt>
      <trkpt lat="46.08522" lon="6.40119">
        <ele>171.2</ele>
        <time>2020-09-30T08:56:15Z</time>
      </trkpt>
      <trkpt lat="46.08543" lon="6.401">
        <ele>173</ele>
        <time>2020-09-30T08:56:11Z</time>
      </trkpt>
      <trkpt lat="46.08566" lon="6.4008">
        <ele>172.8</ele>
        <time>2020-09-30T08:56:07Z</time>
      </trkpt>
      <trkpt lat="46.08589" lon="6.40057">
        <ele>172.2</ele>
        <time>2020-09-30T08:56:03Z</time>
      </trkpt>
      <trkpt lat="46.08617" lon="6.40028">
        <ele>172.6</ele>
        <time>2020-09-30T08:55:59Z</time>
      </trkpt>
      <trkpt lat="46.08643" lon="6.39992">
        <ele>170.2</ele>
        <time>2020-09-30T08:55:55Z</time>
      </trkpt>
      <trkpt lat="46.08665" lon="6.39944">
        <ele>169.4</ele>
        <time>2020-09-30T08:55:51Z</time>
      </trkpt>
      <trkpt lat="46.08678" lon="6.39886">
        <ele>170.4</ele>
        <time>2020-09-30T08:55:47Z</time>
      </trkpt>
      <trkpt lat="46.0868" lon="6.39826">
        <ele>172.4</ele>
        <time>2020-09-30T08:55:43Z</time>
      </trkpt>
      <trkpt lat="46.08681" lon="6.39766">
        <ele>174.2</ele>
        <time>2020-09-30T08:55:39Z</time>
      </trkpt>
      <trkpt lat="46.08679" lon="6.39706">
        <ele>176.4</ele>
        <time>2020-09-30T08:55:35Z</time>
      </trkpt>
      <trkpt lat="46.08672" lon="6.39647">
        <ele>177.6</ele>
        <time>2020-09-30T08:55:31Z</time>
      </trkpt>
      <trkpt lat="46.08664" lon="6.3959">
        <ele>180.2</ele>
        <time>2020-09-30T08:55:27Z</time>
      </trkpt>
      <trkpt lat="46.08659" lon="6.39537">
        <ele>182.2</ele>
        <time>2020-09-30T08:55:23Z</time>
      </trkpt>
      <trkpt lat="46.0866" lon="6.39487">
        <ele>184.2</ele>
        <time>2020-09-30T08:55:19Z</time>
      </trkpt>
      <trkpt lat="46.08666" lon="6.39442">
        <ele>184.8</ele>
        <time>2020-09-30T08:55:15Z</time>
      </trkpt>
      <trkpt lat="46.08674" lon="6.39399">
        <ele>184.6</ele>
        <time>2020-09-30T08:55:11Z</time>
      </trkpt>
      <trkpt lat="46.08683" lon="6.39356">
        <ele>185</ele>
        <time>2020-09-30T08:55:07Z</time>
      </trkpt>
      <trkpt lat="46.08691" lon="6.39312">
        <ele>185.6</ele>
        <time>2020-09-30T08:55:03Z</time>
      </trkpt>
      <trkpt lat="46.08698" lon="6.39266">
        <ele>184.4</ele>
        <time>2020-09-30T08:54:59Z</time>
      </trkpt>
      <trkpt lat="46.08701" lon="6.39219">
        <ele>184</ele>
        <time>2020-09-30T08:54:55Z</time>
      </trkpt>
      <trkpt lat="46.08702" lon="6.39174">
        <ele>184.8</ele>
        <time>2020-09-30T08:54:51Z</time>
      </trkpt>
      <trkpt lat="46.08704" lon="6.39132">
        <ele>185.4</ele>
        <time>2020-09-30T08:54:47Z</time>
      </trkpt>
      <trkpt lat="46.08701" lon="6.39093">
        <ele>184.6</ele>
        <time>2020-09-30T08:54:43Z</time>
      </trkpt>
      <trkpt lat="46.087" lon="6.39058">
        <ele>185.6</ele>
        <time>2020-09-30T08:54:39Z</time>
      </trkpt>
      <trkpt lat="46.08725" lon="6.3906">
        <ele>185.2</ele>
        <time>2020-09-30T08:54:35Z</time>
      </trkpt>
      <trkpt lat="46.08746" lon="6.39035">
        <ele>186.4</ele>
        <time>2020-09-30T08:54:31Z</time>
      </trkpt>
      <trkpt lat="46.08739" lon="6.38987">
        <ele>187.8</ele>
        <time>2020-09-30T08:54:27Z</time>
      </trkpt>
      <trkpt lat="46.08731" lon="6.38933">
        <ele>185.6</ele>
        <time>2020-09-30T08:54:23Z</time>
      </trkpt>
      <trkpt lat="46.0874" lon="6.38872">
        <ele>185.6</ele>
        <time>2020-09-30T08:54:19Z</time>
      </trkpt>
      <trkpt lat="46.08767" lon="6.38819">
        <ele>187.8</ele>
        <time>2020-09-30T08:54:15Z</time>
      </trkpt>
      <trkpt lat="46.08797" lon="6.3877">
        <ele>189.6</ele>
        <time>2020-09-30T08:54:11Z</time>
      </trkpt>
      <trkpt lat="46.08821" lon="6.38714">
        <ele>191.6</ele>
        <time>2020-09-30T08:54:07Z</time>
      </trkpt>
      <trkpt lat="46.08845" lon="6.3866">
        <ele>193.4</ele>
        <time>2020-09-30T08:54:03Z</time>
      </trkpt>
      <trkpt lat="46.08859" lon="6.38599">
        <ele>197</ele>
        <time>2020-09-30T08:53:59Z</time>
      </trkpt>
      <trkpt lat="46.08868" lon="6.38538">
        <ele>198.4</ele>
        <time>2020-09-30T08:53:55Z</time>
      </trkpt>
      <trkpt lat="46.08878" lon="6.3848">
        <ele>202</ele>
        <time>2020-09-30T08:53:51Z</time>
      </trkpt>
      <trkpt lat="46.08891" lon="6.38426">
        <ele>204.2</ele>
        <time>2020-09-30T08:53:47Z</time>
      </trkpt>
      <trkpt lat="46.08904" lon="6.38377">
        <ele>206.4</ele>
        <time>2020-09-30T08:53:43Z</time>
      </trkpt>
      <trkpt lat="46.0892" lon="6.38332">
        <ele>207.6</ele>
        <time>2020-09-30T08:53:39Z</time>
      </trkpt>
      <trkpt lat="46.08943" lon="6.38296">
        <ele>209.6</ele>
        <time>2020-09-30T08:53:35Z</time>
      </trkpt>
      <trkpt lat="46.0897" lon="6.38262">
        <ele>209.8</ele>
        <time>2020-09-30T08:53:31Z</time>
      </trkpt>
      <trkpt lat="46.08991" lon="6.38223">
        <ele>211.2</ele>
        <time>2020-09-30T08:53:27Z</time>
      </trkpt>
      <trkpt lat="46.09001" lon="6.38178">
        <ele>212.2</ele>
        <time>2020-09-30T08:53:23Z</time>
      </trkpt>
      <trkpt lat="46.09009" lon="6.38125">
        <ele>212.6</ele>
        <time>2020-09-30T08:53:19Z</time>
      </trkpt>
      <trkpt lat="46.09027" lon="6.38069">
        <ele>211.4</ele>
        <time>2020-09-30T08:53:15Z</time>
      </trkpt>
      <trkpt lat="46.09053" lon="6.38021">
        <ele>213.6</ele>
        <time>2020-09-30T08:53:11Z</time>
      </trkpt>
      <trkpt lat="46.0908" lon="6.37972">
        <ele>216.6</ele>
        <time>2020-09-30T08:53:07Z</time>
      </trkpt>
      <trkpt lat="46.09106" lon="6.37924">
        <ele>218.2</ele>
        <time>2020-09-30T08:53:03Z</time>
      </trkpt>
      <trkpt lat="46.09135" lon="6.37879">
        <ele>219.4</ele>
        <time>2020-09-30T08:52:59Z</time>
      </trkpt>
      <trkpt lat="46.09162" lon="6.37832">
        <ele>220.2</ele>
        <time>2020-09-30T08:52:55Z</time>
      </trkpt>
      <trkpt lat="46.09187" lon="6.37784">
        <ele>222.4</ele>
        <time>2020-09-30T08:52:51Z</time>
      </trkpt>
      <trkpt lat="46.09211" lon="6.37736">
        <ele>225.2</ele>
        <time>2020-09-30T08:52:47Z</time>
      </trkpt>
      <trkpt lat="46.09235" lon="6.37688">
        <ele>225.6</ele>
        <time>2020-09-30T08:52:43Z</time>
      </trkpt>
      <trkpt lat="46.0926" lon="6.37642">
        <ele>227.6</ele>
        <time>2020-09-30T08:52:39Z</time>
      </trkpt>
      <trkpt lat="46.09291" lon="6.37602">
        <ele>228.8</ele>
        <time>2020-09-30T08:52:35Z</time>
      </trkpt>
      <trkpt lat="46.09322" lon="6.37564">
        <ele>230.4</ele>
        <time>2020-09-30T08:52:31Z</time>
      </trkpt>
      <trkpt lat="46.09348" lon="6.37517">
        <ele>232.6</ele>
        <time>2020-09-30T08:52:27Z</time>
      </trkpt>
      <trkpt lat="46.0937" lon="6.37464">
        <ele>232.6</ele>
        <time>2020-09-30T08:52:23Z</time>
      </trkpt>
      <trkpt lat="46.09391" lon="6.37412">
        <ele>235.6</ele>
        <time>2020-09-30T08:52:19Z</time>
      </trkpt>
      <trkpt lat="46.0942" lon="6.37369">
        <ele>236</ele>
        <time>2020-09-30T08:52:15Z</time>
      </trkpt>
      <trkpt lat="46.09452" lon="6.37332">
        <ele>238.6</ele>
        <time>2020-09-30T08:52:11Z</time>
      </trkpt>
      <trkpt lat="46.09484" lon="6.37295">
        <ele>238.8</ele>
        <time>2020-09-30T08:52:07Z</time>
      </trkpt>
      <trkpt lat="46.09516" lon="6.37258">
        <ele>242</ele>
        <time>2020-09-30T08:52:03Z</time>
      </trkpt>
      <trkpt lat="46.09552" lon="6.37229">
        <ele>242.8</ele>
        <time>2020-09-30T08:51:59Z</time>
      </trkpt>
      <trkpt lat="46.09589" lon="6.37206">
        <ele>243.6</ele>
        <time>2020-09-30T08:51:55Z</time>
      </trkpt>
      <trkpt lat="46.09625" lon="6.37183">
        <ele>245.4</ele>
        <time>2020-09-30T08:51:51Z</time>
      </trkpt>
      <trkpt lat="46.09662" lon="6.37159">
        <ele>248</ele>
        <time>2020-09-30T08:51:47Z</time>
      </trkpt>
      <trkpt lat="46.09696" lon="6.37125">
        <ele>248.6</ele>
        <time>2020-09-30T08:51:43Z</time>
      </trkpt>
      <trkpt lat="46.09722" lon="6.37078">
        <ele>250.6</ele>
        <time>2020-09-30T08:51:39Z</time>
      </trkpt>
      <trkpt lat="46.09743" lon="6.37029">
        <ele>251.8</ele>
        <time>2020-09-30T08:51:35Z</time>
      </trkpt>
      <trkpt lat="46.09766" lon="6.36979">
        <ele>252.8</ele>
        <time>2020-09-30T08:51:31Z</time>
      </trkpt>
      <trkpt lat="46.09793" lon="6.36934">
        <ele>253.8</ele>
        <time>2020-09-30T08:51:27Z</time>
      </trkpt>
      <trkpt lat="46.09832" lon="6.36925">
        <ele>256</ele>
        <time>2020-09-30T08:51:23Z</time>
      </trkpt>
      <trkpt lat="46.09874" lon="6.36924">
        <ele>258.6</ele>
        <time>2020-09-30T08:51:19Z</time>
      </trkpt>
      <trkpt lat="46.09914" lon="6.36908">
        <ele>261.4</ele>
        <time>2020-09-30T08:51:15Z</time>
      </trkpt>
      <trkpt lat="46.09951" lon="6.36882">
        <ele>262.2</ele>
        <time>2020-09-30T08:51:11Z</time>
      </trkpt>
      <trkpt lat="46.09987" lon="6.36858">
        <ele>263.2</ele>
        <time>2020-09-30T08:51:07Z</time>
      </trkpt>
      <trkpt lat="46.10019" lon="6.36827">
        <ele>264.2</ele>
        <time>2020-09-30T08:51:03Z</time>
      </trkpt>
      <trkpt lat="46.1005" lon="6.36792">
        <ele>265.4</ele>
        <time>2020-09-30T08:50:59Z</time>
      </trkpt>
      <trkpt lat="46.10082" lon="6.36755">
        <ele>266.4</ele>
        <time>2020-09-30T08:50:55Z</time>
      </trkpt>
      <trkpt lat="46.10115" lon="6.36718">
        <ele>266.8</ele>
        <time>2020-09-30T08:50:51Z</time>
      </trkpt>
      <trkpt lat="46.1015" lon="6.36682">
        <ele>268.4</ele>
        <time>2020-09-30T08:50:47Z</time>
      </trkpt>
      <trkpt lat="46.10185" lon="6.3665">
        <ele>271</ele>
        <time>2020-09-30T08:50:43Z</time>
      </trkpt>
      <trkpt lat="46.10222" lon="6.36622">
        <ele>274.2</ele>
        <time>2020-09-30T08:50:39Z</time>
      </trkpt>
      <trkpt lat="46.10258" lon="6.36593">
        <ele>274</ele>
        <time>2020-09-30T08:50:35Z</time>
      </trkpt>
      <trkpt lat="46.10294" lon="6.36564">
        <ele>276.6</ele>
        <time>2020-09-30T08:50:31Z</time>
      </trkpt>
      <trkpt lat="46.1033" lon="6.36536">
        <ele>277.8</ele>
        <time>2020-09-30T08:50:27Z</time>
      </trkpt>
      <trkpt lat="46.10366" lon="6.36507">
        <ele>279.4</ele>
        <time>2020-09-30T08:50:23Z</time>
      </trkpt>
      <trkpt lat="46.10402" lon="6.36475">
        <ele>280.4</ele>
        <time>2020-09-30T08:50:19Z</time>
      </trkpt>
      <trkpt lat="46.1043" lon="6.36431">
        <ele>282.6</ele>
        <time>2020-09-30T08:50:15Z</time>
      </trkpt>
      <trkpt lat="46.1046" lon="6.36395">
        <ele>284</ele>
        <time>2020-09-30T08:50:11Z</time>
      </trkpt>
      <trkpt lat="46.10497" lon="6.36376">
        <ele>285.6</ele>
        <time>2020-09-30T08:50:07Z</time>
      </trkpt>
      <trkpt lat="46.10532" lon="6.36352">
        <ele>287</ele>
        <time>2020-09-30T08:50:03Z</time>
      </trkpt>
      <trkpt lat="46.10563" lon="6.36319">
        <ele>289.6</ele>
        <time>2020-09-30T08:49:59Z</time>
      </trkpt>
      <trkpt lat="46.10593" lon="6.36282">
        <ele>290.6</ele>
        <time>2020-09-30T08:49:55Z</time>
      </trkpt>
      <trkpt lat="46.10629" lon="6.36257">
        <ele>291.8</ele>
        <time>2020-09-30T08:49:51Z</time>
      </trkpt>
      <trkpt lat="46.10667" lon="6.36252">
        <ele>293.2</ele>
        <time>2020-09-30T08:49:47Z</time>
      </trkpt>
      <trkpt lat="46.10705" lon="6.36271">
        <ele>295</ele>
        <time>2020-09-30T08:49:43Z</time>
      </trkpt>
      <trkpt lat="46.10741" lon="6.36252">
        <ele>296.6</ele>
        <time>2020-09-30T08:49:39Z</time>
      </trkpt>
      <trkpt lat="46.10763" lon="6.36206">
        <ele>298</ele>
        <time>2020-09-30T08:49:35Z</time>
      </trkpt>
      <trkpt lat="46.10789" lon="6.36167">
        <ele>300.6</ele>
        <time>2020-09-30T08:49:31Z</time>
      </trkpt>
      <trkpt lat="46.10828" lon="6.36161">
        <ele>301</ele>
        <time>2020-09-30T08:49:27Z</time>
      </trkpt>
      <trkpt lat="46.10869" lon="6.36159">
        <ele>301.8</ele>
        <time>2020-09-30T08:49:23Z</time>
      </trkpt>
      <trkpt lat="46.10907" lon="6.36139">
        <ele>303.4</ele>
        <time>2020-09-30T08:49:19Z</time>
      </trkpt>
      <trkpt lat="46.10939" lon="6.36099">
        <ele>305</ele>
        <time>2020-09-30T08:49:15Z</time>
      </trkpt>
      <trkpt lat="46.10975" lon="6.36079">
        <ele>308</ele>
        <time>2020-09-30T08:49:11Z</time>
      </trkpt>
      <trkpt lat="46.11015" lon="6.36073">
        <ele>309.2</ele>
        <time>2020-09-30T08:49:07Z</time>
      </trkpt>
      <trkpt lat="46.11045" lon="6.36033">
        <ele>310.8</ele>
        <time>2020-09-30T08:49:03Z</time>
      </trkpt>
      <trkpt lat="46.11074" lon="6.36">
        <ele>312.8</ele>
        <time>2020-09-30T08:48:59Z</time>
      </trkpt>
      <trkpt lat="46.11113" lon="6.35999">
        <ele>313.8</ele>
        <time>2020-09-30T08:48:55Z</time>
      </trkpt>
      <trkpt lat="46.11154" lon="6.35992">
        <ele>314.6</ele>
        <time>2020-09-30T08:48:51Z</time>
      </trkpt>
      <trkpt lat="46.11194" lon="6.3598">
        <ele>316.2</ele>
        <time>2020-09-30T08:48:47Z</time>
      </trkpt>
      <trkpt lat="46.11235" lon="6.35982">
        <ele>318</ele>
        <time>2020-09-30T08:48:43Z</time>
      </trkpt>
      <trkpt lat="46.11274" lon="6.35969">
        <ele>320</ele>
        <time>2020-09-30T08:48:39Z</time>
      </trkpt>
      <trkpt lat="46.1131" lon="6.35951">
        <ele>321.2</ele>
        <time>2020-09-30T08:48:35Z</time>
      </trkpt>
      <trkpt lat="46.11345" lon="6.35941">
        <ele>322.8</ele>
        <time>2020-09-30T08:48:31Z</time>
      </trkpt>
      <trkpt lat="46.11384" lon="6.35947">
        <ele>325.4</ele>
        <time>2020-09-30T08:48:27Z</time>
      </trkpt>
      <trkpt lat="46.11421" lon="6.35973">
        <ele>326.2</ele>
        <time>2020-09-30T08:48:23Z</time>
      </trkpt>
      <trkpt lat="46.1145" lon="6.36004">
        <ele>327.6</ele>
        <time>2020-09-30T08:48:19Z</time>
      </trkpt>
      <trkpt lat="46.1148" lon="6.36037">
        <ele>328.4</ele>
        <time>2020-09-30T08:48:15Z</time>
      </trkpt>
      <trkpt lat="46.11519" lon="6.36047">
        <ele>329</ele>
        <time>2020-09-30T08:48:11Z</time>
      </trkpt>
      <trkpt lat="46.11558" lon="6.36032">
        <ele>333.4</ele>
        <time>2020-09-30T08:48:07Z</time>
      </trkpt>
      <trkpt lat="46.11584" lon="6.35997">
        <ele>335.2</ele>
        <time>2020-09-30T08:48:03Z</time>
      </trkpt>
      <trkpt lat="46.11593" lon="6.35949">
        <ele>336.4</ele>
        <time>2020-09-30T08:47:59Z</time>
      </trkpt>
      <trkpt lat="46.11579" lon="6.35904">
        <ele>338.4</ele>
        <time>2020-09-30T08:47:55Z</time>
      </trkpt>
      <trkpt lat="46.11566" lon="6.35862">
        <ele>341.2</ele>
        <time>2020-09-30T08:47:51Z</time>
      </trkpt>
      <trkpt lat="46.11559" lon="6.35822">
        <ele>343.6</ele>
        <time>2020-09-30T08:47:47Z</time>
      </trkpt>
      <trkpt lat="46.11556" lon="6.35786">
        <ele>345.8</ele>
        <time>2020-09-30T08:47:43Z</time>
      </trkpt>
      <trkpt lat="46.11549" lon="6.35763">
        <ele>347.8</ele>
        <time>2020-09-30T08:47:39Z</time>
      </trkpt>
      <trkpt lat="46.11545" lon="6.35751">
        <ele>349.8</ele>
        <time>2020-09-30T08:47:35Z</time>
      </trkpt>
      <trkpt lat="46.11544" lon="6.35749">
        <ele>350.2</ele>
        <time>2020-09-30T08:47:31Z</time>
      </trkpt>
      <trkpt lat="46.11544" lon="6.35749">
        <ele>349.8</ele>
        <time>2020-09-30T08:47:27Z</time>
      </trkpt>
      <trkpt lat="46.11544" lon="6.35749">
        <ele>350</ele>
        <time>2020-09-30T08:47:23Z</time>
      </trkpt>
      <trkpt lat="46.11544" lon="6.35749">
        <ele>350</ele>
        <time>2020-09-30T08:47:19Z</time>
      </trkpt>
      <trkpt lat="46.11544" lon="6.35747">
        <ele>349.8</ele>
        <time>2020-09-30T08:47:15Z</time>
      </trkpt>
      <trkpt lat="46.11544" lon="6.35747">
        <ele>349.4</ele>
        <time>2020-09-30T08:47:11Z</time>
      </trkpt>
      <trkpt lat="46.11544" lon="6.35747">
        <ele>349.2</ele>
        <time>2020-09-30T08:47:07Z</time>
      </trkpt>
      <trkpt lat="46.11544" lon="6.35747">
        <ele>349.2</ele>
        <time>2020-09-30T08:47:03Z</time>
      </trkpt>
      <trkpt lat="46.11544" lon="6.35747">
        <ele>349.6</ele>
        <time>2020-09-30T08:46:59Z</time>
      </trkpt>
      <trkpt lat="46.11544" lon="6.35748">
        <ele>349.6</ele>
        <time>2020-09-30T08:46:55Z</time>
      </trkpt>
      <trkpt lat="46.11544" lon="6.35748">
        <ele>349.6</ele>
        <time>2020-09-30T08:46:51Z</time>
      </trkpt>
      <trkpt lat="46.11544" lon="6.35748">
        <ele>350.4</ele>
        <time>2020-09-30T08:46:47Z</time>
      </trkpt>
      <trkpt lat="46.11544" lon="6.35748">
        <ele>349.6</ele>
        <time>2020-09-30T08:46:43Z</time>
      </trkpt>
      <trkpt lat="46.11544" lon="6.35748">
        <ele>350</ele>
        <time>2020-09-30T08:46:39Z</time>
      </trkpt>
      <trkpt lat="46.11544" lon="6.35748">
        <ele>349.6</ele>
        <time>2020-09-30T08:46:35Z</time>
      </trkpt>
      <trkpt lat="46.11543" lon="6.35742">
        <ele>350</ele>
        <time>2020-09-30T08:46:31Z</time>
      </trkpt>
      <trkpt lat="46.11542" lon="6.3574">
        <ele>350.2</ele>
        <time>2020-09-30T08:46:27Z</time>
      </trkpt>
      <trkpt lat="46.11542" lon="6.3574">
        <ele>350</ele>
        <time>2020-09-30T08:46:23Z</time>
      </trkpt>
      <trkpt lat="46.11543" lon="6.35726">
        <ele>348.4</ele>
        <time>2020-09-30T08:46:19Z</time>
      </trkpt>
      <trkpt lat="46.1156" lon="6.35691">
        <ele>347.6</ele>
        <time>2020-09-30T08:46:15Z</time>
      </trkpt>
      <trkpt lat="46.11594" lon="6.35685">
        <ele>350.2</ele>
        <time>2020-09-30T08:46:11Z</time>
      </trkpt>
      <trkpt lat="46.11622" lon="6.35714">
        <ele>352</ele>
        <time>2020-09-30T08:46:07Z</time>
      </trkpt>
      <trkpt lat="46.11645" lon="6.35747">
        <ele>354.2</ele>
        <time>2020-09-30T08:46:03Z</time>
      </trkpt>
      <trkpt lat="46.11666" lon="6.35778">
        <ele>356.2</ele>
        <time>2020-09-30T08:45:59Z</time>
      </trkpt>
      <trkpt lat="46.11691" lon="6.35801">
        <ele>358.4</ele>
        <time>2020-09-30T08:45:55Z</time>
      </trkpt>
      <trkpt lat="46.11717" lon="6.35805">
        <ele>360.6</ele>
        <time>2020-09-30T08:45:51Z</time>
      </trkpt>
      <trkpt lat="46.11737" lon="6.35797">
        <ele>361.4</ele>
        <time>2020-09-30T08:45:47Z</time>
      </trkpt>
      <trkpt lat="46.1176" lon="6.35777">
        <ele>361.6</ele>
        <time>2020-09-30T08:45:43Z</time>
      </trkpt>
      <trkpt lat="46.11784" lon="6.35764">
        <ele>363.4</ele>
        <time>2020-09-30T08:45:39Z</time>
      </trkpt>
      <trkpt lat="46.11806" lon="6.35765">
        <ele>365.2</ele>
        <time>2020-09-30T08:45:35Z</time>
      </trkpt>
      <trkpt lat="46.11824" lon="6.3577">
        <ele>366.6</ele>
        <time>2020-09-30T08:45:31Z</time>
      </trkpt>
      <trkpt lat="46.11838" lon="6.35775">
        <ele>367.8</ele>
        <time>2020-09-30T08:45:27Z</time>
      </trkpt>
      <trkpt lat="46.11854" lon="6.35779">
        <ele>367.8</ele>
        <time>2020-09-30T08:45:23Z</time>
      </trkpt>
      <trkpt lat="46.11871" lon="6.35783">
        <ele>369.2</ele>
        <time>2020-09-30T08:45:19Z</time>
      </trkpt>
      <trkpt lat="46.11885" lon="6.35784">
        <ele>370.2</ele>
        <time>2020-09-30T08:45:15Z</time>
      </trkpt>
      <trkpt lat="46.11895" lon="6.35776">
        <ele>369.6</ele>
        <time>2020-09-30T08:45:11Z</time>
      </trkpt>
      <trkpt lat="46.11907" lon="6.35766">
        <ele>368.6</ele>
        <time>2020-09-30T08:45:07Z</time>
      </trkpt>
      <trkpt lat="46.1192" lon="6.35756">
        <ele>367.6</ele>
        <time>2020-09-30T08:45:03Z</time>
      </trkpt>
      <trkpt lat="46.11932" lon="6.35747">
        <ele>366.4</ele>
        <time>2020-09-30T08:44:59Z</time>
      </trkpt>
      <trkpt lat="46.11944" lon="6.35738">
        <ele>365.8</ele>
        <time>2020-09-30T08:44:55Z</time>
      </trkpt>
      <trkpt lat="46.11957" lon="6.35729">
        <ele>364.8</ele>
        <time>2020-09-30T08:44:51Z</time>
      </trkpt>
      <trkpt lat="46.11968" lon="6.35719">
        <ele>363</ele>
        <time>2020-09-30T08:44:47Z</time>
      </trkpt>
      <trkpt lat="46.1198" lon="6.35708">
        <ele>361.8</ele>
        <time>2020-09-30T08:44:43Z</time>
      </trkpt>
      <trkpt lat="46.11991" lon="6.35697">
        <ele>360.8</ele>
        <time>2020-09-30T08:44:39Z</time>
      </trkpt>
      <trkpt lat="46.12003" lon="6.35687">
        <ele>359.4</ele>
        <time>2020-09-30T08:44:35Z</time>
      </trkpt>
      <trkpt lat="46.12015" lon="6.35677">
        <ele>357.8</ele>
        <time>2020-09-30T08:44:31Z</time>
      </trkpt>
      <trkpt lat="46.12027" lon="6.35668">
        <ele>356.6</ele>
        <time>2020-09-30T08:44:27Z</time>
      </trkpt>
      <trkpt lat="46.1204" lon="6.35658">
        <ele>356.2</ele>
        <time>2020-09-30T08:44:23Z</time>
      </trkpt>
      <trkpt lat="46.12053" lon="6.35648">
        <ele>355</ele>
        <time>2020-09-30T08:44:19Z</time>
      </trkpt>
      <trkpt lat="46.12066" lon="6.35637">
        <ele>355</ele>
        <time>2020-09-30T08:44:15Z</time>
      </trkpt>
      <trkpt lat="46.12078" lon="6.35625">
        <ele>354.4</ele>
        <time>2020-09-30T08:44:11Z</time>
      </trkpt>
      <trkpt lat="46.1209" lon="6.35613">
        <ele>352.4</ele>
        <time>2020-09-30T08:44:07Z</time>
      </trkpt>
      <trkpt lat="46.12103" lon="6.35604">
        <ele>351.8</ele>
        <time>2020-09-30T08:44:03Z</time>
      </trkpt>
      <trkpt lat="46.12117" lon="6.35593">
        <ele>351</ele>
        <time>2020-09-30T08:43:59Z</time>
      </trkpt>
      <trkpt lat="46.12132" lon="6.35583">
        <ele>349.8</ele>
        <time>2020-09-30T08:43:55Z</time>
      </trkpt>
      <trkpt lat="46.12146" lon="6.35577">
        <ele>348.6</ele>
        <time>2020-09-30T08:43:51Z</time>
      </trkpt>
      <trkpt lat="46.1216" lon="6.35567">
        <ele>347.4</ele>
        <time>2020-09-30T08:43:47Z</time>
      </trkpt>
      <trkpt lat="46.12176" lon="6.35554">
        <ele>346</ele>
        <time>2020-09-30T08:43:43Z</time>
      </trkpt>
      <trkpt lat="46.12193" lon="6.35544">
        <ele>344.8</ele>
        <time>2020-09-30T08:43:39Z</time>
      </trkpt>
      <trkpt lat="46.12211" lon="6.35533">
        <ele>344</ele>
        <time>2020-09-30T08:43:35Z</time>
      </trkpt>
      <trkpt lat="46.1223" lon="6.35523">
        <ele>343</ele>
        <time>2020-09-30T08:43:31Z</time>
      </trkpt>
      <trkpt lat="46.12251" lon="6.35512">
        <ele>341.2</ele>
        <time>2020-09-30T08:43:27Z</time>
      </trkpt>
      <trkpt lat="46.12274" lon="6.35501">
        <ele>340.4</ele>
        <time>2020-09-30T08:43:23Z</time>
      </trkpt>
      <trkpt lat="46.12298" lon="6.35495">
        <ele>340.4</ele>
        <time>2020-09-30T08:43:19Z</time>
      </trkpt>
      <trkpt lat="46.12321" lon="6.35493">
        <ele>340.4</ele>
        <time>2020-09-30T08:43:15Z</time>
      </trkpt>
      <trkpt lat="46.12344" lon="6.35495">
        <ele>339.8</ele>
        <time>2020-09-30T08:43:11Z</time>
      </trkpt>
      <trkpt lat="46.12366" lon="6.355">
        <ele>338.6</ele>
        <time>2020-09-30T08:43:07Z</time>
      </trkpt>
      <trkpt lat="46.12389" lon="6.35491">
        <ele>338.4</ele>
        <time>2020-09-30T08:43:03Z</time>
      </trkpt>
      <trkpt lat="46.12409" lon="6.35474">
        <ele>336.8</ele>
        <time>2020-09-30T08:42:59Z</time>
      </trkpt>
      <trkpt lat="46.12432" lon="6.35465">
        <ele>337.4</ele>
        <time>2020-09-30T08:42:55Z</time>
      </trkpt>
      <trkpt lat="46.12455" lon="6.35464">
        <ele>337</ele>
        <time>2020-09-30T08:42:51Z</time>
      </trkpt>
      <trkpt lat="46.12479" lon="6.35468">
        <ele>336</ele>
        <time>2020-09-30T08:42:47Z</time>
      </trkpt>
      <trkpt lat="46.12503" lon="6.35461">
        <ele>337.2</ele>
        <time>2020-09-30T08:42:43Z</time>
      </trkpt>
      <trkpt lat="46.12522" lon="6.35439">
        <ele>336.6</ele>
        <time>2020-09-30T08:42:39Z</time>
      </trkpt>
      <trkpt lat="46.1254" lon="6.35417">
        <ele>335.6</ele>
        <time>2020-09-30T08:42:35Z</time>
      </trkpt>
      <trkpt lat="46.12558" lon="6.35397">
        <ele>335</ele>
        <time>2020-09-30T08:42:31Z</time>
      </trkpt>
      <trkpt lat="46.1258" lon="6.35378">
        <ele>335</ele>
        <time>2020-09-30T08:42:27Z</time>
      </trkpt>
      <trkpt lat="46.12604" lon="6.35365">
        <ele>336.6</ele>
        <time>2020-09-30T08:42:23Z</time>
      </trkpt>
      <trkpt lat="46.12626" lon="6.35352">
        <ele>336.6</ele>
        <time>2020-09-30T08:42:19Z</time>
      </trkpt>
      <trkpt lat="46.12646" lon="6.35335">
        <ele>337.8</ele>
        <time>2020-09-30T08:42:15Z</time>
      </trkpt>
      <trkpt lat="46.12665" lon="6.35315">
        <ele>338</ele>
        <time>2020-09-30T08:42:11Z</time>
      </trkpt>
      <trkpt lat="46.12684" lon="6.35294">
        <ele>339</ele>
        <time>2020-09-30T08:42:07Z</time>
      </trkpt>
      <trkpt lat="46.12704" lon="6.35278">
        <ele>340</ele>
        <time>2020-09-30T08:42:03Z</time>
      </trkpt>
      <trkpt lat="46.12723" lon="6.35265">
        <ele>340.4</ele>
        <time>2020-09-30T08:41:59Z</time>
      </trkpt>
      <trkpt lat="46.12743" lon="6.35259">
        <ele>342.6</ele>
        <time>2020-09-30T08:41:55Z</time>
      </trkpt>
      <trkpt lat="46.12758" lon="6.35257">
        <ele>342.6</ele>
        <time>2020-09-30T08:41:51Z</time>
      </trkpt>
      <trkpt lat="46.12775" lon="6.35256">
        <ele>342.4</ele>
        <time>2020-09-30T08:41:47Z</time>
      </trkpt>
      <trkpt lat="46.12792" lon="6.35254">
        <ele>342.6</ele>
        <time>2020-09-30T08:41:43Z</time>
      </trkpt>
      <trkpt lat="46.12807" lon="6.35248">
        <ele>343</ele>
        <time>2020-09-30T08:41:39Z</time>
      </trkpt>
      <trkpt lat="46.12817" lon="6.35233">
        <ele>342.6</ele>
        <time>2020-09-30T08:41:35Z</time>
      </trkpt>
      <trkpt lat="46.12822" lon="6.35214">
        <ele>341.4</ele>
        <time>2020-09-30T08:41:31Z</time>
      </trkpt>
      <trkpt lat="46.12826" lon="6.35195">
        <ele>340.8</ele>
        <time>2020-09-30T08:41:27Z</time>
      </trkpt>
      <trkpt lat="46.12831" lon="6.35176">
        <ele>340.4</ele>
        <time>2020-09-30T08:41:23Z</time>
      </trkpt>
      <trkpt lat="46.12836" lon="6.3516">
        <ele>340.4</ele>
        <time>2020-09-30T08:41:19Z</time>
      </trkpt>
      <trkpt lat="46.12841" lon="6.35145">
        <ele>340.4</ele>
        <time>2020-09-30T08:41:15Z</time>
      </trkpt>
      <trkpt lat="46.12845" lon="6.35127">
        <ele>340.2</ele>
        <time>2020-09-30T08:41:11Z</time>
      </trkpt>
      <trkpt lat="46.12851" lon="6.35111">
        <ele>338.8</ele>
        <time>2020-09-30T08:41:07Z</time>
      </trkpt>
      <trkpt lat="46.12857" lon="6.35096">
        <ele>338.6</ele>
        <time>2020-09-30T08:41:03Z</time>
      </trkpt>
      <trkpt lat="46.12864" lon="6.35083">
        <ele>337.4</ele>
        <time>2020-09-30T08:40:59Z</time>
      </trkpt>
      <trkpt lat="46.12871" lon="6.35072">
        <ele>336.2</ele>
        <time>2020-09-30T08:40:55Z</time>
      </trkpt>
      <trkpt lat="46.1288" lon="6.35062">
        <ele>335.4</ele>
        <time>2020-09-30T08:40:51Z</time>
      </trkpt>
      <trkpt lat="46.12889" lon="6.35055">
        <ele>333.6</ele>
        <time>2020-09-30T08:40:47Z</time>
      </trkpt>
      <trkpt lat="46.12899" lon="6.35049">
        <ele>332.8</ele>
        <time>2020-09-30T08:40:43Z</time>
      </trkpt>
      <trkpt lat="46.12909" lon="6.35041">
        <ele>331.8</ele>
        <time>2020-09-30T08:40:39Z</time>
      </trkpt>
      <trkpt lat="46.12918" lon="6.35036">
        <ele>330.4</ele>
        <time>2020-09-30T08:40:35Z</time>
      </trkpt>
      <trkpt lat="46.12928" lon="6.35032">
        <ele>328.8</ele>
        <time>2020-09-30T08:40:31Z</time>
      </trkpt>
      <trkpt lat="46.12939" lon="6.35026">
        <ele>328.2</ele>
        <time>2020-09-30T08:40:27Z</time>
      </trkpt>
      <trkpt lat="46.12947" lon="6.35017">
        <ele>327.6</ele>
        <time>2020-09-30T08:40:23Z</time>
      </trkpt>
      <trkpt lat="46.12955" lon="6.35008">
        <ele>326.2</ele>
        <time>2020-09-30T08:40:19Z</time>
      </trkpt>
      <trkpt lat="46.12964" lon="6.35">
        <ele>324.6</ele>
        <time>2020-09-30T08:40:15Z</time>
      </trkpt>
      <trkpt lat="46.12973" lon="6.3499">
        <ele>323.8</ele>
        <time>2020-09-30T08:40:11Z</time>
      </trkpt>
      <trkpt lat="46.12982" lon="6.34981">
        <ele>322.4</ele>
        <time>2020-09-30T08:40:07Z</time>
      </trkpt>
      <trkpt lat="46.1299" lon="6.34972">
        <ele>321.4</ele>
        <time>2020-09-30T08:40:03Z</time>
      </trkpt>
      <trkpt lat="46.12998" lon="6.34961">
        <ele>319.8</ele>
        <time>2020-09-30T08:39:59Z</time>
      </trkpt>
      <trkpt lat="46.13006" lon="6.3495">
        <ele>319</ele>
        <time>2020-09-30T08:39:55Z</time>
      </trkpt>
      <trkpt lat="46.13015" lon="6.34938">
        <ele>318.2</ele>
        <time>2020-09-30T08:39:51Z</time>
      </trkpt>
      <trkpt lat="46.13024" lon="6.34925">
        <ele>317.6</ele>
        <time>2020-09-30T08:39:47Z</time>
      </trkpt>
      <trkpt lat="46.13032" lon="6.34913">
        <ele>316.8</ele>
        <time>2020-09-30T08:39:43Z</time>
      </trkpt>
      <trkpt lat="46.1304" lon="6.34901">
        <ele>315.6</ele>
        <time>2020-09-30T08:39:39Z</time>
      </trkpt>
      <trkpt lat="46.13049" lon="6.3489">
        <ele>314.6</ele>
        <time>2020-09-30T08:39:35Z</time>
      </trkpt>
      <trkpt lat="46.13056" lon="6.34877">
        <ele>313.2</ele>
        <time>2020-09-30T08:39:31Z</time>
      </trkpt>
      <trkpt lat="46.13062" lon="6.34864">
        <ele>312</ele>
        <time>2020-09-30T08:39:27Z</time>
      </trkpt>
      <trkpt lat="46.13069" lon="6.3485">
        <ele>311.2</ele>
        <time>2020-09-30T08:39:23Z</time>
      </trkpt>
      <trkpt lat="46.13074" lon="6.34835">
        <ele>309.8</ele>
        <time>2020-09-30T08:39:19Z</time>
      </trkpt>
      <trkpt lat="46.13079" lon="6.34821">
        <ele>308.6</ele>
        <time>2020-09-30T08:39:15Z</time>
      </trkpt>
      <trkpt lat="46.13084" lon="6.34805">
        <ele>308</ele>
        <time>2020-09-30T08:39:11Z</time>
      </trkpt>
      <trkpt lat="46.13092" lon="6.3479">
        <ele>306</ele>
        <time>2020-09-30T08:39:07Z</time>
      </trkpt>
      <trkpt lat="46.131" lon="6.34778">
        <ele>304.8</ele>
        <time>2020-09-30T08:39:03Z</time>
      </trkpt>
      <trkpt lat="46.1311" lon="6.34765">
        <ele>303.4</ele>
        <time>2020-09-30T08:38:59Z</time>
      </trkpt>
      <trkpt lat="46.1312" lon="6.34752">
        <ele>302.4</ele>
        <time>2020-09-30T08:38:55Z</time>
      </trkpt>
      <trkpt lat="46.13129" lon="6.34738">
        <ele>300.8</ele>
        <time>2020-09-30T08:38:51Z</time>
      </trkpt>
      <trkpt lat="46.13138" lon="6.34724">
        <ele>299.6</ele>
        <time>2020-09-30T08:38:47Z</time>
      </trkpt>
      <trkpt lat="46.13146" lon="6.34709">
        <ele>298</ele>
        <time>2020-09-30T08:38:43Z</time>
      </trkpt>
      <trkpt lat="46.13156" lon="6.34691">
        <ele>296.4</ele>
        <time>2020-09-30T08:38:39Z</time>
      </trkpt>
      <trkpt lat="46.13168" lon="6.34672">
        <ele>295</ele>
        <time>2020-09-30T08:38:35Z</time>
      </trkpt>
      <trkpt lat="46.1318" lon="6.34651">
        <ele>293.8</ele>
        <time>2020-09-30T08:38:31Z</time>
      </trkpt>
      <trkpt lat="46.13193" lon="6.34631">
        <ele>293.2</ele>
        <time>2020-09-30T08:38:27Z</time>
      </trkpt>
      <trkpt lat="46.13207" lon="6.34613">
        <ele>292.6</ele>
        <time>2020-09-30T08:38:23Z</time>
      </trkpt>
      <trkpt lat="46.13223" lon="6.34597">
        <ele>292.2</ele>
        <time>2020-09-30T08:38:19Z</time>
      </trkpt>
      <trkpt lat="46.13241" lon="6.34585">
        <ele>291.4</ele>
        <time>2020-09-30T08:38:15Z</time>
      </trkpt>
      <trkpt lat="46.1326" lon="6.34576">
        <ele>290.6</ele>
        <time>2020-09-30T08:38:11Z</time>
      </trkpt>
      <trkpt lat="46.13279" lon="6.34565">
        <ele>288.8</ele>
        <time>2020-09-30T08:38:07Z</time>
      </trkpt>
      <trkpt lat="46.13298" lon="6.34551">
        <ele>288.2</ele>
        <time>2020-09-30T08:38:03Z</time>
      </trkpt>
      <trkpt lat="46.13317" lon="6.34534">
        <ele>287.4</ele>
        <time>2020-09-30T08:37:59Z</time>
      </trkpt>
      <trkpt lat="46.13335" lon="6.34515">
        <ele>287</ele>
        <time>2020-09-30T08:37:55Z</time>
      </trkpt>
      <trkpt lat="46.13354" lon="6.34501">
        <ele>286.2</ele>
        <time>2020-09-30T08:37:51Z</time>
      </trkpt>
      <trkpt lat="46.13374" lon="6.34491">
        <ele>286</ele>
        <time>2020-09-30T08:37:47Z</time>
      </trkpt>
      <trkpt lat="46.13395" lon="6.34481">
        <ele>284.4</ele>
        <time>2020-09-30T08:37:43Z</time>
      </trkpt>
      <trkpt lat="46.13417" lon="6.34474">
        <ele>285</ele>
        <time>2020-09-30T08:37:39Z</time>
      </trkpt>
      <trkpt lat="46.13438" lon="6.34468">
        <ele>285.6</ele>
        <time>2020-09-30T08:37:35Z</time>
      </trkpt>
      <trkpt lat="46.13458" lon="6.34459">
        <ele>286.4</ele>
        <time>2020-09-30T08:37:31Z</time>
      </trkpt>
      <trkpt lat="46.13476" lon="6.34447">
        <ele>285.8</ele>
        <time>2020-09-30T08:37:27Z</time>
      </trkpt>
      <trkpt lat="46.13493" lon="6.34434">
        <ele>285.2</ele>
        <time>2020-09-30T08:37:23Z</time>
      </trkpt>
      <trkpt lat="46.13511" lon="6.34421">
        <ele>285.2</ele>
        <time>2020-09-30T08:37:19Z</time>
      </trkpt>
      <trkpt lat="46.13529" lon="6.34409">
        <ele>284.8</ele>
        <time>2020-09-30T08:37:15Z</time>
      </trkpt>
      <trkpt lat="46.13547" lon="6.34397">
        <ele>284.4</ele>
        <time>2020-09-30T08:37:11Z</time>
      </trkpt>
      <trkpt lat="46.13565" lon="6.34385">
        <ele>283.8</ele>
        <time>2020-09-30T08:37:07Z</time>
      </trkpt>
      <trkpt lat="46.13582" lon="6.34373">
        <ele>283.2</ele>
        <time>2020-09-30T08:37:03Z</time>
      </trkpt>
      <trkpt lat="46.13599" lon="6.34362">
        <ele>283</ele>
        <time>2020-09-30T08:36:59Z</time>
      </trkpt>
      <trkpt lat="46.13615" lon="6.34351">
        <ele>282.6</ele>
        <time>2020-09-30T08:36:55Z</time>
      </trkpt>
      <trkpt lat="46.13631" lon="6.34341">
        <ele>281.8</ele>
        <time>2020-09-30T08:36:51Z</time>
      </trkpt>
      <trkpt lat="46.13646" lon="6.34328">
        <ele>281.6</ele>
        <time>2020-09-30T08:36:47Z</time>
      </trkpt>
      <trkpt lat="46.13661" lon="6.34316">
        <ele>280.6</ele>
        <time>2020-09-30T08:36:43Z</time>
      </trkpt>
      <trkpt lat="46.13675" lon="6.34304">
        <ele>280</ele>
        <time>2020-09-30T08:36:39Z</time>
      </trkpt>
      <trkpt lat="46.13689" lon="6.34292">
        <ele>279</ele>
        <time>2020-09-30T08:36:35Z</time>
      </trkpt>
      <trkpt lat="46.13704" lon="6.3428">
        <ele>277.6</ele>
        <time>2020-09-30T08:36:31Z</time>
      </trkpt>
      <trkpt lat="46.13717" lon="6.34269">
        <ele>276.8</ele>
        <time>2020-09-30T08:36:27Z</time>
      </trkpt>
      <trkpt lat="46.13732" lon="6.34258">
        <ele>274.8</ele>
        <time>2020-09-30T08:36:23Z</time>
      </trkpt>
      <trkpt lat="46.1375" lon="6.34243">
        <ele>273</ele>
        <time>2020-09-30T08:36:19Z</time>
      </trkpt>
      <trkpt lat="46.13771" lon="6.34229">
        <ele>272.2</ele>
        <time>2020-09-30T08:36:15Z</time>
      </trkpt>
      <trkpt lat="46.13795" lon="6.34226">
        <ele>272.6</ele>
        <time>2020-09-30T08:36:11Z</time>
      </trkpt>
      <trkpt lat="46.13817" lon="6.34227">
        <ele>273</ele>
        <time>2020-09-30T08:36:07Z</time>
      </trkpt>
      <trkpt lat="46.1384" lon="6.34225">
        <ele>272.6</ele>
        <time>2020-09-30T08:36:03Z</time>
      </trkpt>
      <trkpt lat="46.13862" lon="6.34223">
        <ele>273.2</ele>
        <time>2020-09-30T08:35:59Z</time>
      </trkpt>
      <trkpt lat="46.13884" lon="6.34221">
        <ele>273.6</ele>
        <time>2020-09-30T08:35:55Z</time>
      </trkpt>
      <trkpt lat="46.13905" lon="6.34217">
        <ele>274.4</ele>
        <time>2020-09-30T08:35:51Z</time>
      </trkpt>
      <trkpt lat="46.13923" lon="6.34212">
        <ele>276.2</ele>
        <time>2020-09-30T08:35:47Z</time>
      </trkpt>
      <trkpt lat="46.13937" lon="6.34202">
        <ele>274.6</ele>
        <time>2020-09-30T08:35:43Z</time>
      </trkpt>
      <trkpt lat="46.13952" lon="6.34191">
        <ele>272.8</ele>
        <time>2020-09-30T08:35:39Z</time>
      </trkpt>
      <trkpt lat="46.13969" lon="6.34179">
        <ele>271.4</ele>
        <time>2020-09-30T08:35:35Z</time>
      </trkpt>
      <trkpt lat="46.13987" lon="6.34165">
        <ele>270.2</ele>
        <time>2020-09-30T08:35:31Z</time>
      </trkpt>
      <trkpt lat="46.14006" lon="6.34153">
        <ele>269.8</ele>
        <time>2020-09-30T08:35:27Z</time>
      </trkpt>
      <trkpt lat="46.14025" lon="6.34141">
        <ele>270.2</ele>
        <time>2020-09-30T08:35:23Z</time>
      </trkpt>
      <trkpt lat="46.14043" lon="6.3413">
        <ele>269.2</ele>
        <time>2020-09-30T08:35:19Z</time>
      </trkpt>
      <trkpt lat="46.1406" lon="6.34118">
        <ele>268</ele>
        <time>2020-09-30T08:35:15Z</time>
      </trkpt>
      <trkpt lat="46.14076" lon="6.34104">
        <ele>267</ele>
        <time>2020-09-30T08:35:11Z</time>
      </trkpt>
      <trkpt lat="46.14088" lon="6.34087">
        <ele>265.6</ele>
        <time>2020-09-30T08:35:07Z</time>
      </trkpt>
      <trkpt lat="46.14101" lon="6.34075">
        <ele>265</ele>
        <time>2020-09-30T08:35:03Z</time>
      </trkpt>
      <trkpt lat="46.14122" lon="6.34064">
        <ele>265.8</ele>
        <time>2020-09-30T08:34:59Z</time>
      </trkpt>
      <trkpt lat="46.14145" lon="6.34055">
        <ele>267.4</ele>
        <time>2020-09-30T08:34:55Z</time>
      </trkpt>
      <trkpt lat="46.14163" lon="6.34047">
        <ele>267.8</ele>
        <time>2020-09-30T08:34:51Z</time>
      </trkpt>
      <trkpt lat="46.14183" lon="6.34036">
        <ele>267.2</ele>
        <time>2020-09-30T08:34:47Z</time>
      </trkpt>
      <trkpt lat="46.14207" lon="6.34024">
        <ele>267.8</ele>
        <time>2020-09-30T08:34:43Z</time>
      </trkpt>
      <trkpt lat="46.14229" lon="6.34012">
        <ele>267.8</ele>
        <time>2020-09-30T08:34:39Z</time>
      </trkpt>
      <trkpt lat="46.14251" lon="6.34001">
        <ele>268.6</ele>
        <time>2020-09-30T08:34:35Z</time>
      </trkpt>
      <trkpt lat="46.14272" lon="6.3399">
        <ele>268.8</ele>
        <time>2020-09-30T08:34:31Z</time>
      </trkpt>
      <trkpt lat="46.14291" lon="6.33976">
        <ele>269.8</ele>
        <time>2020-09-30T08:34:27Z</time>
      </trkpt>
      <trkpt lat="46.14306" lon="6.33958">
        <ele>269.4</ele>
        <time>2020-09-30T08:34:23Z</time>
      </trkpt>
      <trkpt lat="46.14323" lon="6.33944">
        <ele>269.6</ele>
        <time>2020-09-30T08:34:19Z</time>
      </trkpt>
      <trkpt lat="46.1434" lon="6.33934">
        <ele>269.8</ele>
        <time>2020-09-30T08:34:15Z</time>
      </trkpt>
      <trkpt lat="46.14359" lon="6.33926">
        <ele>270</ele>
        <time>2020-09-30T08:34:11Z</time>
      </trkpt>
      <trkpt lat="46.14377" lon="6.33919">
        <ele>270.4</ele>
        <time>2020-09-30T08:34:07Z</time>
      </trkpt>
      <trkpt lat="46.14395" lon="6.3391">
        <ele>270.4</ele>
        <time>2020-09-30T08:34:03Z</time>
      </trkpt>
      <trkpt lat="46.14412" lon="6.33903">
        <ele>271.4</ele>
        <time>2020-09-30T08:33:59Z</time>
      </trkpt>
      <trkpt lat="46.14427" lon="6.33897">
        <ele>271</ele>
        <time>2020-09-30T08:33:55Z</time>
      </trkpt>
      <trkpt lat="46.14442" lon="6.33891">
        <ele>270</ele>
        <time>2020-09-30T08:33:51Z</time>
      </trkpt>
      <trkpt lat="46.14456" lon="6.33885">
        <ele>269.2</ele>
        <time>2020-09-30T08:33:47Z</time>
      </trkpt>
      <trkpt lat="46.14472" lon="6.3388">
        <ele>268.6</ele>
        <time>2020-09-30T08:33:43Z</time>
      </trkpt>
      <trkpt lat="46.14487" lon="6.33875">
        <ele>267.4</ele>
        <time>2020-09-30T08:33:39Z</time>
      </trkpt>
      <trkpt lat="46.14502" lon="6.33869">
        <ele>266.6</ele>
        <time>2020-09-30T08:33:35Z</time>
      </trkpt>
      <trkpt lat="46.14518" lon="6.33862">
        <ele>265.2</ele>
        <time>2020-09-30T08:33:31Z</time>
      </trkpt>
      <trkpt lat="46.14533" lon="6.33849">
        <ele>264</ele>
        <time>2020-09-30T08:33:27Z</time>
      </trkpt>
      <trkpt lat="46.14545" lon="6.3383">
        <ele>263.6</ele>
        <time>2020-09-30T08:33:23Z</time>
      </trkpt>
      <trkpt lat="46.14559" lon="6.33813">
        <ele>262.8</ele>
        <time>2020-09-30T08:33:19Z</time>
      </trkpt>
      <trkpt lat="46.14574" lon="6.338">
        <ele>261.4</ele>
        <time>2020-09-30T08:33:15Z</time>
      </trkpt>
      <trkpt lat="46.14589" lon="6.33788">
        <ele>260.6</ele>
        <time>2020-09-30T08:33:11Z</time>
      </trkpt>
      <trkpt lat="46.14605" lon="6.33776">
        <ele>260.6</ele>
        <time>2020-09-30T08:33:07Z</time>
      </trkpt>
      <trkpt lat="46.1462" lon="6.33765">
        <ele>259.6</ele>
        <time>2020-09-30T08:33:03Z</time>
      </trkpt>
      <trkpt lat="46.14636" lon="6.33753">
        <ele>258.4</ele>
        <time>2020-09-30T08:32:59Z</time>
      </trkpt>
      <trkpt lat="46.14652" lon="6.33742">
        <ele>258.2</ele>
        <time>2020-09-30T08:32:55Z</time>
      </trkpt>
      <trkpt lat="46.14667" lon="6.33731">
        <ele>257.6</ele>
        <time>2020-09-30T08:32:51Z</time>
      </trkpt>
      <trkpt lat="46.14682" lon="6.33722">
        <ele>257.2</ele>
        <time>2020-09-30T08:32:47Z</time>
      </trkpt>
      <trkpt lat="46.14697" lon="6.33712">
        <ele>256.6</ele>
        <time>2020-09-30T08:32:43Z</time>
      </trkpt>
      <trkpt lat="46.14711" lon="6.33702">
        <ele>256.2</ele>
        <time>2020-09-30T08:32:39Z</time>
      </trkpt>
      <trkpt lat="46.14715" lon="6.33684">
        <ele>256</ele>
        <time>2020-09-30T08:32:35Z</time>
      </trkpt>
      <trkpt lat="46.1475" lon="6.33757">
        <ele>534.3</ele>
      </trkpt>
      <trkpt lat="46.1478" lon="6.33822">
        <ele>539.9</ele>
      </trkpt>
      <trkpt lat="46.14811" lon="6.33873">
        <ele>545.1</ele>
      </trkpt>
      <trkpt lat="46.14818" lon="6.33882">
        <ele>545.9</ele>
      </trkpt>
      <trkpt lat="46.14827" lon="6.33893">
        <ele>546.8</ele>
      </trkpt>
      <trkpt lat="46.14854" lon="6.33922">
        <ele>548.3</ele>
      </trkpt>
      <trkpt lat="46.14882" lon="6.33941">
        <ele>549</ele>
      </trkpt>
      <trkpt lat="46.14892" lon="6.33949">
        <ele>549.4</ele>
      </trkpt>
      <trkpt lat="46.14896" lon="6.33952">
        <ele>549.5</ele>
      </trkpt>
      <trkpt lat="46.14934" lon="6.3398">
        <ele>551.7</ele>
      </trkpt>
      <trkpt lat="46.15009" lon="6.34052">
        <ele>555.8</ele>
      </trkpt>
      <trkpt lat="46.1507" lon="6.34099">
        <ele>556.7</ele>
      </trkpt>
      <trkpt lat="46.15105" lon="6.34132">
        <ele>557.8</ele>
      </trkpt>
      <trkpt lat="46.15115" lon="6.3414">
        <ele>558.3</ele>
      </trkpt>
      <trkpt lat="46.15159" lon="6.34194">
        <ele>560.7</ele>
      </trkpt>
      <trkpt lat="46.15172" lon="6.34202">
        <ele>560.5</ele>
      </trkpt>
      <trkpt lat="46.15186" lon="6.34201">
        <ele>559.2</ele>
      </trkpt>
      <trkpt lat="46.15191" lon="6.34216">
        <ele>558.8</ele>
      </trkpt>
      <trkpt lat="46.15202" lon="6.34262">
        <ele>558.4</ele>
      </trkpt>
      <trkpt lat="46.15206" lon="6.34287">
        <ele>558.8</ele>
      </trkpt>
      <trkpt lat="46.15239" lon="6.34359">
        <ele>559.6</ele>
      </trkpt>
      <trkpt lat="46.15245" lon="6.34372">
        <ele>560</ele>
      </trkpt>
      <trkpt lat="46.15252" lon="6.34385">
        <ele>560.3</ele>
      </trkpt>
      <trkpt lat="46.15253" lon="6.34384">
        <ele>560.2</ele>
      </trkpt>
      <trkpt lat="46.15255" lon="6.34382">
        <ele>559.9</ele>
      </trkpt>
      <trkpt lat="46.1526" lon="6.34381">
        <ele>559.4</ele>
      </trkpt>
      <trkpt lat="46.1527" lon="6.34392">
        <ele>559.1</ele>
      </trkpt>
      <trkpt lat="46.15283" lon="6.34407">
        <ele>558.8</ele>
      </trkpt>
      <trkpt lat="46.1532" lon="6.34433">
        <ele>557.2</ele>
      </trkpt>
      <trkpt lat="46.15324" lon="6.34434">
        <ele>557</ele>
      </trkpt>
      <trkpt lat="46.15329" lon="6.34436">
        <ele>556.7</ele>
      </trkpt>
      <trkpt lat="46.15341" lon="6.34434">
        <ele>555.6</ele>
      </trkpt>
      <trkpt lat="46.15357" lon="6.34424">
        <ele>553.6</ele>
      </trkpt>
      <trkpt lat="46.15371" lon="6.34413">
        <ele>551.6</ele>
      </trkpt>
      <trkpt lat="46.15347" lon="6.34354">
        <ele>550.5</ele>
      </trkpt>
      <trkpt lat="46.15301" lon="6.34238">
        <ele>547.3</ele>
      </trkpt>
      <trkpt lat="46.15292" lon="6.34214">
        <ele>547.4</ele>
      </trkpt>
      <trkpt lat="46.15287" lon="6.34195">
        <ele>547.4</ele>
      </trkpt>
      <trkpt lat="46.15285" lon="6.34177">
        <ele>547.1</ele>
      </trkpt>
      <trkpt lat="46.15285" lon="6.34173">
        <ele>546.9</ele>
      </trkpt>
      <trkpt lat="46.15284" lon="6.34161">
        <ele>546.8</ele>
      </trkpt>
      <trkpt lat="46.1529" lon="6.34086">
        <ele>544.9</ele>
      </trkpt>
      <trkpt lat="46.1529" lon="6.34055">
        <ele>543.3</ele>
      </trkpt>
      <trkpt lat="46.1529" lon="6.34048">
        <ele>543</ele>
      </trkpt>
      <trkpt lat="46.15289" lon="6.34043">
        <ele>542.9</ele>
      </trkpt>
      <trkpt lat="46.15285" lon="6.34019">
        <ele>542.5</ele>
      </trkpt>
      <trkpt lat="46.15257" lon="6.33927">
        <ele>542.5</ele>
      </trkpt>
      <trkpt lat="46.15244" lon="6.33864">
        <ele>538.9</ele>
      </trkpt>
      <trkpt lat="46.15223" lon="6.33731">
        <ele>539.5</ele>
      </trkpt>
      <trkpt lat="46.15217" lon="6.33702">
        <ele>539.4</ele>
      </trkpt>
      <trkpt lat="46.1521" lon="6.33678">
        <ele>539.6</ele>
      </trkpt>
      <trkpt lat="46.15186" lon="6.33613">
        <ele>540.1</ele>
      </trkpt>
      <trkpt lat="46.15177" lon="6.33577">
        <ele>540</ele>
      </trkpt>
      <trkpt lat="46.15175" lon="6.3356">
        <ele>540.2</ele>
      </trkpt>
      <trkpt lat="46.15175" lon="6.33543">
        <ele>540.2</ele>
      </trkpt>
      <trkpt lat="46.15176" lon="6.33533">
        <ele>540</ele>
      </trkpt>
      <trkpt lat="46.15178" lon="6.33511">
        <ele>539.8</ele>
      </trkpt>
      <trkpt lat="46.15182" lon="6.33494">
        <ele>539.4</ele>
      </trkpt>
      <trkpt lat="46.1519" lon="6.33471">
        <ele>538.9</ele>
      </trkpt>
      <trkpt lat="46.15213" lon="6.33406">
        <ele>536.2</ele>
      </trkpt>
      <trkpt lat="46.15218" lon="6.33392">
        <ele>535.3</ele>
      </trkpt>
      <trkpt lat="46.15226" lon="6.33367">
        <ele>533.9</ele>
      </trkpt>
      <trkpt lat="46.15229" lon="6.33348">
        <ele>533.4</ele>
      </trkpt>
      <trkpt lat="46.1523" lon="6.33328">
        <ele>532.9</ele>
      </trkpt>
      <trkpt lat="46.15229" lon="6.33313">
        <ele>532.4</ele>
      </trkpt>
      <trkpt lat="46.15227" lon="6.33297">
        <ele>531.9</ele>
      </trkpt>
      <trkpt lat="46.1522" lon="6.33268">
        <ele>531</ele>
      </trkpt>
      <trkpt lat="46.15213" lon="6.33252">
        <ele>530.4</ele>
      </trkpt>
      <trkpt lat="46.15204" lon="6.33238">
        <ele>530.3</ele>
      </trkpt>
      <trkpt lat="46.15192" lon="6.33222">
        <ele>530.2</ele>
      </trkpt>
      <trkpt lat="46.15194" lon="6.33218">
        <ele>530</ele>
      </trkpt>
      <trkpt lat="46.15201" lon="6.33205">
        <ele>529.5</ele>
      </trkpt>
      <trkpt lat="46.15205" lon="6.33197">
        <ele>529.2</ele>
      </trkpt>
      <trkpt lat="46.15207" lon="6.33182">
        <ele>528.9</ele>
      </trkpt>
      <trkpt lat="46.15217" lon="6.33162">
        <ele>528.7</ele>
      </trkpt>
      <trkpt lat="46.15228" lon="6.33141">
        <ele>529.3</ele>
      </trkpt>
      <trkpt lat="46.15258" lon="6.33085">
        <ele>531.8</ele>
      </trkpt>
      <trkpt lat="46.15263" lon="6.33071">
        <ele>532.5</ele>
      </trkpt>
      <trkpt lat="46.15272" lon="6.33032">
        <ele>534.4</ele>
      </trkpt>
    </trkseg>
  </trk>
</gpx>